<?xml version="1.0" encoding="UTF-8" standalone="no" ?>
<gpx xmlns="http://www.topografix.com/GPX/1/1" xmlns:xsi="http://www.w3.org/2001/XMLSchema-instance" xsi:schemaLocation="http://www.topografix.com/GPX/1/1 http://www.topografix.com/GPX/1/1/gpx.xsd" version="1.1" creator="VisuGPX - https://www.visugpx.com">
  <metadata>
    <name>2018-06-26 Bike ride-Georges de Reneins O v50k</name>
    <desc><![CDATA[2018-06-26 Bike ride-Georges de Reneins O v50k]]></desc>
  </metadata>
  <wpt lat="45.92461" lon="4.73708">
    <ele>174</ele>
    <name><![CDATA[2018-06-26 10:19 (Start)]]></name>
  </wpt>
  <wpt lat="45.92459" lon="4.7371">
    <ele>174</ele>
    <name><![CDATA[2018-06-26 10:19 (End)]]></name>
  </wpt>
  <trk>
    <name><![CDATA[2018-06-26 10:19]]></name>
    <trkseg>
      <trkpt lat="45.92461" lon="4.73708">
        <ele>174</ele>
        <time>2018-06-26T08:19:42.016Z</time>
      </trkpt>
      <trkpt lat="45.9246" lon="4.73706">
        <ele>174</ele>
        <time>2018-06-26T08:19:41.701Z</time>
      </trkpt>
      <trkpt lat="45.92459" lon="4.7371">
        <ele>174</ele>
        <time>2018-06-26T08:19:42.676Z</time>
      </trkpt>
      <trkpt lat="45.92455" lon="4.7372">
        <ele>174</ele>
        <time>2018-06-26T08:19:47Z</time>
      </trkpt>
      <trkpt lat="45.92455" lon="4.73719">
        <ele>174</ele>
        <time>2018-06-26T08:19:48Z</time>
      </trkpt>
      <trkpt lat="45.92462" lon="4.7371">
        <ele>174</ele>
        <time>2018-06-26T08:20:05Z</time>
      </trkpt>
      <trkpt lat="45.92462" lon="4.73708">
        <ele>174</ele>
        <time>2018-06-26T08:20:06Z</time>
      </trkpt>
      <trkpt lat="45.92464" lon="4.73696">
        <ele>174</ele>
        <time>2018-06-26T08:20:10Z</time>
      </trkpt>
      <trkpt lat="45.92464" lon="4.73692">
        <ele>174</ele>
        <time>2018-06-26T08:20:11Z</time>
      </trkpt>
      <trkpt lat="45.92465" lon="4.73688">
        <ele>174</ele>
        <time>2018-06-26T08:20:12Z</time>
      </trkpt>
      <trkpt lat="45.92466" lon="4.73675">
        <ele>174</ele>
        <time>2018-06-26T08:20:13Z</time>
      </trkpt>
      <trkpt lat="45.92467" lon="4.73669">
        <ele>174</ele>
        <time>2018-06-26T08:20:15Z</time>
      </trkpt>
      <trkpt lat="45.92468" lon="4.73659">
        <ele>174</ele>
        <time>2018-06-26T08:20:16Z</time>
      </trkpt>
      <trkpt lat="45.9247" lon="4.73648">
        <ele>174</ele>
        <time>2018-06-26T08:20:18Z</time>
      </trkpt>
      <trkpt lat="45.92471" lon="4.73642">
        <ele>174</ele>
        <time>2018-06-26T08:20:19Z</time>
      </trkpt>
      <trkpt lat="45.92471" lon="4.73629">
        <ele>174</ele>
        <time>2018-06-26T08:20:21Z</time>
      </trkpt>
      <trkpt lat="45.92471" lon="4.73623">
        <ele>174</ele>
        <time>2018-06-26T08:20:22Z</time>
      </trkpt>
      <trkpt lat="45.9247" lon="4.73617">
        <ele>174</ele>
        <time>2018-06-26T08:20:23Z</time>
      </trkpt>
      <trkpt lat="45.92468" lon="4.7361">
        <ele>174</ele>
        <time>2018-06-26T08:20:24Z</time>
      </trkpt>
      <trkpt lat="45.92468" lon="4.73604">
        <ele>174</ele>
        <time>2018-06-26T08:20:25Z</time>
      </trkpt>
      <trkpt lat="45.92467" lon="4.73597">
        <ele>174</ele>
        <time>2018-06-26T08:20:26Z</time>
      </trkpt>
      <trkpt lat="45.92469" lon="4.73586">
        <ele>174</ele>
        <time>2018-06-26T08:20:28Z</time>
      </trkpt>
      <trkpt lat="45.92469" lon="4.73579">
        <ele>173</ele>
        <time>2018-06-26T08:20:29Z</time>
      </trkpt>
      <trkpt lat="45.92469" lon="4.73572">
        <ele>173</ele>
        <time>2018-06-26T08:20:30Z</time>
      </trkpt>
      <trkpt lat="45.92469" lon="4.73566">
        <ele>173</ele>
        <time>2018-06-26T08:20:31Z</time>
      </trkpt>
      <trkpt lat="45.92467" lon="4.73554">
        <ele>173</ele>
        <time>2018-06-26T08:20:34Z</time>
      </trkpt>
      <trkpt lat="45.92467" lon="4.7355">
        <ele>173</ele>
        <time>2018-06-26T08:20:35Z</time>
      </trkpt>
      <trkpt lat="45.92467" lon="4.73546">
        <ele>173</ele>
        <time>2018-06-26T08:20:36Z</time>
      </trkpt>
      <trkpt lat="45.92467" lon="4.73535">
        <ele>174</ele>
        <time>2018-06-26T08:20:37Z</time>
      </trkpt>
      <trkpt lat="45.92467" lon="4.73523">
        <ele>174</ele>
        <time>2018-06-26T08:20:39Z</time>
      </trkpt>
      <trkpt lat="45.92467" lon="4.73515">
        <ele>174</ele>
        <time>2018-06-26T08:20:40Z</time>
      </trkpt>
      <trkpt lat="45.92467" lon="4.73507">
        <ele>174</ele>
        <time>2018-06-26T08:20:41Z</time>
      </trkpt>
      <trkpt lat="45.92468" lon="4.735">
        <ele>173</ele>
        <time>2018-06-26T08:20:42Z</time>
      </trkpt>
      <trkpt lat="45.92468" lon="4.73493">
        <ele>173</ele>
        <time>2018-06-26T08:20:43Z</time>
      </trkpt>
      <trkpt lat="45.92468" lon="4.73485">
        <ele>173</ele>
        <time>2018-06-26T08:20:44Z</time>
      </trkpt>
      <trkpt lat="45.92469" lon="4.73473">
        <ele>173</ele>
        <time>2018-06-26T08:20:46Z</time>
      </trkpt>
      <trkpt lat="45.92468" lon="4.73466">
        <ele>173</ele>
        <time>2018-06-26T08:20:47Z</time>
      </trkpt>
      <trkpt lat="45.92467" lon="4.73453">
        <ele>173</ele>
        <time>2018-06-26T08:20:49Z</time>
      </trkpt>
      <trkpt lat="45.92466" lon="4.73448">
        <ele>173</ele>
        <time>2018-06-26T08:20:50Z</time>
      </trkpt>
      <trkpt lat="45.92464" lon="4.73442">
        <ele>173</ele>
        <time>2018-06-26T08:20:51Z</time>
      </trkpt>
      <trkpt lat="45.92462" lon="4.73435">
        <ele>173</ele>
        <time>2018-06-26T08:20:52Z</time>
      </trkpt>
      <trkpt lat="45.92456" lon="4.73426">
        <ele>173</ele>
        <time>2018-06-26T08:20:54Z</time>
      </trkpt>
      <trkpt lat="45.92452" lon="4.73422">
        <ele>173</ele>
        <time>2018-06-26T08:20:55Z</time>
      </trkpt>
      <trkpt lat="45.92448" lon="4.7342">
        <ele>173</ele>
        <time>2018-06-26T08:20:56Z</time>
      </trkpt>
      <trkpt lat="45.92444" lon="4.73417">
        <ele>172</ele>
        <time>2018-06-26T08:20:57Z</time>
      </trkpt>
      <trkpt lat="45.9244" lon="4.73413">
        <ele>172</ele>
        <time>2018-06-26T08:20:58Z</time>
      </trkpt>
      <trkpt lat="45.92435" lon="4.7341">
        <ele>172</ele>
        <time>2018-06-26T08:20:59Z</time>
      </trkpt>
      <trkpt lat="45.92432" lon="4.73404">
        <ele>172</ele>
        <time>2018-06-26T08:21:00Z</time>
      </trkpt>
      <trkpt lat="45.92428" lon="4.73399">
        <ele>172</ele>
        <time>2018-06-26T08:21:01Z</time>
      </trkpt>
      <trkpt lat="45.92425" lon="4.73393">
        <ele>172</ele>
        <time>2018-06-26T08:21:02Z</time>
      </trkpt>
      <trkpt lat="45.92424" lon="4.73385">
        <ele>172</ele>
        <time>2018-06-26T08:21:03Z</time>
      </trkpt>
      <trkpt lat="45.92423" lon="4.73379">
        <ele>172</ele>
        <time>2018-06-26T08:21:04Z</time>
      </trkpt>
      <trkpt lat="45.92422" lon="4.73371">
        <ele>172</ele>
        <time>2018-06-26T08:21:05Z</time>
      </trkpt>
      <trkpt lat="45.92422" lon="4.73364">
        <ele>172</ele>
        <time>2018-06-26T08:21:06Z</time>
      </trkpt>
      <trkpt lat="45.92421" lon="4.73356">
        <ele>171</ele>
        <time>2018-06-26T08:21:07Z</time>
      </trkpt>
      <trkpt lat="45.92421" lon="4.73349">
        <ele>171</ele>
        <time>2018-06-26T08:21:08Z</time>
      </trkpt>
      <trkpt lat="45.92419" lon="4.73342">
        <ele>171</ele>
        <time>2018-06-26T08:21:09Z</time>
      </trkpt>
      <trkpt lat="45.92417" lon="4.73334">
        <ele>171</ele>
        <time>2018-06-26T08:21:10Z</time>
      </trkpt>
      <trkpt lat="45.92417" lon="4.73327">
        <ele>171</ele>
        <time>2018-06-26T08:21:11Z</time>
      </trkpt>
      <trkpt lat="45.92416" lon="4.73321">
        <ele>171</ele>
        <time>2018-06-26T08:21:12Z</time>
      </trkpt>
      <trkpt lat="45.92416" lon="4.73314">
        <ele>171</ele>
        <time>2018-06-26T08:21:13Z</time>
      </trkpt>
      <trkpt lat="45.92415" lon="4.73306">
        <ele>171</ele>
        <time>2018-06-26T08:21:14Z</time>
      </trkpt>
      <trkpt lat="45.92414" lon="4.73298">
        <ele>171</ele>
        <time>2018-06-26T08:21:15Z</time>
      </trkpt>
      <trkpt lat="45.92413" lon="4.73291">
        <ele>171</ele>
        <time>2018-06-26T08:21:16Z</time>
      </trkpt>
      <trkpt lat="45.92412" lon="4.73285">
        <ele>171</ele>
        <time>2018-06-26T08:21:17Z</time>
      </trkpt>
      <trkpt lat="45.92411" lon="4.73278">
        <ele>171</ele>
        <time>2018-06-26T08:21:18Z</time>
      </trkpt>
      <trkpt lat="45.92411" lon="4.73271">
        <ele>171</ele>
        <time>2018-06-26T08:21:19Z</time>
      </trkpt>
      <trkpt lat="45.92411" lon="4.73264">
        <ele>171</ele>
        <time>2018-06-26T08:21:20Z</time>
      </trkpt>
      <trkpt lat="45.92411" lon="4.73257">
        <ele>171</ele>
        <time>2018-06-26T08:21:21Z</time>
      </trkpt>
      <trkpt lat="45.92411" lon="4.73251">
        <ele>171</ele>
        <time>2018-06-26T08:21:22Z</time>
      </trkpt>
      <trkpt lat="45.9241" lon="4.73243">
        <ele>171</ele>
        <time>2018-06-26T08:21:23Z</time>
      </trkpt>
      <trkpt lat="45.92409" lon="4.73236">
        <ele>171</ele>
        <time>2018-06-26T08:21:24Z</time>
      </trkpt>
      <trkpt lat="45.92409" lon="4.73229">
        <ele>171</ele>
        <time>2018-06-26T08:21:25Z</time>
      </trkpt>
      <trkpt lat="45.92409" lon="4.73221">
        <ele>171</ele>
        <time>2018-06-26T08:21:26Z</time>
      </trkpt>
      <trkpt lat="45.92408" lon="4.73213">
        <ele>171</ele>
        <time>2018-06-26T08:21:27Z</time>
      </trkpt>
      <trkpt lat="45.92408" lon="4.73204">
        <ele>171</ele>
        <time>2018-06-26T08:21:28Z</time>
      </trkpt>
      <trkpt lat="45.92407" lon="4.73196">
        <ele>171</ele>
        <time>2018-06-26T08:21:29Z</time>
      </trkpt>
      <trkpt lat="45.92407" lon="4.73188">
        <ele>171</ele>
        <time>2018-06-26T08:21:30Z</time>
      </trkpt>
      <trkpt lat="45.92407" lon="4.73181">
        <ele>171</ele>
        <time>2018-06-26T08:21:31Z</time>
      </trkpt>
      <trkpt lat="45.92406" lon="4.73173">
        <ele>171</ele>
        <time>2018-06-26T08:21:32Z</time>
      </trkpt>
      <trkpt lat="45.92404" lon="4.73164">
        <ele>170</ele>
        <time>2018-06-26T08:21:33Z</time>
      </trkpt>
      <trkpt lat="45.92405" lon="4.73158">
        <ele>170</ele>
        <time>2018-06-26T08:21:34Z</time>
      </trkpt>
      <trkpt lat="45.92405" lon="4.73151">
        <ele>171</ele>
        <time>2018-06-26T08:21:35Z</time>
      </trkpt>
      <trkpt lat="45.92406" lon="4.73144">
        <ele>171</ele>
        <time>2018-06-26T08:21:36Z</time>
      </trkpt>
      <trkpt lat="45.92406" lon="4.73137">
        <ele>171</ele>
        <time>2018-06-26T08:21:37Z</time>
      </trkpt>
      <trkpt lat="45.92407" lon="4.73129">
        <ele>171</ele>
        <time>2018-06-26T08:21:38Z</time>
      </trkpt>
      <trkpt lat="45.92407" lon="4.73122">
        <ele>171</ele>
        <time>2018-06-26T08:21:39Z</time>
      </trkpt>
      <trkpt lat="45.92412" lon="4.73112">
        <ele>171</ele>
        <time>2018-06-26T08:21:41Z</time>
      </trkpt>
      <trkpt lat="45.92415" lon="4.73109">
        <ele>171</ele>
        <time>2018-06-26T08:21:42Z</time>
      </trkpt>
      <trkpt lat="45.9242" lon="4.73106">
        <ele>171</ele>
        <time>2018-06-26T08:21:43Z</time>
      </trkpt>
      <trkpt lat="45.92425" lon="4.73102">
        <ele>171</ele>
        <time>2018-06-26T08:21:44Z</time>
      </trkpt>
      <trkpt lat="45.92429" lon="4.73098">
        <ele>171</ele>
        <time>2018-06-26T08:21:45Z</time>
      </trkpt>
      <trkpt lat="45.92434" lon="4.73095">
        <ele>171</ele>
        <time>2018-06-26T08:21:46Z</time>
      </trkpt>
      <trkpt lat="45.92439" lon="4.73091">
        <ele>171</ele>
        <time>2018-06-26T08:21:47Z</time>
      </trkpt>
      <trkpt lat="45.92443" lon="4.73087">
        <ele>170</ele>
        <time>2018-06-26T08:21:48Z</time>
      </trkpt>
      <trkpt lat="45.92447" lon="4.73085">
        <ele>170</ele>
        <time>2018-06-26T08:21:49Z</time>
      </trkpt>
      <trkpt lat="45.92451" lon="4.73081">
        <ele>170</ele>
        <time>2018-06-26T08:21:50Z</time>
      </trkpt>
      <trkpt lat="45.92455" lon="4.73078">
        <ele>170</ele>
        <time>2018-06-26T08:21:51Z</time>
      </trkpt>
      <trkpt lat="45.92459" lon="4.73075">
        <ele>170</ele>
        <time>2018-06-26T08:21:52Z</time>
      </trkpt>
      <trkpt lat="45.92463" lon="4.73073">
        <ele>170</ele>
        <time>2018-06-26T08:21:53Z</time>
      </trkpt>
      <trkpt lat="45.92469" lon="4.73067">
        <ele>170</ele>
        <time>2018-06-26T08:21:54Z</time>
      </trkpt>
      <trkpt lat="45.92474" lon="4.73061">
        <ele>170</ele>
        <time>2018-06-26T08:21:55Z</time>
      </trkpt>
      <trkpt lat="45.92478" lon="4.73058">
        <ele>170</ele>
        <time>2018-06-26T08:21:56Z</time>
      </trkpt>
      <trkpt lat="45.92484" lon="4.73053">
        <ele>170</ele>
        <time>2018-06-26T08:21:57Z</time>
      </trkpt>
      <trkpt lat="45.92489" lon="4.73047">
        <ele>170</ele>
        <time>2018-06-26T08:21:58Z</time>
      </trkpt>
      <trkpt lat="45.92494" lon="4.73043">
        <ele>170</ele>
        <time>2018-06-26T08:21:59Z</time>
      </trkpt>
      <trkpt lat="45.92499" lon="4.73039">
        <ele>170</ele>
        <time>2018-06-26T08:22:00Z</time>
      </trkpt>
      <trkpt lat="45.92503" lon="4.73035">
        <ele>169</ele>
        <time>2018-06-26T08:22:01Z</time>
      </trkpt>
      <trkpt lat="45.92508" lon="4.73032">
        <ele>169</ele>
        <time>2018-06-26T08:22:02Z</time>
      </trkpt>
      <trkpt lat="45.92512" lon="4.73028">
        <ele>169</ele>
        <time>2018-06-26T08:22:03Z</time>
      </trkpt>
      <trkpt lat="45.92516" lon="4.73024">
        <ele>169</ele>
        <time>2018-06-26T08:22:04Z</time>
      </trkpt>
      <trkpt lat="45.9252" lon="4.73019">
        <ele>169</ele>
        <time>2018-06-26T08:22:05Z</time>
      </trkpt>
      <trkpt lat="45.92524" lon="4.73016">
        <ele>169</ele>
        <time>2018-06-26T08:22:06Z</time>
      </trkpt>
      <trkpt lat="45.92529" lon="4.73013">
        <ele>169</ele>
        <time>2018-06-26T08:22:07Z</time>
      </trkpt>
      <trkpt lat="45.92533" lon="4.73008">
        <ele>169</ele>
        <time>2018-06-26T08:22:08Z</time>
      </trkpt>
      <trkpt lat="45.92537" lon="4.73004">
        <ele>169</ele>
        <time>2018-06-26T08:22:09Z</time>
      </trkpt>
      <trkpt lat="45.92543" lon="4.73">
        <ele>169</ele>
        <time>2018-06-26T08:22:10Z</time>
      </trkpt>
      <trkpt lat="45.92547" lon="4.72996">
        <ele>169</ele>
        <time>2018-06-26T08:22:11Z</time>
      </trkpt>
      <trkpt lat="45.92552" lon="4.72991">
        <ele>169</ele>
        <time>2018-06-26T08:22:12Z</time>
      </trkpt>
      <trkpt lat="45.92556" lon="4.72987">
        <ele>169</ele>
        <time>2018-06-26T08:22:13Z</time>
      </trkpt>
      <trkpt lat="45.92561" lon="4.72983">
        <ele>169</ele>
        <time>2018-06-26T08:22:14Z</time>
      </trkpt>
      <trkpt lat="45.92566" lon="4.72977">
        <ele>169</ele>
        <time>2018-06-26T08:22:15Z</time>
      </trkpt>
      <trkpt lat="45.9257" lon="4.72973">
        <ele>169</ele>
        <time>2018-06-26T08:22:16Z</time>
      </trkpt>
      <trkpt lat="45.92575" lon="4.72969">
        <ele>169</ele>
        <time>2018-06-26T08:22:17Z</time>
      </trkpt>
      <trkpt lat="45.92579" lon="4.72964">
        <ele>169</ele>
        <time>2018-06-26T08:22:18Z</time>
      </trkpt>
      <trkpt lat="45.92583" lon="4.72959">
        <ele>169</ele>
        <time>2018-06-26T08:22:19Z</time>
      </trkpt>
      <trkpt lat="45.92587" lon="4.72955">
        <ele>169</ele>
        <time>2018-06-26T08:22:20Z</time>
      </trkpt>
      <trkpt lat="45.92591" lon="4.7295">
        <ele>169</ele>
        <time>2018-06-26T08:22:21Z</time>
      </trkpt>
      <trkpt lat="45.92596" lon="4.72945">
        <ele>169</ele>
        <time>2018-06-26T08:22:22Z</time>
      </trkpt>
      <trkpt lat="45.926" lon="4.7294">
        <ele>169</ele>
        <time>2018-06-26T08:22:23Z</time>
      </trkpt>
      <trkpt lat="45.92604" lon="4.72935">
        <ele>169</ele>
        <time>2018-06-26T08:22:24Z</time>
      </trkpt>
      <trkpt lat="45.92608" lon="4.7293">
        <ele>169</ele>
        <time>2018-06-26T08:22:25Z</time>
      </trkpt>
      <trkpt lat="45.92612" lon="4.72926">
        <ele>169</ele>
        <time>2018-06-26T08:22:26Z</time>
      </trkpt>
      <trkpt lat="45.92617" lon="4.72922">
        <ele>169</ele>
        <time>2018-06-26T08:22:27Z</time>
      </trkpt>
      <trkpt lat="45.92621" lon="4.72919">
        <ele>169</ele>
        <time>2018-06-26T08:22:28Z</time>
      </trkpt>
      <trkpt lat="45.92625" lon="4.72915">
        <ele>169</ele>
        <time>2018-06-26T08:22:29Z</time>
      </trkpt>
      <trkpt lat="45.9263" lon="4.72909">
        <ele>169</ele>
        <time>2018-06-26T08:22:30Z</time>
      </trkpt>
      <trkpt lat="45.92635" lon="4.72905">
        <ele>169</ele>
        <time>2018-06-26T08:22:31Z</time>
      </trkpt>
      <trkpt lat="45.9264" lon="4.72901">
        <ele>169</ele>
        <time>2018-06-26T08:22:32Z</time>
      </trkpt>
      <trkpt lat="45.92645" lon="4.72897">
        <ele>169</ele>
        <time>2018-06-26T08:22:33Z</time>
      </trkpt>
      <trkpt lat="45.9265" lon="4.72894">
        <ele>169</ele>
        <time>2018-06-26T08:22:34Z</time>
      </trkpt>
      <trkpt lat="45.92655" lon="4.72891">
        <ele>169</ele>
        <time>2018-06-26T08:22:35Z</time>
      </trkpt>
      <trkpt lat="45.92658" lon="4.72887">
        <ele>169</ele>
        <time>2018-06-26T08:22:36Z</time>
      </trkpt>
      <trkpt lat="45.92664" lon="4.72884">
        <ele>169</ele>
        <time>2018-06-26T08:22:37Z</time>
      </trkpt>
      <trkpt lat="45.92668" lon="4.72879">
        <ele>170</ele>
        <time>2018-06-26T08:22:38Z</time>
      </trkpt>
      <trkpt lat="45.92674" lon="4.72875">
        <ele>169</ele>
        <time>2018-06-26T08:22:39Z</time>
      </trkpt>
      <trkpt lat="45.92679" lon="4.72872">
        <ele>169</ele>
        <time>2018-06-26T08:22:40Z</time>
      </trkpt>
      <trkpt lat="45.92683" lon="4.72868">
        <ele>169</ele>
        <time>2018-06-26T08:22:41Z</time>
      </trkpt>
      <trkpt lat="45.92688" lon="4.72865">
        <ele>169</ele>
        <time>2018-06-26T08:22:42Z</time>
      </trkpt>
      <trkpt lat="45.92693" lon="4.72861">
        <ele>169</ele>
        <time>2018-06-26T08:22:43Z</time>
      </trkpt>
      <trkpt lat="45.92698" lon="4.72858">
        <ele>169</ele>
        <time>2018-06-26T08:22:44Z</time>
      </trkpt>
      <trkpt lat="45.92703" lon="4.72854">
        <ele>169</ele>
        <time>2018-06-26T08:22:45Z</time>
      </trkpt>
      <trkpt lat="45.92707" lon="4.72851">
        <ele>169</ele>
        <time>2018-06-26T08:22:46Z</time>
      </trkpt>
      <trkpt lat="45.92712" lon="4.72847">
        <ele>169</ele>
        <time>2018-06-26T08:22:47Z</time>
      </trkpt>
      <trkpt lat="45.92717" lon="4.72843">
        <ele>169</ele>
        <time>2018-06-26T08:22:48Z</time>
      </trkpt>
      <trkpt lat="45.92723" lon="4.72839">
        <ele>169</ele>
        <time>2018-06-26T08:22:49Z</time>
      </trkpt>
      <trkpt lat="45.92728" lon="4.72836">
        <ele>169</ele>
        <time>2018-06-26T08:22:50Z</time>
      </trkpt>
      <trkpt lat="45.92732" lon="4.72832">
        <ele>169</ele>
        <time>2018-06-26T08:22:51Z</time>
      </trkpt>
      <trkpt lat="45.92737" lon="4.72829">
        <ele>169</ele>
        <time>2018-06-26T08:22:52Z</time>
      </trkpt>
      <trkpt lat="45.92742" lon="4.72825">
        <ele>169</ele>
        <time>2018-06-26T08:22:53Z</time>
      </trkpt>
      <trkpt lat="45.92747" lon="4.72821">
        <ele>169</ele>
        <time>2018-06-26T08:22:54Z</time>
      </trkpt>
      <trkpt lat="45.92751" lon="4.72817">
        <ele>170</ele>
        <time>2018-06-26T08:22:55Z</time>
      </trkpt>
      <trkpt lat="45.92755" lon="4.72814">
        <ele>170</ele>
        <time>2018-06-26T08:22:56Z</time>
      </trkpt>
      <trkpt lat="45.9276" lon="4.72811">
        <ele>170</ele>
        <time>2018-06-26T08:22:57Z</time>
      </trkpt>
      <trkpt lat="45.92764" lon="4.72807">
        <ele>170</ele>
        <time>2018-06-26T08:22:58Z</time>
      </trkpt>
      <trkpt lat="45.92769" lon="4.72804">
        <ele>170</ele>
        <time>2018-06-26T08:22:59Z</time>
      </trkpt>
      <trkpt lat="45.92773" lon="4.72801">
        <ele>170</ele>
        <time>2018-06-26T08:23:00Z</time>
      </trkpt>
      <trkpt lat="45.92778" lon="4.72797">
        <ele>170</ele>
        <time>2018-06-26T08:23:01Z</time>
      </trkpt>
      <trkpt lat="45.92782" lon="4.72794">
        <ele>170</ele>
        <time>2018-06-26T08:23:02Z</time>
      </trkpt>
      <trkpt lat="45.92789" lon="4.72789">
        <ele>170</ele>
        <time>2018-06-26T08:23:04Z</time>
      </trkpt>
      <trkpt lat="45.92793" lon="4.72788">
        <ele>171</ele>
        <time>2018-06-26T08:23:05Z</time>
      </trkpt>
      <trkpt lat="45.92801" lon="4.72791">
        <ele>171</ele>
        <time>2018-06-26T08:23:07Z</time>
      </trkpt>
      <trkpt lat="45.92801" lon="4.72796">
        <ele>171</ele>
        <time>2018-06-26T08:23:08Z</time>
      </trkpt>
      <trkpt lat="45.92803" lon="4.72806">
        <ele>171</ele>
        <time>2018-06-26T08:23:10Z</time>
      </trkpt>
      <trkpt lat="45.92804" lon="4.72812">
        <ele>171</ele>
        <time>2018-06-26T08:23:11Z</time>
      </trkpt>
      <trkpt lat="45.92807" lon="4.72824">
        <ele>171</ele>
        <time>2018-06-26T08:23:13Z</time>
      </trkpt>
      <trkpt lat="45.92808" lon="4.7283">
        <ele>171</ele>
        <time>2018-06-26T08:23:14Z</time>
      </trkpt>
      <trkpt lat="45.9281" lon="4.72842">
        <ele>170</ele>
        <time>2018-06-26T08:23:16Z</time>
      </trkpt>
      <trkpt lat="45.92812" lon="4.7285">
        <ele>170</ele>
        <time>2018-06-26T08:23:17Z</time>
      </trkpt>
      <trkpt lat="45.92813" lon="4.72857">
        <ele>170</ele>
        <time>2018-06-26T08:23:18Z</time>
      </trkpt>
      <trkpt lat="45.92814" lon="4.72864">
        <ele>170</ele>
        <time>2018-06-26T08:23:19Z</time>
      </trkpt>
      <trkpt lat="45.92816" lon="4.72871">
        <ele>170</ele>
        <time>2018-06-26T08:23:20Z</time>
      </trkpt>
      <trkpt lat="45.92818" lon="4.72878">
        <ele>170</ele>
        <time>2018-06-26T08:23:21Z</time>
      </trkpt>
      <trkpt lat="45.92819" lon="4.72885">
        <ele>170</ele>
        <time>2018-06-26T08:23:22Z</time>
      </trkpt>
      <trkpt lat="45.9282" lon="4.72892">
        <ele>170</ele>
        <time>2018-06-26T08:23:23Z</time>
      </trkpt>
      <trkpt lat="45.92821" lon="4.72899">
        <ele>170</ele>
        <time>2018-06-26T08:23:24Z</time>
      </trkpt>
      <trkpt lat="45.92822" lon="4.72906">
        <ele>170</ele>
        <time>2018-06-26T08:23:25Z</time>
      </trkpt>
      <trkpt lat="45.92823" lon="4.72914">
        <ele>170</ele>
        <time>2018-06-26T08:23:26Z</time>
      </trkpt>
      <trkpt lat="45.92823" lon="4.72921">
        <ele>170</ele>
        <time>2018-06-26T08:23:27Z</time>
      </trkpt>
      <trkpt lat="45.92824" lon="4.72928">
        <ele>170</ele>
        <time>2018-06-26T08:23:28Z</time>
      </trkpt>
      <trkpt lat="45.92826" lon="4.72936">
        <ele>170</ele>
        <time>2018-06-26T08:23:29Z</time>
      </trkpt>
      <trkpt lat="45.92826" lon="4.72944">
        <ele>170</ele>
        <time>2018-06-26T08:23:30Z</time>
      </trkpt>
      <trkpt lat="45.92827" lon="4.72952">
        <ele>170</ele>
        <time>2018-06-26T08:23:31Z</time>
      </trkpt>
      <trkpt lat="45.92828" lon="4.72961">
        <ele>170</ele>
        <time>2018-06-26T08:23:32Z</time>
      </trkpt>
      <trkpt lat="45.92828" lon="4.72969">
        <ele>170</ele>
        <time>2018-06-26T08:23:33Z</time>
      </trkpt>
      <trkpt lat="45.92828" lon="4.72976">
        <ele>170</ele>
        <time>2018-06-26T08:23:34Z</time>
      </trkpt>
      <trkpt lat="45.92829" lon="4.72984">
        <ele>170</ele>
        <time>2018-06-26T08:23:35Z</time>
      </trkpt>
      <trkpt lat="45.9283" lon="4.72991">
        <ele>170</ele>
        <time>2018-06-26T08:23:36Z</time>
      </trkpt>
      <trkpt lat="45.92831" lon="4.72998">
        <ele>170</ele>
        <time>2018-06-26T08:23:37Z</time>
      </trkpt>
      <trkpt lat="45.92832" lon="4.73006">
        <ele>170</ele>
        <time>2018-06-26T08:23:38Z</time>
      </trkpt>
      <trkpt lat="45.92834" lon="4.73013">
        <ele>171</ele>
        <time>2018-06-26T08:23:39Z</time>
      </trkpt>
      <trkpt lat="45.92836" lon="4.73025">
        <ele>171</ele>
        <time>2018-06-26T08:23:41Z</time>
      </trkpt>
      <trkpt lat="45.92837" lon="4.73032">
        <ele>171</ele>
        <time>2018-06-26T08:23:42Z</time>
      </trkpt>
      <trkpt lat="45.92838" lon="4.73039">
        <ele>171</ele>
        <time>2018-06-26T08:23:43Z</time>
      </trkpt>
      <trkpt lat="45.92839" lon="4.73047">
        <ele>171</ele>
        <time>2018-06-26T08:23:44Z</time>
      </trkpt>
      <trkpt lat="45.9284" lon="4.73053">
        <ele>171</ele>
        <time>2018-06-26T08:23:45Z</time>
      </trkpt>
      <trkpt lat="45.92841" lon="4.7306">
        <ele>171</ele>
        <time>2018-06-26T08:23:46Z</time>
      </trkpt>
      <trkpt lat="45.92842" lon="4.73067">
        <ele>171</ele>
        <time>2018-06-26T08:23:47Z</time>
      </trkpt>
      <trkpt lat="45.92843" lon="4.73074">
        <ele>171</ele>
        <time>2018-06-26T08:23:48Z</time>
      </trkpt>
      <trkpt lat="45.92846" lon="4.73082">
        <ele>171</ele>
        <time>2018-06-26T08:23:49Z</time>
      </trkpt>
      <trkpt lat="45.92847" lon="4.73089">
        <ele>171</ele>
        <time>2018-06-26T08:23:50Z</time>
      </trkpt>
      <trkpt lat="45.92851" lon="4.731">
        <ele>171</ele>
        <time>2018-06-26T08:23:52Z</time>
      </trkpt>
      <trkpt lat="45.92854" lon="4.73101">
        <ele>171</ele>
        <time>2018-06-26T08:23:53Z</time>
      </trkpt>
      <trkpt lat="45.92859" lon="4.73098">
        <ele>171</ele>
        <time>2018-06-26T08:23:56Z</time>
      </trkpt>
      <trkpt lat="45.92864" lon="4.7309">
        <ele>171</ele>
        <time>2018-06-26T08:23:57Z</time>
      </trkpt>
      <trkpt lat="45.9287" lon="4.73082">
        <ele>172</ele>
        <time>2018-06-26T08:24:02Z</time>
      </trkpt>
      <trkpt lat="45.92871" lon="4.73081">
        <ele>172</ele>
        <time>2018-06-26T08:24:03Z</time>
      </trkpt>
      <trkpt lat="45.92878" lon="4.73074">
        <ele>172</ele>
        <time>2018-06-26T08:24:07Z</time>
      </trkpt>
      <trkpt lat="45.92886" lon="4.73068">
        <ele>172</ele>
        <time>2018-06-26T08:24:08Z</time>
      </trkpt>
      <trkpt lat="45.9289" lon="4.73066">
        <ele>172</ele>
        <time>2018-06-26T08:24:09Z</time>
      </trkpt>
      <trkpt lat="45.92894" lon="4.73061">
        <ele>172</ele>
        <time>2018-06-26T08:24:10Z</time>
      </trkpt>
      <trkpt lat="45.92898" lon="4.73057">
        <ele>172</ele>
        <time>2018-06-26T08:24:11Z</time>
      </trkpt>
      <trkpt lat="45.92901" lon="4.73051">
        <ele>172</ele>
        <time>2018-06-26T08:24:12Z</time>
      </trkpt>
      <trkpt lat="45.92905" lon="4.73045">
        <ele>172</ele>
        <time>2018-06-26T08:24:13Z</time>
      </trkpt>
      <trkpt lat="45.92908" lon="4.73039">
        <ele>172</ele>
        <time>2018-06-26T08:24:14Z</time>
      </trkpt>
      <trkpt lat="45.92912" lon="4.73034">
        <ele>172</ele>
        <time>2018-06-26T08:24:15Z</time>
      </trkpt>
      <trkpt lat="45.92916" lon="4.73028">
        <ele>172</ele>
        <time>2018-06-26T08:24:16Z</time>
      </trkpt>
      <trkpt lat="45.92921" lon="4.73021">
        <ele>172</ele>
        <time>2018-06-26T08:24:17Z</time>
      </trkpt>
      <trkpt lat="45.92925" lon="4.73017">
        <ele>172</ele>
        <time>2018-06-26T08:24:18Z</time>
      </trkpt>
      <trkpt lat="45.92929" lon="4.73013">
        <ele>171</ele>
        <time>2018-06-26T08:24:19Z</time>
      </trkpt>
      <trkpt lat="45.92934" lon="4.73007">
        <ele>171</ele>
        <time>2018-06-26T08:24:20Z</time>
      </trkpt>
      <trkpt lat="45.92938" lon="4.73002">
        <ele>171</ele>
        <time>2018-06-26T08:24:21Z</time>
      </trkpt>
      <trkpt lat="45.92943" lon="4.72996">
        <ele>171</ele>
        <time>2018-06-26T08:24:22Z</time>
      </trkpt>
      <trkpt lat="45.92947" lon="4.72992">
        <ele>171</ele>
        <time>2018-06-26T08:24:23Z</time>
      </trkpt>
      <trkpt lat="45.92951" lon="4.72988">
        <ele>171</ele>
        <time>2018-06-26T08:24:24Z</time>
      </trkpt>
      <trkpt lat="45.92955" lon="4.72984">
        <ele>171</ele>
        <time>2018-06-26T08:24:25Z</time>
      </trkpt>
      <trkpt lat="45.9296" lon="4.72978">
        <ele>171</ele>
        <time>2018-06-26T08:24:26Z</time>
      </trkpt>
      <trkpt lat="45.92963" lon="4.72974">
        <ele>171</ele>
        <time>2018-06-26T08:24:27Z</time>
      </trkpt>
      <trkpt lat="45.92968" lon="4.72968">
        <ele>171</ele>
        <time>2018-06-26T08:24:28Z</time>
      </trkpt>
      <trkpt lat="45.92972" lon="4.72963">
        <ele>171</ele>
        <time>2018-06-26T08:24:29Z</time>
      </trkpt>
      <trkpt lat="45.92976" lon="4.72959">
        <ele>171</ele>
        <time>2018-06-26T08:24:30Z</time>
      </trkpt>
      <trkpt lat="45.9298" lon="4.72953">
        <ele>171</ele>
        <time>2018-06-26T08:24:31Z</time>
      </trkpt>
      <trkpt lat="45.92985" lon="4.72947">
        <ele>171</ele>
        <time>2018-06-26T08:24:32Z</time>
      </trkpt>
      <trkpt lat="45.9299" lon="4.72942">
        <ele>171</ele>
        <time>2018-06-26T08:24:33Z</time>
      </trkpt>
      <trkpt lat="45.92994" lon="4.72936">
        <ele>171</ele>
        <time>2018-06-26T08:24:34Z</time>
      </trkpt>
      <trkpt lat="45.92998" lon="4.72931">
        <ele>171</ele>
        <time>2018-06-26T08:24:35Z</time>
      </trkpt>
      <trkpt lat="45.93003" lon="4.72925">
        <ele>170</ele>
        <time>2018-06-26T08:24:36Z</time>
      </trkpt>
      <trkpt lat="45.93007" lon="4.7292">
        <ele>170</ele>
        <time>2018-06-26T08:24:37Z</time>
      </trkpt>
      <trkpt lat="45.93011" lon="4.72915">
        <ele>171</ele>
        <time>2018-06-26T08:24:38Z</time>
      </trkpt>
      <trkpt lat="45.93012" lon="4.72913">
        <ele>171</ele>
        <time>2018-06-26T08:24:39Z</time>
      </trkpt>
      <trkpt lat="45.93018" lon="4.72904">
        <ele>172</ele>
        <time>2018-06-26T08:24:40Z</time>
      </trkpt>
      <trkpt lat="45.93023" lon="4.72899">
        <ele>172</ele>
        <time>2018-06-26T08:24:41Z</time>
      </trkpt>
      <trkpt lat="45.93028" lon="4.72896">
        <ele>172</ele>
        <time>2018-06-26T08:24:42Z</time>
      </trkpt>
      <trkpt lat="45.93033" lon="4.72891">
        <ele>172</ele>
        <time>2018-06-26T08:24:43Z</time>
      </trkpt>
      <trkpt lat="45.93037" lon="4.72888">
        <ele>172</ele>
        <time>2018-06-26T08:24:44Z</time>
      </trkpt>
      <trkpt lat="45.93041" lon="4.7288">
        <ele>172</ele>
        <time>2018-06-26T08:24:45Z</time>
      </trkpt>
      <trkpt lat="45.93046" lon="4.72876">
        <ele>172</ele>
        <time>2018-06-26T08:24:46Z</time>
      </trkpt>
      <trkpt lat="45.9305" lon="4.72871">
        <ele>172</ele>
        <time>2018-06-26T08:24:47Z</time>
      </trkpt>
      <trkpt lat="45.93054" lon="4.72866">
        <ele>172</ele>
        <time>2018-06-26T08:24:48Z</time>
      </trkpt>
      <trkpt lat="45.93058" lon="4.72862">
        <ele>172</ele>
        <time>2018-06-26T08:24:49Z</time>
      </trkpt>
      <trkpt lat="45.93063" lon="4.72855">
        <ele>172</ele>
        <time>2018-06-26T08:24:50Z</time>
      </trkpt>
      <trkpt lat="45.93101" lon="4.72798">
        <ele>171</ele>
        <time>2018-06-26T08:24:59Z</time>
      </trkpt>
      <trkpt lat="45.93109" lon="4.72793">
        <ele>171</ele>
        <time>2018-06-26T08:25:01Z</time>
      </trkpt>
      <trkpt lat="45.93114" lon="4.7279">
        <ele>171</ele>
        <time>2018-06-26T08:25:02Z</time>
      </trkpt>
      <trkpt lat="45.93119" lon="4.72784">
        <ele>171</ele>
        <time>2018-06-26T08:25:03Z</time>
      </trkpt>
      <trkpt lat="45.93123" lon="4.7278">
        <ele>171</ele>
        <time>2018-06-26T08:25:04Z</time>
      </trkpt>
      <trkpt lat="45.93128" lon="4.72772">
        <ele>171</ele>
        <time>2018-06-26T08:25:05Z</time>
      </trkpt>
      <trkpt lat="45.93131" lon="4.72769">
        <ele>171</ele>
        <time>2018-06-26T08:25:06Z</time>
      </trkpt>
      <trkpt lat="45.93136" lon="4.72765">
        <ele>171</ele>
        <time>2018-06-26T08:25:07Z</time>
      </trkpt>
      <trkpt lat="45.93139" lon="4.7276">
        <ele>171</ele>
        <time>2018-06-26T08:25:08Z</time>
      </trkpt>
      <trkpt lat="45.93144" lon="4.72755">
        <ele>171</ele>
        <time>2018-06-26T08:25:09Z</time>
      </trkpt>
      <trkpt lat="45.93149" lon="4.7275">
        <ele>170</ele>
        <time>2018-06-26T08:25:10Z</time>
      </trkpt>
      <trkpt lat="45.93154" lon="4.72744">
        <ele>170</ele>
        <time>2018-06-26T08:25:11Z</time>
      </trkpt>
      <trkpt lat="45.93158" lon="4.7274">
        <ele>170</ele>
        <time>2018-06-26T08:25:12Z</time>
      </trkpt>
      <trkpt lat="45.93162" lon="4.72735">
        <ele>170</ele>
        <time>2018-06-26T08:25:13Z</time>
      </trkpt>
      <trkpt lat="45.93167" lon="4.7273">
        <ele>170</ele>
        <time>2018-06-26T08:25:14Z</time>
      </trkpt>
      <trkpt lat="45.93171" lon="4.72725">
        <ele>170</ele>
        <time>2018-06-26T08:25:15Z</time>
      </trkpt>
      <trkpt lat="45.93175" lon="4.7272">
        <ele>170</ele>
        <time>2018-06-26T08:25:16Z</time>
      </trkpt>
      <trkpt lat="45.93179" lon="4.72715">
        <ele>169</ele>
        <time>2018-06-26T08:25:17Z</time>
      </trkpt>
      <trkpt lat="45.93183" lon="4.72711">
        <ele>169</ele>
        <time>2018-06-26T08:25:18Z</time>
      </trkpt>
      <trkpt lat="45.93189" lon="4.72703">
        <ele>169</ele>
        <time>2018-06-26T08:25:19Z</time>
      </trkpt>
      <trkpt lat="45.93194" lon="4.72699">
        <ele>169</ele>
        <time>2018-06-26T08:25:20Z</time>
      </trkpt>
      <trkpt lat="45.93198" lon="4.72694">
        <ele>169</ele>
        <time>2018-06-26T08:25:21Z</time>
      </trkpt>
      <trkpt lat="45.93202" lon="4.72689">
        <ele>169</ele>
        <time>2018-06-26T08:25:22Z</time>
      </trkpt>
      <trkpt lat="45.93206" lon="4.72685">
        <ele>169</ele>
        <time>2018-06-26T08:25:23Z</time>
      </trkpt>
      <trkpt lat="45.93211" lon="4.72679">
        <ele>169</ele>
        <time>2018-06-26T08:25:24Z</time>
      </trkpt>
      <trkpt lat="45.93215" lon="4.72674">
        <ele>169</ele>
        <time>2018-06-26T08:25:25Z</time>
      </trkpt>
      <trkpt lat="45.93218" lon="4.72669">
        <ele>169</ele>
        <time>2018-06-26T08:25:26Z</time>
      </trkpt>
      <trkpt lat="45.93222" lon="4.72664">
        <ele>170</ele>
        <time>2018-06-26T08:25:27Z</time>
      </trkpt>
      <trkpt lat="45.93227" lon="4.7266">
        <ele>170</ele>
        <time>2018-06-26T08:25:28Z</time>
      </trkpt>
      <trkpt lat="45.93231" lon="4.72656">
        <ele>169</ele>
        <time>2018-06-26T08:25:29Z</time>
      </trkpt>
      <trkpt lat="45.93236" lon="4.7265">
        <ele>170</ele>
        <time>2018-06-26T08:25:30Z</time>
      </trkpt>
      <trkpt lat="45.93239" lon="4.72646">
        <ele>170</ele>
        <time>2018-06-26T08:25:31Z</time>
      </trkpt>
      <trkpt lat="45.93244" lon="4.72641">
        <ele>170</ele>
        <time>2018-06-26T08:25:32Z</time>
      </trkpt>
      <trkpt lat="45.93248" lon="4.72636">
        <ele>170</ele>
        <time>2018-06-26T08:25:33Z</time>
      </trkpt>
      <trkpt lat="45.93253" lon="4.72631">
        <ele>170</ele>
        <time>2018-06-26T08:25:34Z</time>
      </trkpt>
      <trkpt lat="45.93258" lon="4.72626">
        <ele>170</ele>
        <time>2018-06-26T08:25:35Z</time>
      </trkpt>
      <trkpt lat="45.93261" lon="4.72622">
        <ele>170</ele>
        <time>2018-06-26T08:25:36Z</time>
      </trkpt>
      <trkpt lat="45.93265" lon="4.72616">
        <ele>170</ele>
        <time>2018-06-26T08:25:37Z</time>
      </trkpt>
      <trkpt lat="45.93269" lon="4.72611">
        <ele>170</ele>
        <time>2018-06-26T08:25:38Z</time>
      </trkpt>
      <trkpt lat="45.93273" lon="4.72608">
        <ele>170</ele>
        <time>2018-06-26T08:25:39Z</time>
      </trkpt>
      <trkpt lat="45.93277" lon="4.72604">
        <ele>170</ele>
        <time>2018-06-26T08:25:40Z</time>
      </trkpt>
      <trkpt lat="45.93281" lon="4.72599">
        <ele>170</ele>
        <time>2018-06-26T08:25:41Z</time>
      </trkpt>
      <trkpt lat="45.93284" lon="4.72593">
        <ele>170</ele>
        <time>2018-06-26T08:25:42Z</time>
      </trkpt>
      <trkpt lat="45.93288" lon="4.72588">
        <ele>170</ele>
        <time>2018-06-26T08:25:43Z</time>
      </trkpt>
      <trkpt lat="45.93293" lon="4.72582">
        <ele>171</ele>
        <time>2018-06-26T08:25:44Z</time>
      </trkpt>
      <trkpt lat="45.93298" lon="4.72577">
        <ele>171</ele>
        <time>2018-06-26T08:25:45Z</time>
      </trkpt>
      <trkpt lat="45.93302" lon="4.72573">
        <ele>171</ele>
        <time>2018-06-26T08:25:46Z</time>
      </trkpt>
      <trkpt lat="45.93306" lon="4.72568">
        <ele>171</ele>
        <time>2018-06-26T08:25:47Z</time>
      </trkpt>
      <trkpt lat="45.9331" lon="4.72562">
        <ele>171</ele>
        <time>2018-06-26T08:25:48Z</time>
      </trkpt>
      <trkpt lat="45.93315" lon="4.72558">
        <ele>171</ele>
        <time>2018-06-26T08:25:49Z</time>
      </trkpt>
      <trkpt lat="45.93319" lon="4.72554">
        <ele>172</ele>
        <time>2018-06-26T08:25:50Z</time>
      </trkpt>
      <trkpt lat="45.93324" lon="4.72548">
        <ele>172</ele>
        <time>2018-06-26T08:25:51Z</time>
      </trkpt>
      <trkpt lat="45.93328" lon="4.72542">
        <ele>172</ele>
        <time>2018-06-26T08:25:52Z</time>
      </trkpt>
      <trkpt lat="45.93333" lon="4.72537">
        <ele>172</ele>
        <time>2018-06-26T08:25:53Z</time>
      </trkpt>
      <trkpt lat="45.93337" lon="4.72533">
        <ele>172</ele>
        <time>2018-06-26T08:25:54Z</time>
      </trkpt>
      <trkpt lat="45.93342" lon="4.72527">
        <ele>172</ele>
        <time>2018-06-26T08:25:55Z</time>
      </trkpt>
      <trkpt lat="45.93347" lon="4.72521">
        <ele>172</ele>
        <time>2018-06-26T08:25:56Z</time>
      </trkpt>
      <trkpt lat="45.93352" lon="4.72516">
        <ele>172</ele>
        <time>2018-06-26T08:25:57Z</time>
      </trkpt>
      <trkpt lat="45.93357" lon="4.72511">
        <ele>172</ele>
        <time>2018-06-26T08:25:58Z</time>
      </trkpt>
      <trkpt lat="45.93361" lon="4.72506">
        <ele>172</ele>
        <time>2018-06-26T08:25:59Z</time>
      </trkpt>
      <trkpt lat="45.93365" lon="4.72501">
        <ele>172</ele>
        <time>2018-06-26T08:26:00Z</time>
      </trkpt>
      <trkpt lat="45.93369" lon="4.72496">
        <ele>173</ele>
        <time>2018-06-26T08:26:01Z</time>
      </trkpt>
      <trkpt lat="45.93373" lon="4.72491">
        <ele>173</ele>
        <time>2018-06-26T08:26:02Z</time>
      </trkpt>
      <trkpt lat="45.93376" lon="4.72485">
        <ele>173</ele>
        <time>2018-06-26T08:26:03Z</time>
      </trkpt>
      <trkpt lat="45.93379" lon="4.72482">
        <ele>173</ele>
        <time>2018-06-26T08:26:04Z</time>
      </trkpt>
      <trkpt lat="45.93384" lon="4.72476">
        <ele>173</ele>
        <time>2018-06-26T08:26:05Z</time>
      </trkpt>
      <trkpt lat="45.93388" lon="4.72472">
        <ele>173</ele>
        <time>2018-06-26T08:26:06Z</time>
      </trkpt>
      <trkpt lat="45.93393" lon="4.72462">
        <ele>173</ele>
        <time>2018-06-26T08:26:08Z</time>
      </trkpt>
      <trkpt lat="45.93396" lon="4.72455">
        <ele>173</ele>
        <time>2018-06-26T08:26:09Z</time>
      </trkpt>
      <trkpt lat="45.93396" lon="4.72449">
        <ele>173</ele>
        <time>2018-06-26T08:26:10Z</time>
      </trkpt>
      <trkpt lat="45.93398" lon="4.72443">
        <ele>173</ele>
        <time>2018-06-26T08:26:11Z</time>
      </trkpt>
      <trkpt lat="45.93401" lon="4.72436">
        <ele>173</ele>
        <time>2018-06-26T08:26:12Z</time>
      </trkpt>
      <trkpt lat="45.93403" lon="4.72431">
        <ele>173</ele>
        <time>2018-06-26T08:26:13Z</time>
      </trkpt>
      <trkpt lat="45.93407" lon="4.72426">
        <ele>174</ele>
        <time>2018-06-26T08:26:14Z</time>
      </trkpt>
      <trkpt lat="45.93411" lon="4.72423">
        <ele>174</ele>
        <time>2018-06-26T08:26:15Z</time>
      </trkpt>
      <trkpt lat="45.93416" lon="4.7242">
        <ele>174</ele>
        <time>2018-06-26T08:26:16Z</time>
      </trkpt>
      <trkpt lat="45.93421" lon="4.72417">
        <ele>174</ele>
        <time>2018-06-26T08:26:17Z</time>
      </trkpt>
      <trkpt lat="45.93427" lon="4.72413">
        <ele>174</ele>
        <time>2018-06-26T08:26:18Z</time>
      </trkpt>
      <trkpt lat="45.93433" lon="4.72409">
        <ele>174</ele>
        <time>2018-06-26T08:26:19Z</time>
      </trkpt>
      <trkpt lat="45.93438" lon="4.72406">
        <ele>174</ele>
        <time>2018-06-26T08:26:20Z</time>
      </trkpt>
      <trkpt lat="45.93443" lon="4.72403">
        <ele>173</ele>
        <time>2018-06-26T08:26:21Z</time>
      </trkpt>
      <trkpt lat="45.93448" lon="4.72399">
        <ele>173</ele>
        <time>2018-06-26T08:26:22Z</time>
      </trkpt>
      <trkpt lat="45.93454" lon="4.72395">
        <ele>173</ele>
        <time>2018-06-26T08:26:23Z</time>
      </trkpt>
      <trkpt lat="45.9346" lon="4.7239">
        <ele>173</ele>
        <time>2018-06-26T08:26:24Z</time>
      </trkpt>
      <trkpt lat="45.93465" lon="4.72382">
        <ele>173</ele>
        <time>2018-06-26T08:26:25Z</time>
      </trkpt>
      <trkpt lat="45.93469" lon="4.72377">
        <ele>173</ele>
        <time>2018-06-26T08:26:26Z</time>
      </trkpt>
      <trkpt lat="45.93473" lon="4.72372">
        <ele>173</ele>
        <time>2018-06-26T08:26:27Z</time>
      </trkpt>
      <trkpt lat="45.93477" lon="4.72367">
        <ele>173</ele>
        <time>2018-06-26T08:26:28Z</time>
      </trkpt>
      <trkpt lat="45.9348" lon="4.72361">
        <ele>173</ele>
        <time>2018-06-26T08:26:29Z</time>
      </trkpt>
      <trkpt lat="45.93483" lon="4.72356">
        <ele>173</ele>
        <time>2018-06-26T08:26:30Z</time>
      </trkpt>
      <trkpt lat="45.93487" lon="4.72351">
        <ele>173</ele>
        <time>2018-06-26T08:26:31Z</time>
      </trkpt>
      <trkpt lat="45.9349" lon="4.72345">
        <ele>173</ele>
        <time>2018-06-26T08:26:32Z</time>
      </trkpt>
      <trkpt lat="45.93494" lon="4.7234">
        <ele>173</ele>
        <time>2018-06-26T08:26:33Z</time>
      </trkpt>
      <trkpt lat="45.93497" lon="4.72336">
        <ele>173</ele>
        <time>2018-06-26T08:26:34Z</time>
      </trkpt>
      <trkpt lat="45.93502" lon="4.72331">
        <ele>173</ele>
        <time>2018-06-26T08:26:35Z</time>
      </trkpt>
      <trkpt lat="45.93506" lon="4.72326">
        <ele>173</ele>
        <time>2018-06-26T08:26:36Z</time>
      </trkpt>
      <trkpt lat="45.93509" lon="4.7232">
        <ele>173</ele>
        <time>2018-06-26T08:26:37Z</time>
      </trkpt>
      <trkpt lat="45.93512" lon="4.72314">
        <ele>173</ele>
        <time>2018-06-26T08:26:38Z</time>
      </trkpt>
      <trkpt lat="45.93515" lon="4.7231">
        <ele>173</ele>
        <time>2018-06-26T08:26:39Z</time>
      </trkpt>
      <trkpt lat="45.93519" lon="4.72301">
        <ele>172</ele>
        <time>2018-06-26T08:26:40Z</time>
      </trkpt>
      <trkpt lat="45.93523" lon="4.72295">
        <ele>172</ele>
        <time>2018-06-26T08:26:41Z</time>
      </trkpt>
      <trkpt lat="45.93526" lon="4.72288">
        <ele>172</ele>
        <time>2018-06-26T08:26:42Z</time>
      </trkpt>
      <trkpt lat="45.93529" lon="4.72282">
        <ele>172</ele>
        <time>2018-06-26T08:26:43Z</time>
      </trkpt>
      <trkpt lat="45.93531" lon="4.72275">
        <ele>172</ele>
        <time>2018-06-26T08:26:44Z</time>
      </trkpt>
      <trkpt lat="45.93534" lon="4.72267">
        <ele>172</ele>
        <time>2018-06-26T08:26:45Z</time>
      </trkpt>
      <trkpt lat="45.93538" lon="4.72256">
        <ele>172</ele>
        <time>2018-06-26T08:26:47Z</time>
      </trkpt>
      <trkpt lat="45.93539" lon="4.7225">
        <ele>172</ele>
        <time>2018-06-26T08:26:48Z</time>
      </trkpt>
      <trkpt lat="45.93541" lon="4.72245">
        <ele>172</ele>
        <time>2018-06-26T08:26:49Z</time>
      </trkpt>
      <trkpt lat="45.93544" lon="4.72239">
        <ele>172</ele>
        <time>2018-06-26T08:26:50Z</time>
      </trkpt>
      <trkpt lat="45.93547" lon="4.72232">
        <ele>172</ele>
        <time>2018-06-26T08:26:51Z</time>
      </trkpt>
      <trkpt lat="45.9355" lon="4.72227">
        <ele>172</ele>
        <time>2018-06-26T08:26:52Z</time>
      </trkpt>
      <trkpt lat="45.93555" lon="4.7222">
        <ele>173</ele>
        <time>2018-06-26T08:26:53Z</time>
      </trkpt>
      <trkpt lat="45.93559" lon="4.72214">
        <ele>173</ele>
        <time>2018-06-26T08:26:54Z</time>
      </trkpt>
      <trkpt lat="45.93564" lon="4.72209">
        <ele>173</ele>
        <time>2018-06-26T08:26:55Z</time>
      </trkpt>
      <trkpt lat="45.93569" lon="4.72202">
        <ele>173</ele>
        <time>2018-06-26T08:26:56Z</time>
      </trkpt>
      <trkpt lat="45.93573" lon="4.72198">
        <ele>173</ele>
        <time>2018-06-26T08:26:57Z</time>
      </trkpt>
      <trkpt lat="45.93578" lon="4.72193">
        <ele>173</ele>
        <time>2018-06-26T08:26:58Z</time>
      </trkpt>
      <trkpt lat="45.93582" lon="4.72187">
        <ele>173</ele>
        <time>2018-06-26T08:26:59Z</time>
      </trkpt>
      <trkpt lat="45.93587" lon="4.72183">
        <ele>173</ele>
        <time>2018-06-26T08:27:00Z</time>
      </trkpt>
      <trkpt lat="45.93591" lon="4.7218">
        <ele>173</ele>
        <time>2018-06-26T08:27:01Z</time>
      </trkpt>
      <trkpt lat="45.93595" lon="4.72175">
        <ele>173</ele>
        <time>2018-06-26T08:27:02Z</time>
      </trkpt>
      <trkpt lat="45.936" lon="4.7217">
        <ele>173</ele>
        <time>2018-06-26T08:27:03Z</time>
      </trkpt>
      <trkpt lat="45.93605" lon="4.72167">
        <ele>173</ele>
        <time>2018-06-26T08:27:04Z</time>
      </trkpt>
      <trkpt lat="45.9361" lon="4.72164">
        <ele>173</ele>
        <time>2018-06-26T08:27:05Z</time>
      </trkpt>
      <trkpt lat="45.93616" lon="4.7216">
        <ele>173</ele>
        <time>2018-06-26T08:27:06Z</time>
      </trkpt>
      <trkpt lat="45.93621" lon="4.72156">
        <ele>173</ele>
        <time>2018-06-26T08:27:07Z</time>
      </trkpt>
      <trkpt lat="45.93626" lon="4.72151">
        <ele>173</ele>
        <time>2018-06-26T08:27:08Z</time>
      </trkpt>
      <trkpt lat="45.93631" lon="4.72146">
        <ele>173</ele>
        <time>2018-06-26T08:27:09Z</time>
      </trkpt>
      <trkpt lat="45.93635" lon="4.7214">
        <ele>173</ele>
        <time>2018-06-26T08:27:10Z</time>
      </trkpt>
      <trkpt lat="45.93639" lon="4.72136">
        <ele>173</ele>
        <time>2018-06-26T08:27:11Z</time>
      </trkpt>
      <trkpt lat="45.93643" lon="4.7213">
        <ele>173</ele>
        <time>2018-06-26T08:27:12Z</time>
      </trkpt>
      <trkpt lat="45.93645" lon="4.72124">
        <ele>173</ele>
        <time>2018-06-26T08:27:13Z</time>
      </trkpt>
      <trkpt lat="45.93648" lon="4.72118">
        <ele>173</ele>
        <time>2018-06-26T08:27:14Z</time>
      </trkpt>
      <trkpt lat="45.93651" lon="4.72112">
        <ele>173</ele>
        <time>2018-06-26T08:27:15Z</time>
      </trkpt>
      <trkpt lat="45.93655" lon="4.72104">
        <ele>173</ele>
        <time>2018-06-26T08:27:16Z</time>
      </trkpt>
      <trkpt lat="45.93659" lon="4.72099">
        <ele>173</ele>
        <time>2018-06-26T08:27:17Z</time>
      </trkpt>
      <trkpt lat="45.93662" lon="4.72093">
        <ele>172</ele>
        <time>2018-06-26T08:27:18Z</time>
      </trkpt>
      <trkpt lat="45.93666" lon="4.72088">
        <ele>172</ele>
        <time>2018-06-26T08:27:19Z</time>
      </trkpt>
      <trkpt lat="45.9367" lon="4.72081">
        <ele>172</ele>
        <time>2018-06-26T08:27:20Z</time>
      </trkpt>
      <trkpt lat="45.93674" lon="4.72075">
        <ele>172</ele>
        <time>2018-06-26T08:27:21Z</time>
      </trkpt>
      <trkpt lat="45.93677" lon="4.72069">
        <ele>172</ele>
        <time>2018-06-26T08:27:22Z</time>
      </trkpt>
      <trkpt lat="45.93681" lon="4.72063">
        <ele>172</ele>
        <time>2018-06-26T08:27:23Z</time>
      </trkpt>
      <trkpt lat="45.93685" lon="4.72056">
        <ele>172</ele>
        <time>2018-06-26T08:27:24Z</time>
      </trkpt>
      <trkpt lat="45.93687" lon="4.7205">
        <ele>172</ele>
        <time>2018-06-26T08:27:25Z</time>
      </trkpt>
      <trkpt lat="45.9369" lon="4.72043">
        <ele>172</ele>
        <time>2018-06-26T08:27:26Z</time>
      </trkpt>
      <trkpt lat="45.93693" lon="4.72037">
        <ele>173</ele>
        <time>2018-06-26T08:27:27Z</time>
      </trkpt>
      <trkpt lat="45.93696" lon="4.7203">
        <ele>172</ele>
        <time>2018-06-26T08:27:28Z</time>
      </trkpt>
      <trkpt lat="45.93701" lon="4.72024">
        <ele>172</ele>
        <time>2018-06-26T08:27:29Z</time>
      </trkpt>
      <trkpt lat="45.93704" lon="4.72017">
        <ele>172</ele>
        <time>2018-06-26T08:27:30Z</time>
      </trkpt>
      <trkpt lat="45.93709" lon="4.7201">
        <ele>172</ele>
        <time>2018-06-26T08:27:31Z</time>
      </trkpt>
      <trkpt lat="45.93713" lon="4.72003">
        <ele>172</ele>
        <time>2018-06-26T08:27:32Z</time>
      </trkpt>
      <trkpt lat="45.93717" lon="4.71996">
        <ele>172</ele>
        <time>2018-06-26T08:27:33Z</time>
      </trkpt>
      <trkpt lat="45.93721" lon="4.7199">
        <ele>172</ele>
        <time>2018-06-26T08:27:34Z</time>
      </trkpt>
      <trkpt lat="45.93725" lon="4.71984">
        <ele>172</ele>
        <time>2018-06-26T08:27:35Z</time>
      </trkpt>
      <trkpt lat="45.93728" lon="4.71977">
        <ele>172</ele>
        <time>2018-06-26T08:27:36Z</time>
      </trkpt>
      <trkpt lat="45.93732" lon="4.7197">
        <ele>172</ele>
        <time>2018-06-26T08:27:37Z</time>
      </trkpt>
      <trkpt lat="45.93736" lon="4.71967">
        <ele>172</ele>
        <time>2018-06-26T08:27:38Z</time>
      </trkpt>
      <trkpt lat="45.93742" lon="4.71962">
        <ele>172</ele>
        <time>2018-06-26T08:27:39Z</time>
      </trkpt>
      <trkpt lat="45.93747" lon="4.71958">
        <ele>172</ele>
        <time>2018-06-26T08:27:40Z</time>
      </trkpt>
      <trkpt lat="45.93752" lon="4.71956">
        <ele>171</ele>
        <time>2018-06-26T08:27:41Z</time>
      </trkpt>
      <trkpt lat="45.93756" lon="4.71951">
        <ele>171</ele>
        <time>2018-06-26T08:27:42Z</time>
      </trkpt>
      <trkpt lat="45.93759" lon="4.71946">
        <ele>171</ele>
        <time>2018-06-26T08:27:43Z</time>
      </trkpt>
      <trkpt lat="45.93764" lon="4.71941">
        <ele>171</ele>
        <time>2018-06-26T08:27:44Z</time>
      </trkpt>
      <trkpt lat="45.93767" lon="4.71935">
        <ele>171</ele>
        <time>2018-06-26T08:27:45Z</time>
      </trkpt>
      <trkpt lat="45.9377" lon="4.71929">
        <ele>171</ele>
        <time>2018-06-26T08:27:46Z</time>
      </trkpt>
      <trkpt lat="45.93772" lon="4.71922">
        <ele>171</ele>
        <time>2018-06-26T08:27:47Z</time>
      </trkpt>
      <trkpt lat="45.93776" lon="4.71915">
        <ele>172</ele>
        <time>2018-06-26T08:27:48Z</time>
      </trkpt>
      <trkpt lat="45.9378" lon="4.71908">
        <ele>172</ele>
        <time>2018-06-26T08:27:49Z</time>
      </trkpt>
      <trkpt lat="45.93782" lon="4.71901">
        <ele>172</ele>
        <time>2018-06-26T08:27:50Z</time>
      </trkpt>
      <trkpt lat="45.93785" lon="4.71893">
        <ele>172</ele>
        <time>2018-06-26T08:27:51Z</time>
      </trkpt>
      <trkpt lat="45.93786" lon="4.71884">
        <ele>172</ele>
        <time>2018-06-26T08:27:52Z</time>
      </trkpt>
      <trkpt lat="45.93787" lon="4.71878">
        <ele>172</ele>
        <time>2018-06-26T08:27:53Z</time>
      </trkpt>
      <trkpt lat="45.93791" lon="4.71872">
        <ele>172</ele>
        <time>2018-06-26T08:27:54Z</time>
      </trkpt>
      <trkpt lat="45.93795" lon="4.71864">
        <ele>172</ele>
        <time>2018-06-26T08:27:55Z</time>
      </trkpt>
      <trkpt lat="45.93798" lon="4.71857">
        <ele>172</ele>
        <time>2018-06-26T08:27:56Z</time>
      </trkpt>
      <trkpt lat="45.93801" lon="4.71851">
        <ele>172</ele>
        <time>2018-06-26T08:27:57Z</time>
      </trkpt>
      <trkpt lat="45.93805" lon="4.71845">
        <ele>172</ele>
        <time>2018-06-26T08:27:58Z</time>
      </trkpt>
      <trkpt lat="45.93809" lon="4.71837">
        <ele>172</ele>
        <time>2018-06-26T08:27:59Z</time>
      </trkpt>
      <trkpt lat="45.93813" lon="4.7183">
        <ele>173</ele>
        <time>2018-06-26T08:28:00Z</time>
      </trkpt>
      <trkpt lat="45.93816" lon="4.71822">
        <ele>173</ele>
        <time>2018-06-26T08:28:01Z</time>
      </trkpt>
      <trkpt lat="45.9382" lon="4.71816">
        <ele>173</ele>
        <time>2018-06-26T08:28:02Z</time>
      </trkpt>
      <trkpt lat="45.93824" lon="4.7181">
        <ele>173</ele>
        <time>2018-06-26T08:28:03Z</time>
      </trkpt>
      <trkpt lat="45.93829" lon="4.71802">
        <ele>174</ele>
        <time>2018-06-26T08:28:04Z</time>
      </trkpt>
      <trkpt lat="45.93833" lon="4.71795">
        <ele>174</ele>
        <time>2018-06-26T08:28:05Z</time>
      </trkpt>
      <trkpt lat="45.93838" lon="4.71788">
        <ele>173</ele>
        <time>2018-06-26T08:28:06Z</time>
      </trkpt>
      <trkpt lat="45.93841" lon="4.71781">
        <ele>173</ele>
        <time>2018-06-26T08:28:07Z</time>
      </trkpt>
      <trkpt lat="45.93847" lon="4.71775">
        <ele>173</ele>
        <time>2018-06-26T08:28:08Z</time>
      </trkpt>
      <trkpt lat="45.9385" lon="4.71769">
        <ele>173</ele>
        <time>2018-06-26T08:28:09Z</time>
      </trkpt>
      <trkpt lat="45.93855" lon="4.71763">
        <ele>173</ele>
        <time>2018-06-26T08:28:10Z</time>
      </trkpt>
      <trkpt lat="45.93859" lon="4.71757">
        <ele>173</ele>
        <time>2018-06-26T08:28:11Z</time>
      </trkpt>
      <trkpt lat="45.93862" lon="4.71751">
        <ele>173</ele>
        <time>2018-06-26T08:28:12Z</time>
      </trkpt>
      <trkpt lat="45.93866" lon="4.71746">
        <ele>174</ele>
        <time>2018-06-26T08:28:13Z</time>
      </trkpt>
      <trkpt lat="45.9387" lon="4.7174">
        <ele>174</ele>
        <time>2018-06-26T08:28:14Z</time>
      </trkpt>
      <trkpt lat="45.93874" lon="4.71737">
        <ele>174</ele>
        <time>2018-06-26T08:28:15Z</time>
      </trkpt>
      <trkpt lat="45.93879" lon="4.71732">
        <ele>174</ele>
        <time>2018-06-26T08:28:16Z</time>
      </trkpt>
      <trkpt lat="45.93883" lon="4.71729">
        <ele>174</ele>
        <time>2018-06-26T08:28:17Z</time>
      </trkpt>
      <trkpt lat="45.93888" lon="4.71725">
        <ele>174</ele>
        <time>2018-06-26T08:28:18Z</time>
      </trkpt>
      <trkpt lat="45.93892" lon="4.71719">
        <ele>174</ele>
        <time>2018-06-26T08:28:19Z</time>
      </trkpt>
      <trkpt lat="45.93896" lon="4.71715">
        <ele>174</ele>
        <time>2018-06-26T08:28:20Z</time>
      </trkpt>
      <trkpt lat="45.93901" lon="4.7171">
        <ele>174</ele>
        <time>2018-06-26T08:28:21Z</time>
      </trkpt>
      <trkpt lat="45.93905" lon="4.71706">
        <ele>174</ele>
        <time>2018-06-26T08:28:22Z</time>
      </trkpt>
      <trkpt lat="45.93909" lon="4.71702">
        <ele>174</ele>
        <time>2018-06-26T08:28:23Z</time>
      </trkpt>
      <trkpt lat="45.93914" lon="4.717">
        <ele>174</ele>
        <time>2018-06-26T08:28:24Z</time>
      </trkpt>
      <trkpt lat="45.9392" lon="4.71697">
        <ele>174</ele>
        <time>2018-06-26T08:28:25Z</time>
      </trkpt>
      <trkpt lat="45.93925" lon="4.71695">
        <ele>174</ele>
        <time>2018-06-26T08:28:26Z</time>
      </trkpt>
      <trkpt lat="45.93931" lon="4.71692">
        <ele>175</ele>
        <time>2018-06-26T08:28:27Z</time>
      </trkpt>
      <trkpt lat="45.93936" lon="4.7169">
        <ele>175</ele>
        <time>2018-06-26T08:28:28Z</time>
      </trkpt>
      <trkpt lat="45.93942" lon="4.71687">
        <ele>175</ele>
        <time>2018-06-26T08:28:29Z</time>
      </trkpt>
      <trkpt lat="45.93947" lon="4.71685">
        <ele>175</ele>
        <time>2018-06-26T08:28:30Z</time>
      </trkpt>
      <trkpt lat="45.93952" lon="4.71683">
        <ele>175</ele>
        <time>2018-06-26T08:28:31Z</time>
      </trkpt>
      <trkpt lat="45.93956" lon="4.71681">
        <ele>175</ele>
        <time>2018-06-26T08:28:32Z</time>
      </trkpt>
      <trkpt lat="45.93961" lon="4.71679">
        <ele>175</ele>
        <time>2018-06-26T08:28:33Z</time>
      </trkpt>
      <trkpt lat="45.93966" lon="4.71678">
        <ele>175</ele>
        <time>2018-06-26T08:28:34Z</time>
      </trkpt>
      <trkpt lat="45.9397" lon="4.71677">
        <ele>175</ele>
        <time>2018-06-26T08:28:35Z</time>
      </trkpt>
      <trkpt lat="45.93976" lon="4.71674">
        <ele>175</ele>
        <time>2018-06-26T08:28:36Z</time>
      </trkpt>
      <trkpt lat="45.93979" lon="4.71673">
        <ele>176</ele>
        <time>2018-06-26T08:28:37Z</time>
      </trkpt>
      <trkpt lat="45.93985" lon="4.71671">
        <ele>176</ele>
        <time>2018-06-26T08:28:38Z</time>
      </trkpt>
      <trkpt lat="45.93989" lon="4.71674">
        <ele>176</ele>
        <time>2018-06-26T08:28:39Z</time>
      </trkpt>
      <trkpt lat="45.93993" lon="4.7168">
        <ele>176</ele>
        <time>2018-06-26T08:28:40Z</time>
      </trkpt>
      <trkpt lat="45.93998" lon="4.71681">
        <ele>176</ele>
        <time>2018-06-26T08:28:41Z</time>
      </trkpt>
      <trkpt lat="45.94002" lon="4.71685">
        <ele>176</ele>
        <time>2018-06-26T08:28:42Z</time>
      </trkpt>
      <trkpt lat="45.94007" lon="4.71687">
        <ele>175</ele>
        <time>2018-06-26T08:28:43Z</time>
      </trkpt>
      <trkpt lat="45.94012" lon="4.71685">
        <ele>175</ele>
        <time>2018-06-26T08:28:44Z</time>
      </trkpt>
      <trkpt lat="45.94016" lon="4.7168">
        <ele>175</ele>
        <time>2018-06-26T08:28:45Z</time>
      </trkpt>
      <trkpt lat="45.94017" lon="4.71672">
        <ele>176</ele>
        <time>2018-06-26T08:28:46Z</time>
      </trkpt>
      <trkpt lat="45.94021" lon="4.71667">
        <ele>175</ele>
        <time>2018-06-26T08:28:47Z</time>
      </trkpt>
      <trkpt lat="45.94024" lon="4.71661">
        <ele>176</ele>
        <time>2018-06-26T08:28:48Z</time>
      </trkpt>
      <trkpt lat="45.94029" lon="4.71657">
        <ele>175</ele>
        <time>2018-06-26T08:28:49Z</time>
      </trkpt>
      <trkpt lat="45.94033" lon="4.71655">
        <ele>175</ele>
        <time>2018-06-26T08:28:50Z</time>
      </trkpt>
      <trkpt lat="45.94037" lon="4.71653">
        <ele>175</ele>
        <time>2018-06-26T08:28:51Z</time>
      </trkpt>
      <trkpt lat="45.94043" lon="4.7165">
        <ele>175</ele>
        <time>2018-06-26T08:28:52Z</time>
      </trkpt>
      <trkpt lat="45.94048" lon="4.71648">
        <ele>175</ele>
        <time>2018-06-26T08:28:53Z</time>
      </trkpt>
      <trkpt lat="45.94053" lon="4.71646">
        <ele>174</ele>
        <time>2018-06-26T08:28:54Z</time>
      </trkpt>
      <trkpt lat="45.94058" lon="4.71643">
        <ele>174</ele>
        <time>2018-06-26T08:28:55Z</time>
      </trkpt>
      <trkpt lat="45.94063" lon="4.71641">
        <ele>174</ele>
        <time>2018-06-26T08:28:56Z</time>
      </trkpt>
      <trkpt lat="45.94069" lon="4.71639">
        <ele>174</ele>
        <time>2018-06-26T08:28:57Z</time>
      </trkpt>
      <trkpt lat="45.94074" lon="4.71636">
        <ele>174</ele>
        <time>2018-06-26T08:28:58Z</time>
      </trkpt>
      <trkpt lat="45.94079" lon="4.71634">
        <ele>174</ele>
        <time>2018-06-26T08:28:59Z</time>
      </trkpt>
      <trkpt lat="45.94084" lon="4.71634">
        <ele>173</ele>
        <time>2018-06-26T08:29:00Z</time>
      </trkpt>
      <trkpt lat="45.94088" lon="4.71631">
        <ele>173</ele>
        <time>2018-06-26T08:29:01Z</time>
      </trkpt>
      <trkpt lat="45.94093" lon="4.71629">
        <ele>173</ele>
        <time>2018-06-26T08:29:02Z</time>
      </trkpt>
      <trkpt lat="45.94097" lon="4.71628">
        <ele>173</ele>
        <time>2018-06-26T08:29:03Z</time>
      </trkpt>
      <trkpt lat="45.94103" lon="4.71625">
        <ele>173</ele>
        <time>2018-06-26T08:29:04Z</time>
      </trkpt>
      <trkpt lat="45.94108" lon="4.71624">
        <ele>173</ele>
        <time>2018-06-26T08:29:05Z</time>
      </trkpt>
      <trkpt lat="45.94114" lon="4.71623">
        <ele>173</ele>
        <time>2018-06-26T08:29:06Z</time>
      </trkpt>
      <trkpt lat="45.94119" lon="4.7162">
        <ele>173</ele>
        <time>2018-06-26T08:29:07Z</time>
      </trkpt>
      <trkpt lat="45.94124" lon="4.71618">
        <ele>173</ele>
        <time>2018-06-26T08:29:08Z</time>
      </trkpt>
      <trkpt lat="45.94129" lon="4.71615">
        <ele>173</ele>
        <time>2018-06-26T08:29:09Z</time>
      </trkpt>
      <trkpt lat="45.94134" lon="4.71612">
        <ele>173</ele>
        <time>2018-06-26T08:29:10Z</time>
      </trkpt>
      <trkpt lat="45.94139" lon="4.71609">
        <ele>173</ele>
        <time>2018-06-26T08:29:11Z</time>
      </trkpt>
      <trkpt lat="45.94144" lon="4.71607">
        <ele>173</ele>
        <time>2018-06-26T08:29:12Z</time>
      </trkpt>
      <trkpt lat="45.9415" lon="4.71604">
        <ele>173</ele>
        <time>2018-06-26T08:29:13Z</time>
      </trkpt>
      <trkpt lat="45.94155" lon="4.71603">
        <ele>173</ele>
        <time>2018-06-26T08:29:14Z</time>
      </trkpt>
      <trkpt lat="45.94161" lon="4.716">
        <ele>173</ele>
        <time>2018-06-26T08:29:15Z</time>
      </trkpt>
      <trkpt lat="45.94167" lon="4.71598">
        <ele>173</ele>
        <time>2018-06-26T08:29:16Z</time>
      </trkpt>
      <trkpt lat="45.94173" lon="4.71595">
        <ele>173</ele>
        <time>2018-06-26T08:29:17Z</time>
      </trkpt>
      <trkpt lat="45.94178" lon="4.71592">
        <ele>173</ele>
        <time>2018-06-26T08:29:18Z</time>
      </trkpt>
      <trkpt lat="45.94183" lon="4.7159">
        <ele>173</ele>
        <time>2018-06-26T08:29:19Z</time>
      </trkpt>
      <trkpt lat="45.94188" lon="4.71589">
        <ele>173</ele>
        <time>2018-06-26T08:29:20Z</time>
      </trkpt>
      <trkpt lat="45.94194" lon="4.71586">
        <ele>173</ele>
        <time>2018-06-26T08:29:21Z</time>
      </trkpt>
      <trkpt lat="45.94199" lon="4.71584">
        <ele>173</ele>
        <time>2018-06-26T08:29:22Z</time>
      </trkpt>
      <trkpt lat="45.94205" lon="4.71581">
        <ele>174</ele>
        <time>2018-06-26T08:29:23Z</time>
      </trkpt>
      <trkpt lat="45.94211" lon="4.71579">
        <ele>174</ele>
        <time>2018-06-26T08:29:24Z</time>
      </trkpt>
      <trkpt lat="45.94216" lon="4.71577">
        <ele>174</ele>
        <time>2018-06-26T08:29:25Z</time>
      </trkpt>
      <trkpt lat="45.94222" lon="4.71575">
        <ele>174</ele>
        <time>2018-06-26T08:29:26Z</time>
      </trkpt>
      <trkpt lat="45.94227" lon="4.71573">
        <ele>174</ele>
        <time>2018-06-26T08:29:27Z</time>
      </trkpt>
      <trkpt lat="45.94233" lon="4.71572">
        <ele>174</ele>
        <time>2018-06-26T08:29:28Z</time>
      </trkpt>
      <trkpt lat="45.9424" lon="4.7157">
        <ele>174</ele>
        <time>2018-06-26T08:29:29Z</time>
      </trkpt>
      <trkpt lat="45.94244" lon="4.71568">
        <ele>174</ele>
        <time>2018-06-26T08:29:30Z</time>
      </trkpt>
      <trkpt lat="45.9425" lon="4.71565">
        <ele>175</ele>
        <time>2018-06-26T08:29:31Z</time>
      </trkpt>
      <trkpt lat="45.94256" lon="4.71563">
        <ele>175</ele>
        <time>2018-06-26T08:29:32Z</time>
      </trkpt>
      <trkpt lat="45.94262" lon="4.71559">
        <ele>175</ele>
        <time>2018-06-26T08:29:33Z</time>
      </trkpt>
      <trkpt lat="45.94267" lon="4.71558">
        <ele>175</ele>
        <time>2018-06-26T08:29:34Z</time>
      </trkpt>
      <trkpt lat="45.94272" lon="4.71556">
        <ele>175</ele>
        <time>2018-06-26T08:29:35Z</time>
      </trkpt>
      <trkpt lat="45.94278" lon="4.71553">
        <ele>175</ele>
        <time>2018-06-26T08:29:36Z</time>
      </trkpt>
      <trkpt lat="45.94284" lon="4.71551">
        <ele>175</ele>
        <time>2018-06-26T08:29:37Z</time>
      </trkpt>
      <trkpt lat="45.94289" lon="4.71548">
        <ele>175</ele>
        <time>2018-06-26T08:29:38Z</time>
      </trkpt>
      <trkpt lat="45.94295" lon="4.71546">
        <ele>175</ele>
        <time>2018-06-26T08:29:39Z</time>
      </trkpt>
      <trkpt lat="45.94299" lon="4.71544">
        <ele>175</ele>
        <time>2018-06-26T08:29:40Z</time>
      </trkpt>
      <trkpt lat="45.94305" lon="4.71542">
        <ele>175</ele>
        <time>2018-06-26T08:29:41Z</time>
      </trkpt>
      <trkpt lat="45.9431" lon="4.71541">
        <ele>175</ele>
        <time>2018-06-26T08:29:42Z</time>
      </trkpt>
      <trkpt lat="45.94314" lon="4.7154">
        <ele>175</ele>
        <time>2018-06-26T08:29:43Z</time>
      </trkpt>
      <trkpt lat="45.9432" lon="4.7154">
        <ele>175</ele>
        <time>2018-06-26T08:29:44Z</time>
      </trkpt>
      <trkpt lat="45.94325" lon="4.71538">
        <ele>176</ele>
        <time>2018-06-26T08:29:45Z</time>
      </trkpt>
      <trkpt lat="45.94331" lon="4.71537">
        <ele>176</ele>
        <time>2018-06-26T08:29:46Z</time>
      </trkpt>
      <trkpt lat="45.94337" lon="4.71533">
        <ele>176</ele>
        <time>2018-06-26T08:29:47Z</time>
      </trkpt>
      <trkpt lat="45.94342" lon="4.71531">
        <ele>176</ele>
        <time>2018-06-26T08:29:48Z</time>
      </trkpt>
      <trkpt lat="45.94348" lon="4.7153">
        <ele>176</ele>
        <time>2018-06-26T08:29:49Z</time>
      </trkpt>
      <trkpt lat="45.94353" lon="4.71528">
        <ele>176</ele>
        <time>2018-06-26T08:29:50Z</time>
      </trkpt>
      <trkpt lat="45.94358" lon="4.71525">
        <ele>176</ele>
        <time>2018-06-26T08:29:51Z</time>
      </trkpt>
      <trkpt lat="45.94363" lon="4.71524">
        <ele>176</ele>
        <time>2018-06-26T08:29:52Z</time>
      </trkpt>
      <trkpt lat="45.94369" lon="4.71522">
        <ele>176</ele>
        <time>2018-06-26T08:29:53Z</time>
      </trkpt>
      <trkpt lat="45.94373" lon="4.7152">
        <ele>176</ele>
        <time>2018-06-26T08:29:54Z</time>
      </trkpt>
      <trkpt lat="45.94378" lon="4.71517">
        <ele>176</ele>
        <time>2018-06-26T08:29:55Z</time>
      </trkpt>
      <trkpt lat="45.94384" lon="4.71515">
        <ele>177</ele>
        <time>2018-06-26T08:29:56Z</time>
      </trkpt>
      <trkpt lat="45.94392" lon="4.71512">
        <ele>177</ele>
        <time>2018-06-26T08:29:58Z</time>
      </trkpt>
      <trkpt lat="45.94397" lon="4.7151">
        <ele>177</ele>
        <time>2018-06-26T08:29:59Z</time>
      </trkpt>
      <trkpt lat="45.94402" lon="4.71508">
        <ele>177</ele>
        <time>2018-06-26T08:30:00Z</time>
      </trkpt>
      <trkpt lat="45.94406" lon="4.71505">
        <ele>177</ele>
        <time>2018-06-26T08:30:01Z</time>
      </trkpt>
      <trkpt lat="45.94412" lon="4.71503">
        <ele>178</ele>
        <time>2018-06-26T08:30:02Z</time>
      </trkpt>
      <trkpt lat="45.94416" lon="4.71501">
        <ele>178</ele>
        <time>2018-06-26T08:30:03Z</time>
      </trkpt>
      <trkpt lat="45.94424" lon="4.71498">
        <ele>178</ele>
        <time>2018-06-26T08:30:05Z</time>
      </trkpt>
      <trkpt lat="45.9443" lon="4.71497">
        <ele>178</ele>
        <time>2018-06-26T08:30:06Z</time>
      </trkpt>
      <trkpt lat="45.94435" lon="4.71496">
        <ele>178</ele>
        <time>2018-06-26T08:30:07Z</time>
      </trkpt>
      <trkpt lat="45.9444" lon="4.71494">
        <ele>178</ele>
        <time>2018-06-26T08:30:08Z</time>
      </trkpt>
      <trkpt lat="45.94443" lon="4.71492">
        <ele>178</ele>
        <time>2018-06-26T08:30:09Z</time>
      </trkpt>
      <trkpt lat="45.94449" lon="4.7149">
        <ele>179</ele>
        <time>2018-06-26T08:30:10Z</time>
      </trkpt>
      <trkpt lat="45.94454" lon="4.71486">
        <ele>179</ele>
        <time>2018-06-26T08:30:11Z</time>
      </trkpt>
      <trkpt lat="45.9446" lon="4.71484">
        <ele>179</ele>
        <time>2018-06-26T08:30:12Z</time>
      </trkpt>
      <trkpt lat="45.94464" lon="4.71482">
        <ele>179</ele>
        <time>2018-06-26T08:30:13Z</time>
      </trkpt>
      <trkpt lat="45.94469" lon="4.71481">
        <ele>179</ele>
        <time>2018-06-26T08:30:14Z</time>
      </trkpt>
      <trkpt lat="45.94474" lon="4.71478">
        <ele>179</ele>
        <time>2018-06-26T08:30:15Z</time>
      </trkpt>
      <trkpt lat="45.94479" lon="4.71476">
        <ele>179</ele>
        <time>2018-06-26T08:30:16Z</time>
      </trkpt>
      <trkpt lat="45.94485" lon="4.71474">
        <ele>179</ele>
        <time>2018-06-26T08:30:17Z</time>
      </trkpt>
      <trkpt lat="45.94489" lon="4.71472">
        <ele>179</ele>
        <time>2018-06-26T08:30:18Z</time>
      </trkpt>
      <trkpt lat="45.94493" lon="4.7147">
        <ele>179</ele>
        <time>2018-06-26T08:30:19Z</time>
      </trkpt>
      <trkpt lat="45.94498" lon="4.71468">
        <ele>179</ele>
        <time>2018-06-26T08:30:20Z</time>
      </trkpt>
      <trkpt lat="45.94504" lon="4.71467">
        <ele>179</ele>
        <time>2018-06-26T08:30:21Z</time>
      </trkpt>
      <trkpt lat="45.94507" lon="4.71465">
        <ele>180</ele>
        <time>2018-06-26T08:30:22Z</time>
      </trkpt>
      <trkpt lat="45.94511" lon="4.71463">
        <ele>180</ele>
        <time>2018-06-26T08:30:23Z</time>
      </trkpt>
      <trkpt lat="45.94516" lon="4.71461">
        <ele>180</ele>
        <time>2018-06-26T08:30:24Z</time>
      </trkpt>
      <trkpt lat="45.94521" lon="4.71459">
        <ele>180</ele>
        <time>2018-06-26T08:30:25Z</time>
      </trkpt>
      <trkpt lat="45.94525" lon="4.71458">
        <ele>180</ele>
        <time>2018-06-26T08:30:26Z</time>
      </trkpt>
      <trkpt lat="45.94529" lon="4.71456">
        <ele>180</ele>
        <time>2018-06-26T08:30:27Z</time>
      </trkpt>
      <trkpt lat="45.94534" lon="4.71454">
        <ele>180</ele>
        <time>2018-06-26T08:30:28Z</time>
      </trkpt>
      <trkpt lat="45.94542" lon="4.7145">
        <ele>180</ele>
        <time>2018-06-26T08:30:30Z</time>
      </trkpt>
      <trkpt lat="45.94546" lon="4.7145">
        <ele>180</ele>
        <time>2018-06-26T08:30:31Z</time>
      </trkpt>
      <trkpt lat="45.94553" lon="4.71448">
        <ele>181</ele>
        <time>2018-06-26T08:30:33Z</time>
      </trkpt>
      <trkpt lat="45.94555" lon="4.71449">
        <ele>181</ele>
        <time>2018-06-26T08:30:34Z</time>
      </trkpt>
      <trkpt lat="45.94563" lon="4.71448">
        <ele>181</ele>
        <time>2018-06-26T08:30:36Z</time>
      </trkpt>
      <trkpt lat="45.94569" lon="4.71445">
        <ele>181</ele>
        <time>2018-06-26T08:30:37Z</time>
      </trkpt>
      <trkpt lat="45.94575" lon="4.71443">
        <ele>181</ele>
        <time>2018-06-26T08:30:39Z</time>
      </trkpt>
      <trkpt lat="45.94581" lon="4.71443">
        <ele>181</ele>
        <time>2018-06-26T08:30:40Z</time>
      </trkpt>
      <trkpt lat="45.94589" lon="4.71444">
        <ele>182</ele>
        <time>2018-06-26T08:30:42Z</time>
      </trkpt>
      <trkpt lat="45.94593" lon="4.71445">
        <ele>182</ele>
        <time>2018-06-26T08:30:43Z</time>
      </trkpt>
      <trkpt lat="45.94602" lon="4.71445">
        <ele>181</ele>
        <time>2018-06-26T08:30:45Z</time>
      </trkpt>
      <trkpt lat="45.94606" lon="4.71446">
        <ele>181</ele>
        <time>2018-06-26T08:30:46Z</time>
      </trkpt>
      <trkpt lat="45.94614" lon="4.71448">
        <ele>181</ele>
        <time>2018-06-26T08:30:48Z</time>
      </trkpt>
      <trkpt lat="45.94619" lon="4.71448">
        <ele>181</ele>
        <time>2018-06-26T08:30:49Z</time>
      </trkpt>
      <trkpt lat="45.94626" lon="4.71448">
        <ele>181</ele>
        <time>2018-06-26T08:30:51Z</time>
      </trkpt>
      <trkpt lat="45.94631" lon="4.71446">
        <ele>181</ele>
        <time>2018-06-26T08:30:52Z</time>
      </trkpt>
      <trkpt lat="45.9464" lon="4.71448">
        <ele>181</ele>
        <time>2018-06-26T08:30:54Z</time>
      </trkpt>
      <trkpt lat="45.94645" lon="4.71447">
        <ele>181</ele>
        <time>2018-06-26T08:30:55Z</time>
      </trkpt>
      <trkpt lat="45.9465" lon="4.71447">
        <ele>181</ele>
        <time>2018-06-26T08:30:56Z</time>
      </trkpt>
      <trkpt lat="45.94655" lon="4.71448">
        <ele>181</ele>
        <time>2018-06-26T08:30:57Z</time>
      </trkpt>
      <trkpt lat="45.94659" lon="4.71449">
        <ele>181</ele>
        <time>2018-06-26T08:30:58Z</time>
      </trkpt>
      <trkpt lat="45.94664" lon="4.71449">
        <ele>181</ele>
        <time>2018-06-26T08:30:59Z</time>
      </trkpt>
      <trkpt lat="45.94669" lon="4.7145">
        <ele>182</ele>
        <time>2018-06-26T08:31:00Z</time>
      </trkpt>
      <trkpt lat="45.94674" lon="4.7145">
        <ele>182</ele>
        <time>2018-06-26T08:31:01Z</time>
      </trkpt>
      <trkpt lat="45.94679" lon="4.71451">
        <ele>182</ele>
        <time>2018-06-26T08:31:02Z</time>
      </trkpt>
      <trkpt lat="45.94683" lon="4.71451">
        <ele>182</ele>
        <time>2018-06-26T08:31:03Z</time>
      </trkpt>
      <trkpt lat="45.94688" lon="4.71451">
        <ele>182</ele>
        <time>2018-06-26T08:31:04Z</time>
      </trkpt>
      <trkpt lat="45.94693" lon="4.71451">
        <ele>182</ele>
        <time>2018-06-26T08:31:05Z</time>
      </trkpt>
      <trkpt lat="45.94701" lon="4.71454">
        <ele>182</ele>
        <time>2018-06-26T08:31:07Z</time>
      </trkpt>
      <trkpt lat="45.94706" lon="4.71454">
        <ele>182</ele>
        <time>2018-06-26T08:31:08Z</time>
      </trkpt>
      <trkpt lat="45.94711" lon="4.71454">
        <ele>182</ele>
        <time>2018-06-26T08:31:09Z</time>
      </trkpt>
      <trkpt lat="45.94716" lon="4.71455">
        <ele>182</ele>
        <time>2018-06-26T08:31:10Z</time>
      </trkpt>
      <trkpt lat="45.9472" lon="4.71456">
        <ele>182</ele>
        <time>2018-06-26T08:31:11Z</time>
      </trkpt>
      <trkpt lat="45.94726" lon="4.71458">
        <ele>182</ele>
        <time>2018-06-26T08:31:12Z</time>
      </trkpt>
      <trkpt lat="45.94732" lon="4.71458">
        <ele>182</ele>
        <time>2018-06-26T08:31:13Z</time>
      </trkpt>
      <trkpt lat="45.94738" lon="4.71458">
        <ele>182</ele>
        <time>2018-06-26T08:31:14Z</time>
      </trkpt>
      <trkpt lat="45.94743" lon="4.71459">
        <ele>182</ele>
        <time>2018-06-26T08:31:15Z</time>
      </trkpt>
      <trkpt lat="45.94748" lon="4.7146">
        <ele>182</ele>
        <time>2018-06-26T08:31:16Z</time>
      </trkpt>
      <trkpt lat="45.94754" lon="4.7146">
        <ele>183</ele>
        <time>2018-06-26T08:31:17Z</time>
      </trkpt>
      <trkpt lat="45.94758" lon="4.71461">
        <ele>183</ele>
        <time>2018-06-26T08:31:18Z</time>
      </trkpt>
      <trkpt lat="45.94764" lon="4.7146">
        <ele>183</ele>
        <time>2018-06-26T08:31:19Z</time>
      </trkpt>
      <trkpt lat="45.94769" lon="4.71461">
        <ele>183</ele>
        <time>2018-06-26T08:31:20Z</time>
      </trkpt>
      <trkpt lat="45.94774" lon="4.71461">
        <ele>183</ele>
        <time>2018-06-26T08:31:21Z</time>
      </trkpt>
      <trkpt lat="45.94778" lon="4.71461">
        <ele>183</ele>
        <time>2018-06-26T08:31:22Z</time>
      </trkpt>
      <trkpt lat="45.94783" lon="4.71463">
        <ele>183</ele>
        <time>2018-06-26T08:31:23Z</time>
      </trkpt>
      <trkpt lat="45.94789" lon="4.71461">
        <ele>183</ele>
        <time>2018-06-26T08:31:24Z</time>
      </trkpt>
      <trkpt lat="45.94794" lon="4.71463">
        <ele>183</ele>
        <time>2018-06-26T08:31:25Z</time>
      </trkpt>
      <trkpt lat="45.94799" lon="4.71464">
        <ele>183</ele>
        <time>2018-06-26T08:31:26Z</time>
      </trkpt>
      <trkpt lat="45.94805" lon="4.71464">
        <ele>183</ele>
        <time>2018-06-26T08:31:27Z</time>
      </trkpt>
      <trkpt lat="45.94811" lon="4.71465">
        <ele>183</ele>
        <time>2018-06-26T08:31:28Z</time>
      </trkpt>
      <trkpt lat="45.94816" lon="4.71466">
        <ele>183</ele>
        <time>2018-06-26T08:31:29Z</time>
      </trkpt>
      <trkpt lat="45.94822" lon="4.71466">
        <ele>183</ele>
        <time>2018-06-26T08:31:30Z</time>
      </trkpt>
      <trkpt lat="45.94827" lon="4.71467">
        <ele>183</ele>
        <time>2018-06-26T08:31:31Z</time>
      </trkpt>
      <trkpt lat="45.94832" lon="4.71467">
        <ele>183</ele>
        <time>2018-06-26T08:31:32Z</time>
      </trkpt>
      <trkpt lat="45.94838" lon="4.71467">
        <ele>183</ele>
        <time>2018-06-26T08:31:33Z</time>
      </trkpt>
      <trkpt lat="45.94843" lon="4.71468">
        <ele>183</ele>
        <time>2018-06-26T08:31:34Z</time>
      </trkpt>
      <trkpt lat="45.94846" lon="4.7147">
        <ele>183</ele>
        <time>2018-06-26T08:31:35Z</time>
      </trkpt>
      <trkpt lat="45.94853" lon="4.7147">
        <ele>183</ele>
        <time>2018-06-26T08:31:36Z</time>
      </trkpt>
      <trkpt lat="45.94858" lon="4.71472">
        <ele>183</ele>
        <time>2018-06-26T08:31:37Z</time>
      </trkpt>
      <trkpt lat="45.94863" lon="4.71472">
        <ele>183</ele>
        <time>2018-06-26T08:31:38Z</time>
      </trkpt>
      <trkpt lat="45.94868" lon="4.71473">
        <ele>183</ele>
        <time>2018-06-26T08:31:39Z</time>
      </trkpt>
      <trkpt lat="45.94874" lon="4.71475">
        <ele>183</ele>
        <time>2018-06-26T08:31:40Z</time>
      </trkpt>
      <trkpt lat="45.9488" lon="4.71475">
        <ele>183</ele>
        <time>2018-06-26T08:31:41Z</time>
      </trkpt>
      <trkpt lat="45.94885" lon="4.71475">
        <ele>183</ele>
        <time>2018-06-26T08:31:42Z</time>
      </trkpt>
      <trkpt lat="45.94891" lon="4.71476">
        <ele>183</ele>
        <time>2018-06-26T08:31:43Z</time>
      </trkpt>
      <trkpt lat="45.94895" lon="4.71478">
        <ele>183</ele>
        <time>2018-06-26T08:31:44Z</time>
      </trkpt>
      <trkpt lat="45.94901" lon="4.71477">
        <ele>182</ele>
        <time>2018-06-26T08:31:45Z</time>
      </trkpt>
      <trkpt lat="45.94906" lon="4.71478">
        <ele>182</ele>
        <time>2018-06-26T08:31:46Z</time>
      </trkpt>
      <trkpt lat="45.94911" lon="4.71478">
        <ele>182</ele>
        <time>2018-06-26T08:31:47Z</time>
      </trkpt>
      <trkpt lat="45.94916" lon="4.71477">
        <ele>182</ele>
        <time>2018-06-26T08:31:48Z</time>
      </trkpt>
      <trkpt lat="45.94921" lon="4.71476">
        <ele>182</ele>
        <time>2018-06-26T08:31:49Z</time>
      </trkpt>
      <trkpt lat="45.94926" lon="4.71476">
        <ele>182</ele>
        <time>2018-06-26T08:31:50Z</time>
      </trkpt>
      <trkpt lat="45.94931" lon="4.71477">
        <ele>182</ele>
        <time>2018-06-26T08:31:51Z</time>
      </trkpt>
      <trkpt lat="45.94937" lon="4.71475">
        <ele>183</ele>
        <time>2018-06-26T08:31:52Z</time>
      </trkpt>
      <trkpt lat="45.94942" lon="4.71477">
        <ele>183</ele>
        <time>2018-06-26T08:31:53Z</time>
      </trkpt>
      <trkpt lat="45.94947" lon="4.7148">
        <ele>183</ele>
        <time>2018-06-26T08:31:54Z</time>
      </trkpt>
      <trkpt lat="45.94951" lon="4.71484">
        <ele>183</ele>
        <time>2018-06-26T08:31:55Z</time>
      </trkpt>
      <trkpt lat="45.94956" lon="4.71486">
        <ele>182</ele>
        <time>2018-06-26T08:31:56Z</time>
      </trkpt>
      <trkpt lat="45.9496" lon="4.7149">
        <ele>182</ele>
        <time>2018-06-26T08:31:57Z</time>
      </trkpt>
      <trkpt lat="45.94966" lon="4.71492">
        <ele>182</ele>
        <time>2018-06-26T08:31:58Z</time>
      </trkpt>
      <trkpt lat="45.94971" lon="4.71491">
        <ele>182</ele>
        <time>2018-06-26T08:31:59Z</time>
      </trkpt>
      <trkpt lat="45.94976" lon="4.71489">
        <ele>182</ele>
        <time>2018-06-26T08:32:00Z</time>
      </trkpt>
      <trkpt lat="45.9498" lon="4.71486">
        <ele>182</ele>
        <time>2018-06-26T08:32:01Z</time>
      </trkpt>
      <trkpt lat="45.94985" lon="4.71484">
        <ele>182</ele>
        <time>2018-06-26T08:32:02Z</time>
      </trkpt>
      <trkpt lat="45.94989" lon="4.71481">
        <ele>182</ele>
        <time>2018-06-26T08:32:03Z</time>
      </trkpt>
      <trkpt lat="45.94994" lon="4.7148">
        <ele>182</ele>
        <time>2018-06-26T08:32:04Z</time>
      </trkpt>
      <trkpt lat="45.94998" lon="4.7148">
        <ele>182</ele>
        <time>2018-06-26T08:32:05Z</time>
      </trkpt>
      <trkpt lat="45.95004" lon="4.7148">
        <ele>181</ele>
        <time>2018-06-26T08:32:06Z</time>
      </trkpt>
      <trkpt lat="45.95009" lon="4.7148">
        <ele>181</ele>
        <time>2018-06-26T08:32:07Z</time>
      </trkpt>
      <trkpt lat="45.95015" lon="4.71481">
        <ele>181</ele>
        <time>2018-06-26T08:32:08Z</time>
      </trkpt>
      <trkpt lat="45.9502" lon="4.71482">
        <ele>181</ele>
        <time>2018-06-26T08:32:09Z</time>
      </trkpt>
      <trkpt lat="45.95027" lon="4.71482">
        <ele>181</ele>
        <time>2018-06-26T08:32:10Z</time>
      </trkpt>
      <trkpt lat="45.95033" lon="4.71482">
        <ele>181</ele>
        <time>2018-06-26T08:32:11Z</time>
      </trkpt>
      <trkpt lat="45.95041" lon="4.71482">
        <ele>181</ele>
        <time>2018-06-26T08:32:12Z</time>
      </trkpt>
      <trkpt lat="45.95047" lon="4.71481">
        <ele>181</ele>
        <time>2018-06-26T08:32:13Z</time>
      </trkpt>
      <trkpt lat="45.95054" lon="4.71483">
        <ele>181</ele>
        <time>2018-06-26T08:32:14Z</time>
      </trkpt>
      <trkpt lat="45.95061" lon="4.71482">
        <ele>181</ele>
        <time>2018-06-26T08:32:15Z</time>
      </trkpt>
      <trkpt lat="45.95069" lon="4.71483">
        <ele>181</ele>
        <time>2018-06-26T08:32:16Z</time>
      </trkpt>
      <trkpt lat="45.95075" lon="4.71485">
        <ele>180</ele>
        <time>2018-06-26T08:32:17Z</time>
      </trkpt>
      <trkpt lat="45.95082" lon="4.71485">
        <ele>180</ele>
        <time>2018-06-26T08:32:18Z</time>
      </trkpt>
      <trkpt lat="45.9509" lon="4.71485">
        <ele>179</ele>
        <time>2018-06-26T08:32:19Z</time>
      </trkpt>
      <trkpt lat="45.95097" lon="4.71484">
        <ele>179</ele>
        <time>2018-06-26T08:32:20Z</time>
      </trkpt>
      <trkpt lat="45.95105" lon="4.71484">
        <ele>179</ele>
        <time>2018-06-26T08:32:21Z</time>
      </trkpt>
      <trkpt lat="45.95113" lon="4.71484">
        <ele>179</ele>
        <time>2018-06-26T08:32:22Z</time>
      </trkpt>
      <trkpt lat="45.95121" lon="4.71484">
        <ele>178</ele>
        <time>2018-06-26T08:32:23Z</time>
      </trkpt>
      <trkpt lat="45.95129" lon="4.71485">
        <ele>178</ele>
        <time>2018-06-26T08:32:24Z</time>
      </trkpt>
      <trkpt lat="45.95136" lon="4.71486">
        <ele>178</ele>
        <time>2018-06-26T08:32:25Z</time>
      </trkpt>
      <trkpt lat="45.95145" lon="4.71485">
        <ele>178</ele>
        <time>2018-06-26T08:32:26Z</time>
      </trkpt>
      <trkpt lat="45.95152" lon="4.71488">
        <ele>178</ele>
        <time>2018-06-26T08:32:27Z</time>
      </trkpt>
      <trkpt lat="45.95159" lon="4.71488">
        <ele>178</ele>
        <time>2018-06-26T08:32:28Z</time>
      </trkpt>
      <trkpt lat="45.95167" lon="4.71488">
        <ele>177</ele>
        <time>2018-06-26T08:32:29Z</time>
      </trkpt>
      <trkpt lat="45.95174" lon="4.71489">
        <ele>177</ele>
        <time>2018-06-26T08:32:30Z</time>
      </trkpt>
      <trkpt lat="45.95181" lon="4.7149">
        <ele>177</ele>
        <time>2018-06-26T08:32:31Z</time>
      </trkpt>
      <trkpt lat="45.95188" lon="4.71491">
        <ele>177</ele>
        <time>2018-06-26T08:32:32Z</time>
      </trkpt>
      <trkpt lat="45.95194" lon="4.71491">
        <ele>177</ele>
        <time>2018-06-26T08:32:33Z</time>
      </trkpt>
      <trkpt lat="45.95202" lon="4.7149">
        <ele>177</ele>
        <time>2018-06-26T08:32:34Z</time>
      </trkpt>
      <trkpt lat="45.95211" lon="4.71492">
        <ele>177</ele>
        <time>2018-06-26T08:32:35Z</time>
      </trkpt>
      <trkpt lat="45.95217" lon="4.71493">
        <ele>177</ele>
        <time>2018-06-26T08:32:36Z</time>
      </trkpt>
      <trkpt lat="45.95224" lon="4.71496">
        <ele>177</ele>
        <time>2018-06-26T08:32:37Z</time>
      </trkpt>
      <trkpt lat="45.95232" lon="4.71495">
        <ele>177</ele>
        <time>2018-06-26T08:32:38Z</time>
      </trkpt>
      <trkpt lat="45.95239" lon="4.71496">
        <ele>177</ele>
        <time>2018-06-26T08:32:39Z</time>
      </trkpt>
      <trkpt lat="45.95247" lon="4.71496">
        <ele>177</ele>
        <time>2018-06-26T08:32:40Z</time>
      </trkpt>
      <trkpt lat="45.95254" lon="4.71496">
        <ele>177</ele>
        <time>2018-06-26T08:32:41Z</time>
      </trkpt>
      <trkpt lat="45.95261" lon="4.71496">
        <ele>176</ele>
        <time>2018-06-26T08:32:42Z</time>
      </trkpt>
      <trkpt lat="45.95268" lon="4.71497">
        <ele>176</ele>
        <time>2018-06-26T08:32:43Z</time>
      </trkpt>
      <trkpt lat="45.95275" lon="4.71497">
        <ele>176</ele>
        <time>2018-06-26T08:32:44Z</time>
      </trkpt>
      <trkpt lat="45.95282" lon="4.71497">
        <ele>176</ele>
        <time>2018-06-26T08:32:45Z</time>
      </trkpt>
      <trkpt lat="45.95289" lon="4.71498">
        <ele>176</ele>
        <time>2018-06-26T08:32:46Z</time>
      </trkpt>
      <trkpt lat="45.95295" lon="4.71498">
        <ele>176</ele>
        <time>2018-06-26T08:32:47Z</time>
      </trkpt>
      <trkpt lat="45.95302" lon="4.71499">
        <ele>175</ele>
        <time>2018-06-26T08:32:48Z</time>
      </trkpt>
      <trkpt lat="45.95308" lon="4.71499">
        <ele>175</ele>
        <time>2018-06-26T08:32:49Z</time>
      </trkpt>
      <trkpt lat="45.95315" lon="4.715">
        <ele>175</ele>
        <time>2018-06-26T08:32:50Z</time>
      </trkpt>
      <trkpt lat="45.95322" lon="4.715">
        <ele>175</ele>
        <time>2018-06-26T08:32:51Z</time>
      </trkpt>
      <trkpt lat="45.95328" lon="4.715">
        <ele>174</ele>
        <time>2018-06-26T08:32:52Z</time>
      </trkpt>
      <trkpt lat="45.95334" lon="4.71499">
        <ele>174</ele>
        <time>2018-06-26T08:32:53Z</time>
      </trkpt>
      <trkpt lat="45.95341" lon="4.71499">
        <ele>174</ele>
        <time>2018-06-26T08:32:54Z</time>
      </trkpt>
      <trkpt lat="45.95346" lon="4.715">
        <ele>174</ele>
        <time>2018-06-26T08:32:55Z</time>
      </trkpt>
      <trkpt lat="45.95353" lon="4.715">
        <ele>174</ele>
        <time>2018-06-26T08:32:56Z</time>
      </trkpt>
      <trkpt lat="45.95359" lon="4.71501">
        <ele>174</ele>
        <time>2018-06-26T08:32:57Z</time>
      </trkpt>
      <trkpt lat="45.95366" lon="4.71501">
        <ele>174</ele>
        <time>2018-06-26T08:32:58Z</time>
      </trkpt>
      <trkpt lat="45.95372" lon="4.71501">
        <ele>174</ele>
        <time>2018-06-26T08:32:59Z</time>
      </trkpt>
      <trkpt lat="45.95378" lon="4.715">
        <ele>175</ele>
        <time>2018-06-26T08:33:00Z</time>
      </trkpt>
      <trkpt lat="45.95384" lon="4.715">
        <ele>174</ele>
        <time>2018-06-26T08:33:01Z</time>
      </trkpt>
      <trkpt lat="45.9539" lon="4.71501">
        <ele>174</ele>
        <time>2018-06-26T08:33:02Z</time>
      </trkpt>
      <trkpt lat="45.95397" lon="4.71501">
        <ele>174</ele>
        <time>2018-06-26T08:33:03Z</time>
      </trkpt>
      <trkpt lat="45.95403" lon="4.71502">
        <ele>174</ele>
        <time>2018-06-26T08:33:04Z</time>
      </trkpt>
      <trkpt lat="45.95411" lon="4.71502">
        <ele>174</ele>
        <time>2018-06-26T08:33:05Z</time>
      </trkpt>
      <trkpt lat="45.95417" lon="4.71503">
        <ele>174</ele>
        <time>2018-06-26T08:33:06Z</time>
      </trkpt>
      <trkpt lat="45.95423" lon="4.71502">
        <ele>174</ele>
        <time>2018-06-26T08:33:07Z</time>
      </trkpt>
      <trkpt lat="45.95429" lon="4.71503">
        <ele>174</ele>
        <time>2018-06-26T08:33:08Z</time>
      </trkpt>
      <trkpt lat="45.95435" lon="4.71503">
        <ele>175</ele>
        <time>2018-06-26T08:33:09Z</time>
      </trkpt>
      <trkpt lat="45.95441" lon="4.71505">
        <ele>175</ele>
        <time>2018-06-26T08:33:10Z</time>
      </trkpt>
      <trkpt lat="45.95447" lon="4.71506">
        <ele>175</ele>
        <time>2018-06-26T08:33:11Z</time>
      </trkpt>
      <trkpt lat="45.95451" lon="4.71507">
        <ele>175</ele>
        <time>2018-06-26T08:33:12Z</time>
      </trkpt>
      <trkpt lat="45.95458" lon="4.71508">
        <ele>175</ele>
        <time>2018-06-26T08:33:13Z</time>
      </trkpt>
      <trkpt lat="45.95463" lon="4.71508">
        <ele>175</ele>
        <time>2018-06-26T08:33:14Z</time>
      </trkpt>
      <trkpt lat="45.95469" lon="4.71508">
        <ele>175</ele>
        <time>2018-06-26T08:33:15Z</time>
      </trkpt>
      <trkpt lat="45.95475" lon="4.71507">
        <ele>176</ele>
        <time>2018-06-26T08:33:16Z</time>
      </trkpt>
      <trkpt lat="45.9548" lon="4.71508">
        <ele>176</ele>
        <time>2018-06-26T08:33:17Z</time>
      </trkpt>
      <trkpt lat="45.95485" lon="4.71508">
        <ele>176</ele>
        <time>2018-06-26T08:33:18Z</time>
      </trkpt>
      <trkpt lat="45.95491" lon="4.71509">
        <ele>176</ele>
        <time>2018-06-26T08:33:19Z</time>
      </trkpt>
      <trkpt lat="45.95495" lon="4.7151">
        <ele>176</ele>
        <time>2018-06-26T08:33:20Z</time>
      </trkpt>
      <trkpt lat="45.955" lon="4.7151">
        <ele>177</ele>
        <time>2018-06-26T08:33:21Z</time>
      </trkpt>
      <trkpt lat="45.95505" lon="4.7151">
        <ele>177</ele>
        <time>2018-06-26T08:33:22Z</time>
      </trkpt>
      <trkpt lat="45.95512" lon="4.7151">
        <ele>177</ele>
        <time>2018-06-26T08:33:23Z</time>
      </trkpt>
      <trkpt lat="45.95517" lon="4.7151">
        <ele>177</ele>
        <time>2018-06-26T08:33:24Z</time>
      </trkpt>
      <trkpt lat="45.95522" lon="4.71512">
        <ele>177</ele>
        <time>2018-06-26T08:33:25Z</time>
      </trkpt>
      <trkpt lat="45.95527" lon="4.71512">
        <ele>177</ele>
        <time>2018-06-26T08:33:26Z</time>
      </trkpt>
      <trkpt lat="45.95531" lon="4.71513">
        <ele>177</ele>
        <time>2018-06-26T08:33:27Z</time>
      </trkpt>
      <trkpt lat="45.95536" lon="4.71514">
        <ele>177</ele>
        <time>2018-06-26T08:33:28Z</time>
      </trkpt>
      <trkpt lat="45.95541" lon="4.71515">
        <ele>177</ele>
        <time>2018-06-26T08:33:29Z</time>
      </trkpt>
      <trkpt lat="45.95545" lon="4.71515">
        <ele>178</ele>
        <time>2018-06-26T08:33:30Z</time>
      </trkpt>
      <trkpt lat="45.95551" lon="4.71515">
        <ele>178</ele>
        <time>2018-06-26T08:33:31Z</time>
      </trkpt>
      <trkpt lat="45.95556" lon="4.71515">
        <ele>178</ele>
        <time>2018-06-26T08:33:32Z</time>
      </trkpt>
      <trkpt lat="45.9556" lon="4.71515">
        <ele>178</ele>
        <time>2018-06-26T08:33:33Z</time>
      </trkpt>
      <trkpt lat="45.95565" lon="4.71515">
        <ele>178</ele>
        <time>2018-06-26T08:33:34Z</time>
      </trkpt>
      <trkpt lat="45.95571" lon="4.71516">
        <ele>178</ele>
        <time>2018-06-26T08:33:35Z</time>
      </trkpt>
      <trkpt lat="45.95575" lon="4.71516">
        <ele>178</ele>
        <time>2018-06-26T08:33:36Z</time>
      </trkpt>
      <trkpt lat="45.95584" lon="4.71517">
        <ele>179</ele>
        <time>2018-06-26T08:33:38Z</time>
      </trkpt>
      <trkpt lat="45.95588" lon="4.71517">
        <ele>179</ele>
        <time>2018-06-26T08:33:39Z</time>
      </trkpt>
      <trkpt lat="45.95593" lon="4.71517">
        <ele>179</ele>
        <time>2018-06-26T08:33:40Z</time>
      </trkpt>
      <trkpt lat="45.95599" lon="4.71517">
        <ele>179</ele>
        <time>2018-06-26T08:33:41Z</time>
      </trkpt>
      <trkpt lat="45.95603" lon="4.71517">
        <ele>179</ele>
        <time>2018-06-26T08:33:42Z</time>
      </trkpt>
      <trkpt lat="45.95608" lon="4.71518">
        <ele>179</ele>
        <time>2018-06-26T08:33:43Z</time>
      </trkpt>
      <trkpt lat="45.95616" lon="4.7152">
        <ele>179</ele>
        <time>2018-06-26T08:33:45Z</time>
      </trkpt>
      <trkpt lat="45.95621" lon="4.71521">
        <ele>179</ele>
        <time>2018-06-26T08:33:46Z</time>
      </trkpt>
      <trkpt lat="45.95629" lon="4.71521">
        <ele>179</ele>
        <time>2018-06-26T08:33:48Z</time>
      </trkpt>
      <trkpt lat="45.95635" lon="4.71521">
        <ele>179</ele>
        <time>2018-06-26T08:33:49Z</time>
      </trkpt>
      <trkpt lat="45.95643" lon="4.7152">
        <ele>180</ele>
        <time>2018-06-26T08:33:51Z</time>
      </trkpt>
      <trkpt lat="45.95647" lon="4.7152">
        <ele>180</ele>
        <time>2018-06-26T08:33:52Z</time>
      </trkpt>
      <trkpt lat="45.95655" lon="4.7152">
        <ele>180</ele>
        <time>2018-06-26T08:33:55Z</time>
      </trkpt>
      <trkpt lat="45.95656" lon="4.7152">
        <ele>180</ele>
        <time>2018-06-26T08:33:56Z</time>
      </trkpt>
      <trkpt lat="45.95669" lon="4.71521">
        <ele>181</ele>
        <time>2018-06-26T08:33:57Z</time>
      </trkpt>
      <trkpt lat="45.95677" lon="4.71519">
        <ele>180</ele>
        <time>2018-06-26T08:33:59Z</time>
      </trkpt>
      <trkpt lat="45.95682" lon="4.7152">
        <ele>180</ele>
        <time>2018-06-26T08:34:00Z</time>
      </trkpt>
      <trkpt lat="45.95687" lon="4.71522">
        <ele>180</ele>
        <time>2018-06-26T08:34:01Z</time>
      </trkpt>
      <trkpt lat="45.95691" lon="4.71522">
        <ele>180</ele>
        <time>2018-06-26T08:34:02Z</time>
      </trkpt>
      <trkpt lat="45.957" lon="4.71525">
        <ele>180</ele>
        <time>2018-06-26T08:34:04Z</time>
      </trkpt>
      <trkpt lat="45.95704" lon="4.71526">
        <ele>180</ele>
        <time>2018-06-26T08:34:05Z</time>
      </trkpt>
      <trkpt lat="45.95709" lon="4.71528">
        <ele>180</ele>
        <time>2018-06-26T08:34:06Z</time>
      </trkpt>
      <trkpt lat="45.95714" lon="4.71528">
        <ele>180</ele>
        <time>2018-06-26T08:34:07Z</time>
      </trkpt>
      <trkpt lat="45.95719" lon="4.71528">
        <ele>180</ele>
        <time>2018-06-26T08:34:08Z</time>
      </trkpt>
      <trkpt lat="45.95724" lon="4.71528">
        <ele>180</ele>
        <time>2018-06-26T08:34:09Z</time>
      </trkpt>
      <trkpt lat="45.95729" lon="4.71528">
        <ele>180</ele>
        <time>2018-06-26T08:34:10Z</time>
      </trkpt>
      <trkpt lat="45.95733" lon="4.71528">
        <ele>180</ele>
        <time>2018-06-26T08:34:11Z</time>
      </trkpt>
      <trkpt lat="45.95738" lon="4.71528">
        <ele>180</ele>
        <time>2018-06-26T08:34:12Z</time>
      </trkpt>
      <trkpt lat="45.95743" lon="4.71528">
        <ele>180</ele>
        <time>2018-06-26T08:34:13Z</time>
      </trkpt>
      <trkpt lat="45.95751" lon="4.71529">
        <ele>181</ele>
        <time>2018-06-26T08:34:15Z</time>
      </trkpt>
      <trkpt lat="45.95757" lon="4.71528">
        <ele>181</ele>
        <time>2018-06-26T08:34:16Z</time>
      </trkpt>
      <trkpt lat="45.95762" lon="4.71528">
        <ele>181</ele>
        <time>2018-06-26T08:34:17Z</time>
      </trkpt>
      <trkpt lat="45.95767" lon="4.71529">
        <ele>181</ele>
        <time>2018-06-26T08:34:18Z</time>
      </trkpt>
      <trkpt lat="45.95772" lon="4.7153">
        <ele>180</ele>
        <time>2018-06-26T08:34:19Z</time>
      </trkpt>
      <trkpt lat="45.95777" lon="4.71528">
        <ele>181</ele>
        <time>2018-06-26T08:34:20Z</time>
      </trkpt>
      <trkpt lat="45.95782" lon="4.71529">
        <ele>181</ele>
        <time>2018-06-26T08:34:21Z</time>
      </trkpt>
      <trkpt lat="45.95787" lon="4.71529">
        <ele>181</ele>
        <time>2018-06-26T08:34:22Z</time>
      </trkpt>
      <trkpt lat="45.95791" lon="4.71529">
        <ele>181</ele>
        <time>2018-06-26T08:34:23Z</time>
      </trkpt>
      <trkpt lat="45.95796" lon="4.71527">
        <ele>181</ele>
        <time>2018-06-26T08:34:24Z</time>
      </trkpt>
      <trkpt lat="45.95805" lon="4.71529">
        <ele>181</ele>
        <time>2018-06-26T08:34:26Z</time>
      </trkpt>
      <trkpt lat="45.95808" lon="4.71529">
        <ele>181</ele>
        <time>2018-06-26T08:34:27Z</time>
      </trkpt>
      <trkpt lat="45.95812" lon="4.71531">
        <ele>181</ele>
        <time>2018-06-26T08:34:28Z</time>
      </trkpt>
      <trkpt lat="45.95817" lon="4.71531">
        <ele>181</ele>
        <time>2018-06-26T08:34:29Z</time>
      </trkpt>
      <trkpt lat="45.95825" lon="4.71532">
        <ele>181</ele>
        <time>2018-06-26T08:34:31Z</time>
      </trkpt>
      <trkpt lat="45.9583" lon="4.71533">
        <ele>181</ele>
        <time>2018-06-26T08:34:32Z</time>
      </trkpt>
      <trkpt lat="45.95835" lon="4.71536">
        <ele>181</ele>
        <time>2018-06-26T08:34:34Z</time>
      </trkpt>
      <trkpt lat="45.95842" lon="4.71536">
        <ele>181</ele>
        <time>2018-06-26T08:34:35Z</time>
      </trkpt>
      <trkpt lat="45.95851" lon="4.71537">
        <ele>181</ele>
        <time>2018-06-26T08:34:37Z</time>
      </trkpt>
      <trkpt lat="45.95856" lon="4.71538">
        <ele>181</ele>
        <time>2018-06-26T08:34:38Z</time>
      </trkpt>
      <trkpt lat="45.95861" lon="4.71538">
        <ele>181</ele>
        <time>2018-06-26T08:34:39Z</time>
      </trkpt>
      <trkpt lat="45.95866" lon="4.71537">
        <ele>181</ele>
        <time>2018-06-26T08:34:40Z</time>
      </trkpt>
      <trkpt lat="45.95871" lon="4.71538">
        <ele>181</ele>
        <time>2018-06-26T08:34:41Z</time>
      </trkpt>
      <trkpt lat="45.95876" lon="4.71539">
        <ele>181</ele>
        <time>2018-06-26T08:34:42Z</time>
      </trkpt>
      <trkpt lat="45.9588" lon="4.71539">
        <ele>181</ele>
        <time>2018-06-26T08:34:43Z</time>
      </trkpt>
      <trkpt lat="45.95885" lon="4.71539">
        <ele>181</ele>
        <time>2018-06-26T08:34:44Z</time>
      </trkpt>
      <trkpt lat="45.95889" lon="4.7154">
        <ele>181</ele>
        <time>2018-06-26T08:34:45Z</time>
      </trkpt>
      <trkpt lat="45.95894" lon="4.7154">
        <ele>181</ele>
        <time>2018-06-26T08:34:46Z</time>
      </trkpt>
      <trkpt lat="45.95903" lon="4.71541">
        <ele>181</ele>
        <time>2018-06-26T08:34:48Z</time>
      </trkpt>
      <trkpt lat="45.95907" lon="4.71541">
        <ele>181</ele>
        <time>2018-06-26T08:34:49Z</time>
      </trkpt>
      <trkpt lat="45.95916" lon="4.71542">
        <ele>181</ele>
        <time>2018-06-26T08:34:51Z</time>
      </trkpt>
      <trkpt lat="45.9592" lon="4.71542">
        <ele>183</ele>
        <time>2018-06-26T08:34:52Z</time>
      </trkpt>
      <trkpt lat="45.95925" lon="4.71542">
        <ele>183</ele>
        <time>2018-06-26T08:34:53Z</time>
      </trkpt>
      <trkpt lat="45.95929" lon="4.71543">
        <ele>183</ele>
        <time>2018-06-26T08:34:54Z</time>
      </trkpt>
      <trkpt lat="45.95934" lon="4.71543">
        <ele>183</ele>
        <time>2018-06-26T08:34:55Z</time>
      </trkpt>
      <trkpt lat="45.95938" lon="4.71544">
        <ele>183</ele>
        <time>2018-06-26T08:34:56Z</time>
      </trkpt>
      <trkpt lat="45.95946" lon="4.71544">
        <ele>183</ele>
        <time>2018-06-26T08:34:58Z</time>
      </trkpt>
      <trkpt lat="45.95951" lon="4.71545">
        <ele>183</ele>
        <time>2018-06-26T08:34:59Z</time>
      </trkpt>
      <trkpt lat="45.95959" lon="4.71548">
        <ele>183</ele>
        <time>2018-06-26T08:35:01Z</time>
      </trkpt>
      <trkpt lat="45.95964" lon="4.71548">
        <ele>183</ele>
        <time>2018-06-26T08:35:02Z</time>
      </trkpt>
      <trkpt lat="45.95972" lon="4.71552">
        <ele>183</ele>
        <time>2018-06-26T08:35:04Z</time>
      </trkpt>
      <trkpt lat="45.95976" lon="4.71554">
        <ele>183</ele>
        <time>2018-06-26T08:35:05Z</time>
      </trkpt>
      <trkpt lat="45.95984" lon="4.71555">
        <ele>183</ele>
        <time>2018-06-26T08:35:07Z</time>
      </trkpt>
      <trkpt lat="45.95988" lon="4.71555">
        <ele>183</ele>
        <time>2018-06-26T08:35:08Z</time>
      </trkpt>
      <trkpt lat="45.95995" lon="4.71551">
        <ele>183</ele>
        <time>2018-06-26T08:35:10Z</time>
      </trkpt>
      <trkpt lat="45.95999" lon="4.71549">
        <ele>184</ele>
        <time>2018-06-26T08:35:11Z</time>
      </trkpt>
      <trkpt lat="45.96008" lon="4.71546">
        <ele>185</ele>
        <time>2018-06-26T08:35:13Z</time>
      </trkpt>
      <trkpt lat="45.96012" lon="4.71546">
        <ele>185</ele>
        <time>2018-06-26T08:35:14Z</time>
      </trkpt>
      <trkpt lat="45.96017" lon="4.71546">
        <ele>185</ele>
        <time>2018-06-26T08:35:15Z</time>
      </trkpt>
      <trkpt lat="45.96022" lon="4.71546">
        <ele>185</ele>
        <time>2018-06-26T08:35:16Z</time>
      </trkpt>
      <trkpt lat="45.9603" lon="4.71546">
        <ele>185</ele>
        <time>2018-06-26T08:35:18Z</time>
      </trkpt>
      <trkpt lat="45.96034" lon="4.71546">
        <ele>185</ele>
        <time>2018-06-26T08:35:19Z</time>
      </trkpt>
      <trkpt lat="45.96038" lon="4.71545">
        <ele>185</ele>
        <time>2018-06-26T08:35:20Z</time>
      </trkpt>
      <trkpt lat="45.96043" lon="4.71548">
        <ele>185</ele>
        <time>2018-06-26T08:35:21Z</time>
      </trkpt>
      <trkpt lat="45.96048" lon="4.71547">
        <ele>185</ele>
        <time>2018-06-26T08:35:22Z</time>
      </trkpt>
      <trkpt lat="45.96053" lon="4.71547">
        <ele>185</ele>
        <time>2018-06-26T08:35:23Z</time>
      </trkpt>
      <trkpt lat="45.96059" lon="4.71547">
        <ele>185</ele>
        <time>2018-06-26T08:35:24Z</time>
      </trkpt>
      <trkpt lat="45.96065" lon="4.7155">
        <ele>185</ele>
        <time>2018-06-26T08:35:25Z</time>
      </trkpt>
      <trkpt lat="45.9607" lon="4.71551">
        <ele>185</ele>
        <time>2018-06-26T08:35:26Z</time>
      </trkpt>
      <trkpt lat="45.96077" lon="4.71552">
        <ele>185</ele>
        <time>2018-06-26T08:35:27Z</time>
      </trkpt>
      <trkpt lat="45.96082" lon="4.71553">
        <ele>185</ele>
        <time>2018-06-26T08:35:28Z</time>
      </trkpt>
      <trkpt lat="45.96087" lon="4.71554">
        <ele>184</ele>
        <time>2018-06-26T08:35:29Z</time>
      </trkpt>
      <trkpt lat="45.96093" lon="4.71555">
        <ele>184</ele>
        <time>2018-06-26T08:35:30Z</time>
      </trkpt>
      <trkpt lat="45.96097" lon="4.71555">
        <ele>184</ele>
        <time>2018-06-26T08:35:31Z</time>
      </trkpt>
      <trkpt lat="45.96102" lon="4.71555">
        <ele>184</ele>
        <time>2018-06-26T08:35:32Z</time>
      </trkpt>
      <trkpt lat="45.96107" lon="4.71556">
        <ele>184</ele>
        <time>2018-06-26T08:35:33Z</time>
      </trkpt>
      <trkpt lat="45.96112" lon="4.71556">
        <ele>184</ele>
        <time>2018-06-26T08:35:34Z</time>
      </trkpt>
      <trkpt lat="45.96118" lon="4.71557">
        <ele>184</ele>
        <time>2018-06-26T08:35:35Z</time>
      </trkpt>
      <trkpt lat="45.96124" lon="4.71557">
        <ele>184</ele>
        <time>2018-06-26T08:35:36Z</time>
      </trkpt>
      <trkpt lat="45.96129" lon="4.71559">
        <ele>184</ele>
        <time>2018-06-26T08:35:37Z</time>
      </trkpt>
      <trkpt lat="45.96134" lon="4.71559">
        <ele>184</ele>
        <time>2018-06-26T08:35:38Z</time>
      </trkpt>
      <trkpt lat="45.96139" lon="4.71561">
        <ele>184</ele>
        <time>2018-06-26T08:35:39Z</time>
      </trkpt>
      <trkpt lat="45.96144" lon="4.71562">
        <ele>183</ele>
        <time>2018-06-26T08:35:40Z</time>
      </trkpt>
      <trkpt lat="45.96149" lon="4.71563">
        <ele>183</ele>
        <time>2018-06-26T08:35:41Z</time>
      </trkpt>
      <trkpt lat="45.96154" lon="4.71565">
        <ele>183</ele>
        <time>2018-06-26T08:35:42Z</time>
      </trkpt>
      <trkpt lat="45.9616" lon="4.71563">
        <ele>183</ele>
        <time>2018-06-26T08:35:43Z</time>
      </trkpt>
      <trkpt lat="45.96165" lon="4.71564">
        <ele>183</ele>
        <time>2018-06-26T08:35:44Z</time>
      </trkpt>
      <trkpt lat="45.9617" lon="4.71565">
        <ele>182</ele>
        <time>2018-06-26T08:35:45Z</time>
      </trkpt>
      <trkpt lat="45.96175" lon="4.71566">
        <ele>182</ele>
        <time>2018-06-26T08:35:46Z</time>
      </trkpt>
      <trkpt lat="45.9618" lon="4.71566">
        <ele>183</ele>
        <time>2018-06-26T08:35:47Z</time>
      </trkpt>
      <trkpt lat="45.96185" lon="4.71567">
        <ele>183</ele>
        <time>2018-06-26T08:35:48Z</time>
      </trkpt>
      <trkpt lat="45.96191" lon="4.71568">
        <ele>183</ele>
        <time>2018-06-26T08:35:49Z</time>
      </trkpt>
      <trkpt lat="45.96196" lon="4.71569">
        <ele>183</ele>
        <time>2018-06-26T08:35:50Z</time>
      </trkpt>
      <trkpt lat="45.96201" lon="4.7157">
        <ele>183</ele>
        <time>2018-06-26T08:35:51Z</time>
      </trkpt>
      <trkpt lat="45.96207" lon="4.71571">
        <ele>183</ele>
        <time>2018-06-26T08:35:52Z</time>
      </trkpt>
      <trkpt lat="45.96213" lon="4.71572">
        <ele>183</ele>
        <time>2018-06-26T08:35:53Z</time>
      </trkpt>
      <trkpt lat="45.96219" lon="4.71573">
        <ele>183</ele>
        <time>2018-06-26T08:35:54Z</time>
      </trkpt>
      <trkpt lat="45.96225" lon="4.71574">
        <ele>183</ele>
        <time>2018-06-26T08:35:55Z</time>
      </trkpt>
      <trkpt lat="45.96231" lon="4.71576">
        <ele>183</ele>
        <time>2018-06-26T08:35:56Z</time>
      </trkpt>
      <trkpt lat="45.96237" lon="4.71577">
        <ele>182</ele>
        <time>2018-06-26T08:35:57Z</time>
      </trkpt>
      <trkpt lat="45.96244" lon="4.71578">
        <ele>182</ele>
        <time>2018-06-26T08:35:58Z</time>
      </trkpt>
      <trkpt lat="45.96249" lon="4.71579">
        <ele>182</ele>
        <time>2018-06-26T08:35:59Z</time>
      </trkpt>
      <trkpt lat="45.96255" lon="4.71581">
        <ele>182</ele>
        <time>2018-06-26T08:36:00Z</time>
      </trkpt>
      <trkpt lat="45.96261" lon="4.71582">
        <ele>182</ele>
        <time>2018-06-26T08:36:01Z</time>
      </trkpt>
      <trkpt lat="45.96266" lon="4.71582">
        <ele>183</ele>
        <time>2018-06-26T08:36:02Z</time>
      </trkpt>
      <trkpt lat="45.96272" lon="4.71583">
        <ele>183</ele>
        <time>2018-06-26T08:36:03Z</time>
      </trkpt>
      <trkpt lat="45.96278" lon="4.71583">
        <ele>180</ele>
        <time>2018-06-26T08:36:04Z</time>
      </trkpt>
      <trkpt lat="45.96282" lon="4.71585">
        <ele>180</ele>
        <time>2018-06-26T08:36:05Z</time>
      </trkpt>
      <trkpt lat="45.96288" lon="4.71586">
        <ele>181</ele>
        <time>2018-06-26T08:36:06Z</time>
      </trkpt>
      <trkpt lat="45.96293" lon="4.71586">
        <ele>181</ele>
        <time>2018-06-26T08:36:07Z</time>
      </trkpt>
      <trkpt lat="45.96298" lon="4.71587">
        <ele>181</ele>
        <time>2018-06-26T08:36:08Z</time>
      </trkpt>
      <trkpt lat="45.96304" lon="4.71588">
        <ele>181</ele>
        <time>2018-06-26T08:36:09Z</time>
      </trkpt>
      <trkpt lat="45.96309" lon="4.71587">
        <ele>181</ele>
        <time>2018-06-26T08:36:10Z</time>
      </trkpt>
      <trkpt lat="45.96315" lon="4.71588">
        <ele>181</ele>
        <time>2018-06-26T08:36:11Z</time>
      </trkpt>
      <trkpt lat="45.9632" lon="4.7159">
        <ele>182</ele>
        <time>2018-06-26T08:36:12Z</time>
      </trkpt>
      <trkpt lat="45.96325" lon="4.71591">
        <ele>182</ele>
        <time>2018-06-26T08:36:13Z</time>
      </trkpt>
      <trkpt lat="45.96331" lon="4.71592">
        <ele>182</ele>
        <time>2018-06-26T08:36:14Z</time>
      </trkpt>
      <trkpt lat="45.96338" lon="4.71593">
        <ele>182</ele>
        <time>2018-06-26T08:36:15Z</time>
      </trkpt>
      <trkpt lat="45.96344" lon="4.71592">
        <ele>182</ele>
        <time>2018-06-26T08:36:16Z</time>
      </trkpt>
      <trkpt lat="45.96349" lon="4.71592">
        <ele>182</ele>
        <time>2018-06-26T08:36:17Z</time>
      </trkpt>
      <trkpt lat="45.96354" lon="4.71594">
        <ele>182</ele>
        <time>2018-06-26T08:36:18Z</time>
      </trkpt>
      <trkpt lat="45.9636" lon="4.71595">
        <ele>182</ele>
        <time>2018-06-26T08:36:19Z</time>
      </trkpt>
      <trkpt lat="45.96366" lon="4.71594">
        <ele>182</ele>
        <time>2018-06-26T08:36:20Z</time>
      </trkpt>
      <trkpt lat="45.96372" lon="4.71594">
        <ele>182</ele>
        <time>2018-06-26T08:36:21Z</time>
      </trkpt>
      <trkpt lat="45.96377" lon="4.71595">
        <ele>182</ele>
        <time>2018-06-26T08:36:22Z</time>
      </trkpt>
      <trkpt lat="45.96383" lon="4.71596">
        <ele>182</ele>
        <time>2018-06-26T08:36:23Z</time>
      </trkpt>
      <trkpt lat="45.96388" lon="4.71597">
        <ele>183</ele>
        <time>2018-06-26T08:36:24Z</time>
      </trkpt>
      <trkpt lat="45.96394" lon="4.71598">
        <ele>183</ele>
        <time>2018-06-26T08:36:25Z</time>
      </trkpt>
      <trkpt lat="45.96401" lon="4.71598">
        <ele>183</ele>
        <time>2018-06-26T08:36:26Z</time>
      </trkpt>
      <trkpt lat="45.96408" lon="4.71599">
        <ele>183</ele>
        <time>2018-06-26T08:36:27Z</time>
      </trkpt>
      <trkpt lat="45.96412" lon="4.71601">
        <ele>183</ele>
        <time>2018-06-26T08:36:28Z</time>
      </trkpt>
      <trkpt lat="45.96417" lon="4.71602">
        <ele>184</ele>
        <time>2018-06-26T08:36:29Z</time>
      </trkpt>
      <trkpt lat="45.96422" lon="4.71603">
        <ele>184</ele>
        <time>2018-06-26T08:36:30Z</time>
      </trkpt>
      <trkpt lat="45.96427" lon="4.71605">
        <ele>183</ele>
        <time>2018-06-26T08:36:31Z</time>
      </trkpt>
      <trkpt lat="45.96431" lon="4.71605">
        <ele>183</ele>
        <time>2018-06-26T08:36:32Z</time>
      </trkpt>
      <trkpt lat="45.96437" lon="4.71606">
        <ele>183</ele>
        <time>2018-06-26T08:36:33Z</time>
      </trkpt>
      <trkpt lat="45.96442" lon="4.71607">
        <ele>183</ele>
        <time>2018-06-26T08:36:34Z</time>
      </trkpt>
      <trkpt lat="45.96448" lon="4.71609">
        <ele>183</ele>
        <time>2018-06-26T08:36:35Z</time>
      </trkpt>
      <trkpt lat="45.96454" lon="4.71609">
        <ele>183</ele>
        <time>2018-06-26T08:36:36Z</time>
      </trkpt>
      <trkpt lat="45.96459" lon="4.7161">
        <ele>183</ele>
        <time>2018-06-26T08:36:37Z</time>
      </trkpt>
      <trkpt lat="45.96464" lon="4.71611">
        <ele>183</ele>
        <time>2018-06-26T08:36:38Z</time>
      </trkpt>
      <trkpt lat="45.96469" lon="4.71612">
        <ele>183</ele>
        <time>2018-06-26T08:36:39Z</time>
      </trkpt>
      <trkpt lat="45.96474" lon="4.71613">
        <ele>183</ele>
        <time>2018-06-26T08:36:40Z</time>
      </trkpt>
      <trkpt lat="45.96478" lon="4.71614">
        <ele>183</ele>
        <time>2018-06-26T08:36:41Z</time>
      </trkpt>
      <trkpt lat="45.96487" lon="4.71616">
        <ele>183</ele>
        <time>2018-06-26T08:36:43Z</time>
      </trkpt>
      <trkpt lat="45.96492" lon="4.71617">
        <ele>183</ele>
        <time>2018-06-26T08:36:44Z</time>
      </trkpt>
      <trkpt lat="45.96497" lon="4.71618">
        <ele>183</ele>
        <time>2018-06-26T08:36:45Z</time>
      </trkpt>
      <trkpt lat="45.96502" lon="4.71619">
        <ele>184</ele>
        <time>2018-06-26T08:36:46Z</time>
      </trkpt>
      <trkpt lat="45.96506" lon="4.7162">
        <ele>184</ele>
        <time>2018-06-26T08:36:47Z</time>
      </trkpt>
      <trkpt lat="45.9651" lon="4.71624">
        <ele>184</ele>
        <time>2018-06-26T08:36:48Z</time>
      </trkpt>
      <trkpt lat="45.96515" lon="4.71628">
        <ele>184</ele>
        <time>2018-06-26T08:36:49Z</time>
      </trkpt>
      <trkpt lat="45.96519" lon="4.71633">
        <ele>183</ele>
        <time>2018-06-26T08:36:50Z</time>
      </trkpt>
      <trkpt lat="45.96524" lon="4.71637">
        <ele>183</ele>
        <time>2018-06-26T08:36:51Z</time>
      </trkpt>
      <trkpt lat="45.96528" lon="4.7164">
        <ele>183</ele>
        <time>2018-06-26T08:36:52Z</time>
      </trkpt>
      <trkpt lat="45.96533" lon="4.7164">
        <ele>184</ele>
        <time>2018-06-26T08:36:53Z</time>
      </trkpt>
      <trkpt lat="45.96538" lon="4.71639">
        <ele>184</ele>
        <time>2018-06-26T08:36:54Z</time>
      </trkpt>
      <trkpt lat="45.96542" lon="4.71636">
        <ele>184</ele>
        <time>2018-06-26T08:36:55Z</time>
      </trkpt>
      <trkpt lat="45.96547" lon="4.71634">
        <ele>184</ele>
        <time>2018-06-26T08:36:56Z</time>
      </trkpt>
      <trkpt lat="45.96552" lon="4.71631">
        <ele>184</ele>
        <time>2018-06-26T08:36:57Z</time>
      </trkpt>
      <trkpt lat="45.96557" lon="4.71629">
        <ele>184</ele>
        <time>2018-06-26T08:36:58Z</time>
      </trkpt>
      <trkpt lat="45.96562" lon="4.7163">
        <ele>184</ele>
        <time>2018-06-26T08:36:59Z</time>
      </trkpt>
      <trkpt lat="45.96567" lon="4.71631">
        <ele>184</ele>
        <time>2018-06-26T08:37:00Z</time>
      </trkpt>
      <trkpt lat="45.96572" lon="4.71632">
        <ele>184</ele>
        <time>2018-06-26T08:37:01Z</time>
      </trkpt>
      <trkpt lat="45.96577" lon="4.71632">
        <ele>185</ele>
        <time>2018-06-26T08:37:02Z</time>
      </trkpt>
      <trkpt lat="45.96581" lon="4.71632">
        <ele>185</ele>
        <time>2018-06-26T08:37:03Z</time>
      </trkpt>
      <trkpt lat="45.96586" lon="4.71632">
        <ele>187</ele>
        <time>2018-06-26T08:37:04Z</time>
      </trkpt>
      <trkpt lat="45.96591" lon="4.71633">
        <ele>187</ele>
        <time>2018-06-26T08:37:05Z</time>
      </trkpt>
      <trkpt lat="45.96596" lon="4.71635">
        <ele>187</ele>
        <time>2018-06-26T08:37:06Z</time>
      </trkpt>
      <trkpt lat="45.96601" lon="4.71635">
        <ele>187</ele>
        <time>2018-06-26T08:37:07Z</time>
      </trkpt>
      <trkpt lat="45.96606" lon="4.71636">
        <ele>187</ele>
        <time>2018-06-26T08:37:08Z</time>
      </trkpt>
      <trkpt lat="45.96611" lon="4.71637">
        <ele>187</ele>
        <time>2018-06-26T08:37:09Z</time>
      </trkpt>
      <trkpt lat="45.96615" lon="4.71638">
        <ele>187</ele>
        <time>2018-06-26T08:37:10Z</time>
      </trkpt>
      <trkpt lat="45.96621" lon="4.71639">
        <ele>187</ele>
        <time>2018-06-26T08:37:11Z</time>
      </trkpt>
      <trkpt lat="45.96626" lon="4.7164">
        <ele>187</ele>
        <time>2018-06-26T08:37:12Z</time>
      </trkpt>
      <trkpt lat="45.9663" lon="4.7164">
        <ele>187</ele>
        <time>2018-06-26T08:37:13Z</time>
      </trkpt>
      <trkpt lat="45.96636" lon="4.7164">
        <ele>187</ele>
        <time>2018-06-26T08:37:14Z</time>
      </trkpt>
      <trkpt lat="45.96644" lon="4.71641">
        <ele>188</ele>
        <time>2018-06-26T08:37:16Z</time>
      </trkpt>
      <trkpt lat="45.9665" lon="4.71642">
        <ele>188</ele>
        <time>2018-06-26T08:37:17Z</time>
      </trkpt>
      <trkpt lat="45.96655" lon="4.71643">
        <ele>188</ele>
        <time>2018-06-26T08:37:18Z</time>
      </trkpt>
      <trkpt lat="45.9666" lon="4.71643">
        <ele>188</ele>
        <time>2018-06-26T08:37:19Z</time>
      </trkpt>
      <trkpt lat="45.96665" lon="4.71645">
        <ele>188</ele>
        <time>2018-06-26T08:37:20Z</time>
      </trkpt>
      <trkpt lat="45.9667" lon="4.71646">
        <ele>189</ele>
        <time>2018-06-26T08:37:21Z</time>
      </trkpt>
      <trkpt lat="45.96675" lon="4.71647">
        <ele>189</ele>
        <time>2018-06-26T08:37:22Z</time>
      </trkpt>
      <trkpt lat="45.96681" lon="4.71648">
        <ele>189</ele>
        <time>2018-06-26T08:37:23Z</time>
      </trkpt>
      <trkpt lat="45.96686" lon="4.71648">
        <ele>189</ele>
        <time>2018-06-26T08:37:24Z</time>
      </trkpt>
      <trkpt lat="45.96692" lon="4.71649">
        <ele>189</ele>
        <time>2018-06-26T08:37:25Z</time>
      </trkpt>
      <trkpt lat="45.96697" lon="4.71649">
        <ele>190</ele>
        <time>2018-06-26T08:37:26Z</time>
      </trkpt>
      <trkpt lat="45.96702" lon="4.7165">
        <ele>190</ele>
        <time>2018-06-26T08:37:27Z</time>
      </trkpt>
      <trkpt lat="45.96706" lon="4.71651">
        <ele>190</ele>
        <time>2018-06-26T08:37:28Z</time>
      </trkpt>
      <trkpt lat="45.96712" lon="4.71651">
        <ele>190</ele>
        <time>2018-06-26T08:37:29Z</time>
      </trkpt>
      <trkpt lat="45.96717" lon="4.71652">
        <ele>190</ele>
        <time>2018-06-26T08:37:30Z</time>
      </trkpt>
      <trkpt lat="45.96722" lon="4.71653">
        <ele>190</ele>
        <time>2018-06-26T08:37:31Z</time>
      </trkpt>
      <trkpt lat="45.96728" lon="4.71654">
        <ele>190</ele>
        <time>2018-06-26T08:37:32Z</time>
      </trkpt>
      <trkpt lat="45.96733" lon="4.71655">
        <ele>190</ele>
        <time>2018-06-26T08:37:33Z</time>
      </trkpt>
      <trkpt lat="45.96739" lon="4.71656">
        <ele>190</ele>
        <time>2018-06-26T08:37:34Z</time>
      </trkpt>
      <trkpt lat="45.96744" lon="4.71658">
        <ele>190</ele>
        <time>2018-06-26T08:37:35Z</time>
      </trkpt>
      <trkpt lat="45.9675" lon="4.71658">
        <ele>189</ele>
        <time>2018-06-26T08:37:36Z</time>
      </trkpt>
      <trkpt lat="45.96755" lon="4.71659">
        <ele>190</ele>
        <time>2018-06-26T08:37:37Z</time>
      </trkpt>
      <trkpt lat="45.9676" lon="4.7166">
        <ele>191</ele>
        <time>2018-06-26T08:37:38Z</time>
      </trkpt>
      <trkpt lat="45.96766" lon="4.71661">
        <ele>191</ele>
        <time>2018-06-26T08:37:39Z</time>
      </trkpt>
      <trkpt lat="45.96771" lon="4.71662">
        <ele>191</ele>
        <time>2018-06-26T08:37:40Z</time>
      </trkpt>
      <trkpt lat="45.96777" lon="4.71662">
        <ele>192</ele>
        <time>2018-06-26T08:37:41Z</time>
      </trkpt>
      <trkpt lat="45.96782" lon="4.71663">
        <ele>192</ele>
        <time>2018-06-26T08:37:42Z</time>
      </trkpt>
      <trkpt lat="45.96787" lon="4.71663">
        <ele>192</ele>
        <time>2018-06-26T08:37:43Z</time>
      </trkpt>
      <trkpt lat="45.96792" lon="4.71663">
        <ele>192</ele>
        <time>2018-06-26T08:37:44Z</time>
      </trkpt>
      <trkpt lat="45.96796" lon="4.71664">
        <ele>192</ele>
        <time>2018-06-26T08:37:45Z</time>
      </trkpt>
      <trkpt lat="45.96801" lon="4.71664">
        <ele>192</ele>
        <time>2018-06-26T08:37:46Z</time>
      </trkpt>
      <trkpt lat="45.96806" lon="4.71664">
        <ele>192</ele>
        <time>2018-06-26T08:37:47Z</time>
      </trkpt>
      <trkpt lat="45.96811" lon="4.71665">
        <ele>193</ele>
        <time>2018-06-26T08:37:48Z</time>
      </trkpt>
      <trkpt lat="45.96816" lon="4.71665">
        <ele>192</ele>
        <time>2018-06-26T08:37:49Z</time>
      </trkpt>
      <trkpt lat="45.96821" lon="4.71666">
        <ele>192</ele>
        <time>2018-06-26T08:37:50Z</time>
      </trkpt>
      <trkpt lat="45.96826" lon="4.71667">
        <ele>191</ele>
        <time>2018-06-26T08:37:51Z</time>
      </trkpt>
      <trkpt lat="45.96834" lon="4.71669">
        <ele>192</ele>
        <time>2018-06-26T08:37:53Z</time>
      </trkpt>
      <trkpt lat="45.96838" lon="4.7167">
        <ele>191</ele>
        <time>2018-06-26T08:37:54Z</time>
      </trkpt>
      <trkpt lat="45.96843" lon="4.71671">
        <ele>191</ele>
        <time>2018-06-26T08:37:55Z</time>
      </trkpt>
      <trkpt lat="45.96848" lon="4.71672">
        <ele>191</ele>
        <time>2018-06-26T08:37:56Z</time>
      </trkpt>
      <trkpt lat="45.96857" lon="4.71673">
        <ele>190</ele>
        <time>2018-06-26T08:37:58Z</time>
      </trkpt>
      <trkpt lat="45.96861" lon="4.71674">
        <ele>190</ele>
        <time>2018-06-26T08:37:59Z</time>
      </trkpt>
      <trkpt lat="45.96866" lon="4.71674">
        <ele>190</ele>
        <time>2018-06-26T08:38:00Z</time>
      </trkpt>
      <trkpt lat="45.9687" lon="4.71674">
        <ele>190</ele>
        <time>2018-06-26T08:38:01Z</time>
      </trkpt>
      <trkpt lat="45.96879" lon="4.71677">
        <ele>190</ele>
        <time>2018-06-26T08:38:03Z</time>
      </trkpt>
      <trkpt lat="45.96884" lon="4.71678">
        <ele>191</ele>
        <time>2018-06-26T08:38:04Z</time>
      </trkpt>
      <trkpt lat="45.96889" lon="4.71678">
        <ele>191</ele>
        <time>2018-06-26T08:38:05Z</time>
      </trkpt>
      <trkpt lat="45.96894" lon="4.71679">
        <ele>191</ele>
        <time>2018-06-26T08:38:06Z</time>
      </trkpt>
      <trkpt lat="45.96899" lon="4.71678">
        <ele>191</ele>
        <time>2018-06-26T08:38:07Z</time>
      </trkpt>
      <trkpt lat="45.96904" lon="4.71679">
        <ele>192</ele>
        <time>2018-06-26T08:38:08Z</time>
      </trkpt>
      <trkpt lat="45.96909" lon="4.71679">
        <ele>192</ele>
        <time>2018-06-26T08:38:09Z</time>
      </trkpt>
      <trkpt lat="45.96914" lon="4.71678">
        <ele>193</ele>
        <time>2018-06-26T08:38:10Z</time>
      </trkpt>
      <trkpt lat="45.96919" lon="4.71677">
        <ele>193</ele>
        <time>2018-06-26T08:38:11Z</time>
      </trkpt>
      <trkpt lat="45.96924" lon="4.71677">
        <ele>193</ele>
        <time>2018-06-26T08:38:12Z</time>
      </trkpt>
      <trkpt lat="45.96929" lon="4.71678">
        <ele>193</ele>
        <time>2018-06-26T08:38:13Z</time>
      </trkpt>
      <trkpt lat="45.96934" lon="4.71678">
        <ele>192</ele>
        <time>2018-06-26T08:38:14Z</time>
      </trkpt>
      <trkpt lat="45.96939" lon="4.71679">
        <ele>192</ele>
        <time>2018-06-26T08:38:15Z</time>
      </trkpt>
      <trkpt lat="45.96945" lon="4.71679">
        <ele>192</ele>
        <time>2018-06-26T08:38:16Z</time>
      </trkpt>
      <trkpt lat="45.9695" lon="4.71679">
        <ele>192</ele>
        <time>2018-06-26T08:38:17Z</time>
      </trkpt>
      <trkpt lat="45.96954" lon="4.71679">
        <ele>192</ele>
        <time>2018-06-26T08:38:18Z</time>
      </trkpt>
      <trkpt lat="45.96963" lon="4.71681">
        <ele>192</ele>
        <time>2018-06-26T08:38:20Z</time>
      </trkpt>
      <trkpt lat="45.96967" lon="4.71682">
        <ele>192</ele>
        <time>2018-06-26T08:38:21Z</time>
      </trkpt>
      <trkpt lat="45.96972" lon="4.71682">
        <ele>192</ele>
        <time>2018-06-26T08:38:22Z</time>
      </trkpt>
      <trkpt lat="45.96976" lon="4.71684">
        <ele>192</ele>
        <time>2018-06-26T08:38:23Z</time>
      </trkpt>
      <trkpt lat="45.96985" lon="4.71684">
        <ele>192</ele>
        <time>2018-06-26T08:38:25Z</time>
      </trkpt>
      <trkpt lat="45.9699" lon="4.71685">
        <ele>192</ele>
        <time>2018-06-26T08:38:26Z</time>
      </trkpt>
      <trkpt lat="45.96999" lon="4.71686">
        <ele>192</ele>
        <time>2018-06-26T08:38:28Z</time>
      </trkpt>
      <trkpt lat="45.97004" lon="4.71687">
        <ele>193</ele>
        <time>2018-06-26T08:38:29Z</time>
      </trkpt>
      <trkpt lat="45.97009" lon="4.71687">
        <ele>193</ele>
        <time>2018-06-26T08:38:30Z</time>
      </trkpt>
      <trkpt lat="45.97014" lon="4.71687">
        <ele>193</ele>
        <time>2018-06-26T08:38:31Z</time>
      </trkpt>
      <trkpt lat="45.97019" lon="4.71687">
        <ele>193</ele>
        <time>2018-06-26T08:38:32Z</time>
      </trkpt>
      <trkpt lat="45.97024" lon="4.71689">
        <ele>193</ele>
        <time>2018-06-26T08:38:33Z</time>
      </trkpt>
      <trkpt lat="45.9703" lon="4.7169">
        <ele>192</ele>
        <time>2018-06-26T08:38:34Z</time>
      </trkpt>
      <trkpt lat="45.97034" lon="4.7169">
        <ele>192</ele>
        <time>2018-06-26T08:38:35Z</time>
      </trkpt>
      <trkpt lat="45.9704" lon="4.71691">
        <ele>192</ele>
        <time>2018-06-26T08:38:36Z</time>
      </trkpt>
      <trkpt lat="45.97045" lon="4.71691">
        <ele>193</ele>
        <time>2018-06-26T08:38:37Z</time>
      </trkpt>
      <trkpt lat="45.9705" lon="4.7169">
        <ele>193</ele>
        <time>2018-06-26T08:38:38Z</time>
      </trkpt>
      <trkpt lat="45.97054" lon="4.71691">
        <ele>193</ele>
        <time>2018-06-26T08:38:39Z</time>
      </trkpt>
      <trkpt lat="45.97063" lon="4.71691">
        <ele>193</ele>
        <time>2018-06-26T08:38:41Z</time>
      </trkpt>
      <trkpt lat="45.97068" lon="4.71692">
        <ele>193</ele>
        <time>2018-06-26T08:38:42Z</time>
      </trkpt>
      <trkpt lat="45.97073" lon="4.71692">
        <ele>193</ele>
        <time>2018-06-26T08:38:43Z</time>
      </trkpt>
      <trkpt lat="45.97078" lon="4.71693">
        <ele>193</ele>
        <time>2018-06-26T08:38:44Z</time>
      </trkpt>
      <trkpt lat="45.97083" lon="4.71693">
        <ele>193</ele>
        <time>2018-06-26T08:38:45Z</time>
      </trkpt>
      <trkpt lat="45.97089" lon="4.71693">
        <ele>194</ele>
        <time>2018-06-26T08:38:46Z</time>
      </trkpt>
      <trkpt lat="45.97094" lon="4.71697">
        <ele>194</ele>
        <time>2018-06-26T08:38:47Z</time>
      </trkpt>
      <trkpt lat="45.97098" lon="4.71696">
        <ele>194</ele>
        <time>2018-06-26T08:38:48Z</time>
      </trkpt>
      <trkpt lat="45.97103" lon="4.71695">
        <ele>194</ele>
        <time>2018-06-26T08:38:49Z</time>
      </trkpt>
      <trkpt lat="45.97108" lon="4.71693">
        <ele>194</ele>
        <time>2018-06-26T08:38:50Z</time>
      </trkpt>
      <trkpt lat="45.97115" lon="4.71693">
        <ele>194</ele>
        <time>2018-06-26T08:38:52Z</time>
      </trkpt>
      <trkpt lat="45.97119" lon="4.71693">
        <ele>194</ele>
        <time>2018-06-26T08:38:53Z</time>
      </trkpt>
      <trkpt lat="45.97124" lon="4.71694">
        <ele>194</ele>
        <time>2018-06-26T08:38:54Z</time>
      </trkpt>
      <trkpt lat="45.97129" lon="4.71695">
        <ele>194</ele>
        <time>2018-06-26T08:38:55Z</time>
      </trkpt>
      <trkpt lat="45.97137" lon="4.71697">
        <ele>195</ele>
        <time>2018-06-26T08:38:57Z</time>
      </trkpt>
      <trkpt lat="45.97142" lon="4.71697">
        <ele>195</ele>
        <time>2018-06-26T08:38:58Z</time>
      </trkpt>
      <trkpt lat="45.97147" lon="4.71697">
        <ele>195</ele>
        <time>2018-06-26T08:38:59Z</time>
      </trkpt>
      <trkpt lat="45.97152" lon="4.71698">
        <ele>195</ele>
        <time>2018-06-26T08:39:00Z</time>
      </trkpt>
      <trkpt lat="45.97158" lon="4.71698">
        <ele>195</ele>
        <time>2018-06-26T08:39:01Z</time>
      </trkpt>
      <trkpt lat="45.97162" lon="4.71698">
        <ele>195</ele>
        <time>2018-06-26T08:39:02Z</time>
      </trkpt>
      <trkpt lat="45.97166" lon="4.71699">
        <ele>195</ele>
        <time>2018-06-26T08:39:03Z</time>
      </trkpt>
      <trkpt lat="45.97171" lon="4.717">
        <ele>196</ele>
        <time>2018-06-26T08:39:04Z</time>
      </trkpt>
      <trkpt lat="45.9718" lon="4.71701">
        <ele>196</ele>
        <time>2018-06-26T08:39:06Z</time>
      </trkpt>
      <trkpt lat="45.97184" lon="4.71703">
        <ele>196</ele>
        <time>2018-06-26T08:39:07Z</time>
      </trkpt>
      <trkpt lat="45.97193" lon="4.71704">
        <ele>196</ele>
        <time>2018-06-26T08:39:09Z</time>
      </trkpt>
      <trkpt lat="45.97194" lon="4.71703">
        <ele>196</ele>
        <time>2018-06-26T08:39:10Z</time>
      </trkpt>
      <trkpt lat="45.97198" lon="4.71705">
        <ele>196</ele>
        <time>2018-06-26T08:39:11Z</time>
      </trkpt>
      <trkpt lat="45.97203" lon="4.71705">
        <ele>196</ele>
        <time>2018-06-26T08:39:12Z</time>
      </trkpt>
      <trkpt lat="45.97209" lon="4.71705">
        <ele>196</ele>
        <time>2018-06-26T08:39:13Z</time>
      </trkpt>
      <trkpt lat="45.97213" lon="4.71706">
        <ele>196</ele>
        <time>2018-06-26T08:39:14Z</time>
      </trkpt>
      <trkpt lat="45.97221" lon="4.71709">
        <ele>196</ele>
        <time>2018-06-26T08:39:16Z</time>
      </trkpt>
      <trkpt lat="45.97226" lon="4.71709">
        <ele>196</ele>
        <time>2018-06-26T08:39:17Z</time>
      </trkpt>
      <trkpt lat="45.97234" lon="4.7171">
        <ele>196</ele>
        <time>2018-06-26T08:39:19Z</time>
      </trkpt>
      <trkpt lat="45.97239" lon="4.7171">
        <ele>196</ele>
        <time>2018-06-26T08:39:20Z</time>
      </trkpt>
      <trkpt lat="45.97244" lon="4.71711">
        <ele>196</ele>
        <time>2018-06-26T08:39:21Z</time>
      </trkpt>
      <trkpt lat="45.97248" lon="4.71711">
        <ele>196</ele>
        <time>2018-06-26T08:39:22Z</time>
      </trkpt>
      <trkpt lat="45.97254" lon="4.71712">
        <ele>196</ele>
        <time>2018-06-26T08:39:23Z</time>
      </trkpt>
      <trkpt lat="45.97258" lon="4.71714">
        <ele>196</ele>
        <time>2018-06-26T08:39:24Z</time>
      </trkpt>
      <trkpt lat="45.97266" lon="4.71717">
        <ele>196</ele>
        <time>2018-06-26T08:39:26Z</time>
      </trkpt>
      <trkpt lat="45.97271" lon="4.71718">
        <ele>196</ele>
        <time>2018-06-26T08:39:27Z</time>
      </trkpt>
      <trkpt lat="45.97278" lon="4.71723">
        <ele>196</ele>
        <time>2018-06-26T08:39:29Z</time>
      </trkpt>
      <trkpt lat="45.97282" lon="4.71727">
        <ele>196</ele>
        <time>2018-06-26T08:39:30Z</time>
      </trkpt>
      <trkpt lat="45.97289" lon="4.71733">
        <ele>196</ele>
        <time>2018-06-26T08:39:32Z</time>
      </trkpt>
      <trkpt lat="45.97293" lon="4.71736">
        <ele>196</ele>
        <time>2018-06-26T08:39:33Z</time>
      </trkpt>
      <trkpt lat="45.97297" lon="4.71738">
        <ele>196</ele>
        <time>2018-06-26T08:39:34Z</time>
      </trkpt>
      <trkpt lat="45.97302" lon="4.71738">
        <ele>196</ele>
        <time>2018-06-26T08:39:35Z</time>
      </trkpt>
      <trkpt lat="45.97307" lon="4.71737">
        <ele>196</ele>
        <time>2018-06-26T08:39:36Z</time>
      </trkpt>
      <trkpt lat="45.97312" lon="4.71733">
        <ele>195</ele>
        <time>2018-06-26T08:39:37Z</time>
      </trkpt>
      <trkpt lat="45.97316" lon="4.7173">
        <ele>195</ele>
        <time>2018-06-26T08:39:38Z</time>
      </trkpt>
      <trkpt lat="45.9732" lon="4.71725">
        <ele>196</ele>
        <time>2018-06-26T08:39:39Z</time>
      </trkpt>
      <trkpt lat="45.97324" lon="4.71722">
        <ele>196</ele>
        <time>2018-06-26T08:39:40Z</time>
      </trkpt>
      <trkpt lat="45.97328" lon="4.71719">
        <ele>196</ele>
        <time>2018-06-26T08:39:41Z</time>
      </trkpt>
      <trkpt lat="45.97332" lon="4.71718">
        <ele>196</ele>
        <time>2018-06-26T08:39:42Z</time>
      </trkpt>
      <trkpt lat="45.97337" lon="4.71718">
        <ele>195</ele>
        <time>2018-06-26T08:39:43Z</time>
      </trkpt>
      <trkpt lat="45.97345" lon="4.71717">
        <ele>195</ele>
        <time>2018-06-26T08:39:45Z</time>
      </trkpt>
      <trkpt lat="45.97349" lon="4.71718">
        <ele>195</ele>
        <time>2018-06-26T08:39:46Z</time>
      </trkpt>
      <trkpt lat="45.97354" lon="4.71718">
        <ele>195</ele>
        <time>2018-06-26T08:39:47Z</time>
      </trkpt>
      <trkpt lat="45.97359" lon="4.71719">
        <ele>195</ele>
        <time>2018-06-26T08:39:48Z</time>
      </trkpt>
      <trkpt lat="45.97364" lon="4.71719">
        <ele>195</ele>
        <time>2018-06-26T08:39:49Z</time>
      </trkpt>
      <trkpt lat="45.97369" lon="4.7172">
        <ele>195</ele>
        <time>2018-06-26T08:39:50Z</time>
      </trkpt>
      <trkpt lat="45.97374" lon="4.7172">
        <ele>195</ele>
        <time>2018-06-26T08:39:51Z</time>
      </trkpt>
      <trkpt lat="45.97379" lon="4.71721">
        <ele>195</ele>
        <time>2018-06-26T08:39:52Z</time>
      </trkpt>
      <trkpt lat="45.97384" lon="4.71721">
        <ele>195</ele>
        <time>2018-06-26T08:39:53Z</time>
      </trkpt>
      <trkpt lat="45.97389" lon="4.71721">
        <ele>195</ele>
        <time>2018-06-26T08:39:54Z</time>
      </trkpt>
      <trkpt lat="45.97394" lon="4.71722">
        <ele>195</ele>
        <time>2018-06-26T08:39:55Z</time>
      </trkpt>
      <trkpt lat="45.97399" lon="4.71723">
        <ele>195</ele>
        <time>2018-06-26T08:39:56Z</time>
      </trkpt>
      <trkpt lat="45.97403" lon="4.71722">
        <ele>195</ele>
        <time>2018-06-26T08:39:57Z</time>
      </trkpt>
      <trkpt lat="45.97408" lon="4.71723">
        <ele>195</ele>
        <time>2018-06-26T08:39:58Z</time>
      </trkpt>
      <trkpt lat="45.97413" lon="4.71724">
        <ele>195</ele>
        <time>2018-06-26T08:39:59Z</time>
      </trkpt>
      <trkpt lat="45.97418" lon="4.71724">
        <ele>196</ele>
        <time>2018-06-26T08:40:00Z</time>
      </trkpt>
      <trkpt lat="45.97422" lon="4.71725">
        <ele>196</ele>
        <time>2018-06-26T08:40:01Z</time>
      </trkpt>
      <trkpt lat="45.97427" lon="4.71725">
        <ele>196</ele>
        <time>2018-06-26T08:40:02Z</time>
      </trkpt>
      <trkpt lat="45.97436" lon="4.71726">
        <ele>196</ele>
        <time>2018-06-26T08:40:04Z</time>
      </trkpt>
      <trkpt lat="45.9744" lon="4.71727">
        <ele>196</ele>
        <time>2018-06-26T08:40:05Z</time>
      </trkpt>
      <trkpt lat="45.97445" lon="4.71727">
        <ele>196</ele>
        <time>2018-06-26T08:40:06Z</time>
      </trkpt>
      <trkpt lat="45.97449" lon="4.71728">
        <ele>196</ele>
        <time>2018-06-26T08:40:07Z</time>
      </trkpt>
      <trkpt lat="45.97455" lon="4.71728">
        <ele>197</ele>
        <time>2018-06-26T08:40:08Z</time>
      </trkpt>
      <trkpt lat="45.9746" lon="4.71727">
        <ele>197</ele>
        <time>2018-06-26T08:40:09Z</time>
      </trkpt>
      <trkpt lat="45.97464" lon="4.71728">
        <ele>197</ele>
        <time>2018-06-26T08:40:10Z</time>
      </trkpt>
      <trkpt lat="45.97469" lon="4.71728">
        <ele>197</ele>
        <time>2018-06-26T08:40:11Z</time>
      </trkpt>
      <trkpt lat="45.97477" lon="4.71728">
        <ele>197</ele>
        <time>2018-06-26T08:40:13Z</time>
      </trkpt>
      <trkpt lat="45.97482" lon="4.71729">
        <ele>197</ele>
        <time>2018-06-26T08:40:14Z</time>
      </trkpt>
      <trkpt lat="45.9749" lon="4.71731">
        <ele>197</ele>
        <time>2018-06-26T08:40:16Z</time>
      </trkpt>
      <trkpt lat="45.97494" lon="4.71732">
        <ele>197</ele>
        <time>2018-06-26T08:40:17Z</time>
      </trkpt>
      <trkpt lat="45.975" lon="4.71733">
        <ele>197</ele>
        <time>2018-06-26T08:40:18Z</time>
      </trkpt>
      <trkpt lat="45.97505" lon="4.71733">
        <ele>197</ele>
        <time>2018-06-26T08:40:19Z</time>
      </trkpt>
      <trkpt lat="45.9751" lon="4.71734">
        <ele>197</ele>
        <time>2018-06-26T08:40:20Z</time>
      </trkpt>
      <trkpt lat="45.97516" lon="4.71734">
        <ele>198</ele>
        <time>2018-06-26T08:40:21Z</time>
      </trkpt>
      <trkpt lat="45.97522" lon="4.71734">
        <ele>198</ele>
        <time>2018-06-26T08:40:22Z</time>
      </trkpt>
      <trkpt lat="45.97525" lon="4.71736">
        <ele>198</ele>
        <time>2018-06-26T08:40:23Z</time>
      </trkpt>
      <trkpt lat="45.9753" lon="4.71736">
        <ele>198</ele>
        <time>2018-06-26T08:40:24Z</time>
      </trkpt>
      <trkpt lat="45.97536" lon="4.71736">
        <ele>198</ele>
        <time>2018-06-26T08:40:25Z</time>
      </trkpt>
      <trkpt lat="45.9754" lon="4.71738">
        <ele>198</ele>
        <time>2018-06-26T08:40:26Z</time>
      </trkpt>
      <trkpt lat="45.97545" lon="4.71739">
        <ele>198</ele>
        <time>2018-06-26T08:40:27Z</time>
      </trkpt>
      <trkpt lat="45.9755" lon="4.71739">
        <ele>197</ele>
        <time>2018-06-26T08:40:28Z</time>
      </trkpt>
      <trkpt lat="45.97555" lon="4.71738">
        <ele>197</ele>
        <time>2018-06-26T08:40:29Z</time>
      </trkpt>
      <trkpt lat="45.97561" lon="4.71738">
        <ele>197</ele>
        <time>2018-06-26T08:40:30Z</time>
      </trkpt>
      <trkpt lat="45.97565" lon="4.71739">
        <ele>197</ele>
        <time>2018-06-26T08:40:31Z</time>
      </trkpt>
      <trkpt lat="45.9757" lon="4.71739">
        <ele>197</ele>
        <time>2018-06-26T08:40:32Z</time>
      </trkpt>
      <trkpt lat="45.97575" lon="4.71739">
        <ele>196</ele>
        <time>2018-06-26T08:40:33Z</time>
      </trkpt>
      <trkpt lat="45.97579" lon="4.7174">
        <ele>196</ele>
        <time>2018-06-26T08:40:34Z</time>
      </trkpt>
      <trkpt lat="45.97585" lon="4.71739">
        <ele>196</ele>
        <time>2018-06-26T08:40:35Z</time>
      </trkpt>
      <trkpt lat="45.97589" lon="4.71741">
        <ele>196</ele>
        <time>2018-06-26T08:40:36Z</time>
      </trkpt>
      <trkpt lat="45.97595" lon="4.71743">
        <ele>196</ele>
        <time>2018-06-26T08:40:37Z</time>
      </trkpt>
      <trkpt lat="45.97599" lon="4.71747">
        <ele>196</ele>
        <time>2018-06-26T08:40:38Z</time>
      </trkpt>
      <trkpt lat="45.97603" lon="4.71751">
        <ele>194</ele>
        <time>2018-06-26T08:40:39Z</time>
      </trkpt>
      <trkpt lat="45.97608" lon="4.71755">
        <ele>194</ele>
        <time>2018-06-26T08:40:40Z</time>
      </trkpt>
      <trkpt lat="45.97613" lon="4.71758">
        <ele>194</ele>
        <time>2018-06-26T08:40:41Z</time>
      </trkpt>
      <trkpt lat="45.97619" lon="4.71757">
        <ele>194</ele>
        <time>2018-06-26T08:40:42Z</time>
      </trkpt>
      <trkpt lat="45.97624" lon="4.71756">
        <ele>194</ele>
        <time>2018-06-26T08:40:43Z</time>
      </trkpt>
      <trkpt lat="45.9763" lon="4.71754">
        <ele>194</ele>
        <time>2018-06-26T08:40:44Z</time>
      </trkpt>
      <trkpt lat="45.97636" lon="4.71748">
        <ele>196</ele>
        <time>2018-06-26T08:40:45Z</time>
      </trkpt>
      <trkpt lat="45.97642" lon="4.71747">
        <ele>196</ele>
        <time>2018-06-26T08:40:46Z</time>
      </trkpt>
      <trkpt lat="45.97646" lon="4.71747">
        <ele>196</ele>
        <time>2018-06-26T08:40:47Z</time>
      </trkpt>
      <trkpt lat="45.97651" lon="4.71747">
        <ele>195</ele>
        <time>2018-06-26T08:40:48Z</time>
      </trkpt>
      <trkpt lat="45.97657" lon="4.71749">
        <ele>195</ele>
        <time>2018-06-26T08:40:49Z</time>
      </trkpt>
      <trkpt lat="45.97663" lon="4.71751">
        <ele>194</ele>
        <time>2018-06-26T08:40:50Z</time>
      </trkpt>
      <trkpt lat="45.97669" lon="4.71752">
        <ele>194</ele>
        <time>2018-06-26T08:40:51Z</time>
      </trkpt>
      <trkpt lat="45.97675" lon="4.71752">
        <ele>194</ele>
        <time>2018-06-26T08:40:52Z</time>
      </trkpt>
      <trkpt lat="45.9768" lon="4.71754">
        <ele>194</ele>
        <time>2018-06-26T08:40:53Z</time>
      </trkpt>
      <trkpt lat="45.97686" lon="4.71753">
        <ele>194</ele>
        <time>2018-06-26T08:40:54Z</time>
      </trkpt>
      <trkpt lat="45.97691" lon="4.71752">
        <ele>195</ele>
        <time>2018-06-26T08:40:55Z</time>
      </trkpt>
      <trkpt lat="45.97697" lon="4.71751">
        <ele>195</ele>
        <time>2018-06-26T08:40:56Z</time>
      </trkpt>
      <trkpt lat="45.97703" lon="4.71751">
        <ele>195</ele>
        <time>2018-06-26T08:40:57Z</time>
      </trkpt>
      <trkpt lat="45.97708" lon="4.71751">
        <ele>195</ele>
        <time>2018-06-26T08:40:58Z</time>
      </trkpt>
      <trkpt lat="45.97712" lon="4.71753">
        <ele>195</ele>
        <time>2018-06-26T08:40:59Z</time>
      </trkpt>
      <trkpt lat="45.97717" lon="4.71755">
        <ele>195</ele>
        <time>2018-06-26T08:41:00Z</time>
      </trkpt>
      <trkpt lat="45.97723" lon="4.71754">
        <ele>195</ele>
        <time>2018-06-26T08:41:01Z</time>
      </trkpt>
      <trkpt lat="45.97728" lon="4.71754">
        <ele>195</ele>
        <time>2018-06-26T08:41:02Z</time>
      </trkpt>
      <trkpt lat="45.97734" lon="4.71754">
        <ele>195</ele>
        <time>2018-06-26T08:41:03Z</time>
      </trkpt>
      <trkpt lat="45.9774" lon="4.71754">
        <ele>196</ele>
        <time>2018-06-26T08:41:04Z</time>
      </trkpt>
      <trkpt lat="45.97745" lon="4.71754">
        <ele>196</ele>
        <time>2018-06-26T08:41:05Z</time>
      </trkpt>
      <trkpt lat="45.97752" lon="4.71755">
        <ele>196</ele>
        <time>2018-06-26T08:41:06Z</time>
      </trkpt>
      <trkpt lat="45.97757" lon="4.71756">
        <ele>196</ele>
        <time>2018-06-26T08:41:07Z</time>
      </trkpt>
      <trkpt lat="45.97762" lon="4.71757">
        <ele>196</ele>
        <time>2018-06-26T08:41:08Z</time>
      </trkpt>
      <trkpt lat="45.97768" lon="4.71757">
        <ele>195</ele>
        <time>2018-06-26T08:41:09Z</time>
      </trkpt>
      <trkpt lat="45.97773" lon="4.71758">
        <ele>195</ele>
        <time>2018-06-26T08:41:10Z</time>
      </trkpt>
      <trkpt lat="45.97779" lon="4.71759">
        <ele>195</ele>
        <time>2018-06-26T08:41:11Z</time>
      </trkpt>
      <trkpt lat="45.97784" lon="4.71759">
        <ele>195</ele>
        <time>2018-06-26T08:41:12Z</time>
      </trkpt>
      <trkpt lat="45.97789" lon="4.71759">
        <ele>195</ele>
        <time>2018-06-26T08:41:13Z</time>
      </trkpt>
      <trkpt lat="45.97794" lon="4.71759">
        <ele>195</ele>
        <time>2018-06-26T08:41:14Z</time>
      </trkpt>
      <trkpt lat="45.97799" lon="4.71759">
        <ele>195</ele>
        <time>2018-06-26T08:41:15Z</time>
      </trkpt>
      <trkpt lat="45.97803" lon="4.71759">
        <ele>195</ele>
        <time>2018-06-26T08:41:16Z</time>
      </trkpt>
      <trkpt lat="45.97809" lon="4.71761">
        <ele>195</ele>
        <time>2018-06-26T08:41:17Z</time>
      </trkpt>
      <trkpt lat="45.97814" lon="4.71762">
        <ele>195</ele>
        <time>2018-06-26T08:41:18Z</time>
      </trkpt>
      <trkpt lat="45.97819" lon="4.71762">
        <ele>195</ele>
        <time>2018-06-26T08:41:19Z</time>
      </trkpt>
      <trkpt lat="45.97825" lon="4.71763">
        <ele>195</ele>
        <time>2018-06-26T08:41:20Z</time>
      </trkpt>
      <trkpt lat="45.97829" lon="4.71763">
        <ele>195</ele>
        <time>2018-06-26T08:41:21Z</time>
      </trkpt>
      <trkpt lat="45.97834" lon="4.71763">
        <ele>195</ele>
        <time>2018-06-26T08:41:22Z</time>
      </trkpt>
      <trkpt lat="45.9784" lon="4.71763">
        <ele>195</ele>
        <time>2018-06-26T08:41:23Z</time>
      </trkpt>
      <trkpt lat="45.97845" lon="4.71764">
        <ele>195</ele>
        <time>2018-06-26T08:41:24Z</time>
      </trkpt>
      <trkpt lat="45.9785" lon="4.71767">
        <ele>195</ele>
        <time>2018-06-26T08:41:25Z</time>
      </trkpt>
      <trkpt lat="45.97856" lon="4.71774">
        <ele>194</ele>
        <time>2018-06-26T08:41:27Z</time>
      </trkpt>
      <trkpt lat="45.97859" lon="4.71778">
        <ele>194</ele>
        <time>2018-06-26T08:41:28Z</time>
      </trkpt>
      <trkpt lat="45.97862" lon="4.71782">
        <ele>194</ele>
        <time>2018-06-26T08:41:29Z</time>
      </trkpt>
      <trkpt lat="45.97867" lon="4.71784">
        <ele>194</ele>
        <time>2018-06-26T08:41:30Z</time>
      </trkpt>
      <trkpt lat="45.97875" lon="4.71785">
        <ele>194</ele>
        <time>2018-06-26T08:41:32Z</time>
      </trkpt>
      <trkpt lat="45.97881" lon="4.71783">
        <ele>194</ele>
        <time>2018-06-26T08:41:33Z</time>
      </trkpt>
      <trkpt lat="45.97885" lon="4.71779">
        <ele>194</ele>
        <time>2018-06-26T08:41:34Z</time>
      </trkpt>
      <trkpt lat="45.9789" lon="4.71773">
        <ele>194</ele>
        <time>2018-06-26T08:41:35Z</time>
      </trkpt>
      <trkpt lat="45.97894" lon="4.71765">
        <ele>194</ele>
        <time>2018-06-26T08:41:36Z</time>
      </trkpt>
      <trkpt lat="45.97896" lon="4.71758">
        <ele>195</ele>
        <time>2018-06-26T08:41:37Z</time>
      </trkpt>
      <trkpt lat="45.97898" lon="4.71751">
        <ele>195</ele>
        <time>2018-06-26T08:41:38Z</time>
      </trkpt>
      <trkpt lat="45.97899" lon="4.71743">
        <ele>196</ele>
        <time>2018-06-26T08:41:39Z</time>
      </trkpt>
      <trkpt lat="45.979" lon="4.71734">
        <ele>196</ele>
        <time>2018-06-26T08:41:40Z</time>
      </trkpt>
      <trkpt lat="45.979" lon="4.71727">
        <ele>196</ele>
        <time>2018-06-26T08:41:41Z</time>
      </trkpt>
      <trkpt lat="45.979" lon="4.71719">
        <ele>196</ele>
        <time>2018-06-26T08:41:42Z</time>
      </trkpt>
      <trkpt lat="45.97901" lon="4.71713">
        <ele>196</ele>
        <time>2018-06-26T08:41:43Z</time>
      </trkpt>
      <trkpt lat="45.97903" lon="4.71706">
        <ele>196</ele>
        <time>2018-06-26T08:41:44Z</time>
      </trkpt>
      <trkpt lat="45.97907" lon="4.71699">
        <ele>196</ele>
        <time>2018-06-26T08:41:45Z</time>
      </trkpt>
      <trkpt lat="45.9791" lon="4.71695">
        <ele>196</ele>
        <time>2018-06-26T08:41:46Z</time>
      </trkpt>
      <trkpt lat="45.97914" lon="4.7169">
        <ele>196</ele>
        <time>2018-06-26T08:41:47Z</time>
      </trkpt>
      <trkpt lat="45.97918" lon="4.71686">
        <ele>196</ele>
        <time>2018-06-26T08:41:48Z</time>
      </trkpt>
      <trkpt lat="45.97922" lon="4.71682">
        <ele>197</ele>
        <time>2018-06-26T08:41:49Z</time>
      </trkpt>
      <trkpt lat="45.97927" lon="4.71679">
        <ele>197</ele>
        <time>2018-06-26T08:41:50Z</time>
      </trkpt>
      <trkpt lat="45.97932" lon="4.71677">
        <ele>197</ele>
        <time>2018-06-26T08:41:51Z</time>
      </trkpt>
      <trkpt lat="45.97937" lon="4.71672">
        <ele>197</ele>
        <time>2018-06-26T08:41:52Z</time>
      </trkpt>
      <trkpt lat="45.97941" lon="4.71669">
        <ele>197</ele>
        <time>2018-06-26T08:41:53Z</time>
      </trkpt>
      <trkpt lat="45.97945" lon="4.71665">
        <ele>197</ele>
        <time>2018-06-26T08:41:54Z</time>
      </trkpt>
      <trkpt lat="45.97949" lon="4.71662">
        <ele>197</ele>
        <time>2018-06-26T08:41:55Z</time>
      </trkpt>
      <trkpt lat="45.97952" lon="4.71658">
        <ele>197</ele>
        <time>2018-06-26T08:41:56Z</time>
      </trkpt>
      <trkpt lat="45.97957" lon="4.71655">
        <ele>197</ele>
        <time>2018-06-26T08:41:57Z</time>
      </trkpt>
      <trkpt lat="45.97961" lon="4.71653">
        <ele>197</ele>
        <time>2018-06-26T08:41:58Z</time>
      </trkpt>
      <trkpt lat="45.97966" lon="4.71648">
        <ele>197</ele>
        <time>2018-06-26T08:41:59Z</time>
      </trkpt>
      <trkpt lat="45.97973" lon="4.71645">
        <ele>197</ele>
        <time>2018-06-26T08:42:01Z</time>
      </trkpt>
      <trkpt lat="45.97976" lon="4.71641">
        <ele>197</ele>
        <time>2018-06-26T08:42:02Z</time>
      </trkpt>
      <trkpt lat="45.97981" lon="4.71637">
        <ele>197</ele>
        <time>2018-06-26T08:42:03Z</time>
      </trkpt>
      <trkpt lat="45.97986" lon="4.71634">
        <ele>197</ele>
        <time>2018-06-26T08:42:04Z</time>
      </trkpt>
      <trkpt lat="45.9799" lon="4.71629">
        <ele>198</ele>
        <time>2018-06-26T08:42:05Z</time>
      </trkpt>
      <trkpt lat="45.97995" lon="4.71624">
        <ele>198</ele>
        <time>2018-06-26T08:42:06Z</time>
      </trkpt>
      <trkpt lat="45.97999" lon="4.7162">
        <ele>198</ele>
        <time>2018-06-26T08:42:07Z</time>
      </trkpt>
      <trkpt lat="45.98005" lon="4.71615">
        <ele>198</ele>
        <time>2018-06-26T08:42:08Z</time>
      </trkpt>
      <trkpt lat="45.9801" lon="4.71613">
        <ele>198</ele>
        <time>2018-06-26T08:42:09Z</time>
      </trkpt>
      <trkpt lat="45.98014" lon="4.7161">
        <ele>198</ele>
        <time>2018-06-26T08:42:10Z</time>
      </trkpt>
      <trkpt lat="45.98019" lon="4.71608">
        <ele>198</ele>
        <time>2018-06-26T08:42:11Z</time>
      </trkpt>
      <trkpt lat="45.98023" lon="4.71605">
        <ele>198</ele>
        <time>2018-06-26T08:42:12Z</time>
      </trkpt>
      <trkpt lat="45.9803" lon="4.71601">
        <ele>198</ele>
        <time>2018-06-26T08:42:14Z</time>
      </trkpt>
      <trkpt lat="45.98034" lon="4.71598">
        <ele>198</ele>
        <time>2018-06-26T08:42:15Z</time>
      </trkpt>
      <trkpt lat="45.98039" lon="4.71595">
        <ele>198</ele>
        <time>2018-06-26T08:42:16Z</time>
      </trkpt>
      <trkpt lat="45.98042" lon="4.71592">
        <ele>198</ele>
        <time>2018-06-26T08:42:17Z</time>
      </trkpt>
      <trkpt lat="45.98046" lon="4.71589">
        <ele>198</ele>
        <time>2018-06-26T08:42:18Z</time>
      </trkpt>
      <trkpt lat="45.9805" lon="4.71585">
        <ele>198</ele>
        <time>2018-06-26T08:42:19Z</time>
      </trkpt>
      <trkpt lat="45.98054" lon="4.71582">
        <ele>198</ele>
        <time>2018-06-26T08:42:20Z</time>
      </trkpt>
      <trkpt lat="45.98058" lon="4.71578">
        <ele>198</ele>
        <time>2018-06-26T08:42:21Z</time>
      </trkpt>
      <trkpt lat="45.98063" lon="4.71575">
        <ele>198</ele>
        <time>2018-06-26T08:42:22Z</time>
      </trkpt>
      <trkpt lat="45.98067" lon="4.71571">
        <ele>198</ele>
        <time>2018-06-26T08:42:23Z</time>
      </trkpt>
      <trkpt lat="45.98073" lon="4.71565">
        <ele>198</ele>
        <time>2018-06-26T08:42:26Z</time>
      </trkpt>
      <trkpt lat="45.98083" lon="4.71558">
        <ele>198</ele>
        <time>2018-06-26T08:42:27Z</time>
      </trkpt>
      <trkpt lat="45.98088" lon="4.71555">
        <ele>198</ele>
        <time>2018-06-26T08:42:28Z</time>
      </trkpt>
      <trkpt lat="45.98094" lon="4.71552">
        <ele>198</ele>
        <time>2018-06-26T08:42:29Z</time>
      </trkpt>
      <trkpt lat="45.981" lon="4.71549">
        <ele>197</ele>
        <time>2018-06-26T08:42:30Z</time>
      </trkpt>
      <trkpt lat="45.98106" lon="4.71545">
        <ele>197</ele>
        <time>2018-06-26T08:42:31Z</time>
      </trkpt>
      <trkpt lat="45.98112" lon="4.71543">
        <ele>197</ele>
        <time>2018-06-26T08:42:32Z</time>
      </trkpt>
      <trkpt lat="45.98117" lon="4.71538">
        <ele>197</ele>
        <time>2018-06-26T08:42:33Z</time>
      </trkpt>
      <trkpt lat="45.98123" lon="4.71535">
        <ele>197</ele>
        <time>2018-06-26T08:42:34Z</time>
      </trkpt>
      <trkpt lat="45.98128" lon="4.71533">
        <ele>197</ele>
        <time>2018-06-26T08:42:35Z</time>
      </trkpt>
      <trkpt lat="45.98134" lon="4.71529">
        <ele>197</ele>
        <time>2018-06-26T08:42:36Z</time>
      </trkpt>
      <trkpt lat="45.98139" lon="4.71525">
        <ele>197</ele>
        <time>2018-06-26T08:42:37Z</time>
      </trkpt>
      <trkpt lat="45.98144" lon="4.71521">
        <ele>197</ele>
        <time>2018-06-26T08:42:38Z</time>
      </trkpt>
      <trkpt lat="45.98149" lon="4.71517">
        <ele>197</ele>
        <time>2018-06-26T08:42:39Z</time>
      </trkpt>
      <trkpt lat="45.98154" lon="4.71514">
        <ele>197</ele>
        <time>2018-06-26T08:42:40Z</time>
      </trkpt>
      <trkpt lat="45.9816" lon="4.71511">
        <ele>197</ele>
        <time>2018-06-26T08:42:41Z</time>
      </trkpt>
      <trkpt lat="45.98164" lon="4.71509">
        <ele>197</ele>
        <time>2018-06-26T08:42:42Z</time>
      </trkpt>
      <trkpt lat="45.9817" lon="4.71506">
        <ele>197</ele>
        <time>2018-06-26T08:42:43Z</time>
      </trkpt>
      <trkpt lat="45.98176" lon="4.71506">
        <ele>197</ele>
        <time>2018-06-26T08:42:44Z</time>
      </trkpt>
      <trkpt lat="45.98183" lon="4.71504">
        <ele>197</ele>
        <time>2018-06-26T08:42:45Z</time>
      </trkpt>
      <trkpt lat="45.98188" lon="4.71504">
        <ele>197</ele>
        <time>2018-06-26T08:42:46Z</time>
      </trkpt>
      <trkpt lat="45.98194" lon="4.71503">
        <ele>197</ele>
        <time>2018-06-26T08:42:47Z</time>
      </trkpt>
      <trkpt lat="45.98199" lon="4.71504">
        <ele>197</ele>
        <time>2018-06-26T08:42:48Z</time>
      </trkpt>
      <trkpt lat="45.98205" lon="4.71505">
        <ele>197</ele>
        <time>2018-06-26T08:42:49Z</time>
      </trkpt>
      <trkpt lat="45.9821" lon="4.71506">
        <ele>196</ele>
        <time>2018-06-26T08:42:50Z</time>
      </trkpt>
      <trkpt lat="45.98215" lon="4.71508">
        <ele>196</ele>
        <time>2018-06-26T08:42:51Z</time>
      </trkpt>
      <trkpt lat="45.98219" lon="4.71511">
        <ele>196</ele>
        <time>2018-06-26T08:42:52Z</time>
      </trkpt>
      <trkpt lat="45.98224" lon="4.71514">
        <ele>196</ele>
        <time>2018-06-26T08:42:53Z</time>
      </trkpt>
      <trkpt lat="45.98229" lon="4.71516">
        <ele>196</ele>
        <time>2018-06-26T08:42:54Z</time>
      </trkpt>
      <trkpt lat="45.98233" lon="4.7152">
        <ele>196</ele>
        <time>2018-06-26T08:42:55Z</time>
      </trkpt>
      <trkpt lat="45.98238" lon="4.71523">
        <ele>196</ele>
        <time>2018-06-26T08:42:56Z</time>
      </trkpt>
      <trkpt lat="45.98243" lon="4.71527">
        <ele>196</ele>
        <time>2018-06-26T08:42:57Z</time>
      </trkpt>
      <trkpt lat="45.98248" lon="4.71529">
        <ele>196</ele>
        <time>2018-06-26T08:42:58Z</time>
      </trkpt>
      <trkpt lat="45.98252" lon="4.71532">
        <ele>197</ele>
        <time>2018-06-26T08:42:59Z</time>
      </trkpt>
      <trkpt lat="45.98257" lon="4.71535">
        <ele>197</ele>
        <time>2018-06-26T08:43:00Z</time>
      </trkpt>
      <trkpt lat="45.98262" lon="4.71539">
        <ele>197</ele>
        <time>2018-06-26T08:43:01Z</time>
      </trkpt>
      <trkpt lat="45.98268" lon="4.71543">
        <ele>197</ele>
        <time>2018-06-26T08:43:02Z</time>
      </trkpt>
      <trkpt lat="45.98272" lon="4.71544">
        <ele>197</ele>
        <time>2018-06-26T08:43:03Z</time>
      </trkpt>
      <trkpt lat="45.98277" lon="4.71547">
        <ele>198</ele>
        <time>2018-06-26T08:43:04Z</time>
      </trkpt>
      <trkpt lat="45.98281" lon="4.7155">
        <ele>198</ele>
        <time>2018-06-26T08:43:05Z</time>
      </trkpt>
      <trkpt lat="45.98286" lon="4.71553">
        <ele>198</ele>
        <time>2018-06-26T08:43:06Z</time>
      </trkpt>
      <trkpt lat="45.9829" lon="4.71555">
        <ele>198</ele>
        <time>2018-06-26T08:43:07Z</time>
      </trkpt>
      <trkpt lat="45.98294" lon="4.71558">
        <ele>198</ele>
        <time>2018-06-26T08:43:08Z</time>
      </trkpt>
      <trkpt lat="45.98298" lon="4.71561">
        <ele>198</ele>
        <time>2018-06-26T08:43:09Z</time>
      </trkpt>
      <trkpt lat="45.98305" lon="4.71566">
        <ele>198</ele>
        <time>2018-06-26T08:43:11Z</time>
      </trkpt>
      <trkpt lat="45.98309" lon="4.71569">
        <ele>198</ele>
        <time>2018-06-26T08:43:12Z</time>
      </trkpt>
      <trkpt lat="45.98317" lon="4.71574">
        <ele>198</ele>
        <time>2018-06-26T08:43:14Z</time>
      </trkpt>
      <trkpt lat="45.98321" lon="4.71576">
        <ele>198</ele>
        <time>2018-06-26T08:43:15Z</time>
      </trkpt>
      <trkpt lat="45.98327" lon="4.7158">
        <ele>199</ele>
        <time>2018-06-26T08:43:16Z</time>
      </trkpt>
      <trkpt lat="45.98331" lon="4.71582">
        <ele>199</ele>
        <time>2018-06-26T08:43:17Z</time>
      </trkpt>
      <trkpt lat="45.98337" lon="4.71584">
        <ele>199</ele>
        <time>2018-06-26T08:43:18Z</time>
      </trkpt>
      <trkpt lat="45.98342" lon="4.71587">
        <ele>199</ele>
        <time>2018-06-26T08:43:19Z</time>
      </trkpt>
      <trkpt lat="45.98347" lon="4.71591">
        <ele>198</ele>
        <time>2018-06-26T08:43:20Z</time>
      </trkpt>
      <trkpt lat="45.98352" lon="4.71596">
        <ele>198</ele>
        <time>2018-06-26T08:43:21Z</time>
      </trkpt>
      <trkpt lat="45.98357" lon="4.71599">
        <ele>198</ele>
        <time>2018-06-26T08:43:22Z</time>
      </trkpt>
      <trkpt lat="45.98362" lon="4.71602">
        <ele>198</ele>
        <time>2018-06-26T08:43:23Z</time>
      </trkpt>
      <trkpt lat="45.98368" lon="4.71604">
        <ele>198</ele>
        <time>2018-06-26T08:43:24Z</time>
      </trkpt>
      <trkpt lat="45.98373" lon="4.71606">
        <ele>198</ele>
        <time>2018-06-26T08:43:25Z</time>
      </trkpt>
      <trkpt lat="45.98378" lon="4.71603">
        <ele>198</ele>
        <time>2018-06-26T08:43:26Z</time>
      </trkpt>
      <trkpt lat="45.98383" lon="4.71603">
        <ele>198</ele>
        <time>2018-06-26T08:43:27Z</time>
      </trkpt>
      <trkpt lat="45.98387" lon="4.71601">
        <ele>198</ele>
        <time>2018-06-26T08:43:28Z</time>
      </trkpt>
      <trkpt lat="45.98392" lon="4.71597">
        <ele>198</ele>
        <time>2018-06-26T08:43:29Z</time>
      </trkpt>
      <trkpt lat="45.98395" lon="4.71593">
        <ele>198</ele>
        <time>2018-06-26T08:43:30Z</time>
      </trkpt>
      <trkpt lat="45.984" lon="4.71588">
        <ele>197</ele>
        <time>2018-06-26T08:43:31Z</time>
      </trkpt>
      <trkpt lat="45.98404" lon="4.71582">
        <ele>198</ele>
        <time>2018-06-26T08:43:32Z</time>
      </trkpt>
      <trkpt lat="45.98409" lon="4.71578">
        <ele>198</ele>
        <time>2018-06-26T08:43:33Z</time>
      </trkpt>
      <trkpt lat="45.98413" lon="4.71575">
        <ele>197</ele>
        <time>2018-06-26T08:43:34Z</time>
      </trkpt>
      <trkpt lat="45.98417" lon="4.71571">
        <ele>197</ele>
        <time>2018-06-26T08:43:35Z</time>
      </trkpt>
      <trkpt lat="45.98421" lon="4.71566">
        <ele>197</ele>
        <time>2018-06-26T08:43:36Z</time>
      </trkpt>
      <trkpt lat="45.98425" lon="4.71561">
        <ele>197</ele>
        <time>2018-06-26T08:43:37Z</time>
      </trkpt>
      <trkpt lat="45.98428" lon="4.71556">
        <ele>197</ele>
        <time>2018-06-26T08:43:38Z</time>
      </trkpt>
      <trkpt lat="45.98435" lon="4.71551">
        <ele>197</ele>
        <time>2018-06-26T08:43:39Z</time>
      </trkpt>
      <trkpt lat="45.98439" lon="4.71547">
        <ele>197</ele>
        <time>2018-06-26T08:43:40Z</time>
      </trkpt>
      <trkpt lat="45.98443" lon="4.71546">
        <ele>197</ele>
        <time>2018-06-26T08:43:41Z</time>
      </trkpt>
      <trkpt lat="45.98451" lon="4.71543">
        <ele>197</ele>
        <time>2018-06-26T08:43:46Z</time>
      </trkpt>
      <trkpt lat="45.98452" lon="4.71542">
        <ele>197</ele>
        <time>2018-06-26T08:43:47Z</time>
      </trkpt>
      <trkpt lat="45.98459" lon="4.71539">
        <ele>197</ele>
        <time>2018-06-26T08:44:08Z</time>
      </trkpt>
      <trkpt lat="45.98462" lon="4.71539">
        <ele>197</ele>
        <time>2018-06-26T08:44:09Z</time>
      </trkpt>
      <trkpt lat="45.98468" lon="4.71537">
        <ele>197</ele>
        <time>2018-06-26T08:44:10Z</time>
      </trkpt>
      <trkpt lat="45.98472" lon="4.71536">
        <ele>197</ele>
        <time>2018-06-26T08:44:11Z</time>
      </trkpt>
      <trkpt lat="45.98476" lon="4.71534">
        <ele>196</ele>
        <time>2018-06-26T08:44:12Z</time>
      </trkpt>
      <trkpt lat="45.98481" lon="4.71532">
        <ele>196</ele>
        <time>2018-06-26T08:44:13Z</time>
      </trkpt>
      <trkpt lat="45.98488" lon="4.71532">
        <ele>196</ele>
        <time>2018-06-26T08:44:15Z</time>
      </trkpt>
      <trkpt lat="45.98496" lon="4.71529">
        <ele>196</ele>
        <time>2018-06-26T08:44:16Z</time>
      </trkpt>
      <trkpt lat="45.98502" lon="4.71528">
        <ele>195</ele>
        <time>2018-06-26T08:44:17Z</time>
      </trkpt>
      <trkpt lat="45.98508" lon="4.71526">
        <ele>195</ele>
        <time>2018-06-26T08:44:18Z</time>
      </trkpt>
      <trkpt lat="45.98513" lon="4.71525">
        <ele>195</ele>
        <time>2018-06-26T08:44:19Z</time>
      </trkpt>
      <trkpt lat="45.98519" lon="4.71524">
        <ele>194</ele>
        <time>2018-06-26T08:44:20Z</time>
      </trkpt>
      <trkpt lat="45.98524" lon="4.71522">
        <ele>194</ele>
        <time>2018-06-26T08:44:21Z</time>
      </trkpt>
      <trkpt lat="45.98529" lon="4.71521">
        <ele>194</ele>
        <time>2018-06-26T08:44:22Z</time>
      </trkpt>
      <trkpt lat="45.98535" lon="4.7152">
        <ele>194</ele>
        <time>2018-06-26T08:44:23Z</time>
      </trkpt>
      <trkpt lat="45.9854" lon="4.71519">
        <ele>194</ele>
        <time>2018-06-26T08:44:24Z</time>
      </trkpt>
      <trkpt lat="45.98544" lon="4.71518">
        <ele>194</ele>
        <time>2018-06-26T08:44:25Z</time>
      </trkpt>
      <trkpt lat="45.98549" lon="4.71518">
        <ele>194</ele>
        <time>2018-06-26T08:44:26Z</time>
      </trkpt>
      <trkpt lat="45.98553" lon="4.71517">
        <ele>194</ele>
        <time>2018-06-26T08:44:27Z</time>
      </trkpt>
      <trkpt lat="45.98558" lon="4.71516">
        <ele>194</ele>
        <time>2018-06-26T08:44:28Z</time>
      </trkpt>
      <trkpt lat="45.98563" lon="4.71514">
        <ele>193</ele>
        <time>2018-06-26T08:44:29Z</time>
      </trkpt>
      <trkpt lat="45.98569" lon="4.71511">
        <ele>193</ele>
        <time>2018-06-26T08:44:30Z</time>
      </trkpt>
      <trkpt lat="45.98574" lon="4.7151">
        <ele>193</ele>
        <time>2018-06-26T08:44:31Z</time>
      </trkpt>
      <trkpt lat="45.98581" lon="4.71509">
        <ele>193</ele>
        <time>2018-06-26T08:44:32Z</time>
      </trkpt>
      <trkpt lat="45.98585" lon="4.71511">
        <ele>192</ele>
        <time>2018-06-26T08:44:33Z</time>
      </trkpt>
      <trkpt lat="45.98591" lon="4.71511">
        <ele>192</ele>
        <time>2018-06-26T08:44:34Z</time>
      </trkpt>
      <trkpt lat="45.98597" lon="4.7151">
        <ele>192</ele>
        <time>2018-06-26T08:44:35Z</time>
      </trkpt>
      <trkpt lat="45.98603" lon="4.71509">
        <ele>192</ele>
        <time>2018-06-26T08:44:36Z</time>
      </trkpt>
      <trkpt lat="45.98611" lon="4.71508">
        <ele>191</ele>
        <time>2018-06-26T08:44:37Z</time>
      </trkpt>
      <trkpt lat="45.98617" lon="4.71507">
        <ele>191</ele>
        <time>2018-06-26T08:44:38Z</time>
      </trkpt>
      <trkpt lat="45.98622" lon="4.71506">
        <ele>191</ele>
        <time>2018-06-26T08:44:39Z</time>
      </trkpt>
      <trkpt lat="45.98628" lon="4.71504">
        <ele>191</ele>
        <time>2018-06-26T08:44:40Z</time>
      </trkpt>
      <trkpt lat="45.98633" lon="4.71505">
        <ele>191</ele>
        <time>2018-06-26T08:44:41Z</time>
      </trkpt>
      <trkpt lat="45.98638" lon="4.71502">
        <ele>191</ele>
        <time>2018-06-26T08:44:42Z</time>
      </trkpt>
      <trkpt lat="45.98646" lon="4.71502">
        <ele>190</ele>
        <time>2018-06-26T08:44:44Z</time>
      </trkpt>
      <trkpt lat="45.9865" lon="4.71502">
        <ele>190</ele>
        <time>2018-06-26T08:44:45Z</time>
      </trkpt>
      <trkpt lat="45.98658" lon="4.71498">
        <ele>189</ele>
        <time>2018-06-26T08:44:47Z</time>
      </trkpt>
      <trkpt lat="45.98661" lon="4.71497">
        <ele>189</ele>
        <time>2018-06-26T08:44:48Z</time>
      </trkpt>
      <trkpt lat="45.98668" lon="4.71497">
        <ele>189</ele>
        <time>2018-06-26T08:44:52Z</time>
      </trkpt>
      <trkpt lat="45.98675" lon="4.715">
        <ele>188</ele>
        <time>2018-06-26T08:44:53Z</time>
      </trkpt>
      <trkpt lat="45.98679" lon="4.71499">
        <ele>188</ele>
        <time>2018-06-26T08:44:54Z</time>
      </trkpt>
      <trkpt lat="45.98684" lon="4.715">
        <ele>188</ele>
        <time>2018-06-26T08:44:55Z</time>
      </trkpt>
      <trkpt lat="45.98689" lon="4.71501">
        <ele>188</ele>
        <time>2018-06-26T08:44:56Z</time>
      </trkpt>
      <trkpt lat="45.98694" lon="4.71502">
        <ele>188</ele>
        <time>2018-06-26T08:44:57Z</time>
      </trkpt>
      <trkpt lat="45.987" lon="4.71503">
        <ele>187</ele>
        <time>2018-06-26T08:44:58Z</time>
      </trkpt>
      <trkpt lat="45.98705" lon="4.71504">
        <ele>187</ele>
        <time>2018-06-26T08:44:59Z</time>
      </trkpt>
      <trkpt lat="45.9871" lon="4.71504">
        <ele>187</ele>
        <time>2018-06-26T08:45:00Z</time>
      </trkpt>
      <trkpt lat="45.98716" lon="4.71505">
        <ele>187</ele>
        <time>2018-06-26T08:45:01Z</time>
      </trkpt>
      <trkpt lat="45.98721" lon="4.71506">
        <ele>186</ele>
        <time>2018-06-26T08:45:02Z</time>
      </trkpt>
      <trkpt lat="45.98725" lon="4.71506">
        <ele>186</ele>
        <time>2018-06-26T08:45:03Z</time>
      </trkpt>
      <trkpt lat="45.9873" lon="4.71506">
        <ele>186</ele>
        <time>2018-06-26T08:45:04Z</time>
      </trkpt>
      <trkpt lat="45.98736" lon="4.71506">
        <ele>186</ele>
        <time>2018-06-26T08:45:05Z</time>
      </trkpt>
      <trkpt lat="45.98742" lon="4.71506">
        <ele>185</ele>
        <time>2018-06-26T08:45:06Z</time>
      </trkpt>
      <trkpt lat="45.98748" lon="4.71507">
        <ele>185</ele>
        <time>2018-06-26T08:45:07Z</time>
      </trkpt>
      <trkpt lat="45.98754" lon="4.71506">
        <ele>184</ele>
        <time>2018-06-26T08:45:08Z</time>
      </trkpt>
      <trkpt lat="45.98759" lon="4.71507">
        <ele>184</ele>
        <time>2018-06-26T08:45:09Z</time>
      </trkpt>
      <trkpt lat="45.98765" lon="4.71508">
        <ele>184</ele>
        <time>2018-06-26T08:45:10Z</time>
      </trkpt>
      <trkpt lat="45.98771" lon="4.71509">
        <ele>184</ele>
        <time>2018-06-26T08:45:11Z</time>
      </trkpt>
      <trkpt lat="45.98777" lon="4.7151">
        <ele>184</ele>
        <time>2018-06-26T08:45:12Z</time>
      </trkpt>
      <trkpt lat="45.98784" lon="4.71506">
        <ele>184</ele>
        <time>2018-06-26T08:45:13Z</time>
      </trkpt>
      <trkpt lat="45.98791" lon="4.71506">
        <ele>184</ele>
        <time>2018-06-26T08:45:14Z</time>
      </trkpt>
      <trkpt lat="45.98796" lon="4.71505">
        <ele>184</ele>
        <time>2018-06-26T08:45:15Z</time>
      </trkpt>
      <trkpt lat="45.98801" lon="4.71504">
        <ele>184</ele>
        <time>2018-06-26T08:45:16Z</time>
      </trkpt>
      <trkpt lat="45.98807" lon="4.71506">
        <ele>184</ele>
        <time>2018-06-26T08:45:17Z</time>
      </trkpt>
      <trkpt lat="45.98814" lon="4.71504">
        <ele>184</ele>
        <time>2018-06-26T08:45:18Z</time>
      </trkpt>
      <trkpt lat="45.9882" lon="4.71504">
        <ele>184</ele>
        <time>2018-06-26T08:45:19Z</time>
      </trkpt>
      <trkpt lat="45.98825" lon="4.71505">
        <ele>184</ele>
        <time>2018-06-26T08:45:20Z</time>
      </trkpt>
      <trkpt lat="45.98831" lon="4.71505">
        <ele>184</ele>
        <time>2018-06-26T08:45:21Z</time>
      </trkpt>
      <trkpt lat="45.98837" lon="4.71505">
        <ele>184</ele>
        <time>2018-06-26T08:45:22Z</time>
      </trkpt>
      <trkpt lat="45.98843" lon="4.71506">
        <ele>184</ele>
        <time>2018-06-26T08:45:23Z</time>
      </trkpt>
      <trkpt lat="45.98848" lon="4.71507">
        <ele>184</ele>
        <time>2018-06-26T08:45:24Z</time>
      </trkpt>
      <trkpt lat="45.98853" lon="4.71508">
        <ele>185</ele>
        <time>2018-06-26T08:45:25Z</time>
      </trkpt>
      <trkpt lat="45.98862" lon="4.71508">
        <ele>185</ele>
        <time>2018-06-26T08:45:26Z</time>
      </trkpt>
      <trkpt lat="45.98868" lon="4.71509">
        <ele>185</ele>
        <time>2018-06-26T08:45:27Z</time>
      </trkpt>
      <trkpt lat="45.98874" lon="4.71511">
        <ele>185</ele>
        <time>2018-06-26T08:45:28Z</time>
      </trkpt>
      <trkpt lat="45.9888" lon="4.7151">
        <ele>185</ele>
        <time>2018-06-26T08:45:29Z</time>
      </trkpt>
      <trkpt lat="45.98886" lon="4.71511">
        <ele>185</ele>
        <time>2018-06-26T08:45:30Z</time>
      </trkpt>
      <trkpt lat="45.98891" lon="4.71512">
        <ele>185</ele>
        <time>2018-06-26T08:45:31Z</time>
      </trkpt>
      <trkpt lat="45.98897" lon="4.71513">
        <ele>185</ele>
        <time>2018-06-26T08:45:32Z</time>
      </trkpt>
      <trkpt lat="45.98901" lon="4.71515">
        <ele>185</ele>
        <time>2018-06-26T08:45:33Z</time>
      </trkpt>
      <trkpt lat="45.98907" lon="4.71516">
        <ele>185</ele>
        <time>2018-06-26T08:45:34Z</time>
      </trkpt>
      <trkpt lat="45.98915" lon="4.71516">
        <ele>185</ele>
        <time>2018-06-26T08:45:36Z</time>
      </trkpt>
      <trkpt lat="45.9892" lon="4.71517">
        <ele>186</ele>
        <time>2018-06-26T08:45:37Z</time>
      </trkpt>
      <trkpt lat="45.98928" lon="4.71519">
        <ele>186</ele>
        <time>2018-06-26T08:45:39Z</time>
      </trkpt>
      <trkpt lat="45.9893" lon="4.71519">
        <ele>186</ele>
        <time>2018-06-26T08:45:40Z</time>
      </trkpt>
      <trkpt lat="45.98938" lon="4.71519">
        <ele>186</ele>
        <time>2018-06-26T08:45:44Z</time>
      </trkpt>
      <trkpt lat="45.98939" lon="4.71519">
        <ele>186</ele>
        <time>2018-06-26T08:45:45Z</time>
      </trkpt>
      <trkpt lat="45.98947" lon="4.71516">
        <ele>186</ele>
        <time>2018-06-26T08:46:18Z</time>
      </trkpt>
      <trkpt lat="45.98949" lon="4.71517">
        <ele>186</ele>
        <time>2018-06-26T08:46:19Z</time>
      </trkpt>
      <trkpt lat="45.98954" lon="4.71518">
        <ele>186</ele>
        <time>2018-06-26T08:46:21Z</time>
      </trkpt>
      <trkpt lat="45.98964" lon="4.71519">
        <ele>186</ele>
        <time>2018-06-26T08:46:22Z</time>
      </trkpt>
      <trkpt lat="45.98972" lon="4.71519">
        <ele>186</ele>
        <time>2018-06-26T08:46:24Z</time>
      </trkpt>
      <trkpt lat="45.98976" lon="4.71518">
        <ele>186</ele>
        <time>2018-06-26T08:46:25Z</time>
      </trkpt>
      <trkpt lat="45.98981" lon="4.71518">
        <ele>186</ele>
        <time>2018-06-26T08:46:26Z</time>
      </trkpt>
      <trkpt lat="45.98985" lon="4.71517">
        <ele>186</ele>
        <time>2018-06-26T08:46:27Z</time>
      </trkpt>
      <trkpt lat="45.98994" lon="4.71518">
        <ele>186</ele>
        <time>2018-06-26T08:46:29Z</time>
      </trkpt>
      <trkpt lat="45.98998" lon="4.71519">
        <ele>186</ele>
        <time>2018-06-26T08:46:30Z</time>
      </trkpt>
      <trkpt lat="45.99006" lon="4.71517">
        <ele>188</ele>
        <time>2018-06-26T08:46:32Z</time>
      </trkpt>
      <trkpt lat="45.99008" lon="4.71517">
        <ele>188</ele>
        <time>2018-06-26T08:46:33Z</time>
      </trkpt>
      <trkpt lat="45.99013" lon="4.71517">
        <ele>188</ele>
        <time>2018-06-26T08:46:35Z</time>
      </trkpt>
      <trkpt lat="45.99021" lon="4.71517">
        <ele>188</ele>
        <time>2018-06-26T08:46:36Z</time>
      </trkpt>
      <trkpt lat="45.99027" lon="4.71518">
        <ele>188</ele>
        <time>2018-06-26T08:46:38Z</time>
      </trkpt>
      <trkpt lat="45.99034" lon="4.7152">
        <ele>188</ele>
        <time>2018-06-26T08:46:39Z</time>
      </trkpt>
      <trkpt lat="45.99042" lon="4.7152">
        <ele>189</ele>
        <time>2018-06-26T08:46:41Z</time>
      </trkpt>
      <trkpt lat="45.99046" lon="4.7152">
        <ele>189</ele>
        <time>2018-06-26T08:46:42Z</time>
      </trkpt>
      <trkpt lat="45.99053" lon="4.7152">
        <ele>189</ele>
        <time>2018-06-26T08:46:44Z</time>
      </trkpt>
      <trkpt lat="45.99057" lon="4.71519">
        <ele>189</ele>
        <time>2018-06-26T08:46:45Z</time>
      </trkpt>
      <trkpt lat="45.99064" lon="4.71519">
        <ele>189</ele>
        <time>2018-06-26T08:46:47Z</time>
      </trkpt>
      <trkpt lat="45.9907" lon="4.71521">
        <ele>189</ele>
        <time>2018-06-26T08:46:48Z</time>
      </trkpt>
      <trkpt lat="45.99078" lon="4.7152">
        <ele>189</ele>
        <time>2018-06-26T08:46:51Z</time>
      </trkpt>
      <trkpt lat="45.99085" lon="4.71521">
        <ele>191</ele>
        <time>2018-06-26T08:46:52Z</time>
      </trkpt>
      <trkpt lat="45.99093" lon="4.71522">
        <ele>191</ele>
        <time>2018-06-26T08:46:54Z</time>
      </trkpt>
      <trkpt lat="45.99096" lon="4.71522">
        <ele>191</ele>
        <time>2018-06-26T08:46:55Z</time>
      </trkpt>
      <trkpt lat="45.99104" lon="4.71522">
        <ele>191</ele>
        <time>2018-06-26T08:46:57Z</time>
      </trkpt>
      <trkpt lat="45.99108" lon="4.71522">
        <ele>191</ele>
        <time>2018-06-26T08:46:58Z</time>
      </trkpt>
      <trkpt lat="45.99114" lon="4.71521">
        <ele>191</ele>
        <time>2018-06-26T08:47:01Z</time>
      </trkpt>
      <trkpt lat="45.99121" lon="4.71521">
        <ele>192</ele>
        <time>2018-06-26T08:47:02Z</time>
      </trkpt>
      <trkpt lat="45.99128" lon="4.7152">
        <ele>192</ele>
        <time>2018-06-26T08:47:06Z</time>
      </trkpt>
      <trkpt lat="45.9913" lon="4.7152">
        <ele>192</ele>
        <time>2018-06-26T08:47:07Z</time>
      </trkpt>
      <trkpt lat="45.99138" lon="4.71523">
        <ele>192</ele>
        <time>2018-06-26T08:47:37Z</time>
      </trkpt>
      <trkpt lat="45.99139" lon="4.71523">
        <ele>192</ele>
        <time>2018-06-26T08:47:38Z</time>
      </trkpt>
      <trkpt lat="45.99146" lon="4.71523">
        <ele>192</ele>
        <time>2018-06-26T08:47:40Z</time>
      </trkpt>
      <trkpt lat="45.99148" lon="4.71524">
        <ele>192</ele>
        <time>2018-06-26T08:47:41Z</time>
      </trkpt>
      <trkpt lat="45.99156" lon="4.71524">
        <ele>192</ele>
        <time>2018-06-26T08:47:45Z</time>
      </trkpt>
      <trkpt lat="45.99158" lon="4.71523">
        <ele>192</ele>
        <time>2018-06-26T08:47:46Z</time>
      </trkpt>
      <trkpt lat="45.99165" lon="4.71522">
        <ele>192</ele>
        <time>2018-06-26T08:47:49Z</time>
      </trkpt>
      <trkpt lat="45.99168" lon="4.71521">
        <ele>194</ele>
        <time>2018-06-26T08:47:50Z</time>
      </trkpt>
      <trkpt lat="45.99176" lon="4.71518">
        <ele>194</ele>
        <time>2018-06-26T08:47:51Z</time>
      </trkpt>
      <trkpt lat="45.99178" lon="4.71517">
        <ele>194</ele>
        <time>2018-06-26T08:47:52Z</time>
      </trkpt>
      <trkpt lat="45.99187" lon="4.71516">
        <ele>194</ele>
        <time>2018-06-26T08:47:54Z</time>
      </trkpt>
      <trkpt lat="45.99192" lon="4.71514">
        <ele>195</ele>
        <time>2018-06-26T08:47:55Z</time>
      </trkpt>
      <trkpt lat="45.99201" lon="4.71514">
        <ele>195</ele>
        <time>2018-06-26T08:47:57Z</time>
      </trkpt>
      <trkpt lat="45.99205" lon="4.71514">
        <ele>195</ele>
        <time>2018-06-26T08:47:58Z</time>
      </trkpt>
      <trkpt lat="45.99214" lon="4.71515">
        <ele>195</ele>
        <time>2018-06-26T08:48:00Z</time>
      </trkpt>
      <trkpt lat="45.99218" lon="4.71517">
        <ele>195</ele>
        <time>2018-06-26T08:48:01Z</time>
      </trkpt>
      <trkpt lat="45.99226" lon="4.71517">
        <ele>195</ele>
        <time>2018-06-26T08:48:03Z</time>
      </trkpt>
      <trkpt lat="45.99231" lon="4.71517">
        <ele>196</ele>
        <time>2018-06-26T08:48:04Z</time>
      </trkpt>
      <trkpt lat="45.99235" lon="4.71518">
        <ele>196</ele>
        <time>2018-06-26T08:48:05Z</time>
      </trkpt>
      <trkpt lat="45.9924" lon="4.71516">
        <ele>196</ele>
        <time>2018-06-26T08:48:06Z</time>
      </trkpt>
      <trkpt lat="45.99246" lon="4.71517">
        <ele>196</ele>
        <time>2018-06-26T08:48:07Z</time>
      </trkpt>
      <trkpt lat="45.99251" lon="4.71516">
        <ele>198</ele>
        <time>2018-06-26T08:48:08Z</time>
      </trkpt>
      <trkpt lat="45.99257" lon="4.71517">
        <ele>198</ele>
        <time>2018-06-26T08:48:09Z</time>
      </trkpt>
      <trkpt lat="45.99262" lon="4.71517">
        <ele>198</ele>
        <time>2018-06-26T08:48:10Z</time>
      </trkpt>
      <trkpt lat="45.99268" lon="4.71516">
        <ele>198</ele>
        <time>2018-06-26T08:48:11Z</time>
      </trkpt>
      <trkpt lat="45.99273" lon="4.71517">
        <ele>198</ele>
        <time>2018-06-26T08:48:12Z</time>
      </trkpt>
      <trkpt lat="45.99282" lon="4.71517">
        <ele>199</ele>
        <time>2018-06-26T08:48:14Z</time>
      </trkpt>
      <trkpt lat="45.99286" lon="4.71516">
        <ele>199</ele>
        <time>2018-06-26T08:48:15Z</time>
      </trkpt>
      <trkpt lat="45.99294" lon="4.71515">
        <ele>199</ele>
        <time>2018-06-26T08:48:17Z</time>
      </trkpt>
      <trkpt lat="45.99297" lon="4.71513">
        <ele>199</ele>
        <time>2018-06-26T08:48:18Z</time>
      </trkpt>
      <trkpt lat="45.99305" lon="4.71511">
        <ele>199</ele>
        <time>2018-06-26T08:48:20Z</time>
      </trkpt>
      <trkpt lat="45.9931" lon="4.71511">
        <ele>199</ele>
        <time>2018-06-26T08:48:21Z</time>
      </trkpt>
      <trkpt lat="45.99315" lon="4.71511">
        <ele>199</ele>
        <time>2018-06-26T08:48:22Z</time>
      </trkpt>
      <trkpt lat="45.9932" lon="4.71512">
        <ele>200</ele>
        <time>2018-06-26T08:48:23Z</time>
      </trkpt>
      <trkpt lat="45.99324" lon="4.71512">
        <ele>200</ele>
        <time>2018-06-26T08:48:24Z</time>
      </trkpt>
      <trkpt lat="45.99329" lon="4.71511">
        <ele>200</ele>
        <time>2018-06-26T08:48:25Z</time>
      </trkpt>
      <trkpt lat="45.99337" lon="4.71512">
        <ele>200</ele>
        <time>2018-06-26T08:48:27Z</time>
      </trkpt>
      <trkpt lat="45.99342" lon="4.7151">
        <ele>200</ele>
        <time>2018-06-26T08:48:28Z</time>
      </trkpt>
      <trkpt lat="45.9935" lon="4.71512">
        <ele>200</ele>
        <time>2018-06-26T08:48:30Z</time>
      </trkpt>
      <trkpt lat="45.99352" lon="4.71512">
        <ele>200</ele>
        <time>2018-06-26T08:48:31Z</time>
      </trkpt>
      <trkpt lat="45.99355" lon="4.71512">
        <ele>200</ele>
        <time>2018-06-26T08:48:32Z</time>
      </trkpt>
      <trkpt lat="45.99362" lon="4.71513">
        <ele>200</ele>
        <time>2018-06-26T08:48:33Z</time>
      </trkpt>
      <trkpt lat="45.99367" lon="4.71513">
        <ele>200</ele>
        <time>2018-06-26T08:48:34Z</time>
      </trkpt>
      <trkpt lat="45.99372" lon="4.71513">
        <ele>200</ele>
        <time>2018-06-26T08:48:35Z</time>
      </trkpt>
      <trkpt lat="45.9938" lon="4.71515">
        <ele>200</ele>
        <time>2018-06-26T08:48:37Z</time>
      </trkpt>
      <trkpt lat="45.99385" lon="4.71514">
        <ele>200</ele>
        <time>2018-06-26T08:48:38Z</time>
      </trkpt>
      <trkpt lat="45.99393" lon="4.71514">
        <ele>200</ele>
        <time>2018-06-26T08:48:40Z</time>
      </trkpt>
      <trkpt lat="45.99396" lon="4.71516">
        <ele>200</ele>
        <time>2018-06-26T08:48:41Z</time>
      </trkpt>
      <trkpt lat="45.99405" lon="4.71516">
        <ele>200</ele>
        <time>2018-06-26T08:48:43Z</time>
      </trkpt>
      <trkpt lat="45.99409" lon="4.71516">
        <ele>200</ele>
        <time>2018-06-26T08:48:44Z</time>
      </trkpt>
      <trkpt lat="45.99414" lon="4.71516">
        <ele>200</ele>
        <time>2018-06-26T08:48:45Z</time>
      </trkpt>
      <trkpt lat="45.99418" lon="4.71516">
        <ele>199</ele>
        <time>2018-06-26T08:48:46Z</time>
      </trkpt>
      <trkpt lat="45.99425" lon="4.71516">
        <ele>199</ele>
        <time>2018-06-26T08:48:47Z</time>
      </trkpt>
      <trkpt lat="45.99429" lon="4.71515">
        <ele>199</ele>
        <time>2018-06-26T08:48:48Z</time>
      </trkpt>
      <trkpt lat="45.99436" lon="4.71515">
        <ele>199</ele>
        <time>2018-06-26T08:48:50Z</time>
      </trkpt>
      <trkpt lat="45.99442" lon="4.71515">
        <ele>199</ele>
        <time>2018-06-26T08:48:51Z</time>
      </trkpt>
      <trkpt lat="45.99451" lon="4.71516">
        <ele>199</ele>
        <time>2018-06-26T08:48:53Z</time>
      </trkpt>
      <trkpt lat="45.99455" lon="4.71516">
        <ele>199</ele>
        <time>2018-06-26T08:48:54Z</time>
      </trkpt>
      <trkpt lat="45.99463" lon="4.71515">
        <ele>199</ele>
        <time>2018-06-26T08:48:56Z</time>
      </trkpt>
      <trkpt lat="45.99467" lon="4.71515">
        <ele>199</ele>
        <time>2018-06-26T08:48:57Z</time>
      </trkpt>
      <trkpt lat="45.99472" lon="4.71516">
        <ele>199</ele>
        <time>2018-06-26T08:48:58Z</time>
      </trkpt>
      <trkpt lat="45.99478" lon="4.71515">
        <ele>199</ele>
        <time>2018-06-26T08:48:59Z</time>
      </trkpt>
      <trkpt lat="45.99485" lon="4.71511">
        <ele>199</ele>
        <time>2018-06-26T08:49:00Z</time>
      </trkpt>
      <trkpt lat="45.99491" lon="4.71511">
        <ele>199</ele>
        <time>2018-06-26T08:49:01Z</time>
      </trkpt>
      <trkpt lat="45.99496" lon="4.7151">
        <ele>199</ele>
        <time>2018-06-26T08:49:02Z</time>
      </trkpt>
      <trkpt lat="45.99502" lon="4.71509">
        <ele>199</ele>
        <time>2018-06-26T08:49:03Z</time>
      </trkpt>
      <trkpt lat="45.9951" lon="4.7151">
        <ele>199</ele>
        <time>2018-06-26T08:49:05Z</time>
      </trkpt>
      <trkpt lat="45.99515" lon="4.71511">
        <ele>199</ele>
        <time>2018-06-26T08:49:06Z</time>
      </trkpt>
      <trkpt lat="45.99522" lon="4.71511">
        <ele>198</ele>
        <time>2018-06-26T08:49:08Z</time>
      </trkpt>
      <trkpt lat="45.99527" lon="4.7151">
        <ele>198</ele>
        <time>2018-06-26T08:49:09Z</time>
      </trkpt>
      <trkpt lat="45.99532" lon="4.7151">
        <ele>198</ele>
        <time>2018-06-26T08:49:10Z</time>
      </trkpt>
      <trkpt lat="45.99538" lon="4.71508">
        <ele>198</ele>
        <time>2018-06-26T08:49:11Z</time>
      </trkpt>
      <trkpt lat="45.99546" lon="4.71509">
        <ele>198</ele>
        <time>2018-06-26T08:49:13Z</time>
      </trkpt>
      <trkpt lat="45.99552" lon="4.71508">
        <ele>198</ele>
        <time>2018-06-26T08:49:14Z</time>
      </trkpt>
      <trkpt lat="45.99559" lon="4.71507">
        <ele>197</ele>
        <time>2018-06-26T08:49:15Z</time>
      </trkpt>
      <trkpt lat="45.99564" lon="4.71507">
        <ele>197</ele>
        <time>2018-06-26T08:49:16Z</time>
      </trkpt>
      <trkpt lat="45.9957" lon="4.71507">
        <ele>197</ele>
        <time>2018-06-26T08:49:17Z</time>
      </trkpt>
      <trkpt lat="45.99574" lon="4.71508">
        <ele>197</ele>
        <time>2018-06-26T08:49:18Z</time>
      </trkpt>
      <trkpt lat="45.99579" lon="4.71511">
        <ele>197</ele>
        <time>2018-06-26T08:49:19Z</time>
      </trkpt>
      <trkpt lat="45.99582" lon="4.71516">
        <ele>197</ele>
        <time>2018-06-26T08:49:20Z</time>
      </trkpt>
      <trkpt lat="45.99588" lon="4.71523">
        <ele>197</ele>
        <time>2018-06-26T08:49:22Z</time>
      </trkpt>
      <trkpt lat="45.99591" lon="4.71528">
        <ele>197</ele>
        <time>2018-06-26T08:49:23Z</time>
      </trkpt>
      <trkpt lat="45.99599" lon="4.71533">
        <ele>197</ele>
        <time>2018-06-26T08:49:25Z</time>
      </trkpt>
      <trkpt lat="45.99603" lon="4.71532">
        <ele>197</ele>
        <time>2018-06-26T08:49:26Z</time>
      </trkpt>
      <trkpt lat="45.9961" lon="4.71523">
        <ele>197</ele>
        <time>2018-06-26T08:49:28Z</time>
      </trkpt>
      <trkpt lat="45.9961" lon="4.71516">
        <ele>197</ele>
        <time>2018-06-26T08:49:29Z</time>
      </trkpt>
      <trkpt lat="45.9961" lon="4.71509">
        <ele>197</ele>
        <time>2018-06-26T08:49:30Z</time>
      </trkpt>
      <trkpt lat="45.99609" lon="4.71502">
        <ele>197</ele>
        <time>2018-06-26T08:49:31Z</time>
      </trkpt>
      <trkpt lat="45.99609" lon="4.71494">
        <ele>197</ele>
        <time>2018-06-26T08:49:32Z</time>
      </trkpt>
      <trkpt lat="45.99609" lon="4.71487">
        <ele>197</ele>
        <time>2018-06-26T08:49:33Z</time>
      </trkpt>
      <trkpt lat="45.9961" lon="4.7148">
        <ele>197</ele>
        <time>2018-06-26T08:49:34Z</time>
      </trkpt>
      <trkpt lat="45.99611" lon="4.71473">
        <ele>197</ele>
        <time>2018-06-26T08:49:35Z</time>
      </trkpt>
      <trkpt lat="45.99614" lon="4.71465">
        <ele>197</ele>
        <time>2018-06-26T08:49:36Z</time>
      </trkpt>
      <trkpt lat="45.99617" lon="4.71459">
        <ele>197</ele>
        <time>2018-06-26T08:49:37Z</time>
      </trkpt>
      <trkpt lat="45.9962" lon="4.71455">
        <ele>197</ele>
        <time>2018-06-26T08:49:38Z</time>
      </trkpt>
      <trkpt lat="45.99624" lon="4.71449">
        <ele>197</ele>
        <time>2018-06-26T08:49:39Z</time>
      </trkpt>
      <trkpt lat="45.99627" lon="4.71444">
        <ele>197</ele>
        <time>2018-06-26T08:49:40Z</time>
      </trkpt>
      <trkpt lat="45.9963" lon="4.71436">
        <ele>197</ele>
        <time>2018-06-26T08:49:41Z</time>
      </trkpt>
      <trkpt lat="45.99634" lon="4.7143">
        <ele>197</ele>
        <time>2018-06-26T08:49:42Z</time>
      </trkpt>
      <trkpt lat="45.99636" lon="4.71424">
        <ele>197</ele>
        <time>2018-06-26T08:49:43Z</time>
      </trkpt>
      <trkpt lat="45.99639" lon="4.71418">
        <ele>197</ele>
        <time>2018-06-26T08:49:44Z</time>
      </trkpt>
      <trkpt lat="45.99641" lon="4.71413">
        <ele>198</ele>
        <time>2018-06-26T08:49:45Z</time>
      </trkpt>
      <trkpt lat="45.99644" lon="4.71409">
        <ele>198</ele>
        <time>2018-06-26T08:49:46Z</time>
      </trkpt>
      <trkpt lat="45.99648" lon="4.71403">
        <ele>198</ele>
        <time>2018-06-26T08:49:47Z</time>
      </trkpt>
      <trkpt lat="45.99653" lon="4.71394">
        <ele>198</ele>
        <time>2018-06-26T08:49:49Z</time>
      </trkpt>
      <trkpt lat="45.99655" lon="4.71389">
        <ele>198</ele>
        <time>2018-06-26T08:49:50Z</time>
      </trkpt>
      <trkpt lat="45.99658" lon="4.71383">
        <ele>198</ele>
        <time>2018-06-26T08:49:51Z</time>
      </trkpt>
      <trkpt lat="45.9966" lon="4.71378">
        <ele>198</ele>
        <time>2018-06-26T08:49:52Z</time>
      </trkpt>
      <trkpt lat="45.99665" lon="4.71369">
        <ele>197</ele>
        <time>2018-06-26T08:49:54Z</time>
      </trkpt>
      <trkpt lat="45.99667" lon="4.71362">
        <ele>197</ele>
        <time>2018-06-26T08:49:55Z</time>
      </trkpt>
      <trkpt lat="45.99671" lon="4.71353">
        <ele>197</ele>
        <time>2018-06-26T08:49:56Z</time>
      </trkpt>
      <trkpt lat="45.99674" lon="4.71347">
        <ele>197</ele>
        <time>2018-06-26T08:49:57Z</time>
      </trkpt>
      <trkpt lat="45.99678" lon="4.71342">
        <ele>197</ele>
        <time>2018-06-26T08:49:58Z</time>
      </trkpt>
      <trkpt lat="45.99681" lon="4.71335">
        <ele>197</ele>
        <time>2018-06-26T08:49:59Z</time>
      </trkpt>
      <trkpt lat="45.99684" lon="4.7133">
        <ele>197</ele>
        <time>2018-06-26T08:50:00Z</time>
      </trkpt>
      <trkpt lat="45.99687" lon="4.71324">
        <ele>197</ele>
        <time>2018-06-26T08:50:01Z</time>
      </trkpt>
      <trkpt lat="45.9969" lon="4.71317">
        <ele>198</ele>
        <time>2018-06-26T08:50:02Z</time>
      </trkpt>
      <trkpt lat="45.99693" lon="4.71312">
        <ele>198</ele>
        <time>2018-06-26T08:50:03Z</time>
      </trkpt>
      <trkpt lat="45.99697" lon="4.71305">
        <ele>198</ele>
        <time>2018-06-26T08:50:04Z</time>
      </trkpt>
      <trkpt lat="45.997" lon="4.71299">
        <ele>198</ele>
        <time>2018-06-26T08:50:05Z</time>
      </trkpt>
      <trkpt lat="45.99704" lon="4.71294">
        <ele>198</ele>
        <time>2018-06-26T08:50:06Z</time>
      </trkpt>
      <trkpt lat="45.99708" lon="4.71286">
        <ele>198</ele>
        <time>2018-06-26T08:50:07Z</time>
      </trkpt>
      <trkpt lat="45.99711" lon="4.7128">
        <ele>198</ele>
        <time>2018-06-26T08:50:08Z</time>
      </trkpt>
      <trkpt lat="45.99714" lon="4.71274">
        <ele>198</ele>
        <time>2018-06-26T08:50:09Z</time>
      </trkpt>
      <trkpt lat="45.99717" lon="4.71268">
        <ele>198</ele>
        <time>2018-06-26T08:50:10Z</time>
      </trkpt>
      <trkpt lat="45.99721" lon="4.71263">
        <ele>198</ele>
        <time>2018-06-26T08:50:11Z</time>
      </trkpt>
      <trkpt lat="45.99724" lon="4.71258">
        <ele>198</ele>
        <time>2018-06-26T08:50:12Z</time>
      </trkpt>
      <trkpt lat="45.99727" lon="4.71253">
        <ele>198</ele>
        <time>2018-06-26T08:50:13Z</time>
      </trkpt>
      <trkpt lat="45.99731" lon="4.71245">
        <ele>198</ele>
        <time>2018-06-26T08:50:14Z</time>
      </trkpt>
      <trkpt lat="45.99734" lon="4.7124">
        <ele>198</ele>
        <time>2018-06-26T08:50:15Z</time>
      </trkpt>
      <trkpt lat="45.99739" lon="4.71232">
        <ele>198</ele>
        <time>2018-06-26T08:50:17Z</time>
      </trkpt>
      <trkpt lat="45.99743" lon="4.71226">
        <ele>198</ele>
        <time>2018-06-26T08:50:18Z</time>
      </trkpt>
      <trkpt lat="45.99748" lon="4.71216">
        <ele>198</ele>
        <time>2018-06-26T08:50:20Z</time>
      </trkpt>
      <trkpt lat="45.9975" lon="4.7121">
        <ele>199</ele>
        <time>2018-06-26T08:50:21Z</time>
      </trkpt>
      <trkpt lat="45.99753" lon="4.71203">
        <ele>198</ele>
        <time>2018-06-26T08:50:23Z</time>
      </trkpt>
      <trkpt lat="45.99757" lon="4.71196">
        <ele>198</ele>
        <time>2018-06-26T08:50:24Z</time>
      </trkpt>
      <trkpt lat="45.99761" lon="4.71188">
        <ele>198</ele>
        <time>2018-06-26T08:50:26Z</time>
      </trkpt>
      <trkpt lat="45.99763" lon="4.71183">
        <ele>198</ele>
        <time>2018-06-26T08:50:27Z</time>
      </trkpt>
      <trkpt lat="45.99768" lon="4.71173">
        <ele>198</ele>
        <time>2018-06-26T08:50:29Z</time>
      </trkpt>
      <trkpt lat="45.9977" lon="4.71169">
        <ele>198</ele>
        <time>2018-06-26T08:50:30Z</time>
      </trkpt>
      <trkpt lat="45.99774" lon="4.71161">
        <ele>198</ele>
        <time>2018-06-26T08:50:33Z</time>
      </trkpt>
      <trkpt lat="45.99776" lon="4.71158">
        <ele>198</ele>
        <time>2018-06-26T08:50:34Z</time>
      </trkpt>
      <trkpt lat="45.99781" lon="4.71149">
        <ele>198</ele>
        <time>2018-06-26T08:50:37Z</time>
      </trkpt>
      <trkpt lat="45.99786" lon="4.71141">
        <ele>198</ele>
        <time>2018-06-26T08:50:38Z</time>
      </trkpt>
      <trkpt lat="45.9979" lon="4.7113">
        <ele>198</ele>
        <time>2018-06-26T08:50:40Z</time>
      </trkpt>
      <trkpt lat="45.99792" lon="4.71123">
        <ele>198</ele>
        <time>2018-06-26T08:50:41Z</time>
      </trkpt>
      <trkpt lat="45.99794" lon="4.71117">
        <ele>198</ele>
        <time>2018-06-26T08:50:42Z</time>
      </trkpt>
      <trkpt lat="45.99796" lon="4.71109">
        <ele>198</ele>
        <time>2018-06-26T08:50:43Z</time>
      </trkpt>
      <trkpt lat="45.99797" lon="4.71102">
        <ele>198</ele>
        <time>2018-06-26T08:50:44Z</time>
      </trkpt>
      <trkpt lat="45.99799" lon="4.71095">
        <ele>198</ele>
        <time>2018-06-26T08:50:45Z</time>
      </trkpt>
      <trkpt lat="45.99801" lon="4.71087">
        <ele>198</ele>
        <time>2018-06-26T08:50:46Z</time>
      </trkpt>
      <trkpt lat="45.99803" lon="4.7108">
        <ele>199</ele>
        <time>2018-06-26T08:50:47Z</time>
      </trkpt>
      <trkpt lat="45.99805" lon="4.71073">
        <ele>199</ele>
        <time>2018-06-26T08:50:48Z</time>
      </trkpt>
      <trkpt lat="45.99807" lon="4.71066">
        <ele>199</ele>
        <time>2018-06-26T08:50:49Z</time>
      </trkpt>
      <trkpt lat="45.99808" lon="4.71059">
        <ele>199</ele>
        <time>2018-06-26T08:50:50Z</time>
      </trkpt>
      <trkpt lat="45.9981" lon="4.71051">
        <ele>199</ele>
        <time>2018-06-26T08:50:51Z</time>
      </trkpt>
      <trkpt lat="45.9981" lon="4.71043">
        <ele>199</ele>
        <time>2018-06-26T08:50:52Z</time>
      </trkpt>
      <trkpt lat="45.99811" lon="4.71035">
        <ele>199</ele>
        <time>2018-06-26T08:50:53Z</time>
      </trkpt>
      <trkpt lat="45.99812" lon="4.71028">
        <ele>199</ele>
        <time>2018-06-26T08:50:54Z</time>
      </trkpt>
      <trkpt lat="45.99814" lon="4.7102">
        <ele>199</ele>
        <time>2018-06-26T08:50:55Z</time>
      </trkpt>
      <trkpt lat="45.99816" lon="4.71014">
        <ele>200</ele>
        <time>2018-06-26T08:50:56Z</time>
      </trkpt>
      <trkpt lat="45.99817" lon="4.71005">
        <ele>200</ele>
        <time>2018-06-26T08:50:57Z</time>
      </trkpt>
      <trkpt lat="45.99818" lon="4.70996">
        <ele>200</ele>
        <time>2018-06-26T08:50:58Z</time>
      </trkpt>
      <trkpt lat="45.9982" lon="4.70986">
        <ele>200</ele>
        <time>2018-06-26T08:50:59Z</time>
      </trkpt>
      <trkpt lat="45.99822" lon="4.70978">
        <ele>200</ele>
        <time>2018-06-26T08:51:00Z</time>
      </trkpt>
      <trkpt lat="45.99822" lon="4.7097">
        <ele>200</ele>
        <time>2018-06-26T08:51:01Z</time>
      </trkpt>
      <trkpt lat="45.99823" lon="4.70963">
        <ele>200</ele>
        <time>2018-06-26T08:51:02Z</time>
      </trkpt>
      <trkpt lat="45.99824" lon="4.70955">
        <ele>199</ele>
        <time>2018-06-26T08:51:03Z</time>
      </trkpt>
      <trkpt lat="45.99825" lon="4.70948">
        <ele>199</ele>
        <time>2018-06-26T08:51:04Z</time>
      </trkpt>
      <trkpt lat="45.99827" lon="4.7094">
        <ele>199</ele>
        <time>2018-06-26T08:51:05Z</time>
      </trkpt>
      <trkpt lat="45.99829" lon="4.70933">
        <ele>199</ele>
        <time>2018-06-26T08:51:06Z</time>
      </trkpt>
      <trkpt lat="45.99831" lon="4.70926">
        <ele>199</ele>
        <time>2018-06-26T08:51:07Z</time>
      </trkpt>
      <trkpt lat="45.99831" lon="4.70918">
        <ele>199</ele>
        <time>2018-06-26T08:51:08Z</time>
      </trkpt>
      <trkpt lat="45.99832" lon="4.7091">
        <ele>199</ele>
        <time>2018-06-26T08:51:09Z</time>
      </trkpt>
      <trkpt lat="45.99834" lon="4.70902">
        <ele>199</ele>
        <time>2018-06-26T08:51:10Z</time>
      </trkpt>
      <trkpt lat="45.99836" lon="4.70894">
        <ele>199</ele>
        <time>2018-06-26T08:51:11Z</time>
      </trkpt>
      <trkpt lat="45.99837" lon="4.70887">
        <ele>199</ele>
        <time>2018-06-26T08:51:12Z</time>
      </trkpt>
      <trkpt lat="45.99839" lon="4.70879">
        <ele>200</ele>
        <time>2018-06-26T08:51:13Z</time>
      </trkpt>
      <trkpt lat="45.9984" lon="4.70872">
        <ele>200</ele>
        <time>2018-06-26T08:51:14Z</time>
      </trkpt>
      <trkpt lat="45.99841" lon="4.70865">
        <ele>200</ele>
        <time>2018-06-26T08:51:15Z</time>
      </trkpt>
      <trkpt lat="45.99843" lon="4.70858">
        <ele>200</ele>
        <time>2018-06-26T08:51:16Z</time>
      </trkpt>
      <trkpt lat="45.99844" lon="4.7085">
        <ele>201</ele>
        <time>2018-06-26T08:51:17Z</time>
      </trkpt>
      <trkpt lat="45.99845" lon="4.70843">
        <ele>201</ele>
        <time>2018-06-26T08:51:18Z</time>
      </trkpt>
      <trkpt lat="45.99847" lon="4.70835">
        <ele>201</ele>
        <time>2018-06-26T08:51:19Z</time>
      </trkpt>
      <trkpt lat="45.99847" lon="4.70828">
        <ele>201</ele>
        <time>2018-06-26T08:51:20Z</time>
      </trkpt>
      <trkpt lat="45.99849" lon="4.70821">
        <ele>201</ele>
        <time>2018-06-26T08:51:21Z</time>
      </trkpt>
      <trkpt lat="45.99851" lon="4.70814">
        <ele>201</ele>
        <time>2018-06-26T08:51:22Z</time>
      </trkpt>
      <trkpt lat="45.99852" lon="4.70806">
        <ele>201</ele>
        <time>2018-06-26T08:51:23Z</time>
      </trkpt>
      <trkpt lat="45.99855" lon="4.70797">
        <ele>201</ele>
        <time>2018-06-26T08:51:24Z</time>
      </trkpt>
      <trkpt lat="45.99857" lon="4.7079">
        <ele>200</ele>
        <time>2018-06-26T08:51:25Z</time>
      </trkpt>
      <trkpt lat="45.99858" lon="4.70783">
        <ele>200</ele>
        <time>2018-06-26T08:51:26Z</time>
      </trkpt>
      <trkpt lat="45.9986" lon="4.70773">
        <ele>200</ele>
        <time>2018-06-26T08:51:27Z</time>
      </trkpt>
      <trkpt lat="45.99862" lon="4.70765">
        <ele>200</ele>
        <time>2018-06-26T08:51:28Z</time>
      </trkpt>
      <trkpt lat="45.99863" lon="4.70758">
        <ele>200</ele>
        <time>2018-06-26T08:51:29Z</time>
      </trkpt>
      <trkpt lat="45.99864" lon="4.7075">
        <ele>200</ele>
        <time>2018-06-26T08:51:30Z</time>
      </trkpt>
      <trkpt lat="45.99866" lon="4.70741">
        <ele>200</ele>
        <time>2018-06-26T08:51:31Z</time>
      </trkpt>
      <trkpt lat="45.99867" lon="4.70734">
        <ele>200</ele>
        <time>2018-06-26T08:51:32Z</time>
      </trkpt>
      <trkpt lat="45.99867" lon="4.70726">
        <ele>200</ele>
        <time>2018-06-26T08:51:33Z</time>
      </trkpt>
      <trkpt lat="45.99868" lon="4.70719">
        <ele>200</ele>
        <time>2018-06-26T08:51:34Z</time>
      </trkpt>
      <trkpt lat="45.99871" lon="4.70712">
        <ele>200</ele>
        <time>2018-06-26T08:51:35Z</time>
      </trkpt>
      <trkpt lat="45.99872" lon="4.70705">
        <ele>200</ele>
        <time>2018-06-26T08:51:36Z</time>
      </trkpt>
      <trkpt lat="45.99873" lon="4.70698">
        <ele>200</ele>
        <time>2018-06-26T08:51:37Z</time>
      </trkpt>
      <trkpt lat="45.99876" lon="4.70686">
        <ele>200</ele>
        <time>2018-06-26T08:51:39Z</time>
      </trkpt>
      <trkpt lat="45.99878" lon="4.70681">
        <ele>200</ele>
        <time>2018-06-26T08:51:40Z</time>
      </trkpt>
      <trkpt lat="45.9988" lon="4.70671">
        <ele>200</ele>
        <time>2018-06-26T08:51:44Z</time>
      </trkpt>
      <trkpt lat="45.99881" lon="4.70669">
        <ele>200</ele>
        <time>2018-06-26T08:51:45Z</time>
      </trkpt>
      <trkpt lat="45.99885" lon="4.70659">
        <ele>200</ele>
        <time>2018-06-26T08:51:49Z</time>
      </trkpt>
      <trkpt lat="45.99892" lon="4.70652">
        <ele>200</ele>
        <time>2018-06-26T08:51:50Z</time>
      </trkpt>
      <trkpt lat="45.99896" lon="4.7065">
        <ele>200</ele>
        <time>2018-06-26T08:51:51Z</time>
      </trkpt>
      <trkpt lat="45.99901" lon="4.70649">
        <ele>200</ele>
        <time>2018-06-26T08:51:52Z</time>
      </trkpt>
      <trkpt lat="45.99906" lon="4.70648">
        <ele>200</ele>
        <time>2018-06-26T08:51:53Z</time>
      </trkpt>
      <trkpt lat="45.99911" lon="4.70646">
        <ele>200</ele>
        <time>2018-06-26T08:51:54Z</time>
      </trkpt>
      <trkpt lat="45.99918" lon="4.70644">
        <ele>199</ele>
        <time>2018-06-26T08:51:55Z</time>
      </trkpt>
      <trkpt lat="45.99924" lon="4.70642">
        <ele>199</ele>
        <time>2018-06-26T08:51:56Z</time>
      </trkpt>
      <trkpt lat="45.99931" lon="4.70641">
        <ele>199</ele>
        <time>2018-06-26T08:51:57Z</time>
      </trkpt>
      <trkpt lat="45.99934" lon="4.7064">
        <ele>199</ele>
        <time>2018-06-26T08:51:58Z</time>
      </trkpt>
      <trkpt lat="45.99939" lon="4.70638">
        <ele>199</ele>
        <time>2018-06-26T08:51:59Z</time>
      </trkpt>
      <trkpt lat="45.99944" lon="4.70637">
        <ele>199</ele>
        <time>2018-06-26T08:52:00Z</time>
      </trkpt>
      <trkpt lat="45.99949" lon="4.70636">
        <ele>199</ele>
        <time>2018-06-26T08:52:01Z</time>
      </trkpt>
      <trkpt lat="45.99952" lon="4.70635">
        <ele>199</ele>
        <time>2018-06-26T08:52:02Z</time>
      </trkpt>
      <trkpt lat="45.99959" lon="4.70634">
        <ele>199</ele>
        <time>2018-06-26T08:52:03Z</time>
      </trkpt>
      <trkpt lat="45.99965" lon="4.70633">
        <ele>199</ele>
        <time>2018-06-26T08:52:04Z</time>
      </trkpt>
      <trkpt lat="45.99971" lon="4.70631">
        <ele>199</ele>
        <time>2018-06-26T08:52:05Z</time>
      </trkpt>
      <trkpt lat="45.99975" lon="4.70631">
        <ele>199</ele>
        <time>2018-06-26T08:52:06Z</time>
      </trkpt>
      <trkpt lat="45.99979" lon="4.7063">
        <ele>199</ele>
        <time>2018-06-26T08:52:07Z</time>
      </trkpt>
      <trkpt lat="45.99985" lon="4.70629">
        <ele>199</ele>
        <time>2018-06-26T08:52:08Z</time>
      </trkpt>
      <trkpt lat="45.9999" lon="4.70627">
        <ele>199</ele>
        <time>2018-06-26T08:52:09Z</time>
      </trkpt>
      <trkpt lat="45.99996" lon="4.70626">
        <ele>199</ele>
        <time>2018-06-26T08:52:10Z</time>
      </trkpt>
      <trkpt lat="46" lon="4.70625">
        <ele>199</ele>
        <time>2018-06-26T08:52:11Z</time>
      </trkpt>
      <trkpt lat="46.00005" lon="4.70624">
        <ele>199</ele>
        <time>2018-06-26T08:52:12Z</time>
      </trkpt>
      <trkpt lat="46.00011" lon="4.70622">
        <ele>199</ele>
        <time>2018-06-26T08:52:13Z</time>
      </trkpt>
      <trkpt lat="46.0002" lon="4.70621">
        <ele>199</ele>
        <time>2018-06-26T08:52:14Z</time>
      </trkpt>
      <trkpt lat="46.00025" lon="4.70621">
        <ele>199</ele>
        <time>2018-06-26T08:52:15Z</time>
      </trkpt>
      <trkpt lat="46.00031" lon="4.70618">
        <ele>199</ele>
        <time>2018-06-26T08:52:16Z</time>
      </trkpt>
      <trkpt lat="46.00037" lon="4.70617">
        <ele>199</ele>
        <time>2018-06-26T08:52:17Z</time>
      </trkpt>
      <trkpt lat="46.00042" lon="4.70617">
        <ele>199</ele>
        <time>2018-06-26T08:52:18Z</time>
      </trkpt>
      <trkpt lat="46.00047" lon="4.70615">
        <ele>198</ele>
        <time>2018-06-26T08:52:19Z</time>
      </trkpt>
      <trkpt lat="46.00052" lon="4.70614">
        <ele>198</ele>
        <time>2018-06-26T08:52:20Z</time>
      </trkpt>
      <trkpt lat="46.00057" lon="4.70612">
        <ele>198</ele>
        <time>2018-06-26T08:52:21Z</time>
      </trkpt>
      <trkpt lat="46.00062" lon="4.70612">
        <ele>198</ele>
        <time>2018-06-26T08:52:22Z</time>
      </trkpt>
      <trkpt lat="46.00068" lon="4.7061">
        <ele>198</ele>
        <time>2018-06-26T08:52:23Z</time>
      </trkpt>
      <trkpt lat="46.00074" lon="4.70608">
        <ele>198</ele>
        <time>2018-06-26T08:52:24Z</time>
      </trkpt>
      <trkpt lat="46.00079" lon="4.70607">
        <ele>198</ele>
        <time>2018-06-26T08:52:25Z</time>
      </trkpt>
      <trkpt lat="46.00086" lon="4.70604">
        <ele>198</ele>
        <time>2018-06-26T08:52:26Z</time>
      </trkpt>
      <trkpt lat="46.0009" lon="4.70601">
        <ele>198</ele>
        <time>2018-06-26T08:52:27Z</time>
      </trkpt>
      <trkpt lat="46.00097" lon="4.70597">
        <ele>198</ele>
        <time>2018-06-26T08:52:28Z</time>
      </trkpt>
      <trkpt lat="46.00102" lon="4.70593">
        <ele>198</ele>
        <time>2018-06-26T08:52:29Z</time>
      </trkpt>
      <trkpt lat="46.00105" lon="4.70591">
        <ele>198</ele>
        <time>2018-06-26T08:52:30Z</time>
      </trkpt>
      <trkpt lat="46.0011" lon="4.70587">
        <ele>198</ele>
        <time>2018-06-26T08:52:31Z</time>
      </trkpt>
      <trkpt lat="46.00115" lon="4.70582">
        <ele>198</ele>
        <time>2018-06-26T08:52:32Z</time>
      </trkpt>
      <trkpt lat="46.00119" lon="4.7058">
        <ele>198</ele>
        <time>2018-06-26T08:52:33Z</time>
      </trkpt>
      <trkpt lat="46.00123" lon="4.70576">
        <ele>198</ele>
        <time>2018-06-26T08:52:34Z</time>
      </trkpt>
      <trkpt lat="46.00127" lon="4.70572">
        <ele>198</ele>
        <time>2018-06-26T08:52:35Z</time>
      </trkpt>
      <trkpt lat="46.00131" lon="4.70568">
        <ele>198</ele>
        <time>2018-06-26T08:52:36Z</time>
      </trkpt>
      <trkpt lat="46.00136" lon="4.70564">
        <ele>198</ele>
        <time>2018-06-26T08:52:37Z</time>
      </trkpt>
      <trkpt lat="46.00141" lon="4.70561">
        <ele>198</ele>
        <time>2018-06-26T08:52:38Z</time>
      </trkpt>
      <trkpt lat="46.00146" lon="4.70559">
        <ele>198</ele>
        <time>2018-06-26T08:52:39Z</time>
      </trkpt>
      <trkpt lat="46.00151" lon="4.70558">
        <ele>198</ele>
        <time>2018-06-26T08:52:40Z</time>
      </trkpt>
      <trkpt lat="46.00155" lon="4.70555">
        <ele>198</ele>
        <time>2018-06-26T08:52:41Z</time>
      </trkpt>
      <trkpt lat="46.00159" lon="4.70552">
        <ele>198</ele>
        <time>2018-06-26T08:52:42Z</time>
      </trkpt>
      <trkpt lat="46.00164" lon="4.70549">
        <ele>198</ele>
        <time>2018-06-26T08:52:43Z</time>
      </trkpt>
      <trkpt lat="46.00168" lon="4.70545">
        <ele>198</ele>
        <time>2018-06-26T08:52:44Z</time>
      </trkpt>
      <trkpt lat="46.00173" lon="4.70543">
        <ele>198</ele>
        <time>2018-06-26T08:52:45Z</time>
      </trkpt>
      <trkpt lat="46.0018" lon="4.7054">
        <ele>198</ele>
        <time>2018-06-26T08:52:46Z</time>
      </trkpt>
      <trkpt lat="46.00187" lon="4.7054">
        <ele>198</ele>
        <time>2018-06-26T08:52:47Z</time>
      </trkpt>
      <trkpt lat="46.00191" lon="4.7054">
        <ele>198</ele>
        <time>2018-06-26T08:52:48Z</time>
      </trkpt>
      <trkpt lat="46.00198" lon="4.70541">
        <ele>198</ele>
        <time>2018-06-26T08:52:49Z</time>
      </trkpt>
      <trkpt lat="46.00202" lon="4.70541">
        <ele>198</ele>
        <time>2018-06-26T08:52:50Z</time>
      </trkpt>
      <trkpt lat="46.00208" lon="4.70539">
        <ele>198</ele>
        <time>2018-06-26T08:52:51Z</time>
      </trkpt>
      <trkpt lat="46.00215" lon="4.70538">
        <ele>198</ele>
        <time>2018-06-26T08:52:52Z</time>
      </trkpt>
      <trkpt lat="46.00219" lon="4.70536">
        <ele>198</ele>
        <time>2018-06-26T08:52:53Z</time>
      </trkpt>
      <trkpt lat="46.00225" lon="4.70534">
        <ele>198</ele>
        <time>2018-06-26T08:52:54Z</time>
      </trkpt>
      <trkpt lat="46.00231" lon="4.70532">
        <ele>198</ele>
        <time>2018-06-26T08:52:55Z</time>
      </trkpt>
      <trkpt lat="46.00236" lon="4.70529">
        <ele>198</ele>
        <time>2018-06-26T08:52:56Z</time>
      </trkpt>
      <trkpt lat="46.00242" lon="4.70527">
        <ele>198</ele>
        <time>2018-06-26T08:52:57Z</time>
      </trkpt>
      <trkpt lat="46.00247" lon="4.70525">
        <ele>198</ele>
        <time>2018-06-26T08:52:58Z</time>
      </trkpt>
      <trkpt lat="46.00253" lon="4.70523">
        <ele>197</ele>
        <time>2018-06-26T08:52:59Z</time>
      </trkpt>
      <trkpt lat="46.00259" lon="4.70522">
        <ele>197</ele>
        <time>2018-06-26T08:53:00Z</time>
      </trkpt>
      <trkpt lat="46.00265" lon="4.7052">
        <ele>197</ele>
        <time>2018-06-26T08:53:01Z</time>
      </trkpt>
      <trkpt lat="46.00272" lon="4.70519">
        <ele>197</ele>
        <time>2018-06-26T08:53:02Z</time>
      </trkpt>
      <trkpt lat="46.00278" lon="4.70518">
        <ele>197</ele>
        <time>2018-06-26T08:53:03Z</time>
      </trkpt>
      <trkpt lat="46.00284" lon="4.70517">
        <ele>197</ele>
        <time>2018-06-26T08:53:04Z</time>
      </trkpt>
      <trkpt lat="46.0029" lon="4.70516">
        <ele>197</ele>
        <time>2018-06-26T08:53:05Z</time>
      </trkpt>
      <trkpt lat="46.00296" lon="4.70514">
        <ele>197</ele>
        <time>2018-06-26T08:53:06Z</time>
      </trkpt>
      <trkpt lat="46.00302" lon="4.70513">
        <ele>197</ele>
        <time>2018-06-26T08:53:07Z</time>
      </trkpt>
      <trkpt lat="46.00308" lon="4.70511">
        <ele>197</ele>
        <time>2018-06-26T08:53:08Z</time>
      </trkpt>
      <trkpt lat="46.00315" lon="4.70509">
        <ele>197</ele>
        <time>2018-06-26T08:53:09Z</time>
      </trkpt>
      <trkpt lat="46.00321" lon="4.70509">
        <ele>198</ele>
        <time>2018-06-26T08:53:10Z</time>
      </trkpt>
      <trkpt lat="46.00327" lon="4.70508">
        <ele>198</ele>
        <time>2018-06-26T08:53:11Z</time>
      </trkpt>
      <trkpt lat="46.00334" lon="4.70505">
        <ele>198</ele>
        <time>2018-06-26T08:53:12Z</time>
      </trkpt>
      <trkpt lat="46.00339" lon="4.70504">
        <ele>198</ele>
        <time>2018-06-26T08:53:13Z</time>
      </trkpt>
      <trkpt lat="46.00345" lon="4.70501">
        <ele>198</ele>
        <time>2018-06-26T08:53:14Z</time>
      </trkpt>
      <trkpt lat="46.00352" lon="4.70499">
        <ele>199</ele>
        <time>2018-06-26T08:53:15Z</time>
      </trkpt>
      <trkpt lat="46.00358" lon="4.70498">
        <ele>200</ele>
        <time>2018-06-26T08:53:16Z</time>
      </trkpt>
      <trkpt lat="46.00364" lon="4.70497">
        <ele>200</ele>
        <time>2018-06-26T08:53:17Z</time>
      </trkpt>
      <trkpt lat="46.0037" lon="4.70495">
        <ele>200</ele>
        <time>2018-06-26T08:53:18Z</time>
      </trkpt>
      <trkpt lat="46.00377" lon="4.70495">
        <ele>200</ele>
        <time>2018-06-26T08:53:19Z</time>
      </trkpt>
      <trkpt lat="46.00383" lon="4.70494">
        <ele>200</ele>
        <time>2018-06-26T08:53:20Z</time>
      </trkpt>
      <trkpt lat="46.00388" lon="4.70494">
        <ele>200</ele>
        <time>2018-06-26T08:53:21Z</time>
      </trkpt>
      <trkpt lat="46.00394" lon="4.70494">
        <ele>200</ele>
        <time>2018-06-26T08:53:22Z</time>
      </trkpt>
      <trkpt lat="46.004" lon="4.70494">
        <ele>200</ele>
        <time>2018-06-26T08:53:23Z</time>
      </trkpt>
      <trkpt lat="46.00407" lon="4.70495">
        <ele>200</ele>
        <time>2018-06-26T08:53:24Z</time>
      </trkpt>
      <trkpt lat="46.00413" lon="4.70495">
        <ele>200</ele>
        <time>2018-06-26T08:53:25Z</time>
      </trkpt>
      <trkpt lat="46.00419" lon="4.70496">
        <ele>201</ele>
        <time>2018-06-26T08:53:26Z</time>
      </trkpt>
      <trkpt lat="46.00425" lon="4.70496">
        <ele>201</ele>
        <time>2018-06-26T08:53:27Z</time>
      </trkpt>
      <trkpt lat="46.0043" lon="4.70497">
        <ele>201</ele>
        <time>2018-06-26T08:53:28Z</time>
      </trkpt>
      <trkpt lat="46.00435" lon="4.70497">
        <ele>202</ele>
        <time>2018-06-26T08:53:29Z</time>
      </trkpt>
      <trkpt lat="46.0044" lon="4.70497">
        <ele>202</ele>
        <time>2018-06-26T08:53:30Z</time>
      </trkpt>
      <trkpt lat="46.00446" lon="4.70498">
        <ele>202</ele>
        <time>2018-06-26T08:53:31Z</time>
      </trkpt>
      <trkpt lat="46.00451" lon="4.705">
        <ele>201</ele>
        <time>2018-06-26T08:53:32Z</time>
      </trkpt>
      <trkpt lat="46.00455" lon="4.70504">
        <ele>201</ele>
        <time>2018-06-26T08:53:33Z</time>
      </trkpt>
      <trkpt lat="46.00459" lon="4.70507">
        <ele>201</ele>
        <time>2018-06-26T08:53:34Z</time>
      </trkpt>
      <trkpt lat="46.00462" lon="4.70512">
        <ele>201</ele>
        <time>2018-06-26T08:53:35Z</time>
      </trkpt>
      <trkpt lat="46.00464" lon="4.70518">
        <ele>201</ele>
        <time>2018-06-26T08:53:36Z</time>
      </trkpt>
      <trkpt lat="46.00467" lon="4.70525">
        <ele>201</ele>
        <time>2018-06-26T08:53:37Z</time>
      </trkpt>
      <trkpt lat="46.0047" lon="4.7053">
        <ele>201</ele>
        <time>2018-06-26T08:53:38Z</time>
      </trkpt>
      <trkpt lat="46.00472" lon="4.70537">
        <ele>201</ele>
        <time>2018-06-26T08:53:39Z</time>
      </trkpt>
      <trkpt lat="46.00475" lon="4.70541">
        <ele>201</ele>
        <time>2018-06-26T08:53:40Z</time>
      </trkpt>
      <trkpt lat="46.00479" lon="4.70545">
        <ele>201</ele>
        <time>2018-06-26T08:53:41Z</time>
      </trkpt>
      <trkpt lat="46.00484" lon="4.70546">
        <ele>201</ele>
        <time>2018-06-26T08:53:42Z</time>
      </trkpt>
      <trkpt lat="46.00491" lon="4.70542">
        <ele>201</ele>
        <time>2018-06-26T08:53:44Z</time>
      </trkpt>
      <trkpt lat="46.00495" lon="4.70538">
        <ele>201</ele>
        <time>2018-06-26T08:53:45Z</time>
      </trkpt>
      <trkpt lat="46.00499" lon="4.7053">
        <ele>201</ele>
        <time>2018-06-26T08:53:46Z</time>
      </trkpt>
      <trkpt lat="46.00502" lon="4.70525">
        <ele>203</ele>
        <time>2018-06-26T08:53:47Z</time>
      </trkpt>
      <trkpt lat="46.00504" lon="4.70517">
        <ele>204</ele>
        <time>2018-06-26T08:53:48Z</time>
      </trkpt>
      <trkpt lat="46.00507" lon="4.70513">
        <ele>204</ele>
        <time>2018-06-26T08:53:49Z</time>
      </trkpt>
      <trkpt lat="46.00511" lon="4.70512">
        <ele>204</ele>
        <time>2018-06-26T08:53:50Z</time>
      </trkpt>
      <trkpt lat="46.00517" lon="4.70511">
        <ele>204</ele>
        <time>2018-06-26T08:53:51Z</time>
      </trkpt>
      <trkpt lat="46.00522" lon="4.70512">
        <ele>204</ele>
        <time>2018-06-26T08:53:52Z</time>
      </trkpt>
      <trkpt lat="46.00527" lon="4.70513">
        <ele>204</ele>
        <time>2018-06-26T08:53:53Z</time>
      </trkpt>
      <trkpt lat="46.00532" lon="4.70514">
        <ele>204</ele>
        <time>2018-06-26T08:53:54Z</time>
      </trkpt>
      <trkpt lat="46.00537" lon="4.70514">
        <ele>204</ele>
        <time>2018-06-26T08:53:55Z</time>
      </trkpt>
      <trkpt lat="46.00542" lon="4.70515">
        <ele>204</ele>
        <time>2018-06-26T08:53:56Z</time>
      </trkpt>
      <trkpt lat="46.00547" lon="4.70515">
        <ele>204</ele>
        <time>2018-06-26T08:53:57Z</time>
      </trkpt>
      <trkpt lat="46.00555" lon="4.70516">
        <ele>204</ele>
        <time>2018-06-26T08:53:59Z</time>
      </trkpt>
      <trkpt lat="46.00559" lon="4.70514">
        <ele>204</ele>
        <time>2018-06-26T08:54:00Z</time>
      </trkpt>
      <trkpt lat="46.00567" lon="4.70513">
        <ele>205</ele>
        <time>2018-06-26T08:54:02Z</time>
      </trkpt>
      <trkpt lat="46.00571" lon="4.70513">
        <ele>205</ele>
        <time>2018-06-26T08:54:03Z</time>
      </trkpt>
      <trkpt lat="46.00579" lon="4.7051">
        <ele>206</ele>
        <time>2018-06-26T08:54:05Z</time>
      </trkpt>
      <trkpt lat="46.00584" lon="4.70509">
        <ele>207</ele>
        <time>2018-06-26T08:54:06Z</time>
      </trkpt>
      <trkpt lat="46.00593" lon="4.70508">
        <ele>207</ele>
        <time>2018-06-26T08:54:08Z</time>
      </trkpt>
      <trkpt lat="46.00596" lon="4.7051">
        <ele>207</ele>
        <time>2018-06-26T08:54:09Z</time>
      </trkpt>
      <trkpt lat="46.00604" lon="4.70509">
        <ele>207</ele>
        <time>2018-06-26T08:54:11Z</time>
      </trkpt>
      <trkpt lat="46.00606" lon="4.70508">
        <ele>207</ele>
        <time>2018-06-26T08:54:12Z</time>
      </trkpt>
      <trkpt lat="46.00609" lon="4.70508">
        <ele>207</ele>
        <time>2018-06-26T08:54:13Z</time>
      </trkpt>
      <trkpt lat="46.00617" lon="4.70507">
        <ele>207</ele>
        <time>2018-06-26T08:54:14Z</time>
      </trkpt>
      <trkpt lat="46.00621" lon="4.70504">
        <ele>207</ele>
        <time>2018-06-26T08:54:15Z</time>
      </trkpt>
      <trkpt lat="46.00625" lon="4.705">
        <ele>207</ele>
        <time>2018-06-26T08:54:16Z</time>
      </trkpt>
      <trkpt lat="46.00633" lon="4.70499">
        <ele>211</ele>
        <time>2018-06-26T08:54:18Z</time>
      </trkpt>
      <trkpt lat="46.00637" lon="4.70498">
        <ele>211</ele>
        <time>2018-06-26T08:54:19Z</time>
      </trkpt>
      <trkpt lat="46.00645" lon="4.70498">
        <ele>211</ele>
        <time>2018-06-26T08:54:21Z</time>
      </trkpt>
      <trkpt lat="46.00649" lon="4.70498">
        <ele>211</ele>
        <time>2018-06-26T08:54:22Z</time>
      </trkpt>
      <trkpt lat="46.00657" lon="4.70499">
        <ele>212</ele>
        <time>2018-06-26T08:54:24Z</time>
      </trkpt>
      <trkpt lat="46.00662" lon="4.70499">
        <ele>212</ele>
        <time>2018-06-26T08:54:25Z</time>
      </trkpt>
      <trkpt lat="46.00667" lon="4.70499">
        <ele>212</ele>
        <time>2018-06-26T08:54:26Z</time>
      </trkpt>
      <trkpt lat="46.00671" lon="4.70499">
        <ele>212</ele>
        <time>2018-06-26T08:54:27Z</time>
      </trkpt>
      <trkpt lat="46.00675" lon="4.70499">
        <ele>212</ele>
        <time>2018-06-26T08:54:28Z</time>
      </trkpt>
      <trkpt lat="46.00681" lon="4.70498">
        <ele>211</ele>
        <time>2018-06-26T08:54:29Z</time>
      </trkpt>
      <trkpt lat="46.00685" lon="4.70498">
        <ele>211</ele>
        <time>2018-06-26T08:54:30Z</time>
      </trkpt>
      <trkpt lat="46.00689" lon="4.70492">
        <ele>211</ele>
        <time>2018-06-26T08:54:31Z</time>
      </trkpt>
      <trkpt lat="46.00693" lon="4.70493">
        <ele>211</ele>
        <time>2018-06-26T08:54:32Z</time>
      </trkpt>
      <trkpt lat="46.00699" lon="4.70494">
        <ele>211</ele>
        <time>2018-06-26T08:54:33Z</time>
      </trkpt>
      <trkpt lat="46.00704" lon="4.70495">
        <ele>211</ele>
        <time>2018-06-26T08:54:34Z</time>
      </trkpt>
      <trkpt lat="46.00708" lon="4.70495">
        <ele>210</ele>
        <time>2018-06-26T08:54:35Z</time>
      </trkpt>
      <trkpt lat="46.00714" lon="4.70496">
        <ele>210</ele>
        <time>2018-06-26T08:54:36Z</time>
      </trkpt>
      <trkpt lat="46.00719" lon="4.70498">
        <ele>210</ele>
        <time>2018-06-26T08:54:37Z</time>
      </trkpt>
      <trkpt lat="46.00724" lon="4.705">
        <ele>207</ele>
        <time>2018-06-26T08:54:38Z</time>
      </trkpt>
      <trkpt lat="46.0073" lon="4.70502">
        <ele>207</ele>
        <time>2018-06-26T08:54:39Z</time>
      </trkpt>
      <trkpt lat="46.00735" lon="4.70505">
        <ele>207</ele>
        <time>2018-06-26T08:54:40Z</time>
      </trkpt>
      <trkpt lat="46.00742" lon="4.70507">
        <ele>207</ele>
        <time>2018-06-26T08:54:41Z</time>
      </trkpt>
      <trkpt lat="46.00748" lon="4.70509">
        <ele>207</ele>
        <time>2018-06-26T08:54:42Z</time>
      </trkpt>
      <trkpt lat="46.00754" lon="4.70512">
        <ele>206</ele>
        <time>2018-06-26T08:54:43Z</time>
      </trkpt>
      <trkpt lat="46.0076" lon="4.70514">
        <ele>206</ele>
        <time>2018-06-26T08:54:44Z</time>
      </trkpt>
      <trkpt lat="46.00766" lon="4.70516">
        <ele>205</ele>
        <time>2018-06-26T08:54:45Z</time>
      </trkpt>
      <trkpt lat="46.00771" lon="4.70518">
        <ele>205</ele>
        <time>2018-06-26T08:54:46Z</time>
      </trkpt>
      <trkpt lat="46.00776" lon="4.70521">
        <ele>205</ele>
        <time>2018-06-26T08:54:47Z</time>
      </trkpt>
      <trkpt lat="46.00781" lon="4.70524">
        <ele>204</ele>
        <time>2018-06-26T08:54:48Z</time>
      </trkpt>
      <trkpt lat="46.00787" lon="4.70526">
        <ele>204</ele>
        <time>2018-06-26T08:54:49Z</time>
      </trkpt>
      <trkpt lat="46.00794" lon="4.70529">
        <ele>204</ele>
        <time>2018-06-26T08:54:50Z</time>
      </trkpt>
      <trkpt lat="46.00799" lon="4.70531">
        <ele>204</ele>
        <time>2018-06-26T08:54:51Z</time>
      </trkpt>
      <trkpt lat="46.00805" lon="4.70534">
        <ele>204</ele>
        <time>2018-06-26T08:54:52Z</time>
      </trkpt>
      <trkpt lat="46.00811" lon="4.70537">
        <ele>203</ele>
        <time>2018-06-26T08:54:53Z</time>
      </trkpt>
      <trkpt lat="46.00817" lon="4.70539">
        <ele>203</ele>
        <time>2018-06-26T08:54:54Z</time>
      </trkpt>
      <trkpt lat="46.00823" lon="4.70541">
        <ele>203</ele>
        <time>2018-06-26T08:54:55Z</time>
      </trkpt>
      <trkpt lat="46.00828" lon="4.70543">
        <ele>203</ele>
        <time>2018-06-26T08:54:56Z</time>
      </trkpt>
      <trkpt lat="46.00834" lon="4.70546">
        <ele>201</ele>
        <time>2018-06-26T08:54:57Z</time>
      </trkpt>
      <trkpt lat="46.00841" lon="4.70549">
        <ele>201</ele>
        <time>2018-06-26T08:54:58Z</time>
      </trkpt>
      <trkpt lat="46.00846" lon="4.70552">
        <ele>201</ele>
        <time>2018-06-26T08:54:59Z</time>
      </trkpt>
      <trkpt lat="46.00852" lon="4.70556">
        <ele>201</ele>
        <time>2018-06-26T08:55:00Z</time>
      </trkpt>
      <trkpt lat="46.00858" lon="4.70558">
        <ele>201</ele>
        <time>2018-06-26T08:55:01Z</time>
      </trkpt>
      <trkpt lat="46.00864" lon="4.7056">
        <ele>201</ele>
        <time>2018-06-26T08:55:02Z</time>
      </trkpt>
      <trkpt lat="46.0087" lon="4.70563">
        <ele>201</ele>
        <time>2018-06-26T08:55:03Z</time>
      </trkpt>
      <trkpt lat="46.00876" lon="4.70565">
        <ele>200</ele>
        <time>2018-06-26T08:55:04Z</time>
      </trkpt>
      <trkpt lat="46.00883" lon="4.70568">
        <ele>200</ele>
        <time>2018-06-26T08:55:05Z</time>
      </trkpt>
      <trkpt lat="46.00889" lon="4.70571">
        <ele>200</ele>
        <time>2018-06-26T08:55:06Z</time>
      </trkpt>
      <trkpt lat="46.00895" lon="4.70574">
        <ele>200</ele>
        <time>2018-06-26T08:55:07Z</time>
      </trkpt>
      <trkpt lat="46.00902" lon="4.70577">
        <ele>199</ele>
        <time>2018-06-26T08:55:08Z</time>
      </trkpt>
      <trkpt lat="46.00907" lon="4.7058">
        <ele>199</ele>
        <time>2018-06-26T08:55:09Z</time>
      </trkpt>
      <trkpt lat="46.00914" lon="4.70583">
        <ele>198</ele>
        <time>2018-06-26T08:55:10Z</time>
      </trkpt>
      <trkpt lat="46.00921" lon="4.70586">
        <ele>198</ele>
        <time>2018-06-26T08:55:11Z</time>
      </trkpt>
      <trkpt lat="46.00927" lon="4.70589">
        <ele>198</ele>
        <time>2018-06-26T08:55:12Z</time>
      </trkpt>
      <trkpt lat="46.00934" lon="4.70592">
        <ele>198</ele>
        <time>2018-06-26T08:55:13Z</time>
      </trkpt>
      <trkpt lat="46.0094" lon="4.70594">
        <ele>198</ele>
        <time>2018-06-26T08:55:14Z</time>
      </trkpt>
      <trkpt lat="46.00947" lon="4.70597">
        <ele>197</ele>
        <time>2018-06-26T08:55:15Z</time>
      </trkpt>
      <trkpt lat="46.00953" lon="4.70601">
        <ele>197</ele>
        <time>2018-06-26T08:55:16Z</time>
      </trkpt>
      <trkpt lat="46.00959" lon="4.70603">
        <ele>197</ele>
        <time>2018-06-26T08:55:17Z</time>
      </trkpt>
      <trkpt lat="46.00966" lon="4.70603">
        <ele>197</ele>
        <time>2018-06-26T08:55:18Z</time>
      </trkpt>
      <trkpt lat="46.00972" lon="4.70605">
        <ele>197</ele>
        <time>2018-06-26T08:55:19Z</time>
      </trkpt>
      <trkpt lat="46.00978" lon="4.70608">
        <ele>197</ele>
        <time>2018-06-26T08:55:20Z</time>
      </trkpt>
      <trkpt lat="46.00982" lon="4.70611">
        <ele>197</ele>
        <time>2018-06-26T08:55:21Z</time>
      </trkpt>
      <trkpt lat="46.00987" lon="4.70614">
        <ele>197</ele>
        <time>2018-06-26T08:55:22Z</time>
      </trkpt>
      <trkpt lat="46.00993" lon="4.70616">
        <ele>197</ele>
        <time>2018-06-26T08:55:23Z</time>
      </trkpt>
      <trkpt lat="46.00999" lon="4.70619">
        <ele>197</ele>
        <time>2018-06-26T08:55:24Z</time>
      </trkpt>
      <trkpt lat="46.01004" lon="4.70621">
        <ele>196</ele>
        <time>2018-06-26T08:55:25Z</time>
      </trkpt>
      <trkpt lat="46.01009" lon="4.70624">
        <ele>196</ele>
        <time>2018-06-26T08:55:26Z</time>
      </trkpt>
      <trkpt lat="46.01015" lon="4.70627">
        <ele>196</ele>
        <time>2018-06-26T08:55:27Z</time>
      </trkpt>
      <trkpt lat="46.0102" lon="4.70629">
        <ele>196</ele>
        <time>2018-06-26T08:55:28Z</time>
      </trkpt>
      <trkpt lat="46.01026" lon="4.70632">
        <ele>196</ele>
        <time>2018-06-26T08:55:29Z</time>
      </trkpt>
      <trkpt lat="46.01032" lon="4.70635">
        <ele>196</ele>
        <time>2018-06-26T08:55:30Z</time>
      </trkpt>
      <trkpt lat="46.01038" lon="4.70638">
        <ele>196</ele>
        <time>2018-06-26T08:55:31Z</time>
      </trkpt>
      <trkpt lat="46.01044" lon="4.70642">
        <ele>195</ele>
        <time>2018-06-26T08:55:32Z</time>
      </trkpt>
      <trkpt lat="46.0105" lon="4.70643">
        <ele>195</ele>
        <time>2018-06-26T08:55:33Z</time>
      </trkpt>
      <trkpt lat="46.01054" lon="4.70646">
        <ele>195</ele>
        <time>2018-06-26T08:55:34Z</time>
      </trkpt>
      <trkpt lat="46.01061" lon="4.70648">
        <ele>195</ele>
        <time>2018-06-26T08:55:35Z</time>
      </trkpt>
      <trkpt lat="46.01067" lon="4.70651">
        <ele>195</ele>
        <time>2018-06-26T08:55:36Z</time>
      </trkpt>
      <trkpt lat="46.01072" lon="4.70654">
        <ele>195</ele>
        <time>2018-06-26T08:55:37Z</time>
      </trkpt>
      <trkpt lat="46.01077" lon="4.70656">
        <ele>195</ele>
        <time>2018-06-26T08:55:38Z</time>
      </trkpt>
      <trkpt lat="46.01082" lon="4.7066">
        <ele>195</ele>
        <time>2018-06-26T08:55:39Z</time>
      </trkpt>
      <trkpt lat="46.01089" lon="4.70662">
        <ele>195</ele>
        <time>2018-06-26T08:55:40Z</time>
      </trkpt>
      <trkpt lat="46.01095" lon="4.70665">
        <ele>195</ele>
        <time>2018-06-26T08:55:41Z</time>
      </trkpt>
      <trkpt lat="46.01101" lon="4.70669">
        <ele>195</ele>
        <time>2018-06-26T08:55:42Z</time>
      </trkpt>
      <trkpt lat="46.01108" lon="4.70671">
        <ele>195</ele>
        <time>2018-06-26T08:55:43Z</time>
      </trkpt>
      <trkpt lat="46.01113" lon="4.70674">
        <ele>195</ele>
        <time>2018-06-26T08:55:44Z</time>
      </trkpt>
      <trkpt lat="46.0112" lon="4.70678">
        <ele>195</ele>
        <time>2018-06-26T08:55:45Z</time>
      </trkpt>
      <trkpt lat="46.01126" lon="4.7068">
        <ele>194</ele>
        <time>2018-06-26T08:55:46Z</time>
      </trkpt>
      <trkpt lat="46.01132" lon="4.70683">
        <ele>194</ele>
        <time>2018-06-26T08:55:47Z</time>
      </trkpt>
      <trkpt lat="46.01138" lon="4.70685">
        <ele>194</ele>
        <time>2018-06-26T08:55:48Z</time>
      </trkpt>
      <trkpt lat="46.01143" lon="4.70689">
        <ele>194</ele>
        <time>2018-06-26T08:55:49Z</time>
      </trkpt>
      <trkpt lat="46.01148" lon="4.70692">
        <ele>194</ele>
        <time>2018-06-26T08:55:50Z</time>
      </trkpt>
      <trkpt lat="46.01153" lon="4.70694">
        <ele>194</ele>
        <time>2018-06-26T08:55:51Z</time>
      </trkpt>
      <trkpt lat="46.01158" lon="4.70697">
        <ele>194</ele>
        <time>2018-06-26T08:55:52Z</time>
      </trkpt>
      <trkpt lat="46.01164" lon="4.70698">
        <ele>194</ele>
        <time>2018-06-26T08:55:53Z</time>
      </trkpt>
      <trkpt lat="46.0117" lon="4.707">
        <ele>194</ele>
        <time>2018-06-26T08:55:54Z</time>
      </trkpt>
      <trkpt lat="46.01175" lon="4.70702">
        <ele>194</ele>
        <time>2018-06-26T08:55:55Z</time>
      </trkpt>
      <trkpt lat="46.01181" lon="4.70703">
        <ele>194</ele>
        <time>2018-06-26T08:55:56Z</time>
      </trkpt>
      <trkpt lat="46.01187" lon="4.70706">
        <ele>194</ele>
        <time>2018-06-26T08:55:57Z</time>
      </trkpt>
      <trkpt lat="46.01192" lon="4.70709">
        <ele>194</ele>
        <time>2018-06-26T08:55:58Z</time>
      </trkpt>
      <trkpt lat="46.01198" lon="4.70711">
        <ele>194</ele>
        <time>2018-06-26T08:55:59Z</time>
      </trkpt>
      <trkpt lat="46.01204" lon="4.70714">
        <ele>194</ele>
        <time>2018-06-26T08:56:00Z</time>
      </trkpt>
      <trkpt lat="46.0121" lon="4.70716">
        <ele>194</ele>
        <time>2018-06-26T08:56:01Z</time>
      </trkpt>
      <trkpt lat="46.01214" lon="4.70719">
        <ele>194</ele>
        <time>2018-06-26T08:56:02Z</time>
      </trkpt>
      <trkpt lat="46.0122" lon="4.70722">
        <ele>194</ele>
        <time>2018-06-26T08:56:03Z</time>
      </trkpt>
      <trkpt lat="46.01226" lon="4.70723">
        <ele>194</ele>
        <time>2018-06-26T08:56:04Z</time>
      </trkpt>
      <trkpt lat="46.01232" lon="4.70725">
        <ele>194</ele>
        <time>2018-06-26T08:56:05Z</time>
      </trkpt>
      <trkpt lat="46.01237" lon="4.70728">
        <ele>193</ele>
        <time>2018-06-26T08:56:06Z</time>
      </trkpt>
      <trkpt lat="46.01243" lon="4.7073">
        <ele>193</ele>
        <time>2018-06-26T08:56:07Z</time>
      </trkpt>
      <trkpt lat="46.01248" lon="4.70732">
        <ele>193</ele>
        <time>2018-06-26T08:56:08Z</time>
      </trkpt>
      <trkpt lat="46.01253" lon="4.70733">
        <ele>192</ele>
        <time>2018-06-26T08:56:09Z</time>
      </trkpt>
      <trkpt lat="46.01259" lon="4.70732">
        <ele>192</ele>
        <time>2018-06-26T08:56:10Z</time>
      </trkpt>
      <trkpt lat="46.01264" lon="4.70733">
        <ele>192</ele>
        <time>2018-06-26T08:56:11Z</time>
      </trkpt>
      <trkpt lat="46.01269" lon="4.70734">
        <ele>192</ele>
        <time>2018-06-26T08:56:12Z</time>
      </trkpt>
      <trkpt lat="46.01274" lon="4.70735">
        <ele>192</ele>
        <time>2018-06-26T08:56:13Z</time>
      </trkpt>
      <trkpt lat="46.01279" lon="4.70737">
        <ele>192</ele>
        <time>2018-06-26T08:56:14Z</time>
      </trkpt>
      <trkpt lat="46.01285" lon="4.70739">
        <ele>191</ele>
        <time>2018-06-26T08:56:15Z</time>
      </trkpt>
      <trkpt lat="46.0129" lon="4.70741">
        <ele>191</ele>
        <time>2018-06-26T08:56:16Z</time>
      </trkpt>
      <trkpt lat="46.01295" lon="4.70742">
        <ele>191</ele>
        <time>2018-06-26T08:56:17Z</time>
      </trkpt>
      <trkpt lat="46.01301" lon="4.70743">
        <ele>191</ele>
        <time>2018-06-26T08:56:18Z</time>
      </trkpt>
      <trkpt lat="46.01307" lon="4.70743">
        <ele>191</ele>
        <time>2018-06-26T08:56:19Z</time>
      </trkpt>
      <trkpt lat="46.01313" lon="4.70744">
        <ele>190</ele>
        <time>2018-06-26T08:56:20Z</time>
      </trkpt>
      <trkpt lat="46.01318" lon="4.70744">
        <ele>190</ele>
        <time>2018-06-26T08:56:21Z</time>
      </trkpt>
      <trkpt lat="46.01324" lon="4.70746">
        <ele>190</ele>
        <time>2018-06-26T08:56:22Z</time>
      </trkpt>
      <trkpt lat="46.0133" lon="4.70747">
        <ele>189</ele>
        <time>2018-06-26T08:56:23Z</time>
      </trkpt>
      <trkpt lat="46.01335" lon="4.70748">
        <ele>189</ele>
        <time>2018-06-26T08:56:24Z</time>
      </trkpt>
      <trkpt lat="46.01342" lon="4.70748">
        <ele>189</ele>
        <time>2018-06-26T08:56:25Z</time>
      </trkpt>
      <trkpt lat="46.01349" lon="4.70748">
        <ele>189</ele>
        <time>2018-06-26T08:56:26Z</time>
      </trkpt>
      <trkpt lat="46.01355" lon="4.70748">
        <ele>189</ele>
        <time>2018-06-26T08:56:27Z</time>
      </trkpt>
      <trkpt lat="46.01359" lon="4.70751">
        <ele>189</ele>
        <time>2018-06-26T08:56:28Z</time>
      </trkpt>
      <trkpt lat="46.01368" lon="4.70749">
        <ele>189</ele>
        <time>2018-06-26T08:56:29Z</time>
      </trkpt>
      <trkpt lat="46.01375" lon="4.70749">
        <ele>189</ele>
        <time>2018-06-26T08:56:30Z</time>
      </trkpt>
      <trkpt lat="46.01381" lon="4.70749">
        <ele>189</ele>
        <time>2018-06-26T08:56:31Z</time>
      </trkpt>
      <trkpt lat="46.01386" lon="4.70749">
        <ele>189</ele>
        <time>2018-06-26T08:56:32Z</time>
      </trkpt>
      <trkpt lat="46.01392" lon="4.70748">
        <ele>189</ele>
        <time>2018-06-26T08:56:33Z</time>
      </trkpt>
      <trkpt lat="46.01397" lon="4.70747">
        <ele>189</ele>
        <time>2018-06-26T08:56:34Z</time>
      </trkpt>
      <trkpt lat="46.01403" lon="4.70746">
        <ele>189</ele>
        <time>2018-06-26T08:56:35Z</time>
      </trkpt>
      <trkpt lat="46.01409" lon="4.70745">
        <ele>189</ele>
        <time>2018-06-26T08:56:36Z</time>
      </trkpt>
      <trkpt lat="46.01415" lon="4.70745">
        <ele>189</ele>
        <time>2018-06-26T08:56:37Z</time>
      </trkpt>
      <trkpt lat="46.01421" lon="4.70744">
        <ele>189</ele>
        <time>2018-06-26T08:56:38Z</time>
      </trkpt>
      <trkpt lat="46.01426" lon="4.70744">
        <ele>189</ele>
        <time>2018-06-26T08:56:39Z</time>
      </trkpt>
      <trkpt lat="46.01433" lon="4.70744">
        <ele>189</ele>
        <time>2018-06-26T08:56:40Z</time>
      </trkpt>
      <trkpt lat="46.01439" lon="4.70743">
        <ele>189</ele>
        <time>2018-06-26T08:56:41Z</time>
      </trkpt>
      <trkpt lat="46.01445" lon="4.70742">
        <ele>189</ele>
        <time>2018-06-26T08:56:42Z</time>
      </trkpt>
      <trkpt lat="46.01452" lon="4.70741">
        <ele>189</ele>
        <time>2018-06-26T08:56:43Z</time>
      </trkpt>
      <trkpt lat="46.01457" lon="4.7074">
        <ele>189</ele>
        <time>2018-06-26T08:56:44Z</time>
      </trkpt>
      <trkpt lat="46.01464" lon="4.7074">
        <ele>190</ele>
        <time>2018-06-26T08:56:45Z</time>
      </trkpt>
      <trkpt lat="46.01471" lon="4.70739">
        <ele>190</ele>
        <time>2018-06-26T08:56:46Z</time>
      </trkpt>
      <trkpt lat="46.01477" lon="4.70738">
        <ele>190</ele>
        <time>2018-06-26T08:56:47Z</time>
      </trkpt>
      <trkpt lat="46.01485" lon="4.70737">
        <ele>190</ele>
        <time>2018-06-26T08:56:48Z</time>
      </trkpt>
      <trkpt lat="46.01492" lon="4.70736">
        <ele>190</ele>
        <time>2018-06-26T08:56:49Z</time>
      </trkpt>
      <trkpt lat="46.01498" lon="4.70736">
        <ele>190</ele>
        <time>2018-06-26T08:56:50Z</time>
      </trkpt>
      <trkpt lat="46.01504" lon="4.70735">
        <ele>190</ele>
        <time>2018-06-26T08:56:51Z</time>
      </trkpt>
      <trkpt lat="46.01511" lon="4.70734">
        <ele>190</ele>
        <time>2018-06-26T08:56:52Z</time>
      </trkpt>
      <trkpt lat="46.01517" lon="4.70735">
        <ele>190</ele>
        <time>2018-06-26T08:56:53Z</time>
      </trkpt>
      <trkpt lat="46.01523" lon="4.70734">
        <ele>190</ele>
        <time>2018-06-26T08:56:54Z</time>
      </trkpt>
      <trkpt lat="46.0153" lon="4.70733">
        <ele>190</ele>
        <time>2018-06-26T08:56:55Z</time>
      </trkpt>
      <trkpt lat="46.01536" lon="4.70731">
        <ele>190</ele>
        <time>2018-06-26T08:56:56Z</time>
      </trkpt>
      <trkpt lat="46.01541" lon="4.70731">
        <ele>190</ele>
        <time>2018-06-26T08:56:57Z</time>
      </trkpt>
      <trkpt lat="46.01547" lon="4.7073">
        <ele>190</ele>
        <time>2018-06-26T08:56:58Z</time>
      </trkpt>
      <trkpt lat="46.01553" lon="4.70729">
        <ele>190</ele>
        <time>2018-06-26T08:56:59Z</time>
      </trkpt>
      <trkpt lat="46.01559" lon="4.70729">
        <ele>190</ele>
        <time>2018-06-26T08:57:00Z</time>
      </trkpt>
      <trkpt lat="46.01566" lon="4.70728">
        <ele>190</ele>
        <time>2018-06-26T08:57:01Z</time>
      </trkpt>
      <trkpt lat="46.01573" lon="4.70727">
        <ele>190</ele>
        <time>2018-06-26T08:57:02Z</time>
      </trkpt>
      <trkpt lat="46.01579" lon="4.70726">
        <ele>190</ele>
        <time>2018-06-26T08:57:03Z</time>
      </trkpt>
      <trkpt lat="46.01585" lon="4.70726">
        <ele>190</ele>
        <time>2018-06-26T08:57:04Z</time>
      </trkpt>
      <trkpt lat="46.01592" lon="4.70725">
        <ele>190</ele>
        <time>2018-06-26T08:57:05Z</time>
      </trkpt>
      <trkpt lat="46.01598" lon="4.70723">
        <ele>190</ele>
        <time>2018-06-26T08:57:06Z</time>
      </trkpt>
      <trkpt lat="46.01606" lon="4.70722">
        <ele>190</ele>
        <time>2018-06-26T08:57:07Z</time>
      </trkpt>
      <trkpt lat="46.01612" lon="4.70721">
        <ele>190</ele>
        <time>2018-06-26T08:57:08Z</time>
      </trkpt>
      <trkpt lat="46.01617" lon="4.70721">
        <ele>190</ele>
        <time>2018-06-26T08:57:09Z</time>
      </trkpt>
      <trkpt lat="46.01623" lon="4.7072">
        <ele>190</ele>
        <time>2018-06-26T08:57:10Z</time>
      </trkpt>
      <trkpt lat="46.01629" lon="4.7072">
        <ele>190</ele>
        <time>2018-06-26T08:57:11Z</time>
      </trkpt>
      <trkpt lat="46.01635" lon="4.70719">
        <ele>190</ele>
        <time>2018-06-26T08:57:12Z</time>
      </trkpt>
      <trkpt lat="46.01641" lon="4.70719">
        <ele>190</ele>
        <time>2018-06-26T08:57:13Z</time>
      </trkpt>
      <trkpt lat="46.01647" lon="4.70718">
        <ele>190</ele>
        <time>2018-06-26T08:57:14Z</time>
      </trkpt>
      <trkpt lat="46.01653" lon="4.70718">
        <ele>190</ele>
        <time>2018-06-26T08:57:15Z</time>
      </trkpt>
      <trkpt lat="46.0166" lon="4.70717">
        <ele>190</ele>
        <time>2018-06-26T08:57:16Z</time>
      </trkpt>
      <trkpt lat="46.01666" lon="4.70717">
        <ele>190</ele>
        <time>2018-06-26T08:57:17Z</time>
      </trkpt>
      <trkpt lat="46.01676" lon="4.70713">
        <ele>189</ele>
        <time>2018-06-26T08:57:18Z</time>
      </trkpt>
      <trkpt lat="46.01684" lon="4.70713">
        <ele>189</ele>
        <time>2018-06-26T08:57:19Z</time>
      </trkpt>
      <trkpt lat="46.01691" lon="4.70712">
        <ele>189</ele>
        <time>2018-06-26T08:57:20Z</time>
      </trkpt>
      <trkpt lat="46.01698" lon="4.70711">
        <ele>189</ele>
        <time>2018-06-26T08:57:21Z</time>
      </trkpt>
      <trkpt lat="46.01706" lon="4.7071">
        <ele>189</ele>
        <time>2018-06-26T08:57:22Z</time>
      </trkpt>
      <trkpt lat="46.01713" lon="4.70709">
        <ele>188</ele>
        <time>2018-06-26T08:57:23Z</time>
      </trkpt>
      <trkpt lat="46.0172" lon="4.7071">
        <ele>188</ele>
        <time>2018-06-26T08:57:24Z</time>
      </trkpt>
      <trkpt lat="46.01726" lon="4.70711">
        <ele>188</ele>
        <time>2018-06-26T08:57:25Z</time>
      </trkpt>
      <trkpt lat="46.01731" lon="4.70711">
        <ele>188</ele>
        <time>2018-06-26T08:57:26Z</time>
      </trkpt>
      <trkpt lat="46.01738" lon="4.7071">
        <ele>188</ele>
        <time>2018-06-26T08:57:27Z</time>
      </trkpt>
      <trkpt lat="46.01744" lon="4.70709">
        <ele>188</ele>
        <time>2018-06-26T08:57:28Z</time>
      </trkpt>
      <trkpt lat="46.01749" lon="4.70709">
        <ele>188</ele>
        <time>2018-06-26T08:57:29Z</time>
      </trkpt>
      <trkpt lat="46.01756" lon="4.70709">
        <ele>187</ele>
        <time>2018-06-26T08:57:30Z</time>
      </trkpt>
      <trkpt lat="46.01762" lon="4.70708">
        <ele>187</ele>
        <time>2018-06-26T08:57:31Z</time>
      </trkpt>
      <trkpt lat="46.0177" lon="4.70704">
        <ele>187</ele>
        <time>2018-06-26T08:57:32Z</time>
      </trkpt>
      <trkpt lat="46.01776" lon="4.70704">
        <ele>187</ele>
        <time>2018-06-26T08:57:33Z</time>
      </trkpt>
      <trkpt lat="46.01782" lon="4.70703">
        <ele>187</ele>
        <time>2018-06-26T08:57:34Z</time>
      </trkpt>
      <trkpt lat="46.01787" lon="4.70703">
        <ele>187</ele>
        <time>2018-06-26T08:57:35Z</time>
      </trkpt>
      <trkpt lat="46.01792" lon="4.70703">
        <ele>187</ele>
        <time>2018-06-26T08:57:36Z</time>
      </trkpt>
      <trkpt lat="46.01798" lon="4.70702">
        <ele>187</ele>
        <time>2018-06-26T08:57:37Z</time>
      </trkpt>
      <trkpt lat="46.01803" lon="4.70702">
        <ele>187</ele>
        <time>2018-06-26T08:57:38Z</time>
      </trkpt>
      <trkpt lat="46.01809" lon="4.70703">
        <ele>187</ele>
        <time>2018-06-26T08:57:39Z</time>
      </trkpt>
      <trkpt lat="46.01816" lon="4.70702">
        <ele>187</ele>
        <time>2018-06-26T08:57:40Z</time>
      </trkpt>
      <trkpt lat="46.01822" lon="4.70702">
        <ele>187</ele>
        <time>2018-06-26T08:57:41Z</time>
      </trkpt>
      <trkpt lat="46.01826" lon="4.70701">
        <ele>187</ele>
        <time>2018-06-26T08:57:42Z</time>
      </trkpt>
      <trkpt lat="46.01832" lon="4.707">
        <ele>187</ele>
        <time>2018-06-26T08:57:43Z</time>
      </trkpt>
      <trkpt lat="46.01839" lon="4.70699">
        <ele>185</ele>
        <time>2018-06-26T08:57:44Z</time>
      </trkpt>
      <trkpt lat="46.01845" lon="4.70698">
        <ele>185</ele>
        <time>2018-06-26T08:57:45Z</time>
      </trkpt>
      <trkpt lat="46.01852" lon="4.70698">
        <ele>185</ele>
        <time>2018-06-26T08:57:46Z</time>
      </trkpt>
      <trkpt lat="46.01859" lon="4.70697">
        <ele>185</ele>
        <time>2018-06-26T08:57:47Z</time>
      </trkpt>
      <trkpt lat="46.01864" lon="4.70697">
        <ele>185</ele>
        <time>2018-06-26T08:57:48Z</time>
      </trkpt>
      <trkpt lat="46.01871" lon="4.70697">
        <ele>185</ele>
        <time>2018-06-26T08:57:49Z</time>
      </trkpt>
      <trkpt lat="46.01877" lon="4.70696">
        <ele>185</ele>
        <time>2018-06-26T08:57:50Z</time>
      </trkpt>
      <trkpt lat="46.01883" lon="4.70696">
        <ele>184</ele>
        <time>2018-06-26T08:57:51Z</time>
      </trkpt>
      <trkpt lat="46.01889" lon="4.70695">
        <ele>184</ele>
        <time>2018-06-26T08:57:52Z</time>
      </trkpt>
      <trkpt lat="46.01894" lon="4.70697">
        <ele>184</ele>
        <time>2018-06-26T08:57:53Z</time>
      </trkpt>
      <trkpt lat="46.019" lon="4.70697">
        <ele>184</ele>
        <time>2018-06-26T08:57:54Z</time>
      </trkpt>
      <trkpt lat="46.01906" lon="4.70697">
        <ele>184</ele>
        <time>2018-06-26T08:57:55Z</time>
      </trkpt>
      <trkpt lat="46.01911" lon="4.70698">
        <ele>184</ele>
        <time>2018-06-26T08:57:56Z</time>
      </trkpt>
      <trkpt lat="46.01918" lon="4.70699">
        <ele>182</ele>
        <time>2018-06-26T08:57:57Z</time>
      </trkpt>
      <trkpt lat="46.01923" lon="4.70698">
        <ele>182</ele>
        <time>2018-06-26T08:57:58Z</time>
      </trkpt>
      <trkpt lat="46.01931" lon="4.70699">
        <ele>182</ele>
        <time>2018-06-26T08:57:59Z</time>
      </trkpt>
      <trkpt lat="46.01938" lon="4.707">
        <ele>182</ele>
        <time>2018-06-26T08:58:00Z</time>
      </trkpt>
      <trkpt lat="46.01944" lon="4.70702">
        <ele>182</ele>
        <time>2018-06-26T08:58:01Z</time>
      </trkpt>
      <trkpt lat="46.01951" lon="4.70704">
        <ele>181</ele>
        <time>2018-06-26T08:58:02Z</time>
      </trkpt>
      <trkpt lat="46.01957" lon="4.70702">
        <ele>181</ele>
        <time>2018-06-26T08:58:03Z</time>
      </trkpt>
      <trkpt lat="46.01964" lon="4.70704">
        <ele>181</ele>
        <time>2018-06-26T08:58:04Z</time>
      </trkpt>
      <trkpt lat="46.01972" lon="4.70704">
        <ele>181</ele>
        <time>2018-06-26T08:58:05Z</time>
      </trkpt>
      <trkpt lat="46.01978" lon="4.70706">
        <ele>181</ele>
        <time>2018-06-26T08:58:06Z</time>
      </trkpt>
      <trkpt lat="46.01985" lon="4.70706">
        <ele>181</ele>
        <time>2018-06-26T08:58:07Z</time>
      </trkpt>
      <trkpt lat="46.0199" lon="4.70707">
        <ele>181</ele>
        <time>2018-06-26T08:58:08Z</time>
      </trkpt>
      <trkpt lat="46.01996" lon="4.70708">
        <ele>181</ele>
        <time>2018-06-26T08:58:09Z</time>
      </trkpt>
      <trkpt lat="46.02002" lon="4.7071">
        <ele>179</ele>
        <time>2018-06-26T08:58:10Z</time>
      </trkpt>
      <trkpt lat="46.02008" lon="4.70711">
        <ele>179</ele>
        <time>2018-06-26T08:58:11Z</time>
      </trkpt>
      <trkpt lat="46.02014" lon="4.70713">
        <ele>179</ele>
        <time>2018-06-26T08:58:12Z</time>
      </trkpt>
      <trkpt lat="46.0202" lon="4.70714">
        <ele>179</ele>
        <time>2018-06-26T08:58:13Z</time>
      </trkpt>
      <trkpt lat="46.02026" lon="4.70716">
        <ele>179</ele>
        <time>2018-06-26T08:58:14Z</time>
      </trkpt>
      <trkpt lat="46.02032" lon="4.70717">
        <ele>179</ele>
        <time>2018-06-26T08:58:15Z</time>
      </trkpt>
      <trkpt lat="46.02038" lon="4.70719">
        <ele>179</ele>
        <time>2018-06-26T08:58:16Z</time>
      </trkpt>
      <trkpt lat="46.02043" lon="4.7072">
        <ele>179</ele>
        <time>2018-06-26T08:58:17Z</time>
      </trkpt>
      <trkpt lat="46.02049" lon="4.7072">
        <ele>179</ele>
        <time>2018-06-26T08:58:18Z</time>
      </trkpt>
      <trkpt lat="46.02055" lon="4.70721">
        <ele>179</ele>
        <time>2018-06-26T08:58:19Z</time>
      </trkpt>
      <trkpt lat="46.02061" lon="4.70722">
        <ele>179</ele>
        <time>2018-06-26T08:58:20Z</time>
      </trkpt>
      <trkpt lat="46.02067" lon="4.70723">
        <ele>179</ele>
        <time>2018-06-26T08:58:21Z</time>
      </trkpt>
      <trkpt lat="46.02073" lon="4.70725">
        <ele>178</ele>
        <time>2018-06-26T08:58:22Z</time>
      </trkpt>
      <trkpt lat="46.02079" lon="4.70725">
        <ele>178</ele>
        <time>2018-06-26T08:58:23Z</time>
      </trkpt>
      <trkpt lat="46.02086" lon="4.70727">
        <ele>178</ele>
        <time>2018-06-26T08:58:24Z</time>
      </trkpt>
      <trkpt lat="46.02093" lon="4.7073">
        <ele>178</ele>
        <time>2018-06-26T08:58:25Z</time>
      </trkpt>
      <trkpt lat="46.021" lon="4.70731">
        <ele>178</ele>
        <time>2018-06-26T08:58:26Z</time>
      </trkpt>
      <trkpt lat="46.02107" lon="4.70733">
        <ele>178</ele>
        <time>2018-06-26T08:58:27Z</time>
      </trkpt>
      <trkpt lat="46.02113" lon="4.70734">
        <ele>179</ele>
        <time>2018-06-26T08:58:28Z</time>
      </trkpt>
      <trkpt lat="46.02119" lon="4.70733">
        <ele>179</ele>
        <time>2018-06-26T08:58:29Z</time>
      </trkpt>
      <trkpt lat="46.02125" lon="4.70734">
        <ele>179</ele>
        <time>2018-06-26T08:58:30Z</time>
      </trkpt>
      <trkpt lat="46.02132" lon="4.70735">
        <ele>179</ele>
        <time>2018-06-26T08:58:31Z</time>
      </trkpt>
      <trkpt lat="46.02137" lon="4.70737">
        <ele>179</ele>
        <time>2018-06-26T08:58:32Z</time>
      </trkpt>
      <trkpt lat="46.02143" lon="4.70739">
        <ele>179</ele>
        <time>2018-06-26T08:58:33Z</time>
      </trkpt>
      <trkpt lat="46.02148" lon="4.70741">
        <ele>179</ele>
        <time>2018-06-26T08:58:34Z</time>
      </trkpt>
      <trkpt lat="46.02153" lon="4.70743">
        <ele>179</ele>
        <time>2018-06-26T08:58:35Z</time>
      </trkpt>
      <trkpt lat="46.02157" lon="4.70745">
        <ele>179</ele>
        <time>2018-06-26T08:58:36Z</time>
      </trkpt>
      <trkpt lat="46.02164" lon="4.70745">
        <ele>179</ele>
        <time>2018-06-26T08:58:37Z</time>
      </trkpt>
      <trkpt lat="46.0217" lon="4.70744">
        <ele>179</ele>
        <time>2018-06-26T08:58:38Z</time>
      </trkpt>
      <trkpt lat="46.02176" lon="4.70745">
        <ele>180</ele>
        <time>2018-06-26T08:58:39Z</time>
      </trkpt>
      <trkpt lat="46.02182" lon="4.70746">
        <ele>180</ele>
        <time>2018-06-26T08:58:40Z</time>
      </trkpt>
      <trkpt lat="46.02187" lon="4.70747">
        <ele>180</ele>
        <time>2018-06-26T08:58:41Z</time>
      </trkpt>
      <trkpt lat="46.02194" lon="4.70746">
        <ele>180</ele>
        <time>2018-06-26T08:58:42Z</time>
      </trkpt>
      <trkpt lat="46.02202" lon="4.70747">
        <ele>180</ele>
        <time>2018-06-26T08:58:44Z</time>
      </trkpt>
      <trkpt lat="46.02207" lon="4.70749">
        <ele>180</ele>
        <time>2018-06-26T08:58:45Z</time>
      </trkpt>
      <trkpt lat="46.02214" lon="4.7075">
        <ele>180</ele>
        <time>2018-06-26T08:58:46Z</time>
      </trkpt>
      <trkpt lat="46.02219" lon="4.70751">
        <ele>180</ele>
        <time>2018-06-26T08:58:47Z</time>
      </trkpt>
      <trkpt lat="46.02225" lon="4.70752">
        <ele>180</ele>
        <time>2018-06-26T08:58:48Z</time>
      </trkpt>
      <trkpt lat="46.02231" lon="4.70753">
        <ele>180</ele>
        <time>2018-06-26T08:58:49Z</time>
      </trkpt>
      <trkpt lat="46.02236" lon="4.70756">
        <ele>180</ele>
        <time>2018-06-26T08:58:50Z</time>
      </trkpt>
      <trkpt lat="46.02242" lon="4.70757">
        <ele>180</ele>
        <time>2018-06-26T08:58:51Z</time>
      </trkpt>
      <trkpt lat="46.02247" lon="4.70759">
        <ele>180</ele>
        <time>2018-06-26T08:58:52Z</time>
      </trkpt>
      <trkpt lat="46.02253" lon="4.7076">
        <ele>181</ele>
        <time>2018-06-26T08:58:53Z</time>
      </trkpt>
      <trkpt lat="46.02258" lon="4.70761">
        <ele>181</ele>
        <time>2018-06-26T08:58:54Z</time>
      </trkpt>
      <trkpt lat="46.02263" lon="4.70762">
        <ele>181</ele>
        <time>2018-06-26T08:58:55Z</time>
      </trkpt>
      <trkpt lat="46.02269" lon="4.70763">
        <ele>181</ele>
        <time>2018-06-26T08:58:56Z</time>
      </trkpt>
      <trkpt lat="46.02273" lon="4.70765">
        <ele>181</ele>
        <time>2018-06-26T08:58:57Z</time>
      </trkpt>
      <trkpt lat="46.02279" lon="4.70767">
        <ele>181</ele>
        <time>2018-06-26T08:58:58Z</time>
      </trkpt>
      <trkpt lat="46.02284" lon="4.70768">
        <ele>181</ele>
        <time>2018-06-26T08:58:59Z</time>
      </trkpt>
      <trkpt lat="46.0229" lon="4.70769">
        <ele>181</ele>
        <time>2018-06-26T08:59:00Z</time>
      </trkpt>
      <trkpt lat="46.02295" lon="4.7077">
        <ele>180</ele>
        <time>2018-06-26T08:59:01Z</time>
      </trkpt>
      <trkpt lat="46.023" lon="4.70771">
        <ele>180</ele>
        <time>2018-06-26T08:59:02Z</time>
      </trkpt>
      <trkpt lat="46.02304" lon="4.70771">
        <ele>180</ele>
        <time>2018-06-26T08:59:03Z</time>
      </trkpt>
      <trkpt lat="46.02309" lon="4.70773">
        <ele>180</ele>
        <time>2018-06-26T08:59:04Z</time>
      </trkpt>
      <trkpt lat="46.02313" lon="4.70774">
        <ele>180</ele>
        <time>2018-06-26T08:59:05Z</time>
      </trkpt>
      <trkpt lat="46.02318" lon="4.70775">
        <ele>180</ele>
        <time>2018-06-26T08:59:06Z</time>
      </trkpt>
      <trkpt lat="46.02322" lon="4.70775">
        <ele>180</ele>
        <time>2018-06-26T08:59:07Z</time>
      </trkpt>
      <trkpt lat="46.02327" lon="4.70777">
        <ele>180</ele>
        <time>2018-06-26T08:59:08Z</time>
      </trkpt>
      <trkpt lat="46.02332" lon="4.70776">
        <ele>180</ele>
        <time>2018-06-26T08:59:09Z</time>
      </trkpt>
      <trkpt lat="46.02337" lon="4.70777">
        <ele>182</ele>
        <time>2018-06-26T08:59:10Z</time>
      </trkpt>
      <trkpt lat="46.02343" lon="4.70778">
        <ele>182</ele>
        <time>2018-06-26T08:59:11Z</time>
      </trkpt>
      <trkpt lat="46.02349" lon="4.70778">
        <ele>183</ele>
        <time>2018-06-26T08:59:12Z</time>
      </trkpt>
      <trkpt lat="46.02354" lon="4.7078">
        <ele>183</ele>
        <time>2018-06-26T08:59:13Z</time>
      </trkpt>
      <trkpt lat="46.02359" lon="4.7078">
        <ele>183</ele>
        <time>2018-06-26T08:59:14Z</time>
      </trkpt>
      <trkpt lat="46.02364" lon="4.7078">
        <ele>183</ele>
        <time>2018-06-26T08:59:15Z</time>
      </trkpt>
      <trkpt lat="46.02369" lon="4.7078">
        <ele>184</ele>
        <time>2018-06-26T08:59:16Z</time>
      </trkpt>
      <trkpt lat="46.02374" lon="4.70781">
        <ele>184</ele>
        <time>2018-06-26T08:59:17Z</time>
      </trkpt>
      <trkpt lat="46.02379" lon="4.7078">
        <ele>184</ele>
        <time>2018-06-26T08:59:18Z</time>
      </trkpt>
      <trkpt lat="46.02383" lon="4.7078">
        <ele>184</ele>
        <time>2018-06-26T08:59:19Z</time>
      </trkpt>
      <trkpt lat="46.0239" lon="4.70783">
        <ele>184</ele>
        <time>2018-06-26T08:59:21Z</time>
      </trkpt>
      <trkpt lat="46.02396" lon="4.70783">
        <ele>185</ele>
        <time>2018-06-26T08:59:22Z</time>
      </trkpt>
      <trkpt lat="46.02401" lon="4.70784">
        <ele>185</ele>
        <time>2018-06-26T08:59:24Z</time>
      </trkpt>
      <trkpt lat="46.02406" lon="4.70782">
        <ele>185</ele>
        <time>2018-06-26T08:59:25Z</time>
      </trkpt>
      <trkpt lat="46.02411" lon="4.70782">
        <ele>185</ele>
        <time>2018-06-26T08:59:26Z</time>
      </trkpt>
      <trkpt lat="46.02415" lon="4.70781">
        <ele>185</ele>
        <time>2018-06-26T08:59:27Z</time>
      </trkpt>
      <trkpt lat="46.02423" lon="4.70779">
        <ele>189</ele>
        <time>2018-06-26T08:59:29Z</time>
      </trkpt>
      <trkpt lat="46.02426" lon="4.70778">
        <ele>189</ele>
        <time>2018-06-26T08:59:30Z</time>
      </trkpt>
      <trkpt lat="46.02431" lon="4.70771">
        <ele>189</ele>
        <time>2018-06-26T08:59:32Z</time>
      </trkpt>
      <trkpt lat="46.02434" lon="4.70765">
        <ele>189</ele>
        <time>2018-06-26T08:59:33Z</time>
      </trkpt>
      <trkpt lat="46.02438" lon="4.7076">
        <ele>189</ele>
        <time>2018-06-26T08:59:34Z</time>
      </trkpt>
      <trkpt lat="46.02441" lon="4.70756">
        <ele>189</ele>
        <time>2018-06-26T08:59:35Z</time>
      </trkpt>
      <trkpt lat="46.02445" lon="4.70746">
        <ele>190</ele>
        <time>2018-06-26T08:59:37Z</time>
      </trkpt>
      <trkpt lat="46.02447" lon="4.70743">
        <ele>190</ele>
        <time>2018-06-26T08:59:38Z</time>
      </trkpt>
      <trkpt lat="46.0245" lon="4.70734">
        <ele>190</ele>
        <time>2018-06-26T08:59:40Z</time>
      </trkpt>
      <trkpt lat="46.02454" lon="4.70724">
        <ele>190</ele>
        <time>2018-06-26T08:59:41Z</time>
      </trkpt>
      <trkpt lat="46.02455" lon="4.70716">
        <ele>190</ele>
        <time>2018-06-26T08:59:42Z</time>
      </trkpt>
      <trkpt lat="46.02457" lon="4.7071">
        <ele>190</ele>
        <time>2018-06-26T08:59:43Z</time>
      </trkpt>
      <trkpt lat="46.02461" lon="4.70699">
        <ele>190</ele>
        <time>2018-06-26T08:59:45Z</time>
      </trkpt>
      <trkpt lat="46.02462" lon="4.70691">
        <ele>190</ele>
        <time>2018-06-26T08:59:46Z</time>
      </trkpt>
      <trkpt lat="46.02465" lon="4.70679">
        <ele>190</ele>
        <time>2018-06-26T08:59:48Z</time>
      </trkpt>
      <trkpt lat="46.02467" lon="4.70673">
        <ele>190</ele>
        <time>2018-06-26T08:59:49Z</time>
      </trkpt>
      <trkpt lat="46.0247" lon="4.70668">
        <ele>190</ele>
        <time>2018-06-26T08:59:50Z</time>
      </trkpt>
      <trkpt lat="46.02471" lon="4.70661">
        <ele>189</ele>
        <time>2018-06-26T08:59:51Z</time>
      </trkpt>
      <trkpt lat="46.02473" lon="4.70654">
        <ele>189</ele>
        <time>2018-06-26T08:59:52Z</time>
      </trkpt>
      <trkpt lat="46.02474" lon="4.70648">
        <ele>189</ele>
        <time>2018-06-26T08:59:53Z</time>
      </trkpt>
      <trkpt lat="46.02475" lon="4.70644">
        <ele>189</ele>
        <time>2018-06-26T08:59:54Z</time>
      </trkpt>
      <trkpt lat="46.02477" lon="4.70634">
        <ele>188</ele>
        <time>2018-06-26T08:59:55Z</time>
      </trkpt>
      <trkpt lat="46.0248" lon="4.70628">
        <ele>188</ele>
        <time>2018-06-26T08:59:57Z</time>
      </trkpt>
      <trkpt lat="46.02493" lon="4.70621">
        <ele>188</ele>
        <time>2018-06-26T09:00:00Z</time>
      </trkpt>
      <trkpt lat="46.02499" lon="4.70622">
        <ele>188</ele>
        <time>2018-06-26T09:00:02Z</time>
      </trkpt>
      <trkpt lat="46.02506" lon="4.70625">
        <ele>189</ele>
        <time>2018-06-26T09:00:03Z</time>
      </trkpt>
      <trkpt lat="46.02512" lon="4.70627">
        <ele>189</ele>
        <time>2018-06-26T09:00:05Z</time>
      </trkpt>
      <trkpt lat="46.02518" lon="4.70629">
        <ele>189</ele>
        <time>2018-06-26T09:00:06Z</time>
      </trkpt>
      <trkpt lat="46.02523" lon="4.7063">
        <ele>189</ele>
        <time>2018-06-26T09:00:07Z</time>
      </trkpt>
      <trkpt lat="46.02528" lon="4.70632">
        <ele>189</ele>
        <time>2018-06-26T09:00:08Z</time>
      </trkpt>
      <trkpt lat="46.02536" lon="4.70636">
        <ele>189</ele>
        <time>2018-06-26T09:00:10Z</time>
      </trkpt>
      <trkpt lat="46.02541" lon="4.70637">
        <ele>189</ele>
        <time>2018-06-26T09:00:11Z</time>
      </trkpt>
      <trkpt lat="46.02549" lon="4.70639">
        <ele>189</ele>
        <time>2018-06-26T09:00:13Z</time>
      </trkpt>
      <trkpt lat="46.02554" lon="4.70639">
        <ele>189</ele>
        <time>2018-06-26T09:00:14Z</time>
      </trkpt>
      <trkpt lat="46.0256" lon="4.7064">
        <ele>189</ele>
        <time>2018-06-26T09:00:16Z</time>
      </trkpt>
      <trkpt lat="46.02567" lon="4.70641">
        <ele>189</ele>
        <time>2018-06-26T09:00:17Z</time>
      </trkpt>
      <trkpt lat="46.02575" lon="4.70644">
        <ele>190</ele>
        <time>2018-06-26T09:00:19Z</time>
      </trkpt>
      <trkpt lat="46.0258" lon="4.70645">
        <ele>190</ele>
        <time>2018-06-26T09:00:20Z</time>
      </trkpt>
      <trkpt lat="46.02584" lon="4.70645">
        <ele>190</ele>
        <time>2018-06-26T09:00:21Z</time>
      </trkpt>
      <trkpt lat="46.02589" lon="4.70646">
        <ele>190</ele>
        <time>2018-06-26T09:00:22Z</time>
      </trkpt>
      <trkpt lat="46.02597" lon="4.7065">
        <ele>190</ele>
        <time>2018-06-26T09:00:24Z</time>
      </trkpt>
      <trkpt lat="46.02601" lon="4.70651">
        <ele>190</ele>
        <time>2018-06-26T09:00:25Z</time>
      </trkpt>
      <trkpt lat="46.02606" lon="4.70651">
        <ele>190</ele>
        <time>2018-06-26T09:00:26Z</time>
      </trkpt>
      <trkpt lat="46.02611" lon="4.70651">
        <ele>190</ele>
        <time>2018-06-26T09:00:27Z</time>
      </trkpt>
      <trkpt lat="46.02619" lon="4.70653">
        <ele>190</ele>
        <time>2018-06-26T09:00:29Z</time>
      </trkpt>
      <trkpt lat="46.02623" lon="4.70654">
        <ele>190</ele>
        <time>2018-06-26T09:00:30Z</time>
      </trkpt>
      <trkpt lat="46.02631" lon="4.70657">
        <ele>190</ele>
        <time>2018-06-26T09:00:32Z</time>
      </trkpt>
      <trkpt lat="46.02636" lon="4.70658">
        <ele>190</ele>
        <time>2018-06-26T09:00:33Z</time>
      </trkpt>
      <trkpt lat="46.0264" lon="4.70656">
        <ele>190</ele>
        <time>2018-06-26T09:00:34Z</time>
      </trkpt>
      <trkpt lat="46.02645" lon="4.70656">
        <ele>190</ele>
        <time>2018-06-26T09:00:35Z</time>
      </trkpt>
      <trkpt lat="46.0265" lon="4.70656">
        <ele>190</ele>
        <time>2018-06-26T09:00:36Z</time>
      </trkpt>
      <trkpt lat="46.02655" lon="4.70655">
        <ele>190</ele>
        <time>2018-06-26T09:00:37Z</time>
      </trkpt>
      <trkpt lat="46.02661" lon="4.70655">
        <ele>190</ele>
        <time>2018-06-26T09:00:38Z</time>
      </trkpt>
      <trkpt lat="46.02665" lon="4.70655">
        <ele>190</ele>
        <time>2018-06-26T09:00:39Z</time>
      </trkpt>
      <trkpt lat="46.02671" lon="4.70656">
        <ele>190</ele>
        <time>2018-06-26T09:00:40Z</time>
      </trkpt>
      <trkpt lat="46.02675" lon="4.70656">
        <ele>190</ele>
        <time>2018-06-26T09:00:41Z</time>
      </trkpt>
      <trkpt lat="46.02684" lon="4.70659">
        <ele>190</ele>
        <time>2018-06-26T09:00:43Z</time>
      </trkpt>
      <trkpt lat="46.0269" lon="4.70657">
        <ele>190</ele>
        <time>2018-06-26T09:00:44Z</time>
      </trkpt>
      <trkpt lat="46.02694" lon="4.70658">
        <ele>189</ele>
        <time>2018-06-26T09:00:45Z</time>
      </trkpt>
      <trkpt lat="46.02699" lon="4.70658">
        <ele>189</ele>
        <time>2018-06-26T09:00:46Z</time>
      </trkpt>
      <trkpt lat="46.02703" lon="4.70659">
        <ele>189</ele>
        <time>2018-06-26T09:00:47Z</time>
      </trkpt>
      <trkpt lat="46.02708" lon="4.70659">
        <ele>189</ele>
        <time>2018-06-26T09:00:48Z</time>
      </trkpt>
      <trkpt lat="46.02713" lon="4.7066">
        <ele>189</ele>
        <time>2018-06-26T09:00:49Z</time>
      </trkpt>
      <trkpt lat="46.02717" lon="4.70663">
        <ele>189</ele>
        <time>2018-06-26T09:00:50Z</time>
      </trkpt>
      <trkpt lat="46.02721" lon="4.70664">
        <ele>189</ele>
        <time>2018-06-26T09:00:51Z</time>
      </trkpt>
      <trkpt lat="46.02726" lon="4.70665">
        <ele>189</ele>
        <time>2018-06-26T09:00:52Z</time>
      </trkpt>
      <trkpt lat="46.0273" lon="4.70666">
        <ele>189</ele>
        <time>2018-06-26T09:00:53Z</time>
      </trkpt>
      <trkpt lat="46.02736" lon="4.70667">
        <ele>189</ele>
        <time>2018-06-26T09:00:54Z</time>
      </trkpt>
      <trkpt lat="46.02741" lon="4.70668">
        <ele>189</ele>
        <time>2018-06-26T09:00:55Z</time>
      </trkpt>
      <trkpt lat="46.02746" lon="4.70667">
        <ele>189</ele>
        <time>2018-06-26T09:00:56Z</time>
      </trkpt>
      <trkpt lat="46.02751" lon="4.70668">
        <ele>189</ele>
        <time>2018-06-26T09:00:57Z</time>
      </trkpt>
      <trkpt lat="46.02756" lon="4.70669">
        <ele>189</ele>
        <time>2018-06-26T09:00:58Z</time>
      </trkpt>
      <trkpt lat="46.02762" lon="4.70669">
        <ele>189</ele>
        <time>2018-06-26T09:00:59Z</time>
      </trkpt>
      <trkpt lat="46.02767" lon="4.7067">
        <ele>189</ele>
        <time>2018-06-26T09:01:00Z</time>
      </trkpt>
      <trkpt lat="46.02774" lon="4.70672">
        <ele>189</ele>
        <time>2018-06-26T09:01:02Z</time>
      </trkpt>
      <trkpt lat="46.0278" lon="4.70672">
        <ele>189</ele>
        <time>2018-06-26T09:01:03Z</time>
      </trkpt>
      <trkpt lat="46.02789" lon="4.70672">
        <ele>189</ele>
        <time>2018-06-26T09:01:05Z</time>
      </trkpt>
      <trkpt lat="46.02792" lon="4.70673">
        <ele>189</ele>
        <time>2018-06-26T09:01:06Z</time>
      </trkpt>
      <trkpt lat="46.02799" lon="4.7067">
        <ele>189</ele>
        <time>2018-06-26T09:01:07Z</time>
      </trkpt>
      <trkpt lat="46.02804" lon="4.70669">
        <ele>189</ele>
        <time>2018-06-26T09:01:08Z</time>
      </trkpt>
      <trkpt lat="46.02813" lon="4.70669">
        <ele>189</ele>
        <time>2018-06-26T09:01:10Z</time>
      </trkpt>
      <trkpt lat="46.02819" lon="4.70668">
        <ele>189</ele>
        <time>2018-06-26T09:01:11Z</time>
      </trkpt>
      <trkpt lat="46.02824" lon="4.70667">
        <ele>189</ele>
        <time>2018-06-26T09:01:12Z</time>
      </trkpt>
      <trkpt lat="46.02829" lon="4.70666">
        <ele>189</ele>
        <time>2018-06-26T09:01:13Z</time>
      </trkpt>
      <trkpt lat="46.02834" lon="4.70666">
        <ele>189</ele>
        <time>2018-06-26T09:01:14Z</time>
      </trkpt>
      <trkpt lat="46.02838" lon="4.70665">
        <ele>189</ele>
        <time>2018-06-26T09:01:15Z</time>
      </trkpt>
      <trkpt lat="46.02843" lon="4.70664">
        <ele>189</ele>
        <time>2018-06-26T09:01:16Z</time>
      </trkpt>
      <trkpt lat="46.02848" lon="4.70663">
        <ele>190</ele>
        <time>2018-06-26T09:01:17Z</time>
      </trkpt>
      <trkpt lat="46.02853" lon="4.70663">
        <ele>190</ele>
        <time>2018-06-26T09:01:18Z</time>
      </trkpt>
      <trkpt lat="46.02858" lon="4.70663">
        <ele>190</ele>
        <time>2018-06-26T09:01:19Z</time>
      </trkpt>
      <trkpt lat="46.02861" lon="4.70663">
        <ele>190</ele>
        <time>2018-06-26T09:01:20Z</time>
      </trkpt>
      <trkpt lat="46.02868" lon="4.70662">
        <ele>190</ele>
        <time>2018-06-26T09:01:21Z</time>
      </trkpt>
      <trkpt lat="46.02873" lon="4.70662">
        <ele>190</ele>
        <time>2018-06-26T09:01:22Z</time>
      </trkpt>
      <trkpt lat="46.02878" lon="4.70662">
        <ele>190</ele>
        <time>2018-06-26T09:01:23Z</time>
      </trkpt>
      <trkpt lat="46.02883" lon="4.70661">
        <ele>190</ele>
        <time>2018-06-26T09:01:24Z</time>
      </trkpt>
      <trkpt lat="46.02887" lon="4.70661">
        <ele>190</ele>
        <time>2018-06-26T09:01:25Z</time>
      </trkpt>
      <trkpt lat="46.02896" lon="4.70659">
        <ele>190</ele>
        <time>2018-06-26T09:01:27Z</time>
      </trkpt>
      <trkpt lat="46.029" lon="4.70658">
        <ele>191</ele>
        <time>2018-06-26T09:01:28Z</time>
      </trkpt>
      <trkpt lat="46.02906" lon="4.70659">
        <ele>191</ele>
        <time>2018-06-26T09:01:29Z</time>
      </trkpt>
      <trkpt lat="46.02912" lon="4.70658">
        <ele>191</ele>
        <time>2018-06-26T09:01:30Z</time>
      </trkpt>
      <trkpt lat="46.02917" lon="4.70657">
        <ele>191</ele>
        <time>2018-06-26T09:01:31Z</time>
      </trkpt>
      <trkpt lat="46.02922" lon="4.70654">
        <ele>191</ele>
        <time>2018-06-26T09:01:32Z</time>
      </trkpt>
      <trkpt lat="46.02926" lon="4.70649">
        <ele>192</ele>
        <time>2018-06-26T09:01:33Z</time>
      </trkpt>
      <trkpt lat="46.02927" lon="4.70641">
        <ele>192</ele>
        <time>2018-06-26T09:01:34Z</time>
      </trkpt>
      <trkpt lat="46.02928" lon="4.70633">
        <ele>192</ele>
        <time>2018-06-26T09:01:35Z</time>
      </trkpt>
      <trkpt lat="46.0293" lon="4.70628">
        <ele>192</ele>
        <time>2018-06-26T09:01:36Z</time>
      </trkpt>
      <trkpt lat="46.0293" lon="4.70622">
        <ele>192</ele>
        <time>2018-06-26T09:01:37Z</time>
      </trkpt>
      <trkpt lat="46.02933" lon="4.70616">
        <ele>192</ele>
        <time>2018-06-26T09:01:38Z</time>
      </trkpt>
      <trkpt lat="46.02934" lon="4.7061">
        <ele>192</ele>
        <time>2018-06-26T09:01:39Z</time>
      </trkpt>
      <trkpt lat="46.02935" lon="4.70603">
        <ele>192</ele>
        <time>2018-06-26T09:01:40Z</time>
      </trkpt>
      <trkpt lat="46.02937" lon="4.70597">
        <ele>192</ele>
        <time>2018-06-26T09:01:41Z</time>
      </trkpt>
      <trkpt lat="46.02939" lon="4.70591">
        <ele>192</ele>
        <time>2018-06-26T09:01:42Z</time>
      </trkpt>
      <trkpt lat="46.02941" lon="4.70585">
        <ele>192</ele>
        <time>2018-06-26T09:01:43Z</time>
      </trkpt>
      <trkpt lat="46.02943" lon="4.70578">
        <ele>191</ele>
        <time>2018-06-26T09:01:44Z</time>
      </trkpt>
      <trkpt lat="46.02946" lon="4.70572">
        <ele>191</ele>
        <time>2018-06-26T09:01:45Z</time>
      </trkpt>
      <trkpt lat="46.02949" lon="4.70567">
        <ele>191</ele>
        <time>2018-06-26T09:01:46Z</time>
      </trkpt>
      <trkpt lat="46.02952" lon="4.70561">
        <ele>191</ele>
        <time>2018-06-26T09:01:47Z</time>
      </trkpt>
      <trkpt lat="46.02956" lon="4.70557">
        <ele>191</ele>
        <time>2018-06-26T09:01:48Z</time>
      </trkpt>
      <trkpt lat="46.0296" lon="4.70551">
        <ele>191</ele>
        <time>2018-06-26T09:01:49Z</time>
      </trkpt>
      <trkpt lat="46.02964" lon="4.70545">
        <ele>191</ele>
        <time>2018-06-26T09:01:50Z</time>
      </trkpt>
      <trkpt lat="46.02967" lon="4.70541">
        <ele>191</ele>
        <time>2018-06-26T09:01:51Z</time>
      </trkpt>
      <trkpt lat="46.02972" lon="4.70536">
        <ele>191</ele>
        <time>2018-06-26T09:01:52Z</time>
      </trkpt>
      <trkpt lat="46.02976" lon="4.70532">
        <ele>191</ele>
        <time>2018-06-26T09:01:53Z</time>
      </trkpt>
      <trkpt lat="46.02981" lon="4.70529">
        <ele>191</ele>
        <time>2018-06-26T09:01:54Z</time>
      </trkpt>
      <trkpt lat="46.02985" lon="4.70526">
        <ele>191</ele>
        <time>2018-06-26T09:01:55Z</time>
      </trkpt>
      <trkpt lat="46.02989" lon="4.70522">
        <ele>191</ele>
        <time>2018-06-26T09:01:56Z</time>
      </trkpt>
      <trkpt lat="46.02997" lon="4.70515">
        <ele>191</ele>
        <time>2018-06-26T09:01:58Z</time>
      </trkpt>
      <trkpt lat="46.03" lon="4.7051">
        <ele>191</ele>
        <time>2018-06-26T09:01:59Z</time>
      </trkpt>
      <trkpt lat="46.03005" lon="4.70507">
        <ele>191</ele>
        <time>2018-06-26T09:02:00Z</time>
      </trkpt>
      <trkpt lat="46.03008" lon="4.70503">
        <ele>191</ele>
        <time>2018-06-26T09:02:01Z</time>
      </trkpt>
      <trkpt lat="46.03016" lon="4.70496">
        <ele>191</ele>
        <time>2018-06-26T09:02:03Z</time>
      </trkpt>
      <trkpt lat="46.0302" lon="4.7049">
        <ele>191</ele>
        <time>2018-06-26T09:02:04Z</time>
      </trkpt>
      <trkpt lat="46.03025" lon="4.70485">
        <ele>191</ele>
        <time>2018-06-26T09:02:05Z</time>
      </trkpt>
      <trkpt lat="46.03029" lon="4.7048">
        <ele>191</ele>
        <time>2018-06-26T09:02:06Z</time>
      </trkpt>
      <trkpt lat="46.03033" lon="4.70477">
        <ele>191</ele>
        <time>2018-06-26T09:02:07Z</time>
      </trkpt>
      <trkpt lat="46.03037" lon="4.70474">
        <ele>191</ele>
        <time>2018-06-26T09:02:08Z</time>
      </trkpt>
      <trkpt lat="46.03041" lon="4.70471">
        <ele>191</ele>
        <time>2018-06-26T09:02:09Z</time>
      </trkpt>
      <trkpt lat="46.03046" lon="4.70466">
        <ele>191</ele>
        <time>2018-06-26T09:02:10Z</time>
      </trkpt>
      <trkpt lat="46.0305" lon="4.70463">
        <ele>191</ele>
        <time>2018-06-26T09:02:11Z</time>
      </trkpt>
      <trkpt lat="46.03054" lon="4.70459">
        <ele>191</ele>
        <time>2018-06-26T09:02:12Z</time>
      </trkpt>
      <trkpt lat="46.03061" lon="4.70453">
        <ele>191</ele>
        <time>2018-06-26T09:02:14Z</time>
      </trkpt>
      <trkpt lat="46.03066" lon="4.7045">
        <ele>191</ele>
        <time>2018-06-26T09:02:15Z</time>
      </trkpt>
      <trkpt lat="46.0307" lon="4.70447">
        <ele>191</ele>
        <time>2018-06-26T09:02:16Z</time>
      </trkpt>
      <trkpt lat="46.03076" lon="4.70445">
        <ele>191</ele>
        <time>2018-06-26T09:02:17Z</time>
      </trkpt>
      <trkpt lat="46.0308" lon="4.70442">
        <ele>191</ele>
        <time>2018-06-26T09:02:18Z</time>
      </trkpt>
      <trkpt lat="46.03086" lon="4.70441">
        <ele>192</ele>
        <time>2018-06-26T09:02:19Z</time>
      </trkpt>
      <trkpt lat="46.0309" lon="4.70438">
        <ele>192</ele>
        <time>2018-06-26T09:02:20Z</time>
      </trkpt>
      <trkpt lat="46.03094" lon="4.70436">
        <ele>192</ele>
        <time>2018-06-26T09:02:21Z</time>
      </trkpt>
      <trkpt lat="46.03099" lon="4.70433">
        <ele>192</ele>
        <time>2018-06-26T09:02:22Z</time>
      </trkpt>
      <trkpt lat="46.03104" lon="4.70431">
        <ele>192</ele>
        <time>2018-06-26T09:02:23Z</time>
      </trkpt>
      <trkpt lat="46.03108" lon="4.7043">
        <ele>192</ele>
        <time>2018-06-26T09:02:24Z</time>
      </trkpt>
      <trkpt lat="46.03113" lon="4.70428">
        <ele>192</ele>
        <time>2018-06-26T09:02:25Z</time>
      </trkpt>
      <trkpt lat="46.03121" lon="4.70426">
        <ele>192</ele>
        <time>2018-06-26T09:02:27Z</time>
      </trkpt>
      <trkpt lat="46.03127" lon="4.70423">
        <ele>192</ele>
        <time>2018-06-26T09:02:28Z</time>
      </trkpt>
      <trkpt lat="46.03132" lon="4.7042">
        <ele>192</ele>
        <time>2018-06-26T09:02:29Z</time>
      </trkpt>
      <trkpt lat="46.03137" lon="4.70418">
        <ele>192</ele>
        <time>2018-06-26T09:02:30Z</time>
      </trkpt>
      <trkpt lat="46.03142" lon="4.70416">
        <ele>192</ele>
        <time>2018-06-26T09:02:31Z</time>
      </trkpt>
      <trkpt lat="46.03147" lon="4.70415">
        <ele>192</ele>
        <time>2018-06-26T09:02:32Z</time>
      </trkpt>
      <trkpt lat="46.03151" lon="4.70411">
        <ele>192</ele>
        <time>2018-06-26T09:02:33Z</time>
      </trkpt>
      <trkpt lat="46.03156" lon="4.70408">
        <ele>192</ele>
        <time>2018-06-26T09:02:34Z</time>
      </trkpt>
      <trkpt lat="46.0316" lon="4.70407">
        <ele>192</ele>
        <time>2018-06-26T09:02:35Z</time>
      </trkpt>
      <trkpt lat="46.03164" lon="4.70404">
        <ele>192</ele>
        <time>2018-06-26T09:02:36Z</time>
      </trkpt>
      <trkpt lat="46.03172" lon="4.704">
        <ele>192</ele>
        <time>2018-06-26T09:02:38Z</time>
      </trkpt>
      <trkpt lat="46.03178" lon="4.70397">
        <ele>192</ele>
        <time>2018-06-26T09:02:39Z</time>
      </trkpt>
      <trkpt lat="46.03182" lon="4.70394">
        <ele>192</ele>
        <time>2018-06-26T09:02:40Z</time>
      </trkpt>
      <trkpt lat="46.03187" lon="4.70392">
        <ele>192</ele>
        <time>2018-06-26T09:02:41Z</time>
      </trkpt>
      <trkpt lat="46.03193" lon="4.7039">
        <ele>192</ele>
        <time>2018-06-26T09:02:42Z</time>
      </trkpt>
      <trkpt lat="46.03198" lon="4.70387">
        <ele>192</ele>
        <time>2018-06-26T09:02:43Z</time>
      </trkpt>
      <trkpt lat="46.03203" lon="4.70385">
        <ele>192</ele>
        <time>2018-06-26T09:02:44Z</time>
      </trkpt>
      <trkpt lat="46.03208" lon="4.70381">
        <ele>192</ele>
        <time>2018-06-26T09:02:45Z</time>
      </trkpt>
      <trkpt lat="46.03213" lon="4.70379">
        <ele>192</ele>
        <time>2018-06-26T09:02:46Z</time>
      </trkpt>
      <trkpt lat="46.03218" lon="4.70378">
        <ele>192</ele>
        <time>2018-06-26T09:02:47Z</time>
      </trkpt>
      <trkpt lat="46.03222" lon="4.70374">
        <ele>192</ele>
        <time>2018-06-26T09:02:48Z</time>
      </trkpt>
      <trkpt lat="46.03227" lon="4.70373">
        <ele>192</ele>
        <time>2018-06-26T09:02:49Z</time>
      </trkpt>
      <trkpt lat="46.03232" lon="4.70372">
        <ele>192</ele>
        <time>2018-06-26T09:02:50Z</time>
      </trkpt>
      <trkpt lat="46.03236" lon="4.70369">
        <ele>192</ele>
        <time>2018-06-26T09:02:51Z</time>
      </trkpt>
      <trkpt lat="46.03241" lon="4.70367">
        <ele>192</ele>
        <time>2018-06-26T09:02:52Z</time>
      </trkpt>
      <trkpt lat="46.03246" lon="4.70364">
        <ele>192</ele>
        <time>2018-06-26T09:02:53Z</time>
      </trkpt>
      <trkpt lat="46.03251" lon="4.70362">
        <ele>191</ele>
        <time>2018-06-26T09:02:54Z</time>
      </trkpt>
      <trkpt lat="46.03258" lon="4.7036">
        <ele>191</ele>
        <time>2018-06-26T09:02:55Z</time>
      </trkpt>
      <trkpt lat="46.03263" lon="4.70356">
        <ele>191</ele>
        <time>2018-06-26T09:02:56Z</time>
      </trkpt>
      <trkpt lat="46.03267" lon="4.70355">
        <ele>191</ele>
        <time>2018-06-26T09:02:57Z</time>
      </trkpt>
      <trkpt lat="46.03273" lon="4.70353">
        <ele>191</ele>
        <time>2018-06-26T09:02:58Z</time>
      </trkpt>
      <trkpt lat="46.03279" lon="4.7035">
        <ele>191</ele>
        <time>2018-06-26T09:02:59Z</time>
      </trkpt>
      <trkpt lat="46.03284" lon="4.70348">
        <ele>191</ele>
        <time>2018-06-26T09:03:00Z</time>
      </trkpt>
      <trkpt lat="46.03289" lon="4.70346">
        <ele>191</ele>
        <time>2018-06-26T09:03:01Z</time>
      </trkpt>
      <trkpt lat="46.03295" lon="4.70344">
        <ele>191</ele>
        <time>2018-06-26T09:03:02Z</time>
      </trkpt>
      <trkpt lat="46.033" lon="4.70341">
        <ele>191</ele>
        <time>2018-06-26T09:03:03Z</time>
      </trkpt>
      <trkpt lat="46.03305" lon="4.7034">
        <ele>191</ele>
        <time>2018-06-26T09:03:04Z</time>
      </trkpt>
      <trkpt lat="46.0331" lon="4.7034">
        <ele>191</ele>
        <time>2018-06-26T09:03:05Z</time>
      </trkpt>
      <trkpt lat="46.03315" lon="4.70339">
        <ele>191</ele>
        <time>2018-06-26T09:03:06Z</time>
      </trkpt>
      <trkpt lat="46.03318" lon="4.70334">
        <ele>191</ele>
        <time>2018-06-26T09:03:07Z</time>
      </trkpt>
      <trkpt lat="46.03323" lon="4.70332">
        <ele>192</ele>
        <time>2018-06-26T09:03:08Z</time>
      </trkpt>
      <trkpt lat="46.03327" lon="4.70329">
        <ele>192</ele>
        <time>2018-06-26T09:03:09Z</time>
      </trkpt>
      <trkpt lat="46.03333" lon="4.70327">
        <ele>191</ele>
        <time>2018-06-26T09:03:10Z</time>
      </trkpt>
      <trkpt lat="46.03341" lon="4.70324">
        <ele>191</ele>
        <time>2018-06-26T09:03:11Z</time>
      </trkpt>
      <trkpt lat="46.03348" lon="4.70322">
        <ele>191</ele>
        <time>2018-06-26T09:03:12Z</time>
      </trkpt>
      <trkpt lat="46.03355" lon="4.7032">
        <ele>191</ele>
        <time>2018-06-26T09:03:13Z</time>
      </trkpt>
      <trkpt lat="46.03362" lon="4.70318">
        <ele>191</ele>
        <time>2018-06-26T09:03:14Z</time>
      </trkpt>
      <trkpt lat="46.03369" lon="4.70316">
        <ele>191</ele>
        <time>2018-06-26T09:03:15Z</time>
      </trkpt>
      <trkpt lat="46.03376" lon="4.70313">
        <ele>191</ele>
        <time>2018-06-26T09:03:16Z</time>
      </trkpt>
      <trkpt lat="46.03383" lon="4.70312">
        <ele>191</ele>
        <time>2018-06-26T09:03:17Z</time>
      </trkpt>
      <trkpt lat="46.0339" lon="4.7031">
        <ele>191</ele>
        <time>2018-06-26T09:03:18Z</time>
      </trkpt>
      <trkpt lat="46.03395" lon="4.70307">
        <ele>190</ele>
        <time>2018-06-26T09:03:19Z</time>
      </trkpt>
      <trkpt lat="46.034" lon="4.70304">
        <ele>190</ele>
        <time>2018-06-26T09:03:20Z</time>
      </trkpt>
      <trkpt lat="46.03405" lon="4.70299">
        <ele>190</ele>
        <time>2018-06-26T09:03:21Z</time>
      </trkpt>
      <trkpt lat="46.03412" lon="4.70296">
        <ele>190</ele>
        <time>2018-06-26T09:03:22Z</time>
      </trkpt>
      <trkpt lat="46.03418" lon="4.70293">
        <ele>189</ele>
        <time>2018-06-26T09:03:23Z</time>
      </trkpt>
      <trkpt lat="46.03425" lon="4.70291">
        <ele>189</ele>
        <time>2018-06-26T09:03:24Z</time>
      </trkpt>
      <trkpt lat="46.03431" lon="4.70288">
        <ele>189</ele>
        <time>2018-06-26T09:03:25Z</time>
      </trkpt>
      <trkpt lat="46.03437" lon="4.70287">
        <ele>188</ele>
        <time>2018-06-26T09:03:26Z</time>
      </trkpt>
      <trkpt lat="46.03443" lon="4.70285">
        <ele>188</ele>
        <time>2018-06-26T09:03:27Z</time>
      </trkpt>
      <trkpt lat="46.03449" lon="4.70283">
        <ele>188</ele>
        <time>2018-06-26T09:03:28Z</time>
      </trkpt>
      <trkpt lat="46.03456" lon="4.70282">
        <ele>188</ele>
        <time>2018-06-26T09:03:29Z</time>
      </trkpt>
      <trkpt lat="46.03462" lon="4.70279">
        <ele>188</ele>
        <time>2018-06-26T09:03:30Z</time>
      </trkpt>
      <trkpt lat="46.03466" lon="4.70279">
        <ele>188</ele>
        <time>2018-06-26T09:03:31Z</time>
      </trkpt>
      <trkpt lat="46.03472" lon="4.70277">
        <ele>188</ele>
        <time>2018-06-26T09:03:32Z</time>
      </trkpt>
      <trkpt lat="46.03481" lon="4.70274">
        <ele>188</ele>
        <time>2018-06-26T09:03:33Z</time>
      </trkpt>
      <trkpt lat="46.03486" lon="4.70271">
        <ele>188</ele>
        <time>2018-06-26T09:03:34Z</time>
      </trkpt>
      <trkpt lat="46.03494" lon="4.70269">
        <ele>188</ele>
        <time>2018-06-26T09:03:35Z</time>
      </trkpt>
      <trkpt lat="46.03498" lon="4.70267">
        <ele>187</ele>
        <time>2018-06-26T09:03:36Z</time>
      </trkpt>
      <trkpt lat="46.03503" lon="4.70265">
        <ele>187</ele>
        <time>2018-06-26T09:03:37Z</time>
      </trkpt>
      <trkpt lat="46.03508" lon="4.70264">
        <ele>187</ele>
        <time>2018-06-26T09:03:38Z</time>
      </trkpt>
      <trkpt lat="46.03513" lon="4.70263">
        <ele>187</ele>
        <time>2018-06-26T09:03:39Z</time>
      </trkpt>
      <trkpt lat="46.03519" lon="4.70261">
        <ele>187</ele>
        <time>2018-06-26T09:03:40Z</time>
      </trkpt>
      <trkpt lat="46.03524" lon="4.70258">
        <ele>187</ele>
        <time>2018-06-26T09:03:41Z</time>
      </trkpt>
      <trkpt lat="46.03529" lon="4.70256">
        <ele>187</ele>
        <time>2018-06-26T09:03:42Z</time>
      </trkpt>
      <trkpt lat="46.03536" lon="4.70254">
        <ele>188</ele>
        <time>2018-06-26T09:03:43Z</time>
      </trkpt>
      <trkpt lat="46.03539" lon="4.70252">
        <ele>188</ele>
        <time>2018-06-26T09:03:44Z</time>
      </trkpt>
      <trkpt lat="46.03545" lon="4.7025">
        <ele>189</ele>
        <time>2018-06-26T09:03:45Z</time>
      </trkpt>
      <trkpt lat="46.03554" lon="4.70247">
        <ele>190</ele>
        <time>2018-06-26T09:03:47Z</time>
      </trkpt>
      <trkpt lat="46.03557" lon="4.70247">
        <ele>190</ele>
        <time>2018-06-26T09:03:48Z</time>
      </trkpt>
      <trkpt lat="46.03563" lon="4.70245">
        <ele>190</ele>
        <time>2018-06-26T09:03:49Z</time>
      </trkpt>
      <trkpt lat="46.03569" lon="4.70239">
        <ele>190</ele>
        <time>2018-06-26T09:03:50Z</time>
      </trkpt>
      <trkpt lat="46.03574" lon="4.70237">
        <ele>190</ele>
        <time>2018-06-26T09:03:51Z</time>
      </trkpt>
      <trkpt lat="46.03578" lon="4.70232">
        <ele>190</ele>
        <time>2018-06-26T09:03:52Z</time>
      </trkpt>
      <trkpt lat="46.03584" lon="4.7023">
        <ele>190</ele>
        <time>2018-06-26T09:03:53Z</time>
      </trkpt>
      <trkpt lat="46.03589" lon="4.70228">
        <ele>190</ele>
        <time>2018-06-26T09:03:54Z</time>
      </trkpt>
      <trkpt lat="46.03594" lon="4.70225">
        <ele>190</ele>
        <time>2018-06-26T09:03:55Z</time>
      </trkpt>
      <trkpt lat="46.03601" lon="4.70221">
        <ele>190</ele>
        <time>2018-06-26T09:03:56Z</time>
      </trkpt>
      <trkpt lat="46.03608" lon="4.7022">
        <ele>190</ele>
        <time>2018-06-26T09:03:57Z</time>
      </trkpt>
      <trkpt lat="46.03613" lon="4.70218">
        <ele>190</ele>
        <time>2018-06-26T09:03:58Z</time>
      </trkpt>
      <trkpt lat="46.03619" lon="4.70218">
        <ele>190</ele>
        <time>2018-06-26T09:03:59Z</time>
      </trkpt>
      <trkpt lat="46.03624" lon="4.70216">
        <ele>190</ele>
        <time>2018-06-26T09:04:00Z</time>
      </trkpt>
      <trkpt lat="46.03629" lon="4.70216">
        <ele>190</ele>
        <time>2018-06-26T09:04:01Z</time>
      </trkpt>
      <trkpt lat="46.03634" lon="4.70214">
        <ele>190</ele>
        <time>2018-06-26T09:04:02Z</time>
      </trkpt>
      <trkpt lat="46.03643" lon="4.70211">
        <ele>190</ele>
        <time>2018-06-26T09:04:03Z</time>
      </trkpt>
      <trkpt lat="46.03648" lon="4.70208">
        <ele>190</ele>
        <time>2018-06-26T09:04:04Z</time>
      </trkpt>
      <trkpt lat="46.03654" lon="4.70209">
        <ele>190</ele>
        <time>2018-06-26T09:04:05Z</time>
      </trkpt>
      <trkpt lat="46.03658" lon="4.70206">
        <ele>190</ele>
        <time>2018-06-26T09:04:06Z</time>
      </trkpt>
      <trkpt lat="46.03663" lon="4.70203">
        <ele>190</ele>
        <time>2018-06-26T09:04:07Z</time>
      </trkpt>
      <trkpt lat="46.03669" lon="4.70203">
        <ele>189</ele>
        <time>2018-06-26T09:04:08Z</time>
      </trkpt>
      <trkpt lat="46.03674" lon="4.70201">
        <ele>189</ele>
        <time>2018-06-26T09:04:09Z</time>
      </trkpt>
      <trkpt lat="46.03679" lon="4.70199">
        <ele>189</ele>
        <time>2018-06-26T09:04:10Z</time>
      </trkpt>
      <trkpt lat="46.03684" lon="4.70198">
        <ele>189</ele>
        <time>2018-06-26T09:04:11Z</time>
      </trkpt>
      <trkpt lat="46.03691" lon="4.70197">
        <ele>189</ele>
        <time>2018-06-26T09:04:12Z</time>
      </trkpt>
      <trkpt lat="46.03696" lon="4.70195">
        <ele>189</ele>
        <time>2018-06-26T09:04:13Z</time>
      </trkpt>
      <trkpt lat="46.03702" lon="4.70193">
        <ele>189</ele>
        <time>2018-06-26T09:04:14Z</time>
      </trkpt>
      <trkpt lat="46.03707" lon="4.7019">
        <ele>188</ele>
        <time>2018-06-26T09:04:15Z</time>
      </trkpt>
      <trkpt lat="46.03713" lon="4.70189">
        <ele>188</ele>
        <time>2018-06-26T09:04:16Z</time>
      </trkpt>
      <trkpt lat="46.03718" lon="4.70187">
        <ele>188</ele>
        <time>2018-06-26T09:04:17Z</time>
      </trkpt>
      <trkpt lat="46.03723" lon="4.70185">
        <ele>188</ele>
        <time>2018-06-26T09:04:18Z</time>
      </trkpt>
      <trkpt lat="46.03728" lon="4.70184">
        <ele>188</ele>
        <time>2018-06-26T09:04:19Z</time>
      </trkpt>
      <trkpt lat="46.03733" lon="4.70183">
        <ele>188</ele>
        <time>2018-06-26T09:04:20Z</time>
      </trkpt>
      <trkpt lat="46.03742" lon="4.70185">
        <ele>188</ele>
        <time>2018-06-26T09:04:22Z</time>
      </trkpt>
      <trkpt lat="46.03747" lon="4.70182">
        <ele>187</ele>
        <time>2018-06-26T09:04:23Z</time>
      </trkpt>
      <trkpt lat="46.03753" lon="4.70179">
        <ele>188</ele>
        <time>2018-06-26T09:04:24Z</time>
      </trkpt>
      <trkpt lat="46.03758" lon="4.70177">
        <ele>188</ele>
        <time>2018-06-26T09:04:25Z</time>
      </trkpt>
      <trkpt lat="46.03762" lon="4.70175">
        <ele>188</ele>
        <time>2018-06-26T09:04:26Z</time>
      </trkpt>
      <trkpt lat="46.03769" lon="4.7017">
        <ele>188</ele>
        <time>2018-06-26T09:04:27Z</time>
      </trkpt>
      <trkpt lat="46.03775" lon="4.70169">
        <ele>189</ele>
        <time>2018-06-26T09:04:28Z</time>
      </trkpt>
      <trkpt lat="46.0378" lon="4.70166">
        <ele>189</ele>
        <time>2018-06-26T09:04:29Z</time>
      </trkpt>
      <trkpt lat="46.03787" lon="4.70162">
        <ele>189</ele>
        <time>2018-06-26T09:04:31Z</time>
      </trkpt>
      <trkpt lat="46.03791" lon="4.70163">
        <ele>189</ele>
        <time>2018-06-26T09:04:32Z</time>
      </trkpt>
      <trkpt lat="46.03796" lon="4.7016">
        <ele>189</ele>
        <time>2018-06-26T09:04:33Z</time>
      </trkpt>
      <trkpt lat="46.03801" lon="4.70159">
        <ele>190</ele>
        <time>2018-06-26T09:04:34Z</time>
      </trkpt>
      <trkpt lat="46.03807" lon="4.70155">
        <ele>190</ele>
        <time>2018-06-26T09:04:35Z</time>
      </trkpt>
      <trkpt lat="46.03811" lon="4.70154">
        <ele>190</ele>
        <time>2018-06-26T09:04:36Z</time>
      </trkpt>
      <trkpt lat="46.03816" lon="4.7015">
        <ele>190</ele>
        <time>2018-06-26T09:04:37Z</time>
      </trkpt>
      <trkpt lat="46.03822" lon="4.70146">
        <ele>190</ele>
        <time>2018-06-26T09:04:38Z</time>
      </trkpt>
      <trkpt lat="46.03827" lon="4.70145">
        <ele>190</ele>
        <time>2018-06-26T09:04:39Z</time>
      </trkpt>
      <trkpt lat="46.03831" lon="4.70143">
        <ele>190</ele>
        <time>2018-06-26T09:04:40Z</time>
      </trkpt>
      <trkpt lat="46.03837" lon="4.70141">
        <ele>192</ele>
        <time>2018-06-26T09:04:41Z</time>
      </trkpt>
      <trkpt lat="46.03842" lon="4.7014">
        <ele>192</ele>
        <time>2018-06-26T09:04:42Z</time>
      </trkpt>
      <trkpt lat="46.03848" lon="4.70139">
        <ele>192</ele>
        <time>2018-06-26T09:04:43Z</time>
      </trkpt>
      <trkpt lat="46.03856" lon="4.70137">
        <ele>193</ele>
        <time>2018-06-26T09:04:44Z</time>
      </trkpt>
      <trkpt lat="46.03863" lon="4.70133">
        <ele>193</ele>
        <time>2018-06-26T09:04:45Z</time>
      </trkpt>
      <trkpt lat="46.03869" lon="4.7013">
        <ele>193</ele>
        <time>2018-06-26T09:04:46Z</time>
      </trkpt>
      <trkpt lat="46.03875" lon="4.70128">
        <ele>193</ele>
        <time>2018-06-26T09:04:47Z</time>
      </trkpt>
      <trkpt lat="46.0388" lon="4.70127">
        <ele>193</ele>
        <time>2018-06-26T09:04:48Z</time>
      </trkpt>
      <trkpt lat="46.03888" lon="4.70124">
        <ele>193</ele>
        <time>2018-06-26T09:04:50Z</time>
      </trkpt>
      <trkpt lat="46.0389" lon="4.70125">
        <ele>193</ele>
        <time>2018-06-26T09:04:51Z</time>
      </trkpt>
      <trkpt lat="46.03897" lon="4.70122">
        <ele>194</ele>
        <time>2018-06-26T09:04:53Z</time>
      </trkpt>
      <trkpt lat="46.03901" lon="4.70121">
        <ele>194</ele>
        <time>2018-06-26T09:04:54Z</time>
      </trkpt>
      <trkpt lat="46.03909" lon="4.70118">
        <ele>194</ele>
        <time>2018-06-26T09:04:56Z</time>
      </trkpt>
      <trkpt lat="46.03914" lon="4.70113">
        <ele>194</ele>
        <time>2018-06-26T09:04:57Z</time>
      </trkpt>
      <trkpt lat="46.0392" lon="4.7011">
        <ele>196</ele>
        <time>2018-06-26T09:04:59Z</time>
      </trkpt>
      <trkpt lat="46.03927" lon="4.70107">
        <ele>196</ele>
        <time>2018-06-26T09:05:00Z</time>
      </trkpt>
      <trkpt lat="46.03935" lon="4.70106">
        <ele>196</ele>
        <time>2018-06-26T09:05:04Z</time>
      </trkpt>
      <trkpt lat="46.03938" lon="4.70105">
        <ele>196</ele>
        <time>2018-06-26T09:05:05Z</time>
      </trkpt>
      <trkpt lat="46.0394" lon="4.70104">
        <ele>196</ele>
        <time>2018-06-26T09:05:06Z</time>
      </trkpt>
      <trkpt lat="46.0395" lon="4.70101">
        <ele>196</ele>
        <time>2018-06-26T09:05:07Z</time>
      </trkpt>
      <trkpt lat="46.03958" lon="4.70098">
        <ele>196</ele>
        <time>2018-06-26T09:05:09Z</time>
      </trkpt>
      <trkpt lat="46.03962" lon="4.70098">
        <ele>196</ele>
        <time>2018-06-26T09:05:10Z</time>
      </trkpt>
      <trkpt lat="46.03971" lon="4.70098">
        <ele>196</ele>
        <time>2018-06-26T09:05:12Z</time>
      </trkpt>
      <trkpt lat="46.03975" lon="4.70097">
        <ele>196</ele>
        <time>2018-06-26T09:05:13Z</time>
      </trkpt>
      <trkpt lat="46.03983" lon="4.70096">
        <ele>196</ele>
        <time>2018-06-26T09:05:15Z</time>
      </trkpt>
      <trkpt lat="46.03987" lon="4.70096">
        <ele>196</ele>
        <time>2018-06-26T09:05:16Z</time>
      </trkpt>
      <trkpt lat="46.03994" lon="4.70095">
        <ele>196</ele>
        <time>2018-06-26T09:05:18Z</time>
      </trkpt>
      <trkpt lat="46.03996" lon="4.70095">
        <ele>196</ele>
        <time>2018-06-26T09:05:19Z</time>
      </trkpt>
      <trkpt lat="46.04001" lon="4.70094">
        <ele>196</ele>
        <time>2018-06-26T09:05:20Z</time>
      </trkpt>
      <trkpt lat="46.04006" lon="4.70093">
        <ele>196</ele>
        <time>2018-06-26T09:05:21Z</time>
      </trkpt>
      <trkpt lat="46.04011" lon="4.70091">
        <ele>196</ele>
        <time>2018-06-26T09:05:22Z</time>
      </trkpt>
      <trkpt lat="46.04016" lon="4.7009">
        <ele>195</ele>
        <time>2018-06-26T09:05:23Z</time>
      </trkpt>
      <trkpt lat="46.04021" lon="4.70089">
        <ele>195</ele>
        <time>2018-06-26T09:05:24Z</time>
      </trkpt>
      <trkpt lat="46.04025" lon="4.70088">
        <ele>195</ele>
        <time>2018-06-26T09:05:25Z</time>
      </trkpt>
      <trkpt lat="46.04031" lon="4.70088">
        <ele>195</ele>
        <time>2018-06-26T09:05:26Z</time>
      </trkpt>
      <trkpt lat="46.04036" lon="4.70087">
        <ele>195</ele>
        <time>2018-06-26T09:05:27Z</time>
      </trkpt>
      <trkpt lat="46.04042" lon="4.70087">
        <ele>195</ele>
        <time>2018-06-26T09:05:28Z</time>
      </trkpt>
      <trkpt lat="46.04045" lon="4.70089">
        <ele>195</ele>
        <time>2018-06-26T09:05:29Z</time>
      </trkpt>
      <trkpt lat="46.0405" lon="4.70089">
        <ele>195</ele>
        <time>2018-06-26T09:05:31Z</time>
      </trkpt>
      <trkpt lat="46.04057" lon="4.7009">
        <ele>195</ele>
        <time>2018-06-26T09:05:32Z</time>
      </trkpt>
      <trkpt lat="46.0406" lon="4.70089">
        <ele>195</ele>
        <time>2018-06-26T09:05:33Z</time>
      </trkpt>
      <trkpt lat="46.04069" lon="4.70088">
        <ele>194</ele>
        <time>2018-06-26T09:05:34Z</time>
      </trkpt>
      <trkpt lat="46.04073" lon="4.70088">
        <ele>194</ele>
        <time>2018-06-26T09:05:35Z</time>
      </trkpt>
      <trkpt lat="46.0408" lon="4.70087">
        <ele>194</ele>
        <time>2018-06-26T09:05:36Z</time>
      </trkpt>
      <trkpt lat="46.04085" lon="4.70085">
        <ele>194</ele>
        <time>2018-06-26T09:05:37Z</time>
      </trkpt>
      <trkpt lat="46.0409" lon="4.70083">
        <ele>194</ele>
        <time>2018-06-26T09:05:38Z</time>
      </trkpt>
      <trkpt lat="46.04094" lon="4.70081">
        <ele>193</ele>
        <time>2018-06-26T09:05:39Z</time>
      </trkpt>
      <trkpt lat="46.04101" lon="4.70077">
        <ele>193</ele>
        <time>2018-06-26T09:05:40Z</time>
      </trkpt>
      <trkpt lat="46.04107" lon="4.70073">
        <ele>193</ele>
        <time>2018-06-26T09:05:41Z</time>
      </trkpt>
      <trkpt lat="46.04111" lon="4.70072">
        <ele>192</ele>
        <time>2018-06-26T09:05:42Z</time>
      </trkpt>
      <trkpt lat="46.04117" lon="4.70068">
        <ele>192</ele>
        <time>2018-06-26T09:05:44Z</time>
      </trkpt>
      <trkpt lat="46.04124" lon="4.70066">
        <ele>192</ele>
        <time>2018-06-26T09:05:45Z</time>
      </trkpt>
      <trkpt lat="46.04129" lon="4.70059">
        <ele>192</ele>
        <time>2018-06-26T09:05:47Z</time>
      </trkpt>
      <trkpt lat="46.04134" lon="4.70055">
        <ele>192</ele>
        <time>2018-06-26T09:05:48Z</time>
      </trkpt>
      <trkpt lat="46.0414" lon="4.70052">
        <ele>192</ele>
        <time>2018-06-26T09:05:49Z</time>
      </trkpt>
      <trkpt lat="46.04147" lon="4.70044">
        <ele>191</ele>
        <time>2018-06-26T09:05:50Z</time>
      </trkpt>
      <trkpt lat="46.04152" lon="4.70043">
        <ele>191</ele>
        <time>2018-06-26T09:05:51Z</time>
      </trkpt>
      <trkpt lat="46.04159" lon="4.70038">
        <ele>191</ele>
        <time>2018-06-26T09:05:52Z</time>
      </trkpt>
      <trkpt lat="46.04165" lon="4.70035">
        <ele>191</ele>
        <time>2018-06-26T09:05:53Z</time>
      </trkpt>
      <trkpt lat="46.0417" lon="4.70033">
        <ele>189</ele>
        <time>2018-06-26T09:05:54Z</time>
      </trkpt>
      <trkpt lat="46.04176" lon="4.70027">
        <ele>189</ele>
        <time>2018-06-26T09:05:56Z</time>
      </trkpt>
      <trkpt lat="46.04182" lon="4.70022">
        <ele>189</ele>
        <time>2018-06-26T09:05:57Z</time>
      </trkpt>
      <trkpt lat="46.04186" lon="4.70018">
        <ele>189</ele>
        <time>2018-06-26T09:05:58Z</time>
      </trkpt>
      <trkpt lat="46.0419" lon="4.70014">
        <ele>188</ele>
        <time>2018-06-26T09:05:59Z</time>
      </trkpt>
      <trkpt lat="46.04194" lon="4.70011">
        <ele>188</ele>
        <time>2018-06-26T09:06:00Z</time>
      </trkpt>
      <trkpt lat="46.04198" lon="4.70007">
        <ele>188</ele>
        <time>2018-06-26T09:06:01Z</time>
      </trkpt>
      <trkpt lat="46.04205" lon="4.70001">
        <ele>188</ele>
        <time>2018-06-26T09:06:03Z</time>
      </trkpt>
      <trkpt lat="46.04208" lon="4.69998">
        <ele>188</ele>
        <time>2018-06-26T09:06:04Z</time>
      </trkpt>
      <trkpt lat="46.04212" lon="4.69994">
        <ele>188</ele>
        <time>2018-06-26T09:06:05Z</time>
      </trkpt>
      <trkpt lat="46.04217" lon="4.69991">
        <ele>188</ele>
        <time>2018-06-26T09:06:06Z</time>
      </trkpt>
      <trkpt lat="46.04222" lon="4.69988">
        <ele>188</ele>
        <time>2018-06-26T09:06:07Z</time>
      </trkpt>
      <trkpt lat="46.04226" lon="4.69984">
        <ele>188</ele>
        <time>2018-06-26T09:06:08Z</time>
      </trkpt>
      <trkpt lat="46.04231" lon="4.69982">
        <ele>188</ele>
        <time>2018-06-26T09:06:09Z</time>
      </trkpt>
      <trkpt lat="46.04235" lon="4.69979">
        <ele>188</ele>
        <time>2018-06-26T09:06:10Z</time>
      </trkpt>
      <trkpt lat="46.04241" lon="4.69972">
        <ele>188</ele>
        <time>2018-06-26T09:06:12Z</time>
      </trkpt>
      <trkpt lat="46.04244" lon="4.69968">
        <ele>188</ele>
        <time>2018-06-26T09:06:13Z</time>
      </trkpt>
      <trkpt lat="46.04248" lon="4.69965">
        <ele>188</ele>
        <time>2018-06-26T09:06:14Z</time>
      </trkpt>
      <trkpt lat="46.04253" lon="4.69962">
        <ele>188</ele>
        <time>2018-06-26T09:06:15Z</time>
      </trkpt>
      <trkpt lat="46.04256" lon="4.69957">
        <ele>188</ele>
        <time>2018-06-26T09:06:16Z</time>
      </trkpt>
      <trkpt lat="46.0426" lon="4.69953">
        <ele>188</ele>
        <time>2018-06-26T09:06:17Z</time>
      </trkpt>
      <trkpt lat="46.04264" lon="4.69948">
        <ele>188</ele>
        <time>2018-06-26T09:06:18Z</time>
      </trkpt>
      <trkpt lat="46.04268" lon="4.69943">
        <ele>189</ele>
        <time>2018-06-26T09:06:19Z</time>
      </trkpt>
      <trkpt lat="46.04273" lon="4.6994">
        <ele>189</ele>
        <time>2018-06-26T09:06:20Z</time>
      </trkpt>
      <trkpt lat="46.04276" lon="4.69935">
        <ele>189</ele>
        <time>2018-06-26T09:06:21Z</time>
      </trkpt>
      <trkpt lat="46.0428" lon="4.69931">
        <ele>189</ele>
        <time>2018-06-26T09:06:22Z</time>
      </trkpt>
      <trkpt lat="46.04284" lon="4.69927">
        <ele>189</ele>
        <time>2018-06-26T09:06:23Z</time>
      </trkpt>
      <trkpt lat="46.04291" lon="4.69919">
        <ele>189</ele>
        <time>2018-06-26T09:06:25Z</time>
      </trkpt>
      <trkpt lat="46.04294" lon="4.69916">
        <ele>190</ele>
        <time>2018-06-26T09:06:26Z</time>
      </trkpt>
      <trkpt lat="46.043" lon="4.6991">
        <ele>190</ele>
        <time>2018-06-26T09:06:28Z</time>
      </trkpt>
      <trkpt lat="46.04303" lon="4.69903">
        <ele>190</ele>
        <time>2018-06-26T09:06:29Z</time>
      </trkpt>
      <trkpt lat="46.04307" lon="4.69898">
        <ele>190</ele>
        <time>2018-06-26T09:06:30Z</time>
      </trkpt>
      <trkpt lat="46.0431" lon="4.69892">
        <ele>190</ele>
        <time>2018-06-26T09:06:31Z</time>
      </trkpt>
      <trkpt lat="46.04314" lon="4.69887">
        <ele>190</ele>
        <time>2018-06-26T09:06:32Z</time>
      </trkpt>
      <trkpt lat="46.04317" lon="4.69881">
        <ele>190</ele>
        <time>2018-06-26T09:06:33Z</time>
      </trkpt>
      <trkpt lat="46.04322" lon="4.69871">
        <ele>191</ele>
        <time>2018-06-26T09:06:35Z</time>
      </trkpt>
      <trkpt lat="46.04324" lon="4.69865">
        <ele>191</ele>
        <time>2018-06-26T09:06:36Z</time>
      </trkpt>
      <trkpt lat="46.04329" lon="4.69856">
        <ele>191</ele>
        <time>2018-06-26T09:06:38Z</time>
      </trkpt>
      <trkpt lat="46.04332" lon="4.69852">
        <ele>191</ele>
        <time>2018-06-26T09:06:39Z</time>
      </trkpt>
      <trkpt lat="46.04339" lon="4.69844">
        <ele>192</ele>
        <time>2018-06-26T09:06:41Z</time>
      </trkpt>
      <trkpt lat="46.04342" lon="4.69841">
        <ele>192</ele>
        <time>2018-06-26T09:06:42Z</time>
      </trkpt>
      <trkpt lat="46.04347" lon="4.69834">
        <ele>192</ele>
        <time>2018-06-26T09:06:44Z</time>
      </trkpt>
      <trkpt lat="46.04351" lon="4.69832">
        <ele>193</ele>
        <time>2018-06-26T09:06:45Z</time>
      </trkpt>
      <trkpt lat="46.04357" lon="4.69828">
        <ele>193</ele>
        <time>2018-06-26T09:06:47Z</time>
      </trkpt>
      <trkpt lat="46.04361" lon="4.69825">
        <ele>193</ele>
        <time>2018-06-26T09:06:48Z</time>
      </trkpt>
      <trkpt lat="46.04368" lon="4.69821">
        <ele>194</ele>
        <time>2018-06-26T09:06:50Z</time>
      </trkpt>
      <trkpt lat="46.04372" lon="4.69819">
        <ele>194</ele>
        <time>2018-06-26T09:06:51Z</time>
      </trkpt>
      <trkpt lat="46.04379" lon="4.69815">
        <ele>194</ele>
        <time>2018-06-26T09:06:54Z</time>
      </trkpt>
      <trkpt lat="46.04382" lon="4.69814">
        <ele>194</ele>
        <time>2018-06-26T09:06:55Z</time>
      </trkpt>
      <trkpt lat="46.04384" lon="4.69813">
        <ele>194</ele>
        <time>2018-06-26T09:06:56Z</time>
      </trkpt>
      <trkpt lat="46.04392" lon="4.69809">
        <ele>194</ele>
        <time>2018-06-26T09:06:57Z</time>
      </trkpt>
      <trkpt lat="46.044" lon="4.69807">
        <ele>194</ele>
        <time>2018-06-26T09:06:59Z</time>
      </trkpt>
      <trkpt lat="46.04402" lon="4.69806">
        <ele>194</ele>
        <time>2018-06-26T09:07:00Z</time>
      </trkpt>
      <trkpt lat="46.04409" lon="4.69805">
        <ele>194</ele>
        <time>2018-06-26T09:07:03Z</time>
      </trkpt>
      <trkpt lat="46.04412" lon="4.69804">
        <ele>194</ele>
        <time>2018-06-26T09:07:04Z</time>
      </trkpt>
      <trkpt lat="46.04416" lon="4.69803">
        <ele>194</ele>
        <time>2018-06-26T09:07:05Z</time>
      </trkpt>
      <trkpt lat="46.04424" lon="4.69801">
        <ele>196</ele>
        <time>2018-06-26T09:07:06Z</time>
      </trkpt>
      <trkpt lat="46.04431" lon="4.698">
        <ele>196</ele>
        <time>2018-06-26T09:07:08Z</time>
      </trkpt>
      <trkpt lat="46.04433" lon="4.69799">
        <ele>196</ele>
        <time>2018-06-26T09:07:09Z</time>
      </trkpt>
      <trkpt lat="46.04441" lon="4.69798">
        <ele>196</ele>
        <time>2018-06-26T09:07:12Z</time>
      </trkpt>
      <trkpt lat="46.04444" lon="4.69797">
        <ele>196</ele>
        <time>2018-06-26T09:07:13Z</time>
      </trkpt>
      <trkpt lat="46.04447" lon="4.69796">
        <ele>196</ele>
        <time>2018-06-26T09:07:14Z</time>
      </trkpt>
      <trkpt lat="46.04456" lon="4.69794">
        <ele>196</ele>
        <time>2018-06-26T09:07:15Z</time>
      </trkpt>
      <trkpt lat="46.04461" lon="4.69794">
        <ele>197</ele>
        <time>2018-06-26T09:07:17Z</time>
      </trkpt>
      <trkpt lat="46.04467" lon="4.69793">
        <ele>197</ele>
        <time>2018-06-26T09:07:18Z</time>
      </trkpt>
      <trkpt lat="46.04475" lon="4.69791">
        <ele>197</ele>
        <time>2018-06-26T09:07:20Z</time>
      </trkpt>
      <trkpt lat="46.04478" lon="4.6979">
        <ele>197</ele>
        <time>2018-06-26T09:07:21Z</time>
      </trkpt>
      <trkpt lat="46.04486" lon="4.69787">
        <ele>197</ele>
        <time>2018-06-26T09:07:23Z</time>
      </trkpt>
      <trkpt lat="46.04489" lon="4.69786">
        <ele>197</ele>
        <time>2018-06-26T09:07:24Z</time>
      </trkpt>
      <trkpt lat="46.04497" lon="4.69785">
        <ele>197</ele>
        <time>2018-06-26T09:07:26Z</time>
      </trkpt>
      <trkpt lat="46.045" lon="4.69785">
        <ele>199</ele>
        <time>2018-06-26T09:07:27Z</time>
      </trkpt>
      <trkpt lat="46.04507" lon="4.69786">
        <ele>199</ele>
        <time>2018-06-26T09:07:30Z</time>
      </trkpt>
      <trkpt lat="46.0451" lon="4.69786">
        <ele>199</ele>
        <time>2018-06-26T09:07:31Z</time>
      </trkpt>
      <trkpt lat="46.04517" lon="4.69786">
        <ele>199</ele>
        <time>2018-06-26T09:07:33Z</time>
      </trkpt>
      <trkpt lat="46.0452" lon="4.69787">
        <ele>199</ele>
        <time>2018-06-26T09:07:34Z</time>
      </trkpt>
      <trkpt lat="46.04526" lon="4.69788">
        <ele>199</ele>
        <time>2018-06-26T09:07:36Z</time>
      </trkpt>
      <trkpt lat="46.0453" lon="4.69788">
        <ele>199</ele>
        <time>2018-06-26T09:07:37Z</time>
      </trkpt>
      <trkpt lat="46.04533" lon="4.69789">
        <ele>199</ele>
        <time>2018-06-26T09:07:38Z</time>
      </trkpt>
      <trkpt lat="46.04542" lon="4.69791">
        <ele>199</ele>
        <time>2018-06-26T09:07:39Z</time>
      </trkpt>
      <trkpt lat="46.04549" lon="4.69793">
        <ele>199</ele>
        <time>2018-06-26T09:07:41Z</time>
      </trkpt>
      <trkpt lat="46.04553" lon="4.69794">
        <ele>199</ele>
        <time>2018-06-26T09:07:42Z</time>
      </trkpt>
      <trkpt lat="46.04561" lon="4.69798">
        <ele>199</ele>
        <time>2018-06-26T09:07:44Z</time>
      </trkpt>
      <trkpt lat="46.04565" lon="4.69799">
        <ele>200</ele>
        <time>2018-06-26T09:07:45Z</time>
      </trkpt>
      <trkpt lat="46.04573" lon="4.69802">
        <ele>200</ele>
        <time>2018-06-26T09:07:47Z</time>
      </trkpt>
      <trkpt lat="46.04574" lon="4.69803">
        <ele>200</ele>
        <time>2018-06-26T09:07:48Z</time>
      </trkpt>
      <trkpt lat="46.0458" lon="4.69805">
        <ele>200</ele>
        <time>2018-06-26T09:07:49Z</time>
      </trkpt>
      <trkpt lat="46.04584" lon="4.69807">
        <ele>201</ele>
        <time>2018-06-26T09:07:50Z</time>
      </trkpt>
      <trkpt lat="46.04591" lon="4.69809">
        <ele>201</ele>
        <time>2018-06-26T09:07:52Z</time>
      </trkpt>
      <trkpt lat="46.04595" lon="4.69811">
        <ele>201</ele>
        <time>2018-06-26T09:07:53Z</time>
      </trkpt>
      <trkpt lat="46.04603" lon="4.69814">
        <ele>201</ele>
        <time>2018-06-26T09:07:55Z</time>
      </trkpt>
      <trkpt lat="46.04607" lon="4.69815">
        <ele>201</ele>
        <time>2018-06-26T09:07:56Z</time>
      </trkpt>
      <trkpt lat="46.04614" lon="4.69817">
        <ele>201</ele>
        <time>2018-06-26T09:07:58Z</time>
      </trkpt>
      <trkpt lat="46.04618" lon="4.69818">
        <ele>202</ele>
        <time>2018-06-26T09:07:59Z</time>
      </trkpt>
      <trkpt lat="46.04627" lon="4.69821">
        <ele>202</ele>
        <time>2018-06-26T09:08:01Z</time>
      </trkpt>
      <trkpt lat="46.04631" lon="4.69823">
        <ele>202</ele>
        <time>2018-06-26T09:08:02Z</time>
      </trkpt>
      <trkpt lat="46.04638" lon="4.69826">
        <ele>202</ele>
        <time>2018-06-26T09:08:04Z</time>
      </trkpt>
      <trkpt lat="46.04642" lon="4.69828">
        <ele>202</ele>
        <time>2018-06-26T09:08:05Z</time>
      </trkpt>
      <trkpt lat="46.04649" lon="4.69831">
        <ele>202</ele>
        <time>2018-06-26T09:08:07Z</time>
      </trkpt>
      <trkpt lat="46.04653" lon="4.69832">
        <ele>202</ele>
        <time>2018-06-26T09:08:08Z</time>
      </trkpt>
      <trkpt lat="46.0466" lon="4.69834">
        <ele>202</ele>
        <time>2018-06-26T09:08:10Z</time>
      </trkpt>
      <trkpt lat="46.04664" lon="4.69835">
        <ele>203</ele>
        <time>2018-06-26T09:08:11Z</time>
      </trkpt>
      <trkpt lat="46.04671" lon="4.69838">
        <ele>203</ele>
        <time>2018-06-26T09:08:13Z</time>
      </trkpt>
      <trkpt lat="46.04675" lon="4.69839">
        <ele>203</ele>
        <time>2018-06-26T09:08:14Z</time>
      </trkpt>
      <trkpt lat="46.04682" lon="4.69842">
        <ele>202</ele>
        <time>2018-06-26T09:08:16Z</time>
      </trkpt>
      <trkpt lat="46.04686" lon="4.69843">
        <ele>202</ele>
        <time>2018-06-26T09:08:17Z</time>
      </trkpt>
      <trkpt lat="46.04694" lon="4.69844">
        <ele>202</ele>
        <time>2018-06-26T09:08:19Z</time>
      </trkpt>
      <trkpt lat="46.04699" lon="4.69844">
        <ele>202</ele>
        <time>2018-06-26T09:08:20Z</time>
      </trkpt>
      <trkpt lat="46.04703" lon="4.69844">
        <ele>202</ele>
        <time>2018-06-26T09:08:21Z</time>
      </trkpt>
      <trkpt lat="46.04708" lon="4.69844">
        <ele>202</ele>
        <time>2018-06-26T09:08:22Z</time>
      </trkpt>
      <trkpt lat="46.04713" lon="4.69844">
        <ele>203</ele>
        <time>2018-06-26T09:08:23Z</time>
      </trkpt>
      <trkpt lat="46.04717" lon="4.69844">
        <ele>203</ele>
        <time>2018-06-26T09:08:24Z</time>
      </trkpt>
      <trkpt lat="46.04726" lon="4.69842">
        <ele>203</ele>
        <time>2018-06-26T09:08:26Z</time>
      </trkpt>
      <trkpt lat="46.04731" lon="4.69839">
        <ele>203</ele>
        <time>2018-06-26T09:08:27Z</time>
      </trkpt>
      <trkpt lat="46.04739" lon="4.69841">
        <ele>204</ele>
        <time>2018-06-26T09:08:29Z</time>
      </trkpt>
      <trkpt lat="46.04741" lon="4.69842">
        <ele>204</ele>
        <time>2018-06-26T09:08:30Z</time>
      </trkpt>
      <trkpt lat="46.04748" lon="4.69844">
        <ele>204</ele>
        <time>2018-06-26T09:08:33Z</time>
      </trkpt>
      <trkpt lat="46.04751" lon="4.69844">
        <ele>205</ele>
        <time>2018-06-26T09:08:34Z</time>
      </trkpt>
      <trkpt lat="46.04758" lon="4.69844">
        <ele>205</ele>
        <time>2018-06-26T09:08:36Z</time>
      </trkpt>
      <trkpt lat="46.04767" lon="4.69845">
        <ele>204</ele>
        <time>2018-06-26T09:08:37Z</time>
      </trkpt>
      <trkpt lat="46.04775" lon="4.69846">
        <ele>204</ele>
        <time>2018-06-26T09:08:39Z</time>
      </trkpt>
      <trkpt lat="46.04777" lon="4.69846">
        <ele>204</ele>
        <time>2018-06-26T09:08:40Z</time>
      </trkpt>
      <trkpt lat="46.04779" lon="4.69847">
        <ele>204</ele>
        <time>2018-06-26T09:08:41Z</time>
      </trkpt>
      <trkpt lat="46.04786" lon="4.69847">
        <ele>205</ele>
        <time>2018-06-26T09:08:42Z</time>
      </trkpt>
      <trkpt lat="46.04793" lon="4.69842">
        <ele>205</ele>
        <time>2018-06-26T09:08:44Z</time>
      </trkpt>
      <trkpt lat="46.04796" lon="4.69837">
        <ele>205</ele>
        <time>2018-06-26T09:08:45Z</time>
      </trkpt>
      <trkpt lat="46.048" lon="4.69826">
        <ele>206</ele>
        <time>2018-06-26T09:08:47Z</time>
      </trkpt>
      <trkpt lat="46.04801" lon="4.69824">
        <ele>206</ele>
        <time>2018-06-26T09:08:48Z</time>
      </trkpt>
      <trkpt lat="46.04804" lon="4.69814">
        <ele>206</ele>
        <time>2018-06-26T09:08:51Z</time>
      </trkpt>
      <trkpt lat="46.04806" lon="4.69812">
        <ele>206</ele>
        <time>2018-06-26T09:08:52Z</time>
      </trkpt>
      <trkpt lat="46.04814" lon="4.69811">
        <ele>207</ele>
        <time>2018-06-26T09:08:55Z</time>
      </trkpt>
      <trkpt lat="46.04817" lon="4.69813">
        <ele>207</ele>
        <time>2018-06-26T09:08:56Z</time>
      </trkpt>
      <trkpt lat="46.04822" lon="4.69817">
        <ele>207</ele>
        <time>2018-06-26T09:08:58Z</time>
      </trkpt>
      <trkpt lat="46.04831" lon="4.69823">
        <ele>207</ele>
        <time>2018-06-26T09:08:59Z</time>
      </trkpt>
      <trkpt lat="46.04838" lon="4.69826">
        <ele>207</ele>
        <time>2018-06-26T09:09:01Z</time>
      </trkpt>
      <trkpt lat="46.04841" lon="4.69828">
        <ele>207</ele>
        <time>2018-06-26T09:09:02Z</time>
      </trkpt>
      <trkpt lat="46.04849" lon="4.69831">
        <ele>207</ele>
        <time>2018-06-26T09:09:04Z</time>
      </trkpt>
      <trkpt lat="46.04853" lon="4.69833">
        <ele>207</ele>
        <time>2018-06-26T09:09:05Z</time>
      </trkpt>
      <trkpt lat="46.04861" lon="4.69837">
        <ele>206</ele>
        <time>2018-06-26T09:09:07Z</time>
      </trkpt>
      <trkpt lat="46.04864" lon="4.69839">
        <ele>206</ele>
        <time>2018-06-26T09:09:08Z</time>
      </trkpt>
      <trkpt lat="46.04872" lon="4.69844">
        <ele>206</ele>
        <time>2018-06-26T09:09:10Z</time>
      </trkpt>
      <trkpt lat="46.04874" lon="4.69848">
        <ele>206</ele>
        <time>2018-06-26T09:09:11Z</time>
      </trkpt>
      <trkpt lat="46.04882" lon="4.69851">
        <ele>206</ele>
        <time>2018-06-26T09:09:13Z</time>
      </trkpt>
      <trkpt lat="46.04886" lon="4.69854">
        <ele>206</ele>
        <time>2018-06-26T09:09:14Z</time>
      </trkpt>
      <trkpt lat="46.04894" lon="4.69858">
        <ele>206</ele>
        <time>2018-06-26T09:09:16Z</time>
      </trkpt>
      <trkpt lat="46.04898" lon="4.69861">
        <ele>206</ele>
        <time>2018-06-26T09:09:17Z</time>
      </trkpt>
      <trkpt lat="46.04906" lon="4.69865">
        <ele>206</ele>
        <time>2018-06-26T09:09:19Z</time>
      </trkpt>
      <trkpt lat="46.04911" lon="4.69867">
        <ele>206</ele>
        <time>2018-06-26T09:09:20Z</time>
      </trkpt>
      <trkpt lat="46.04916" lon="4.69869">
        <ele>206</ele>
        <time>2018-06-26T09:09:21Z</time>
      </trkpt>
      <trkpt lat="46.04923" lon="4.69867">
        <ele>207</ele>
        <time>2018-06-26T09:09:22Z</time>
      </trkpt>
      <trkpt lat="46.04928" lon="4.69869">
        <ele>207</ele>
        <time>2018-06-26T09:09:23Z</time>
      </trkpt>
      <trkpt lat="46.04931" lon="4.69874">
        <ele>207</ele>
        <time>2018-06-26T09:09:24Z</time>
      </trkpt>
      <trkpt lat="46.04935" lon="4.69877">
        <ele>207</ele>
        <time>2018-06-26T09:09:25Z</time>
      </trkpt>
      <trkpt lat="46.04938" lon="4.69882">
        <ele>207</ele>
        <time>2018-06-26T09:09:26Z</time>
      </trkpt>
      <trkpt lat="46.04945" lon="4.6989">
        <ele>207</ele>
        <time>2018-06-26T09:09:28Z</time>
      </trkpt>
      <trkpt lat="46.04948" lon="4.69894">
        <ele>207</ele>
        <time>2018-06-26T09:09:29Z</time>
      </trkpt>
      <trkpt lat="46.04953" lon="4.69903">
        <ele>207</ele>
        <time>2018-06-26T09:09:31Z</time>
      </trkpt>
      <trkpt lat="46.04956" lon="4.69906">
        <ele>207</ele>
        <time>2018-06-26T09:09:32Z</time>
      </trkpt>
      <trkpt lat="46.04959" lon="4.6991">
        <ele>206</ele>
        <time>2018-06-26T09:09:33Z</time>
      </trkpt>
      <trkpt lat="46.04963" lon="4.69916">
        <ele>206</ele>
        <time>2018-06-26T09:09:34Z</time>
      </trkpt>
      <trkpt lat="46.04968" lon="4.69921">
        <ele>206</ele>
        <time>2018-06-26T09:09:35Z</time>
      </trkpt>
      <trkpt lat="46.04971" lon="4.69925">
        <ele>206</ele>
        <time>2018-06-26T09:09:36Z</time>
      </trkpt>
      <trkpt lat="46.04974" lon="4.69931">
        <ele>206</ele>
        <time>2018-06-26T09:09:37Z</time>
      </trkpt>
      <trkpt lat="46.04976" lon="4.69937">
        <ele>206</ele>
        <time>2018-06-26T09:09:38Z</time>
      </trkpt>
      <trkpt lat="46.04979" lon="4.69943">
        <ele>206</ele>
        <time>2018-06-26T09:09:39Z</time>
      </trkpt>
      <trkpt lat="46.04982" lon="4.6995">
        <ele>206</ele>
        <time>2018-06-26T09:09:40Z</time>
      </trkpt>
      <trkpt lat="46.04986" lon="4.69956">
        <ele>206</ele>
        <time>2018-06-26T09:09:41Z</time>
      </trkpt>
      <trkpt lat="46.04989" lon="4.69962">
        <ele>205</ele>
        <time>2018-06-26T09:09:42Z</time>
      </trkpt>
      <trkpt lat="46.04992" lon="4.69968">
        <ele>205</ele>
        <time>2018-06-26T09:09:43Z</time>
      </trkpt>
      <trkpt lat="46.04995" lon="4.69971">
        <ele>205</ele>
        <time>2018-06-26T09:09:44Z</time>
      </trkpt>
      <trkpt lat="46.04999" lon="4.69976">
        <ele>205</ele>
        <time>2018-06-26T09:09:45Z</time>
      </trkpt>
      <trkpt lat="46.05003" lon="4.69982">
        <ele>205</ele>
        <time>2018-06-26T09:09:46Z</time>
      </trkpt>
      <trkpt lat="46.05006" lon="4.69987">
        <ele>205</ele>
        <time>2018-06-26T09:09:47Z</time>
      </trkpt>
      <trkpt lat="46.05009" lon="4.69993">
        <ele>205</ele>
        <time>2018-06-26T09:09:48Z</time>
      </trkpt>
      <trkpt lat="46.05013" lon="4.7">
        <ele>205</ele>
        <time>2018-06-26T09:09:49Z</time>
      </trkpt>
      <trkpt lat="46.05015" lon="4.70005">
        <ele>204</ele>
        <time>2018-06-26T09:09:50Z</time>
      </trkpt>
      <trkpt lat="46.05021" lon="4.70008">
        <ele>204</ele>
        <time>2018-06-26T09:09:51Z</time>
      </trkpt>
      <trkpt lat="46.05026" lon="4.70013">
        <ele>204</ele>
        <time>2018-06-26T09:09:52Z</time>
      </trkpt>
      <trkpt lat="46.05031" lon="4.70017">
        <ele>204</ele>
        <time>2018-06-26T09:09:53Z</time>
      </trkpt>
      <trkpt lat="46.05036" lon="4.70022">
        <ele>204</ele>
        <time>2018-06-26T09:09:54Z</time>
      </trkpt>
      <trkpt lat="46.05042" lon="4.70025">
        <ele>204</ele>
        <time>2018-06-26T09:09:55Z</time>
      </trkpt>
      <trkpt lat="46.05047" lon="4.70028">
        <ele>204</ele>
        <time>2018-06-26T09:09:56Z</time>
      </trkpt>
      <trkpt lat="46.0505" lon="4.70032">
        <ele>204</ele>
        <time>2018-06-26T09:09:57Z</time>
      </trkpt>
      <trkpt lat="46.05055" lon="4.70035">
        <ele>204</ele>
        <time>2018-06-26T09:09:58Z</time>
      </trkpt>
      <trkpt lat="46.05059" lon="4.70037">
        <ele>204</ele>
        <time>2018-06-26T09:09:59Z</time>
      </trkpt>
      <trkpt lat="46.05064" lon="4.70038">
        <ele>204</ele>
        <time>2018-06-26T09:10:00Z</time>
      </trkpt>
      <trkpt lat="46.0507" lon="4.70038">
        <ele>204</ele>
        <time>2018-06-26T09:10:01Z</time>
      </trkpt>
      <trkpt lat="46.05074" lon="4.70037">
        <ele>204</ele>
        <time>2018-06-26T09:10:02Z</time>
      </trkpt>
      <trkpt lat="46.05079" lon="4.70033">
        <ele>204</ele>
        <time>2018-06-26T09:10:03Z</time>
      </trkpt>
      <trkpt lat="46.05083" lon="4.70028">
        <ele>204</ele>
        <time>2018-06-26T09:10:04Z</time>
      </trkpt>
      <trkpt lat="46.05087" lon="4.70023">
        <ele>203</ele>
        <time>2018-06-26T09:10:05Z</time>
      </trkpt>
      <trkpt lat="46.05091" lon="4.70016">
        <ele>203</ele>
        <time>2018-06-26T09:10:06Z</time>
      </trkpt>
      <trkpt lat="46.05093" lon="4.7001">
        <ele>204</ele>
        <time>2018-06-26T09:10:07Z</time>
      </trkpt>
      <trkpt lat="46.05097" lon="4.70001">
        <ele>204</ele>
        <time>2018-06-26T09:10:08Z</time>
      </trkpt>
      <trkpt lat="46.05099" lon="4.69992">
        <ele>204</ele>
        <time>2018-06-26T09:10:09Z</time>
      </trkpt>
      <trkpt lat="46.051" lon="4.69985">
        <ele>204</ele>
        <time>2018-06-26T09:10:10Z</time>
      </trkpt>
      <trkpt lat="46.051" lon="4.69973">
        <ele>203</ele>
        <time>2018-06-26T09:10:11Z</time>
      </trkpt>
      <trkpt lat="46.05102" lon="4.69965">
        <ele>203</ele>
        <time>2018-06-26T09:10:12Z</time>
      </trkpt>
      <trkpt lat="46.05105" lon="4.69957">
        <ele>203</ele>
        <time>2018-06-26T09:10:13Z</time>
      </trkpt>
      <trkpt lat="46.05105" lon="4.69949">
        <ele>203</ele>
        <time>2018-06-26T09:10:14Z</time>
      </trkpt>
      <trkpt lat="46.05107" lon="4.6994">
        <ele>203</ele>
        <time>2018-06-26T09:10:15Z</time>
      </trkpt>
      <trkpt lat="46.05108" lon="4.69933">
        <ele>203</ele>
        <time>2018-06-26T09:10:16Z</time>
      </trkpt>
      <trkpt lat="46.05109" lon="4.69925">
        <ele>203</ele>
        <time>2018-06-26T09:10:17Z</time>
      </trkpt>
      <trkpt lat="46.0511" lon="4.69917">
        <ele>203</ele>
        <time>2018-06-26T09:10:18Z</time>
      </trkpt>
      <trkpt lat="46.05111" lon="4.6991">
        <ele>204</ele>
        <time>2018-06-26T09:10:19Z</time>
      </trkpt>
      <trkpt lat="46.05113" lon="4.69904">
        <ele>204</ele>
        <time>2018-06-26T09:10:20Z</time>
      </trkpt>
      <trkpt lat="46.05113" lon="4.69897">
        <ele>204</ele>
        <time>2018-06-26T09:10:21Z</time>
      </trkpt>
      <trkpt lat="46.05114" lon="4.6989">
        <ele>204</ele>
        <time>2018-06-26T09:10:22Z</time>
      </trkpt>
      <trkpt lat="46.05115" lon="4.69882">
        <ele>204</ele>
        <time>2018-06-26T09:10:23Z</time>
      </trkpt>
      <trkpt lat="46.05116" lon="4.69874">
        <ele>204</ele>
        <time>2018-06-26T09:10:24Z</time>
      </trkpt>
      <trkpt lat="46.05117" lon="4.69867">
        <ele>204</ele>
        <time>2018-06-26T09:10:25Z</time>
      </trkpt>
      <trkpt lat="46.05118" lon="4.69859">
        <ele>204</ele>
        <time>2018-06-26T09:10:26Z</time>
      </trkpt>
      <trkpt lat="46.05119" lon="4.69852">
        <ele>204</ele>
        <time>2018-06-26T09:10:27Z</time>
      </trkpt>
      <trkpt lat="46.05121" lon="4.69845">
        <ele>204</ele>
        <time>2018-06-26T09:10:28Z</time>
      </trkpt>
      <trkpt lat="46.05123" lon="4.69837">
        <ele>204</ele>
        <time>2018-06-26T09:10:29Z</time>
      </trkpt>
      <trkpt lat="46.05125" lon="4.69831">
        <ele>204</ele>
        <time>2018-06-26T09:10:30Z</time>
      </trkpt>
      <trkpt lat="46.0513" lon="4.69822">
        <ele>204</ele>
        <time>2018-06-26T09:10:32Z</time>
      </trkpt>
      <trkpt lat="46.05134" lon="4.69819">
        <ele>204</ele>
        <time>2018-06-26T09:10:33Z</time>
      </trkpt>
      <trkpt lat="46.0514" lon="4.69819">
        <ele>204</ele>
        <time>2018-06-26T09:10:34Z</time>
      </trkpt>
      <trkpt lat="46.05146" lon="4.69821">
        <ele>204</ele>
        <time>2018-06-26T09:10:35Z</time>
      </trkpt>
      <trkpt lat="46.05151" lon="4.69824">
        <ele>204</ele>
        <time>2018-06-26T09:10:36Z</time>
      </trkpt>
      <trkpt lat="46.05157" lon="4.69826">
        <ele>203</ele>
        <time>2018-06-26T09:10:37Z</time>
      </trkpt>
      <trkpt lat="46.0516" lon="4.6983">
        <ele>203</ele>
        <time>2018-06-26T09:10:38Z</time>
      </trkpt>
      <trkpt lat="46.05165" lon="4.69832">
        <ele>203</ele>
        <time>2018-06-26T09:10:39Z</time>
      </trkpt>
      <trkpt lat="46.0517" lon="4.69835">
        <ele>203</ele>
        <time>2018-06-26T09:10:40Z</time>
      </trkpt>
      <trkpt lat="46.05176" lon="4.69838">
        <ele>202</ele>
        <time>2018-06-26T09:10:41Z</time>
      </trkpt>
      <trkpt lat="46.05181" lon="4.6984">
        <ele>202</ele>
        <time>2018-06-26T09:10:42Z</time>
      </trkpt>
      <trkpt lat="46.05187" lon="4.69842">
        <ele>202</ele>
        <time>2018-06-26T09:10:43Z</time>
      </trkpt>
      <trkpt lat="46.05193" lon="4.69845">
        <ele>202</ele>
        <time>2018-06-26T09:10:44Z</time>
      </trkpt>
      <trkpt lat="46.05199" lon="4.69848">
        <ele>201</ele>
        <time>2018-06-26T09:10:45Z</time>
      </trkpt>
      <trkpt lat="46.05205" lon="4.6985">
        <ele>201</ele>
        <time>2018-06-26T09:10:46Z</time>
      </trkpt>
      <trkpt lat="46.0521" lon="4.69852">
        <ele>201</ele>
        <time>2018-06-26T09:10:47Z</time>
      </trkpt>
      <trkpt lat="46.05217" lon="4.69854">
        <ele>201</ele>
        <time>2018-06-26T09:10:48Z</time>
      </trkpt>
      <trkpt lat="46.05221" lon="4.69858">
        <ele>201</ele>
        <time>2018-06-26T09:10:49Z</time>
      </trkpt>
      <trkpt lat="46.05228" lon="4.6986">
        <ele>201</ele>
        <time>2018-06-26T09:10:50Z</time>
      </trkpt>
      <trkpt lat="46.05234" lon="4.69862">
        <ele>201</ele>
        <time>2018-06-26T09:10:51Z</time>
      </trkpt>
      <trkpt lat="46.05241" lon="4.69863">
        <ele>201</ele>
        <time>2018-06-26T09:10:52Z</time>
      </trkpt>
      <trkpt lat="46.05247" lon="4.69864">
        <ele>200</ele>
        <time>2018-06-26T09:10:53Z</time>
      </trkpt>
      <trkpt lat="46.05253" lon="4.69866">
        <ele>199</ele>
        <time>2018-06-26T09:10:54Z</time>
      </trkpt>
      <trkpt lat="46.05259" lon="4.69867">
        <ele>199</ele>
        <time>2018-06-26T09:10:55Z</time>
      </trkpt>
      <trkpt lat="46.05268" lon="4.69868">
        <ele>199</ele>
        <time>2018-06-26T09:10:56Z</time>
      </trkpt>
      <trkpt lat="46.05272" lon="4.69869">
        <ele>199</ele>
        <time>2018-06-26T09:10:57Z</time>
      </trkpt>
      <trkpt lat="46.05279" lon="4.69872">
        <ele>199</ele>
        <time>2018-06-26T09:10:58Z</time>
      </trkpt>
      <trkpt lat="46.05285" lon="4.69873">
        <ele>199</ele>
        <time>2018-06-26T09:10:59Z</time>
      </trkpt>
      <trkpt lat="46.05291" lon="4.69873">
        <ele>199</ele>
        <time>2018-06-26T09:11:00Z</time>
      </trkpt>
      <trkpt lat="46.05297" lon="4.69874">
        <ele>199</ele>
        <time>2018-06-26T09:11:01Z</time>
      </trkpt>
      <trkpt lat="46.05305" lon="4.69875">
        <ele>199</ele>
        <time>2018-06-26T09:11:03Z</time>
      </trkpt>
      <trkpt lat="46.0531" lon="4.69876">
        <ele>199</ele>
        <time>2018-06-26T09:11:04Z</time>
      </trkpt>
      <trkpt lat="46.05317" lon="4.69878">
        <ele>199</ele>
        <time>2018-06-26T09:11:05Z</time>
      </trkpt>
      <trkpt lat="46.0532" lon="4.69881">
        <ele>199</ele>
        <time>2018-06-26T09:11:06Z</time>
      </trkpt>
      <trkpt lat="46.05327" lon="4.69882">
        <ele>199</ele>
        <time>2018-06-26T09:11:07Z</time>
      </trkpt>
      <trkpt lat="46.05334" lon="4.69884">
        <ele>199</ele>
        <time>2018-06-26T09:11:08Z</time>
      </trkpt>
      <trkpt lat="46.05339" lon="4.69886">
        <ele>199</ele>
        <time>2018-06-26T09:11:09Z</time>
      </trkpt>
      <trkpt lat="46.05345" lon="4.69889">
        <ele>199</ele>
        <time>2018-06-26T09:11:10Z</time>
      </trkpt>
      <trkpt lat="46.05351" lon="4.69891">
        <ele>199</ele>
        <time>2018-06-26T09:11:11Z</time>
      </trkpt>
      <trkpt lat="46.05356" lon="4.69894">
        <ele>199</ele>
        <time>2018-06-26T09:11:12Z</time>
      </trkpt>
      <trkpt lat="46.05362" lon="4.69895">
        <ele>199</ele>
        <time>2018-06-26T09:11:13Z</time>
      </trkpt>
      <trkpt lat="46.05368" lon="4.69898">
        <ele>199</ele>
        <time>2018-06-26T09:11:14Z</time>
      </trkpt>
      <trkpt lat="46.05374" lon="4.699">
        <ele>199</ele>
        <time>2018-06-26T09:11:15Z</time>
      </trkpt>
      <trkpt lat="46.05381" lon="4.699">
        <ele>199</ele>
        <time>2018-06-26T09:11:16Z</time>
      </trkpt>
      <trkpt lat="46.05387" lon="4.69902">
        <ele>199</ele>
        <time>2018-06-26T09:11:17Z</time>
      </trkpt>
      <trkpt lat="46.05391" lon="4.69904">
        <ele>199</ele>
        <time>2018-06-26T09:11:18Z</time>
      </trkpt>
      <trkpt lat="46.05398" lon="4.69904">
        <ele>199</ele>
        <time>2018-06-26T09:11:19Z</time>
      </trkpt>
      <trkpt lat="46.05402" lon="4.69904">
        <ele>199</ele>
        <time>2018-06-26T09:11:20Z</time>
      </trkpt>
      <trkpt lat="46.05409" lon="4.69904">
        <ele>199</ele>
        <time>2018-06-26T09:11:21Z</time>
      </trkpt>
      <trkpt lat="46.05414" lon="4.69904">
        <ele>199</ele>
        <time>2018-06-26T09:11:22Z</time>
      </trkpt>
      <trkpt lat="46.05421" lon="4.69901">
        <ele>199</ele>
        <time>2018-06-26T09:11:23Z</time>
      </trkpt>
      <trkpt lat="46.05426" lon="4.69899">
        <ele>199</ele>
        <time>2018-06-26T09:11:24Z</time>
      </trkpt>
      <trkpt lat="46.05435" lon="4.69898">
        <ele>199</ele>
        <time>2018-06-26T09:11:26Z</time>
      </trkpt>
      <trkpt lat="46.05441" lon="4.69896">
        <ele>199</ele>
        <time>2018-06-26T09:11:27Z</time>
      </trkpt>
      <trkpt lat="46.05443" lon="4.69893">
        <ele>199</ele>
        <time>2018-06-26T09:11:28Z</time>
      </trkpt>
      <trkpt lat="46.0545" lon="4.6989">
        <ele>199</ele>
        <time>2018-06-26T09:11:29Z</time>
      </trkpt>
      <trkpt lat="46.05455" lon="4.69889">
        <ele>199</ele>
        <time>2018-06-26T09:11:30Z</time>
      </trkpt>
      <trkpt lat="46.05459" lon="4.69887">
        <ele>199</ele>
        <time>2018-06-26T09:11:31Z</time>
      </trkpt>
      <trkpt lat="46.05464" lon="4.69885">
        <ele>199</ele>
        <time>2018-06-26T09:11:32Z</time>
      </trkpt>
      <trkpt lat="46.0547" lon="4.69883">
        <ele>199</ele>
        <time>2018-06-26T09:11:33Z</time>
      </trkpt>
      <trkpt lat="46.05476" lon="4.69881">
        <ele>199</ele>
        <time>2018-06-26T09:11:34Z</time>
      </trkpt>
      <trkpt lat="46.05483" lon="4.69879">
        <ele>199</ele>
        <time>2018-06-26T09:11:35Z</time>
      </trkpt>
      <trkpt lat="46.05489" lon="4.69879">
        <ele>199</ele>
        <time>2018-06-26T09:11:36Z</time>
      </trkpt>
      <trkpt lat="46.05495" lon="4.69876">
        <ele>199</ele>
        <time>2018-06-26T09:11:37Z</time>
      </trkpt>
      <trkpt lat="46.05501" lon="4.69874">
        <ele>199</ele>
        <time>2018-06-26T09:11:38Z</time>
      </trkpt>
      <trkpt lat="46.05506" lon="4.69872">
        <ele>199</ele>
        <time>2018-06-26T09:11:39Z</time>
      </trkpt>
      <trkpt lat="46.05512" lon="4.6987">
        <ele>199</ele>
        <time>2018-06-26T09:11:40Z</time>
      </trkpt>
      <trkpt lat="46.05517" lon="4.69868">
        <ele>199</ele>
        <time>2018-06-26T09:11:41Z</time>
      </trkpt>
      <trkpt lat="46.05524" lon="4.69865">
        <ele>200</ele>
        <time>2018-06-26T09:11:42Z</time>
      </trkpt>
      <trkpt lat="46.05529" lon="4.69864">
        <ele>200</ele>
        <time>2018-06-26T09:11:43Z</time>
      </trkpt>
      <trkpt lat="46.05534" lon="4.69862">
        <ele>200</ele>
        <time>2018-06-26T09:11:44Z</time>
      </trkpt>
      <trkpt lat="46.05538" lon="4.6986">
        <ele>200</ele>
        <time>2018-06-26T09:11:45Z</time>
      </trkpt>
      <trkpt lat="46.05546" lon="4.69858">
        <ele>200</ele>
        <time>2018-06-26T09:11:47Z</time>
      </trkpt>
      <trkpt lat="46.0555" lon="4.69857">
        <ele>200</ele>
        <time>2018-06-26T09:11:48Z</time>
      </trkpt>
      <trkpt lat="46.05554" lon="4.69855">
        <ele>200</ele>
        <time>2018-06-26T09:11:49Z</time>
      </trkpt>
      <trkpt lat="46.05559" lon="4.69853">
        <ele>200</ele>
        <time>2018-06-26T09:11:50Z</time>
      </trkpt>
      <trkpt lat="46.05568" lon="4.69854">
        <ele>200</ele>
        <time>2018-06-26T09:11:52Z</time>
      </trkpt>
      <trkpt lat="46.05573" lon="4.69856">
        <ele>200</ele>
        <time>2018-06-26T09:11:53Z</time>
      </trkpt>
      <trkpt lat="46.05577" lon="4.69865">
        <ele>200</ele>
        <time>2018-06-26T09:11:55Z</time>
      </trkpt>
      <trkpt lat="46.05579" lon="4.6987">
        <ele>200</ele>
        <time>2018-06-26T09:11:56Z</time>
      </trkpt>
      <trkpt lat="46.05582" lon="4.69875">
        <ele>200</ele>
        <time>2018-06-26T09:11:57Z</time>
      </trkpt>
      <trkpt lat="46.05587" lon="4.69881">
        <ele>201</ele>
        <time>2018-06-26T09:11:58Z</time>
      </trkpt>
      <trkpt lat="46.05589" lon="4.69886">
        <ele>201</ele>
        <time>2018-06-26T09:11:59Z</time>
      </trkpt>
      <trkpt lat="46.05592" lon="4.69892">
        <ele>201</ele>
        <time>2018-06-26T09:12:00Z</time>
      </trkpt>
      <trkpt lat="46.05597" lon="4.69895">
        <ele>201</ele>
        <time>2018-06-26T09:12:01Z</time>
      </trkpt>
      <trkpt lat="46.05602" lon="4.69899">
        <ele>200</ele>
        <time>2018-06-26T09:12:02Z</time>
      </trkpt>
      <trkpt lat="46.05605" lon="4.69906">
        <ele>200</ele>
        <time>2018-06-26T09:12:03Z</time>
      </trkpt>
      <trkpt lat="46.05608" lon="4.69912">
        <ele>200</ele>
        <time>2018-06-26T09:12:04Z</time>
      </trkpt>
      <trkpt lat="46.05611" lon="4.69919">
        <ele>201</ele>
        <time>2018-06-26T09:12:05Z</time>
      </trkpt>
      <trkpt lat="46.05614" lon="4.69925">
        <ele>201</ele>
        <time>2018-06-26T09:12:06Z</time>
      </trkpt>
      <trkpt lat="46.05615" lon="4.69932">
        <ele>201</ele>
        <time>2018-06-26T09:12:07Z</time>
      </trkpt>
      <trkpt lat="46.05619" lon="4.69937">
        <ele>200</ele>
        <time>2018-06-26T09:12:08Z</time>
      </trkpt>
      <trkpt lat="46.05622" lon="4.69943">
        <ele>200</ele>
        <time>2018-06-26T09:12:09Z</time>
      </trkpt>
      <trkpt lat="46.05629" lon="4.69946">
        <ele>200</ele>
        <time>2018-06-26T09:12:10Z</time>
      </trkpt>
      <trkpt lat="46.05632" lon="4.69953">
        <ele>200</ele>
        <time>2018-06-26T09:12:11Z</time>
      </trkpt>
      <trkpt lat="46.05634" lon="4.69959">
        <ele>200</ele>
        <time>2018-06-26T09:12:12Z</time>
      </trkpt>
      <trkpt lat="46.05636" lon="4.69966">
        <ele>200</ele>
        <time>2018-06-26T09:12:13Z</time>
      </trkpt>
      <trkpt lat="46.05638" lon="4.69972">
        <ele>200</ele>
        <time>2018-06-26T09:12:14Z</time>
      </trkpt>
      <trkpt lat="46.05641" lon="4.69979">
        <ele>200</ele>
        <time>2018-06-26T09:12:15Z</time>
      </trkpt>
      <trkpt lat="46.05644" lon="4.69985">
        <ele>200</ele>
        <time>2018-06-26T09:12:16Z</time>
      </trkpt>
      <trkpt lat="46.05649" lon="4.6999">
        <ele>200</ele>
        <time>2018-06-26T09:12:17Z</time>
      </trkpt>
      <trkpt lat="46.05652" lon="4.69997">
        <ele>200</ele>
        <time>2018-06-26T09:12:18Z</time>
      </trkpt>
      <trkpt lat="46.05656" lon="4.70002">
        <ele>200</ele>
        <time>2018-06-26T09:12:19Z</time>
      </trkpt>
      <trkpt lat="46.05659" lon="4.7001">
        <ele>200</ele>
        <time>2018-06-26T09:12:20Z</time>
      </trkpt>
      <trkpt lat="46.05662" lon="4.70017">
        <ele>200</ele>
        <time>2018-06-26T09:12:21Z</time>
      </trkpt>
      <trkpt lat="46.05665" lon="4.70026">
        <ele>200</ele>
        <time>2018-06-26T09:12:22Z</time>
      </trkpt>
      <trkpt lat="46.05668" lon="4.70034">
        <ele>199</ele>
        <time>2018-06-26T09:12:23Z</time>
      </trkpt>
      <trkpt lat="46.05671" lon="4.7004">
        <ele>199</ele>
        <time>2018-06-26T09:12:24Z</time>
      </trkpt>
      <trkpt lat="46.05675" lon="4.70047">
        <ele>199</ele>
        <time>2018-06-26T09:12:25Z</time>
      </trkpt>
      <trkpt lat="46.05678" lon="4.70054">
        <ele>199</ele>
        <time>2018-06-26T09:12:26Z</time>
      </trkpt>
      <trkpt lat="46.05681" lon="4.70061">
        <ele>199</ele>
        <time>2018-06-26T09:12:27Z</time>
      </trkpt>
      <trkpt lat="46.05684" lon="4.70067">
        <ele>199</ele>
        <time>2018-06-26T09:12:28Z</time>
      </trkpt>
      <trkpt lat="46.05687" lon="4.70073">
        <ele>199</ele>
        <time>2018-06-26T09:12:29Z</time>
      </trkpt>
      <trkpt lat="46.05689" lon="4.7008">
        <ele>199</ele>
        <time>2018-06-26T09:12:30Z</time>
      </trkpt>
      <trkpt lat="46.05692" lon="4.70086">
        <ele>198</ele>
        <time>2018-06-26T09:12:31Z</time>
      </trkpt>
      <trkpt lat="46.05694" lon="4.70092">
        <ele>198</ele>
        <time>2018-06-26T09:12:32Z</time>
      </trkpt>
      <trkpt lat="46.05698" lon="4.70098">
        <ele>198</ele>
        <time>2018-06-26T09:12:33Z</time>
      </trkpt>
      <trkpt lat="46.05701" lon="4.70104">
        <ele>198</ele>
        <time>2018-06-26T09:12:34Z</time>
      </trkpt>
      <trkpt lat="46.05705" lon="4.7011">
        <ele>198</ele>
        <time>2018-06-26T09:12:35Z</time>
      </trkpt>
      <trkpt lat="46.05707" lon="4.70117">
        <ele>198</ele>
        <time>2018-06-26T09:12:36Z</time>
      </trkpt>
      <trkpt lat="46.05711" lon="4.70123">
        <ele>198</ele>
        <time>2018-06-26T09:12:37Z</time>
      </trkpt>
      <trkpt lat="46.05714" lon="4.7013">
        <ele>198</ele>
        <time>2018-06-26T09:12:38Z</time>
      </trkpt>
      <trkpt lat="46.05718" lon="4.70136">
        <ele>198</ele>
        <time>2018-06-26T09:12:39Z</time>
      </trkpt>
      <trkpt lat="46.05721" lon="4.70141">
        <ele>198</ele>
        <time>2018-06-26T09:12:40Z</time>
      </trkpt>
      <trkpt lat="46.05725" lon="4.70148">
        <ele>198</ele>
        <time>2018-06-26T09:12:41Z</time>
      </trkpt>
      <trkpt lat="46.05728" lon="4.70154">
        <ele>198</ele>
        <time>2018-06-26T09:12:42Z</time>
      </trkpt>
      <trkpt lat="46.05731" lon="4.7016">
        <ele>198</ele>
        <time>2018-06-26T09:12:43Z</time>
      </trkpt>
      <trkpt lat="46.05734" lon="4.70167">
        <ele>198</ele>
        <time>2018-06-26T09:12:44Z</time>
      </trkpt>
      <trkpt lat="46.05737" lon="4.70173">
        <ele>198</ele>
        <time>2018-06-26T09:12:45Z</time>
      </trkpt>
      <trkpt lat="46.05741" lon="4.70179">
        <ele>198</ele>
        <time>2018-06-26T09:12:46Z</time>
      </trkpt>
      <trkpt lat="46.05745" lon="4.70186">
        <ele>198</ele>
        <time>2018-06-26T09:12:47Z</time>
      </trkpt>
      <trkpt lat="46.05749" lon="4.70194">
        <ele>198</ele>
        <time>2018-06-26T09:12:48Z</time>
      </trkpt>
      <trkpt lat="46.05753" lon="4.70201">
        <ele>198</ele>
        <time>2018-06-26T09:12:49Z</time>
      </trkpt>
      <trkpt lat="46.05757" lon="4.70208">
        <ele>198</ele>
        <time>2018-06-26T09:12:50Z</time>
      </trkpt>
      <trkpt lat="46.05763" lon="4.70214">
        <ele>198</ele>
        <time>2018-06-26T09:12:51Z</time>
      </trkpt>
      <trkpt lat="46.05768" lon="4.7022">
        <ele>198</ele>
        <time>2018-06-26T09:12:52Z</time>
      </trkpt>
      <trkpt lat="46.05769" lon="4.70224">
        <ele>198</ele>
        <time>2018-06-26T09:12:53Z</time>
      </trkpt>
      <trkpt lat="46.05773" lon="4.70233">
        <ele>198</ele>
        <time>2018-06-26T09:12:54Z</time>
      </trkpt>
      <trkpt lat="46.05776" lon="4.7024">
        <ele>198</ele>
        <time>2018-06-26T09:12:55Z</time>
      </trkpt>
      <trkpt lat="46.05779" lon="4.70246">
        <ele>198</ele>
        <time>2018-06-26T09:12:56Z</time>
      </trkpt>
      <trkpt lat="46.05787" lon="4.70252">
        <ele>198</ele>
        <time>2018-06-26T09:12:57Z</time>
      </trkpt>
      <trkpt lat="46.0579" lon="4.70257">
        <ele>198</ele>
        <time>2018-06-26T09:12:58Z</time>
      </trkpt>
      <trkpt lat="46.05793" lon="4.70263">
        <ele>197</ele>
        <time>2018-06-26T09:12:59Z</time>
      </trkpt>
      <trkpt lat="46.05798" lon="4.70268">
        <ele>197</ele>
        <time>2018-06-26T09:13:00Z</time>
      </trkpt>
      <trkpt lat="46.05802" lon="4.70274">
        <ele>197</ele>
        <time>2018-06-26T09:13:01Z</time>
      </trkpt>
      <trkpt lat="46.05806" lon="4.70282">
        <ele>197</ele>
        <time>2018-06-26T09:13:02Z</time>
      </trkpt>
      <trkpt lat="46.0581" lon="4.70287">
        <ele>197</ele>
        <time>2018-06-26T09:13:03Z</time>
      </trkpt>
      <trkpt lat="46.05814" lon="4.70293">
        <ele>197</ele>
        <time>2018-06-26T09:13:04Z</time>
      </trkpt>
      <trkpt lat="46.05817" lon="4.70299">
        <ele>197</ele>
        <time>2018-06-26T09:13:05Z</time>
      </trkpt>
      <trkpt lat="46.0582" lon="4.70305">
        <ele>197</ele>
        <time>2018-06-26T09:13:06Z</time>
      </trkpt>
      <trkpt lat="46.05823" lon="4.7031">
        <ele>197</ele>
        <time>2018-06-26T09:13:07Z</time>
      </trkpt>
      <trkpt lat="46.05827" lon="4.70315">
        <ele>197</ele>
        <time>2018-06-26T09:13:08Z</time>
      </trkpt>
      <trkpt lat="46.05831" lon="4.70322">
        <ele>197</ele>
        <time>2018-06-26T09:13:09Z</time>
      </trkpt>
      <trkpt lat="46.05835" lon="4.70327">
        <ele>197</ele>
        <time>2018-06-26T09:13:10Z</time>
      </trkpt>
      <trkpt lat="46.05839" lon="4.70334">
        <ele>197</ele>
        <time>2018-06-26T09:13:11Z</time>
      </trkpt>
      <trkpt lat="46.05843" lon="4.7034">
        <ele>197</ele>
        <time>2018-06-26T09:13:12Z</time>
      </trkpt>
      <trkpt lat="46.05847" lon="4.70347">
        <ele>196</ele>
        <time>2018-06-26T09:13:13Z</time>
      </trkpt>
      <trkpt lat="46.05853" lon="4.70354">
        <ele>196</ele>
        <time>2018-06-26T09:13:14Z</time>
      </trkpt>
      <trkpt lat="46.05857" lon="4.70361">
        <ele>196</ele>
        <time>2018-06-26T09:13:15Z</time>
      </trkpt>
      <trkpt lat="46.05862" lon="4.70368">
        <ele>196</ele>
        <time>2018-06-26T09:13:16Z</time>
      </trkpt>
      <trkpt lat="46.05867" lon="4.70372">
        <ele>196</ele>
        <time>2018-06-26T09:13:17Z</time>
      </trkpt>
      <trkpt lat="46.0587" lon="4.70379">
        <ele>196</ele>
        <time>2018-06-26T09:13:18Z</time>
      </trkpt>
      <trkpt lat="46.05872" lon="4.70386">
        <ele>196</ele>
        <time>2018-06-26T09:13:19Z</time>
      </trkpt>
      <trkpt lat="46.05876" lon="4.70392">
        <ele>196</ele>
        <time>2018-06-26T09:13:20Z</time>
      </trkpt>
      <trkpt lat="46.05881" lon="4.70397">
        <ele>196</ele>
        <time>2018-06-26T09:13:21Z</time>
      </trkpt>
      <trkpt lat="46.05885" lon="4.70404">
        <ele>196</ele>
        <time>2018-06-26T09:13:22Z</time>
      </trkpt>
      <trkpt lat="46.0589" lon="4.70409">
        <ele>196</ele>
        <time>2018-06-26T09:13:23Z</time>
      </trkpt>
      <trkpt lat="46.05894" lon="4.70418">
        <ele>195</ele>
        <time>2018-06-26T09:13:24Z</time>
      </trkpt>
      <trkpt lat="46.05897" lon="4.70424">
        <ele>195</ele>
        <time>2018-06-26T09:13:25Z</time>
      </trkpt>
      <trkpt lat="46.05901" lon="4.7043">
        <ele>195</ele>
        <time>2018-06-26T09:13:26Z</time>
      </trkpt>
      <trkpt lat="46.05904" lon="4.70436">
        <ele>195</ele>
        <time>2018-06-26T09:13:27Z</time>
      </trkpt>
      <trkpt lat="46.05906" lon="4.70443">
        <ele>195</ele>
        <time>2018-06-26T09:13:28Z</time>
      </trkpt>
      <trkpt lat="46.05909" lon="4.70449">
        <ele>195</ele>
        <time>2018-06-26T09:13:29Z</time>
      </trkpt>
      <trkpt lat="46.05912" lon="4.70455">
        <ele>195</ele>
        <time>2018-06-26T09:13:30Z</time>
      </trkpt>
      <trkpt lat="46.05916" lon="4.7046">
        <ele>195</ele>
        <time>2018-06-26T09:13:31Z</time>
      </trkpt>
      <trkpt lat="46.05918" lon="4.70469">
        <ele>195</ele>
        <time>2018-06-26T09:13:32Z</time>
      </trkpt>
      <trkpt lat="46.05921" lon="4.70477">
        <ele>195</ele>
        <time>2018-06-26T09:13:33Z</time>
      </trkpt>
      <trkpt lat="46.05925" lon="4.70484">
        <ele>195</ele>
        <time>2018-06-26T09:13:34Z</time>
      </trkpt>
      <trkpt lat="46.05926" lon="4.70492">
        <ele>196</ele>
        <time>2018-06-26T09:13:35Z</time>
      </trkpt>
      <trkpt lat="46.05928" lon="4.70501">
        <ele>195</ele>
        <time>2018-06-26T09:13:36Z</time>
      </trkpt>
      <trkpt lat="46.05929" lon="4.70508">
        <ele>195</ele>
        <time>2018-06-26T09:13:37Z</time>
      </trkpt>
      <trkpt lat="46.05928" lon="4.70516">
        <ele>195</ele>
        <time>2018-06-26T09:13:38Z</time>
      </trkpt>
      <trkpt lat="46.05927" lon="4.70525">
        <ele>195</ele>
        <time>2018-06-26T09:13:39Z</time>
      </trkpt>
      <trkpt lat="46.05925" lon="4.70531">
        <ele>195</ele>
        <time>2018-06-26T09:13:40Z</time>
      </trkpt>
      <trkpt lat="46.05922" lon="4.70539">
        <ele>195</ele>
        <time>2018-06-26T09:13:41Z</time>
      </trkpt>
      <trkpt lat="46.0592" lon="4.70546">
        <ele>195</ele>
        <time>2018-06-26T09:13:42Z</time>
      </trkpt>
      <trkpt lat="46.05918" lon="4.70554">
        <ele>195</ele>
        <time>2018-06-26T09:13:43Z</time>
      </trkpt>
      <trkpt lat="46.05917" lon="4.70559">
        <ele>195</ele>
        <time>2018-06-26T09:13:44Z</time>
      </trkpt>
      <trkpt lat="46.05915" lon="4.70567">
        <ele>195</ele>
        <time>2018-06-26T09:13:45Z</time>
      </trkpt>
      <trkpt lat="46.05912" lon="4.70574">
        <ele>195</ele>
        <time>2018-06-26T09:13:46Z</time>
      </trkpt>
      <trkpt lat="46.0591" lon="4.70581">
        <ele>195</ele>
        <time>2018-06-26T09:13:47Z</time>
      </trkpt>
      <trkpt lat="46.05909" lon="4.7059">
        <ele>195</ele>
        <time>2018-06-26T09:13:48Z</time>
      </trkpt>
      <trkpt lat="46.05908" lon="4.70597">
        <ele>194</ele>
        <time>2018-06-26T09:13:49Z</time>
      </trkpt>
      <trkpt lat="46.05907" lon="4.70605">
        <ele>194</ele>
        <time>2018-06-26T09:13:50Z</time>
      </trkpt>
      <trkpt lat="46.05907" lon="4.70612">
        <ele>194</ele>
        <time>2018-06-26T09:13:51Z</time>
      </trkpt>
      <trkpt lat="46.05906" lon="4.70621">
        <ele>194</ele>
        <time>2018-06-26T09:13:52Z</time>
      </trkpt>
      <trkpt lat="46.05905" lon="4.7063">
        <ele>194</ele>
        <time>2018-06-26T09:13:53Z</time>
      </trkpt>
      <trkpt lat="46.05904" lon="4.70638">
        <ele>194</ele>
        <time>2018-06-26T09:13:54Z</time>
      </trkpt>
      <trkpt lat="46.05903" lon="4.70646">
        <ele>194</ele>
        <time>2018-06-26T09:13:55Z</time>
      </trkpt>
      <trkpt lat="46.05903" lon="4.70652">
        <ele>194</ele>
        <time>2018-06-26T09:13:56Z</time>
      </trkpt>
      <trkpt lat="46.05904" lon="4.70659">
        <ele>194</ele>
        <time>2018-06-26T09:13:57Z</time>
      </trkpt>
      <trkpt lat="46.05904" lon="4.70667">
        <ele>194</ele>
        <time>2018-06-26T09:13:58Z</time>
      </trkpt>
      <trkpt lat="46.05904" lon="4.70675">
        <ele>194</ele>
        <time>2018-06-26T09:13:59Z</time>
      </trkpt>
      <trkpt lat="46.05905" lon="4.70682">
        <ele>194</ele>
        <time>2018-06-26T09:14:00Z</time>
      </trkpt>
      <trkpt lat="46.05905" lon="4.70689">
        <ele>194</ele>
        <time>2018-06-26T09:14:01Z</time>
      </trkpt>
      <trkpt lat="46.05907" lon="4.70697">
        <ele>194</ele>
        <time>2018-06-26T09:14:02Z</time>
      </trkpt>
      <trkpt lat="46.0591" lon="4.70703">
        <ele>194</ele>
        <time>2018-06-26T09:14:03Z</time>
      </trkpt>
      <trkpt lat="46.05911" lon="4.70711">
        <ele>194</ele>
        <time>2018-06-26T09:14:04Z</time>
      </trkpt>
      <trkpt lat="46.05913" lon="4.70718">
        <ele>194</ele>
        <time>2018-06-26T09:14:05Z</time>
      </trkpt>
      <trkpt lat="46.05914" lon="4.70726">
        <ele>194</ele>
        <time>2018-06-26T09:14:06Z</time>
      </trkpt>
      <trkpt lat="46.05916" lon="4.70734">
        <ele>194</ele>
        <time>2018-06-26T09:14:07Z</time>
      </trkpt>
      <trkpt lat="46.05917" lon="4.70741">
        <ele>194</ele>
        <time>2018-06-26T09:14:08Z</time>
      </trkpt>
      <trkpt lat="46.05919" lon="4.70749">
        <ele>194</ele>
        <time>2018-06-26T09:14:09Z</time>
      </trkpt>
      <trkpt lat="46.0592" lon="4.70756">
        <ele>194</ele>
        <time>2018-06-26T09:14:10Z</time>
      </trkpt>
      <trkpt lat="46.05921" lon="4.70763">
        <ele>194</ele>
        <time>2018-06-26T09:14:11Z</time>
      </trkpt>
      <trkpt lat="46.05922" lon="4.70772">
        <ele>194</ele>
        <time>2018-06-26T09:14:12Z</time>
      </trkpt>
      <trkpt lat="46.05923" lon="4.70781">
        <ele>194</ele>
        <time>2018-06-26T09:14:13Z</time>
      </trkpt>
      <trkpt lat="46.05924" lon="4.7079">
        <ele>194</ele>
        <time>2018-06-26T09:14:14Z</time>
      </trkpt>
      <trkpt lat="46.05925" lon="4.70799">
        <ele>194</ele>
        <time>2018-06-26T09:14:15Z</time>
      </trkpt>
      <trkpt lat="46.05927" lon="4.70808">
        <ele>194</ele>
        <time>2018-06-26T09:14:16Z</time>
      </trkpt>
      <trkpt lat="46.05927" lon="4.70817">
        <ele>194</ele>
        <time>2018-06-26T09:14:17Z</time>
      </trkpt>
      <trkpt lat="46.05926" lon="4.70826">
        <ele>195</ele>
        <time>2018-06-26T09:14:18Z</time>
      </trkpt>
      <trkpt lat="46.05926" lon="4.70834">
        <ele>195</ele>
        <time>2018-06-26T09:14:19Z</time>
      </trkpt>
      <trkpt lat="46.05926" lon="4.70843">
        <ele>194</ele>
        <time>2018-06-26T09:14:20Z</time>
      </trkpt>
      <trkpt lat="46.05927" lon="4.7085">
        <ele>194</ele>
        <time>2018-06-26T09:14:21Z</time>
      </trkpt>
      <trkpt lat="46.05928" lon="4.70858">
        <ele>194</ele>
        <time>2018-06-26T09:14:22Z</time>
      </trkpt>
      <trkpt lat="46.05929" lon="4.70868">
        <ele>194</ele>
        <time>2018-06-26T09:14:23Z</time>
      </trkpt>
      <trkpt lat="46.0593" lon="4.70876">
        <ele>194</ele>
        <time>2018-06-26T09:14:24Z</time>
      </trkpt>
      <trkpt lat="46.05932" lon="4.70884">
        <ele>194</ele>
        <time>2018-06-26T09:14:25Z</time>
      </trkpt>
      <trkpt lat="46.05934" lon="4.70893">
        <ele>194</ele>
        <time>2018-06-26T09:14:26Z</time>
      </trkpt>
      <trkpt lat="46.05934" lon="4.70902">
        <ele>194</ele>
        <time>2018-06-26T09:14:27Z</time>
      </trkpt>
      <trkpt lat="46.05936" lon="4.70912">
        <ele>194</ele>
        <time>2018-06-26T09:14:28Z</time>
      </trkpt>
      <trkpt lat="46.05937" lon="4.70921">
        <ele>194</ele>
        <time>2018-06-26T09:14:29Z</time>
      </trkpt>
      <trkpt lat="46.05939" lon="4.7093">
        <ele>194</ele>
        <time>2018-06-26T09:14:30Z</time>
      </trkpt>
      <trkpt lat="46.05941" lon="4.7094">
        <ele>193</ele>
        <time>2018-06-26T09:14:31Z</time>
      </trkpt>
      <trkpt lat="46.05944" lon="4.7095">
        <ele>193</ele>
        <time>2018-06-26T09:14:32Z</time>
      </trkpt>
      <trkpt lat="46.05946" lon="4.70959">
        <ele>193</ele>
        <time>2018-06-26T09:14:33Z</time>
      </trkpt>
      <trkpt lat="46.05949" lon="4.70969">
        <ele>193</ele>
        <time>2018-06-26T09:14:34Z</time>
      </trkpt>
      <trkpt lat="46.05951" lon="4.70978">
        <ele>193</ele>
        <time>2018-06-26T09:14:35Z</time>
      </trkpt>
      <trkpt lat="46.05952" lon="4.70986">
        <ele>193</ele>
        <time>2018-06-26T09:14:36Z</time>
      </trkpt>
      <trkpt lat="46.05955" lon="4.70995">
        <ele>193</ele>
        <time>2018-06-26T09:14:37Z</time>
      </trkpt>
      <trkpt lat="46.05957" lon="4.71003">
        <ele>193</ele>
        <time>2018-06-26T09:14:38Z</time>
      </trkpt>
      <trkpt lat="46.05959" lon="4.71012">
        <ele>193</ele>
        <time>2018-06-26T09:14:39Z</time>
      </trkpt>
      <trkpt lat="46.05962" lon="4.71019">
        <ele>193</ele>
        <time>2018-06-26T09:14:40Z</time>
      </trkpt>
      <trkpt lat="46.05965" lon="4.71026">
        <ele>193</ele>
        <time>2018-06-26T09:14:41Z</time>
      </trkpt>
      <trkpt lat="46.05968" lon="4.71034">
        <ele>193</ele>
        <time>2018-06-26T09:14:42Z</time>
      </trkpt>
      <trkpt lat="46.05972" lon="4.71041">
        <ele>193</ele>
        <time>2018-06-26T09:14:43Z</time>
      </trkpt>
      <trkpt lat="46.05974" lon="4.71047">
        <ele>193</ele>
        <time>2018-06-26T09:14:44Z</time>
      </trkpt>
      <trkpt lat="46.05979" lon="4.71052">
        <ele>193</ele>
        <time>2018-06-26T09:14:45Z</time>
      </trkpt>
      <trkpt lat="46.05981" lon="4.71059">
        <ele>193</ele>
        <time>2018-06-26T09:14:46Z</time>
      </trkpt>
      <trkpt lat="46.05983" lon="4.71066">
        <ele>193</ele>
        <time>2018-06-26T09:14:47Z</time>
      </trkpt>
      <trkpt lat="46.05986" lon="4.71074">
        <ele>193</ele>
        <time>2018-06-26T09:14:48Z</time>
      </trkpt>
      <trkpt lat="46.05988" lon="4.71081">
        <ele>193</ele>
        <time>2018-06-26T09:14:49Z</time>
      </trkpt>
      <trkpt lat="46.05992" lon="4.71088">
        <ele>193</ele>
        <time>2018-06-26T09:14:50Z</time>
      </trkpt>
      <trkpt lat="46.05995" lon="4.71095">
        <ele>193</ele>
        <time>2018-06-26T09:14:51Z</time>
      </trkpt>
      <trkpt lat="46.05998" lon="4.71102">
        <ele>193</ele>
        <time>2018-06-26T09:14:52Z</time>
      </trkpt>
      <trkpt lat="46.06002" lon="4.7111">
        <ele>193</ele>
        <time>2018-06-26T09:14:53Z</time>
      </trkpt>
      <trkpt lat="46.06005" lon="4.71116">
        <ele>193</ele>
        <time>2018-06-26T09:14:54Z</time>
      </trkpt>
      <trkpt lat="46.06007" lon="4.71124">
        <ele>193</ele>
        <time>2018-06-26T09:14:55Z</time>
      </trkpt>
      <trkpt lat="46.0601" lon="4.71131">
        <ele>193</ele>
        <time>2018-06-26T09:14:56Z</time>
      </trkpt>
      <trkpt lat="46.06013" lon="4.71139">
        <ele>193</ele>
        <time>2018-06-26T09:14:57Z</time>
      </trkpt>
      <trkpt lat="46.06015" lon="4.71146">
        <ele>193</ele>
        <time>2018-06-26T09:14:58Z</time>
      </trkpt>
      <trkpt lat="46.06018" lon="4.71154">
        <ele>194</ele>
        <time>2018-06-26T09:14:59Z</time>
      </trkpt>
      <trkpt lat="46.0602" lon="4.71162">
        <ele>194</ele>
        <time>2018-06-26T09:15:00Z</time>
      </trkpt>
      <trkpt lat="46.06023" lon="4.71169">
        <ele>194</ele>
        <time>2018-06-26T09:15:01Z</time>
      </trkpt>
      <trkpt lat="46.06026" lon="4.71177">
        <ele>193</ele>
        <time>2018-06-26T09:15:02Z</time>
      </trkpt>
      <trkpt lat="46.06029" lon="4.71184">
        <ele>193</ele>
        <time>2018-06-26T09:15:03Z</time>
      </trkpt>
      <trkpt lat="46.06031" lon="4.7119">
        <ele>193</ele>
        <time>2018-06-26T09:15:04Z</time>
      </trkpt>
      <trkpt lat="46.06033" lon="4.71197">
        <ele>193</ele>
        <time>2018-06-26T09:15:05Z</time>
      </trkpt>
      <trkpt lat="46.06036" lon="4.71203">
        <ele>193</ele>
        <time>2018-06-26T09:15:06Z</time>
      </trkpt>
      <trkpt lat="46.06038" lon="4.71211">
        <ele>193</ele>
        <time>2018-06-26T09:15:07Z</time>
      </trkpt>
      <trkpt lat="46.06041" lon="4.71218">
        <ele>193</ele>
        <time>2018-06-26T09:15:08Z</time>
      </trkpt>
      <trkpt lat="46.06043" lon="4.71226">
        <ele>193</ele>
        <time>2018-06-26T09:15:09Z</time>
      </trkpt>
      <trkpt lat="46.06047" lon="4.71233">
        <ele>193</ele>
        <time>2018-06-26T09:15:10Z</time>
      </trkpt>
      <trkpt lat="46.06049" lon="4.71241">
        <ele>193</ele>
        <time>2018-06-26T09:15:11Z</time>
      </trkpt>
      <trkpt lat="46.06052" lon="4.71248">
        <ele>193</ele>
        <time>2018-06-26T09:15:12Z</time>
      </trkpt>
      <trkpt lat="46.06054" lon="4.71255">
        <ele>193</ele>
        <time>2018-06-26T09:15:13Z</time>
      </trkpt>
      <trkpt lat="46.06056" lon="4.71263">
        <ele>193</ele>
        <time>2018-06-26T09:15:14Z</time>
      </trkpt>
      <trkpt lat="46.06058" lon="4.7127">
        <ele>193</ele>
        <time>2018-06-26T09:15:15Z</time>
      </trkpt>
      <trkpt lat="46.06061" lon="4.71276">
        <ele>193</ele>
        <time>2018-06-26T09:15:16Z</time>
      </trkpt>
      <trkpt lat="46.06063" lon="4.71282">
        <ele>193</ele>
        <time>2018-06-26T09:15:17Z</time>
      </trkpt>
      <trkpt lat="46.06065" lon="4.71289">
        <ele>193</ele>
        <time>2018-06-26T09:15:18Z</time>
      </trkpt>
      <trkpt lat="46.06067" lon="4.71295">
        <ele>193</ele>
        <time>2018-06-26T09:15:19Z</time>
      </trkpt>
      <trkpt lat="46.0607" lon="4.71301">
        <ele>193</ele>
        <time>2018-06-26T09:15:20Z</time>
      </trkpt>
      <trkpt lat="46.06072" lon="4.71308">
        <ele>193</ele>
        <time>2018-06-26T09:15:21Z</time>
      </trkpt>
      <trkpt lat="46.06074" lon="4.71316">
        <ele>193</ele>
        <time>2018-06-26T09:15:22Z</time>
      </trkpt>
      <trkpt lat="46.06077" lon="4.71323">
        <ele>193</ele>
        <time>2018-06-26T09:15:23Z</time>
      </trkpt>
      <trkpt lat="46.06079" lon="4.71331">
        <ele>193</ele>
        <time>2018-06-26T09:15:24Z</time>
      </trkpt>
      <trkpt lat="46.06082" lon="4.71338">
        <ele>193</ele>
        <time>2018-06-26T09:15:25Z</time>
      </trkpt>
      <trkpt lat="46.06084" lon="4.71345">
        <ele>193</ele>
        <time>2018-06-26T09:15:26Z</time>
      </trkpt>
      <trkpt lat="46.06087" lon="4.71351">
        <ele>193</ele>
        <time>2018-06-26T09:15:27Z</time>
      </trkpt>
      <trkpt lat="46.06089" lon="4.71358">
        <ele>193</ele>
        <time>2018-06-26T09:15:28Z</time>
      </trkpt>
      <trkpt lat="46.06092" lon="4.71364">
        <ele>193</ele>
        <time>2018-06-26T09:15:29Z</time>
      </trkpt>
      <trkpt lat="46.06095" lon="4.71371">
        <ele>193</ele>
        <time>2018-06-26T09:15:30Z</time>
      </trkpt>
      <trkpt lat="46.06098" lon="4.71378">
        <ele>193</ele>
        <time>2018-06-26T09:15:31Z</time>
      </trkpt>
      <trkpt lat="46.06099" lon="4.71386">
        <ele>193</ele>
        <time>2018-06-26T09:15:32Z</time>
      </trkpt>
      <trkpt lat="46.06101" lon="4.71393">
        <ele>193</ele>
        <time>2018-06-26T09:15:33Z</time>
      </trkpt>
      <trkpt lat="46.06104" lon="4.714">
        <ele>193</ele>
        <time>2018-06-26T09:15:34Z</time>
      </trkpt>
      <trkpt lat="46.06106" lon="4.71407">
        <ele>193</ele>
        <time>2018-06-26T09:15:35Z</time>
      </trkpt>
      <trkpt lat="46.06108" lon="4.71414">
        <ele>193</ele>
        <time>2018-06-26T09:15:36Z</time>
      </trkpt>
      <trkpt lat="46.0611" lon="4.71423">
        <ele>193</ele>
        <time>2018-06-26T09:15:37Z</time>
      </trkpt>
      <trkpt lat="46.06111" lon="4.71431">
        <ele>193</ele>
        <time>2018-06-26T09:15:38Z</time>
      </trkpt>
      <trkpt lat="46.06114" lon="4.71439">
        <ele>193</ele>
        <time>2018-06-26T09:15:39Z</time>
      </trkpt>
      <trkpt lat="46.06116" lon="4.71447">
        <ele>193</ele>
        <time>2018-06-26T09:15:40Z</time>
      </trkpt>
      <trkpt lat="46.06118" lon="4.71454">
        <ele>193</ele>
        <time>2018-06-26T09:15:41Z</time>
      </trkpt>
      <trkpt lat="46.0612" lon="4.71462">
        <ele>193</ele>
        <time>2018-06-26T09:15:42Z</time>
      </trkpt>
      <trkpt lat="46.06123" lon="4.7147">
        <ele>193</ele>
        <time>2018-06-26T09:15:43Z</time>
      </trkpt>
      <trkpt lat="46.06126" lon="4.71477">
        <ele>192</ele>
        <time>2018-06-26T09:15:44Z</time>
      </trkpt>
      <trkpt lat="46.06128" lon="4.71486">
        <ele>192</ele>
        <time>2018-06-26T09:15:45Z</time>
      </trkpt>
      <trkpt lat="46.0613" lon="4.71493">
        <ele>192</ele>
        <time>2018-06-26T09:15:46Z</time>
      </trkpt>
      <trkpt lat="46.06134" lon="4.71501">
        <ele>192</ele>
        <time>2018-06-26T09:15:47Z</time>
      </trkpt>
      <trkpt lat="46.06136" lon="4.71507">
        <ele>192</ele>
        <time>2018-06-26T09:15:48Z</time>
      </trkpt>
      <trkpt lat="46.06139" lon="4.71514">
        <ele>192</ele>
        <time>2018-06-26T09:15:49Z</time>
      </trkpt>
      <trkpt lat="46.06143" lon="4.7152">
        <ele>192</ele>
        <time>2018-06-26T09:15:50Z</time>
      </trkpt>
      <trkpt lat="46.06146" lon="4.71526">
        <ele>192</ele>
        <time>2018-06-26T09:15:51Z</time>
      </trkpt>
      <trkpt lat="46.06149" lon="4.71532">
        <ele>192</ele>
        <time>2018-06-26T09:15:52Z</time>
      </trkpt>
      <trkpt lat="46.06153" lon="4.71536">
        <ele>192</ele>
        <time>2018-06-26T09:15:53Z</time>
      </trkpt>
      <trkpt lat="46.06157" lon="4.71542">
        <ele>192</ele>
        <time>2018-06-26T09:15:54Z</time>
      </trkpt>
      <trkpt lat="46.0616" lon="4.71548">
        <ele>192</ele>
        <time>2018-06-26T09:15:55Z</time>
      </trkpt>
      <trkpt lat="46.06164" lon="4.71553">
        <ele>192</ele>
        <time>2018-06-26T09:15:56Z</time>
      </trkpt>
      <trkpt lat="46.06168" lon="4.7156">
        <ele>191</ele>
        <time>2018-06-26T09:15:57Z</time>
      </trkpt>
      <trkpt lat="46.06173" lon="4.71565">
        <ele>191</ele>
        <time>2018-06-26T09:15:58Z</time>
      </trkpt>
      <trkpt lat="46.06178" lon="4.71571">
        <ele>191</ele>
        <time>2018-06-26T09:15:59Z</time>
      </trkpt>
      <trkpt lat="46.06182" lon="4.71577">
        <ele>191</ele>
        <time>2018-06-26T09:16:00Z</time>
      </trkpt>
      <trkpt lat="46.06186" lon="4.71583">
        <ele>191</ele>
        <time>2018-06-26T09:16:01Z</time>
      </trkpt>
      <trkpt lat="46.06189" lon="4.7159">
        <ele>191</ele>
        <time>2018-06-26T09:16:02Z</time>
      </trkpt>
      <trkpt lat="46.06193" lon="4.71595">
        <ele>191</ele>
        <time>2018-06-26T09:16:03Z</time>
      </trkpt>
      <trkpt lat="46.06197" lon="4.71601">
        <ele>191</ele>
        <time>2018-06-26T09:16:04Z</time>
      </trkpt>
      <trkpt lat="46.06201" lon="4.71607">
        <ele>191</ele>
        <time>2018-06-26T09:16:05Z</time>
      </trkpt>
      <trkpt lat="46.06204" lon="4.71612">
        <ele>191</ele>
        <time>2018-06-26T09:16:06Z</time>
      </trkpt>
      <trkpt lat="46.06207" lon="4.71619">
        <ele>191</ele>
        <time>2018-06-26T09:16:07Z</time>
      </trkpt>
      <trkpt lat="46.06211" lon="4.71625">
        <ele>191</ele>
        <time>2018-06-26T09:16:08Z</time>
      </trkpt>
      <trkpt lat="46.06215" lon="4.71631">
        <ele>191</ele>
        <time>2018-06-26T09:16:09Z</time>
      </trkpt>
      <trkpt lat="46.0622" lon="4.71638">
        <ele>191</ele>
        <time>2018-06-26T09:16:10Z</time>
      </trkpt>
      <trkpt lat="46.06225" lon="4.71645">
        <ele>191</ele>
        <time>2018-06-26T09:16:11Z</time>
      </trkpt>
      <trkpt lat="46.06228" lon="4.71651">
        <ele>191</ele>
        <time>2018-06-26T09:16:12Z</time>
      </trkpt>
      <trkpt lat="46.06232" lon="4.71658">
        <ele>191</ele>
        <time>2018-06-26T09:16:13Z</time>
      </trkpt>
      <trkpt lat="46.06235" lon="4.71663">
        <ele>191</ele>
        <time>2018-06-26T09:16:14Z</time>
      </trkpt>
      <trkpt lat="46.06239" lon="4.71669">
        <ele>191</ele>
        <time>2018-06-26T09:16:15Z</time>
      </trkpt>
      <trkpt lat="46.06241" lon="4.71676">
        <ele>191</ele>
        <time>2018-06-26T09:16:16Z</time>
      </trkpt>
      <trkpt lat="46.06244" lon="4.71682">
        <ele>191</ele>
        <time>2018-06-26T09:16:17Z</time>
      </trkpt>
      <trkpt lat="46.06247" lon="4.71689">
        <ele>191</ele>
        <time>2018-06-26T09:16:18Z</time>
      </trkpt>
      <trkpt lat="46.06249" lon="4.71695">
        <ele>191</ele>
        <time>2018-06-26T09:16:19Z</time>
      </trkpt>
      <trkpt lat="46.06252" lon="4.71703">
        <ele>190</ele>
        <time>2018-06-26T09:16:20Z</time>
      </trkpt>
      <trkpt lat="46.06254" lon="4.7171">
        <ele>190</ele>
        <time>2018-06-26T09:16:21Z</time>
      </trkpt>
      <trkpt lat="46.06257" lon="4.71717">
        <ele>190</ele>
        <time>2018-06-26T09:16:22Z</time>
      </trkpt>
      <trkpt lat="46.06259" lon="4.71724">
        <ele>190</ele>
        <time>2018-06-26T09:16:23Z</time>
      </trkpt>
      <trkpt lat="46.06262" lon="4.71732">
        <ele>190</ele>
        <time>2018-06-26T09:16:24Z</time>
      </trkpt>
      <trkpt lat="46.06264" lon="4.71739">
        <ele>190</ele>
        <time>2018-06-26T09:16:25Z</time>
      </trkpt>
      <trkpt lat="46.06267" lon="4.71747">
        <ele>190</ele>
        <time>2018-06-26T09:16:26Z</time>
      </trkpt>
      <trkpt lat="46.06269" lon="4.71755">
        <ele>190</ele>
        <time>2018-06-26T09:16:27Z</time>
      </trkpt>
      <trkpt lat="46.06272" lon="4.71763">
        <ele>190</ele>
        <time>2018-06-26T09:16:28Z</time>
      </trkpt>
      <trkpt lat="46.06274" lon="4.71772">
        <ele>190</ele>
        <time>2018-06-26T09:16:29Z</time>
      </trkpt>
      <trkpt lat="46.06277" lon="4.71778">
        <ele>190</ele>
        <time>2018-06-26T09:16:30Z</time>
      </trkpt>
      <trkpt lat="46.06279" lon="4.71786">
        <ele>190</ele>
        <time>2018-06-26T09:16:31Z</time>
      </trkpt>
      <trkpt lat="46.06281" lon="4.71794">
        <ele>190</ele>
        <time>2018-06-26T09:16:32Z</time>
      </trkpt>
      <trkpt lat="46.06283" lon="4.71801">
        <ele>190</ele>
        <time>2018-06-26T09:16:33Z</time>
      </trkpt>
      <trkpt lat="46.06283" lon="4.7181">
        <ele>190</ele>
        <time>2018-06-26T09:16:34Z</time>
      </trkpt>
      <trkpt lat="46.06285" lon="4.71818">
        <ele>189</ele>
        <time>2018-06-26T09:16:35Z</time>
      </trkpt>
      <trkpt lat="46.06287" lon="4.71827">
        <ele>189</ele>
        <time>2018-06-26T09:16:36Z</time>
      </trkpt>
      <trkpt lat="46.0629" lon="4.71834">
        <ele>189</ele>
        <time>2018-06-26T09:16:37Z</time>
      </trkpt>
      <trkpt lat="46.06292" lon="4.71843">
        <ele>189</ele>
        <time>2018-06-26T09:16:38Z</time>
      </trkpt>
      <trkpt lat="46.06295" lon="4.71851">
        <ele>189</ele>
        <time>2018-06-26T09:16:39Z</time>
      </trkpt>
      <trkpt lat="46.06297" lon="4.71861">
        <ele>189</ele>
        <time>2018-06-26T09:16:40Z</time>
      </trkpt>
      <trkpt lat="46.06299" lon="4.71871">
        <ele>189</ele>
        <time>2018-06-26T09:16:41Z</time>
      </trkpt>
      <trkpt lat="46.06301" lon="4.71882">
        <ele>189</ele>
        <time>2018-06-26T09:16:42Z</time>
      </trkpt>
      <trkpt lat="46.06303" lon="4.71892">
        <ele>189</ele>
        <time>2018-06-26T09:16:43Z</time>
      </trkpt>
      <trkpt lat="46.06305" lon="4.71902">
        <ele>189</ele>
        <time>2018-06-26T09:16:44Z</time>
      </trkpt>
      <trkpt lat="46.06307" lon="4.71912">
        <ele>189</ele>
        <time>2018-06-26T09:16:45Z</time>
      </trkpt>
      <trkpt lat="46.06309" lon="4.71921">
        <ele>190</ele>
        <time>2018-06-26T09:16:46Z</time>
      </trkpt>
      <trkpt lat="46.06311" lon="4.71927">
        <ele>190</ele>
        <time>2018-06-26T09:16:47Z</time>
      </trkpt>
      <trkpt lat="46.06314" lon="4.71935">
        <ele>190</ele>
        <time>2018-06-26T09:16:48Z</time>
      </trkpt>
      <trkpt lat="46.06315" lon="4.71944">
        <ele>190</ele>
        <time>2018-06-26T09:16:49Z</time>
      </trkpt>
      <trkpt lat="46.06316" lon="4.7195">
        <ele>190</ele>
        <time>2018-06-26T09:16:50Z</time>
      </trkpt>
      <trkpt lat="46.06318" lon="4.71957">
        <ele>190</ele>
        <time>2018-06-26T09:16:51Z</time>
      </trkpt>
      <trkpt lat="46.06319" lon="4.71963">
        <ele>190</ele>
        <time>2018-06-26T09:16:52Z</time>
      </trkpt>
      <trkpt lat="46.06323" lon="4.71974">
        <ele>190</ele>
        <time>2018-06-26T09:16:54Z</time>
      </trkpt>
      <trkpt lat="46.06325" lon="4.71981">
        <ele>190</ele>
        <time>2018-06-26T09:16:55Z</time>
      </trkpt>
      <trkpt lat="46.06327" lon="4.71988">
        <ele>190</ele>
        <time>2018-06-26T09:16:56Z</time>
      </trkpt>
      <trkpt lat="46.06329" lon="4.71995">
        <ele>189</ele>
        <time>2018-06-26T09:16:57Z</time>
      </trkpt>
      <trkpt lat="46.06332" lon="4.72003">
        <ele>189</ele>
        <time>2018-06-26T09:16:58Z</time>
      </trkpt>
      <trkpt lat="46.06334" lon="4.7201">
        <ele>189</ele>
        <time>2018-06-26T09:16:59Z</time>
      </trkpt>
      <trkpt lat="46.06337" lon="4.72016">
        <ele>189</ele>
        <time>2018-06-26T09:17:00Z</time>
      </trkpt>
      <trkpt lat="46.06339" lon="4.72025">
        <ele>189</ele>
        <time>2018-06-26T09:17:01Z</time>
      </trkpt>
      <trkpt lat="46.06341" lon="4.72032">
        <ele>189</ele>
        <time>2018-06-26T09:17:02Z</time>
      </trkpt>
      <trkpt lat="46.06344" lon="4.7204">
        <ele>189</ele>
        <time>2018-06-26T09:17:03Z</time>
      </trkpt>
      <trkpt lat="46.06345" lon="4.72047">
        <ele>189</ele>
        <time>2018-06-26T09:17:04Z</time>
      </trkpt>
      <trkpt lat="46.06348" lon="4.72054">
        <ele>189</ele>
        <time>2018-06-26T09:17:05Z</time>
      </trkpt>
      <trkpt lat="46.06351" lon="4.7206">
        <ele>189</ele>
        <time>2018-06-26T09:17:06Z</time>
      </trkpt>
      <trkpt lat="46.06354" lon="4.72069">
        <ele>189</ele>
        <time>2018-06-26T09:17:07Z</time>
      </trkpt>
      <trkpt lat="46.06357" lon="4.72075">
        <ele>189</ele>
        <time>2018-06-26T09:17:08Z</time>
      </trkpt>
      <trkpt lat="46.06358" lon="4.72083">
        <ele>189</ele>
        <time>2018-06-26T09:17:09Z</time>
      </trkpt>
      <trkpt lat="46.06361" lon="4.72088">
        <ele>189</ele>
        <time>2018-06-26T09:17:10Z</time>
      </trkpt>
      <trkpt lat="46.06363" lon="4.72095">
        <ele>189</ele>
        <time>2018-06-26T09:17:11Z</time>
      </trkpt>
      <trkpt lat="46.06365" lon="4.72102">
        <ele>189</ele>
        <time>2018-06-26T09:17:12Z</time>
      </trkpt>
      <trkpt lat="46.06368" lon="4.72109">
        <ele>189</ele>
        <time>2018-06-26T09:17:13Z</time>
      </trkpt>
      <trkpt lat="46.0637" lon="4.72116">
        <ele>189</ele>
        <time>2018-06-26T09:17:14Z</time>
      </trkpt>
      <trkpt lat="46.06373" lon="4.72124">
        <ele>189</ele>
        <time>2018-06-26T09:17:15Z</time>
      </trkpt>
      <trkpt lat="46.06376" lon="4.72131">
        <ele>189</ele>
        <time>2018-06-26T09:17:16Z</time>
      </trkpt>
      <trkpt lat="46.06378" lon="4.72138">
        <ele>189</ele>
        <time>2018-06-26T09:17:17Z</time>
      </trkpt>
      <trkpt lat="46.06381" lon="4.72144">
        <ele>189</ele>
        <time>2018-06-26T09:17:18Z</time>
      </trkpt>
      <trkpt lat="46.06384" lon="4.72151">
        <ele>189</ele>
        <time>2018-06-26T09:17:19Z</time>
      </trkpt>
      <trkpt lat="46.06386" lon="4.72158">
        <ele>188</ele>
        <time>2018-06-26T09:17:20Z</time>
      </trkpt>
      <trkpt lat="46.06388" lon="4.72165">
        <ele>188</ele>
        <time>2018-06-26T09:17:21Z</time>
      </trkpt>
      <trkpt lat="46.0639" lon="4.72172">
        <ele>189</ele>
        <time>2018-06-26T09:17:22Z</time>
      </trkpt>
      <trkpt lat="46.06392" lon="4.72179">
        <ele>189</ele>
        <time>2018-06-26T09:17:23Z</time>
      </trkpt>
      <trkpt lat="46.06394" lon="4.72185">
        <ele>189</ele>
        <time>2018-06-26T09:17:24Z</time>
      </trkpt>
      <trkpt lat="46.06395" lon="4.72191">
        <ele>189</ele>
        <time>2018-06-26T09:17:25Z</time>
      </trkpt>
      <trkpt lat="46.06397" lon="4.72201">
        <ele>190</ele>
        <time>2018-06-26T09:17:27Z</time>
      </trkpt>
      <trkpt lat="46.06398" lon="4.72207">
        <ele>190</ele>
        <time>2018-06-26T09:17:28Z</time>
      </trkpt>
      <trkpt lat="46.06402" lon="4.72217">
        <ele>190</ele>
        <time>2018-06-26T09:17:30Z</time>
      </trkpt>
      <trkpt lat="46.06404" lon="4.72222">
        <ele>190</ele>
        <time>2018-06-26T09:17:31Z</time>
      </trkpt>
      <trkpt lat="46.06407" lon="4.72233">
        <ele>190</ele>
        <time>2018-06-26T09:17:33Z</time>
      </trkpt>
      <trkpt lat="46.06409" lon="4.72238">
        <ele>190</ele>
        <time>2018-06-26T09:17:34Z</time>
      </trkpt>
      <trkpt lat="46.06411" lon="4.7225">
        <ele>190</ele>
        <time>2018-06-26T09:17:38Z</time>
      </trkpt>
      <trkpt lat="46.06411" lon="4.72252">
        <ele>190</ele>
        <time>2018-06-26T09:17:39Z</time>
      </trkpt>
      <trkpt lat="46.06412" lon="4.72254">
        <ele>190</ele>
        <time>2018-06-26T09:17:40Z</time>
      </trkpt>
      <trkpt lat="46.06411" lon="4.72256">
        <ele>190</ele>
        <time>2018-06-26T09:17:55Z</time>
      </trkpt>
      <trkpt lat="46.06411" lon="4.72257">
        <ele>190</ele>
        <time>2018-06-26T09:17:56Z</time>
      </trkpt>
      <trkpt lat="46.0641" lon="4.72266">
        <ele>191</ele>
        <time>2018-06-26T09:18:00Z</time>
      </trkpt>
      <trkpt lat="46.06411" lon="4.7227">
        <ele>191</ele>
        <time>2018-06-26T09:18:01Z</time>
      </trkpt>
      <trkpt lat="46.06413" lon="4.72278">
        <ele>192</ele>
        <time>2018-06-26T09:18:03Z</time>
      </trkpt>
      <trkpt lat="46.06419" lon="4.72287">
        <ele>190</ele>
        <time>2018-06-26T09:18:04Z</time>
      </trkpt>
      <trkpt lat="46.06424" lon="4.72289">
        <ele>190</ele>
        <time>2018-06-26T09:18:05Z</time>
      </trkpt>
      <trkpt lat="46.06428" lon="4.72289">
        <ele>190</ele>
        <time>2018-06-26T09:18:06Z</time>
      </trkpt>
      <trkpt lat="46.06437" lon="4.72292">
        <ele>190</ele>
        <time>2018-06-26T09:18:08Z</time>
      </trkpt>
      <trkpt lat="46.06442" lon="4.72292">
        <ele>190</ele>
        <time>2018-06-26T09:18:09Z</time>
      </trkpt>
      <trkpt lat="46.06448" lon="4.72296">
        <ele>190</ele>
        <time>2018-06-26T09:18:10Z</time>
      </trkpt>
      <trkpt lat="46.06451" lon="4.72301">
        <ele>190</ele>
        <time>2018-06-26T09:18:11Z</time>
      </trkpt>
      <trkpt lat="46.06449" lon="4.72313">
        <ele>191</ele>
        <time>2018-06-26T09:18:13Z</time>
      </trkpt>
      <trkpt lat="46.06449" lon="4.72319">
        <ele>191</ele>
        <time>2018-06-26T09:18:14Z</time>
      </trkpt>
      <trkpt lat="46.06448" lon="4.72328">
        <ele>191</ele>
        <time>2018-06-26T09:18:17Z</time>
      </trkpt>
      <trkpt lat="46.06448" lon="4.72332">
        <ele>191</ele>
        <time>2018-06-26T09:18:18Z</time>
      </trkpt>
      <trkpt lat="46.06444" lon="4.72342">
        <ele>194</ele>
        <time>2018-06-26T09:18:19Z</time>
      </trkpt>
      <trkpt lat="46.06445" lon="4.72344">
        <ele>194</ele>
        <time>2018-06-26T09:18:20Z</time>
      </trkpt>
      <trkpt lat="46.06442" lon="4.72354">
        <ele>194</ele>
        <time>2018-06-26T09:18:22Z</time>
      </trkpt>
      <trkpt lat="46.06439" lon="4.72362">
        <ele>194</ele>
        <time>2018-06-26T09:18:23Z</time>
      </trkpt>
      <trkpt lat="46.06436" lon="4.72371">
        <ele>194</ele>
        <time>2018-06-26T09:18:25Z</time>
      </trkpt>
      <trkpt lat="46.06435" lon="4.72374">
        <ele>194</ele>
        <time>2018-06-26T09:18:26Z</time>
      </trkpt>
      <trkpt lat="46.06434" lon="4.72384">
        <ele>195</ele>
        <time>2018-06-26T09:18:28Z</time>
      </trkpt>
      <trkpt lat="46.06433" lon="4.72392">
        <ele>195</ele>
        <time>2018-06-26T09:18:29Z</time>
      </trkpt>
      <trkpt lat="46.06429" lon="4.72402">
        <ele>195</ele>
        <time>2018-06-26T09:18:31Z</time>
      </trkpt>
      <trkpt lat="46.06427" lon="4.72408">
        <ele>195</ele>
        <time>2018-06-26T09:18:32Z</time>
      </trkpt>
      <trkpt lat="46.06427" lon="4.7241">
        <ele>195</ele>
        <time>2018-06-26T09:18:33Z</time>
      </trkpt>
      <trkpt lat="46.06424" lon="4.7242">
        <ele>196</ele>
        <time>2018-06-26T09:18:34Z</time>
      </trkpt>
      <trkpt lat="46.06421" lon="4.72431">
        <ele>196</ele>
        <time>2018-06-26T09:18:36Z</time>
      </trkpt>
      <trkpt lat="46.06417" lon="4.72435">
        <ele>197</ele>
        <time>2018-06-26T09:18:37Z</time>
      </trkpt>
      <trkpt lat="46.06416" lon="4.72446">
        <ele>197</ele>
        <time>2018-06-26T09:18:39Z</time>
      </trkpt>
      <trkpt lat="46.06409" lon="4.72446">
        <ele>197</ele>
        <time>2018-06-26T09:18:40Z</time>
      </trkpt>
      <trkpt lat="46.06402" lon="4.72453">
        <ele>197</ele>
        <time>2018-06-26T09:18:43Z</time>
      </trkpt>
      <trkpt lat="46.064" lon="4.72455">
        <ele>197</ele>
        <time>2018-06-26T09:18:44Z</time>
      </trkpt>
      <trkpt lat="46.06395" lon="4.72463">
        <ele>197</ele>
        <time>2018-06-26T09:18:45Z</time>
      </trkpt>
      <trkpt lat="46.06395" lon="4.7247">
        <ele>197</ele>
        <time>2018-06-26T09:18:46Z</time>
      </trkpt>
      <trkpt lat="46.06396" lon="4.72475">
        <ele>198</ele>
        <time>2018-06-26T09:18:47Z</time>
      </trkpt>
      <trkpt lat="46.06399" lon="4.72482">
        <ele>198</ele>
        <time>2018-06-26T09:18:48Z</time>
      </trkpt>
      <trkpt lat="46.06401" lon="4.72488">
        <ele>198</ele>
        <time>2018-06-26T09:18:49Z</time>
      </trkpt>
      <trkpt lat="46.06403" lon="4.72495">
        <ele>199</ele>
        <time>2018-06-26T09:18:50Z</time>
      </trkpt>
      <trkpt lat="46.06406" lon="4.72503">
        <ele>199</ele>
        <time>2018-06-26T09:18:51Z</time>
      </trkpt>
      <trkpt lat="46.06407" lon="4.72512">
        <ele>198</ele>
        <time>2018-06-26T09:18:52Z</time>
      </trkpt>
      <trkpt lat="46.0641" lon="4.7252">
        <ele>198</ele>
        <time>2018-06-26T09:18:53Z</time>
      </trkpt>
      <trkpt lat="46.06411" lon="4.72528">
        <ele>197</ele>
        <time>2018-06-26T09:18:54Z</time>
      </trkpt>
      <trkpt lat="46.06412" lon="4.72537">
        <ele>197</ele>
        <time>2018-06-26T09:18:55Z</time>
      </trkpt>
      <trkpt lat="46.06413" lon="4.72545">
        <ele>196</ele>
        <time>2018-06-26T09:18:56Z</time>
      </trkpt>
      <trkpt lat="46.06415" lon="4.72557">
        <ele>196</ele>
        <time>2018-06-26T09:18:57Z</time>
      </trkpt>
      <trkpt lat="46.06416" lon="4.72567">
        <ele>196</ele>
        <time>2018-06-26T09:18:58Z</time>
      </trkpt>
      <trkpt lat="46.06418" lon="4.72576">
        <ele>195</ele>
        <time>2018-06-26T09:18:59Z</time>
      </trkpt>
      <trkpt lat="46.06419" lon="4.72584">
        <ele>195</ele>
        <time>2018-06-26T09:19:00Z</time>
      </trkpt>
      <trkpt lat="46.06421" lon="4.72593">
        <ele>194</ele>
        <time>2018-06-26T09:19:01Z</time>
      </trkpt>
      <trkpt lat="46.06422" lon="4.72601">
        <ele>194</ele>
        <time>2018-06-26T09:19:02Z</time>
      </trkpt>
      <trkpt lat="46.06424" lon="4.72611">
        <ele>193</ele>
        <time>2018-06-26T09:19:03Z</time>
      </trkpt>
      <trkpt lat="46.06426" lon="4.72621">
        <ele>193</ele>
        <time>2018-06-26T09:19:04Z</time>
      </trkpt>
      <trkpt lat="46.06429" lon="4.72631">
        <ele>193</ele>
        <time>2018-06-26T09:19:05Z</time>
      </trkpt>
      <trkpt lat="46.06432" lon="4.7264">
        <ele>192</ele>
        <time>2018-06-26T09:19:06Z</time>
      </trkpt>
      <trkpt lat="46.06433" lon="4.7265">
        <ele>192</ele>
        <time>2018-06-26T09:19:07Z</time>
      </trkpt>
      <trkpt lat="46.06434" lon="4.72662">
        <ele>192</ele>
        <time>2018-06-26T09:19:08Z</time>
      </trkpt>
      <trkpt lat="46.06436" lon="4.72673">
        <ele>191</ele>
        <time>2018-06-26T09:19:09Z</time>
      </trkpt>
      <trkpt lat="46.06439" lon="4.72683">
        <ele>191</ele>
        <time>2018-06-26T09:19:10Z</time>
      </trkpt>
      <trkpt lat="46.06441" lon="4.72693">
        <ele>190</ele>
        <time>2018-06-26T09:19:11Z</time>
      </trkpt>
      <trkpt lat="46.06442" lon="4.72705">
        <ele>190</ele>
        <time>2018-06-26T09:19:12Z</time>
      </trkpt>
      <trkpt lat="46.06443" lon="4.72716">
        <ele>190</ele>
        <time>2018-06-26T09:19:13Z</time>
      </trkpt>
      <trkpt lat="46.06445" lon="4.72726">
        <ele>190</ele>
        <time>2018-06-26T09:19:14Z</time>
      </trkpt>
      <trkpt lat="46.06447" lon="4.72737">
        <ele>189</ele>
        <time>2018-06-26T09:19:15Z</time>
      </trkpt>
      <trkpt lat="46.06448" lon="4.72747">
        <ele>189</ele>
        <time>2018-06-26T09:19:16Z</time>
      </trkpt>
      <trkpt lat="46.06449" lon="4.72758">
        <ele>188</ele>
        <time>2018-06-26T09:19:17Z</time>
      </trkpt>
      <trkpt lat="46.06451" lon="4.72768">
        <ele>188</ele>
        <time>2018-06-26T09:19:18Z</time>
      </trkpt>
      <trkpt lat="46.06453" lon="4.72778">
        <ele>188</ele>
        <time>2018-06-26T09:19:19Z</time>
      </trkpt>
      <trkpt lat="46.06455" lon="4.72789">
        <ele>188</ele>
        <time>2018-06-26T09:19:20Z</time>
      </trkpt>
      <trkpt lat="46.06456" lon="4.72799">
        <ele>188</ele>
        <time>2018-06-26T09:19:21Z</time>
      </trkpt>
      <trkpt lat="46.06458" lon="4.72808">
        <ele>188</ele>
        <time>2018-06-26T09:19:22Z</time>
      </trkpt>
      <trkpt lat="46.0646" lon="4.72818">
        <ele>188</ele>
        <time>2018-06-26T09:19:23Z</time>
      </trkpt>
      <trkpt lat="46.06461" lon="4.72828">
        <ele>188</ele>
        <time>2018-06-26T09:19:24Z</time>
      </trkpt>
      <trkpt lat="46.06463" lon="4.72838">
        <ele>188</ele>
        <time>2018-06-26T09:19:25Z</time>
      </trkpt>
      <trkpt lat="46.06464" lon="4.72846">
        <ele>188</ele>
        <time>2018-06-26T09:19:26Z</time>
      </trkpt>
      <trkpt lat="46.06465" lon="4.72855">
        <ele>188</ele>
        <time>2018-06-26T09:19:27Z</time>
      </trkpt>
      <trkpt lat="46.06467" lon="4.72864">
        <ele>188</ele>
        <time>2018-06-26T09:19:28Z</time>
      </trkpt>
      <trkpt lat="46.06469" lon="4.72873">
        <ele>188</ele>
        <time>2018-06-26T09:19:29Z</time>
      </trkpt>
      <trkpt lat="46.0647" lon="4.72882">
        <ele>188</ele>
        <time>2018-06-26T09:19:30Z</time>
      </trkpt>
      <trkpt lat="46.06471" lon="4.7289">
        <ele>188</ele>
        <time>2018-06-26T09:19:31Z</time>
      </trkpt>
      <trkpt lat="46.06472" lon="4.72899">
        <ele>188</ele>
        <time>2018-06-26T09:19:32Z</time>
      </trkpt>
      <trkpt lat="46.06473" lon="4.72908">
        <ele>188</ele>
        <time>2018-06-26T09:19:33Z</time>
      </trkpt>
      <trkpt lat="46.06475" lon="4.72917">
        <ele>188</ele>
        <time>2018-06-26T09:19:34Z</time>
      </trkpt>
      <trkpt lat="46.06477" lon="4.72925">
        <ele>188</ele>
        <time>2018-06-26T09:19:35Z</time>
      </trkpt>
      <trkpt lat="46.06478" lon="4.72934">
        <ele>188</ele>
        <time>2018-06-26T09:19:36Z</time>
      </trkpt>
      <trkpt lat="46.0648" lon="4.72941">
        <ele>188</ele>
        <time>2018-06-26T09:19:37Z</time>
      </trkpt>
      <trkpt lat="46.06481" lon="4.72949">
        <ele>188</ele>
        <time>2018-06-26T09:19:38Z</time>
      </trkpt>
      <trkpt lat="46.06481" lon="4.72957">
        <ele>188</ele>
        <time>2018-06-26T09:19:39Z</time>
      </trkpt>
      <trkpt lat="46.06481" lon="4.72965">
        <ele>188</ele>
        <time>2018-06-26T09:19:40Z</time>
      </trkpt>
      <trkpt lat="46.0648" lon="4.72976">
        <ele>188</ele>
        <time>2018-06-26T09:19:42Z</time>
      </trkpt>
      <trkpt lat="46.0648" lon="4.72983">
        <ele>189</ele>
        <time>2018-06-26T09:19:43Z</time>
      </trkpt>
      <trkpt lat="46.06481" lon="4.7299">
        <ele>189</ele>
        <time>2018-06-26T09:19:44Z</time>
      </trkpt>
      <trkpt lat="46.06483" lon="4.72997">
        <ele>189</ele>
        <time>2018-06-26T09:19:45Z</time>
      </trkpt>
      <trkpt lat="46.06485" lon="4.73003">
        <ele>189</ele>
        <time>2018-06-26T09:19:46Z</time>
      </trkpt>
      <trkpt lat="46.06489" lon="4.73006">
        <ele>189</ele>
        <time>2018-06-26T09:19:47Z</time>
      </trkpt>
      <trkpt lat="46.06493" lon="4.73013">
        <ele>189</ele>
        <time>2018-06-26T09:19:48Z</time>
      </trkpt>
      <trkpt lat="46.06497" lon="4.73019">
        <ele>189</ele>
        <time>2018-06-26T09:19:49Z</time>
      </trkpt>
      <trkpt lat="46.06501" lon="4.73026">
        <ele>189</ele>
        <time>2018-06-26T09:19:50Z</time>
      </trkpt>
      <trkpt lat="46.06504" lon="4.73033">
        <ele>189</ele>
        <time>2018-06-26T09:19:51Z</time>
      </trkpt>
      <trkpt lat="46.06506" lon="4.7304">
        <ele>189</ele>
        <time>2018-06-26T09:19:52Z</time>
      </trkpt>
      <trkpt lat="46.06508" lon="4.73048">
        <ele>188</ele>
        <time>2018-06-26T09:19:53Z</time>
      </trkpt>
      <trkpt lat="46.06511" lon="4.73056">
        <ele>188</ele>
        <time>2018-06-26T09:19:54Z</time>
      </trkpt>
      <trkpt lat="46.06514" lon="4.73064">
        <ele>188</ele>
        <time>2018-06-26T09:19:55Z</time>
      </trkpt>
      <trkpt lat="46.06516" lon="4.73072">
        <ele>189</ele>
        <time>2018-06-26T09:19:56Z</time>
      </trkpt>
      <trkpt lat="46.06518" lon="4.73079">
        <ele>188</ele>
        <time>2018-06-26T09:19:57Z</time>
      </trkpt>
      <trkpt lat="46.06521" lon="4.73088">
        <ele>188</ele>
        <time>2018-06-26T09:19:58Z</time>
      </trkpt>
      <trkpt lat="46.06523" lon="4.73096">
        <ele>188</ele>
        <time>2018-06-26T09:19:59Z</time>
      </trkpt>
      <trkpt lat="46.06525" lon="4.73104">
        <ele>188</ele>
        <time>2018-06-26T09:20:00Z</time>
      </trkpt>
      <trkpt lat="46.06528" lon="4.73112">
        <ele>188</ele>
        <time>2018-06-26T09:20:01Z</time>
      </trkpt>
      <trkpt lat="46.06532" lon="4.73121">
        <ele>188</ele>
        <time>2018-06-26T09:20:02Z</time>
      </trkpt>
      <trkpt lat="46.06534" lon="4.73129">
        <ele>188</ele>
        <time>2018-06-26T09:20:03Z</time>
      </trkpt>
      <trkpt lat="46.06537" lon="4.73137">
        <ele>188</ele>
        <time>2018-06-26T09:20:04Z</time>
      </trkpt>
      <trkpt lat="46.06538" lon="4.73144">
        <ele>188</ele>
        <time>2018-06-26T09:20:05Z</time>
      </trkpt>
      <trkpt lat="46.06539" lon="4.73153">
        <ele>188</ele>
        <time>2018-06-26T09:20:06Z</time>
      </trkpt>
      <trkpt lat="46.0654" lon="4.7316">
        <ele>188</ele>
        <time>2018-06-26T09:20:07Z</time>
      </trkpt>
      <trkpt lat="46.06542" lon="4.73168">
        <ele>187</ele>
        <time>2018-06-26T09:20:08Z</time>
      </trkpt>
      <trkpt lat="46.06544" lon="4.73178">
        <ele>187</ele>
        <time>2018-06-26T09:20:09Z</time>
      </trkpt>
      <trkpt lat="46.06544" lon="4.73186">
        <ele>187</ele>
        <time>2018-06-26T09:20:10Z</time>
      </trkpt>
      <trkpt lat="46.06546" lon="4.73196">
        <ele>187</ele>
        <time>2018-06-26T09:20:11Z</time>
      </trkpt>
      <trkpt lat="46.06547" lon="4.73206">
        <ele>186</ele>
        <time>2018-06-26T09:20:12Z</time>
      </trkpt>
      <trkpt lat="46.06548" lon="4.73215">
        <ele>186</ele>
        <time>2018-06-26T09:20:13Z</time>
      </trkpt>
      <trkpt lat="46.06549" lon="4.73224">
        <ele>186</ele>
        <time>2018-06-26T09:20:14Z</time>
      </trkpt>
      <trkpt lat="46.06553" lon="4.73232">
        <ele>186</ele>
        <time>2018-06-26T09:20:15Z</time>
      </trkpt>
      <trkpt lat="46.06557" lon="4.7324">
        <ele>186</ele>
        <time>2018-06-26T09:20:16Z</time>
      </trkpt>
      <trkpt lat="46.0656" lon="4.73248">
        <ele>186</ele>
        <time>2018-06-26T09:20:17Z</time>
      </trkpt>
      <trkpt lat="46.06563" lon="4.73256">
        <ele>184</ele>
        <time>2018-06-26T09:20:18Z</time>
      </trkpt>
      <trkpt lat="46.06566" lon="4.73263">
        <ele>184</ele>
        <time>2018-06-26T09:20:19Z</time>
      </trkpt>
      <trkpt lat="46.06569" lon="4.73271">
        <ele>184</ele>
        <time>2018-06-26T09:20:20Z</time>
      </trkpt>
      <trkpt lat="46.06571" lon="4.73278">
        <ele>184</ele>
        <time>2018-06-26T09:20:21Z</time>
      </trkpt>
      <trkpt lat="46.06574" lon="4.73287">
        <ele>184</ele>
        <time>2018-06-26T09:20:22Z</time>
      </trkpt>
      <trkpt lat="46.06577" lon="4.73295">
        <ele>184</ele>
        <time>2018-06-26T09:20:23Z</time>
      </trkpt>
      <trkpt lat="46.06579" lon="4.73303">
        <ele>183</ele>
        <time>2018-06-26T09:20:24Z</time>
      </trkpt>
      <trkpt lat="46.06581" lon="4.73312">
        <ele>183</ele>
        <time>2018-06-26T09:20:25Z</time>
      </trkpt>
      <trkpt lat="46.06583" lon="4.73321">
        <ele>182</ele>
        <time>2018-06-26T09:20:26Z</time>
      </trkpt>
      <trkpt lat="46.06586" lon="4.73328">
        <ele>182</ele>
        <time>2018-06-26T09:20:27Z</time>
      </trkpt>
      <trkpt lat="46.06588" lon="4.73335">
        <ele>182</ele>
        <time>2018-06-26T09:20:28Z</time>
      </trkpt>
      <trkpt lat="46.06593" lon="4.73341">
        <ele>182</ele>
        <time>2018-06-26T09:20:29Z</time>
      </trkpt>
      <trkpt lat="46.06598" lon="4.73346">
        <ele>182</ele>
        <time>2018-06-26T09:20:30Z</time>
      </trkpt>
      <trkpt lat="46.06604" lon="4.7335">
        <ele>182</ele>
        <time>2018-06-26T09:20:31Z</time>
      </trkpt>
      <trkpt lat="46.0661" lon="4.73353">
        <ele>182</ele>
        <time>2018-06-26T09:20:32Z</time>
      </trkpt>
      <trkpt lat="46.06616" lon="4.73356">
        <ele>182</ele>
        <time>2018-06-26T09:20:33Z</time>
      </trkpt>
      <trkpt lat="46.06623" lon="4.7336">
        <ele>182</ele>
        <time>2018-06-26T09:20:34Z</time>
      </trkpt>
      <trkpt lat="46.06629" lon="4.73365">
        <ele>182</ele>
        <time>2018-06-26T09:20:35Z</time>
      </trkpt>
      <trkpt lat="46.06634" lon="4.73369">
        <ele>182</ele>
        <time>2018-06-26T09:20:36Z</time>
      </trkpt>
      <trkpt lat="46.06642" lon="4.73375">
        <ele>182</ele>
        <time>2018-06-26T09:20:37Z</time>
      </trkpt>
      <trkpt lat="46.06648" lon="4.73381">
        <ele>182</ele>
        <time>2018-06-26T09:20:38Z</time>
      </trkpt>
      <trkpt lat="46.06653" lon="4.73388">
        <ele>182</ele>
        <time>2018-06-26T09:20:39Z</time>
      </trkpt>
      <trkpt lat="46.06658" lon="4.73395">
        <ele>182</ele>
        <time>2018-06-26T09:20:40Z</time>
      </trkpt>
      <trkpt lat="46.06663" lon="4.73403">
        <ele>182</ele>
        <time>2018-06-26T09:20:41Z</time>
      </trkpt>
      <trkpt lat="46.06666" lon="4.73409">
        <ele>182</ele>
        <time>2018-06-26T09:20:42Z</time>
      </trkpt>
      <trkpt lat="46.06672" lon="4.73415">
        <ele>182</ele>
        <time>2018-06-26T09:20:43Z</time>
      </trkpt>
      <trkpt lat="46.06677" lon="4.73423">
        <ele>181</ele>
        <time>2018-06-26T09:20:44Z</time>
      </trkpt>
      <trkpt lat="46.06681" lon="4.73429">
        <ele>181</ele>
        <time>2018-06-26T09:20:45Z</time>
      </trkpt>
      <trkpt lat="46.06686" lon="4.73435">
        <ele>181</ele>
        <time>2018-06-26T09:20:46Z</time>
      </trkpt>
      <trkpt lat="46.06691" lon="4.7344">
        <ele>181</ele>
        <time>2018-06-26T09:20:47Z</time>
      </trkpt>
      <trkpt lat="46.06695" lon="4.73446">
        <ele>181</ele>
        <time>2018-06-26T09:20:48Z</time>
      </trkpt>
      <trkpt lat="46.067" lon="4.73452">
        <ele>180</ele>
        <time>2018-06-26T09:20:49Z</time>
      </trkpt>
      <trkpt lat="46.06704" lon="4.73459">
        <ele>180</ele>
        <time>2018-06-26T09:20:50Z</time>
      </trkpt>
      <trkpt lat="46.06709" lon="4.73465">
        <ele>180</ele>
        <time>2018-06-26T09:20:51Z</time>
      </trkpt>
      <trkpt lat="46.06713" lon="4.73471">
        <ele>180</ele>
        <time>2018-06-26T09:20:52Z</time>
      </trkpt>
      <trkpt lat="46.06717" lon="4.73477">
        <ele>180</ele>
        <time>2018-06-26T09:20:53Z</time>
      </trkpt>
      <trkpt lat="46.06722" lon="4.73484">
        <ele>180</ele>
        <time>2018-06-26T09:20:54Z</time>
      </trkpt>
      <trkpt lat="46.06727" lon="4.73491">
        <ele>180</ele>
        <time>2018-06-26T09:20:55Z</time>
      </trkpt>
      <trkpt lat="46.06731" lon="4.73498">
        <ele>180</ele>
        <time>2018-06-26T09:20:56Z</time>
      </trkpt>
      <trkpt lat="46.06736" lon="4.73505">
        <ele>180</ele>
        <time>2018-06-26T09:20:57Z</time>
      </trkpt>
      <trkpt lat="46.06739" lon="4.73512">
        <ele>180</ele>
        <time>2018-06-26T09:20:58Z</time>
      </trkpt>
      <trkpt lat="46.06744" lon="4.7352">
        <ele>180</ele>
        <time>2018-06-26T09:20:59Z</time>
      </trkpt>
      <trkpt lat="46.06748" lon="4.73527">
        <ele>180</ele>
        <time>2018-06-26T09:21:00Z</time>
      </trkpt>
      <trkpt lat="46.06752" lon="4.73534">
        <ele>179</ele>
        <time>2018-06-26T09:21:01Z</time>
      </trkpt>
      <trkpt lat="46.06758" lon="4.7354">
        <ele>179</ele>
        <time>2018-06-26T09:21:02Z</time>
      </trkpt>
      <trkpt lat="46.06764" lon="4.73546">
        <ele>179</ele>
        <time>2018-06-26T09:21:03Z</time>
      </trkpt>
      <trkpt lat="46.06767" lon="4.73553">
        <ele>179</ele>
        <time>2018-06-26T09:21:04Z</time>
      </trkpt>
      <trkpt lat="46.06771" lon="4.73562">
        <ele>180</ele>
        <time>2018-06-26T09:21:05Z</time>
      </trkpt>
      <trkpt lat="46.06775" lon="4.73569">
        <ele>180</ele>
        <time>2018-06-26T09:21:06Z</time>
      </trkpt>
      <trkpt lat="46.06779" lon="4.73577">
        <ele>180</ele>
        <time>2018-06-26T09:21:07Z</time>
      </trkpt>
      <trkpt lat="46.06784" lon="4.73584">
        <ele>179</ele>
        <time>2018-06-26T09:21:08Z</time>
      </trkpt>
      <trkpt lat="46.06788" lon="4.73591">
        <ele>179</ele>
        <time>2018-06-26T09:21:09Z</time>
      </trkpt>
      <trkpt lat="46.06793" lon="4.73598">
        <ele>179</ele>
        <time>2018-06-26T09:21:10Z</time>
      </trkpt>
      <trkpt lat="46.06798" lon="4.73604">
        <ele>178</ele>
        <time>2018-06-26T09:21:11Z</time>
      </trkpt>
      <trkpt lat="46.06802" lon="4.7361">
        <ele>178</ele>
        <time>2018-06-26T09:21:12Z</time>
      </trkpt>
      <trkpt lat="46.06807" lon="4.73616">
        <ele>178</ele>
        <time>2018-06-26T09:21:13Z</time>
      </trkpt>
      <trkpt lat="46.06811" lon="4.73622">
        <ele>178</ele>
        <time>2018-06-26T09:21:14Z</time>
      </trkpt>
      <trkpt lat="46.06816" lon="4.73628">
        <ele>178</ele>
        <time>2018-06-26T09:21:15Z</time>
      </trkpt>
      <trkpt lat="46.0682" lon="4.73633">
        <ele>178</ele>
        <time>2018-06-26T09:21:16Z</time>
      </trkpt>
      <trkpt lat="46.06824" lon="4.73639">
        <ele>178</ele>
        <time>2018-06-26T09:21:17Z</time>
      </trkpt>
      <trkpt lat="46.06829" lon="4.73644">
        <ele>177</ele>
        <time>2018-06-26T09:21:18Z</time>
      </trkpt>
      <trkpt lat="46.06832" lon="4.7365">
        <ele>177</ele>
        <time>2018-06-26T09:21:19Z</time>
      </trkpt>
      <trkpt lat="46.06836" lon="4.73655">
        <ele>176</ele>
        <time>2018-06-26T09:21:20Z</time>
      </trkpt>
      <trkpt lat="46.0684" lon="4.7366">
        <ele>176</ele>
        <time>2018-06-26T09:21:21Z</time>
      </trkpt>
      <trkpt lat="46.06843" lon="4.73665">
        <ele>176</ele>
        <time>2018-06-26T09:21:22Z</time>
      </trkpt>
      <trkpt lat="46.06848" lon="4.73669">
        <ele>176</ele>
        <time>2018-06-26T09:21:23Z</time>
      </trkpt>
      <trkpt lat="46.06853" lon="4.73673">
        <ele>176</ele>
        <time>2018-06-26T09:21:24Z</time>
      </trkpt>
      <trkpt lat="46.06856" lon="4.73678">
        <ele>176</ele>
        <time>2018-06-26T09:21:25Z</time>
      </trkpt>
      <trkpt lat="46.06861" lon="4.73683">
        <ele>176</ele>
        <time>2018-06-26T09:21:26Z</time>
      </trkpt>
      <trkpt lat="46.06866" lon="4.73688">
        <ele>176</ele>
        <time>2018-06-26T09:21:27Z</time>
      </trkpt>
      <trkpt lat="46.06871" lon="4.73694">
        <ele>176</ele>
        <time>2018-06-26T09:21:28Z</time>
      </trkpt>
      <trkpt lat="46.06875" lon="4.737">
        <ele>176</ele>
        <time>2018-06-26T09:21:29Z</time>
      </trkpt>
      <trkpt lat="46.06881" lon="4.73705">
        <ele>176</ele>
        <time>2018-06-26T09:21:30Z</time>
      </trkpt>
      <trkpt lat="46.06885" lon="4.7371">
        <ele>176</ele>
        <time>2018-06-26T09:21:31Z</time>
      </trkpt>
      <trkpt lat="46.0689" lon="4.73718">
        <ele>176</ele>
        <time>2018-06-26T09:21:32Z</time>
      </trkpt>
      <trkpt lat="46.06894" lon="4.73724">
        <ele>176</ele>
        <time>2018-06-26T09:21:33Z</time>
      </trkpt>
      <trkpt lat="46.06898" lon="4.73731">
        <ele>176</ele>
        <time>2018-06-26T09:21:34Z</time>
      </trkpt>
      <trkpt lat="46.06903" lon="4.73737">
        <ele>177</ele>
        <time>2018-06-26T09:21:35Z</time>
      </trkpt>
      <trkpt lat="46.06908" lon="4.73744">
        <ele>177</ele>
        <time>2018-06-26T09:21:36Z</time>
      </trkpt>
      <trkpt lat="46.06912" lon="4.7375">
        <ele>177</ele>
        <time>2018-06-26T09:21:37Z</time>
      </trkpt>
      <trkpt lat="46.06916" lon="4.73756">
        <ele>177</ele>
        <time>2018-06-26T09:21:38Z</time>
      </trkpt>
      <trkpt lat="46.06921" lon="4.73762">
        <ele>177</ele>
        <time>2018-06-26T09:21:39Z</time>
      </trkpt>
      <trkpt lat="46.06925" lon="4.73767">
        <ele>177</ele>
        <time>2018-06-26T09:21:40Z</time>
      </trkpt>
      <trkpt lat="46.06931" lon="4.73772">
        <ele>176</ele>
        <time>2018-06-26T09:21:41Z</time>
      </trkpt>
      <trkpt lat="46.06936" lon="4.73776">
        <ele>176</ele>
        <time>2018-06-26T09:21:42Z</time>
      </trkpt>
      <trkpt lat="46.06942" lon="4.73779">
        <ele>176</ele>
        <time>2018-06-26T09:21:43Z</time>
      </trkpt>
      <trkpt lat="46.06948" lon="4.73781">
        <ele>176</ele>
        <time>2018-06-26T09:21:44Z</time>
      </trkpt>
      <trkpt lat="46.06953" lon="4.73784">
        <ele>176</ele>
        <time>2018-06-26T09:21:45Z</time>
      </trkpt>
      <trkpt lat="46.06958" lon="4.73786">
        <ele>176</ele>
        <time>2018-06-26T09:21:46Z</time>
      </trkpt>
      <trkpt lat="46.06965" lon="4.73786">
        <ele>176</ele>
        <time>2018-06-26T09:21:47Z</time>
      </trkpt>
      <trkpt lat="46.0697" lon="4.73787">
        <ele>176</ele>
        <time>2018-06-26T09:21:48Z</time>
      </trkpt>
      <trkpt lat="46.06976" lon="4.73789">
        <ele>176</ele>
        <time>2018-06-26T09:21:49Z</time>
      </trkpt>
      <trkpt lat="46.06981" lon="4.7379">
        <ele>176</ele>
        <time>2018-06-26T09:21:50Z</time>
      </trkpt>
      <trkpt lat="46.06986" lon="4.73791">
        <ele>176</ele>
        <time>2018-06-26T09:21:51Z</time>
      </trkpt>
      <trkpt lat="46.06993" lon="4.73791">
        <ele>176</ele>
        <time>2018-06-26T09:21:52Z</time>
      </trkpt>
      <trkpt lat="46.06997" lon="4.73792">
        <ele>176</ele>
        <time>2018-06-26T09:21:53Z</time>
      </trkpt>
      <trkpt lat="46.07003" lon="4.73792">
        <ele>177</ele>
        <time>2018-06-26T09:21:54Z</time>
      </trkpt>
      <trkpt lat="46.07009" lon="4.73793">
        <ele>177</ele>
        <time>2018-06-26T09:21:55Z</time>
      </trkpt>
      <trkpt lat="46.07015" lon="4.73794">
        <ele>177</ele>
        <time>2018-06-26T09:21:56Z</time>
      </trkpt>
      <trkpt lat="46.07021" lon="4.73795">
        <ele>177</ele>
        <time>2018-06-26T09:21:57Z</time>
      </trkpt>
      <trkpt lat="46.07027" lon="4.73797">
        <ele>177</ele>
        <time>2018-06-26T09:21:58Z</time>
      </trkpt>
      <trkpt lat="46.07033" lon="4.73797">
        <ele>177</ele>
        <time>2018-06-26T09:21:59Z</time>
      </trkpt>
      <trkpt lat="46.0704" lon="4.73798">
        <ele>177</ele>
        <time>2018-06-26T09:22:00Z</time>
      </trkpt>
      <trkpt lat="46.07045" lon="4.73801">
        <ele>177</ele>
        <time>2018-06-26T09:22:01Z</time>
      </trkpt>
      <trkpt lat="46.07052" lon="4.73802">
        <ele>177</ele>
        <time>2018-06-26T09:22:02Z</time>
      </trkpt>
      <trkpt lat="46.07058" lon="4.73804">
        <ele>177</ele>
        <time>2018-06-26T09:22:03Z</time>
      </trkpt>
      <trkpt lat="46.07063" lon="4.73806">
        <ele>178</ele>
        <time>2018-06-26T09:22:04Z</time>
      </trkpt>
      <trkpt lat="46.0707" lon="4.73807">
        <ele>178</ele>
        <time>2018-06-26T09:22:05Z</time>
      </trkpt>
      <trkpt lat="46.07074" lon="4.7381">
        <ele>178</ele>
        <time>2018-06-26T09:22:06Z</time>
      </trkpt>
      <trkpt lat="46.07081" lon="4.73813">
        <ele>178</ele>
        <time>2018-06-26T09:22:07Z</time>
      </trkpt>
      <trkpt lat="46.07087" lon="4.73816">
        <ele>178</ele>
        <time>2018-06-26T09:22:08Z</time>
      </trkpt>
      <trkpt lat="46.07092" lon="4.7382">
        <ele>178</ele>
        <time>2018-06-26T09:22:09Z</time>
      </trkpt>
      <trkpt lat="46.07095" lon="4.73824">
        <ele>178</ele>
        <time>2018-06-26T09:22:10Z</time>
      </trkpt>
      <trkpt lat="46.07101" lon="4.7383">
        <ele>178</ele>
        <time>2018-06-26T09:22:11Z</time>
      </trkpt>
      <trkpt lat="46.07105" lon="4.73835">
        <ele>177</ele>
        <time>2018-06-26T09:22:12Z</time>
      </trkpt>
      <trkpt lat="46.0711" lon="4.73839">
        <ele>177</ele>
        <time>2018-06-26T09:22:13Z</time>
      </trkpt>
      <trkpt lat="46.07115" lon="4.73846">
        <ele>177</ele>
        <time>2018-06-26T09:22:14Z</time>
      </trkpt>
      <trkpt lat="46.07119" lon="4.73853">
        <ele>177</ele>
        <time>2018-06-26T09:22:15Z</time>
      </trkpt>
      <trkpt lat="46.07124" lon="4.73859">
        <ele>177</ele>
        <time>2018-06-26T09:22:16Z</time>
      </trkpt>
      <trkpt lat="46.07129" lon="4.73866">
        <ele>176</ele>
        <time>2018-06-26T09:22:17Z</time>
      </trkpt>
      <trkpt lat="46.07135" lon="4.73873">
        <ele>176</ele>
        <time>2018-06-26T09:22:18Z</time>
      </trkpt>
      <trkpt lat="46.07139" lon="4.7388">
        <ele>176</ele>
        <time>2018-06-26T09:22:19Z</time>
      </trkpt>
      <trkpt lat="46.07142" lon="4.73888">
        <ele>176</ele>
        <time>2018-06-26T09:22:20Z</time>
      </trkpt>
      <trkpt lat="46.07146" lon="4.73896">
        <ele>177</ele>
        <time>2018-06-26T09:22:21Z</time>
      </trkpt>
      <trkpt lat="46.0715" lon="4.73903">
        <ele>177</ele>
        <time>2018-06-26T09:22:22Z</time>
      </trkpt>
      <trkpt lat="46.07153" lon="4.73912">
        <ele>177</ele>
        <time>2018-06-26T09:22:23Z</time>
      </trkpt>
      <trkpt lat="46.07155" lon="4.73921">
        <ele>177</ele>
        <time>2018-06-26T09:22:24Z</time>
      </trkpt>
      <trkpt lat="46.07158" lon="4.73929">
        <ele>177</ele>
        <time>2018-06-26T09:22:25Z</time>
      </trkpt>
      <trkpt lat="46.07161" lon="4.73938">
        <ele>177</ele>
        <time>2018-06-26T09:22:26Z</time>
      </trkpt>
      <trkpt lat="46.07165" lon="4.73945">
        <ele>177</ele>
        <time>2018-06-26T09:22:27Z</time>
      </trkpt>
      <trkpt lat="46.07168" lon="4.73953">
        <ele>177</ele>
        <time>2018-06-26T09:22:28Z</time>
      </trkpt>
      <trkpt lat="46.07169" lon="4.73962">
        <ele>178</ele>
        <time>2018-06-26T09:22:29Z</time>
      </trkpt>
      <trkpt lat="46.07175" lon="4.73969">
        <ele>178</ele>
        <time>2018-06-26T09:22:30Z</time>
      </trkpt>
      <trkpt lat="46.07177" lon="4.73977">
        <ele>178</ele>
        <time>2018-06-26T09:22:31Z</time>
      </trkpt>
      <trkpt lat="46.0718" lon="4.73983">
        <ele>178</ele>
        <time>2018-06-26T09:22:32Z</time>
      </trkpt>
      <trkpt lat="46.07183" lon="4.73991">
        <ele>178</ele>
        <time>2018-06-26T09:22:33Z</time>
      </trkpt>
      <trkpt lat="46.07186" lon="4.73999">
        <ele>178</ele>
        <time>2018-06-26T09:22:34Z</time>
      </trkpt>
      <trkpt lat="46.07187" lon="4.74006">
        <ele>178</ele>
        <time>2018-06-26T09:22:35Z</time>
      </trkpt>
      <trkpt lat="46.07192" lon="4.74016">
        <ele>178</ele>
        <time>2018-06-26T09:22:37Z</time>
      </trkpt>
      <trkpt lat="46.07194" lon="4.74021">
        <ele>178</ele>
        <time>2018-06-26T09:22:38Z</time>
      </trkpt>
      <trkpt lat="46.07196" lon="4.74027">
        <ele>178</ele>
        <time>2018-06-26T09:22:39Z</time>
      </trkpt>
      <trkpt lat="46.07198" lon="4.74033">
        <ele>178</ele>
        <time>2018-06-26T09:22:40Z</time>
      </trkpt>
      <trkpt lat="46.07203" lon="4.74042">
        <ele>178</ele>
        <time>2018-06-26T09:22:42Z</time>
      </trkpt>
      <trkpt lat="46.07204" lon="4.74045">
        <ele>178</ele>
        <time>2018-06-26T09:22:43Z</time>
      </trkpt>
      <trkpt lat="46.07205" lon="4.74053">
        <ele>178</ele>
        <time>2018-06-26T09:22:44Z</time>
      </trkpt>
      <trkpt lat="46.07206" lon="4.74058">
        <ele>178</ele>
        <time>2018-06-26T09:22:45Z</time>
      </trkpt>
      <trkpt lat="46.07209" lon="4.74067">
        <ele>177</ele>
        <time>2018-06-26T09:22:47Z</time>
      </trkpt>
      <trkpt lat="46.07211" lon="4.74074">
        <ele>177</ele>
        <time>2018-06-26T09:22:48Z</time>
      </trkpt>
      <trkpt lat="46.07215" lon="4.74084">
        <ele>177</ele>
        <time>2018-06-26T09:22:50Z</time>
      </trkpt>
      <trkpt lat="46.07217" lon="4.7409">
        <ele>177</ele>
        <time>2018-06-26T09:22:51Z</time>
      </trkpt>
      <trkpt lat="46.07221" lon="4.741">
        <ele>177</ele>
        <time>2018-06-26T09:22:53Z</time>
      </trkpt>
      <trkpt lat="46.07223" lon="4.74106">
        <ele>177</ele>
        <time>2018-06-26T09:22:54Z</time>
      </trkpt>
      <trkpt lat="46.07226" lon="4.74117">
        <ele>177</ele>
        <time>2018-06-26T09:22:56Z</time>
      </trkpt>
      <trkpt lat="46.07228" lon="4.74125">
        <ele>177</ele>
        <time>2018-06-26T09:22:57Z</time>
      </trkpt>
      <trkpt lat="46.0723" lon="4.74131">
        <ele>177</ele>
        <time>2018-06-26T09:22:58Z</time>
      </trkpt>
      <trkpt lat="46.07232" lon="4.74138">
        <ele>177</ele>
        <time>2018-06-26T09:22:59Z</time>
      </trkpt>
      <trkpt lat="46.07234" lon="4.74143">
        <ele>177</ele>
        <time>2018-06-26T09:23:00Z</time>
      </trkpt>
      <trkpt lat="46.07237" lon="4.7415">
        <ele>177</ele>
        <time>2018-06-26T09:23:01Z</time>
      </trkpt>
      <trkpt lat="46.07239" lon="4.74156">
        <ele>177</ele>
        <time>2018-06-26T09:23:02Z</time>
      </trkpt>
      <trkpt lat="46.07241" lon="4.74163">
        <ele>177</ele>
        <time>2018-06-26T09:23:03Z</time>
      </trkpt>
      <trkpt lat="46.07243" lon="4.74169">
        <ele>177</ele>
        <time>2018-06-26T09:23:04Z</time>
      </trkpt>
      <trkpt lat="46.07245" lon="4.74176">
        <ele>176</ele>
        <time>2018-06-26T09:23:05Z</time>
      </trkpt>
      <trkpt lat="46.07248" lon="4.74184">
        <ele>176</ele>
        <time>2018-06-26T09:23:06Z</time>
      </trkpt>
      <trkpt lat="46.0725" lon="4.74192">
        <ele>176</ele>
        <time>2018-06-26T09:23:07Z</time>
      </trkpt>
      <trkpt lat="46.07253" lon="4.74201">
        <ele>176</ele>
        <time>2018-06-26T09:23:08Z</time>
      </trkpt>
      <trkpt lat="46.07256" lon="4.74209">
        <ele>176</ele>
        <time>2018-06-26T09:23:09Z</time>
      </trkpt>
      <trkpt lat="46.07259" lon="4.74218">
        <ele>176</ele>
        <time>2018-06-26T09:23:10Z</time>
      </trkpt>
      <trkpt lat="46.07262" lon="4.74227">
        <ele>176</ele>
        <time>2018-06-26T09:23:11Z</time>
      </trkpt>
      <trkpt lat="46.07265" lon="4.74236">
        <ele>175</ele>
        <time>2018-06-26T09:23:12Z</time>
      </trkpt>
      <trkpt lat="46.07268" lon="4.74247">
        <ele>175</ele>
        <time>2018-06-26T09:23:13Z</time>
      </trkpt>
      <trkpt lat="46.07271" lon="4.74256">
        <ele>175</ele>
        <time>2018-06-26T09:23:14Z</time>
      </trkpt>
      <trkpt lat="46.07275" lon="4.74267">
        <ele>175</ele>
        <time>2018-06-26T09:23:15Z</time>
      </trkpt>
      <trkpt lat="46.07278" lon="4.74278">
        <ele>175</ele>
        <time>2018-06-26T09:23:16Z</time>
      </trkpt>
      <trkpt lat="46.07282" lon="4.74289">
        <ele>174</ele>
        <time>2018-06-26T09:23:17Z</time>
      </trkpt>
      <trkpt lat="46.07285" lon="4.74302">
        <ele>174</ele>
        <time>2018-06-26T09:23:18Z</time>
      </trkpt>
      <trkpt lat="46.07287" lon="4.74314">
        <ele>174</ele>
        <time>2018-06-26T09:23:19Z</time>
      </trkpt>
      <trkpt lat="46.07289" lon="4.74325">
        <ele>174</ele>
        <time>2018-06-26T09:23:20Z</time>
      </trkpt>
      <trkpt lat="46.07289" lon="4.74337">
        <ele>174</ele>
        <time>2018-06-26T09:23:21Z</time>
      </trkpt>
      <trkpt lat="46.0729" lon="4.74348">
        <ele>174</ele>
        <time>2018-06-26T09:23:22Z</time>
      </trkpt>
      <trkpt lat="46.07291" lon="4.74359">
        <ele>174</ele>
        <time>2018-06-26T09:23:23Z</time>
      </trkpt>
      <trkpt lat="46.07292" lon="4.74369">
        <ele>174</ele>
        <time>2018-06-26T09:23:24Z</time>
      </trkpt>
      <trkpt lat="46.07293" lon="4.74379">
        <ele>174</ele>
        <time>2018-06-26T09:23:25Z</time>
      </trkpt>
      <trkpt lat="46.07294" lon="4.74389">
        <ele>174</ele>
        <time>2018-06-26T09:23:26Z</time>
      </trkpt>
      <trkpt lat="46.07295" lon="4.744">
        <ele>174</ele>
        <time>2018-06-26T09:23:27Z</time>
      </trkpt>
      <trkpt lat="46.07296" lon="4.7441">
        <ele>174</ele>
        <time>2018-06-26T09:23:28Z</time>
      </trkpt>
      <trkpt lat="46.07298" lon="4.7442">
        <ele>175</ele>
        <time>2018-06-26T09:23:29Z</time>
      </trkpt>
      <trkpt lat="46.07299" lon="4.74427">
        <ele>175</ele>
        <time>2018-06-26T09:23:30Z</time>
      </trkpt>
      <trkpt lat="46.07302" lon="4.74436">
        <ele>175</ele>
        <time>2018-06-26T09:23:31Z</time>
      </trkpt>
      <trkpt lat="46.07303" lon="4.74445">
        <ele>175</ele>
        <time>2018-06-26T09:23:32Z</time>
      </trkpt>
      <trkpt lat="46.07306" lon="4.74455">
        <ele>175</ele>
        <time>2018-06-26T09:23:33Z</time>
      </trkpt>
      <trkpt lat="46.07309" lon="4.74464">
        <ele>175</ele>
        <time>2018-06-26T09:23:34Z</time>
      </trkpt>
      <trkpt lat="46.07312" lon="4.74472">
        <ele>175</ele>
        <time>2018-06-26T09:23:35Z</time>
      </trkpt>
      <trkpt lat="46.07315" lon="4.74481">
        <ele>175</ele>
        <time>2018-06-26T09:23:36Z</time>
      </trkpt>
      <trkpt lat="46.07318" lon="4.74489">
        <ele>175</ele>
        <time>2018-06-26T09:23:37Z</time>
      </trkpt>
      <trkpt lat="46.07322" lon="4.74497">
        <ele>176</ele>
        <time>2018-06-26T09:23:38Z</time>
      </trkpt>
      <trkpt lat="46.07325" lon="4.74505">
        <ele>176</ele>
        <time>2018-06-26T09:23:39Z</time>
      </trkpt>
      <trkpt lat="46.0733" lon="4.74512">
        <ele>176</ele>
        <time>2018-06-26T09:23:40Z</time>
      </trkpt>
      <trkpt lat="46.07333" lon="4.74518">
        <ele>175</ele>
        <time>2018-06-26T09:23:41Z</time>
      </trkpt>
      <trkpt lat="46.07337" lon="4.74525">
        <ele>175</ele>
        <time>2018-06-26T09:23:42Z</time>
      </trkpt>
      <trkpt lat="46.07341" lon="4.74532">
        <ele>175</ele>
        <time>2018-06-26T09:23:43Z</time>
      </trkpt>
      <trkpt lat="46.07345" lon="4.74538">
        <ele>175</ele>
        <time>2018-06-26T09:23:44Z</time>
      </trkpt>
      <trkpt lat="46.07348" lon="4.74544">
        <ele>175</ele>
        <time>2018-06-26T09:23:45Z</time>
      </trkpt>
      <trkpt lat="46.07352" lon="4.7455">
        <ele>175</ele>
        <time>2018-06-26T09:23:46Z</time>
      </trkpt>
      <trkpt lat="46.07356" lon="4.74558">
        <ele>175</ele>
        <time>2018-06-26T09:23:47Z</time>
      </trkpt>
      <trkpt lat="46.07361" lon="4.74565">
        <ele>175</ele>
        <time>2018-06-26T09:23:48Z</time>
      </trkpt>
      <trkpt lat="46.07365" lon="4.74572">
        <ele>175</ele>
        <time>2018-06-26T09:23:49Z</time>
      </trkpt>
      <trkpt lat="46.07368" lon="4.7458">
        <ele>175</ele>
        <time>2018-06-26T09:23:50Z</time>
      </trkpt>
      <trkpt lat="46.07372" lon="4.74589">
        <ele>175</ele>
        <time>2018-06-26T09:23:51Z</time>
      </trkpt>
      <trkpt lat="46.07375" lon="4.74597">
        <ele>174</ele>
        <time>2018-06-26T09:23:52Z</time>
      </trkpt>
      <trkpt lat="46.07379" lon="4.74604">
        <ele>174</ele>
        <time>2018-06-26T09:23:53Z</time>
      </trkpt>
      <trkpt lat="46.07382" lon="4.74611">
        <ele>174</ele>
        <time>2018-06-26T09:23:54Z</time>
      </trkpt>
      <trkpt lat="46.07385" lon="4.74617">
        <ele>174</ele>
        <time>2018-06-26T09:23:55Z</time>
      </trkpt>
      <trkpt lat="46.07389" lon="4.74624">
        <ele>174</ele>
        <time>2018-06-26T09:23:56Z</time>
      </trkpt>
      <trkpt lat="46.07392" lon="4.74631">
        <ele>174</ele>
        <time>2018-06-26T09:23:57Z</time>
      </trkpt>
      <trkpt lat="46.07395" lon="4.74637">
        <ele>174</ele>
        <time>2018-06-26T09:23:58Z</time>
      </trkpt>
      <trkpt lat="46.07398" lon="4.74644">
        <ele>174</ele>
        <time>2018-06-26T09:23:59Z</time>
      </trkpt>
      <trkpt lat="46.07402" lon="4.74649">
        <ele>173</ele>
        <time>2018-06-26T09:24:00Z</time>
      </trkpt>
      <trkpt lat="46.07406" lon="4.74654">
        <ele>173</ele>
        <time>2018-06-26T09:24:01Z</time>
      </trkpt>
      <trkpt lat="46.0741" lon="4.7466">
        <ele>173</ele>
        <time>2018-06-26T09:24:02Z</time>
      </trkpt>
      <trkpt lat="46.07413" lon="4.74666">
        <ele>172</ele>
        <time>2018-06-26T09:24:03Z</time>
      </trkpt>
      <trkpt lat="46.07416" lon="4.74673">
        <ele>172</ele>
        <time>2018-06-26T09:24:04Z</time>
      </trkpt>
      <trkpt lat="46.07421" lon="4.74679">
        <ele>172</ele>
        <time>2018-06-26T09:24:05Z</time>
      </trkpt>
      <trkpt lat="46.07425" lon="4.74685">
        <ele>172</ele>
        <time>2018-06-26T09:24:06Z</time>
      </trkpt>
      <trkpt lat="46.07429" lon="4.74692">
        <ele>173</ele>
        <time>2018-06-26T09:24:07Z</time>
      </trkpt>
      <trkpt lat="46.07432" lon="4.74701">
        <ele>173</ele>
        <time>2018-06-26T09:24:08Z</time>
      </trkpt>
      <trkpt lat="46.07437" lon="4.7471">
        <ele>173</ele>
        <time>2018-06-26T09:24:09Z</time>
      </trkpt>
      <trkpt lat="46.0744" lon="4.74716">
        <ele>173</ele>
        <time>2018-06-26T09:24:10Z</time>
      </trkpt>
      <trkpt lat="46.07444" lon="4.74724">
        <ele>173</ele>
        <time>2018-06-26T09:24:11Z</time>
      </trkpt>
      <trkpt lat="46.07447" lon="4.74729">
        <ele>173</ele>
        <time>2018-06-26T09:24:12Z</time>
      </trkpt>
      <trkpt lat="46.07451" lon="4.74736">
        <ele>173</ele>
        <time>2018-06-26T09:24:13Z</time>
      </trkpt>
      <trkpt lat="46.07453" lon="4.74742">
        <ele>173</ele>
        <time>2018-06-26T09:24:14Z</time>
      </trkpt>
      <trkpt lat="46.07459" lon="4.74748">
        <ele>173</ele>
        <time>2018-06-26T09:24:15Z</time>
      </trkpt>
      <trkpt lat="46.07463" lon="4.74755">
        <ele>173</ele>
        <time>2018-06-26T09:24:16Z</time>
      </trkpt>
      <trkpt lat="46.07468" lon="4.7476">
        <ele>173</ele>
        <time>2018-06-26T09:24:17Z</time>
      </trkpt>
      <trkpt lat="46.07474" lon="4.74765">
        <ele>173</ele>
        <time>2018-06-26T09:24:18Z</time>
      </trkpt>
      <trkpt lat="46.07479" lon="4.7477">
        <ele>173</ele>
        <time>2018-06-26T09:24:19Z</time>
      </trkpt>
      <trkpt lat="46.07483" lon="4.74775">
        <ele>173</ele>
        <time>2018-06-26T09:24:20Z</time>
      </trkpt>
      <trkpt lat="46.07488" lon="4.7478">
        <ele>173</ele>
        <time>2018-06-26T09:24:21Z</time>
      </trkpt>
      <trkpt lat="46.07493" lon="4.74785">
        <ele>173</ele>
        <time>2018-06-26T09:24:22Z</time>
      </trkpt>
      <trkpt lat="46.07498" lon="4.74789">
        <ele>173</ele>
        <time>2018-06-26T09:24:23Z</time>
      </trkpt>
      <trkpt lat="46.07503" lon="4.74794">
        <ele>172</ele>
        <time>2018-06-26T09:24:24Z</time>
      </trkpt>
      <trkpt lat="46.07507" lon="4.748">
        <ele>172</ele>
        <time>2018-06-26T09:24:25Z</time>
      </trkpt>
      <trkpt lat="46.07513" lon="4.74804">
        <ele>172</ele>
        <time>2018-06-26T09:24:26Z</time>
      </trkpt>
      <trkpt lat="46.07519" lon="4.74809">
        <ele>172</ele>
        <time>2018-06-26T09:24:27Z</time>
      </trkpt>
      <trkpt lat="46.07524" lon="4.74814">
        <ele>172</ele>
        <time>2018-06-26T09:24:28Z</time>
      </trkpt>
      <trkpt lat="46.0753" lon="4.74819">
        <ele>172</ele>
        <time>2018-06-26T09:24:29Z</time>
      </trkpt>
      <trkpt lat="46.07536" lon="4.74821">
        <ele>172</ele>
        <time>2018-06-26T09:24:30Z</time>
      </trkpt>
      <trkpt lat="46.07541" lon="4.74826">
        <ele>172</ele>
        <time>2018-06-26T09:24:31Z</time>
      </trkpt>
      <trkpt lat="46.07547" lon="4.74831">
        <ele>172</ele>
        <time>2018-06-26T09:24:32Z</time>
      </trkpt>
      <trkpt lat="46.07552" lon="4.74835">
        <ele>171</ele>
        <time>2018-06-26T09:24:33Z</time>
      </trkpt>
      <trkpt lat="46.07558" lon="4.74839">
        <ele>171</ele>
        <time>2018-06-26T09:24:34Z</time>
      </trkpt>
      <trkpt lat="46.07564" lon="4.74844">
        <ele>171</ele>
        <time>2018-06-26T09:24:35Z</time>
      </trkpt>
      <trkpt lat="46.07568" lon="4.74848">
        <ele>171</ele>
        <time>2018-06-26T09:24:36Z</time>
      </trkpt>
      <trkpt lat="46.07574" lon="4.74851">
        <ele>171</ele>
        <time>2018-06-26T09:24:37Z</time>
      </trkpt>
      <trkpt lat="46.07578" lon="4.74856">
        <ele>171</ele>
        <time>2018-06-26T09:24:38Z</time>
      </trkpt>
      <trkpt lat="46.07583" lon="4.7486">
        <ele>171</ele>
        <time>2018-06-26T09:24:39Z</time>
      </trkpt>
      <trkpt lat="46.07588" lon="4.74865">
        <ele>171</ele>
        <time>2018-06-26T09:24:40Z</time>
      </trkpt>
      <trkpt lat="46.07594" lon="4.74869">
        <ele>171</ele>
        <time>2018-06-26T09:24:41Z</time>
      </trkpt>
      <trkpt lat="46.07598" lon="4.74874">
        <ele>171</ele>
        <time>2018-06-26T09:24:42Z</time>
      </trkpt>
      <trkpt lat="46.07603" lon="4.74879">
        <ele>171</ele>
        <time>2018-06-26T09:24:43Z</time>
      </trkpt>
      <trkpt lat="46.07609" lon="4.74883">
        <ele>171</ele>
        <time>2018-06-26T09:24:44Z</time>
      </trkpt>
      <trkpt lat="46.07614" lon="4.74887">
        <ele>171</ele>
        <time>2018-06-26T09:24:45Z</time>
      </trkpt>
      <trkpt lat="46.07619" lon="4.74891">
        <ele>171</ele>
        <time>2018-06-26T09:24:46Z</time>
      </trkpt>
      <trkpt lat="46.07624" lon="4.74894">
        <ele>171</ele>
        <time>2018-06-26T09:24:47Z</time>
      </trkpt>
      <trkpt lat="46.07629" lon="4.74898">
        <ele>171</ele>
        <time>2018-06-26T09:24:48Z</time>
      </trkpt>
      <trkpt lat="46.07634" lon="4.74902">
        <ele>171</ele>
        <time>2018-06-26T09:24:49Z</time>
      </trkpt>
      <trkpt lat="46.07637" lon="4.74905">
        <ele>171</ele>
        <time>2018-06-26T09:24:50Z</time>
      </trkpt>
      <trkpt lat="46.07642" lon="4.74909">
        <ele>171</ele>
        <time>2018-06-26T09:24:51Z</time>
      </trkpt>
      <trkpt lat="46.07647" lon="4.74913">
        <ele>171</ele>
        <time>2018-06-26T09:24:52Z</time>
      </trkpt>
      <trkpt lat="46.07651" lon="4.74917">
        <ele>172</ele>
        <time>2018-06-26T09:24:53Z</time>
      </trkpt>
      <trkpt lat="46.07658" lon="4.7492">
        <ele>172</ele>
        <time>2018-06-26T09:24:54Z</time>
      </trkpt>
      <trkpt lat="46.07663" lon="4.74924">
        <ele>172</ele>
        <time>2018-06-26T09:24:55Z</time>
      </trkpt>
      <trkpt lat="46.07668" lon="4.74928">
        <ele>172</ele>
        <time>2018-06-26T09:24:56Z</time>
      </trkpt>
      <trkpt lat="46.07672" lon="4.74933">
        <ele>172</ele>
        <time>2018-06-26T09:24:57Z</time>
      </trkpt>
      <trkpt lat="46.07678" lon="4.74936">
        <ele>172</ele>
        <time>2018-06-26T09:24:58Z</time>
      </trkpt>
      <trkpt lat="46.07683" lon="4.74942">
        <ele>172</ele>
        <time>2018-06-26T09:24:59Z</time>
      </trkpt>
      <trkpt lat="46.07688" lon="4.74946">
        <ele>172</ele>
        <time>2018-06-26T09:25:00Z</time>
      </trkpt>
      <trkpt lat="46.07693" lon="4.7495">
        <ele>172</ele>
        <time>2018-06-26T09:25:01Z</time>
      </trkpt>
      <trkpt lat="46.07699" lon="4.74955">
        <ele>172</ele>
        <time>2018-06-26T09:25:02Z</time>
      </trkpt>
      <trkpt lat="46.07705" lon="4.74959">
        <ele>172</ele>
        <time>2018-06-26T09:25:03Z</time>
      </trkpt>
      <trkpt lat="46.07709" lon="4.74963">
        <ele>172</ele>
        <time>2018-06-26T09:25:04Z</time>
      </trkpt>
      <trkpt lat="46.07714" lon="4.74967">
        <ele>172</ele>
        <time>2018-06-26T09:25:05Z</time>
      </trkpt>
      <trkpt lat="46.07719" lon="4.7497">
        <ele>172</ele>
        <time>2018-06-26T09:25:06Z</time>
      </trkpt>
      <trkpt lat="46.07724" lon="4.74974">
        <ele>172</ele>
        <time>2018-06-26T09:25:07Z</time>
      </trkpt>
      <trkpt lat="46.07729" lon="4.74978">
        <ele>172</ele>
        <time>2018-06-26T09:25:08Z</time>
      </trkpt>
      <trkpt lat="46.07733" lon="4.74981">
        <ele>172</ele>
        <time>2018-06-26T09:25:09Z</time>
      </trkpt>
      <trkpt lat="46.07737" lon="4.74986">
        <ele>173</ele>
        <time>2018-06-26T09:25:10Z</time>
      </trkpt>
      <trkpt lat="46.07741" lon="4.7499">
        <ele>173</ele>
        <time>2018-06-26T09:25:11Z</time>
      </trkpt>
      <trkpt lat="46.07745" lon="4.74994">
        <ele>173</ele>
        <time>2018-06-26T09:25:12Z</time>
      </trkpt>
      <trkpt lat="46.0775" lon="4.74998">
        <ele>173</ele>
        <time>2018-06-26T09:25:13Z</time>
      </trkpt>
      <trkpt lat="46.07755" lon="4.75">
        <ele>173</ele>
        <time>2018-06-26T09:25:14Z</time>
      </trkpt>
      <trkpt lat="46.07761" lon="4.75004">
        <ele>172</ele>
        <time>2018-06-26T09:25:15Z</time>
      </trkpt>
      <trkpt lat="46.07766" lon="4.75008">
        <ele>172</ele>
        <time>2018-06-26T09:25:16Z</time>
      </trkpt>
      <trkpt lat="46.07771" lon="4.75012">
        <ele>172</ele>
        <time>2018-06-26T09:25:17Z</time>
      </trkpt>
      <trkpt lat="46.07776" lon="4.75016">
        <ele>172</ele>
        <time>2018-06-26T09:25:18Z</time>
      </trkpt>
      <trkpt lat="46.0778" lon="4.7502">
        <ele>172</ele>
        <time>2018-06-26T09:25:19Z</time>
      </trkpt>
      <trkpt lat="46.07785" lon="4.75023">
        <ele>172</ele>
        <time>2018-06-26T09:25:20Z</time>
      </trkpt>
      <trkpt lat="46.0779" lon="4.75027">
        <ele>172</ele>
        <time>2018-06-26T09:25:21Z</time>
      </trkpt>
      <trkpt lat="46.07795" lon="4.75031">
        <ele>171</ele>
        <time>2018-06-26T09:25:22Z</time>
      </trkpt>
      <trkpt lat="46.078" lon="4.75035">
        <ele>171</ele>
        <time>2018-06-26T09:25:23Z</time>
      </trkpt>
      <trkpt lat="46.07804" lon="4.7504">
        <ele>171</ele>
        <time>2018-06-26T09:25:24Z</time>
      </trkpt>
      <trkpt lat="46.07809" lon="4.75043">
        <ele>171</ele>
        <time>2018-06-26T09:25:25Z</time>
      </trkpt>
      <trkpt lat="46.07815" lon="4.75048">
        <ele>171</ele>
        <time>2018-06-26T09:25:26Z</time>
      </trkpt>
      <trkpt lat="46.07819" lon="4.75051">
        <ele>171</ele>
        <time>2018-06-26T09:25:27Z</time>
      </trkpt>
      <trkpt lat="46.07825" lon="4.75054">
        <ele>171</ele>
        <time>2018-06-26T09:25:28Z</time>
      </trkpt>
      <trkpt lat="46.07828" lon="4.75058">
        <ele>171</ele>
        <time>2018-06-26T09:25:29Z</time>
      </trkpt>
      <trkpt lat="46.07832" lon="4.75063">
        <ele>171</ele>
        <time>2018-06-26T09:25:30Z</time>
      </trkpt>
      <trkpt lat="46.07837" lon="4.75068">
        <ele>171</ele>
        <time>2018-06-26T09:25:31Z</time>
      </trkpt>
      <trkpt lat="46.0784" lon="4.75074">
        <ele>171</ele>
        <time>2018-06-26T09:25:32Z</time>
      </trkpt>
      <trkpt lat="46.07844" lon="4.7508">
        <ele>171</ele>
        <time>2018-06-26T09:25:33Z</time>
      </trkpt>
      <trkpt lat="46.07847" lon="4.75085">
        <ele>171</ele>
        <time>2018-06-26T09:25:34Z</time>
      </trkpt>
      <trkpt lat="46.0785" lon="4.75092">
        <ele>171</ele>
        <time>2018-06-26T09:25:35Z</time>
      </trkpt>
      <trkpt lat="46.07852" lon="4.75097">
        <ele>171</ele>
        <time>2018-06-26T09:25:36Z</time>
      </trkpt>
      <trkpt lat="46.07855" lon="4.75103">
        <ele>171</ele>
        <time>2018-06-26T09:25:37Z</time>
      </trkpt>
      <trkpt lat="46.07858" lon="4.75109">
        <ele>171</ele>
        <time>2018-06-26T09:25:38Z</time>
      </trkpt>
      <trkpt lat="46.07862" lon="4.75115">
        <ele>171</ele>
        <time>2018-06-26T09:25:39Z</time>
      </trkpt>
      <trkpt lat="46.07866" lon="4.7512">
        <ele>171</ele>
        <time>2018-06-26T09:25:40Z</time>
      </trkpt>
      <trkpt lat="46.07869" lon="4.75126">
        <ele>171</ele>
        <time>2018-06-26T09:25:41Z</time>
      </trkpt>
      <trkpt lat="46.07872" lon="4.75131">
        <ele>171</ele>
        <time>2018-06-26T09:25:42Z</time>
      </trkpt>
      <trkpt lat="46.07876" lon="4.75137">
        <ele>171</ele>
        <time>2018-06-26T09:25:43Z</time>
      </trkpt>
      <trkpt lat="46.0788" lon="4.75143">
        <ele>171</ele>
        <time>2018-06-26T09:25:44Z</time>
      </trkpt>
      <trkpt lat="46.07883" lon="4.7515">
        <ele>171</ele>
        <time>2018-06-26T09:25:45Z</time>
      </trkpt>
      <trkpt lat="46.07886" lon="4.75156">
        <ele>171</ele>
        <time>2018-06-26T09:25:46Z</time>
      </trkpt>
      <trkpt lat="46.07889" lon="4.75161">
        <ele>171</ele>
        <time>2018-06-26T09:25:47Z</time>
      </trkpt>
      <trkpt lat="46.07892" lon="4.75167">
        <ele>171</ele>
        <time>2018-06-26T09:25:48Z</time>
      </trkpt>
      <trkpt lat="46.07896" lon="4.75172">
        <ele>171</ele>
        <time>2018-06-26T09:25:49Z</time>
      </trkpt>
      <trkpt lat="46.079" lon="4.75177">
        <ele>171</ele>
        <time>2018-06-26T09:25:50Z</time>
      </trkpt>
      <trkpt lat="46.07905" lon="4.75183">
        <ele>171</ele>
        <time>2018-06-26T09:25:51Z</time>
      </trkpt>
      <trkpt lat="46.07909" lon="4.75189">
        <ele>171</ele>
        <time>2018-06-26T09:25:52Z</time>
      </trkpt>
      <trkpt lat="46.07913" lon="4.75194">
        <ele>171</ele>
        <time>2018-06-26T09:25:53Z</time>
      </trkpt>
      <trkpt lat="46.07916" lon="4.752">
        <ele>171</ele>
        <time>2018-06-26T09:25:54Z</time>
      </trkpt>
      <trkpt lat="46.07919" lon="4.75206">
        <ele>171</ele>
        <time>2018-06-26T09:25:55Z</time>
      </trkpt>
      <trkpt lat="46.07923" lon="4.75212">
        <ele>171</ele>
        <time>2018-06-26T09:25:56Z</time>
      </trkpt>
      <trkpt lat="46.07925" lon="4.75219">
        <ele>171</ele>
        <time>2018-06-26T09:25:57Z</time>
      </trkpt>
      <trkpt lat="46.07928" lon="4.75226">
        <ele>171</ele>
        <time>2018-06-26T09:25:58Z</time>
      </trkpt>
      <trkpt lat="46.0793" lon="4.75233">
        <ele>170</ele>
        <time>2018-06-26T09:25:59Z</time>
      </trkpt>
      <trkpt lat="46.07934" lon="4.75239">
        <ele>170</ele>
        <time>2018-06-26T09:26:00Z</time>
      </trkpt>
      <trkpt lat="46.07937" lon="4.75244">
        <ele>170</ele>
        <time>2018-06-26T09:26:01Z</time>
      </trkpt>
      <trkpt lat="46.0794" lon="4.7525">
        <ele>170</ele>
        <time>2018-06-26T09:26:02Z</time>
      </trkpt>
      <trkpt lat="46.07942" lon="4.75256">
        <ele>170</ele>
        <time>2018-06-26T09:26:03Z</time>
      </trkpt>
      <trkpt lat="46.07945" lon="4.75262">
        <ele>170</ele>
        <time>2018-06-26T09:26:04Z</time>
      </trkpt>
      <trkpt lat="46.07947" lon="4.75268">
        <ele>169</ele>
        <time>2018-06-26T09:26:05Z</time>
      </trkpt>
      <trkpt lat="46.0795" lon="4.75274">
        <ele>169</ele>
        <time>2018-06-26T09:26:06Z</time>
      </trkpt>
      <trkpt lat="46.07953" lon="4.7528">
        <ele>169</ele>
        <time>2018-06-26T09:26:07Z</time>
      </trkpt>
      <trkpt lat="46.07956" lon="4.75286">
        <ele>169</ele>
        <time>2018-06-26T09:26:08Z</time>
      </trkpt>
      <trkpt lat="46.0796" lon="4.75293">
        <ele>169</ele>
        <time>2018-06-26T09:26:09Z</time>
      </trkpt>
      <trkpt lat="46.07962" lon="4.75299">
        <ele>169</ele>
        <time>2018-06-26T09:26:10Z</time>
      </trkpt>
      <trkpt lat="46.07965" lon="4.75305">
        <ele>169</ele>
        <time>2018-06-26T09:26:11Z</time>
      </trkpt>
      <trkpt lat="46.07967" lon="4.75312">
        <ele>169</ele>
        <time>2018-06-26T09:26:12Z</time>
      </trkpt>
      <trkpt lat="46.0797" lon="4.75318">
        <ele>169</ele>
        <time>2018-06-26T09:26:13Z</time>
      </trkpt>
      <trkpt lat="46.07973" lon="4.75324">
        <ele>169</ele>
        <time>2018-06-26T09:26:14Z</time>
      </trkpt>
      <trkpt lat="46.07976" lon="4.75331">
        <ele>169</ele>
        <time>2018-06-26T09:26:15Z</time>
      </trkpt>
      <trkpt lat="46.07978" lon="4.75337">
        <ele>168</ele>
        <time>2018-06-26T09:26:16Z</time>
      </trkpt>
      <trkpt lat="46.07982" lon="4.75344">
        <ele>168</ele>
        <time>2018-06-26T09:26:17Z</time>
      </trkpt>
      <trkpt lat="46.07985" lon="4.75351">
        <ele>168</ele>
        <time>2018-06-26T09:26:18Z</time>
      </trkpt>
      <trkpt lat="46.07987" lon="4.75358">
        <ele>168</ele>
        <time>2018-06-26T09:26:19Z</time>
      </trkpt>
      <trkpt lat="46.07991" lon="4.75365">
        <ele>168</ele>
        <time>2018-06-26T09:26:20Z</time>
      </trkpt>
      <trkpt lat="46.07994" lon="4.75371">
        <ele>168</ele>
        <time>2018-06-26T09:26:21Z</time>
      </trkpt>
      <trkpt lat="46.07996" lon="4.75378">
        <ele>168</ele>
        <time>2018-06-26T09:26:22Z</time>
      </trkpt>
      <trkpt lat="46.07999" lon="4.75382">
        <ele>167</ele>
        <time>2018-06-26T09:26:23Z</time>
      </trkpt>
      <trkpt lat="46.08003" lon="4.75392">
        <ele>167</ele>
        <time>2018-06-26T09:26:25Z</time>
      </trkpt>
      <trkpt lat="46.08005" lon="4.75396">
        <ele>167</ele>
        <time>2018-06-26T09:26:26Z</time>
      </trkpt>
      <trkpt lat="46.08009" lon="4.75406">
        <ele>166</ele>
        <time>2018-06-26T09:26:28Z</time>
      </trkpt>
      <trkpt lat="46.08012" lon="4.75409">
        <ele>166</ele>
        <time>2018-06-26T09:26:29Z</time>
      </trkpt>
      <trkpt lat="46.08016" lon="4.75419">
        <ele>166</ele>
        <time>2018-06-26T09:26:31Z</time>
      </trkpt>
      <trkpt lat="46.08021" lon="4.75421">
        <ele>166</ele>
        <time>2018-06-26T09:26:32Z</time>
      </trkpt>
      <trkpt lat="46.08026" lon="4.7543">
        <ele>166</ele>
        <time>2018-06-26T09:26:34Z</time>
      </trkpt>
      <trkpt lat="46.08028" lon="4.75435">
        <ele>166</ele>
        <time>2018-06-26T09:26:35Z</time>
      </trkpt>
      <trkpt lat="46.08033" lon="4.75444">
        <ele>166</ele>
        <time>2018-06-26T09:26:37Z</time>
      </trkpt>
      <trkpt lat="46.08035" lon="4.75449">
        <ele>166</ele>
        <time>2018-06-26T09:26:38Z</time>
      </trkpt>
      <trkpt lat="46.08038" lon="4.75459">
        <ele>166</ele>
        <time>2018-06-26T09:26:40Z</time>
      </trkpt>
      <trkpt lat="46.0804" lon="4.75464">
        <ele>166</ele>
        <time>2018-06-26T09:26:41Z</time>
      </trkpt>
      <trkpt lat="46.08045" lon="4.75474">
        <ele>166</ele>
        <time>2018-06-26T09:26:43Z</time>
      </trkpt>
      <trkpt lat="46.08048" lon="4.75479">
        <ele>166</ele>
        <time>2018-06-26T09:26:44Z</time>
      </trkpt>
      <trkpt lat="46.08051" lon="4.75485">
        <ele>166</ele>
        <time>2018-06-26T09:26:46Z</time>
      </trkpt>
      <trkpt lat="46.08054" lon="4.75492">
        <ele>166</ele>
        <time>2018-06-26T09:26:47Z</time>
      </trkpt>
      <trkpt lat="46.08058" lon="4.75503">
        <ele>167</ele>
        <time>2018-06-26T09:26:49Z</time>
      </trkpt>
      <trkpt lat="46.0806" lon="4.75508">
        <ele>167</ele>
        <time>2018-06-26T09:26:50Z</time>
      </trkpt>
      <trkpt lat="46.08063" lon="4.75519">
        <ele>168</ele>
        <time>2018-06-26T09:26:52Z</time>
      </trkpt>
      <trkpt lat="46.08066" lon="4.75525">
        <ele>168</ele>
        <time>2018-06-26T09:26:53Z</time>
      </trkpt>
      <trkpt lat="46.08069" lon="4.7553">
        <ele>168</ele>
        <time>2018-06-26T09:26:54Z</time>
      </trkpt>
      <trkpt lat="46.08072" lon="4.75536">
        <ele>168</ele>
        <time>2018-06-26T09:26:55Z</time>
      </trkpt>
      <trkpt lat="46.08075" lon="4.75542">
        <ele>169</ele>
        <time>2018-06-26T09:26:56Z</time>
      </trkpt>
      <trkpt lat="46.08078" lon="4.75547">
        <ele>169</ele>
        <time>2018-06-26T09:26:57Z</time>
      </trkpt>
      <trkpt lat="46.08082" lon="4.75558">
        <ele>170</ele>
        <time>2018-06-26T09:26:59Z</time>
      </trkpt>
      <trkpt lat="46.08083" lon="4.7556">
        <ele>170</ele>
        <time>2018-06-26T09:27:00Z</time>
      </trkpt>
      <trkpt lat="46.08087" lon="4.75569">
        <ele>173</ele>
        <time>2018-06-26T09:27:04Z</time>
      </trkpt>
      <trkpt lat="46.08088" lon="4.75572">
        <ele>173</ele>
        <time>2018-06-26T09:27:05Z</time>
      </trkpt>
      <trkpt lat="46.08085" lon="4.75584">
        <ele>174</ele>
        <time>2018-06-26T09:27:11Z</time>
      </trkpt>
      <trkpt lat="46.08084" lon="4.75587">
        <ele>174</ele>
        <time>2018-06-26T09:27:12Z</time>
      </trkpt>
      <trkpt lat="46.08077" lon="4.75595">
        <ele>173</ele>
        <time>2018-06-26T09:27:13Z</time>
      </trkpt>
      <trkpt lat="46.08076" lon="4.75597">
        <ele>173</ele>
        <time>2018-06-26T09:27:14Z</time>
      </trkpt>
      <trkpt lat="46.08072" lon="4.756">
        <ele>173</ele>
        <time>2018-06-26T09:27:17Z</time>
      </trkpt>
      <trkpt lat="46.08067" lon="4.75602">
        <ele>173</ele>
        <time>2018-06-26T09:27:18Z</time>
      </trkpt>
      <trkpt lat="46.08059" lon="4.75606">
        <ele>173</ele>
        <time>2018-06-26T09:27:24Z</time>
      </trkpt>
      <trkpt lat="46.08058" lon="4.75607">
        <ele>173</ele>
        <time>2018-06-26T09:27:25Z</time>
      </trkpt>
      <trkpt lat="46.08051" lon="4.75613">
        <ele>173</ele>
        <time>2018-06-26T09:27:30Z</time>
      </trkpt>
      <trkpt lat="46.08049" lon="4.75614">
        <ele>173</ele>
        <time>2018-06-26T09:27:31Z</time>
      </trkpt>
      <trkpt lat="46.08041" lon="4.75619">
        <ele>173</ele>
        <time>2018-06-26T09:28:36Z</time>
      </trkpt>
      <trkpt lat="46.0804" lon="4.7562">
        <ele>173</ele>
        <time>2018-06-26T09:28:37Z</time>
      </trkpt>
      <trkpt lat="46.08033" lon="4.75625">
        <ele>173</ele>
        <time>2018-06-26T09:28:49Z</time>
      </trkpt>
      <trkpt lat="46.08032" lon="4.75626">
        <ele>173</ele>
        <time>2018-06-26T09:28:50Z</time>
      </trkpt>
      <trkpt lat="46.08031" lon="4.75633">
        <ele>173</ele>
        <time>2018-06-26T09:29:33Z</time>
      </trkpt>
      <trkpt lat="46.08031" lon="4.75633">
        <ele>173</ele>
        <time>2018-06-26T09:29:34Z</time>
      </trkpt>
      <trkpt lat="46.08027" lon="4.75633">
        <ele>173</ele>
        <time>2018-06-26T09:30:13Z</time>
      </trkpt>
      <trkpt lat="46.08027" lon="4.75633">
        <ele>173</ele>
        <time>2018-06-26T09:30:14Z</time>
      </trkpt>
      <trkpt lat="46.08026" lon="4.7563">
        <ele>173</ele>
        <time>2018-06-26T09:30:41Z</time>
      </trkpt>
      <trkpt lat="46.08026" lon="4.7563">
        <ele>173</ele>
        <time>2018-06-26T09:30:42Z</time>
      </trkpt>
      <trkpt lat="46.08026" lon="4.7563">
        <ele>173</ele>
        <time>2018-06-26T09:34:46Z</time>
      </trkpt>
      <trkpt lat="46.08025" lon="4.7563">
        <ele>173</ele>
        <time>2018-06-26T09:34:47Z</time>
      </trkpt>
      <trkpt lat="46.08033" lon="4.75628">
        <ele>173</ele>
        <time>2018-06-26T09:37:33Z</time>
      </trkpt>
      <trkpt lat="46.08034" lon="4.75627">
        <ele>173</ele>
        <time>2018-06-26T09:37:34Z</time>
      </trkpt>
      <trkpt lat="46.08043" lon="4.75625">
        <ele>173</ele>
        <time>2018-06-26T09:37:42Z</time>
      </trkpt>
      <trkpt lat="46.08043" lon="4.75625">
        <ele>173</ele>
        <time>2018-06-26T09:37:43Z</time>
      </trkpt>
      <trkpt lat="46.08037" lon="4.75633">
        <ele>173</ele>
        <time>2018-06-26T09:38:01Z</time>
      </trkpt>
      <trkpt lat="46.08035" lon="4.75634">
        <ele>173</ele>
        <time>2018-06-26T09:38:02Z</time>
      </trkpt>
      <trkpt lat="46.08028" lon="4.75641">
        <ele>173</ele>
        <time>2018-06-26T09:38:06Z</time>
      </trkpt>
      <trkpt lat="46.08026" lon="4.75643">
        <ele>174</ele>
        <time>2018-06-26T09:38:07Z</time>
      </trkpt>
      <trkpt lat="46.0802" lon="4.75647">
        <ele>174</ele>
        <time>2018-06-26T09:38:10Z</time>
      </trkpt>
      <trkpt lat="46.08016" lon="4.75647">
        <ele>174</ele>
        <time>2018-06-26T09:38:11Z</time>
      </trkpt>
      <trkpt lat="46.08009" lon="4.75648">
        <ele>174</ele>
        <time>2018-06-26T09:38:14Z</time>
      </trkpt>
      <trkpt lat="46.08001" lon="4.75652">
        <ele>174</ele>
        <time>2018-06-26T09:38:15Z</time>
      </trkpt>
      <trkpt lat="46.08002" lon="4.75658">
        <ele>175</ele>
        <time>2018-06-26T09:38:17Z</time>
      </trkpt>
      <trkpt lat="46.07993" lon="4.75663">
        <ele>174</ele>
        <time>2018-06-26T09:38:18Z</time>
      </trkpt>
      <trkpt lat="46.07988" lon="4.75668">
        <ele>175</ele>
        <time>2018-06-26T09:38:19Z</time>
      </trkpt>
      <trkpt lat="46.07987" lon="4.75672">
        <ele>175</ele>
        <time>2018-06-26T09:38:20Z</time>
      </trkpt>
      <trkpt lat="46.0798" lon="4.75679">
        <ele>174</ele>
        <time>2018-06-26T09:38:22Z</time>
      </trkpt>
      <trkpt lat="46.07977" lon="4.75682">
        <ele>174</ele>
        <time>2018-06-26T09:38:23Z</time>
      </trkpt>
      <trkpt lat="46.0797" lon="4.75688">
        <ele>173</ele>
        <time>2018-06-26T09:38:26Z</time>
      </trkpt>
      <trkpt lat="46.07968" lon="4.7569">
        <ele>173</ele>
        <time>2018-06-26T09:38:27Z</time>
      </trkpt>
      <trkpt lat="46.07965" lon="4.75693">
        <ele>173</ele>
        <time>2018-06-26T09:38:28Z</time>
      </trkpt>
      <trkpt lat="46.0796" lon="4.75699">
        <ele>173</ele>
        <time>2018-06-26T09:38:29Z</time>
      </trkpt>
      <trkpt lat="46.07954" lon="4.75706">
        <ele>173</ele>
        <time>2018-06-26T09:38:31Z</time>
      </trkpt>
      <trkpt lat="46.07952" lon="4.75709">
        <ele>173</ele>
        <time>2018-06-26T09:38:32Z</time>
      </trkpt>
      <trkpt lat="46.07945" lon="4.75716">
        <ele>173</ele>
        <time>2018-06-26T09:38:34Z</time>
      </trkpt>
      <trkpt lat="46.07941" lon="4.75719">
        <ele>173</ele>
        <time>2018-06-26T09:38:35Z</time>
      </trkpt>
      <trkpt lat="46.07934" lon="4.75725">
        <ele>173</ele>
        <time>2018-06-26T09:38:37Z</time>
      </trkpt>
      <trkpt lat="46.07931" lon="4.75728">
        <ele>173</ele>
        <time>2018-06-26T09:38:38Z</time>
      </trkpt>
      <trkpt lat="46.07925" lon="4.75736">
        <ele>173</ele>
        <time>2018-06-26T09:38:40Z</time>
      </trkpt>
      <trkpt lat="46.07922" lon="4.75739">
        <ele>173</ele>
        <time>2018-06-26T09:38:41Z</time>
      </trkpt>
      <trkpt lat="46.07915" lon="4.75746">
        <ele>172</ele>
        <time>2018-06-26T09:38:43Z</time>
      </trkpt>
      <trkpt lat="46.07912" lon="4.7575">
        <ele>173</ele>
        <time>2018-06-26T09:38:44Z</time>
      </trkpt>
      <trkpt lat="46.07905" lon="4.75758">
        <ele>172</ele>
        <time>2018-06-26T09:38:46Z</time>
      </trkpt>
      <trkpt lat="46.07902" lon="4.75762">
        <ele>172</ele>
        <time>2018-06-26T09:38:47Z</time>
      </trkpt>
      <trkpt lat="46.07897" lon="4.75765">
        <ele>172</ele>
        <time>2018-06-26T09:38:48Z</time>
      </trkpt>
      <trkpt lat="46.07893" lon="4.75768">
        <ele>172</ele>
        <time>2018-06-26T09:38:49Z</time>
      </trkpt>
      <trkpt lat="46.0789" lon="4.75773">
        <ele>172</ele>
        <time>2018-06-26T09:38:50Z</time>
      </trkpt>
      <trkpt lat="46.07885" lon="4.75778">
        <ele>172</ele>
        <time>2018-06-26T09:38:51Z</time>
      </trkpt>
      <trkpt lat="46.0788" lon="4.75785">
        <ele>171</ele>
        <time>2018-06-26T09:38:53Z</time>
      </trkpt>
      <trkpt lat="46.07877" lon="4.75788">
        <ele>171</ele>
        <time>2018-06-26T09:38:54Z</time>
      </trkpt>
      <trkpt lat="46.07871" lon="4.75794">
        <ele>171</ele>
        <time>2018-06-26T09:38:56Z</time>
      </trkpt>
      <trkpt lat="46.07868" lon="4.75797">
        <ele>171</ele>
        <time>2018-06-26T09:38:57Z</time>
      </trkpt>
      <trkpt lat="46.07861" lon="4.75803">
        <ele>172</ele>
        <time>2018-06-26T09:38:59Z</time>
      </trkpt>
      <trkpt lat="46.07857" lon="4.75805">
        <ele>172</ele>
        <time>2018-06-26T09:39:00Z</time>
      </trkpt>
      <trkpt lat="46.0785" lon="4.75812">
        <ele>172</ele>
        <time>2018-06-26T09:39:02Z</time>
      </trkpt>
      <trkpt lat="46.07846" lon="4.75815">
        <ele>172</ele>
        <time>2018-06-26T09:39:03Z</time>
      </trkpt>
      <trkpt lat="46.07838" lon="4.75822">
        <ele>172</ele>
        <time>2018-06-26T09:39:05Z</time>
      </trkpt>
      <trkpt lat="46.07835" lon="4.75826">
        <ele>172</ele>
        <time>2018-06-26T09:39:06Z</time>
      </trkpt>
      <trkpt lat="46.07831" lon="4.7583">
        <ele>172</ele>
        <time>2018-06-26T09:39:07Z</time>
      </trkpt>
      <trkpt lat="46.07828" lon="4.75834">
        <ele>173</ele>
        <time>2018-06-26T09:39:08Z</time>
      </trkpt>
      <trkpt lat="46.07825" lon="4.75839">
        <ele>173</ele>
        <time>2018-06-26T09:39:09Z</time>
      </trkpt>
      <trkpt lat="46.07822" lon="4.75846">
        <ele>173</ele>
        <time>2018-06-26T09:39:10Z</time>
      </trkpt>
      <trkpt lat="46.07815" lon="4.75853">
        <ele>172</ele>
        <time>2018-06-26T09:39:12Z</time>
      </trkpt>
      <trkpt lat="46.07813" lon="4.7586">
        <ele>172</ele>
        <time>2018-06-26T09:39:13Z</time>
      </trkpt>
      <trkpt lat="46.07809" lon="4.75864">
        <ele>172</ele>
        <time>2018-06-26T09:39:14Z</time>
      </trkpt>
      <trkpt lat="46.07804" lon="4.75868">
        <ele>172</ele>
        <time>2018-06-26T09:39:15Z</time>
      </trkpt>
      <trkpt lat="46.07799" lon="4.75872">
        <ele>172</ele>
        <time>2018-06-26T09:39:16Z</time>
      </trkpt>
      <trkpt lat="46.07796" lon="4.75874">
        <ele>172</ele>
        <time>2018-06-26T09:39:17Z</time>
      </trkpt>
      <trkpt lat="46.07792" lon="4.75878">
        <ele>172</ele>
        <time>2018-06-26T09:39:18Z</time>
      </trkpt>
      <trkpt lat="46.07787" lon="4.75883">
        <ele>172</ele>
        <time>2018-06-26T09:39:19Z</time>
      </trkpt>
      <trkpt lat="46.07781" lon="4.75889">
        <ele>172</ele>
        <time>2018-06-26T09:39:21Z</time>
      </trkpt>
      <trkpt lat="46.07777" lon="4.75892">
        <ele>173</ele>
        <time>2018-06-26T09:39:22Z</time>
      </trkpt>
      <trkpt lat="46.0777" lon="4.75896">
        <ele>173</ele>
        <time>2018-06-26T09:39:25Z</time>
      </trkpt>
      <trkpt lat="46.07769" lon="4.75897">
        <ele>173</ele>
        <time>2018-06-26T09:39:26Z</time>
      </trkpt>
      <trkpt lat="46.07761" lon="4.759">
        <ele>173</ele>
        <time>2018-06-26T09:40:16Z</time>
      </trkpt>
      <trkpt lat="46.0776" lon="4.75902">
        <ele>173</ele>
        <time>2018-06-26T09:40:17Z</time>
      </trkpt>
      <trkpt lat="46.07755" lon="4.75908">
        <ele>173</ele>
        <time>2018-06-26T09:40:20Z</time>
      </trkpt>
      <trkpt lat="46.07753" lon="4.7591">
        <ele>174</ele>
        <time>2018-06-26T09:40:21Z</time>
      </trkpt>
      <trkpt lat="46.07746" lon="4.75917">
        <ele>174</ele>
        <time>2018-06-26T09:40:22Z</time>
      </trkpt>
      <trkpt lat="46.07742" lon="4.75919">
        <ele>173</ele>
        <time>2018-06-26T09:40:23Z</time>
      </trkpt>
      <trkpt lat="46.07734" lon="4.75925">
        <ele>173</ele>
        <time>2018-06-26T09:40:25Z</time>
      </trkpt>
      <trkpt lat="46.0773" lon="4.75927">
        <ele>173</ele>
        <time>2018-06-26T09:40:26Z</time>
      </trkpt>
      <trkpt lat="46.07724" lon="4.75933">
        <ele>173</ele>
        <time>2018-06-26T09:40:28Z</time>
      </trkpt>
      <trkpt lat="46.0772" lon="4.75937">
        <ele>172</ele>
        <time>2018-06-26T09:40:29Z</time>
      </trkpt>
      <trkpt lat="46.07713" lon="4.75943">
        <ele>172</ele>
        <time>2018-06-26T09:40:31Z</time>
      </trkpt>
      <trkpt lat="46.07709" lon="4.75946">
        <ele>172</ele>
        <time>2018-06-26T09:40:32Z</time>
      </trkpt>
      <trkpt lat="46.07702" lon="4.75952">
        <ele>172</ele>
        <time>2018-06-26T09:40:34Z</time>
      </trkpt>
      <trkpt lat="46.07698" lon="4.75955">
        <ele>172</ele>
        <time>2018-06-26T09:40:35Z</time>
      </trkpt>
      <trkpt lat="46.0769" lon="4.75959">
        <ele>172</ele>
        <time>2018-06-26T09:40:37Z</time>
      </trkpt>
      <trkpt lat="46.07684" lon="4.75963">
        <ele>172</ele>
        <time>2018-06-26T09:40:38Z</time>
      </trkpt>
      <trkpt lat="46.07676" lon="4.75968">
        <ele>172</ele>
        <time>2018-06-26T09:40:40Z</time>
      </trkpt>
      <trkpt lat="46.07673" lon="4.75972">
        <ele>172</ele>
        <time>2018-06-26T09:40:41Z</time>
      </trkpt>
      <trkpt lat="46.07667" lon="4.75975">
        <ele>172</ele>
        <time>2018-06-26T09:40:42Z</time>
      </trkpt>
      <trkpt lat="46.07663" lon="4.75978">
        <ele>170</ele>
        <time>2018-06-26T09:40:43Z</time>
      </trkpt>
      <trkpt lat="46.07659" lon="4.75984">
        <ele>170</ele>
        <time>2018-06-26T09:40:44Z</time>
      </trkpt>
      <trkpt lat="46.07655" lon="4.75987">
        <ele>170</ele>
        <time>2018-06-26T09:40:45Z</time>
      </trkpt>
      <trkpt lat="46.07648" lon="4.75994">
        <ele>170</ele>
        <time>2018-06-26T09:40:47Z</time>
      </trkpt>
      <trkpt lat="46.07645" lon="4.75998">
        <ele>170</ele>
        <time>2018-06-26T09:40:48Z</time>
      </trkpt>
      <trkpt lat="46.07647" lon="4.76008">
        <ele>172</ele>
        <time>2018-06-26T09:40:52Z</time>
      </trkpt>
      <trkpt lat="46.07647" lon="4.76011">
        <ele>172</ele>
        <time>2018-06-26T09:40:53Z</time>
      </trkpt>
      <trkpt lat="46.07648" lon="4.76018">
        <ele>172</ele>
        <time>2018-06-26T09:40:55Z</time>
      </trkpt>
      <trkpt lat="46.07652" lon="4.76031">
        <ele>172</ele>
        <time>2018-06-26T09:40:56Z</time>
      </trkpt>
      <trkpt lat="46.07658" lon="4.76039">
        <ele>172</ele>
        <time>2018-06-26T09:40:58Z</time>
      </trkpt>
      <trkpt lat="46.07661" lon="4.76044">
        <ele>172</ele>
        <time>2018-06-26T09:40:59Z</time>
      </trkpt>
      <trkpt lat="46.07662" lon="4.7605">
        <ele>172</ele>
        <time>2018-06-26T09:41:01Z</time>
      </trkpt>
      <trkpt lat="46.07664" lon="4.76059">
        <ele>172</ele>
        <time>2018-06-26T09:41:02Z</time>
      </trkpt>
      <trkpt lat="46.07668" lon="4.76069">
        <ele>174</ele>
        <time>2018-06-26T09:41:04Z</time>
      </trkpt>
      <trkpt lat="46.07669" lon="4.76071">
        <ele>174</ele>
        <time>2018-06-26T09:41:05Z</time>
      </trkpt>
      <trkpt lat="46.07673" lon="4.76081">
        <ele>173</ele>
        <time>2018-06-26T09:41:07Z</time>
      </trkpt>
      <trkpt lat="46.07674" lon="4.76084">
        <ele>173</ele>
        <time>2018-06-26T09:41:08Z</time>
      </trkpt>
      <trkpt lat="46.07677" lon="4.76093">
        <ele>173</ele>
        <time>2018-06-26T09:41:11Z</time>
      </trkpt>
      <trkpt lat="46.07678" lon="4.76096">
        <ele>173</ele>
        <time>2018-06-26T09:41:12Z</time>
      </trkpt>
      <trkpt lat="46.07676" lon="4.76106">
        <ele>173</ele>
        <time>2018-06-26T09:41:15Z</time>
      </trkpt>
      <trkpt lat="46.0767" lon="4.76113">
        <ele>173</ele>
        <time>2018-06-26T09:41:16Z</time>
      </trkpt>
      <trkpt lat="46.07665" lon="4.76119">
        <ele>172</ele>
        <time>2018-06-26T09:41:17Z</time>
      </trkpt>
      <trkpt lat="46.07662" lon="4.76121">
        <ele>172</ele>
        <time>2018-06-26T09:41:18Z</time>
      </trkpt>
      <trkpt lat="46.07655" lon="4.76128">
        <ele>172</ele>
        <time>2018-06-26T09:41:20Z</time>
      </trkpt>
      <trkpt lat="46.07652" lon="4.76133">
        <ele>172</ele>
        <time>2018-06-26T09:41:21Z</time>
      </trkpt>
      <trkpt lat="46.07645" lon="4.76141">
        <ele>172</ele>
        <time>2018-06-26T09:41:23Z</time>
      </trkpt>
      <trkpt lat="46.07641" lon="4.76144">
        <ele>172</ele>
        <time>2018-06-26T09:41:24Z</time>
      </trkpt>
      <trkpt lat="46.07638" lon="4.76148">
        <ele>172</ele>
        <time>2018-06-26T09:41:25Z</time>
      </trkpt>
      <trkpt lat="46.07632" lon="4.76153">
        <ele>172</ele>
        <time>2018-06-26T09:41:26Z</time>
      </trkpt>
      <trkpt lat="46.07628" lon="4.76157">
        <ele>172</ele>
        <time>2018-06-26T09:41:27Z</time>
      </trkpt>
      <trkpt lat="46.07623" lon="4.76162">
        <ele>172</ele>
        <time>2018-06-26T09:41:28Z</time>
      </trkpt>
      <trkpt lat="46.07618" lon="4.76168">
        <ele>173</ele>
        <time>2018-06-26T09:41:29Z</time>
      </trkpt>
      <trkpt lat="46.07614" lon="4.76173">
        <ele>173</ele>
        <time>2018-06-26T09:41:30Z</time>
      </trkpt>
      <trkpt lat="46.07609" lon="4.76178">
        <ele>173</ele>
        <time>2018-06-26T09:41:31Z</time>
      </trkpt>
      <trkpt lat="46.07604" lon="4.76183">
        <ele>173</ele>
        <time>2018-06-26T09:41:32Z</time>
      </trkpt>
      <trkpt lat="46.076" lon="4.76188">
        <ele>173</ele>
        <time>2018-06-26T09:41:33Z</time>
      </trkpt>
      <trkpt lat="46.07597" lon="4.76192">
        <ele>173</ele>
        <time>2018-06-26T09:41:34Z</time>
      </trkpt>
      <trkpt lat="46.07592" lon="4.76196">
        <ele>173</ele>
        <time>2018-06-26T09:41:35Z</time>
      </trkpt>
      <trkpt lat="46.07589" lon="4.76202">
        <ele>173</ele>
        <time>2018-06-26T09:41:36Z</time>
      </trkpt>
      <trkpt lat="46.07585" lon="4.76207">
        <ele>173</ele>
        <time>2018-06-26T09:41:37Z</time>
      </trkpt>
      <trkpt lat="46.07581" lon="4.76211">
        <ele>173</ele>
        <time>2018-06-26T09:41:38Z</time>
      </trkpt>
      <trkpt lat="46.07577" lon="4.76214">
        <ele>173</ele>
        <time>2018-06-26T09:41:39Z</time>
      </trkpt>
      <trkpt lat="46.07573" lon="4.76221">
        <ele>173</ele>
        <time>2018-06-26T09:41:40Z</time>
      </trkpt>
      <trkpt lat="46.07568" lon="4.76225">
        <ele>173</ele>
        <time>2018-06-26T09:41:41Z</time>
      </trkpt>
      <trkpt lat="46.07564" lon="4.7623">
        <ele>173</ele>
        <time>2018-06-26T09:41:42Z</time>
      </trkpt>
      <trkpt lat="46.0756" lon="4.76238">
        <ele>173</ele>
        <time>2018-06-26T09:41:43Z</time>
      </trkpt>
      <trkpt lat="46.07555" lon="4.76243">
        <ele>173</ele>
        <time>2018-06-26T09:41:44Z</time>
      </trkpt>
      <trkpt lat="46.07551" lon="4.76248">
        <ele>173</ele>
        <time>2018-06-26T09:41:45Z</time>
      </trkpt>
      <trkpt lat="46.07547" lon="4.76253">
        <ele>174</ele>
        <time>2018-06-26T09:41:46Z</time>
      </trkpt>
      <trkpt lat="46.07543" lon="4.76257">
        <ele>174</ele>
        <time>2018-06-26T09:41:47Z</time>
      </trkpt>
      <trkpt lat="46.07539" lon="4.76261">
        <ele>174</ele>
        <time>2018-06-26T09:41:48Z</time>
      </trkpt>
      <trkpt lat="46.07535" lon="4.76264">
        <ele>174</ele>
        <time>2018-06-26T09:41:49Z</time>
      </trkpt>
      <trkpt lat="46.07531" lon="4.76268">
        <ele>174</ele>
        <time>2018-06-26T09:41:50Z</time>
      </trkpt>
      <trkpt lat="46.07525" lon="4.76276">
        <ele>174</ele>
        <time>2018-06-26T09:41:52Z</time>
      </trkpt>
      <trkpt lat="46.07521" lon="4.7628">
        <ele>174</ele>
        <time>2018-06-26T09:41:53Z</time>
      </trkpt>
      <trkpt lat="46.07516" lon="4.76285">
        <ele>174</ele>
        <time>2018-06-26T09:41:54Z</time>
      </trkpt>
      <trkpt lat="46.07512" lon="4.76291">
        <ele>174</ele>
        <time>2018-06-26T09:41:55Z</time>
      </trkpt>
      <trkpt lat="46.07508" lon="4.76295">
        <ele>174</ele>
        <time>2018-06-26T09:41:56Z</time>
      </trkpt>
      <trkpt lat="46.07504" lon="4.76299">
        <ele>174</ele>
        <time>2018-06-26T09:41:57Z</time>
      </trkpt>
      <trkpt lat="46.07496" lon="4.76303">
        <ele>173</ele>
        <time>2018-06-26T09:41:59Z</time>
      </trkpt>
      <trkpt lat="46.07492" lon="4.76305">
        <ele>173</ele>
        <time>2018-06-26T09:42:00Z</time>
      </trkpt>
      <trkpt lat="46.07487" lon="4.76306">
        <ele>173</ele>
        <time>2018-06-26T09:42:01Z</time>
      </trkpt>
      <trkpt lat="46.07481" lon="4.76308">
        <ele>173</ele>
        <time>2018-06-26T09:42:02Z</time>
      </trkpt>
      <trkpt lat="46.07477" lon="4.7631">
        <ele>172</ele>
        <time>2018-06-26T09:42:03Z</time>
      </trkpt>
      <trkpt lat="46.07473" lon="4.76316">
        <ele>172</ele>
        <time>2018-06-26T09:42:04Z</time>
      </trkpt>
      <trkpt lat="46.0747" lon="4.76322">
        <ele>172</ele>
        <time>2018-06-26T09:42:05Z</time>
      </trkpt>
      <trkpt lat="46.07466" lon="4.76327">
        <ele>172</ele>
        <time>2018-06-26T09:42:06Z</time>
      </trkpt>
      <trkpt lat="46.07465" lon="4.76334">
        <ele>172</ele>
        <time>2018-06-26T09:42:07Z</time>
      </trkpt>
      <trkpt lat="46.07461" lon="4.76339">
        <ele>172</ele>
        <time>2018-06-26T09:42:08Z</time>
      </trkpt>
      <trkpt lat="46.07458" lon="4.76344">
        <ele>172</ele>
        <time>2018-06-26T09:42:09Z</time>
      </trkpt>
      <trkpt lat="46.07454" lon="4.76348">
        <ele>172</ele>
        <time>2018-06-26T09:42:10Z</time>
      </trkpt>
      <trkpt lat="46.0745" lon="4.76353">
        <ele>172</ele>
        <time>2018-06-26T09:42:11Z</time>
      </trkpt>
      <trkpt lat="46.07447" lon="4.76359">
        <ele>172</ele>
        <time>2018-06-26T09:42:12Z</time>
      </trkpt>
      <trkpt lat="46.07443" lon="4.76363">
        <ele>171</ele>
        <time>2018-06-26T09:42:13Z</time>
      </trkpt>
      <trkpt lat="46.07439" lon="4.76367">
        <ele>171</ele>
        <time>2018-06-26T09:42:14Z</time>
      </trkpt>
      <trkpt lat="46.07435" lon="4.76372">
        <ele>171</ele>
        <time>2018-06-26T09:42:15Z</time>
      </trkpt>
      <trkpt lat="46.0743" lon="4.76378">
        <ele>171</ele>
        <time>2018-06-26T09:42:16Z</time>
      </trkpt>
      <trkpt lat="46.07426" lon="4.76382">
        <ele>171</ele>
        <time>2018-06-26T09:42:17Z</time>
      </trkpt>
      <trkpt lat="46.07422" lon="4.76388">
        <ele>171</ele>
        <time>2018-06-26T09:42:18Z</time>
      </trkpt>
      <trkpt lat="46.07418" lon="4.76393">
        <ele>171</ele>
        <time>2018-06-26T09:42:19Z</time>
      </trkpt>
      <trkpt lat="46.07413" lon="4.76398">
        <ele>170</ele>
        <time>2018-06-26T09:42:20Z</time>
      </trkpt>
      <trkpt lat="46.07408" lon="4.76403">
        <ele>171</ele>
        <time>2018-06-26T09:42:21Z</time>
      </trkpt>
      <trkpt lat="46.07403" lon="4.76408">
        <ele>171</ele>
        <time>2018-06-26T09:42:22Z</time>
      </trkpt>
      <trkpt lat="46.07399" lon="4.76411">
        <ele>171</ele>
        <time>2018-06-26T09:42:23Z</time>
      </trkpt>
      <trkpt lat="46.07395" lon="4.76415">
        <ele>171</ele>
        <time>2018-06-26T09:42:24Z</time>
      </trkpt>
      <trkpt lat="46.07391" lon="4.7642">
        <ele>171</ele>
        <time>2018-06-26T09:42:25Z</time>
      </trkpt>
      <trkpt lat="46.07387" lon="4.76424">
        <ele>171</ele>
        <time>2018-06-26T09:42:26Z</time>
      </trkpt>
      <trkpt lat="46.07384" lon="4.76428">
        <ele>171</ele>
        <time>2018-06-26T09:42:27Z</time>
      </trkpt>
      <trkpt lat="46.0738" lon="4.76434">
        <ele>171</ele>
        <time>2018-06-26T09:42:28Z</time>
      </trkpt>
      <trkpt lat="46.07375" lon="4.76439">
        <ele>171</ele>
        <time>2018-06-26T09:42:29Z</time>
      </trkpt>
      <trkpt lat="46.0737" lon="4.76444">
        <ele>171</ele>
        <time>2018-06-26T09:42:30Z</time>
      </trkpt>
      <trkpt lat="46.07365" lon="4.76448">
        <ele>171</ele>
        <time>2018-06-26T09:42:31Z</time>
      </trkpt>
      <trkpt lat="46.07361" lon="4.76453">
        <ele>171</ele>
        <time>2018-06-26T09:42:32Z</time>
      </trkpt>
      <trkpt lat="46.07354" lon="4.76461">
        <ele>171</ele>
        <time>2018-06-26T09:42:34Z</time>
      </trkpt>
      <trkpt lat="46.0735" lon="4.76465">
        <ele>171</ele>
        <time>2018-06-26T09:42:35Z</time>
      </trkpt>
      <trkpt lat="46.07343" lon="4.76472">
        <ele>171</ele>
        <time>2018-06-26T09:42:37Z</time>
      </trkpt>
      <trkpt lat="46.07339" lon="4.76476">
        <ele>171</ele>
        <time>2018-06-26T09:42:38Z</time>
      </trkpt>
      <trkpt lat="46.07335" lon="4.7648">
        <ele>171</ele>
        <time>2018-06-26T09:42:39Z</time>
      </trkpt>
      <trkpt lat="46.07331" lon="4.76484">
        <ele>170</ele>
        <time>2018-06-26T09:42:40Z</time>
      </trkpt>
      <trkpt lat="46.07323" lon="4.76489">
        <ele>170</ele>
        <time>2018-06-26T09:42:42Z</time>
      </trkpt>
      <trkpt lat="46.07319" lon="4.76492">
        <ele>170</ele>
        <time>2018-06-26T09:42:43Z</time>
      </trkpt>
      <trkpt lat="46.07314" lon="4.76497">
        <ele>170</ele>
        <time>2018-06-26T09:42:44Z</time>
      </trkpt>
      <trkpt lat="46.07309" lon="4.76501">
        <ele>170</ele>
        <time>2018-06-26T09:42:45Z</time>
      </trkpt>
      <trkpt lat="46.07305" lon="4.76506">
        <ele>170</ele>
        <time>2018-06-26T09:42:46Z</time>
      </trkpt>
      <trkpt lat="46.073" lon="4.76512">
        <ele>170</ele>
        <time>2018-06-26T09:42:47Z</time>
      </trkpt>
      <trkpt lat="46.07296" lon="4.76516">
        <ele>170</ele>
        <time>2018-06-26T09:42:48Z</time>
      </trkpt>
      <trkpt lat="46.07292" lon="4.76521">
        <ele>170</ele>
        <time>2018-06-26T09:42:49Z</time>
      </trkpt>
      <trkpt lat="46.07288" lon="4.76526">
        <ele>170</ele>
        <time>2018-06-26T09:42:50Z</time>
      </trkpt>
      <trkpt lat="46.07283" lon="4.76531">
        <ele>170</ele>
        <time>2018-06-26T09:42:51Z</time>
      </trkpt>
      <trkpt lat="46.07279" lon="4.76537">
        <ele>170</ele>
        <time>2018-06-26T09:42:52Z</time>
      </trkpt>
      <trkpt lat="46.07273" lon="4.76543">
        <ele>170</ele>
        <time>2018-06-26T09:42:53Z</time>
      </trkpt>
      <trkpt lat="46.07269" lon="4.76549">
        <ele>170</ele>
        <time>2018-06-26T09:42:54Z</time>
      </trkpt>
      <trkpt lat="46.07263" lon="4.76554">
        <ele>170</ele>
        <time>2018-06-26T09:42:55Z</time>
      </trkpt>
      <trkpt lat="46.07258" lon="4.7656">
        <ele>170</ele>
        <time>2018-06-26T09:42:56Z</time>
      </trkpt>
      <trkpt lat="46.07254" lon="4.76565">
        <ele>170</ele>
        <time>2018-06-26T09:42:57Z</time>
      </trkpt>
      <trkpt lat="46.07247" lon="4.76572">
        <ele>170</ele>
        <time>2018-06-26T09:42:58Z</time>
      </trkpt>
      <trkpt lat="46.07244" lon="4.76577">
        <ele>170</ele>
        <time>2018-06-26T09:42:59Z</time>
      </trkpt>
      <trkpt lat="46.0724" lon="4.76583">
        <ele>170</ele>
        <time>2018-06-26T09:43:00Z</time>
      </trkpt>
      <trkpt lat="46.07235" lon="4.7659">
        <ele>170</ele>
        <time>2018-06-26T09:43:01Z</time>
      </trkpt>
      <trkpt lat="46.0723" lon="4.76597">
        <ele>170</ele>
        <time>2018-06-26T09:43:02Z</time>
      </trkpt>
      <trkpt lat="46.07225" lon="4.76603">
        <ele>170</ele>
        <time>2018-06-26T09:43:03Z</time>
      </trkpt>
      <trkpt lat="46.07221" lon="4.76608">
        <ele>170</ele>
        <time>2018-06-26T09:43:04Z</time>
      </trkpt>
      <trkpt lat="46.07216" lon="4.76613">
        <ele>170</ele>
        <time>2018-06-26T09:43:05Z</time>
      </trkpt>
      <trkpt lat="46.07211" lon="4.76619">
        <ele>170</ele>
        <time>2018-06-26T09:43:06Z</time>
      </trkpt>
      <trkpt lat="46.07206" lon="4.76628">
        <ele>170</ele>
        <time>2018-06-26T09:43:07Z</time>
      </trkpt>
      <trkpt lat="46.07203" lon="4.76633">
        <ele>170</ele>
        <time>2018-06-26T09:43:08Z</time>
      </trkpt>
      <trkpt lat="46.07199" lon="4.76639">
        <ele>170</ele>
        <time>2018-06-26T09:43:09Z</time>
      </trkpt>
      <trkpt lat="46.07195" lon="4.76644">
        <ele>170</ele>
        <time>2018-06-26T09:43:10Z</time>
      </trkpt>
      <trkpt lat="46.07192" lon="4.7665">
        <ele>170</ele>
        <time>2018-06-26T09:43:11Z</time>
      </trkpt>
      <trkpt lat="46.0719" lon="4.76657">
        <ele>170</ele>
        <time>2018-06-26T09:43:12Z</time>
      </trkpt>
      <trkpt lat="46.07187" lon="4.76663">
        <ele>170</ele>
        <time>2018-06-26T09:43:13Z</time>
      </trkpt>
      <trkpt lat="46.07184" lon="4.76671">
        <ele>170</ele>
        <time>2018-06-26T09:43:14Z</time>
      </trkpt>
      <trkpt lat="46.0718" lon="4.76678">
        <ele>170</ele>
        <time>2018-06-26T09:43:15Z</time>
      </trkpt>
      <trkpt lat="46.07178" lon="4.76684">
        <ele>170</ele>
        <time>2018-06-26T09:43:16Z</time>
      </trkpt>
      <trkpt lat="46.07175" lon="4.7669">
        <ele>170</ele>
        <time>2018-06-26T09:43:17Z</time>
      </trkpt>
      <trkpt lat="46.07171" lon="4.76697">
        <ele>171</ele>
        <time>2018-06-26T09:43:18Z</time>
      </trkpt>
      <trkpt lat="46.07168" lon="4.76703">
        <ele>171</ele>
        <time>2018-06-26T09:43:19Z</time>
      </trkpt>
      <trkpt lat="46.07164" lon="4.76709">
        <ele>170</ele>
        <time>2018-06-26T09:43:20Z</time>
      </trkpt>
      <trkpt lat="46.07161" lon="4.76717">
        <ele>170</ele>
        <time>2018-06-26T09:43:21Z</time>
      </trkpt>
      <trkpt lat="46.07157" lon="4.76724">
        <ele>170</ele>
        <time>2018-06-26T09:43:22Z</time>
      </trkpt>
      <trkpt lat="46.07153" lon="4.76731">
        <ele>171</ele>
        <time>2018-06-26T09:43:23Z</time>
      </trkpt>
      <trkpt lat="46.0715" lon="4.76737">
        <ele>171</ele>
        <time>2018-06-26T09:43:24Z</time>
      </trkpt>
      <trkpt lat="46.07145" lon="4.76743">
        <ele>171</ele>
        <time>2018-06-26T09:43:25Z</time>
      </trkpt>
      <trkpt lat="46.07142" lon="4.7675">
        <ele>171</ele>
        <time>2018-06-26T09:43:26Z</time>
      </trkpt>
      <trkpt lat="46.07139" lon="4.76754">
        <ele>171</ele>
        <time>2018-06-26T09:43:27Z</time>
      </trkpt>
      <trkpt lat="46.07136" lon="4.76759">
        <ele>171</ele>
        <time>2018-06-26T09:43:28Z</time>
      </trkpt>
      <trkpt lat="46.07132" lon="4.76765">
        <ele>171</ele>
        <time>2018-06-26T09:43:29Z</time>
      </trkpt>
      <trkpt lat="46.07129" lon="4.76769">
        <ele>171</ele>
        <time>2018-06-26T09:43:30Z</time>
      </trkpt>
      <trkpt lat="46.07127" lon="4.76776">
        <ele>171</ele>
        <time>2018-06-26T09:43:31Z</time>
      </trkpt>
      <trkpt lat="46.07123" lon="4.76784">
        <ele>171</ele>
        <time>2018-06-26T09:43:32Z</time>
      </trkpt>
      <trkpt lat="46.07119" lon="4.7679">
        <ele>171</ele>
        <time>2018-06-26T09:43:33Z</time>
      </trkpt>
      <trkpt lat="46.07116" lon="4.76797">
        <ele>172</ele>
        <time>2018-06-26T09:43:34Z</time>
      </trkpt>
      <trkpt lat="46.07112" lon="4.76806">
        <ele>172</ele>
        <time>2018-06-26T09:43:35Z</time>
      </trkpt>
      <trkpt lat="46.07109" lon="4.76813">
        <ele>172</ele>
        <time>2018-06-26T09:43:36Z</time>
      </trkpt>
      <trkpt lat="46.07105" lon="4.7682">
        <ele>172</ele>
        <time>2018-06-26T09:43:37Z</time>
      </trkpt>
      <trkpt lat="46.07101" lon="4.76828">
        <ele>172</ele>
        <time>2018-06-26T09:43:38Z</time>
      </trkpt>
      <trkpt lat="46.07098" lon="4.76835">
        <ele>172</ele>
        <time>2018-06-26T09:43:39Z</time>
      </trkpt>
      <trkpt lat="46.07095" lon="4.76841">
        <ele>172</ele>
        <time>2018-06-26T09:43:40Z</time>
      </trkpt>
      <trkpt lat="46.07091" lon="4.7685">
        <ele>172</ele>
        <time>2018-06-26T09:43:41Z</time>
      </trkpt>
      <trkpt lat="46.07087" lon="4.76857">
        <ele>173</ele>
        <time>2018-06-26T09:43:42Z</time>
      </trkpt>
      <trkpt lat="46.07083" lon="4.76864">
        <ele>172</ele>
        <time>2018-06-26T09:43:43Z</time>
      </trkpt>
      <trkpt lat="46.0708" lon="4.7687">
        <ele>172</ele>
        <time>2018-06-26T09:43:44Z</time>
      </trkpt>
      <trkpt lat="46.07078" lon="4.76878">
        <ele>172</ele>
        <time>2018-06-26T09:43:45Z</time>
      </trkpt>
      <trkpt lat="46.07076" lon="4.76889">
        <ele>172</ele>
        <time>2018-06-26T09:43:46Z</time>
      </trkpt>
      <trkpt lat="46.07073" lon="4.76893">
        <ele>172</ele>
        <time>2018-06-26T09:43:47Z</time>
      </trkpt>
      <trkpt lat="46.07071" lon="4.769">
        <ele>172</ele>
        <time>2018-06-26T09:43:48Z</time>
      </trkpt>
      <trkpt lat="46.07068" lon="4.76908">
        <ele>172</ele>
        <time>2018-06-26T09:43:49Z</time>
      </trkpt>
      <trkpt lat="46.07064" lon="4.76913">
        <ele>172</ele>
        <time>2018-06-26T09:43:50Z</time>
      </trkpt>
      <trkpt lat="46.07062" lon="4.76917">
        <ele>173</ele>
        <time>2018-06-26T09:43:51Z</time>
      </trkpt>
      <trkpt lat="46.07058" lon="4.76922">
        <ele>173</ele>
        <time>2018-06-26T09:43:52Z</time>
      </trkpt>
      <trkpt lat="46.07055" lon="4.76929">
        <ele>173</ele>
        <time>2018-06-26T09:43:53Z</time>
      </trkpt>
      <trkpt lat="46.07052" lon="4.76936">
        <ele>173</ele>
        <time>2018-06-26T09:43:54Z</time>
      </trkpt>
      <trkpt lat="46.07048" lon="4.76941">
        <ele>173</ele>
        <time>2018-06-26T09:43:55Z</time>
      </trkpt>
      <trkpt lat="46.07044" lon="4.76947">
        <ele>173</ele>
        <time>2018-06-26T09:43:56Z</time>
      </trkpt>
      <trkpt lat="46.0704" lon="4.76953">
        <ele>173</ele>
        <time>2018-06-26T09:43:57Z</time>
      </trkpt>
      <trkpt lat="46.07037" lon="4.7696">
        <ele>173</ele>
        <time>2018-06-26T09:43:58Z</time>
      </trkpt>
      <trkpt lat="46.07035" lon="4.76965">
        <ele>173</ele>
        <time>2018-06-26T09:43:59Z</time>
      </trkpt>
      <trkpt lat="46.07032" lon="4.76972">
        <ele>173</ele>
        <time>2018-06-26T09:44:00Z</time>
      </trkpt>
      <trkpt lat="46.07029" lon="4.76979">
        <ele>173</ele>
        <time>2018-06-26T09:44:01Z</time>
      </trkpt>
      <trkpt lat="46.07026" lon="4.76985">
        <ele>173</ele>
        <time>2018-06-26T09:44:02Z</time>
      </trkpt>
      <trkpt lat="46.07022" lon="4.76991">
        <ele>173</ele>
        <time>2018-06-26T09:44:03Z</time>
      </trkpt>
      <trkpt lat="46.07018" lon="4.77001">
        <ele>174</ele>
        <time>2018-06-26T09:44:05Z</time>
      </trkpt>
      <trkpt lat="46.07017" lon="4.77006">
        <ele>174</ele>
        <time>2018-06-26T09:44:06Z</time>
      </trkpt>
      <trkpt lat="46.07013" lon="4.77013">
        <ele>174</ele>
        <time>2018-06-26T09:44:07Z</time>
      </trkpt>
      <trkpt lat="46.0701" lon="4.77017">
        <ele>174</ele>
        <time>2018-06-26T09:44:08Z</time>
      </trkpt>
      <trkpt lat="46.07006" lon="4.77025">
        <ele>174</ele>
        <time>2018-06-26T09:44:09Z</time>
      </trkpt>
      <trkpt lat="46.07002" lon="4.77031">
        <ele>174</ele>
        <time>2018-06-26T09:44:10Z</time>
      </trkpt>
      <trkpt lat="46.06999" lon="4.77035">
        <ele>173</ele>
        <time>2018-06-26T09:44:11Z</time>
      </trkpt>
      <trkpt lat="46.06996" lon="4.77041">
        <ele>173</ele>
        <time>2018-06-26T09:44:12Z</time>
      </trkpt>
      <trkpt lat="46.06991" lon="4.77048">
        <ele>173</ele>
        <time>2018-06-26T09:44:14Z</time>
      </trkpt>
      <trkpt lat="46.06989" lon="4.77051">
        <ele>173</ele>
        <time>2018-06-26T09:44:15Z</time>
      </trkpt>
      <trkpt lat="46.06985" lon="4.77059">
        <ele>173</ele>
        <time>2018-06-26T09:44:17Z</time>
      </trkpt>
      <trkpt lat="46.06982" lon="4.77062">
        <ele>173</ele>
        <time>2018-06-26T09:44:18Z</time>
      </trkpt>
      <trkpt lat="46.06975" lon="4.77065">
        <ele>173</ele>
        <time>2018-06-26T09:44:20Z</time>
      </trkpt>
      <trkpt lat="46.06971" lon="4.77066">
        <ele>173</ele>
        <time>2018-06-26T09:44:21Z</time>
      </trkpt>
      <trkpt lat="46.06963" lon="4.77068">
        <ele>173</ele>
        <time>2018-06-26T09:44:23Z</time>
      </trkpt>
      <trkpt lat="46.06958" lon="4.77068">
        <ele>173</ele>
        <time>2018-06-26T09:44:24Z</time>
      </trkpt>
      <trkpt lat="46.06952" lon="4.77069">
        <ele>173</ele>
        <time>2018-06-26T09:44:25Z</time>
      </trkpt>
      <trkpt lat="46.06947" lon="4.77069">
        <ele>173</ele>
        <time>2018-06-26T09:44:26Z</time>
      </trkpt>
      <trkpt lat="46.06941" lon="4.77069">
        <ele>173</ele>
        <time>2018-06-26T09:44:27Z</time>
      </trkpt>
      <trkpt lat="46.06935" lon="4.7707">
        <ele>173</ele>
        <time>2018-06-26T09:44:28Z</time>
      </trkpt>
      <trkpt lat="46.06929" lon="4.7707">
        <ele>173</ele>
        <time>2018-06-26T09:44:29Z</time>
      </trkpt>
      <trkpt lat="46.06923" lon="4.7707">
        <ele>173</ele>
        <time>2018-06-26T09:44:30Z</time>
      </trkpt>
      <trkpt lat="46.06916" lon="4.7707">
        <ele>173</ele>
        <time>2018-06-26T09:44:31Z</time>
      </trkpt>
      <trkpt lat="46.0691" lon="4.77071">
        <ele>173</ele>
        <time>2018-06-26T09:44:32Z</time>
      </trkpt>
      <trkpt lat="46.06904" lon="4.77071">
        <ele>173</ele>
        <time>2018-06-26T09:44:33Z</time>
      </trkpt>
      <trkpt lat="46.06896" lon="4.77074">
        <ele>173</ele>
        <time>2018-06-26T09:44:34Z</time>
      </trkpt>
      <trkpt lat="46.06891" lon="4.77074">
        <ele>173</ele>
        <time>2018-06-26T09:44:35Z</time>
      </trkpt>
      <trkpt lat="46.06886" lon="4.77074">
        <ele>173</ele>
        <time>2018-06-26T09:44:36Z</time>
      </trkpt>
      <trkpt lat="46.0688" lon="4.77075">
        <ele>173</ele>
        <time>2018-06-26T09:44:37Z</time>
      </trkpt>
      <trkpt lat="46.06874" lon="4.77075">
        <ele>173</ele>
        <time>2018-06-26T09:44:38Z</time>
      </trkpt>
      <trkpt lat="46.06868" lon="4.77077">
        <ele>173</ele>
        <time>2018-06-26T09:44:39Z</time>
      </trkpt>
      <trkpt lat="46.06861" lon="4.77081">
        <ele>173</ele>
        <time>2018-06-26T09:44:40Z</time>
      </trkpt>
      <trkpt lat="46.06856" lon="4.77083">
        <ele>173</ele>
        <time>2018-06-26T09:44:41Z</time>
      </trkpt>
      <trkpt lat="46.0685" lon="4.77085">
        <ele>173</ele>
        <time>2018-06-26T09:44:42Z</time>
      </trkpt>
      <trkpt lat="46.06845" lon="4.77089">
        <ele>173</ele>
        <time>2018-06-26T09:44:43Z</time>
      </trkpt>
      <trkpt lat="46.0684" lon="4.77092">
        <ele>173</ele>
        <time>2018-06-26T09:44:44Z</time>
      </trkpt>
      <trkpt lat="46.06835" lon="4.77096">
        <ele>173</ele>
        <time>2018-06-26T09:44:45Z</time>
      </trkpt>
      <trkpt lat="46.06829" lon="4.77098">
        <ele>173</ele>
        <time>2018-06-26T09:44:46Z</time>
      </trkpt>
      <trkpt lat="46.06825" lon="4.77103">
        <ele>173</ele>
        <time>2018-06-26T09:44:47Z</time>
      </trkpt>
      <trkpt lat="46.0682" lon="4.77106">
        <ele>173</ele>
        <time>2018-06-26T09:44:48Z</time>
      </trkpt>
      <trkpt lat="46.06815" lon="4.77111">
        <ele>172</ele>
        <time>2018-06-26T09:44:49Z</time>
      </trkpt>
      <trkpt lat="46.0681" lon="4.77114">
        <ele>172</ele>
        <time>2018-06-26T09:44:50Z</time>
      </trkpt>
      <trkpt lat="46.06805" lon="4.77119">
        <ele>172</ele>
        <time>2018-06-26T09:44:51Z</time>
      </trkpt>
      <trkpt lat="46.06798" lon="4.77126">
        <ele>172</ele>
        <time>2018-06-26T09:44:52Z</time>
      </trkpt>
      <trkpt lat="46.06793" lon="4.77131">
        <ele>172</ele>
        <time>2018-06-26T09:44:53Z</time>
      </trkpt>
      <trkpt lat="46.06789" lon="4.77135">
        <ele>172</ele>
        <time>2018-06-26T09:44:54Z</time>
      </trkpt>
      <trkpt lat="46.06787" lon="4.7714">
        <ele>172</ele>
        <time>2018-06-26T09:44:55Z</time>
      </trkpt>
      <trkpt lat="46.06782" lon="4.77145">
        <ele>172</ele>
        <time>2018-06-26T09:44:56Z</time>
      </trkpt>
      <trkpt lat="46.06777" lon="4.7715">
        <ele>172</ele>
        <time>2018-06-26T09:44:57Z</time>
      </trkpt>
      <trkpt lat="46.06774" lon="4.77154">
        <ele>172</ele>
        <time>2018-06-26T09:44:58Z</time>
      </trkpt>
      <trkpt lat="46.06768" lon="4.77159">
        <ele>172</ele>
        <time>2018-06-26T09:44:59Z</time>
      </trkpt>
      <trkpt lat="46.06765" lon="4.77163">
        <ele>172</ele>
        <time>2018-06-26T09:45:00Z</time>
      </trkpt>
      <trkpt lat="46.0676" lon="4.77168">
        <ele>172</ele>
        <time>2018-06-26T09:45:01Z</time>
      </trkpt>
      <trkpt lat="46.06755" lon="4.77173">
        <ele>172</ele>
        <time>2018-06-26T09:45:02Z</time>
      </trkpt>
      <trkpt lat="46.0675" lon="4.77178">
        <ele>172</ele>
        <time>2018-06-26T09:45:03Z</time>
      </trkpt>
      <trkpt lat="46.06746" lon="4.77182">
        <ele>172</ele>
        <time>2018-06-26T09:45:04Z</time>
      </trkpt>
      <trkpt lat="46.06741" lon="4.77184">
        <ele>172</ele>
        <time>2018-06-26T09:45:05Z</time>
      </trkpt>
      <trkpt lat="46.06735" lon="4.77188">
        <ele>172</ele>
        <time>2018-06-26T09:45:06Z</time>
      </trkpt>
      <trkpt lat="46.06731" lon="4.77188">
        <ele>172</ele>
        <time>2018-06-26T09:45:07Z</time>
      </trkpt>
      <trkpt lat="46.06725" lon="4.77193">
        <ele>172</ele>
        <time>2018-06-26T09:45:08Z</time>
      </trkpt>
      <trkpt lat="46.0672" lon="4.77194">
        <ele>172</ele>
        <time>2018-06-26T09:45:09Z</time>
      </trkpt>
      <trkpt lat="46.06714" lon="4.77201">
        <ele>172</ele>
        <time>2018-06-26T09:45:10Z</time>
      </trkpt>
      <trkpt lat="46.06709" lon="4.77203">
        <ele>172</ele>
        <time>2018-06-26T09:45:11Z</time>
      </trkpt>
      <trkpt lat="46.06704" lon="4.77204">
        <ele>172</ele>
        <time>2018-06-26T09:45:12Z</time>
      </trkpt>
      <trkpt lat="46.06695" lon="4.77206">
        <ele>172</ele>
        <time>2018-06-26T09:45:14Z</time>
      </trkpt>
      <trkpt lat="46.06693" lon="4.77206">
        <ele>172</ele>
        <time>2018-06-26T09:45:15Z</time>
      </trkpt>
      <trkpt lat="46.06685" lon="4.77207">
        <ele>172</ele>
        <time>2018-06-26T09:45:19Z</time>
      </trkpt>
      <trkpt lat="46.06684" lon="4.77207">
        <ele>172</ele>
        <time>2018-06-26T09:45:20Z</time>
      </trkpt>
      <trkpt lat="46.06676" lon="4.77211">
        <ele>172</ele>
        <time>2018-06-26T09:45:26Z</time>
      </trkpt>
      <trkpt lat="46.06675" lon="4.77213">
        <ele>172</ele>
        <time>2018-06-26T09:45:27Z</time>
      </trkpt>
      <trkpt lat="46.06674" lon="4.77221">
        <ele>172</ele>
        <time>2018-06-26T09:45:29Z</time>
      </trkpt>
      <trkpt lat="46.06675" lon="4.77232">
        <ele>172</ele>
        <time>2018-06-26T09:45:30Z</time>
      </trkpt>
      <trkpt lat="46.06677" lon="4.77242">
        <ele>173</ele>
        <time>2018-06-26T09:45:32Z</time>
      </trkpt>
      <trkpt lat="46.06677" lon="4.77248">
        <ele>173</ele>
        <time>2018-06-26T09:45:33Z</time>
      </trkpt>
      <trkpt lat="46.06674" lon="4.77258">
        <ele>173</ele>
        <time>2018-06-26T09:45:35Z</time>
      </trkpt>
      <trkpt lat="46.06672" lon="4.77264">
        <ele>173</ele>
        <time>2018-06-26T09:45:36Z</time>
      </trkpt>
      <trkpt lat="46.06667" lon="4.77274">
        <ele>173</ele>
        <time>2018-06-26T09:45:38Z</time>
      </trkpt>
      <trkpt lat="46.06667" lon="4.7728">
        <ele>174</ele>
        <time>2018-06-26T09:45:39Z</time>
      </trkpt>
      <trkpt lat="46.06664" lon="4.77285">
        <ele>174</ele>
        <time>2018-06-26T09:45:40Z</time>
      </trkpt>
      <trkpt lat="46.06661" lon="4.7729">
        <ele>174</ele>
        <time>2018-06-26T09:45:41Z</time>
      </trkpt>
      <trkpt lat="46.06661" lon="4.773">
        <ele>174</ele>
        <time>2018-06-26T09:45:43Z</time>
      </trkpt>
      <trkpt lat="46.06657" lon="4.77304">
        <ele>174</ele>
        <time>2018-06-26T09:45:44Z</time>
      </trkpt>
      <trkpt lat="46.06653" lon="4.77309">
        <ele>174</ele>
        <time>2018-06-26T09:45:45Z</time>
      </trkpt>
      <trkpt lat="46.0665" lon="4.77316">
        <ele>174</ele>
        <time>2018-06-26T09:45:46Z</time>
      </trkpt>
      <trkpt lat="46.06646" lon="4.77325">
        <ele>174</ele>
        <time>2018-06-26T09:45:48Z</time>
      </trkpt>
      <trkpt lat="46.06645" lon="4.77331">
        <ele>174</ele>
        <time>2018-06-26T09:45:49Z</time>
      </trkpt>
      <trkpt lat="46.06642" lon="4.77335">
        <ele>175</ele>
        <time>2018-06-26T09:45:50Z</time>
      </trkpt>
      <trkpt lat="46.06639" lon="4.77341">
        <ele>176</ele>
        <time>2018-06-26T09:45:51Z</time>
      </trkpt>
      <trkpt lat="46.06636" lon="4.77352">
        <ele>176</ele>
        <time>2018-06-26T09:45:53Z</time>
      </trkpt>
      <trkpt lat="46.06635" lon="4.77356">
        <ele>176</ele>
        <time>2018-06-26T09:45:54Z</time>
      </trkpt>
      <trkpt lat="46.06633" lon="4.77361">
        <ele>176</ele>
        <time>2018-06-26T09:45:55Z</time>
      </trkpt>
      <trkpt lat="46.0663" lon="4.77368">
        <ele>176</ele>
        <time>2018-06-26T09:45:56Z</time>
      </trkpt>
      <trkpt lat="46.06627" lon="4.77373">
        <ele>176</ele>
        <time>2018-06-26T09:45:57Z</time>
      </trkpt>
      <trkpt lat="46.06624" lon="4.77379">
        <ele>176</ele>
        <time>2018-06-26T09:45:58Z</time>
      </trkpt>
      <trkpt lat="46.06621" lon="4.77384">
        <ele>176</ele>
        <time>2018-06-26T09:45:59Z</time>
      </trkpt>
      <trkpt lat="46.06618" lon="4.7739">
        <ele>177</ele>
        <time>2018-06-26T09:46:00Z</time>
      </trkpt>
      <trkpt lat="46.06615" lon="4.77397">
        <ele>177</ele>
        <time>2018-06-26T09:46:01Z</time>
      </trkpt>
      <trkpt lat="46.06612" lon="4.77404">
        <ele>177</ele>
        <time>2018-06-26T09:46:02Z</time>
      </trkpt>
      <trkpt lat="46.06609" lon="4.77411">
        <ele>177</ele>
        <time>2018-06-26T09:46:03Z</time>
      </trkpt>
      <trkpt lat="46.06606" lon="4.77417">
        <ele>177</ele>
        <time>2018-06-26T09:46:04Z</time>
      </trkpt>
      <trkpt lat="46.06602" lon="4.77427">
        <ele>179</ele>
        <time>2018-06-26T09:46:05Z</time>
      </trkpt>
      <trkpt lat="46.06599" lon="4.77435">
        <ele>179</ele>
        <time>2018-06-26T09:46:06Z</time>
      </trkpt>
      <trkpt lat="46.06596" lon="4.7744">
        <ele>180</ele>
        <time>2018-06-26T09:46:07Z</time>
      </trkpt>
      <trkpt lat="46.06593" lon="4.77449">
        <ele>180</ele>
        <time>2018-06-26T09:46:08Z</time>
      </trkpt>
      <trkpt lat="46.06596" lon="4.7746">
        <ele>180</ele>
        <time>2018-06-26T09:46:10Z</time>
      </trkpt>
      <trkpt lat="46.06599" lon="4.77465">
        <ele>180</ele>
        <time>2018-06-26T09:46:11Z</time>
      </trkpt>
      <trkpt lat="46.06602" lon="4.77472">
        <ele>181</ele>
        <time>2018-06-26T09:46:12Z</time>
      </trkpt>
      <trkpt lat="46.06603" lon="4.77478">
        <ele>181</ele>
        <time>2018-06-26T09:46:13Z</time>
      </trkpt>
      <trkpt lat="46.06608" lon="4.77487">
        <ele>181</ele>
        <time>2018-06-26T09:46:15Z</time>
      </trkpt>
      <trkpt lat="46.0661" lon="4.77493">
        <ele>181</ele>
        <time>2018-06-26T09:46:16Z</time>
      </trkpt>
      <trkpt lat="46.06615" lon="4.77504">
        <ele>183</ele>
        <time>2018-06-26T09:46:18Z</time>
      </trkpt>
      <trkpt lat="46.06618" lon="4.77507">
        <ele>183</ele>
        <time>2018-06-26T09:46:19Z</time>
      </trkpt>
      <trkpt lat="46.06622" lon="4.77516">
        <ele>182</ele>
        <time>2018-06-26T09:46:21Z</time>
      </trkpt>
      <trkpt lat="46.06623" lon="4.77518">
        <ele>182</ele>
        <time>2018-06-26T09:46:22Z</time>
      </trkpt>
      <trkpt lat="46.06626" lon="4.77526">
        <ele>183</ele>
        <time>2018-06-26T09:46:24Z</time>
      </trkpt>
      <trkpt lat="46.06627" lon="4.7753">
        <ele>183</ele>
        <time>2018-06-26T09:46:25Z</time>
      </trkpt>
      <trkpt lat="46.0663" lon="4.77543">
        <ele>183</ele>
        <time>2018-06-26T09:46:28Z</time>
      </trkpt>
      <trkpt lat="46.06631" lon="4.77545">
        <ele>183</ele>
        <time>2018-06-26T09:46:29Z</time>
      </trkpt>
      <trkpt lat="46.06633" lon="4.77553">
        <ele>183</ele>
        <time>2018-06-26T09:46:31Z</time>
      </trkpt>
      <trkpt lat="46.06634" lon="4.77557">
        <ele>183</ele>
        <time>2018-06-26T09:46:32Z</time>
      </trkpt>
      <trkpt lat="46.06635" lon="4.77567">
        <ele>183</ele>
        <time>2018-06-26T09:46:34Z</time>
      </trkpt>
      <trkpt lat="46.06635" lon="4.77571">
        <ele>183</ele>
        <time>2018-06-26T09:46:35Z</time>
      </trkpt>
      <trkpt lat="46.06636" lon="4.7758">
        <ele>183</ele>
        <time>2018-06-26T09:46:37Z</time>
      </trkpt>
      <trkpt lat="46.06636" lon="4.77585">
        <ele>184</ele>
        <time>2018-06-26T09:46:38Z</time>
      </trkpt>
      <trkpt lat="46.06636" lon="4.77594">
        <ele>184</ele>
        <time>2018-06-26T09:46:40Z</time>
      </trkpt>
      <trkpt lat="46.06636" lon="4.77599">
        <ele>185</ele>
        <time>2018-06-26T09:46:41Z</time>
      </trkpt>
      <trkpt lat="46.06635" lon="4.77609">
        <ele>185</ele>
        <time>2018-06-26T09:46:43Z</time>
      </trkpt>
      <trkpt lat="46.06634" lon="4.77614">
        <ele>185</ele>
        <time>2018-06-26T09:46:44Z</time>
      </trkpt>
      <trkpt lat="46.06633" lon="4.77623">
        <ele>185</ele>
        <time>2018-06-26T09:46:46Z</time>
      </trkpt>
      <trkpt lat="46.06632" lon="4.77628">
        <ele>185</ele>
        <time>2018-06-26T09:46:47Z</time>
      </trkpt>
      <trkpt lat="46.06629" lon="4.77638">
        <ele>185</ele>
        <time>2018-06-26T09:46:49Z</time>
      </trkpt>
      <trkpt lat="46.06628" lon="4.77642">
        <ele>185</ele>
        <time>2018-06-26T09:46:50Z</time>
      </trkpt>
      <trkpt lat="46.06626" lon="4.7765">
        <ele>185</ele>
        <time>2018-06-26T09:46:52Z</time>
      </trkpt>
      <trkpt lat="46.06625" lon="4.77655">
        <ele>185</ele>
        <time>2018-06-26T09:46:53Z</time>
      </trkpt>
      <trkpt lat="46.06622" lon="4.77663">
        <ele>185</ele>
        <time>2018-06-26T09:46:55Z</time>
      </trkpt>
      <trkpt lat="46.0662" lon="4.77667">
        <ele>187</ele>
        <time>2018-06-26T09:46:56Z</time>
      </trkpt>
      <trkpt lat="46.06616" lon="4.77674">
        <ele>187</ele>
        <time>2018-06-26T09:46:58Z</time>
      </trkpt>
      <trkpt lat="46.06613" lon="4.77676">
        <ele>187</ele>
        <time>2018-06-26T09:46:59Z</time>
      </trkpt>
      <trkpt lat="46.06607" lon="4.77682">
        <ele>187</ele>
        <time>2018-06-26T09:47:02Z</time>
      </trkpt>
      <trkpt lat="46.06597" lon="4.77686">
        <ele>187</ele>
        <time>2018-06-26T09:47:03Z</time>
      </trkpt>
      <trkpt lat="46.06589" lon="4.77689">
        <ele>187</ele>
        <time>2018-06-26T09:47:05Z</time>
      </trkpt>
      <trkpt lat="46.06587" lon="4.7769">
        <ele>187</ele>
        <time>2018-06-26T09:47:06Z</time>
      </trkpt>
      <trkpt lat="46.06579" lon="4.77693">
        <ele>188</ele>
        <time>2018-06-26T09:47:09Z</time>
      </trkpt>
      <trkpt lat="46.06578" lon="4.77694">
        <ele>188</ele>
        <time>2018-06-26T09:47:10Z</time>
      </trkpt>
      <trkpt lat="46.0657" lon="4.777">
        <ele>188</ele>
        <time>2018-06-26T09:47:14Z</time>
      </trkpt>
      <trkpt lat="46.06561" lon="4.7771">
        <ele>189</ele>
        <time>2018-06-26T09:47:15Z</time>
      </trkpt>
      <trkpt lat="46.06555" lon="4.77715">
        <ele>189</ele>
        <time>2018-06-26T09:47:16Z</time>
      </trkpt>
      <trkpt lat="46.0655" lon="4.77719">
        <ele>189</ele>
        <time>2018-06-26T09:47:17Z</time>
      </trkpt>
      <trkpt lat="46.06547" lon="4.77725">
        <ele>189</ele>
        <time>2018-06-26T09:47:19Z</time>
      </trkpt>
      <trkpt lat="46.06541" lon="4.7773">
        <ele>190</ele>
        <time>2018-06-26T09:47:20Z</time>
      </trkpt>
      <trkpt lat="46.06537" lon="4.77739">
        <ele>190</ele>
        <time>2018-06-26T09:47:24Z</time>
      </trkpt>
      <trkpt lat="46.06531" lon="4.77751">
        <ele>191</ele>
        <time>2018-06-26T09:47:25Z</time>
      </trkpt>
      <trkpt lat="46.06528" lon="4.77758">
        <ele>192</ele>
        <time>2018-06-26T09:47:26Z</time>
      </trkpt>
      <trkpt lat="46.06526" lon="4.77764">
        <ele>192</ele>
        <time>2018-06-26T09:47:27Z</time>
      </trkpt>
      <trkpt lat="46.06521" lon="4.77772">
        <ele>192</ele>
        <time>2018-06-26T09:47:29Z</time>
      </trkpt>
      <trkpt lat="46.06519" lon="4.77774">
        <ele>192</ele>
        <time>2018-06-26T09:47:30Z</time>
      </trkpt>
      <trkpt lat="46.06518" lon="4.77776">
        <ele>192</ele>
        <time>2018-06-26T09:47:31Z</time>
      </trkpt>
      <trkpt lat="46.06513" lon="4.77783">
        <ele>192</ele>
        <time>2018-06-26T09:47:32Z</time>
      </trkpt>
      <trkpt lat="46.06508" lon="4.7779">
        <ele>192</ele>
        <time>2018-06-26T09:47:35Z</time>
      </trkpt>
      <trkpt lat="46.06503" lon="4.77799">
        <ele>192</ele>
        <time>2018-06-26T09:47:36Z</time>
      </trkpt>
      <trkpt lat="46.06501" lon="4.77803">
        <ele>192</ele>
        <time>2018-06-26T09:47:38Z</time>
      </trkpt>
      <trkpt lat="46.06498" lon="4.77812">
        <ele>192</ele>
        <time>2018-06-26T09:47:39Z</time>
      </trkpt>
      <trkpt lat="46.06495" lon="4.7782">
        <ele>192</ele>
        <time>2018-06-26T09:47:42Z</time>
      </trkpt>
      <trkpt lat="46.06494" lon="4.77823">
        <ele>192</ele>
        <time>2018-06-26T09:47:43Z</time>
      </trkpt>
      <trkpt lat="46.0649" lon="4.77835">
        <ele>192</ele>
        <time>2018-06-26T09:47:46Z</time>
      </trkpt>
      <trkpt lat="46.06489" lon="4.77839">
        <ele>192</ele>
        <time>2018-06-26T09:47:47Z</time>
      </trkpt>
      <trkpt lat="46.06488" lon="4.77843">
        <ele>192</ele>
        <time>2018-06-26T09:47:48Z</time>
      </trkpt>
      <trkpt lat="46.06484" lon="4.77855">
        <ele>192</ele>
        <time>2018-06-26T09:47:49Z</time>
      </trkpt>
      <trkpt lat="46.06481" lon="4.77863">
        <ele>192</ele>
        <time>2018-06-26T09:47:52Z</time>
      </trkpt>
      <trkpt lat="46.0648" lon="4.77867">
        <ele>193</ele>
        <time>2018-06-26T09:47:53Z</time>
      </trkpt>
      <trkpt lat="46.06478" lon="4.77875">
        <ele>193</ele>
        <time>2018-06-26T09:47:55Z</time>
      </trkpt>
      <trkpt lat="46.06474" lon="4.77887">
        <ele>193</ele>
        <time>2018-06-26T09:47:56Z</time>
      </trkpt>
      <trkpt lat="46.06469" lon="4.77897">
        <ele>193</ele>
        <time>2018-06-26T09:48:00Z</time>
      </trkpt>
      <trkpt lat="46.06468" lon="4.779">
        <ele>193</ele>
        <time>2018-06-26T09:48:01Z</time>
      </trkpt>
      <trkpt lat="46.06466" lon="4.77904">
        <ele>193</ele>
        <time>2018-06-26T09:48:02Z</time>
      </trkpt>
      <trkpt lat="46.06462" lon="4.77914">
        <ele>193</ele>
        <time>2018-06-26T09:48:03Z</time>
      </trkpt>
      <trkpt lat="46.06459" lon="4.77924">
        <ele>194</ele>
        <time>2018-06-26T09:48:07Z</time>
      </trkpt>
      <trkpt lat="46.06458" lon="4.77928">
        <ele>195</ele>
        <time>2018-06-26T09:48:08Z</time>
      </trkpt>
      <trkpt lat="46.06457" lon="4.77937">
        <ele>195</ele>
        <time>2018-06-26T09:48:10Z</time>
      </trkpt>
      <trkpt lat="46.06456" lon="4.77941">
        <ele>195</ele>
        <time>2018-06-26T09:48:11Z</time>
      </trkpt>
      <trkpt lat="46.06454" lon="4.7795">
        <ele>195</ele>
        <time>2018-06-26T09:48:13Z</time>
      </trkpt>
      <trkpt lat="46.06453" lon="4.77954">
        <ele>195</ele>
        <time>2018-06-26T09:48:14Z</time>
      </trkpt>
      <trkpt lat="46.0645" lon="4.77963">
        <ele>195</ele>
        <time>2018-06-26T09:48:16Z</time>
      </trkpt>
      <trkpt lat="46.06449" lon="4.77968">
        <ele>195</ele>
        <time>2018-06-26T09:48:17Z</time>
      </trkpt>
      <trkpt lat="46.06448" lon="4.77976">
        <ele>195</ele>
        <time>2018-06-26T09:48:19Z</time>
      </trkpt>
      <trkpt lat="46.06447" lon="4.77981">
        <ele>195</ele>
        <time>2018-06-26T09:48:20Z</time>
      </trkpt>
      <trkpt lat="46.06446" lon="4.7799">
        <ele>195</ele>
        <time>2018-06-26T09:48:22Z</time>
      </trkpt>
      <trkpt lat="46.06446" lon="4.77994">
        <ele>195</ele>
        <time>2018-06-26T09:48:23Z</time>
      </trkpt>
      <trkpt lat="46.06444" lon="4.78003">
        <ele>197</ele>
        <time>2018-06-26T09:48:25Z</time>
      </trkpt>
      <trkpt lat="46.06443" lon="4.78007">
        <ele>197</ele>
        <time>2018-06-26T09:48:26Z</time>
      </trkpt>
      <trkpt lat="46.06441" lon="4.78011">
        <ele>197</ele>
        <time>2018-06-26T09:48:27Z</time>
      </trkpt>
      <trkpt lat="46.06437" lon="4.78022">
        <ele>198</ele>
        <time>2018-06-26T09:48:28Z</time>
      </trkpt>
      <trkpt lat="46.06432" lon="4.78032">
        <ele>198</ele>
        <time>2018-06-26T09:48:31Z</time>
      </trkpt>
      <trkpt lat="46.0643" lon="4.78034">
        <ele>198</ele>
        <time>2018-06-26T09:48:32Z</time>
      </trkpt>
      <trkpt lat="46.06424" lon="4.78042">
        <ele>198</ele>
        <time>2018-06-26T09:48:35Z</time>
      </trkpt>
      <trkpt lat="46.06422" lon="4.78045">
        <ele>198</ele>
        <time>2018-06-26T09:48:36Z</time>
      </trkpt>
      <trkpt lat="46.06417" lon="4.7805">
        <ele>198</ele>
        <time>2018-06-26T09:48:38Z</time>
      </trkpt>
      <trkpt lat="46.06415" lon="4.78053">
        <ele>198</ele>
        <time>2018-06-26T09:48:39Z</time>
      </trkpt>
      <trkpt lat="46.06409" lon="4.78062">
        <ele>198</ele>
        <time>2018-06-26T09:48:40Z</time>
      </trkpt>
      <trkpt lat="46.06406" lon="4.78066">
        <ele>198</ele>
        <time>2018-06-26T09:48:41Z</time>
      </trkpt>
      <trkpt lat="46.06402" lon="4.78076">
        <ele>198</ele>
        <time>2018-06-26T09:48:43Z</time>
      </trkpt>
      <trkpt lat="46.064" lon="4.78079">
        <ele>198</ele>
        <time>2018-06-26T09:48:44Z</time>
      </trkpt>
      <trkpt lat="46.06397" lon="4.78085">
        <ele>200</ele>
        <time>2018-06-26T09:48:46Z</time>
      </trkpt>
      <trkpt lat="46.06393" lon="4.78092">
        <ele>200</ele>
        <time>2018-06-26T09:48:47Z</time>
      </trkpt>
      <trkpt lat="46.06392" lon="4.78098">
        <ele>200</ele>
        <time>2018-06-26T09:48:48Z</time>
      </trkpt>
      <trkpt lat="46.06389" lon="4.78106">
        <ele>200</ele>
        <time>2018-06-26T09:48:49Z</time>
      </trkpt>
      <trkpt lat="46.06388" lon="4.78118">
        <ele>200</ele>
        <time>2018-06-26T09:48:51Z</time>
      </trkpt>
      <trkpt lat="46.06388" lon="4.78123">
        <ele>201</ele>
        <time>2018-06-26T09:48:52Z</time>
      </trkpt>
      <trkpt lat="46.06388" lon="4.78129">
        <ele>201</ele>
        <time>2018-06-26T09:48:53Z</time>
      </trkpt>
      <trkpt lat="46.06388" lon="4.78136">
        <ele>201</ele>
        <time>2018-06-26T09:48:54Z</time>
      </trkpt>
      <trkpt lat="46.06388" lon="4.78148">
        <ele>201</ele>
        <time>2018-06-26T09:48:56Z</time>
      </trkpt>
      <trkpt lat="46.06388" lon="4.78153">
        <ele>201</ele>
        <time>2018-06-26T09:48:57Z</time>
      </trkpt>
      <trkpt lat="46.06388" lon="4.78161">
        <ele>201</ele>
        <time>2018-06-26T09:48:59Z</time>
      </trkpt>
      <trkpt lat="46.06388" lon="4.78168">
        <ele>204</ele>
        <time>2018-06-26T09:49:00Z</time>
      </trkpt>
      <trkpt lat="46.06388" lon="4.78179">
        <ele>204</ele>
        <time>2018-06-26T09:49:03Z</time>
      </trkpt>
      <trkpt lat="46.06388" lon="4.78184">
        <ele>204</ele>
        <time>2018-06-26T09:49:04Z</time>
      </trkpt>
      <trkpt lat="46.06387" lon="4.78188">
        <ele>204</ele>
        <time>2018-06-26T09:49:05Z</time>
      </trkpt>
      <trkpt lat="46.06386" lon="4.782">
        <ele>204</ele>
        <time>2018-06-26T09:49:06Z</time>
      </trkpt>
      <trkpt lat="46.06383" lon="4.78211">
        <ele>204</ele>
        <time>2018-06-26T09:49:08Z</time>
      </trkpt>
      <trkpt lat="46.06382" lon="4.78214">
        <ele>204</ele>
        <time>2018-06-26T09:49:09Z</time>
      </trkpt>
      <trkpt lat="46.06377" lon="4.7822">
        <ele>204</ele>
        <time>2018-06-26T09:49:12Z</time>
      </trkpt>
      <trkpt lat="46.06375" lon="4.78222">
        <ele>205</ele>
        <time>2018-06-26T09:49:13Z</time>
      </trkpt>
      <trkpt lat="46.06369" lon="4.78227">
        <ele>205</ele>
        <time>2018-06-26T09:49:15Z</time>
      </trkpt>
      <trkpt lat="46.06367" lon="4.7823">
        <ele>205</ele>
        <time>2018-06-26T09:49:16Z</time>
      </trkpt>
      <trkpt lat="46.06361" lon="4.78236">
        <ele>205</ele>
        <time>2018-06-26T09:49:18Z</time>
      </trkpt>
      <trkpt lat="46.06354" lon="4.78244">
        <ele>205</ele>
        <time>2018-06-26T09:49:19Z</time>
      </trkpt>
      <trkpt lat="46.0635" lon="4.78246">
        <ele>205</ele>
        <time>2018-06-26T09:49:21Z</time>
      </trkpt>
      <trkpt lat="46.06343" lon="4.78247">
        <ele>205</ele>
        <time>2018-06-26T09:49:22Z</time>
      </trkpt>
      <trkpt lat="46.06339" lon="4.78246">
        <ele>206</ele>
        <time>2018-06-26T09:49:23Z</time>
      </trkpt>
      <trkpt lat="46.0633" lon="4.7824">
        <ele>206</ele>
        <time>2018-06-26T09:49:24Z</time>
      </trkpt>
      <trkpt lat="46.06325" lon="4.78235">
        <ele>206</ele>
        <time>2018-06-26T09:49:25Z</time>
      </trkpt>
      <trkpt lat="46.06321" lon="4.78233">
        <ele>206</ele>
        <time>2018-06-26T09:49:26Z</time>
      </trkpt>
      <trkpt lat="46.06313" lon="4.7823">
        <ele>205</ele>
        <time>2018-06-26T09:49:28Z</time>
      </trkpt>
      <trkpt lat="46.06309" lon="4.78227">
        <ele>205</ele>
        <time>2018-06-26T09:49:29Z</time>
      </trkpt>
      <trkpt lat="46.06305" lon="4.78225">
        <ele>205</ele>
        <time>2018-06-26T09:49:30Z</time>
      </trkpt>
      <trkpt lat="46.063" lon="4.78222">
        <ele>205</ele>
        <time>2018-06-26T09:49:31Z</time>
      </trkpt>
      <trkpt lat="46.06294" lon="4.78216">
        <ele>205</ele>
        <time>2018-06-26T09:49:33Z</time>
      </trkpt>
      <trkpt lat="46.06289" lon="4.78212">
        <ele>205</ele>
        <time>2018-06-26T09:49:34Z</time>
      </trkpt>
      <trkpt lat="46.06282" lon="4.78207">
        <ele>205</ele>
        <time>2018-06-26T09:49:36Z</time>
      </trkpt>
      <trkpt lat="46.06278" lon="4.78204">
        <ele>205</ele>
        <time>2018-06-26T09:49:37Z</time>
      </trkpt>
      <trkpt lat="46.06272" lon="4.78199">
        <ele>205</ele>
        <time>2018-06-26T09:49:39Z</time>
      </trkpt>
      <trkpt lat="46.06269" lon="4.78197">
        <ele>205</ele>
        <time>2018-06-26T09:49:40Z</time>
      </trkpt>
      <trkpt lat="46.06262" lon="4.78192">
        <ele>205</ele>
        <time>2018-06-26T09:49:42Z</time>
      </trkpt>
      <trkpt lat="46.06258" lon="4.78188">
        <ele>205</ele>
        <time>2018-06-26T09:49:43Z</time>
      </trkpt>
      <trkpt lat="46.06254" lon="4.78186">
        <ele>205</ele>
        <time>2018-06-26T09:49:44Z</time>
      </trkpt>
      <trkpt lat="46.0625" lon="4.78184">
        <ele>206</ele>
        <time>2018-06-26T09:49:45Z</time>
      </trkpt>
      <trkpt lat="46.06245" lon="4.78177">
        <ele>206</ele>
        <time>2018-06-26T09:49:47Z</time>
      </trkpt>
      <trkpt lat="46.06241" lon="4.78176">
        <ele>206</ele>
        <time>2018-06-26T09:49:48Z</time>
      </trkpt>
      <trkpt lat="46.06234" lon="4.78169">
        <ele>206</ele>
        <time>2018-06-26T09:49:50Z</time>
      </trkpt>
      <trkpt lat="46.0623" lon="4.78167">
        <ele>205</ele>
        <time>2018-06-26T09:49:51Z</time>
      </trkpt>
      <trkpt lat="46.06224" lon="4.7816">
        <ele>205</ele>
        <time>2018-06-26T09:49:53Z</time>
      </trkpt>
      <trkpt lat="46.06219" lon="4.78158">
        <ele>205</ele>
        <time>2018-06-26T09:49:54Z</time>
      </trkpt>
      <trkpt lat="46.06212" lon="4.78155">
        <ele>205</ele>
        <time>2018-06-26T09:49:56Z</time>
      </trkpt>
      <trkpt lat="46.06208" lon="4.78153">
        <ele>205</ele>
        <time>2018-06-26T09:49:57Z</time>
      </trkpt>
      <trkpt lat="46.06201" lon="4.78148">
        <ele>205</ele>
        <time>2018-06-26T09:50:00Z</time>
      </trkpt>
      <trkpt lat="46.06197" lon="4.78147">
        <ele>205</ele>
        <time>2018-06-26T09:50:01Z</time>
      </trkpt>
      <trkpt lat="46.06192" lon="4.78144">
        <ele>205</ele>
        <time>2018-06-26T09:50:03Z</time>
      </trkpt>
      <trkpt lat="46.06183" lon="4.78138">
        <ele>206</ele>
        <time>2018-06-26T09:50:04Z</time>
      </trkpt>
      <trkpt lat="46.06176" lon="4.78133">
        <ele>206</ele>
        <time>2018-06-26T09:50:07Z</time>
      </trkpt>
      <trkpt lat="46.06171" lon="4.78129">
        <ele>206</ele>
        <time>2018-06-26T09:50:08Z</time>
      </trkpt>
      <trkpt lat="46.06164" lon="4.78125">
        <ele>208</ele>
        <time>2018-06-26T09:50:10Z</time>
      </trkpt>
      <trkpt lat="46.06161" lon="4.78122">
        <ele>208</ele>
        <time>2018-06-26T09:50:11Z</time>
      </trkpt>
      <trkpt lat="46.06153" lon="4.78116">
        <ele>208</ele>
        <time>2018-06-26T09:50:14Z</time>
      </trkpt>
      <trkpt lat="46.06149" lon="4.78113">
        <ele>208</ele>
        <time>2018-06-26T09:50:15Z</time>
      </trkpt>
      <trkpt lat="46.06143" lon="4.78108">
        <ele>208</ele>
        <time>2018-06-26T09:50:18Z</time>
      </trkpt>
      <trkpt lat="46.06137" lon="4.78103">
        <ele>208</ele>
        <time>2018-06-26T09:50:19Z</time>
      </trkpt>
      <trkpt lat="46.06131" lon="4.78094">
        <ele>209</ele>
        <time>2018-06-26T09:50:23Z</time>
      </trkpt>
      <trkpt lat="46.06129" lon="4.78092">
        <ele>209</ele>
        <time>2018-06-26T09:50:24Z</time>
      </trkpt>
      <trkpt lat="46.06125" lon="4.78085">
        <ele>209</ele>
        <time>2018-06-26T09:50:26Z</time>
      </trkpt>
      <trkpt lat="46.06123" lon="4.78082">
        <ele>209</ele>
        <time>2018-06-26T09:50:27Z</time>
      </trkpt>
      <trkpt lat="46.06118" lon="4.78077">
        <ele>210</ele>
        <time>2018-06-26T09:50:29Z</time>
      </trkpt>
      <trkpt lat="46.06116" lon="4.78074">
        <ele>210</ele>
        <time>2018-06-26T09:50:30Z</time>
      </trkpt>
      <trkpt lat="46.06109" lon="4.78065">
        <ele>210</ele>
        <time>2018-06-26T09:50:31Z</time>
      </trkpt>
      <trkpt lat="46.06103" lon="4.78059">
        <ele>210</ele>
        <time>2018-06-26T09:50:33Z</time>
      </trkpt>
      <trkpt lat="46.06099" lon="4.78056">
        <ele>210</ele>
        <time>2018-06-26T09:50:34Z</time>
      </trkpt>
      <trkpt lat="46.06093" lon="4.78056">
        <ele>210</ele>
        <time>2018-06-26T09:50:35Z</time>
      </trkpt>
      <trkpt lat="46.0609" lon="4.78052">
        <ele>210</ele>
        <time>2018-06-26T09:50:36Z</time>
      </trkpt>
      <trkpt lat="46.06083" lon="4.78045">
        <ele>211</ele>
        <time>2018-06-26T09:50:38Z</time>
      </trkpt>
      <trkpt lat="46.06079" lon="4.78043">
        <ele>211</ele>
        <time>2018-06-26T09:50:39Z</time>
      </trkpt>
      <trkpt lat="46.06076" lon="4.7804">
        <ele>211</ele>
        <time>2018-06-26T09:50:40Z</time>
      </trkpt>
      <trkpt lat="46.06071" lon="4.78036">
        <ele>211</ele>
        <time>2018-06-26T09:50:41Z</time>
      </trkpt>
      <trkpt lat="46.06067" lon="4.78032">
        <ele>211</ele>
        <time>2018-06-26T09:50:42Z</time>
      </trkpt>
      <trkpt lat="46.06062" lon="4.78027">
        <ele>211</ele>
        <time>2018-06-26T09:50:43Z</time>
      </trkpt>
      <trkpt lat="46.06055" lon="4.78019">
        <ele>211</ele>
        <time>2018-06-26T09:50:45Z</time>
      </trkpt>
      <trkpt lat="46.06051" lon="4.78013">
        <ele>211</ele>
        <time>2018-06-26T09:50:46Z</time>
      </trkpt>
      <trkpt lat="46.06045" lon="4.78004">
        <ele>211</ele>
        <time>2018-06-26T09:50:48Z</time>
      </trkpt>
      <trkpt lat="46.06041" lon="4.78">
        <ele>211</ele>
        <time>2018-06-26T09:50:49Z</time>
      </trkpt>
      <trkpt lat="46.06035" lon="4.77991">
        <ele>211</ele>
        <time>2018-06-26T09:50:51Z</time>
      </trkpt>
      <trkpt lat="46.06031" lon="4.77987">
        <ele>211</ele>
        <time>2018-06-26T09:50:52Z</time>
      </trkpt>
      <trkpt lat="46.06028" lon="4.77982">
        <ele>211</ele>
        <time>2018-06-26T09:50:53Z</time>
      </trkpt>
      <trkpt lat="46.06025" lon="4.77978">
        <ele>211</ele>
        <time>2018-06-26T09:50:54Z</time>
      </trkpt>
      <trkpt lat="46.06021" lon="4.77975">
        <ele>211</ele>
        <time>2018-06-26T09:50:55Z</time>
      </trkpt>
      <trkpt lat="46.06017" lon="4.77971">
        <ele>211</ele>
        <time>2018-06-26T09:50:56Z</time>
      </trkpt>
      <trkpt lat="46.0601" lon="4.77963">
        <ele>211</ele>
        <time>2018-06-26T09:50:58Z</time>
      </trkpt>
      <trkpt lat="46.06007" lon="4.77959">
        <ele>211</ele>
        <time>2018-06-26T09:50:59Z</time>
      </trkpt>
      <trkpt lat="46.06003" lon="4.77951">
        <ele>211</ele>
        <time>2018-06-26T09:51:01Z</time>
      </trkpt>
      <trkpt lat="46.06" lon="4.77947">
        <ele>211</ele>
        <time>2018-06-26T09:51:02Z</time>
      </trkpt>
      <trkpt lat="46.05997" lon="4.77939">
        <ele>212</ele>
        <time>2018-06-26T09:51:04Z</time>
      </trkpt>
      <trkpt lat="46.05995" lon="4.77932">
        <ele>212</ele>
        <time>2018-06-26T09:51:05Z</time>
      </trkpt>
      <trkpt lat="46.05991" lon="4.77921">
        <ele>211</ele>
        <time>2018-06-26T09:51:07Z</time>
      </trkpt>
      <trkpt lat="46.0599" lon="4.77919">
        <ele>211</ele>
        <time>2018-06-26T09:51:08Z</time>
      </trkpt>
      <trkpt lat="46.05987" lon="4.77913">
        <ele>211</ele>
        <time>2018-06-26T09:51:09Z</time>
      </trkpt>
      <trkpt lat="46.05985" lon="4.77908">
        <ele>211</ele>
        <time>2018-06-26T09:51:10Z</time>
      </trkpt>
      <trkpt lat="46.05979" lon="4.77899">
        <ele>211</ele>
        <time>2018-06-26T09:51:12Z</time>
      </trkpt>
      <trkpt lat="46.05977" lon="4.77895">
        <ele>211</ele>
        <time>2018-06-26T09:51:13Z</time>
      </trkpt>
      <trkpt lat="46.05973" lon="4.77884">
        <ele>211</ele>
        <time>2018-06-26T09:51:15Z</time>
      </trkpt>
      <trkpt lat="46.05969" lon="4.77879">
        <ele>211</ele>
        <time>2018-06-26T09:51:16Z</time>
      </trkpt>
      <trkpt lat="46.05966" lon="4.77873">
        <ele>211</ele>
        <time>2018-06-26T09:51:17Z</time>
      </trkpt>
      <trkpt lat="46.05963" lon="4.77867">
        <ele>211</ele>
        <time>2018-06-26T09:51:18Z</time>
      </trkpt>
      <trkpt lat="46.05961" lon="4.77861">
        <ele>211</ele>
        <time>2018-06-26T09:51:19Z</time>
      </trkpt>
      <trkpt lat="46.05957" lon="4.77855">
        <ele>211</ele>
        <time>2018-06-26T09:51:20Z</time>
      </trkpt>
      <trkpt lat="46.05953" lon="4.77845">
        <ele>211</ele>
        <time>2018-06-26T09:51:22Z</time>
      </trkpt>
      <trkpt lat="46.0595" lon="4.77841">
        <ele>211</ele>
        <time>2018-06-26T09:51:23Z</time>
      </trkpt>
      <trkpt lat="46.05947" lon="4.77836">
        <ele>211</ele>
        <time>2018-06-26T09:51:24Z</time>
      </trkpt>
      <trkpt lat="46.05944" lon="4.77831">
        <ele>210</ele>
        <time>2018-06-26T09:51:25Z</time>
      </trkpt>
      <trkpt lat="46.05938" lon="4.77827">
        <ele>210</ele>
        <time>2018-06-26T09:51:27Z</time>
      </trkpt>
      <trkpt lat="46.05936" lon="4.77823">
        <ele>210</ele>
        <time>2018-06-26T09:51:28Z</time>
      </trkpt>
      <trkpt lat="46.05933" lon="4.77819">
        <ele>210</ele>
        <time>2018-06-26T09:51:29Z</time>
      </trkpt>
      <trkpt lat="46.05929" lon="4.77812">
        <ele>210</ele>
        <time>2018-06-26T09:51:30Z</time>
      </trkpt>
      <trkpt lat="46.05926" lon="4.77806">
        <ele>210</ele>
        <time>2018-06-26T09:51:31Z</time>
      </trkpt>
      <trkpt lat="46.05923" lon="4.77801">
        <ele>210</ele>
        <time>2018-06-26T09:51:32Z</time>
      </trkpt>
      <trkpt lat="46.0592" lon="4.7779">
        <ele>210</ele>
        <time>2018-06-26T09:51:34Z</time>
      </trkpt>
      <trkpt lat="46.05918" lon="4.77785">
        <ele>209</ele>
        <time>2018-06-26T09:51:35Z</time>
      </trkpt>
      <trkpt lat="46.05914" lon="4.77779">
        <ele>210</ele>
        <time>2018-06-26T09:51:36Z</time>
      </trkpt>
      <trkpt lat="46.05912" lon="4.77773">
        <ele>210</ele>
        <time>2018-06-26T09:51:37Z</time>
      </trkpt>
      <trkpt lat="46.05908" lon="4.77767">
        <ele>209</ele>
        <time>2018-06-26T09:51:38Z</time>
      </trkpt>
      <trkpt lat="46.05906" lon="4.77759">
        <ele>209</ele>
        <time>2018-06-26T09:51:39Z</time>
      </trkpt>
      <trkpt lat="46.05903" lon="4.77751">
        <ele>209</ele>
        <time>2018-06-26T09:51:40Z</time>
      </trkpt>
      <trkpt lat="46.059" lon="4.77741">
        <ele>209</ele>
        <time>2018-06-26T09:51:41Z</time>
      </trkpt>
      <trkpt lat="46.05898" lon="4.77732">
        <ele>209</ele>
        <time>2018-06-26T09:51:42Z</time>
      </trkpt>
      <trkpt lat="46.05893" lon="4.7772">
        <ele>209</ele>
        <time>2018-06-26T09:51:43Z</time>
      </trkpt>
      <trkpt lat="46.05891" lon="4.77712">
        <ele>208</ele>
        <time>2018-06-26T09:51:44Z</time>
      </trkpt>
      <trkpt lat="46.0589" lon="4.77702">
        <ele>208</ele>
        <time>2018-06-26T09:51:45Z</time>
      </trkpt>
      <trkpt lat="46.05891" lon="4.77694">
        <ele>208</ele>
        <time>2018-06-26T09:51:46Z</time>
      </trkpt>
      <trkpt lat="46.05889" lon="4.77685">
        <ele>208</ele>
        <time>2018-06-26T09:51:47Z</time>
      </trkpt>
      <trkpt lat="46.05886" lon="4.77677">
        <ele>208</ele>
        <time>2018-06-26T09:51:48Z</time>
      </trkpt>
      <trkpt lat="46.05883" lon="4.7767">
        <ele>208</ele>
        <time>2018-06-26T09:51:49Z</time>
      </trkpt>
      <trkpt lat="46.05881" lon="4.77663">
        <ele>208</ele>
        <time>2018-06-26T09:51:50Z</time>
      </trkpt>
      <trkpt lat="46.05877" lon="4.77656">
        <ele>208</ele>
        <time>2018-06-26T09:51:51Z</time>
      </trkpt>
      <trkpt lat="46.05872" lon="4.7765">
        <ele>208</ele>
        <time>2018-06-26T09:51:52Z</time>
      </trkpt>
      <trkpt lat="46.05867" lon="4.77645">
        <ele>208</ele>
        <time>2018-06-26T09:51:53Z</time>
      </trkpt>
      <trkpt lat="46.05864" lon="4.7764">
        <ele>208</ele>
        <time>2018-06-26T09:51:54Z</time>
      </trkpt>
      <trkpt lat="46.05859" lon="4.77635">
        <ele>208</ele>
        <time>2018-06-26T09:51:55Z</time>
      </trkpt>
      <trkpt lat="46.05855" lon="4.77631">
        <ele>208</ele>
        <time>2018-06-26T09:51:56Z</time>
      </trkpt>
      <trkpt lat="46.0585" lon="4.77625">
        <ele>208</ele>
        <time>2018-06-26T09:51:57Z</time>
      </trkpt>
      <trkpt lat="46.05845" lon="4.7762">
        <ele>208</ele>
        <time>2018-06-26T09:51:58Z</time>
      </trkpt>
      <trkpt lat="46.05839" lon="4.77615">
        <ele>208</ele>
        <time>2018-06-26T09:51:59Z</time>
      </trkpt>
      <trkpt lat="46.05835" lon="4.7761">
        <ele>208</ele>
        <time>2018-06-26T09:52:00Z</time>
      </trkpt>
      <trkpt lat="46.05831" lon="4.77605">
        <ele>208</ele>
        <time>2018-06-26T09:52:01Z</time>
      </trkpt>
      <trkpt lat="46.05826" lon="4.77599">
        <ele>208</ele>
        <time>2018-06-26T09:52:02Z</time>
      </trkpt>
      <trkpt lat="46.05822" lon="4.77594">
        <ele>208</ele>
        <time>2018-06-26T09:52:03Z</time>
      </trkpt>
      <trkpt lat="46.05818" lon="4.77588">
        <ele>208</ele>
        <time>2018-06-26T09:52:04Z</time>
      </trkpt>
      <trkpt lat="46.05814" lon="4.77582">
        <ele>208</ele>
        <time>2018-06-26T09:52:05Z</time>
      </trkpt>
      <trkpt lat="46.0581" lon="4.77576">
        <ele>208</ele>
        <time>2018-06-26T09:52:06Z</time>
      </trkpt>
      <trkpt lat="46.05805" lon="4.7757">
        <ele>208</ele>
        <time>2018-06-26T09:52:07Z</time>
      </trkpt>
      <trkpt lat="46.058" lon="4.77565">
        <ele>208</ele>
        <time>2018-06-26T09:52:08Z</time>
      </trkpt>
      <trkpt lat="46.05795" lon="4.7756">
        <ele>208</ele>
        <time>2018-06-26T09:52:09Z</time>
      </trkpt>
      <trkpt lat="46.0579" lon="4.77555">
        <ele>208</ele>
        <time>2018-06-26T09:52:10Z</time>
      </trkpt>
      <trkpt lat="46.05787" lon="4.77549">
        <ele>208</ele>
        <time>2018-06-26T09:52:11Z</time>
      </trkpt>
      <trkpt lat="46.05782" lon="4.77545">
        <ele>208</ele>
        <time>2018-06-26T09:52:12Z</time>
      </trkpt>
      <trkpt lat="46.05779" lon="4.77541">
        <ele>208</ele>
        <time>2018-06-26T09:52:13Z</time>
      </trkpt>
      <trkpt lat="46.05776" lon="4.77536">
        <ele>208</ele>
        <time>2018-06-26T09:52:14Z</time>
      </trkpt>
      <trkpt lat="46.05772" lon="4.77531">
        <ele>208</ele>
        <time>2018-06-26T09:52:15Z</time>
      </trkpt>
      <trkpt lat="46.0577" lon="4.77526">
        <ele>208</ele>
        <time>2018-06-26T09:52:16Z</time>
      </trkpt>
      <trkpt lat="46.05766" lon="4.77521">
        <ele>208</ele>
        <time>2018-06-26T09:52:17Z</time>
      </trkpt>
      <trkpt lat="46.05761" lon="4.77511">
        <ele>208</ele>
        <time>2018-06-26T09:52:19Z</time>
      </trkpt>
      <trkpt lat="46.05757" lon="4.77505">
        <ele>208</ele>
        <time>2018-06-26T09:52:20Z</time>
      </trkpt>
      <trkpt lat="46.05753" lon="4.775">
        <ele>208</ele>
        <time>2018-06-26T09:52:21Z</time>
      </trkpt>
      <trkpt lat="46.05749" lon="4.77494">
        <ele>208</ele>
        <time>2018-06-26T09:52:22Z</time>
      </trkpt>
      <trkpt lat="46.05744" lon="4.77488">
        <ele>208</ele>
        <time>2018-06-26T09:52:23Z</time>
      </trkpt>
      <trkpt lat="46.05739" lon="4.77483">
        <ele>207</ele>
        <time>2018-06-26T09:52:24Z</time>
      </trkpt>
      <trkpt lat="46.05735" lon="4.77478">
        <ele>207</ele>
        <time>2018-06-26T09:52:25Z</time>
      </trkpt>
      <trkpt lat="46.0573" lon="4.77473">
        <ele>207</ele>
        <time>2018-06-26T09:52:26Z</time>
      </trkpt>
      <trkpt lat="46.05725" lon="4.77467">
        <ele>207</ele>
        <time>2018-06-26T09:52:27Z</time>
      </trkpt>
      <trkpt lat="46.0572" lon="4.77462">
        <ele>207</ele>
        <time>2018-06-26T09:52:28Z</time>
      </trkpt>
      <trkpt lat="46.05714" lon="4.77458">
        <ele>207</ele>
        <time>2018-06-26T09:52:29Z</time>
      </trkpt>
      <trkpt lat="46.05709" lon="4.77454">
        <ele>207</ele>
        <time>2018-06-26T09:52:30Z</time>
      </trkpt>
      <trkpt lat="46.05702" lon="4.7745">
        <ele>207</ele>
        <time>2018-06-26T09:52:31Z</time>
      </trkpt>
      <trkpt lat="46.05698" lon="4.77446">
        <ele>207</ele>
        <time>2018-06-26T09:52:32Z</time>
      </trkpt>
      <trkpt lat="46.05692" lon="4.77441">
        <ele>206</ele>
        <time>2018-06-26T09:52:33Z</time>
      </trkpt>
      <trkpt lat="46.05688" lon="4.77435">
        <ele>206</ele>
        <time>2018-06-26T09:52:34Z</time>
      </trkpt>
      <trkpt lat="46.05681" lon="4.77429">
        <ele>206</ele>
        <time>2018-06-26T09:52:35Z</time>
      </trkpt>
      <trkpt lat="46.05676" lon="4.77423">
        <ele>206</ele>
        <time>2018-06-26T09:52:36Z</time>
      </trkpt>
      <trkpt lat="46.05671" lon="4.77417">
        <ele>205</ele>
        <time>2018-06-26T09:52:37Z</time>
      </trkpt>
      <trkpt lat="46.05666" lon="4.77411">
        <ele>205</ele>
        <time>2018-06-26T09:52:38Z</time>
      </trkpt>
      <trkpt lat="46.05659" lon="4.77406">
        <ele>204</ele>
        <time>2018-06-26T09:52:39Z</time>
      </trkpt>
      <trkpt lat="46.05652" lon="4.77399">
        <ele>204</ele>
        <time>2018-06-26T09:52:40Z</time>
      </trkpt>
      <trkpt lat="46.05646" lon="4.77393">
        <ele>203</ele>
        <time>2018-06-26T09:52:41Z</time>
      </trkpt>
      <trkpt lat="46.05639" lon="4.77387">
        <ele>203</ele>
        <time>2018-06-26T09:52:42Z</time>
      </trkpt>
      <trkpt lat="46.05633" lon="4.77382">
        <ele>203</ele>
        <time>2018-06-26T09:52:43Z</time>
      </trkpt>
      <trkpt lat="46.05625" lon="4.77377">
        <ele>203</ele>
        <time>2018-06-26T09:52:44Z</time>
      </trkpt>
      <trkpt lat="46.05618" lon="4.77371">
        <ele>203</ele>
        <time>2018-06-26T09:52:45Z</time>
      </trkpt>
      <trkpt lat="46.05611" lon="4.77366">
        <ele>202</ele>
        <time>2018-06-26T09:52:46Z</time>
      </trkpt>
      <trkpt lat="46.05604" lon="4.77361">
        <ele>202</ele>
        <time>2018-06-26T09:52:47Z</time>
      </trkpt>
      <trkpt lat="46.05595" lon="4.77356">
        <ele>202</ele>
        <time>2018-06-26T09:52:48Z</time>
      </trkpt>
      <trkpt lat="46.05588" lon="4.77351">
        <ele>201</ele>
        <time>2018-06-26T09:52:49Z</time>
      </trkpt>
      <trkpt lat="46.05579" lon="4.77346">
        <ele>201</ele>
        <time>2018-06-26T09:52:50Z</time>
      </trkpt>
      <trkpt lat="46.05572" lon="4.7734">
        <ele>201</ele>
        <time>2018-06-26T09:52:51Z</time>
      </trkpt>
      <trkpt lat="46.05564" lon="4.77335">
        <ele>201</ele>
        <time>2018-06-26T09:52:52Z</time>
      </trkpt>
      <trkpt lat="46.05556" lon="4.7733">
        <ele>200</ele>
        <time>2018-06-26T09:52:53Z</time>
      </trkpt>
      <trkpt lat="46.05548" lon="4.77328">
        <ele>200</ele>
        <time>2018-06-26T09:52:54Z</time>
      </trkpt>
      <trkpt lat="46.0554" lon="4.77324">
        <ele>200</ele>
        <time>2018-06-26T09:52:55Z</time>
      </trkpt>
      <trkpt lat="46.05533" lon="4.77319">
        <ele>200</ele>
        <time>2018-06-26T09:52:56Z</time>
      </trkpt>
      <trkpt lat="46.05526" lon="4.77314">
        <ele>200</ele>
        <time>2018-06-26T09:52:57Z</time>
      </trkpt>
      <trkpt lat="46.05518" lon="4.77309">
        <ele>200</ele>
        <time>2018-06-26T09:52:58Z</time>
      </trkpt>
      <trkpt lat="46.0551" lon="4.77306">
        <ele>200</ele>
        <time>2018-06-26T09:52:59Z</time>
      </trkpt>
      <trkpt lat="46.05503" lon="4.77303">
        <ele>200</ele>
        <time>2018-06-26T09:53:00Z</time>
      </trkpt>
      <trkpt lat="46.05496" lon="4.77298">
        <ele>201</ele>
        <time>2018-06-26T09:53:01Z</time>
      </trkpt>
      <trkpt lat="46.05489" lon="4.77294">
        <ele>201</ele>
        <time>2018-06-26T09:53:02Z</time>
      </trkpt>
      <trkpt lat="46.05483" lon="4.77289">
        <ele>201</ele>
        <time>2018-06-26T09:53:03Z</time>
      </trkpt>
      <trkpt lat="46.05476" lon="4.77287">
        <ele>201</ele>
        <time>2018-06-26T09:53:04Z</time>
      </trkpt>
      <trkpt lat="46.0547" lon="4.77283">
        <ele>201</ele>
        <time>2018-06-26T09:53:05Z</time>
      </trkpt>
      <trkpt lat="46.05463" lon="4.77281">
        <ele>201</ele>
        <time>2018-06-26T09:53:06Z</time>
      </trkpt>
      <trkpt lat="46.05458" lon="4.77278">
        <ele>201</ele>
        <time>2018-06-26T09:53:07Z</time>
      </trkpt>
      <trkpt lat="46.05451" lon="4.77277">
        <ele>201</ele>
        <time>2018-06-26T09:53:08Z</time>
      </trkpt>
      <trkpt lat="46.05447" lon="4.77275">
        <ele>201</ele>
        <time>2018-06-26T09:53:09Z</time>
      </trkpt>
      <trkpt lat="46.05442" lon="4.77272">
        <ele>201</ele>
        <time>2018-06-26T09:53:10Z</time>
      </trkpt>
      <trkpt lat="46.05436" lon="4.7727">
        <ele>201</ele>
        <time>2018-06-26T09:53:11Z</time>
      </trkpt>
      <trkpt lat="46.05428" lon="4.77265">
        <ele>201</ele>
        <time>2018-06-26T09:53:12Z</time>
      </trkpt>
      <trkpt lat="46.05423" lon="4.77263">
        <ele>201</ele>
        <time>2018-06-26T09:53:13Z</time>
      </trkpt>
      <trkpt lat="46.05415" lon="4.77259">
        <ele>202</ele>
        <time>2018-06-26T09:53:14Z</time>
      </trkpt>
      <trkpt lat="46.05409" lon="4.77256">
        <ele>202</ele>
        <time>2018-06-26T09:53:15Z</time>
      </trkpt>
      <trkpt lat="46.05403" lon="4.77252">
        <ele>202</ele>
        <time>2018-06-26T09:53:16Z</time>
      </trkpt>
      <trkpt lat="46.05398" lon="4.77248">
        <ele>202</ele>
        <time>2018-06-26T09:53:17Z</time>
      </trkpt>
      <trkpt lat="46.05394" lon="4.77244">
        <ele>202</ele>
        <time>2018-06-26T09:53:18Z</time>
      </trkpt>
      <trkpt lat="46.05389" lon="4.77242">
        <ele>202</ele>
        <time>2018-06-26T09:53:19Z</time>
      </trkpt>
      <trkpt lat="46.05383" lon="4.7724">
        <ele>203</ele>
        <time>2018-06-26T09:53:20Z</time>
      </trkpt>
      <trkpt lat="46.05376" lon="4.77234">
        <ele>203</ele>
        <time>2018-06-26T09:53:22Z</time>
      </trkpt>
      <trkpt lat="46.0537" lon="4.7723">
        <ele>203</ele>
        <time>2018-06-26T09:53:23Z</time>
      </trkpt>
      <trkpt lat="46.05365" lon="4.77227">
        <ele>203</ele>
        <time>2018-06-26T09:53:24Z</time>
      </trkpt>
      <trkpt lat="46.05358" lon="4.77224">
        <ele>203</ele>
        <time>2018-06-26T09:53:25Z</time>
      </trkpt>
      <trkpt lat="46.05352" lon="4.77222">
        <ele>203</ele>
        <time>2018-06-26T09:53:26Z</time>
      </trkpt>
      <trkpt lat="46.05346" lon="4.77217">
        <ele>203</ele>
        <time>2018-06-26T09:53:27Z</time>
      </trkpt>
      <trkpt lat="46.05342" lon="4.77213">
        <ele>203</ele>
        <time>2018-06-26T09:53:28Z</time>
      </trkpt>
      <trkpt lat="46.05339" lon="4.77208">
        <ele>203</ele>
        <time>2018-06-26T09:53:29Z</time>
      </trkpt>
      <trkpt lat="46.05334" lon="4.77204">
        <ele>203</ele>
        <time>2018-06-26T09:53:30Z</time>
      </trkpt>
      <trkpt lat="46.05329" lon="4.772">
        <ele>205</ele>
        <time>2018-06-26T09:53:31Z</time>
      </trkpt>
      <trkpt lat="46.05324" lon="4.77196">
        <ele>205</ele>
        <time>2018-06-26T09:53:32Z</time>
      </trkpt>
      <trkpt lat="46.05319" lon="4.77193">
        <ele>205</ele>
        <time>2018-06-26T09:53:33Z</time>
      </trkpt>
      <trkpt lat="46.05314" lon="4.77189">
        <ele>205</ele>
        <time>2018-06-26T09:53:34Z</time>
      </trkpt>
      <trkpt lat="46.05309" lon="4.77185">
        <ele>205</ele>
        <time>2018-06-26T09:53:35Z</time>
      </trkpt>
      <trkpt lat="46.05304" lon="4.77182">
        <ele>205</ele>
        <time>2018-06-26T09:53:36Z</time>
      </trkpt>
      <trkpt lat="46.05299" lon="4.77177">
        <ele>205</ele>
        <time>2018-06-26T09:53:37Z</time>
      </trkpt>
      <trkpt lat="46.05295" lon="4.77171">
        <ele>205</ele>
        <time>2018-06-26T09:53:38Z</time>
      </trkpt>
      <trkpt lat="46.05291" lon="4.77166">
        <ele>204</ele>
        <time>2018-06-26T09:53:39Z</time>
      </trkpt>
      <trkpt lat="46.05286" lon="4.77161">
        <ele>204</ele>
        <time>2018-06-26T09:53:40Z</time>
      </trkpt>
      <trkpt lat="46.05281" lon="4.77156">
        <ele>204</ele>
        <time>2018-06-26T09:53:41Z</time>
      </trkpt>
      <trkpt lat="46.05276" lon="4.77151">
        <ele>204</ele>
        <time>2018-06-26T09:53:42Z</time>
      </trkpt>
      <trkpt lat="46.05272" lon="4.77144">
        <ele>204</ele>
        <time>2018-06-26T09:53:43Z</time>
      </trkpt>
      <trkpt lat="46.05265" lon="4.77137">
        <ele>204</ele>
        <time>2018-06-26T09:53:44Z</time>
      </trkpt>
      <trkpt lat="46.0526" lon="4.77131">
        <ele>204</ele>
        <time>2018-06-26T09:53:45Z</time>
      </trkpt>
      <trkpt lat="46.05256" lon="4.77126">
        <ele>204</ele>
        <time>2018-06-26T09:53:46Z</time>
      </trkpt>
      <trkpt lat="46.05253" lon="4.7712">
        <ele>204</ele>
        <time>2018-06-26T09:53:47Z</time>
      </trkpt>
      <trkpt lat="46.05248" lon="4.77116">
        <ele>204</ele>
        <time>2018-06-26T09:53:48Z</time>
      </trkpt>
      <trkpt lat="46.05244" lon="4.77113">
        <ele>203</ele>
        <time>2018-06-26T09:53:49Z</time>
      </trkpt>
      <trkpt lat="46.05241" lon="4.77108">
        <ele>203</ele>
        <time>2018-06-26T09:53:50Z</time>
      </trkpt>
      <trkpt lat="46.05234" lon="4.77104">
        <ele>203</ele>
        <time>2018-06-26T09:53:51Z</time>
      </trkpt>
      <trkpt lat="46.0523" lon="4.77098">
        <ele>203</ele>
        <time>2018-06-26T09:53:52Z</time>
      </trkpt>
      <trkpt lat="46.05227" lon="4.77091">
        <ele>203</ele>
        <time>2018-06-26T09:53:53Z</time>
      </trkpt>
      <trkpt lat="46.05224" lon="4.77084">
        <ele>203</ele>
        <time>2018-06-26T09:53:54Z</time>
      </trkpt>
      <trkpt lat="46.05221" lon="4.77077">
        <ele>201</ele>
        <time>2018-06-26T09:53:55Z</time>
      </trkpt>
      <trkpt lat="46.05218" lon="4.77069">
        <ele>201</ele>
        <time>2018-06-26T09:53:56Z</time>
      </trkpt>
      <trkpt lat="46.05215" lon="4.7706">
        <ele>201</ele>
        <time>2018-06-26T09:53:57Z</time>
      </trkpt>
      <trkpt lat="46.05212" lon="4.77055">
        <ele>201</ele>
        <time>2018-06-26T09:53:58Z</time>
      </trkpt>
      <trkpt lat="46.05209" lon="4.77047">
        <ele>201</ele>
        <time>2018-06-26T09:53:59Z</time>
      </trkpt>
      <trkpt lat="46.05207" lon="4.77038">
        <ele>200</ele>
        <time>2018-06-26T09:54:00Z</time>
      </trkpt>
      <trkpt lat="46.05204" lon="4.7703">
        <ele>200</ele>
        <time>2018-06-26T09:54:01Z</time>
      </trkpt>
      <trkpt lat="46.05201" lon="4.77022">
        <ele>200</ele>
        <time>2018-06-26T09:54:02Z</time>
      </trkpt>
      <trkpt lat="46.05199" lon="4.77014">
        <ele>200</ele>
        <time>2018-06-26T09:54:03Z</time>
      </trkpt>
      <trkpt lat="46.05197" lon="4.77006">
        <ele>200</ele>
        <time>2018-06-26T09:54:04Z</time>
      </trkpt>
      <trkpt lat="46.05196" lon="4.76999">
        <ele>198</ele>
        <time>2018-06-26T09:54:05Z</time>
      </trkpt>
      <trkpt lat="46.05194" lon="4.76989">
        <ele>198</ele>
        <time>2018-06-26T09:54:06Z</time>
      </trkpt>
      <trkpt lat="46.05192" lon="4.7698">
        <ele>198</ele>
        <time>2018-06-26T09:54:07Z</time>
      </trkpt>
      <trkpt lat="46.05189" lon="4.76971">
        <ele>198</ele>
        <time>2018-06-26T09:54:08Z</time>
      </trkpt>
      <trkpt lat="46.05186" lon="4.76963">
        <ele>198</ele>
        <time>2018-06-26T09:54:09Z</time>
      </trkpt>
      <trkpt lat="46.05183" lon="4.76954">
        <ele>197</ele>
        <time>2018-06-26T09:54:10Z</time>
      </trkpt>
      <trkpt lat="46.05179" lon="4.76945">
        <ele>197</ele>
        <time>2018-06-26T09:54:11Z</time>
      </trkpt>
      <trkpt lat="46.05173" lon="4.76937">
        <ele>197</ele>
        <time>2018-06-26T09:54:12Z</time>
      </trkpt>
      <trkpt lat="46.05169" lon="4.76928">
        <ele>197</ele>
        <time>2018-06-26T09:54:13Z</time>
      </trkpt>
      <trkpt lat="46.05164" lon="4.7692">
        <ele>196</ele>
        <time>2018-06-26T09:54:14Z</time>
      </trkpt>
      <trkpt lat="46.05159" lon="4.76912">
        <ele>196</ele>
        <time>2018-06-26T09:54:15Z</time>
      </trkpt>
      <trkpt lat="46.05153" lon="4.76904">
        <ele>195</ele>
        <time>2018-06-26T09:54:16Z</time>
      </trkpt>
      <trkpt lat="46.05149" lon="4.76894">
        <ele>195</ele>
        <time>2018-06-26T09:54:17Z</time>
      </trkpt>
      <trkpt lat="46.05144" lon="4.76886">
        <ele>195</ele>
        <time>2018-06-26T09:54:18Z</time>
      </trkpt>
      <trkpt lat="46.0514" lon="4.76877">
        <ele>195</ele>
        <time>2018-06-26T09:54:19Z</time>
      </trkpt>
      <trkpt lat="46.05137" lon="4.76869">
        <ele>195</ele>
        <time>2018-06-26T09:54:20Z</time>
      </trkpt>
      <trkpt lat="46.05133" lon="4.76859">
        <ele>195</ele>
        <time>2018-06-26T09:54:21Z</time>
      </trkpt>
      <trkpt lat="46.05128" lon="4.76851">
        <ele>195</ele>
        <time>2018-06-26T09:54:22Z</time>
      </trkpt>
      <trkpt lat="46.05125" lon="4.76842">
        <ele>195</ele>
        <time>2018-06-26T09:54:23Z</time>
      </trkpt>
      <trkpt lat="46.05121" lon="4.76833">
        <ele>194</ele>
        <time>2018-06-26T09:54:24Z</time>
      </trkpt>
      <trkpt lat="46.05116" lon="4.76823">
        <ele>194</ele>
        <time>2018-06-26T09:54:25Z</time>
      </trkpt>
      <trkpt lat="46.05111" lon="4.76816">
        <ele>194</ele>
        <time>2018-06-26T09:54:26Z</time>
      </trkpt>
      <trkpt lat="46.05109" lon="4.76807">
        <ele>194</ele>
        <time>2018-06-26T09:54:27Z</time>
      </trkpt>
      <trkpt lat="46.05107" lon="4.76798">
        <ele>194</ele>
        <time>2018-06-26T09:54:28Z</time>
      </trkpt>
      <trkpt lat="46.05105" lon="4.76789">
        <ele>194</ele>
        <time>2018-06-26T09:54:29Z</time>
      </trkpt>
      <trkpt lat="46.05104" lon="4.7678">
        <ele>194</ele>
        <time>2018-06-26T09:54:30Z</time>
      </trkpt>
      <trkpt lat="46.05101" lon="4.76771">
        <ele>194</ele>
        <time>2018-06-26T09:54:31Z</time>
      </trkpt>
      <trkpt lat="46.05098" lon="4.76762">
        <ele>194</ele>
        <time>2018-06-26T09:54:32Z</time>
      </trkpt>
      <trkpt lat="46.05097" lon="4.76753">
        <ele>194</ele>
        <time>2018-06-26T09:54:33Z</time>
      </trkpt>
      <trkpt lat="46.05096" lon="4.76743">
        <ele>193</ele>
        <time>2018-06-26T09:54:34Z</time>
      </trkpt>
      <trkpt lat="46.05097" lon="4.76736">
        <ele>193</ele>
        <time>2018-06-26T09:54:35Z</time>
      </trkpt>
      <trkpt lat="46.05095" lon="4.76727">
        <ele>193</ele>
        <time>2018-06-26T09:54:36Z</time>
      </trkpt>
      <trkpt lat="46.05094" lon="4.76717">
        <ele>193</ele>
        <time>2018-06-26T09:54:37Z</time>
      </trkpt>
      <trkpt lat="46.05091" lon="4.76708">
        <ele>193</ele>
        <time>2018-06-26T09:54:38Z</time>
      </trkpt>
      <trkpt lat="46.05089" lon="4.76699">
        <ele>193</ele>
        <time>2018-06-26T09:54:39Z</time>
      </trkpt>
      <trkpt lat="46.05087" lon="4.76691">
        <ele>193</ele>
        <time>2018-06-26T09:54:40Z</time>
      </trkpt>
      <trkpt lat="46.05085" lon="4.76682">
        <ele>193</ele>
        <time>2018-06-26T09:54:41Z</time>
      </trkpt>
      <trkpt lat="46.05083" lon="4.76674">
        <ele>193</ele>
        <time>2018-06-26T09:54:42Z</time>
      </trkpt>
      <trkpt lat="46.05082" lon="4.76666">
        <ele>193</ele>
        <time>2018-06-26T09:54:43Z</time>
      </trkpt>
      <trkpt lat="46.05082" lon="4.76658">
        <ele>193</ele>
        <time>2018-06-26T09:54:44Z</time>
      </trkpt>
      <trkpt lat="46.05082" lon="4.76649">
        <ele>192</ele>
        <time>2018-06-26T09:54:45Z</time>
      </trkpt>
      <trkpt lat="46.05082" lon="4.76641">
        <ele>192</ele>
        <time>2018-06-26T09:54:46Z</time>
      </trkpt>
      <trkpt lat="46.0508" lon="4.76634">
        <ele>192</ele>
        <time>2018-06-26T09:54:47Z</time>
      </trkpt>
      <trkpt lat="46.0508" lon="4.76622">
        <ele>192</ele>
        <time>2018-06-26T09:54:52Z</time>
      </trkpt>
      <trkpt lat="46.05081" lon="4.7662">
        <ele>192</ele>
        <time>2018-06-26T09:54:53Z</time>
      </trkpt>
      <trkpt lat="46.0508" lon="4.7661">
        <ele>191</ele>
        <time>2018-06-26T09:55:04Z</time>
      </trkpt>
      <trkpt lat="46.05079" lon="4.76608">
        <ele>191</ele>
        <time>2018-06-26T09:55:05Z</time>
      </trkpt>
      <trkpt lat="46.05073" lon="4.76601">
        <ele>191</ele>
        <time>2018-06-26T09:55:08Z</time>
      </trkpt>
      <trkpt lat="46.0507" lon="4.76598">
        <ele>191</ele>
        <time>2018-06-26T09:55:09Z</time>
      </trkpt>
      <trkpt lat="46.05067" lon="4.76595">
        <ele>191</ele>
        <time>2018-06-26T09:55:10Z</time>
      </trkpt>
      <trkpt lat="46.05059" lon="4.76588">
        <ele>191</ele>
        <time>2018-06-26T09:55:11Z</time>
      </trkpt>
      <trkpt lat="46.05055" lon="4.76586">
        <ele>191</ele>
        <time>2018-06-26T09:55:12Z</time>
      </trkpt>
      <trkpt lat="46.05051" lon="4.76583">
        <ele>190</ele>
        <time>2018-06-26T09:55:13Z</time>
      </trkpt>
      <trkpt lat="46.05047" lon="4.7658">
        <ele>190</ele>
        <time>2018-06-26T09:55:14Z</time>
      </trkpt>
      <trkpt lat="46.05043" lon="4.76576">
        <ele>190</ele>
        <time>2018-06-26T09:55:15Z</time>
      </trkpt>
      <trkpt lat="46.05037" lon="4.76571">
        <ele>190</ele>
        <time>2018-06-26T09:55:16Z</time>
      </trkpt>
      <trkpt lat="46.05033" lon="4.76569">
        <ele>190</ele>
        <time>2018-06-26T09:55:17Z</time>
      </trkpt>
      <trkpt lat="46.05029" lon="4.76567">
        <ele>190</ele>
        <time>2018-06-26T09:55:18Z</time>
      </trkpt>
      <trkpt lat="46.05022" lon="4.76566">
        <ele>190</ele>
        <time>2018-06-26T09:55:19Z</time>
      </trkpt>
      <trkpt lat="46.05016" lon="4.76563">
        <ele>190</ele>
        <time>2018-06-26T09:55:20Z</time>
      </trkpt>
      <trkpt lat="46.05012" lon="4.76561">
        <ele>190</ele>
        <time>2018-06-26T09:55:21Z</time>
      </trkpt>
      <trkpt lat="46.05008" lon="4.76552">
        <ele>190</ele>
        <time>2018-06-26T09:55:23Z</time>
      </trkpt>
      <trkpt lat="46.05003" lon="4.76546">
        <ele>190</ele>
        <time>2018-06-26T09:55:24Z</time>
      </trkpt>
      <trkpt lat="46.05" lon="4.76541">
        <ele>191</ele>
        <time>2018-06-26T09:55:25Z</time>
      </trkpt>
      <trkpt lat="46.04996" lon="4.76535">
        <ele>191</ele>
        <time>2018-06-26T09:55:26Z</time>
      </trkpt>
      <trkpt lat="46.04994" lon="4.7653">
        <ele>191</ele>
        <time>2018-06-26T09:55:27Z</time>
      </trkpt>
      <trkpt lat="46.04991" lon="4.76524">
        <ele>191</ele>
        <time>2018-06-26T09:55:28Z</time>
      </trkpt>
      <trkpt lat="46.0499" lon="4.76518">
        <ele>191</ele>
        <time>2018-06-26T09:55:29Z</time>
      </trkpt>
      <trkpt lat="46.04988" lon="4.76511">
        <ele>191</ele>
        <time>2018-06-26T09:55:30Z</time>
      </trkpt>
      <trkpt lat="46.04986" lon="4.76504">
        <ele>191</ele>
        <time>2018-06-26T09:55:31Z</time>
      </trkpt>
      <trkpt lat="46.04984" lon="4.76498">
        <ele>190</ele>
        <time>2018-06-26T09:55:32Z</time>
      </trkpt>
      <trkpt lat="46.04984" lon="4.76491">
        <ele>190</ele>
        <time>2018-06-26T09:55:33Z</time>
      </trkpt>
      <trkpt lat="46.04982" lon="4.76485">
        <ele>190</ele>
        <time>2018-06-26T09:55:34Z</time>
      </trkpt>
      <trkpt lat="46.04979" lon="4.76473">
        <ele>190</ele>
        <time>2018-06-26T09:55:36Z</time>
      </trkpt>
      <trkpt lat="46.04978" lon="4.76467">
        <ele>190</ele>
        <time>2018-06-26T09:55:37Z</time>
      </trkpt>
      <trkpt lat="46.04976" lon="4.76461">
        <ele>190</ele>
        <time>2018-06-26T09:55:38Z</time>
      </trkpt>
      <trkpt lat="46.04973" lon="4.76456">
        <ele>190</ele>
        <time>2018-06-26T09:55:39Z</time>
      </trkpt>
      <trkpt lat="46.0497" lon="4.76444">
        <ele>190</ele>
        <time>2018-06-26T09:55:41Z</time>
      </trkpt>
      <trkpt lat="46.04966" lon="4.7644">
        <ele>190</ele>
        <time>2018-06-26T09:55:42Z</time>
      </trkpt>
      <trkpt lat="46.04959" lon="4.76432">
        <ele>191</ele>
        <time>2018-06-26T09:55:44Z</time>
      </trkpt>
      <trkpt lat="46.04951" lon="4.76429">
        <ele>191</ele>
        <time>2018-06-26T09:55:45Z</time>
      </trkpt>
      <trkpt lat="46.04945" lon="4.76428">
        <ele>191</ele>
        <time>2018-06-26T09:55:46Z</time>
      </trkpt>
      <trkpt lat="46.04939" lon="4.76427">
        <ele>191</ele>
        <time>2018-06-26T09:55:47Z</time>
      </trkpt>
      <trkpt lat="46.04933" lon="4.76428">
        <ele>191</ele>
        <time>2018-06-26T09:55:48Z</time>
      </trkpt>
      <trkpt lat="46.04928" lon="4.76431">
        <ele>191</ele>
        <time>2018-06-26T09:55:49Z</time>
      </trkpt>
      <trkpt lat="46.0492" lon="4.76434">
        <ele>191</ele>
        <time>2018-06-26T09:55:51Z</time>
      </trkpt>
      <trkpt lat="46.04916" lon="4.76436">
        <ele>193</ele>
        <time>2018-06-26T09:55:52Z</time>
      </trkpt>
      <trkpt lat="46.04914" lon="4.76435">
        <ele>193</ele>
        <time>2018-06-26T09:55:53Z</time>
      </trkpt>
      <trkpt lat="46.04905" lon="4.7644">
        <ele>193</ele>
        <time>2018-06-26T09:55:54Z</time>
      </trkpt>
      <trkpt lat="46.04898" lon="4.76441">
        <ele>193</ele>
        <time>2018-06-26T09:55:57Z</time>
      </trkpt>
      <trkpt lat="46.04891" lon="4.76441">
        <ele>193</ele>
        <time>2018-06-26T09:55:58Z</time>
      </trkpt>
      <trkpt lat="46.04884" lon="4.7644">
        <ele>193</ele>
        <time>2018-06-26T09:56:00Z</time>
      </trkpt>
      <trkpt lat="46.04878" lon="4.7644">
        <ele>193</ele>
        <time>2018-06-26T09:56:01Z</time>
      </trkpt>
      <trkpt lat="46.04873" lon="4.76442">
        <ele>193</ele>
        <time>2018-06-26T09:56:02Z</time>
      </trkpt>
      <trkpt lat="46.04866" lon="4.76443">
        <ele>193</ele>
        <time>2018-06-26T09:56:03Z</time>
      </trkpt>
      <trkpt lat="46.04863" lon="4.76443">
        <ele>193</ele>
        <time>2018-06-26T09:56:04Z</time>
      </trkpt>
      <trkpt lat="46.04857" lon="4.76443">
        <ele>193</ele>
        <time>2018-06-26T09:56:05Z</time>
      </trkpt>
      <trkpt lat="46.04852" lon="4.76442">
        <ele>193</ele>
        <time>2018-06-26T09:56:06Z</time>
      </trkpt>
      <trkpt lat="46.04847" lon="4.76442">
        <ele>194</ele>
        <time>2018-06-26T09:56:07Z</time>
      </trkpt>
      <trkpt lat="46.04841" lon="4.76443">
        <ele>194</ele>
        <time>2018-06-26T09:56:08Z</time>
      </trkpt>
      <trkpt lat="46.04835" lon="4.76444">
        <ele>194</ele>
        <time>2018-06-26T09:56:09Z</time>
      </trkpt>
      <trkpt lat="46.04829" lon="4.76445">
        <ele>193</ele>
        <time>2018-06-26T09:56:10Z</time>
      </trkpt>
      <trkpt lat="46.04823" lon="4.76445">
        <ele>193</ele>
        <time>2018-06-26T09:56:11Z</time>
      </trkpt>
      <trkpt lat="46.04818" lon="4.76444">
        <ele>193</ele>
        <time>2018-06-26T09:56:12Z</time>
      </trkpt>
      <trkpt lat="46.04814" lon="4.76443">
        <ele>193</ele>
        <time>2018-06-26T09:56:13Z</time>
      </trkpt>
      <trkpt lat="46.04808" lon="4.76442">
        <ele>193</ele>
        <time>2018-06-26T09:56:14Z</time>
      </trkpt>
      <trkpt lat="46.04804" lon="4.76441">
        <ele>193</ele>
        <time>2018-06-26T09:56:15Z</time>
      </trkpt>
      <trkpt lat="46.04801" lon="4.76432">
        <ele>193</ele>
        <time>2018-06-26T09:56:17Z</time>
      </trkpt>
      <trkpt lat="46.04795" lon="4.76435">
        <ele>193</ele>
        <time>2018-06-26T09:56:18Z</time>
      </trkpt>
      <trkpt lat="46.04787" lon="4.76442">
        <ele>192</ele>
        <time>2018-06-26T09:56:19Z</time>
      </trkpt>
      <trkpt lat="46.0478" lon="4.76444">
        <ele>192</ele>
        <time>2018-06-26T09:56:21Z</time>
      </trkpt>
      <trkpt lat="46.04774" lon="4.76445">
        <ele>192</ele>
        <time>2018-06-26T09:56:22Z</time>
      </trkpt>
      <trkpt lat="46.04768" lon="4.76451">
        <ele>192</ele>
        <time>2018-06-26T09:56:23Z</time>
      </trkpt>
      <trkpt lat="46.04765" lon="4.76454">
        <ele>192</ele>
        <time>2018-06-26T09:56:24Z</time>
      </trkpt>
      <trkpt lat="46.04759" lon="4.76461">
        <ele>192</ele>
        <time>2018-06-26T09:56:25Z</time>
      </trkpt>
      <trkpt lat="46.04752" lon="4.76466">
        <ele>192</ele>
        <time>2018-06-26T09:56:26Z</time>
      </trkpt>
      <trkpt lat="46.04746" lon="4.76468">
        <ele>190</ele>
        <time>2018-06-26T09:56:27Z</time>
      </trkpt>
      <trkpt lat="46.04742" lon="4.76471">
        <ele>190</ele>
        <time>2018-06-26T09:56:28Z</time>
      </trkpt>
      <trkpt lat="46.04738" lon="4.76474">
        <ele>190</ele>
        <time>2018-06-26T09:56:29Z</time>
      </trkpt>
      <trkpt lat="46.04733" lon="4.76476">
        <ele>189</ele>
        <time>2018-06-26T09:56:30Z</time>
      </trkpt>
      <trkpt lat="46.04726" lon="4.76478">
        <ele>189</ele>
        <time>2018-06-26T09:56:32Z</time>
      </trkpt>
      <trkpt lat="46.04721" lon="4.7648">
        <ele>189</ele>
        <time>2018-06-26T09:56:33Z</time>
      </trkpt>
      <trkpt lat="46.04718" lon="4.76482">
        <ele>189</ele>
        <time>2018-06-26T09:56:34Z</time>
      </trkpt>
      <trkpt lat="46.04712" lon="4.76482">
        <ele>189</ele>
        <time>2018-06-26T09:56:35Z</time>
      </trkpt>
      <trkpt lat="46.04706" lon="4.76484">
        <ele>189</ele>
        <time>2018-06-26T09:56:37Z</time>
      </trkpt>
      <trkpt lat="46.04701" lon="4.76486">
        <ele>188</ele>
        <time>2018-06-26T09:56:38Z</time>
      </trkpt>
      <trkpt lat="46.04692" lon="4.76489">
        <ele>188</ele>
        <time>2018-06-26T09:56:43Z</time>
      </trkpt>
      <trkpt lat="46.04691" lon="4.76489">
        <ele>188</ele>
        <time>2018-06-26T09:56:44Z</time>
      </trkpt>
      <trkpt lat="46.04683" lon="4.76491">
        <ele>187</ele>
        <time>2018-06-26T09:56:48Z</time>
      </trkpt>
      <trkpt lat="46.04681" lon="4.76492">
        <ele>187</ele>
        <time>2018-06-26T09:56:49Z</time>
      </trkpt>
      <trkpt lat="46.04675" lon="4.765">
        <ele>187</ele>
        <time>2018-06-26T09:56:52Z</time>
      </trkpt>
      <trkpt lat="46.04673" lon="4.76504">
        <ele>186</ele>
        <time>2018-06-26T09:56:53Z</time>
      </trkpt>
      <trkpt lat="46.04665" lon="4.76509">
        <ele>186</ele>
        <time>2018-06-26T09:56:54Z</time>
      </trkpt>
      <trkpt lat="46.0466" lon="4.76509">
        <ele>186</ele>
        <time>2018-06-26T09:56:55Z</time>
      </trkpt>
      <trkpt lat="46.04655" lon="4.76509">
        <ele>186</ele>
        <time>2018-06-26T09:56:56Z</time>
      </trkpt>
      <trkpt lat="46.0465" lon="4.76509">
        <ele>186</ele>
        <time>2018-06-26T09:56:57Z</time>
      </trkpt>
      <trkpt lat="46.04644" lon="4.7651">
        <ele>186</ele>
        <time>2018-06-26T09:56:58Z</time>
      </trkpt>
      <trkpt lat="46.04639" lon="4.76512">
        <ele>186</ele>
        <time>2018-06-26T09:56:59Z</time>
      </trkpt>
      <trkpt lat="46.04633" lon="4.76514">
        <ele>186</ele>
        <time>2018-06-26T09:57:00Z</time>
      </trkpt>
      <trkpt lat="46.04629" lon="4.76516">
        <ele>186</ele>
        <time>2018-06-26T09:57:01Z</time>
      </trkpt>
      <trkpt lat="46.04623" lon="4.76518">
        <ele>186</ele>
        <time>2018-06-26T09:57:02Z</time>
      </trkpt>
      <trkpt lat="46.04618" lon="4.76521">
        <ele>186</ele>
        <time>2018-06-26T09:57:03Z</time>
      </trkpt>
      <trkpt lat="46.04611" lon="4.76525">
        <ele>186</ele>
        <time>2018-06-26T09:57:04Z</time>
      </trkpt>
      <trkpt lat="46.04607" lon="4.76527">
        <ele>186</ele>
        <time>2018-06-26T09:57:05Z</time>
      </trkpt>
      <trkpt lat="46.04602" lon="4.76529">
        <ele>186</ele>
        <time>2018-06-26T09:57:06Z</time>
      </trkpt>
      <trkpt lat="46.04597" lon="4.76531">
        <ele>186</ele>
        <time>2018-06-26T09:57:07Z</time>
      </trkpt>
      <trkpt lat="46.04592" lon="4.76534">
        <ele>186</ele>
        <time>2018-06-26T09:57:08Z</time>
      </trkpt>
      <trkpt lat="46.04586" lon="4.76535">
        <ele>186</ele>
        <time>2018-06-26T09:57:09Z</time>
      </trkpt>
      <trkpt lat="46.0458" lon="4.76536">
        <ele>187</ele>
        <time>2018-06-26T09:57:10Z</time>
      </trkpt>
      <trkpt lat="46.04574" lon="4.76543">
        <ele>187</ele>
        <time>2018-06-26T09:57:11Z</time>
      </trkpt>
      <trkpt lat="46.04569" lon="4.76545">
        <ele>187</ele>
        <time>2018-06-26T09:57:12Z</time>
      </trkpt>
      <trkpt lat="46.04564" lon="4.76546">
        <ele>187</ele>
        <time>2018-06-26T09:57:13Z</time>
      </trkpt>
      <trkpt lat="46.04558" lon="4.76547">
        <ele>188</ele>
        <time>2018-06-26T09:57:14Z</time>
      </trkpt>
      <trkpt lat="46.0455" lon="4.7655">
        <ele>188</ele>
        <time>2018-06-26T09:57:16Z</time>
      </trkpt>
      <trkpt lat="46.04546" lon="4.76552">
        <ele>188</ele>
        <time>2018-06-26T09:57:17Z</time>
      </trkpt>
      <trkpt lat="46.04538" lon="4.76552">
        <ele>188</ele>
        <time>2018-06-26T09:57:20Z</time>
      </trkpt>
      <trkpt lat="46.04536" lon="4.76552">
        <ele>188</ele>
        <time>2018-06-26T09:57:21Z</time>
      </trkpt>
      <trkpt lat="46.04527" lon="4.76553">
        <ele>189</ele>
        <time>2018-06-26T09:57:24Z</time>
      </trkpt>
      <trkpt lat="46.0452" lon="4.76554">
        <ele>189</ele>
        <time>2018-06-26T09:57:25Z</time>
      </trkpt>
      <trkpt lat="46.04513" lon="4.76554">
        <ele>189</ele>
        <time>2018-06-26T09:57:28Z</time>
      </trkpt>
      <trkpt lat="46.0451" lon="4.76555">
        <ele>189</ele>
        <time>2018-06-26T09:57:29Z</time>
      </trkpt>
      <trkpt lat="46.04503" lon="4.76557">
        <ele>189</ele>
        <time>2018-06-26T09:57:30Z</time>
      </trkpt>
      <trkpt lat="46.04501" lon="4.76558">
        <ele>189</ele>
        <time>2018-06-26T09:57:31Z</time>
      </trkpt>
      <trkpt lat="46.04499" lon="4.76558">
        <ele>192</ele>
        <time>2018-06-26T09:57:32Z</time>
      </trkpt>
      <trkpt lat="46.04492" lon="4.76558">
        <ele>192</ele>
        <time>2018-06-26T09:57:33Z</time>
      </trkpt>
      <trkpt lat="46.04485" lon="4.76558">
        <ele>193</ele>
        <time>2018-06-26T09:57:35Z</time>
      </trkpt>
      <trkpt lat="46.0448" lon="4.76559">
        <ele>193</ele>
        <time>2018-06-26T09:57:36Z</time>
      </trkpt>
      <trkpt lat="46.04471" lon="4.76559">
        <ele>193</ele>
        <time>2018-06-26T09:57:38Z</time>
      </trkpt>
      <trkpt lat="46.04466" lon="4.76559">
        <ele>193</ele>
        <time>2018-06-26T09:57:39Z</time>
      </trkpt>
      <trkpt lat="46.04458" lon="4.76559">
        <ele>194</ele>
        <time>2018-06-26T09:57:41Z</time>
      </trkpt>
      <trkpt lat="46.04453" lon="4.76558">
        <ele>194</ele>
        <time>2018-06-26T09:57:42Z</time>
      </trkpt>
      <trkpt lat="46.04449" lon="4.7656">
        <ele>194</ele>
        <time>2018-06-26T09:57:44Z</time>
      </trkpt>
      <trkpt lat="46.04441" lon="4.76563">
        <ele>195</ele>
        <time>2018-06-26T09:57:45Z</time>
      </trkpt>
      <trkpt lat="46.04436" lon="4.76565">
        <ele>195</ele>
        <time>2018-06-26T09:57:47Z</time>
      </trkpt>
      <trkpt lat="46.0443" lon="4.76563">
        <ele>196</ele>
        <time>2018-06-26T09:57:48Z</time>
      </trkpt>
      <trkpt lat="46.04423" lon="4.76562">
        <ele>196</ele>
        <time>2018-06-26T09:57:50Z</time>
      </trkpt>
      <trkpt lat="46.04416" lon="4.76562">
        <ele>197</ele>
        <time>2018-06-26T09:57:51Z</time>
      </trkpt>
      <trkpt lat="46.04409" lon="4.76564">
        <ele>198</ele>
        <time>2018-06-26T09:57:53Z</time>
      </trkpt>
      <trkpt lat="46.04404" lon="4.76562">
        <ele>197</ele>
        <time>2018-06-26T09:57:54Z</time>
      </trkpt>
      <trkpt lat="46.04399" lon="4.76564">
        <ele>197</ele>
        <time>2018-06-26T09:57:56Z</time>
      </trkpt>
      <trkpt lat="46.04392" lon="4.76565">
        <ele>197</ele>
        <time>2018-06-26T09:57:57Z</time>
      </trkpt>
      <trkpt lat="46.04384" lon="4.76564">
        <ele>197</ele>
        <time>2018-06-26T09:57:59Z</time>
      </trkpt>
      <trkpt lat="46.0438" lon="4.76564">
        <ele>197</ele>
        <time>2018-06-26T09:58:00Z</time>
      </trkpt>
      <trkpt lat="46.04374" lon="4.76566">
        <ele>197</ele>
        <time>2018-06-26T09:58:02Z</time>
      </trkpt>
      <trkpt lat="46.0437" lon="4.76566">
        <ele>197</ele>
        <time>2018-06-26T09:58:03Z</time>
      </trkpt>
      <trkpt lat="46.04365" lon="4.76567">
        <ele>197</ele>
        <time>2018-06-26T09:58:05Z</time>
      </trkpt>
      <trkpt lat="46.04359" lon="4.76568">
        <ele>197</ele>
        <time>2018-06-26T09:58:06Z</time>
      </trkpt>
      <trkpt lat="46.04351" lon="4.7657">
        <ele>198</ele>
        <time>2018-06-26T09:58:08Z</time>
      </trkpt>
      <trkpt lat="46.04347" lon="4.76571">
        <ele>198</ele>
        <time>2018-06-26T09:58:09Z</time>
      </trkpt>
      <trkpt lat="46.04338" lon="4.76572">
        <ele>198</ele>
        <time>2018-06-26T09:58:11Z</time>
      </trkpt>
      <trkpt lat="46.04337" lon="4.76572">
        <ele>198</ele>
        <time>2018-06-26T09:58:12Z</time>
      </trkpt>
      <trkpt lat="46.04332" lon="4.76572">
        <ele>198</ele>
        <time>2018-06-26T09:58:13Z</time>
      </trkpt>
      <trkpt lat="46.04328" lon="4.76572">
        <ele>198</ele>
        <time>2018-06-26T09:58:14Z</time>
      </trkpt>
      <trkpt lat="46.04319" lon="4.76573">
        <ele>197</ele>
        <time>2018-06-26T09:58:16Z</time>
      </trkpt>
      <trkpt lat="46.04315" lon="4.76574">
        <ele>197</ele>
        <time>2018-06-26T09:58:17Z</time>
      </trkpt>
      <trkpt lat="46.04307" lon="4.76575">
        <ele>197</ele>
        <time>2018-06-26T09:58:19Z</time>
      </trkpt>
      <trkpt lat="46.04301" lon="4.76575">
        <ele>197</ele>
        <time>2018-06-26T09:58:20Z</time>
      </trkpt>
      <trkpt lat="46.04298" lon="4.76577">
        <ele>197</ele>
        <time>2018-06-26T09:58:21Z</time>
      </trkpt>
      <trkpt lat="46.04292" lon="4.76578">
        <ele>197</ele>
        <time>2018-06-26T09:58:22Z</time>
      </trkpt>
      <trkpt lat="46.04283" lon="4.76578">
        <ele>197</ele>
        <time>2018-06-26T09:58:24Z</time>
      </trkpt>
      <trkpt lat="46.04278" lon="4.76578">
        <ele>197</ele>
        <time>2018-06-26T09:58:25Z</time>
      </trkpt>
      <trkpt lat="46.04271" lon="4.7658">
        <ele>197</ele>
        <time>2018-06-26T09:58:27Z</time>
      </trkpt>
      <trkpt lat="46.04267" lon="4.76579">
        <ele>197</ele>
        <time>2018-06-26T09:58:28Z</time>
      </trkpt>
      <trkpt lat="46.0426" lon="4.7658">
        <ele>197</ele>
        <time>2018-06-26T09:58:30Z</time>
      </trkpt>
      <trkpt lat="46.04255" lon="4.76581">
        <ele>197</ele>
        <time>2018-06-26T09:58:31Z</time>
      </trkpt>
      <trkpt lat="46.04248" lon="4.7658">
        <ele>197</ele>
        <time>2018-06-26T09:58:35Z</time>
      </trkpt>
      <trkpt lat="46.04246" lon="4.76579">
        <ele>197</ele>
        <time>2018-06-26T09:58:36Z</time>
      </trkpt>
      <trkpt lat="46.04239" lon="4.76578">
        <ele>197</ele>
        <time>2018-06-26T09:58:37Z</time>
      </trkpt>
      <trkpt lat="46.04234" lon="4.76579">
        <ele>197</ele>
        <time>2018-06-26T09:58:38Z</time>
      </trkpt>
      <trkpt lat="46.04227" lon="4.76581">
        <ele>197</ele>
        <time>2018-06-26T09:58:41Z</time>
      </trkpt>
      <trkpt lat="46.04224" lon="4.76581">
        <ele>197</ele>
        <time>2018-06-26T09:58:42Z</time>
      </trkpt>
      <trkpt lat="46.04216" lon="4.76584">
        <ele>198</ele>
        <time>2018-06-26T09:58:45Z</time>
      </trkpt>
      <trkpt lat="46.04213" lon="4.76585">
        <ele>198</ele>
        <time>2018-06-26T09:58:46Z</time>
      </trkpt>
      <trkpt lat="46.04204" lon="4.76588">
        <ele>198</ele>
        <time>2018-06-26T09:58:47Z</time>
      </trkpt>
      <trkpt lat="46.04197" lon="4.76591">
        <ele>198</ele>
        <time>2018-06-26T09:58:50Z</time>
      </trkpt>
      <trkpt lat="46.0419" lon="4.76596">
        <ele>198</ele>
        <time>2018-06-26T09:58:51Z</time>
      </trkpt>
      <trkpt lat="46.04182" lon="4.76602">
        <ele>198</ele>
        <time>2018-06-26T09:58:54Z</time>
      </trkpt>
      <trkpt lat="46.04177" lon="4.76607">
        <ele>198</ele>
        <time>2018-06-26T09:58:55Z</time>
      </trkpt>
      <trkpt lat="46.0417" lon="4.76614">
        <ele>198</ele>
        <time>2018-06-26T09:58:57Z</time>
      </trkpt>
      <trkpt lat="46.04168" lon="4.76616">
        <ele>198</ele>
        <time>2018-06-26T09:58:58Z</time>
      </trkpt>
      <trkpt lat="46.04163" lon="4.76619">
        <ele>199</ele>
        <time>2018-06-26T09:58:59Z</time>
      </trkpt>
      <trkpt lat="46.0416" lon="4.76622">
        <ele>199</ele>
        <time>2018-06-26T09:59:00Z</time>
      </trkpt>
      <trkpt lat="46.04153" lon="4.76628">
        <ele>200</ele>
        <time>2018-06-26T09:59:02Z</time>
      </trkpt>
      <trkpt lat="46.04149" lon="4.76631">
        <ele>200</ele>
        <time>2018-06-26T09:59:03Z</time>
      </trkpt>
      <trkpt lat="46.04145" lon="4.76634">
        <ele>200</ele>
        <time>2018-06-26T09:59:04Z</time>
      </trkpt>
      <trkpt lat="46.04141" lon="4.76637">
        <ele>200</ele>
        <time>2018-06-26T09:59:05Z</time>
      </trkpt>
      <trkpt lat="46.04134" lon="4.76644">
        <ele>200</ele>
        <time>2018-06-26T09:59:07Z</time>
      </trkpt>
      <trkpt lat="46.04132" lon="4.76645">
        <ele>200</ele>
        <time>2018-06-26T09:59:08Z</time>
      </trkpt>
      <trkpt lat="46.04127" lon="4.76648">
        <ele>200</ele>
        <time>2018-06-26T09:59:09Z</time>
      </trkpt>
      <trkpt lat="46.04122" lon="4.76648">
        <ele>200</ele>
        <time>2018-06-26T09:59:10Z</time>
      </trkpt>
      <trkpt lat="46.04114" lon="4.7665">
        <ele>200</ele>
        <time>2018-06-26T09:59:12Z</time>
      </trkpt>
      <trkpt lat="46.04112" lon="4.76651">
        <ele>200</ele>
        <time>2018-06-26T09:59:13Z</time>
      </trkpt>
      <trkpt lat="46.04107" lon="4.76653">
        <ele>200</ele>
        <time>2018-06-26T09:59:14Z</time>
      </trkpt>
      <trkpt lat="46.04102" lon="4.76654">
        <ele>201</ele>
        <time>2018-06-26T09:59:15Z</time>
      </trkpt>
      <trkpt lat="46.04094" lon="4.76656">
        <ele>201</ele>
        <time>2018-06-26T09:59:17Z</time>
      </trkpt>
      <trkpt lat="46.0409" lon="4.76657">
        <ele>201</ele>
        <time>2018-06-26T09:59:18Z</time>
      </trkpt>
      <trkpt lat="46.04085" lon="4.76658">
        <ele>201</ele>
        <time>2018-06-26T09:59:19Z</time>
      </trkpt>
      <trkpt lat="46.0408" lon="4.76659">
        <ele>202</ele>
        <time>2018-06-26T09:59:20Z</time>
      </trkpt>
      <trkpt lat="46.04072" lon="4.76659">
        <ele>201</ele>
        <time>2018-06-26T09:59:22Z</time>
      </trkpt>
      <trkpt lat="46.04067" lon="4.76659">
        <ele>201</ele>
        <time>2018-06-26T09:59:23Z</time>
      </trkpt>
      <trkpt lat="46.04059" lon="4.76658">
        <ele>201</ele>
        <time>2018-06-26T09:59:25Z</time>
      </trkpt>
      <trkpt lat="46.04055" lon="4.76657">
        <ele>201</ele>
        <time>2018-06-26T09:59:26Z</time>
      </trkpt>
      <trkpt lat="46.04047" lon="4.76657">
        <ele>201</ele>
        <time>2018-06-26T09:59:28Z</time>
      </trkpt>
      <trkpt lat="46.04042" lon="4.76658">
        <ele>201</ele>
        <time>2018-06-26T09:59:29Z</time>
      </trkpt>
      <trkpt lat="46.04033" lon="4.76661">
        <ele>201</ele>
        <time>2018-06-26T09:59:31Z</time>
      </trkpt>
      <trkpt lat="46.04028" lon="4.76661">
        <ele>201</ele>
        <time>2018-06-26T09:59:32Z</time>
      </trkpt>
      <trkpt lat="46.0402" lon="4.76662">
        <ele>201</ele>
        <time>2018-06-26T09:59:34Z</time>
      </trkpt>
      <trkpt lat="46.04015" lon="4.76663">
        <ele>201</ele>
        <time>2018-06-26T09:59:35Z</time>
      </trkpt>
      <trkpt lat="46.04007" lon="4.76666">
        <ele>202</ele>
        <time>2018-06-26T09:59:38Z</time>
      </trkpt>
      <trkpt lat="46.04002" lon="4.76667">
        <ele>202</ele>
        <time>2018-06-26T09:59:39Z</time>
      </trkpt>
      <trkpt lat="46.03998" lon="4.76668">
        <ele>202</ele>
        <time>2018-06-26T09:59:40Z</time>
      </trkpt>
      <trkpt lat="46.03993" lon="4.7667">
        <ele>202</ele>
        <time>2018-06-26T09:59:41Z</time>
      </trkpt>
      <trkpt lat="46.03987" lon="4.76672">
        <ele>203</ele>
        <time>2018-06-26T09:59:42Z</time>
      </trkpt>
      <trkpt lat="46.03982" lon="4.76672">
        <ele>203</ele>
        <time>2018-06-26T09:59:43Z</time>
      </trkpt>
      <trkpt lat="46.03977" lon="4.76673">
        <ele>203</ele>
        <time>2018-06-26T09:59:44Z</time>
      </trkpt>
      <trkpt lat="46.03971" lon="4.76675">
        <ele>203</ele>
        <time>2018-06-26T09:59:45Z</time>
      </trkpt>
      <trkpt lat="46.03966" lon="4.76676">
        <ele>203</ele>
        <time>2018-06-26T09:59:46Z</time>
      </trkpt>
      <trkpt lat="46.03961" lon="4.76677">
        <ele>203</ele>
        <time>2018-06-26T09:59:47Z</time>
      </trkpt>
      <trkpt lat="46.03957" lon="4.76681">
        <ele>204</ele>
        <time>2018-06-26T09:59:48Z</time>
      </trkpt>
      <trkpt lat="46.03952" lon="4.76682">
        <ele>204</ele>
        <time>2018-06-26T09:59:49Z</time>
      </trkpt>
      <trkpt lat="46.03947" lon="4.76683">
        <ele>204</ele>
        <time>2018-06-26T09:59:50Z</time>
      </trkpt>
      <trkpt lat="46.03941" lon="4.76684">
        <ele>204</ele>
        <time>2018-06-26T09:59:51Z</time>
      </trkpt>
      <trkpt lat="46.03936" lon="4.76686">
        <ele>204</ele>
        <time>2018-06-26T09:59:52Z</time>
      </trkpt>
      <trkpt lat="46.03931" lon="4.76688">
        <ele>204</ele>
        <time>2018-06-26T09:59:53Z</time>
      </trkpt>
      <trkpt lat="46.03926" lon="4.7669">
        <ele>204</ele>
        <time>2018-06-26T09:59:54Z</time>
      </trkpt>
      <trkpt lat="46.03921" lon="4.76691">
        <ele>204</ele>
        <time>2018-06-26T09:59:55Z</time>
      </trkpt>
      <trkpt lat="46.03916" lon="4.76693">
        <ele>205</ele>
        <time>2018-06-26T09:59:56Z</time>
      </trkpt>
      <trkpt lat="46.03911" lon="4.76694">
        <ele>205</ele>
        <time>2018-06-26T09:59:57Z</time>
      </trkpt>
      <trkpt lat="46.03905" lon="4.76695">
        <ele>205</ele>
        <time>2018-06-26T09:59:58Z</time>
      </trkpt>
      <trkpt lat="46.039" lon="4.76696">
        <ele>205</ele>
        <time>2018-06-26T09:59:59Z</time>
      </trkpt>
      <trkpt lat="46.03895" lon="4.76699">
        <ele>205</ele>
        <time>2018-06-26T10:00:00Z</time>
      </trkpt>
      <trkpt lat="46.0389" lon="4.76701">
        <ele>205</ele>
        <time>2018-06-26T10:00:01Z</time>
      </trkpt>
      <trkpt lat="46.03882" lon="4.76703">
        <ele>205</ele>
        <time>2018-06-26T10:00:03Z</time>
      </trkpt>
      <trkpt lat="46.03878" lon="4.76704">
        <ele>205</ele>
        <time>2018-06-26T10:00:04Z</time>
      </trkpt>
      <trkpt lat="46.0387" lon="4.76708">
        <ele>205</ele>
        <time>2018-06-26T10:00:06Z</time>
      </trkpt>
      <trkpt lat="46.03865" lon="4.76709">
        <ele>205</ele>
        <time>2018-06-26T10:00:07Z</time>
      </trkpt>
      <trkpt lat="46.03861" lon="4.76711">
        <ele>205</ele>
        <time>2018-06-26T10:00:08Z</time>
      </trkpt>
      <trkpt lat="46.03856" lon="4.76712">
        <ele>205</ele>
        <time>2018-06-26T10:00:09Z</time>
      </trkpt>
      <trkpt lat="46.03851" lon="4.76712">
        <ele>205</ele>
        <time>2018-06-26T10:00:10Z</time>
      </trkpt>
      <trkpt lat="46.03846" lon="4.76712">
        <ele>205</ele>
        <time>2018-06-26T10:00:11Z</time>
      </trkpt>
      <trkpt lat="46.03842" lon="4.76711">
        <ele>205</ele>
        <time>2018-06-26T10:00:12Z</time>
      </trkpt>
      <trkpt lat="46.03836" lon="4.76711">
        <ele>205</ele>
        <time>2018-06-26T10:00:13Z</time>
      </trkpt>
      <trkpt lat="46.03828" lon="4.76713">
        <ele>205</ele>
        <time>2018-06-26T10:00:15Z</time>
      </trkpt>
      <trkpt lat="46.03823" lon="4.76713">
        <ele>205</ele>
        <time>2018-06-26T10:00:16Z</time>
      </trkpt>
      <trkpt lat="46.03814" lon="4.76712">
        <ele>205</ele>
        <time>2018-06-26T10:00:18Z</time>
      </trkpt>
      <trkpt lat="46.0381" lon="4.76712">
        <ele>205</ele>
        <time>2018-06-26T10:00:19Z</time>
      </trkpt>
      <trkpt lat="46.03802" lon="4.76713">
        <ele>205</ele>
        <time>2018-06-26T10:00:21Z</time>
      </trkpt>
      <trkpt lat="46.03798" lon="4.76713">
        <ele>205</ele>
        <time>2018-06-26T10:00:22Z</time>
      </trkpt>
      <trkpt lat="46.03793" lon="4.76713">
        <ele>205</ele>
        <time>2018-06-26T10:00:23Z</time>
      </trkpt>
      <trkpt lat="46.03788" lon="4.76712">
        <ele>205</ele>
        <time>2018-06-26T10:00:24Z</time>
      </trkpt>
      <trkpt lat="46.03783" lon="4.76713">
        <ele>205</ele>
        <time>2018-06-26T10:00:25Z</time>
      </trkpt>
      <trkpt lat="46.03776" lon="4.76712">
        <ele>205</ele>
        <time>2018-06-26T10:00:26Z</time>
      </trkpt>
      <trkpt lat="46.0377" lon="4.76712">
        <ele>205</ele>
        <time>2018-06-26T10:00:27Z</time>
      </trkpt>
      <trkpt lat="46.03765" lon="4.76708">
        <ele>205</ele>
        <time>2018-06-26T10:00:28Z</time>
      </trkpt>
      <trkpt lat="46.0376" lon="4.76705">
        <ele>205</ele>
        <time>2018-06-26T10:00:29Z</time>
      </trkpt>
      <trkpt lat="46.03755" lon="4.76704">
        <ele>205</ele>
        <time>2018-06-26T10:00:30Z</time>
      </trkpt>
      <trkpt lat="46.03747" lon="4.76702">
        <ele>205</ele>
        <time>2018-06-26T10:00:31Z</time>
      </trkpt>
      <trkpt lat="46.0374" lon="4.76701">
        <ele>205</ele>
        <time>2018-06-26T10:00:32Z</time>
      </trkpt>
      <trkpt lat="46.03736" lon="4.76698">
        <ele>205</ele>
        <time>2018-06-26T10:00:33Z</time>
      </trkpt>
      <trkpt lat="46.0373" lon="4.76696">
        <ele>205</ele>
        <time>2018-06-26T10:00:34Z</time>
      </trkpt>
      <trkpt lat="46.03725" lon="4.76693">
        <ele>205</ele>
        <time>2018-06-26T10:00:35Z</time>
      </trkpt>
      <trkpt lat="46.03717" lon="4.76693">
        <ele>205</ele>
        <time>2018-06-26T10:00:36Z</time>
      </trkpt>
      <trkpt lat="46.0371" lon="4.7669">
        <ele>205</ele>
        <time>2018-06-26T10:00:37Z</time>
      </trkpt>
      <trkpt lat="46.03699" lon="4.76685">
        <ele>205</ele>
        <time>2018-06-26T10:00:38Z</time>
      </trkpt>
      <trkpt lat="46.03695" lon="4.76679">
        <ele>205</ele>
        <time>2018-06-26T10:00:39Z</time>
      </trkpt>
      <trkpt lat="46.0369" lon="4.76674">
        <ele>205</ele>
        <time>2018-06-26T10:00:40Z</time>
      </trkpt>
      <trkpt lat="46.03681" lon="4.76666">
        <ele>204</ele>
        <time>2018-06-26T10:00:41Z</time>
      </trkpt>
      <trkpt lat="46.03678" lon="4.76659">
        <ele>204</ele>
        <time>2018-06-26T10:00:42Z</time>
      </trkpt>
      <trkpt lat="46.03673" lon="4.76648">
        <ele>204</ele>
        <time>2018-06-26T10:00:43Z</time>
      </trkpt>
      <trkpt lat="46.03675" lon="4.7664">
        <ele>204</ele>
        <time>2018-06-26T10:00:44Z</time>
      </trkpt>
      <trkpt lat="46.03677" lon="4.76631">
        <ele>203</ele>
        <time>2018-06-26T10:00:45Z</time>
      </trkpt>
      <trkpt lat="46.03677" lon="4.76621">
        <ele>203</ele>
        <time>2018-06-26T10:00:46Z</time>
      </trkpt>
      <trkpt lat="46.03678" lon="4.76612">
        <ele>203</ele>
        <time>2018-06-26T10:00:47Z</time>
      </trkpt>
      <trkpt lat="46.03677" lon="4.76603">
        <ele>203</ele>
        <time>2018-06-26T10:00:48Z</time>
      </trkpt>
      <trkpt lat="46.03674" lon="4.76596">
        <ele>203</ele>
        <time>2018-06-26T10:00:49Z</time>
      </trkpt>
      <trkpt lat="46.0367" lon="4.76589">
        <ele>202</ele>
        <time>2018-06-26T10:00:50Z</time>
      </trkpt>
      <trkpt lat="46.03665" lon="4.76583">
        <ele>202</ele>
        <time>2018-06-26T10:00:51Z</time>
      </trkpt>
      <trkpt lat="46.03658" lon="4.76577">
        <ele>201</ele>
        <time>2018-06-26T10:00:52Z</time>
      </trkpt>
      <trkpt lat="46.03654" lon="4.76571">
        <ele>201</ele>
        <time>2018-06-26T10:00:53Z</time>
      </trkpt>
      <trkpt lat="46.03647" lon="4.76562">
        <ele>201</ele>
        <time>2018-06-26T10:00:54Z</time>
      </trkpt>
      <trkpt lat="46.03643" lon="4.76555">
        <ele>201</ele>
        <time>2018-06-26T10:00:55Z</time>
      </trkpt>
      <trkpt lat="46.03639" lon="4.76546">
        <ele>200</ele>
        <time>2018-06-26T10:00:56Z</time>
      </trkpt>
      <trkpt lat="46.03636" lon="4.76538">
        <ele>200</ele>
        <time>2018-06-26T10:00:57Z</time>
      </trkpt>
      <trkpt lat="46.03634" lon="4.76529">
        <ele>200</ele>
        <time>2018-06-26T10:00:58Z</time>
      </trkpt>
      <trkpt lat="46.03631" lon="4.7652">
        <ele>200</ele>
        <time>2018-06-26T10:00:59Z</time>
      </trkpt>
      <trkpt lat="46.03627" lon="4.7651">
        <ele>200</ele>
        <time>2018-06-26T10:01:00Z</time>
      </trkpt>
      <trkpt lat="46.03624" lon="4.76502">
        <ele>200</ele>
        <time>2018-06-26T10:01:01Z</time>
      </trkpt>
      <trkpt lat="46.0362" lon="4.76497">
        <ele>199</ele>
        <time>2018-06-26T10:01:02Z</time>
      </trkpt>
      <trkpt lat="46.03615" lon="4.76489">
        <ele>199</ele>
        <time>2018-06-26T10:01:03Z</time>
      </trkpt>
      <trkpt lat="46.0361" lon="4.76482">
        <ele>199</ele>
        <time>2018-06-26T10:01:04Z</time>
      </trkpt>
      <trkpt lat="46.03605" lon="4.76475">
        <ele>199</ele>
        <time>2018-06-26T10:01:05Z</time>
      </trkpt>
      <trkpt lat="46.036" lon="4.76468">
        <ele>199</ele>
        <time>2018-06-26T10:01:06Z</time>
      </trkpt>
      <trkpt lat="46.03599" lon="4.76457">
        <ele>199</ele>
        <time>2018-06-26T10:01:07Z</time>
      </trkpt>
      <trkpt lat="46.036" lon="4.76446">
        <ele>199</ele>
        <time>2018-06-26T10:01:08Z</time>
      </trkpt>
      <trkpt lat="46.03599" lon="4.76437">
        <ele>199</ele>
        <time>2018-06-26T10:01:09Z</time>
      </trkpt>
      <trkpt lat="46.036" lon="4.76425">
        <ele>199</ele>
        <time>2018-06-26T10:01:10Z</time>
      </trkpt>
      <trkpt lat="46.03604" lon="4.7642">
        <ele>199</ele>
        <time>2018-06-26T10:01:11Z</time>
      </trkpt>
      <trkpt lat="46.03607" lon="4.76411">
        <ele>198</ele>
        <time>2018-06-26T10:01:12Z</time>
      </trkpt>
      <trkpt lat="46.03607" lon="4.76402">
        <ele>197</ele>
        <time>2018-06-26T10:01:14Z</time>
      </trkpt>
      <trkpt lat="46.03603" lon="4.7639">
        <ele>197</ele>
        <time>2018-06-26T10:01:15Z</time>
      </trkpt>
      <trkpt lat="46.03606" lon="4.76377">
        <ele>197</ele>
        <time>2018-06-26T10:01:16Z</time>
      </trkpt>
      <trkpt lat="46.03608" lon="4.76366">
        <ele>197</ele>
        <time>2018-06-26T10:01:17Z</time>
      </trkpt>
      <trkpt lat="46.03607" lon="4.76353">
        <ele>196</ele>
        <time>2018-06-26T10:01:18Z</time>
      </trkpt>
      <trkpt lat="46.03607" lon="4.76342">
        <ele>196</ele>
        <time>2018-06-26T10:01:19Z</time>
      </trkpt>
      <trkpt lat="46.03608" lon="4.76332">
        <ele>195</ele>
        <time>2018-06-26T10:01:20Z</time>
      </trkpt>
      <trkpt lat="46.03608" lon="4.76321">
        <ele>195</ele>
        <time>2018-06-26T10:01:21Z</time>
      </trkpt>
      <trkpt lat="46.0361" lon="4.7631">
        <ele>195</ele>
        <time>2018-06-26T10:01:22Z</time>
      </trkpt>
      <trkpt lat="46.03611" lon="4.763">
        <ele>195</ele>
        <time>2018-06-26T10:01:23Z</time>
      </trkpt>
      <trkpt lat="46.03615" lon="4.7629">
        <ele>194</ele>
        <time>2018-06-26T10:01:24Z</time>
      </trkpt>
      <trkpt lat="46.03614" lon="4.7628">
        <ele>194</ele>
        <time>2018-06-26T10:01:25Z</time>
      </trkpt>
      <trkpt lat="46.03615" lon="4.7627">
        <ele>194</ele>
        <time>2018-06-26T10:01:26Z</time>
      </trkpt>
      <trkpt lat="46.03617" lon="4.76262">
        <ele>194</ele>
        <time>2018-06-26T10:01:27Z</time>
      </trkpt>
      <trkpt lat="46.03618" lon="4.76253">
        <ele>194</ele>
        <time>2018-06-26T10:01:28Z</time>
      </trkpt>
      <trkpt lat="46.03619" lon="4.76244">
        <ele>193</ele>
        <time>2018-06-26T10:01:29Z</time>
      </trkpt>
      <trkpt lat="46.0362" lon="4.76235">
        <ele>193</ele>
        <time>2018-06-26T10:01:30Z</time>
      </trkpt>
      <trkpt lat="46.03622" lon="4.76226">
        <ele>193</ele>
        <time>2018-06-26T10:01:31Z</time>
      </trkpt>
      <trkpt lat="46.03623" lon="4.76217">
        <ele>193</ele>
        <time>2018-06-26T10:01:32Z</time>
      </trkpt>
      <trkpt lat="46.03625" lon="4.76209">
        <ele>193</ele>
        <time>2018-06-26T10:01:33Z</time>
      </trkpt>
      <trkpt lat="46.03627" lon="4.76201">
        <ele>193</ele>
        <time>2018-06-26T10:01:34Z</time>
      </trkpt>
      <trkpt lat="46.03627" lon="4.76192">
        <ele>193</ele>
        <time>2018-06-26T10:01:35Z</time>
      </trkpt>
      <trkpt lat="46.03628" lon="4.76184">
        <ele>193</ele>
        <time>2018-06-26T10:01:36Z</time>
      </trkpt>
      <trkpt lat="46.03629" lon="4.76176">
        <ele>192</ele>
        <time>2018-06-26T10:01:37Z</time>
      </trkpt>
      <trkpt lat="46.03629" lon="4.76169">
        <ele>192</ele>
        <time>2018-06-26T10:01:38Z</time>
      </trkpt>
      <trkpt lat="46.03628" lon="4.76161">
        <ele>192</ele>
        <time>2018-06-26T10:01:39Z</time>
      </trkpt>
      <trkpt lat="46.03628" lon="4.76151">
        <ele>192</ele>
        <time>2018-06-26T10:01:40Z</time>
      </trkpt>
      <trkpt lat="46.03628" lon="4.76142">
        <ele>192</ele>
        <time>2018-06-26T10:01:41Z</time>
      </trkpt>
      <trkpt lat="46.03631" lon="4.76134">
        <ele>192</ele>
        <time>2018-06-26T10:01:42Z</time>
      </trkpt>
      <trkpt lat="46.03631" lon="4.76126">
        <ele>192</ele>
        <time>2018-06-26T10:01:43Z</time>
      </trkpt>
      <trkpt lat="46.03631" lon="4.76118">
        <ele>192</ele>
        <time>2018-06-26T10:01:44Z</time>
      </trkpt>
      <trkpt lat="46.03629" lon="4.76108">
        <ele>192</ele>
        <time>2018-06-26T10:01:45Z</time>
      </trkpt>
      <trkpt lat="46.0363" lon="4.76101">
        <ele>192</ele>
        <time>2018-06-26T10:01:46Z</time>
      </trkpt>
      <trkpt lat="46.03629" lon="4.76093">
        <ele>192</ele>
        <time>2018-06-26T10:01:47Z</time>
      </trkpt>
      <trkpt lat="46.0363" lon="4.76085">
        <ele>192</ele>
        <time>2018-06-26T10:01:48Z</time>
      </trkpt>
      <trkpt lat="46.03628" lon="4.76077">
        <ele>191</ele>
        <time>2018-06-26T10:01:49Z</time>
      </trkpt>
      <trkpt lat="46.03627" lon="4.7607">
        <ele>191</ele>
        <time>2018-06-26T10:01:50Z</time>
      </trkpt>
      <trkpt lat="46.03622" lon="4.76061">
        <ele>191</ele>
        <time>2018-06-26T10:01:51Z</time>
      </trkpt>
      <trkpt lat="46.03619" lon="4.76052">
        <ele>191</ele>
        <time>2018-06-26T10:01:52Z</time>
      </trkpt>
      <trkpt lat="46.03616" lon="4.76043">
        <ele>191</ele>
        <time>2018-06-26T10:01:53Z</time>
      </trkpt>
      <trkpt lat="46.03614" lon="4.76034">
        <ele>191</ele>
        <time>2018-06-26T10:01:54Z</time>
      </trkpt>
      <trkpt lat="46.03611" lon="4.76026">
        <ele>191</ele>
        <time>2018-06-26T10:01:55Z</time>
      </trkpt>
      <trkpt lat="46.0361" lon="4.76018">
        <ele>191</ele>
        <time>2018-06-26T10:01:56Z</time>
      </trkpt>
      <trkpt lat="46.03609" lon="4.7601">
        <ele>191</ele>
        <time>2018-06-26T10:01:57Z</time>
      </trkpt>
      <trkpt lat="46.03607" lon="4.76002">
        <ele>191</ele>
        <time>2018-06-26T10:01:58Z</time>
      </trkpt>
      <trkpt lat="46.03604" lon="4.75996">
        <ele>190</ele>
        <time>2018-06-26T10:01:59Z</time>
      </trkpt>
      <trkpt lat="46.03601" lon="4.75989">
        <ele>190</ele>
        <time>2018-06-26T10:02:00Z</time>
      </trkpt>
      <trkpt lat="46.03598" lon="4.75982">
        <ele>190</ele>
        <time>2018-06-26T10:02:01Z</time>
      </trkpt>
      <trkpt lat="46.03595" lon="4.75974">
        <ele>190</ele>
        <time>2018-06-26T10:02:02Z</time>
      </trkpt>
      <trkpt lat="46.03592" lon="4.75967">
        <ele>190</ele>
        <time>2018-06-26T10:02:03Z</time>
      </trkpt>
      <trkpt lat="46.03588" lon="4.7596">
        <ele>190</ele>
        <time>2018-06-26T10:02:04Z</time>
      </trkpt>
      <trkpt lat="46.03586" lon="4.75953">
        <ele>190</ele>
        <time>2018-06-26T10:02:05Z</time>
      </trkpt>
      <trkpt lat="46.03581" lon="4.75947">
        <ele>190</ele>
        <time>2018-06-26T10:02:06Z</time>
      </trkpt>
      <trkpt lat="46.03578" lon="4.7594">
        <ele>190</ele>
        <time>2018-06-26T10:02:07Z</time>
      </trkpt>
      <trkpt lat="46.03576" lon="4.75932">
        <ele>190</ele>
        <time>2018-06-26T10:02:08Z</time>
      </trkpt>
      <trkpt lat="46.03573" lon="4.75923">
        <ele>189</ele>
        <time>2018-06-26T10:02:09Z</time>
      </trkpt>
      <trkpt lat="46.0357" lon="4.75916">
        <ele>189</ele>
        <time>2018-06-26T10:02:10Z</time>
      </trkpt>
      <trkpt lat="46.03566" lon="4.75909">
        <ele>189</ele>
        <time>2018-06-26T10:02:11Z</time>
      </trkpt>
      <trkpt lat="46.03563" lon="4.75901">
        <ele>189</ele>
        <time>2018-06-26T10:02:12Z</time>
      </trkpt>
      <trkpt lat="46.03559" lon="4.75893">
        <ele>189</ele>
        <time>2018-06-26T10:02:13Z</time>
      </trkpt>
      <trkpt lat="46.03555" lon="4.75886">
        <ele>189</ele>
        <time>2018-06-26T10:02:14Z</time>
      </trkpt>
      <trkpt lat="46.03552" lon="4.75878">
        <ele>189</ele>
        <time>2018-06-26T10:02:15Z</time>
      </trkpt>
      <trkpt lat="46.03547" lon="4.75871">
        <ele>189</ele>
        <time>2018-06-26T10:02:16Z</time>
      </trkpt>
      <trkpt lat="46.03544" lon="4.75864">
        <ele>189</ele>
        <time>2018-06-26T10:02:17Z</time>
      </trkpt>
      <trkpt lat="46.03541" lon="4.75857">
        <ele>190</ele>
        <time>2018-06-26T10:02:18Z</time>
      </trkpt>
      <trkpt lat="46.03537" lon="4.75849">
        <ele>190</ele>
        <time>2018-06-26T10:02:19Z</time>
      </trkpt>
      <trkpt lat="46.03534" lon="4.75842">
        <ele>190</ele>
        <time>2018-06-26T10:02:20Z</time>
      </trkpt>
      <trkpt lat="46.0353" lon="4.75834">
        <ele>190</ele>
        <time>2018-06-26T10:02:21Z</time>
      </trkpt>
      <trkpt lat="46.03526" lon="4.75827">
        <ele>189</ele>
        <time>2018-06-26T10:02:22Z</time>
      </trkpt>
      <trkpt lat="46.03523" lon="4.7582">
        <ele>189</ele>
        <time>2018-06-26T10:02:23Z</time>
      </trkpt>
      <trkpt lat="46.03519" lon="4.75812">
        <ele>189</ele>
        <time>2018-06-26T10:02:24Z</time>
      </trkpt>
      <trkpt lat="46.03515" lon="4.75805">
        <ele>189</ele>
        <time>2018-06-26T10:02:25Z</time>
      </trkpt>
      <trkpt lat="46.03513" lon="4.75798">
        <ele>189</ele>
        <time>2018-06-26T10:02:26Z</time>
      </trkpt>
      <trkpt lat="46.0351" lon="4.75792">
        <ele>189</ele>
        <time>2018-06-26T10:02:27Z</time>
      </trkpt>
      <trkpt lat="46.03507" lon="4.75784">
        <ele>189</ele>
        <time>2018-06-26T10:02:28Z</time>
      </trkpt>
      <trkpt lat="46.03504" lon="4.75777">
        <ele>189</ele>
        <time>2018-06-26T10:02:29Z</time>
      </trkpt>
      <trkpt lat="46.03497" lon="4.75769">
        <ele>189</ele>
        <time>2018-06-26T10:02:30Z</time>
      </trkpt>
      <trkpt lat="46.03493" lon="4.75761">
        <ele>189</ele>
        <time>2018-06-26T10:02:31Z</time>
      </trkpt>
      <trkpt lat="46.0349" lon="4.75754">
        <ele>189</ele>
        <time>2018-06-26T10:02:32Z</time>
      </trkpt>
      <trkpt lat="46.03485" lon="4.75747">
        <ele>189</ele>
        <time>2018-06-26T10:02:33Z</time>
      </trkpt>
      <trkpt lat="46.03483" lon="4.75739">
        <ele>189</ele>
        <time>2018-06-26T10:02:34Z</time>
      </trkpt>
      <trkpt lat="46.03478" lon="4.75732">
        <ele>189</ele>
        <time>2018-06-26T10:02:35Z</time>
      </trkpt>
      <trkpt lat="46.03475" lon="4.75725">
        <ele>189</ele>
        <time>2018-06-26T10:02:36Z</time>
      </trkpt>
      <trkpt lat="46.03472" lon="4.75718">
        <ele>189</ele>
        <time>2018-06-26T10:02:37Z</time>
      </trkpt>
      <trkpt lat="46.03469" lon="4.7571">
        <ele>189</ele>
        <time>2018-06-26T10:02:38Z</time>
      </trkpt>
      <trkpt lat="46.03469" lon="4.75702">
        <ele>189</ele>
        <time>2018-06-26T10:02:39Z</time>
      </trkpt>
      <trkpt lat="46.03467" lon="4.75694">
        <ele>189</ele>
        <time>2018-06-26T10:02:40Z</time>
      </trkpt>
      <trkpt lat="46.03464" lon="4.75687">
        <ele>189</ele>
        <time>2018-06-26T10:02:41Z</time>
      </trkpt>
      <trkpt lat="46.03461" lon="4.7568">
        <ele>189</ele>
        <time>2018-06-26T10:02:42Z</time>
      </trkpt>
      <trkpt lat="46.03458" lon="4.75673">
        <ele>189</ele>
        <time>2018-06-26T10:02:43Z</time>
      </trkpt>
      <trkpt lat="46.03456" lon="4.75666">
        <ele>188</ele>
        <time>2018-06-26T10:02:44Z</time>
      </trkpt>
      <trkpt lat="46.03453" lon="4.75657">
        <ele>188</ele>
        <time>2018-06-26T10:02:45Z</time>
      </trkpt>
      <trkpt lat="46.03449" lon="4.7565">
        <ele>188</ele>
        <time>2018-06-26T10:02:46Z</time>
      </trkpt>
      <trkpt lat="46.03446" lon="4.75644">
        <ele>188</ele>
        <time>2018-06-26T10:02:47Z</time>
      </trkpt>
      <trkpt lat="46.03445" lon="4.75638">
        <ele>188</ele>
        <time>2018-06-26T10:02:48Z</time>
      </trkpt>
      <trkpt lat="46.03441" lon="4.75628">
        <ele>188</ele>
        <time>2018-06-26T10:02:51Z</time>
      </trkpt>
      <trkpt lat="46.03435" lon="4.75622">
        <ele>188</ele>
        <time>2018-06-26T10:02:52Z</time>
      </trkpt>
      <trkpt lat="46.03429" lon="4.75618">
        <ele>188</ele>
        <time>2018-06-26T10:02:54Z</time>
      </trkpt>
      <trkpt lat="46.03425" lon="4.75618">
        <ele>188</ele>
        <time>2018-06-26T10:02:55Z</time>
      </trkpt>
      <trkpt lat="46.0342" lon="4.75619">
        <ele>188</ele>
        <time>2018-06-26T10:02:56Z</time>
      </trkpt>
      <trkpt lat="46.03416" lon="4.75621">
        <ele>188</ele>
        <time>2018-06-26T10:02:57Z</time>
      </trkpt>
      <trkpt lat="46.03411" lon="4.75621">
        <ele>188</ele>
        <time>2018-06-26T10:02:58Z</time>
      </trkpt>
      <trkpt lat="46.03406" lon="4.75624">
        <ele>188</ele>
        <time>2018-06-26T10:02:59Z</time>
      </trkpt>
      <trkpt lat="46.03401" lon="4.75626">
        <ele>188</ele>
        <time>2018-06-26T10:03:00Z</time>
      </trkpt>
      <trkpt lat="46.03396" lon="4.75627">
        <ele>188</ele>
        <time>2018-06-26T10:03:01Z</time>
      </trkpt>
      <trkpt lat="46.03389" lon="4.75628">
        <ele>188</ele>
        <time>2018-06-26T10:03:02Z</time>
      </trkpt>
      <trkpt lat="46.03383" lon="4.75628">
        <ele>188</ele>
        <time>2018-06-26T10:03:03Z</time>
      </trkpt>
      <trkpt lat="46.03377" lon="4.75629">
        <ele>188</ele>
        <time>2018-06-26T10:03:04Z</time>
      </trkpt>
      <trkpt lat="46.03371" lon="4.75629">
        <ele>188</ele>
        <time>2018-06-26T10:03:05Z</time>
      </trkpt>
      <trkpt lat="46.03365" lon="4.75629">
        <ele>188</ele>
        <time>2018-06-26T10:03:06Z</time>
      </trkpt>
      <trkpt lat="46.0336" lon="4.75631">
        <ele>188</ele>
        <time>2018-06-26T10:03:07Z</time>
      </trkpt>
      <trkpt lat="46.03354" lon="4.7563">
        <ele>188</ele>
        <time>2018-06-26T10:03:08Z</time>
      </trkpt>
      <trkpt lat="46.03348" lon="4.7563">
        <ele>188</ele>
        <time>2018-06-26T10:03:09Z</time>
      </trkpt>
      <trkpt lat="46.03342" lon="4.7563">
        <ele>188</ele>
        <time>2018-06-26T10:03:10Z</time>
      </trkpt>
      <trkpt lat="46.03335" lon="4.75632">
        <ele>188</ele>
        <time>2018-06-26T10:03:11Z</time>
      </trkpt>
      <trkpt lat="46.03331" lon="4.75632">
        <ele>189</ele>
        <time>2018-06-26T10:03:12Z</time>
      </trkpt>
      <trkpt lat="46.03325" lon="4.75632">
        <ele>189</ele>
        <time>2018-06-26T10:03:13Z</time>
      </trkpt>
      <trkpt lat="46.03319" lon="4.75631">
        <ele>189</ele>
        <time>2018-06-26T10:03:14Z</time>
      </trkpt>
      <trkpt lat="46.03314" lon="4.7563">
        <ele>189</ele>
        <time>2018-06-26T10:03:15Z</time>
      </trkpt>
      <trkpt lat="46.03306" lon="4.75628">
        <ele>189</ele>
        <time>2018-06-26T10:03:17Z</time>
      </trkpt>
      <trkpt lat="46.03304" lon="4.75628">
        <ele>189</ele>
        <time>2018-06-26T10:03:18Z</time>
      </trkpt>
      <trkpt lat="46.03295" lon="4.75627">
        <ele>189</ele>
        <time>2018-06-26T10:03:25Z</time>
      </trkpt>
      <trkpt lat="46.03295" lon="4.75628">
        <ele>189</ele>
        <time>2018-06-26T10:03:26Z</time>
      </trkpt>
      <trkpt lat="46.03289" lon="4.75637">
        <ele>190</ele>
        <time>2018-06-26T10:03:31Z</time>
      </trkpt>
      <trkpt lat="46.03284" lon="4.75646">
        <ele>190</ele>
        <time>2018-06-26T10:03:32Z</time>
      </trkpt>
      <trkpt lat="46.03278" lon="4.75653">
        <ele>191</ele>
        <time>2018-06-26T10:03:34Z</time>
      </trkpt>
      <trkpt lat="46.03272" lon="4.75653">
        <ele>191</ele>
        <time>2018-06-26T10:03:35Z</time>
      </trkpt>
      <trkpt lat="46.03268" lon="4.75657">
        <ele>192</ele>
        <time>2018-06-26T10:03:37Z</time>
      </trkpt>
      <trkpt lat="46.03259" lon="4.75661">
        <ele>193</ele>
        <time>2018-06-26T10:03:38Z</time>
      </trkpt>
      <trkpt lat="46.03255" lon="4.75662">
        <ele>194</ele>
        <time>2018-06-26T10:03:39Z</time>
      </trkpt>
      <trkpt lat="46.03249" lon="4.75663">
        <ele>194</ele>
        <time>2018-06-26T10:03:40Z</time>
      </trkpt>
      <trkpt lat="46.03242" lon="4.75665">
        <ele>193</ele>
        <time>2018-06-26T10:03:41Z</time>
      </trkpt>
      <trkpt lat="46.03237" lon="4.75667">
        <ele>192</ele>
        <time>2018-06-26T10:03:42Z</time>
      </trkpt>
      <trkpt lat="46.03232" lon="4.75668">
        <ele>194</ele>
        <time>2018-06-26T10:03:43Z</time>
      </trkpt>
      <trkpt lat="46.03224" lon="4.75671">
        <ele>194</ele>
        <time>2018-06-26T10:03:44Z</time>
      </trkpt>
      <trkpt lat="46.03217" lon="4.75672">
        <ele>193</ele>
        <time>2018-06-26T10:03:45Z</time>
      </trkpt>
      <trkpt lat="46.03211" lon="4.75673">
        <ele>193</ele>
        <time>2018-06-26T10:03:46Z</time>
      </trkpt>
      <trkpt lat="46.03205" lon="4.75674">
        <ele>193</ele>
        <time>2018-06-26T10:03:47Z</time>
      </trkpt>
      <trkpt lat="46.03199" lon="4.75674">
        <ele>192</ele>
        <time>2018-06-26T10:03:48Z</time>
      </trkpt>
      <trkpt lat="46.03193" lon="4.75675">
        <ele>192</ele>
        <time>2018-06-26T10:03:49Z</time>
      </trkpt>
      <trkpt lat="46.03188" lon="4.75676">
        <ele>191</ele>
        <time>2018-06-26T10:03:50Z</time>
      </trkpt>
      <trkpt lat="46.03182" lon="4.75676">
        <ele>191</ele>
        <time>2018-06-26T10:03:51Z</time>
      </trkpt>
      <trkpt lat="46.03175" lon="4.75676">
        <ele>190</ele>
        <time>2018-06-26T10:03:52Z</time>
      </trkpt>
      <trkpt lat="46.03169" lon="4.75675">
        <ele>190</ele>
        <time>2018-06-26T10:03:53Z</time>
      </trkpt>
      <trkpt lat="46.03164" lon="4.75677">
        <ele>188</ele>
        <time>2018-06-26T10:03:54Z</time>
      </trkpt>
      <trkpt lat="46.03157" lon="4.75679">
        <ele>187</ele>
        <time>2018-06-26T10:03:55Z</time>
      </trkpt>
      <trkpt lat="46.03152" lon="4.75679">
        <ele>187</ele>
        <time>2018-06-26T10:03:56Z</time>
      </trkpt>
      <trkpt lat="46.03146" lon="4.7568">
        <ele>187</ele>
        <time>2018-06-26T10:03:57Z</time>
      </trkpt>
      <trkpt lat="46.0314" lon="4.75679">
        <ele>187</ele>
        <time>2018-06-26T10:03:58Z</time>
      </trkpt>
      <trkpt lat="46.03136" lon="4.7568">
        <ele>187</ele>
        <time>2018-06-26T10:03:59Z</time>
      </trkpt>
      <trkpt lat="46.0313" lon="4.75681">
        <ele>187</ele>
        <time>2018-06-26T10:04:00Z</time>
      </trkpt>
      <trkpt lat="46.03124" lon="4.75682">
        <ele>186</ele>
        <time>2018-06-26T10:04:01Z</time>
      </trkpt>
      <trkpt lat="46.03116" lon="4.75681">
        <ele>186</ele>
        <time>2018-06-26T10:04:02Z</time>
      </trkpt>
      <trkpt lat="46.03109" lon="4.75682">
        <ele>186</ele>
        <time>2018-06-26T10:04:03Z</time>
      </trkpt>
      <trkpt lat="46.03103" lon="4.75682">
        <ele>186</ele>
        <time>2018-06-26T10:04:04Z</time>
      </trkpt>
      <trkpt lat="46.03096" lon="4.75687">
        <ele>186</ele>
        <time>2018-06-26T10:04:05Z</time>
      </trkpt>
      <trkpt lat="46.0309" lon="4.75687">
        <ele>185</ele>
        <time>2018-06-26T10:04:06Z</time>
      </trkpt>
      <trkpt lat="46.03084" lon="4.75688">
        <ele>185</ele>
        <time>2018-06-26T10:04:07Z</time>
      </trkpt>
      <trkpt lat="46.03078" lon="4.75688">
        <ele>184</ele>
        <time>2018-06-26T10:04:08Z</time>
      </trkpt>
      <trkpt lat="46.03071" lon="4.75689">
        <ele>184</ele>
        <time>2018-06-26T10:04:09Z</time>
      </trkpt>
      <trkpt lat="46.03066" lon="4.7569">
        <ele>184</ele>
        <time>2018-06-26T10:04:10Z</time>
      </trkpt>
      <trkpt lat="46.0306" lon="4.75692">
        <ele>184</ele>
        <time>2018-06-26T10:04:11Z</time>
      </trkpt>
      <trkpt lat="46.03054" lon="4.75693">
        <ele>184</ele>
        <time>2018-06-26T10:04:12Z</time>
      </trkpt>
      <trkpt lat="46.03048" lon="4.75695">
        <ele>184</ele>
        <time>2018-06-26T10:04:13Z</time>
      </trkpt>
      <trkpt lat="46.03042" lon="4.75698">
        <ele>184</ele>
        <time>2018-06-26T10:04:14Z</time>
      </trkpt>
      <trkpt lat="46.03037" lon="4.757">
        <ele>184</ele>
        <time>2018-06-26T10:04:15Z</time>
      </trkpt>
      <trkpt lat="46.0303" lon="4.75703">
        <ele>184</ele>
        <time>2018-06-26T10:04:16Z</time>
      </trkpt>
      <trkpt lat="46.03024" lon="4.75706">
        <ele>184</ele>
        <time>2018-06-26T10:04:17Z</time>
      </trkpt>
      <trkpt lat="46.03018" lon="4.75708">
        <ele>184</ele>
        <time>2018-06-26T10:04:18Z</time>
      </trkpt>
      <trkpt lat="46.03011" lon="4.75711">
        <ele>184</ele>
        <time>2018-06-26T10:04:19Z</time>
      </trkpt>
      <trkpt lat="46.03005" lon="4.75714">
        <ele>184</ele>
        <time>2018-06-26T10:04:20Z</time>
      </trkpt>
      <trkpt lat="46.02999" lon="4.75715">
        <ele>183</ele>
        <time>2018-06-26T10:04:21Z</time>
      </trkpt>
      <trkpt lat="46.02992" lon="4.75717">
        <ele>183</ele>
        <time>2018-06-26T10:04:22Z</time>
      </trkpt>
      <trkpt lat="46.02985" lon="4.75719">
        <ele>183</ele>
        <time>2018-06-26T10:04:23Z</time>
      </trkpt>
      <trkpt lat="46.02978" lon="4.75721">
        <ele>183</ele>
        <time>2018-06-26T10:04:24Z</time>
      </trkpt>
      <trkpt lat="46.02972" lon="4.75724">
        <ele>183</ele>
        <time>2018-06-26T10:04:25Z</time>
      </trkpt>
      <trkpt lat="46.02966" lon="4.75725">
        <ele>183</ele>
        <time>2018-06-26T10:04:26Z</time>
      </trkpt>
      <trkpt lat="46.02959" lon="4.75727">
        <ele>183</ele>
        <time>2018-06-26T10:04:27Z</time>
      </trkpt>
      <trkpt lat="46.02953" lon="4.75728">
        <ele>183</ele>
        <time>2018-06-26T10:04:28Z</time>
      </trkpt>
      <trkpt lat="46.02948" lon="4.7573">
        <ele>183</ele>
        <time>2018-06-26T10:04:29Z</time>
      </trkpt>
      <trkpt lat="46.02942" lon="4.7573">
        <ele>183</ele>
        <time>2018-06-26T10:04:30Z</time>
      </trkpt>
      <trkpt lat="46.02935" lon="4.7573">
        <ele>183</ele>
        <time>2018-06-26T10:04:31Z</time>
      </trkpt>
      <trkpt lat="46.02929" lon="4.75733">
        <ele>183</ele>
        <time>2018-06-26T10:04:32Z</time>
      </trkpt>
      <trkpt lat="46.02922" lon="4.75733">
        <ele>183</ele>
        <time>2018-06-26T10:04:33Z</time>
      </trkpt>
      <trkpt lat="46.02916" lon="4.75733">
        <ele>183</ele>
        <time>2018-06-26T10:04:34Z</time>
      </trkpt>
      <trkpt lat="46.0291" lon="4.75733">
        <ele>183</ele>
        <time>2018-06-26T10:04:35Z</time>
      </trkpt>
      <trkpt lat="46.02904" lon="4.75734">
        <ele>183</ele>
        <time>2018-06-26T10:04:36Z</time>
      </trkpt>
      <trkpt lat="46.02897" lon="4.75735">
        <ele>183</ele>
        <time>2018-06-26T10:04:37Z</time>
      </trkpt>
      <trkpt lat="46.0289" lon="4.75736">
        <ele>183</ele>
        <time>2018-06-26T10:04:38Z</time>
      </trkpt>
      <trkpt lat="46.02883" lon="4.75736">
        <ele>183</ele>
        <time>2018-06-26T10:04:39Z</time>
      </trkpt>
      <trkpt lat="46.02877" lon="4.75736">
        <ele>184</ele>
        <time>2018-06-26T10:04:40Z</time>
      </trkpt>
      <trkpt lat="46.02872" lon="4.75737">
        <ele>184</ele>
        <time>2018-06-26T10:04:41Z</time>
      </trkpt>
      <trkpt lat="46.02865" lon="4.75738">
        <ele>184</ele>
        <time>2018-06-26T10:04:42Z</time>
      </trkpt>
      <trkpt lat="46.02858" lon="4.75737">
        <ele>184</ele>
        <time>2018-06-26T10:04:43Z</time>
      </trkpt>
      <trkpt lat="46.0285" lon="4.75735">
        <ele>184</ele>
        <time>2018-06-26T10:04:44Z</time>
      </trkpt>
      <trkpt lat="46.02843" lon="4.75732">
        <ele>184</ele>
        <time>2018-06-26T10:04:45Z</time>
      </trkpt>
      <trkpt lat="46.02836" lon="4.75731">
        <ele>185</ele>
        <time>2018-06-26T10:04:46Z</time>
      </trkpt>
      <trkpt lat="46.02828" lon="4.7573">
        <ele>184</ele>
        <time>2018-06-26T10:04:47Z</time>
      </trkpt>
      <trkpt lat="46.02821" lon="4.75729">
        <ele>184</ele>
        <time>2018-06-26T10:04:48Z</time>
      </trkpt>
      <trkpt lat="46.02813" lon="4.75728">
        <ele>184</ele>
        <time>2018-06-26T10:04:49Z</time>
      </trkpt>
      <trkpt lat="46.02807" lon="4.75728">
        <ele>184</ele>
        <time>2018-06-26T10:04:50Z</time>
      </trkpt>
      <trkpt lat="46.02799" lon="4.75726">
        <ele>184</ele>
        <time>2018-06-26T10:04:51Z</time>
      </trkpt>
      <trkpt lat="46.02792" lon="4.75724">
        <ele>183</ele>
        <time>2018-06-26T10:04:52Z</time>
      </trkpt>
      <trkpt lat="46.02784" lon="4.75723">
        <ele>183</ele>
        <time>2018-06-26T10:04:53Z</time>
      </trkpt>
      <trkpt lat="46.02778" lon="4.75723">
        <ele>183</ele>
        <time>2018-06-26T10:04:54Z</time>
      </trkpt>
      <trkpt lat="46.02771" lon="4.75723">
        <ele>183</ele>
        <time>2018-06-26T10:04:55Z</time>
      </trkpt>
      <trkpt lat="46.02765" lon="4.75724">
        <ele>184</ele>
        <time>2018-06-26T10:04:56Z</time>
      </trkpt>
      <trkpt lat="46.02758" lon="4.75724">
        <ele>184</ele>
        <time>2018-06-26T10:04:57Z</time>
      </trkpt>
      <trkpt lat="46.02751" lon="4.75726">
        <ele>184</ele>
        <time>2018-06-26T10:04:58Z</time>
      </trkpt>
      <trkpt lat="46.02745" lon="4.75726">
        <ele>183</ele>
        <time>2018-06-26T10:04:59Z</time>
      </trkpt>
      <trkpt lat="46.02739" lon="4.75727">
        <ele>183</ele>
        <time>2018-06-26T10:05:00Z</time>
      </trkpt>
      <trkpt lat="46.02734" lon="4.75731">
        <ele>183</ele>
        <time>2018-06-26T10:05:01Z</time>
      </trkpt>
      <trkpt lat="46.02728" lon="4.75733">
        <ele>183</ele>
        <time>2018-06-26T10:05:02Z</time>
      </trkpt>
      <trkpt lat="46.02724" lon="4.75737">
        <ele>183</ele>
        <time>2018-06-26T10:05:03Z</time>
      </trkpt>
      <trkpt lat="46.02719" lon="4.7574">
        <ele>183</ele>
        <time>2018-06-26T10:05:04Z</time>
      </trkpt>
      <trkpt lat="46.02714" lon="4.75744">
        <ele>182</ele>
        <time>2018-06-26T10:05:05Z</time>
      </trkpt>
      <trkpt lat="46.02709" lon="4.75746">
        <ele>182</ele>
        <time>2018-06-26T10:05:06Z</time>
      </trkpt>
      <trkpt lat="46.02704" lon="4.75747">
        <ele>182</ele>
        <time>2018-06-26T10:05:07Z</time>
      </trkpt>
      <trkpt lat="46.02698" lon="4.75749">
        <ele>182</ele>
        <time>2018-06-26T10:05:08Z</time>
      </trkpt>
      <trkpt lat="46.02694" lon="4.75753">
        <ele>184</ele>
        <time>2018-06-26T10:05:09Z</time>
      </trkpt>
      <trkpt lat="46.02688" lon="4.75754">
        <ele>184</ele>
        <time>2018-06-26T10:05:10Z</time>
      </trkpt>
      <trkpt lat="46.02683" lon="4.75755">
        <ele>183</ele>
        <time>2018-06-26T10:05:11Z</time>
      </trkpt>
      <trkpt lat="46.02678" lon="4.75755">
        <ele>183</ele>
        <time>2018-06-26T10:05:12Z</time>
      </trkpt>
      <trkpt lat="46.02673" lon="4.75757">
        <ele>183</ele>
        <time>2018-06-26T10:05:13Z</time>
      </trkpt>
      <trkpt lat="46.02668" lon="4.75757">
        <ele>182</ele>
        <time>2018-06-26T10:05:14Z</time>
      </trkpt>
      <trkpt lat="46.02663" lon="4.75756">
        <ele>181</ele>
        <time>2018-06-26T10:05:15Z</time>
      </trkpt>
      <trkpt lat="46.02658" lon="4.75754">
        <ele>182</ele>
        <time>2018-06-26T10:05:16Z</time>
      </trkpt>
      <trkpt lat="46.02653" lon="4.75753">
        <ele>182</ele>
        <time>2018-06-26T10:05:17Z</time>
      </trkpt>
      <trkpt lat="46.02649" lon="4.75753">
        <ele>182</ele>
        <time>2018-06-26T10:05:18Z</time>
      </trkpt>
      <trkpt lat="46.02642" lon="4.7575">
        <ele>182</ele>
        <time>2018-06-26T10:05:20Z</time>
      </trkpt>
      <trkpt lat="46.02637" lon="4.7575">
        <ele>182</ele>
        <time>2018-06-26T10:05:21Z</time>
      </trkpt>
      <trkpt lat="46.02628" lon="4.75748">
        <ele>182</ele>
        <time>2018-06-26T10:05:25Z</time>
      </trkpt>
      <trkpt lat="46.02625" lon="4.75747">
        <ele>182</ele>
        <time>2018-06-26T10:05:26Z</time>
      </trkpt>
      <trkpt lat="46.02618" lon="4.75746">
        <ele>182</ele>
        <time>2018-06-26T10:05:28Z</time>
      </trkpt>
      <trkpt lat="46.02614" lon="4.75745">
        <ele>182</ele>
        <time>2018-06-26T10:05:29Z</time>
      </trkpt>
      <trkpt lat="46.02608" lon="4.75745">
        <ele>182</ele>
        <time>2018-06-26T10:05:31Z</time>
      </trkpt>
      <trkpt lat="46.02604" lon="4.75745">
        <ele>183</ele>
        <time>2018-06-26T10:05:32Z</time>
      </trkpt>
      <trkpt lat="46.02597" lon="4.75745">
        <ele>183</ele>
        <time>2018-06-26T10:05:34Z</time>
      </trkpt>
      <trkpt lat="46.02594" lon="4.75745">
        <ele>183</ele>
        <time>2018-06-26T10:05:35Z</time>
      </trkpt>
      <trkpt lat="46.02586" lon="4.75743">
        <ele>183</ele>
        <time>2018-06-26T10:05:38Z</time>
      </trkpt>
      <trkpt lat="46.02584" lon="4.75742">
        <ele>183</ele>
        <time>2018-06-26T10:05:39Z</time>
      </trkpt>
      <trkpt lat="46.02576" lon="4.75741">
        <ele>184</ele>
        <time>2018-06-26T10:05:42Z</time>
      </trkpt>
      <trkpt lat="46.02574" lon="4.75741">
        <ele>184</ele>
        <time>2018-06-26T10:05:43Z</time>
      </trkpt>
      <trkpt lat="46.02565" lon="4.7574">
        <ele>185</ele>
        <time>2018-06-26T10:05:46Z</time>
      </trkpt>
      <trkpt lat="46.02562" lon="4.7574">
        <ele>185</ele>
        <time>2018-06-26T10:05:47Z</time>
      </trkpt>
      <trkpt lat="46.02554" lon="4.7574">
        <ele>186</ele>
        <time>2018-06-26T10:05:50Z</time>
      </trkpt>
      <trkpt lat="46.02551" lon="4.7574">
        <ele>186</ele>
        <time>2018-06-26T10:05:51Z</time>
      </trkpt>
      <trkpt lat="46.02543" lon="4.75739">
        <ele>186</ele>
        <time>2018-06-26T10:05:54Z</time>
      </trkpt>
      <trkpt lat="46.0254" lon="4.7574">
        <ele>186</ele>
        <time>2018-06-26T10:05:55Z</time>
      </trkpt>
      <trkpt lat="46.02534" lon="4.7574">
        <ele>187</ele>
        <time>2018-06-26T10:05:57Z</time>
      </trkpt>
      <trkpt lat="46.02531" lon="4.7574">
        <ele>187</ele>
        <time>2018-06-26T10:05:58Z</time>
      </trkpt>
      <trkpt lat="46.02522" lon="4.75742">
        <ele>188</ele>
        <time>2018-06-26T10:06:01Z</time>
      </trkpt>
      <trkpt lat="46.02519" lon="4.75743">
        <ele>188</ele>
        <time>2018-06-26T10:06:02Z</time>
      </trkpt>
      <trkpt lat="46.02511" lon="4.75746">
        <ele>189</ele>
        <time>2018-06-26T10:06:05Z</time>
      </trkpt>
      <trkpt lat="46.02508" lon="4.75748">
        <ele>189</ele>
        <time>2018-06-26T10:06:06Z</time>
      </trkpt>
      <trkpt lat="46.025" lon="4.75752">
        <ele>190</ele>
        <time>2018-06-26T10:06:09Z</time>
      </trkpt>
      <trkpt lat="46.02498" lon="4.75754">
        <ele>190</ele>
        <time>2018-06-26T10:06:10Z</time>
      </trkpt>
      <trkpt lat="46.02489" lon="4.75757">
        <ele>190</ele>
        <time>2018-06-26T10:06:13Z</time>
      </trkpt>
      <trkpt lat="46.02486" lon="4.75758">
        <ele>190</ele>
        <time>2018-06-26T10:06:14Z</time>
      </trkpt>
      <trkpt lat="46.0248" lon="4.75761">
        <ele>191</ele>
        <time>2018-06-26T10:06:16Z</time>
      </trkpt>
      <trkpt lat="46.02477" lon="4.75762">
        <ele>191</ele>
        <time>2018-06-26T10:06:17Z</time>
      </trkpt>
      <trkpt lat="46.0247" lon="4.75767">
        <ele>191</ele>
        <time>2018-06-26T10:06:20Z</time>
      </trkpt>
      <trkpt lat="46.02467" lon="4.75768">
        <ele>191</ele>
        <time>2018-06-26T10:06:21Z</time>
      </trkpt>
      <trkpt lat="46.0246" lon="4.75773">
        <ele>191</ele>
        <time>2018-06-26T10:06:24Z</time>
      </trkpt>
      <trkpt lat="46.02458" lon="4.75774">
        <ele>191</ele>
        <time>2018-06-26T10:06:25Z</time>
      </trkpt>
      <trkpt lat="46.02451" lon="4.75777">
        <ele>191</ele>
        <time>2018-06-26T10:06:28Z</time>
      </trkpt>
      <trkpt lat="46.02449" lon="4.75778">
        <ele>191</ele>
        <time>2018-06-26T10:06:29Z</time>
      </trkpt>
      <trkpt lat="46.0244" lon="4.75783">
        <ele>191</ele>
        <time>2018-06-26T10:06:32Z</time>
      </trkpt>
      <trkpt lat="46.02437" lon="4.75785">
        <ele>191</ele>
        <time>2018-06-26T10:06:33Z</time>
      </trkpt>
      <trkpt lat="46.02431" lon="4.75789">
        <ele>191</ele>
        <time>2018-06-26T10:06:35Z</time>
      </trkpt>
      <trkpt lat="46.02428" lon="4.75791">
        <ele>191</ele>
        <time>2018-06-26T10:06:36Z</time>
      </trkpt>
      <trkpt lat="46.02421" lon="4.75795">
        <ele>192</ele>
        <time>2018-06-26T10:06:38Z</time>
      </trkpt>
      <trkpt lat="46.02412" lon="4.75801">
        <ele>192</ele>
        <time>2018-06-26T10:06:39Z</time>
      </trkpt>
      <trkpt lat="46.02407" lon="4.75803">
        <ele>192</ele>
        <time>2018-06-26T10:06:40Z</time>
      </trkpt>
      <trkpt lat="46.02403" lon="4.75806">
        <ele>192</ele>
        <time>2018-06-26T10:06:41Z</time>
      </trkpt>
      <trkpt lat="46.02395" lon="4.7581">
        <ele>192</ele>
        <time>2018-06-26T10:06:43Z</time>
      </trkpt>
      <trkpt lat="46.02394" lon="4.75812">
        <ele>192</ele>
        <time>2018-06-26T10:06:44Z</time>
      </trkpt>
      <trkpt lat="46.02387" lon="4.75817">
        <ele>192</ele>
        <time>2018-06-26T10:06:47Z</time>
      </trkpt>
      <trkpt lat="46.02385" lon="4.75819">
        <ele>192</ele>
        <time>2018-06-26T10:06:48Z</time>
      </trkpt>
      <trkpt lat="46.02382" lon="4.75821">
        <ele>192</ele>
        <time>2018-06-26T10:06:49Z</time>
      </trkpt>
      <trkpt lat="46.02375" lon="4.75827">
        <ele>192</ele>
        <time>2018-06-26T10:06:50Z</time>
      </trkpt>
      <trkpt lat="46.02367" lon="4.75832">
        <ele>192</ele>
        <time>2018-06-26T10:06:52Z</time>
      </trkpt>
      <trkpt lat="46.02363" lon="4.75836">
        <ele>193</ele>
        <time>2018-06-26T10:06:53Z</time>
      </trkpt>
      <trkpt lat="46.02356" lon="4.75842">
        <ele>193</ele>
        <time>2018-06-26T10:06:55Z</time>
      </trkpt>
      <trkpt lat="46.02352" lon="4.75844">
        <ele>193</ele>
        <time>2018-06-26T10:06:56Z</time>
      </trkpt>
      <trkpt lat="46.02345" lon="4.75849">
        <ele>193</ele>
        <time>2018-06-26T10:06:58Z</time>
      </trkpt>
      <trkpt lat="46.02341" lon="4.75852">
        <ele>193</ele>
        <time>2018-06-26T10:06:59Z</time>
      </trkpt>
      <trkpt lat="46.02335" lon="4.75858">
        <ele>193</ele>
        <time>2018-06-26T10:07:01Z</time>
      </trkpt>
      <trkpt lat="46.02332" lon="4.75861">
        <ele>193</ele>
        <time>2018-06-26T10:07:02Z</time>
      </trkpt>
      <trkpt lat="46.02328" lon="4.75864">
        <ele>193</ele>
        <time>2018-06-26T10:07:03Z</time>
      </trkpt>
      <trkpt lat="46.02324" lon="4.75868">
        <ele>193</ele>
        <time>2018-06-26T10:07:04Z</time>
      </trkpt>
      <trkpt lat="46.02318" lon="4.75874">
        <ele>193</ele>
        <time>2018-06-26T10:07:06Z</time>
      </trkpt>
      <trkpt lat="46.02312" lon="4.7588">
        <ele>193</ele>
        <time>2018-06-26T10:07:07Z</time>
      </trkpt>
      <trkpt lat="46.02308" lon="4.75884">
        <ele>193</ele>
        <time>2018-06-26T10:07:08Z</time>
      </trkpt>
      <trkpt lat="46.02302" lon="4.75889">
        <ele>193</ele>
        <time>2018-06-26T10:07:09Z</time>
      </trkpt>
      <trkpt lat="46.02298" lon="4.75893">
        <ele>193</ele>
        <time>2018-06-26T10:07:10Z</time>
      </trkpt>
      <trkpt lat="46.02293" lon="4.75898">
        <ele>193</ele>
        <time>2018-06-26T10:07:11Z</time>
      </trkpt>
      <trkpt lat="46.02287" lon="4.75902">
        <ele>193</ele>
        <time>2018-06-26T10:07:12Z</time>
      </trkpt>
      <trkpt lat="46.02283" lon="4.75906">
        <ele>193</ele>
        <time>2018-06-26T10:07:13Z</time>
      </trkpt>
      <trkpt lat="46.02279" lon="4.75911">
        <ele>193</ele>
        <time>2018-06-26T10:07:14Z</time>
      </trkpt>
      <trkpt lat="46.02273" lon="4.75916">
        <ele>193</ele>
        <time>2018-06-26T10:07:15Z</time>
      </trkpt>
      <trkpt lat="46.02269" lon="4.75921">
        <ele>193</ele>
        <time>2018-06-26T10:07:16Z</time>
      </trkpt>
      <trkpt lat="46.02264" lon="4.75927">
        <ele>193</ele>
        <time>2018-06-26T10:07:17Z</time>
      </trkpt>
      <trkpt lat="46.02258" lon="4.75931">
        <ele>193</ele>
        <time>2018-06-26T10:07:18Z</time>
      </trkpt>
      <trkpt lat="46.02253" lon="4.75936">
        <ele>193</ele>
        <time>2018-06-26T10:07:19Z</time>
      </trkpt>
      <trkpt lat="46.02247" lon="4.7594">
        <ele>193</ele>
        <time>2018-06-26T10:07:20Z</time>
      </trkpt>
      <trkpt lat="46.02244" lon="4.75946">
        <ele>193</ele>
        <time>2018-06-26T10:07:21Z</time>
      </trkpt>
      <trkpt lat="46.02241" lon="4.75951">
        <ele>193</ele>
        <time>2018-06-26T10:07:22Z</time>
      </trkpt>
      <trkpt lat="46.02235" lon="4.75957">
        <ele>193</ele>
        <time>2018-06-26T10:07:23Z</time>
      </trkpt>
      <trkpt lat="46.02229" lon="4.75962">
        <ele>193</ele>
        <time>2018-06-26T10:07:24Z</time>
      </trkpt>
      <trkpt lat="46.02223" lon="4.75968">
        <ele>193</ele>
        <time>2018-06-26T10:07:25Z</time>
      </trkpt>
      <trkpt lat="46.02218" lon="4.75973">
        <ele>193</ele>
        <time>2018-06-26T10:07:26Z</time>
      </trkpt>
      <trkpt lat="46.02212" lon="4.75978">
        <ele>193</ele>
        <time>2018-06-26T10:07:27Z</time>
      </trkpt>
      <trkpt lat="46.02206" lon="4.75979">
        <ele>192</ele>
        <time>2018-06-26T10:07:28Z</time>
      </trkpt>
      <trkpt lat="46.02199" lon="4.75984">
        <ele>192</ele>
        <time>2018-06-26T10:07:29Z</time>
      </trkpt>
      <trkpt lat="46.02193" lon="4.75989">
        <ele>192</ele>
        <time>2018-06-26T10:07:30Z</time>
      </trkpt>
      <trkpt lat="46.02187" lon="4.75995">
        <ele>192</ele>
        <time>2018-06-26T10:07:31Z</time>
      </trkpt>
      <trkpt lat="46.0218" lon="4.75999">
        <ele>192</ele>
        <time>2018-06-26T10:07:32Z</time>
      </trkpt>
      <trkpt lat="46.02176" lon="4.76004">
        <ele>193</ele>
        <time>2018-06-26T10:07:33Z</time>
      </trkpt>
      <trkpt lat="46.02171" lon="4.76009">
        <ele>193</ele>
        <time>2018-06-26T10:07:34Z</time>
      </trkpt>
      <trkpt lat="46.02165" lon="4.76014">
        <ele>193</ele>
        <time>2018-06-26T10:07:35Z</time>
      </trkpt>
      <trkpt lat="46.0216" lon="4.76018">
        <ele>193</ele>
        <time>2018-06-26T10:07:36Z</time>
      </trkpt>
      <trkpt lat="46.02154" lon="4.76023">
        <ele>193</ele>
        <time>2018-06-26T10:07:37Z</time>
      </trkpt>
      <trkpt lat="46.0215" lon="4.76027">
        <ele>193</ele>
        <time>2018-06-26T10:07:38Z</time>
      </trkpt>
      <trkpt lat="46.02146" lon="4.76031">
        <ele>193</ele>
        <time>2018-06-26T10:07:39Z</time>
      </trkpt>
      <trkpt lat="46.02142" lon="4.76036">
        <ele>193</ele>
        <time>2018-06-26T10:07:40Z</time>
      </trkpt>
      <trkpt lat="46.02138" lon="4.7604">
        <ele>193</ele>
        <time>2018-06-26T10:07:41Z</time>
      </trkpt>
      <trkpt lat="46.02134" lon="4.76044">
        <ele>193</ele>
        <time>2018-06-26T10:07:42Z</time>
      </trkpt>
      <trkpt lat="46.02129" lon="4.76049">
        <ele>194</ele>
        <time>2018-06-26T10:07:43Z</time>
      </trkpt>
      <trkpt lat="46.02125" lon="4.76053">
        <ele>194</ele>
        <time>2018-06-26T10:07:44Z</time>
      </trkpt>
      <trkpt lat="46.0212" lon="4.76056">
        <ele>194</ele>
        <time>2018-06-26T10:07:45Z</time>
      </trkpt>
      <trkpt lat="46.02114" lon="4.7606">
        <ele>194</ele>
        <time>2018-06-26T10:07:46Z</time>
      </trkpt>
      <trkpt lat="46.02111" lon="4.76065">
        <ele>194</ele>
        <time>2018-06-26T10:07:47Z</time>
      </trkpt>
      <trkpt lat="46.02107" lon="4.76067">
        <ele>194</ele>
        <time>2018-06-26T10:07:48Z</time>
      </trkpt>
      <trkpt lat="46.02102" lon="4.7607">
        <ele>194</ele>
        <time>2018-06-26T10:07:49Z</time>
      </trkpt>
      <trkpt lat="46.02097" lon="4.76074">
        <ele>195</ele>
        <time>2018-06-26T10:07:50Z</time>
      </trkpt>
      <trkpt lat="46.02091" lon="4.76077">
        <ele>195</ele>
        <time>2018-06-26T10:07:51Z</time>
      </trkpt>
      <trkpt lat="46.02085" lon="4.7608">
        <ele>196</ele>
        <time>2018-06-26T10:07:52Z</time>
      </trkpt>
      <trkpt lat="46.0208" lon="4.76082">
        <ele>196</ele>
        <time>2018-06-26T10:07:53Z</time>
      </trkpt>
      <trkpt lat="46.02075" lon="4.76084">
        <ele>196</ele>
        <time>2018-06-26T10:07:54Z</time>
      </trkpt>
      <trkpt lat="46.02068" lon="4.76085">
        <ele>197</ele>
        <time>2018-06-26T10:07:55Z</time>
      </trkpt>
      <trkpt lat="46.02063" lon="4.76086">
        <ele>197</ele>
        <time>2018-06-26T10:07:56Z</time>
      </trkpt>
      <trkpt lat="46.02058" lon="4.76087">
        <ele>197</ele>
        <time>2018-06-26T10:07:57Z</time>
      </trkpt>
      <trkpt lat="46.02049" lon="4.76089">
        <ele>197</ele>
        <time>2018-06-26T10:07:59Z</time>
      </trkpt>
      <trkpt lat="46.02044" lon="4.76091">
        <ele>197</ele>
        <time>2018-06-26T10:08:00Z</time>
      </trkpt>
      <trkpt lat="46.02037" lon="4.76093">
        <ele>197</ele>
        <time>2018-06-26T10:08:02Z</time>
      </trkpt>
      <trkpt lat="46.02032" lon="4.76094">
        <ele>197</ele>
        <time>2018-06-26T10:08:03Z</time>
      </trkpt>
      <trkpt lat="46.02024" lon="4.76098">
        <ele>197</ele>
        <time>2018-06-26T10:08:05Z</time>
      </trkpt>
      <trkpt lat="46.0202" lon="4.76101">
        <ele>197</ele>
        <time>2018-06-26T10:08:06Z</time>
      </trkpt>
      <trkpt lat="46.02012" lon="4.76103">
        <ele>197</ele>
        <time>2018-06-26T10:08:08Z</time>
      </trkpt>
      <trkpt lat="46.02006" lon="4.76103">
        <ele>197</ele>
        <time>2018-06-26T10:08:09Z</time>
      </trkpt>
      <trkpt lat="46.02003" lon="4.76103">
        <ele>197</ele>
        <time>2018-06-26T10:08:10Z</time>
      </trkpt>
      <trkpt lat="46.01995" lon="4.76105">
        <ele>198</ele>
        <time>2018-06-26T10:08:11Z</time>
      </trkpt>
      <trkpt lat="46.01986" lon="4.76107">
        <ele>198</ele>
        <time>2018-06-26T10:08:13Z</time>
      </trkpt>
      <trkpt lat="46.01984" lon="4.76107">
        <ele>198</ele>
        <time>2018-06-26T10:08:14Z</time>
      </trkpt>
      <trkpt lat="46.01982" lon="4.76108">
        <ele>198</ele>
        <time>2018-06-26T10:08:15Z</time>
      </trkpt>
      <trkpt lat="46.01975" lon="4.76109">
        <ele>198</ele>
        <time>2018-06-26T10:08:16Z</time>
      </trkpt>
      <trkpt lat="46.01971" lon="4.7611">
        <ele>198</ele>
        <time>2018-06-26T10:08:18Z</time>
      </trkpt>
      <trkpt lat="46.01963" lon="4.7611">
        <ele>198</ele>
        <time>2018-06-26T10:08:19Z</time>
      </trkpt>
      <trkpt lat="46.01958" lon="4.76111">
        <ele>198</ele>
        <time>2018-06-26T10:08:20Z</time>
      </trkpt>
      <trkpt lat="46.01953" lon="4.76113">
        <ele>198</ele>
        <time>2018-06-26T10:08:21Z</time>
      </trkpt>
      <trkpt lat="46.01946" lon="4.76116">
        <ele>198</ele>
        <time>2018-06-26T10:08:23Z</time>
      </trkpt>
      <trkpt lat="46.01938" lon="4.76118">
        <ele>198</ele>
        <time>2018-06-26T10:08:24Z</time>
      </trkpt>
      <trkpt lat="46.01932" lon="4.76118">
        <ele>198</ele>
        <time>2018-06-26T10:08:26Z</time>
      </trkpt>
      <trkpt lat="46.01925" lon="4.76119">
        <ele>198</ele>
        <time>2018-06-26T10:08:27Z</time>
      </trkpt>
      <trkpt lat="46.0192" lon="4.76121">
        <ele>198</ele>
        <time>2018-06-26T10:08:28Z</time>
      </trkpt>
      <trkpt lat="46.01914" lon="4.76123">
        <ele>199</ele>
        <time>2018-06-26T10:08:29Z</time>
      </trkpt>
      <trkpt lat="46.01906" lon="4.76125">
        <ele>199</ele>
        <time>2018-06-26T10:08:31Z</time>
      </trkpt>
      <trkpt lat="46.01901" lon="4.76125">
        <ele>199</ele>
        <time>2018-06-26T10:08:32Z</time>
      </trkpt>
      <trkpt lat="46.01896" lon="4.76127">
        <ele>199</ele>
        <time>2018-06-26T10:08:33Z</time>
      </trkpt>
      <trkpt lat="46.01891" lon="4.76128">
        <ele>199</ele>
        <time>2018-06-26T10:08:34Z</time>
      </trkpt>
      <trkpt lat="46.01883" lon="4.76128">
        <ele>199</ele>
        <time>2018-06-26T10:08:36Z</time>
      </trkpt>
      <trkpt lat="46.01879" lon="4.76128">
        <ele>199</ele>
        <time>2018-06-26T10:08:37Z</time>
      </trkpt>
      <trkpt lat="46.01875" lon="4.76131">
        <ele>199</ele>
        <time>2018-06-26T10:08:38Z</time>
      </trkpt>
      <trkpt lat="46.01868" lon="4.76129">
        <ele>199</ele>
        <time>2018-06-26T10:08:39Z</time>
      </trkpt>
      <trkpt lat="46.01862" lon="4.76129">
        <ele>199</ele>
        <time>2018-06-26T10:08:40Z</time>
      </trkpt>
      <trkpt lat="46.01858" lon="4.76128">
        <ele>199</ele>
        <time>2018-06-26T10:08:41Z</time>
      </trkpt>
      <trkpt lat="46.0185" lon="4.76126">
        <ele>199</ele>
        <time>2018-06-26T10:08:43Z</time>
      </trkpt>
      <trkpt lat="46.01843" lon="4.76127">
        <ele>199</ele>
        <time>2018-06-26T10:08:44Z</time>
      </trkpt>
      <trkpt lat="46.01839" lon="4.76126">
        <ele>199</ele>
        <time>2018-06-26T10:08:45Z</time>
      </trkpt>
      <trkpt lat="46.01832" lon="4.76125">
        <ele>198</ele>
        <time>2018-06-26T10:08:46Z</time>
      </trkpt>
      <trkpt lat="46.01824" lon="4.76128">
        <ele>198</ele>
        <time>2018-06-26T10:08:48Z</time>
      </trkpt>
      <trkpt lat="46.01819" lon="4.76129">
        <ele>198</ele>
        <time>2018-06-26T10:08:49Z</time>
      </trkpt>
      <trkpt lat="46.01814" lon="4.7613">
        <ele>198</ele>
        <time>2018-06-26T10:08:50Z</time>
      </trkpt>
      <trkpt lat="46.01809" lon="4.7613">
        <ele>198</ele>
        <time>2018-06-26T10:08:51Z</time>
      </trkpt>
      <trkpt lat="46.01804" lon="4.76129">
        <ele>198</ele>
        <time>2018-06-26T10:08:52Z</time>
      </trkpt>
      <trkpt lat="46.01799" lon="4.76128">
        <ele>198</ele>
        <time>2018-06-26T10:08:53Z</time>
      </trkpt>
      <trkpt lat="46.01794" lon="4.76126">
        <ele>198</ele>
        <time>2018-06-26T10:08:54Z</time>
      </trkpt>
      <trkpt lat="46.01787" lon="4.76125">
        <ele>198</ele>
        <time>2018-06-26T10:08:55Z</time>
      </trkpt>
      <trkpt lat="46.01783" lon="4.76124">
        <ele>198</ele>
        <time>2018-06-26T10:08:56Z</time>
      </trkpt>
      <trkpt lat="46.01776" lon="4.76122">
        <ele>198</ele>
        <time>2018-06-26T10:08:57Z</time>
      </trkpt>
      <trkpt lat="46.01771" lon="4.76122">
        <ele>198</ele>
        <time>2018-06-26T10:08:58Z</time>
      </trkpt>
      <trkpt lat="46.01765" lon="4.76124">
        <ele>198</ele>
        <time>2018-06-26T10:08:59Z</time>
      </trkpt>
      <trkpt lat="46.01758" lon="4.76126">
        <ele>198</ele>
        <time>2018-06-26T10:09:00Z</time>
      </trkpt>
      <trkpt lat="46.01753" lon="4.76126">
        <ele>198</ele>
        <time>2018-06-26T10:09:01Z</time>
      </trkpt>
      <trkpt lat="46.01747" lon="4.76126">
        <ele>197</ele>
        <time>2018-06-26T10:09:02Z</time>
      </trkpt>
      <trkpt lat="46.01742" lon="4.76124">
        <ele>197</ele>
        <time>2018-06-26T10:09:03Z</time>
      </trkpt>
      <trkpt lat="46.01737" lon="4.76122">
        <ele>197</ele>
        <time>2018-06-26T10:09:04Z</time>
      </trkpt>
      <trkpt lat="46.01732" lon="4.76121">
        <ele>197</ele>
        <time>2018-06-26T10:09:05Z</time>
      </trkpt>
      <trkpt lat="46.01727" lon="4.76121">
        <ele>197</ele>
        <time>2018-06-26T10:09:06Z</time>
      </trkpt>
      <trkpt lat="46.01722" lon="4.76121">
        <ele>197</ele>
        <time>2018-06-26T10:09:07Z</time>
      </trkpt>
      <trkpt lat="46.01717" lon="4.76121">
        <ele>197</ele>
        <time>2018-06-26T10:09:08Z</time>
      </trkpt>
      <trkpt lat="46.01712" lon="4.7612">
        <ele>198</ele>
        <time>2018-06-26T10:09:09Z</time>
      </trkpt>
      <trkpt lat="46.01705" lon="4.7612">
        <ele>198</ele>
        <time>2018-06-26T10:09:10Z</time>
      </trkpt>
      <trkpt lat="46.01701" lon="4.76119">
        <ele>198</ele>
        <time>2018-06-26T10:09:11Z</time>
      </trkpt>
      <trkpt lat="46.01696" lon="4.76119">
        <ele>198</ele>
        <time>2018-06-26T10:09:12Z</time>
      </trkpt>
      <trkpt lat="46.01691" lon="4.76119">
        <ele>198</ele>
        <time>2018-06-26T10:09:13Z</time>
      </trkpt>
      <trkpt lat="46.01683" lon="4.76117">
        <ele>198</ele>
        <time>2018-06-26T10:09:15Z</time>
      </trkpt>
      <trkpt lat="46.01678" lon="4.76119">
        <ele>198</ele>
        <time>2018-06-26T10:09:16Z</time>
      </trkpt>
      <trkpt lat="46.01672" lon="4.76117">
        <ele>198</ele>
        <time>2018-06-26T10:09:17Z</time>
      </trkpt>
      <trkpt lat="46.01668" lon="4.76116">
        <ele>198</ele>
        <time>2018-06-26T10:09:18Z</time>
      </trkpt>
      <trkpt lat="46.01659" lon="4.76116">
        <ele>199</ele>
        <time>2018-06-26T10:09:20Z</time>
      </trkpt>
      <trkpt lat="46.01654" lon="4.76114">
        <ele>199</ele>
        <time>2018-06-26T10:09:21Z</time>
      </trkpt>
      <trkpt lat="46.01649" lon="4.76113">
        <ele>199</ele>
        <time>2018-06-26T10:09:22Z</time>
      </trkpt>
      <trkpt lat="46.01645" lon="4.76113">
        <ele>199</ele>
        <time>2018-06-26T10:09:23Z</time>
      </trkpt>
      <trkpt lat="46.01639" lon="4.76112">
        <ele>199</ele>
        <time>2018-06-26T10:09:24Z</time>
      </trkpt>
      <trkpt lat="46.01634" lon="4.76112">
        <ele>199</ele>
        <time>2018-06-26T10:09:25Z</time>
      </trkpt>
      <trkpt lat="46.01629" lon="4.76112">
        <ele>199</ele>
        <time>2018-06-26T10:09:26Z</time>
      </trkpt>
      <trkpt lat="46.01624" lon="4.76112">
        <ele>200</ele>
        <time>2018-06-26T10:09:27Z</time>
      </trkpt>
      <trkpt lat="46.01619" lon="4.76111">
        <ele>200</ele>
        <time>2018-06-26T10:09:28Z</time>
      </trkpt>
      <trkpt lat="46.01613" lon="4.7611">
        <ele>200</ele>
        <time>2018-06-26T10:09:29Z</time>
      </trkpt>
      <trkpt lat="46.01607" lon="4.76109">
        <ele>200</ele>
        <time>2018-06-26T10:09:30Z</time>
      </trkpt>
      <trkpt lat="46.01602" lon="4.76108">
        <ele>200</ele>
        <time>2018-06-26T10:09:31Z</time>
      </trkpt>
      <trkpt lat="46.01597" lon="4.76107">
        <ele>200</ele>
        <time>2018-06-26T10:09:32Z</time>
      </trkpt>
      <trkpt lat="46.01593" lon="4.76106">
        <ele>200</ele>
        <time>2018-06-26T10:09:33Z</time>
      </trkpt>
      <trkpt lat="46.01585" lon="4.76104">
        <ele>200</ele>
        <time>2018-06-26T10:09:35Z</time>
      </trkpt>
      <trkpt lat="46.0158" lon="4.76104">
        <ele>202</ele>
        <time>2018-06-26T10:09:36Z</time>
      </trkpt>
      <trkpt lat="46.01576" lon="4.76104">
        <ele>202</ele>
        <time>2018-06-26T10:09:37Z</time>
      </trkpt>
      <trkpt lat="46.01571" lon="4.76103">
        <ele>202</ele>
        <time>2018-06-26T10:09:38Z</time>
      </trkpt>
      <trkpt lat="46.01563" lon="4.76101">
        <ele>202</ele>
        <time>2018-06-26T10:09:40Z</time>
      </trkpt>
      <trkpt lat="46.01559" lon="4.76099">
        <ele>202</ele>
        <time>2018-06-26T10:09:41Z</time>
      </trkpt>
      <trkpt lat="46.01552" lon="4.76093">
        <ele>202</ele>
        <time>2018-06-26T10:09:43Z</time>
      </trkpt>
      <trkpt lat="46.01546" lon="4.7609">
        <ele>202</ele>
        <time>2018-06-26T10:09:44Z</time>
      </trkpt>
      <trkpt lat="46.01541" lon="4.76088">
        <ele>202</ele>
        <time>2018-06-26T10:09:45Z</time>
      </trkpt>
      <trkpt lat="46.01536" lon="4.76085">
        <ele>202</ele>
        <time>2018-06-26T10:09:46Z</time>
      </trkpt>
      <trkpt lat="46.01529" lon="4.76087">
        <ele>202</ele>
        <time>2018-06-26T10:09:47Z</time>
      </trkpt>
      <trkpt lat="46.01523" lon="4.76086">
        <ele>202</ele>
        <time>2018-06-26T10:09:48Z</time>
      </trkpt>
      <trkpt lat="46.01516" lon="4.76086">
        <ele>203</ele>
        <time>2018-06-26T10:09:49Z</time>
      </trkpt>
      <trkpt lat="46.01511" lon="4.76085">
        <ele>203</ele>
        <time>2018-06-26T10:09:50Z</time>
      </trkpt>
      <trkpt lat="46.01506" lon="4.76084">
        <ele>203</ele>
        <time>2018-06-26T10:09:51Z</time>
      </trkpt>
      <trkpt lat="46.01501" lon="4.76083">
        <ele>203</ele>
        <time>2018-06-26T10:09:52Z</time>
      </trkpt>
      <trkpt lat="46.01496" lon="4.76081">
        <ele>203</ele>
        <time>2018-06-26T10:09:53Z</time>
      </trkpt>
      <trkpt lat="46.01491" lon="4.7608">
        <ele>203</ele>
        <time>2018-06-26T10:09:54Z</time>
      </trkpt>
      <trkpt lat="46.01482" lon="4.76076">
        <ele>203</ele>
        <time>2018-06-26T10:09:56Z</time>
      </trkpt>
      <trkpt lat="46.01477" lon="4.76074">
        <ele>203</ele>
        <time>2018-06-26T10:09:57Z</time>
      </trkpt>
      <trkpt lat="46.01473" lon="4.76072">
        <ele>203</ele>
        <time>2018-06-26T10:09:58Z</time>
      </trkpt>
      <trkpt lat="46.01467" lon="4.7607">
        <ele>203</ele>
        <time>2018-06-26T10:09:59Z</time>
      </trkpt>
      <trkpt lat="46.01462" lon="4.76069">
        <ele>203</ele>
        <time>2018-06-26T10:10:00Z</time>
      </trkpt>
      <trkpt lat="46.01457" lon="4.76067">
        <ele>203</ele>
        <time>2018-06-26T10:10:01Z</time>
      </trkpt>
      <trkpt lat="46.01452" lon="4.76066">
        <ele>203</ele>
        <time>2018-06-26T10:10:02Z</time>
      </trkpt>
      <trkpt lat="46.01447" lon="4.76064">
        <ele>203</ele>
        <time>2018-06-26T10:10:03Z</time>
      </trkpt>
      <trkpt lat="46.01442" lon="4.76062">
        <ele>203</ele>
        <time>2018-06-26T10:10:04Z</time>
      </trkpt>
      <trkpt lat="46.01438" lon="4.7606">
        <ele>203</ele>
        <time>2018-06-26T10:10:05Z</time>
      </trkpt>
      <trkpt lat="46.01433" lon="4.76057">
        <ele>203</ele>
        <time>2018-06-26T10:10:06Z</time>
      </trkpt>
      <trkpt lat="46.01428" lon="4.76053">
        <ele>203</ele>
        <time>2018-06-26T10:10:07Z</time>
      </trkpt>
      <trkpt lat="46.01423" lon="4.76049">
        <ele>204</ele>
        <time>2018-06-26T10:10:08Z</time>
      </trkpt>
      <trkpt lat="46.01419" lon="4.76046">
        <ele>204</ele>
        <time>2018-06-26T10:10:09Z</time>
      </trkpt>
      <trkpt lat="46.01415" lon="4.76043">
        <ele>204</ele>
        <time>2018-06-26T10:10:10Z</time>
      </trkpt>
      <trkpt lat="46.0141" lon="4.7604">
        <ele>204</ele>
        <time>2018-06-26T10:10:11Z</time>
      </trkpt>
      <trkpt lat="46.01403" lon="4.76036">
        <ele>204</ele>
        <time>2018-06-26T10:10:13Z</time>
      </trkpt>
      <trkpt lat="46.01397" lon="4.76034">
        <ele>204</ele>
        <time>2018-06-26T10:10:14Z</time>
      </trkpt>
      <trkpt lat="46.01392" lon="4.76034">
        <ele>203</ele>
        <time>2018-06-26T10:10:15Z</time>
      </trkpt>
      <trkpt lat="46.01387" lon="4.76033">
        <ele>203</ele>
        <time>2018-06-26T10:10:16Z</time>
      </trkpt>
      <trkpt lat="46.01381" lon="4.76034">
        <ele>203</ele>
        <time>2018-06-26T10:10:17Z</time>
      </trkpt>
      <trkpt lat="46.01377" lon="4.76035">
        <ele>203</ele>
        <time>2018-06-26T10:10:18Z</time>
      </trkpt>
      <trkpt lat="46.01372" lon="4.76036">
        <ele>203</ele>
        <time>2018-06-26T10:10:19Z</time>
      </trkpt>
      <trkpt lat="46.01367" lon="4.76038">
        <ele>203</ele>
        <time>2018-06-26T10:10:20Z</time>
      </trkpt>
      <trkpt lat="46.0136" lon="4.76039">
        <ele>203</ele>
        <time>2018-06-26T10:10:21Z</time>
      </trkpt>
      <trkpt lat="46.01355" lon="4.76041">
        <ele>203</ele>
        <time>2018-06-26T10:10:22Z</time>
      </trkpt>
      <trkpt lat="46.01347" lon="4.76045">
        <ele>203</ele>
        <time>2018-06-26T10:10:24Z</time>
      </trkpt>
      <trkpt lat="46.01342" lon="4.76047">
        <ele>203</ele>
        <time>2018-06-26T10:10:25Z</time>
      </trkpt>
      <trkpt lat="46.01337" lon="4.76048">
        <ele>203</ele>
        <time>2018-06-26T10:10:26Z</time>
      </trkpt>
      <trkpt lat="46.01332" lon="4.76048">
        <ele>203</ele>
        <time>2018-06-26T10:10:27Z</time>
      </trkpt>
      <trkpt lat="46.01325" lon="4.76049">
        <ele>203</ele>
        <time>2018-06-26T10:10:28Z</time>
      </trkpt>
      <trkpt lat="46.01319" lon="4.76051">
        <ele>203</ele>
        <time>2018-06-26T10:10:29Z</time>
      </trkpt>
      <trkpt lat="46.01314" lon="4.76053">
        <ele>203</ele>
        <time>2018-06-26T10:10:30Z</time>
      </trkpt>
      <trkpt lat="46.01309" lon="4.76056">
        <ele>203</ele>
        <time>2018-06-26T10:10:31Z</time>
      </trkpt>
      <trkpt lat="46.01303" lon="4.76058">
        <ele>203</ele>
        <time>2018-06-26T10:10:32Z</time>
      </trkpt>
      <trkpt lat="46.01298" lon="4.76059">
        <ele>203</ele>
        <time>2018-06-26T10:10:33Z</time>
      </trkpt>
      <trkpt lat="46.01292" lon="4.7606">
        <ele>204</ele>
        <time>2018-06-26T10:10:34Z</time>
      </trkpt>
      <trkpt lat="46.01286" lon="4.76062">
        <ele>204</ele>
        <time>2018-06-26T10:10:35Z</time>
      </trkpt>
      <trkpt lat="46.01281" lon="4.76062">
        <ele>204</ele>
        <time>2018-06-26T10:10:36Z</time>
      </trkpt>
      <trkpt lat="46.01276" lon="4.76063">
        <ele>204</ele>
        <time>2018-06-26T10:10:37Z</time>
      </trkpt>
      <trkpt lat="46.01271" lon="4.76063">
        <ele>204</ele>
        <time>2018-06-26T10:10:38Z</time>
      </trkpt>
      <trkpt lat="46.01265" lon="4.76064">
        <ele>204</ele>
        <time>2018-06-26T10:10:39Z</time>
      </trkpt>
      <trkpt lat="46.0126" lon="4.76065">
        <ele>204</ele>
        <time>2018-06-26T10:10:40Z</time>
      </trkpt>
      <trkpt lat="46.01255" lon="4.76067">
        <ele>204</ele>
        <time>2018-06-26T10:10:41Z</time>
      </trkpt>
      <trkpt lat="46.01247" lon="4.76067">
        <ele>205</ele>
        <time>2018-06-26T10:10:43Z</time>
      </trkpt>
      <trkpt lat="46.01242" lon="4.76066">
        <ele>205</ele>
        <time>2018-06-26T10:10:44Z</time>
      </trkpt>
      <trkpt lat="46.01237" lon="4.76066">
        <ele>205</ele>
        <time>2018-06-26T10:10:45Z</time>
      </trkpt>
      <trkpt lat="46.01232" lon="4.76065">
        <ele>205</ele>
        <time>2018-06-26T10:10:46Z</time>
      </trkpt>
      <trkpt lat="46.01223" lon="4.76064">
        <ele>206</ele>
        <time>2018-06-26T10:10:48Z</time>
      </trkpt>
      <trkpt lat="46.01218" lon="4.76063">
        <ele>206</ele>
        <time>2018-06-26T10:10:49Z</time>
      </trkpt>
      <trkpt lat="46.0121" lon="4.76061">
        <ele>206</ele>
        <time>2018-06-26T10:10:51Z</time>
      </trkpt>
      <trkpt lat="46.01205" lon="4.7606">
        <ele>206</ele>
        <time>2018-06-26T10:10:52Z</time>
      </trkpt>
      <trkpt lat="46.01197" lon="4.76056">
        <ele>206</ele>
        <time>2018-06-26T10:10:54Z</time>
      </trkpt>
      <trkpt lat="46.01192" lon="4.76055">
        <ele>206</ele>
        <time>2018-06-26T10:10:55Z</time>
      </trkpt>
      <trkpt lat="46.01187" lon="4.76053">
        <ele>206</ele>
        <time>2018-06-26T10:10:56Z</time>
      </trkpt>
      <trkpt lat="46.01183" lon="4.76052">
        <ele>207</ele>
        <time>2018-06-26T10:10:57Z</time>
      </trkpt>
      <trkpt lat="46.01176" lon="4.76051">
        <ele>207</ele>
        <time>2018-06-26T10:10:59Z</time>
      </trkpt>
      <trkpt lat="46.01171" lon="4.7605">
        <ele>207</ele>
        <time>2018-06-26T10:11:00Z</time>
      </trkpt>
      <trkpt lat="46.01168" lon="4.7605">
        <ele>207</ele>
        <time>2018-06-26T10:11:02Z</time>
      </trkpt>
      <trkpt lat="46.01161" lon="4.7605">
        <ele>208</ele>
        <time>2018-06-26T10:11:03Z</time>
      </trkpt>
      <trkpt lat="46.01154" lon="4.76048">
        <ele>208</ele>
        <time>2018-06-26T10:11:05Z</time>
      </trkpt>
      <trkpt lat="46.01145" lon="4.76048">
        <ele>208</ele>
        <time>2018-06-26T10:11:06Z</time>
      </trkpt>
      <trkpt lat="46.01139" lon="4.7605">
        <ele>208</ele>
        <time>2018-06-26T10:11:07Z</time>
      </trkpt>
      <trkpt lat="46.01132" lon="4.76051">
        <ele>208</ele>
        <time>2018-06-26T10:11:08Z</time>
      </trkpt>
      <trkpt lat="46.01127" lon="4.76052">
        <ele>208</ele>
        <time>2018-06-26T10:11:09Z</time>
      </trkpt>
      <trkpt lat="46.01122" lon="4.76052">
        <ele>208</ele>
        <time>2018-06-26T10:11:10Z</time>
      </trkpt>
      <trkpt lat="46.01115" lon="4.76054">
        <ele>208</ele>
        <time>2018-06-26T10:11:12Z</time>
      </trkpt>
      <trkpt lat="46.01111" lon="4.76055">
        <ele>208</ele>
        <time>2018-06-26T10:11:13Z</time>
      </trkpt>
      <trkpt lat="46.01102" lon="4.76055">
        <ele>208</ele>
        <time>2018-06-26T10:11:15Z</time>
      </trkpt>
      <trkpt lat="46.01097" lon="4.76056">
        <ele>208</ele>
        <time>2018-06-26T10:11:16Z</time>
      </trkpt>
      <trkpt lat="46.01089" lon="4.76059">
        <ele>208</ele>
        <time>2018-06-26T10:11:19Z</time>
      </trkpt>
      <trkpt lat="46.01082" lon="4.76059">
        <ele>209</ele>
        <time>2018-06-26T10:11:20Z</time>
      </trkpt>
      <trkpt lat="46.01074" lon="4.76062">
        <ele>209</ele>
        <time>2018-06-26T10:11:22Z</time>
      </trkpt>
      <trkpt lat="46.01072" lon="4.76061">
        <ele>209</ele>
        <time>2018-06-26T10:11:23Z</time>
      </trkpt>
      <trkpt lat="46.01067" lon="4.76062">
        <ele>209</ele>
        <time>2018-06-26T10:11:24Z</time>
      </trkpt>
      <trkpt lat="46.01063" lon="4.76062">
        <ele>209</ele>
        <time>2018-06-26T10:11:25Z</time>
      </trkpt>
      <trkpt lat="46.01057" lon="4.76061">
        <ele>209</ele>
        <time>2018-06-26T10:11:27Z</time>
      </trkpt>
      <trkpt lat="46.0105" lon="4.76061">
        <ele>210</ele>
        <time>2018-06-26T10:11:28Z</time>
      </trkpt>
      <trkpt lat="46.01043" lon="4.76061">
        <ele>210</ele>
        <time>2018-06-26T10:11:30Z</time>
      </trkpt>
      <trkpt lat="46.01041" lon="4.76062">
        <ele>210</ele>
        <time>2018-06-26T10:11:31Z</time>
      </trkpt>
      <trkpt lat="46.01035" lon="4.76063">
        <ele>210</ele>
        <time>2018-06-26T10:11:32Z</time>
      </trkpt>
      <trkpt lat="46.0103" lon="4.76063">
        <ele>210</ele>
        <time>2018-06-26T10:11:33Z</time>
      </trkpt>
      <trkpt lat="46.01021" lon="4.76064">
        <ele>210</ele>
        <time>2018-06-26T10:11:35Z</time>
      </trkpt>
      <trkpt lat="46.01017" lon="4.76065">
        <ele>210</ele>
        <time>2018-06-26T10:11:36Z</time>
      </trkpt>
      <trkpt lat="46.01009" lon="4.76065">
        <ele>211</ele>
        <time>2018-06-26T10:11:39Z</time>
      </trkpt>
      <trkpt lat="46.01006" lon="4.76065">
        <ele>211</ele>
        <time>2018-06-26T10:11:40Z</time>
      </trkpt>
      <trkpt lat="46.00998" lon="4.76066">
        <ele>212</ele>
        <time>2018-06-26T10:11:41Z</time>
      </trkpt>
      <trkpt lat="46.00993" lon="4.76066">
        <ele>212</ele>
        <time>2018-06-26T10:11:42Z</time>
      </trkpt>
      <trkpt lat="46.00988" lon="4.76066">
        <ele>212</ele>
        <time>2018-06-26T10:11:43Z</time>
      </trkpt>
      <trkpt lat="46.00983" lon="4.76066">
        <ele>212</ele>
        <time>2018-06-26T10:11:44Z</time>
      </trkpt>
      <trkpt lat="46.00975" lon="4.76068">
        <ele>212</ele>
        <time>2018-06-26T10:11:46Z</time>
      </trkpt>
      <trkpt lat="46.00971" lon="4.76069">
        <ele>212</ele>
        <time>2018-06-26T10:11:47Z</time>
      </trkpt>
      <trkpt lat="46.00963" lon="4.76072">
        <ele>212</ele>
        <time>2018-06-26T10:11:49Z</time>
      </trkpt>
      <trkpt lat="46.00959" lon="4.76073">
        <ele>212</ele>
        <time>2018-06-26T10:11:50Z</time>
      </trkpt>
      <trkpt lat="46.00951" lon="4.76076">
        <ele>212</ele>
        <time>2018-06-26T10:11:52Z</time>
      </trkpt>
      <trkpt lat="46.00946" lon="4.76077">
        <ele>212</ele>
        <time>2018-06-26T10:11:53Z</time>
      </trkpt>
      <trkpt lat="46.00937" lon="4.7608">
        <ele>212</ele>
        <time>2018-06-26T10:11:55Z</time>
      </trkpt>
      <trkpt lat="46.00933" lon="4.76083">
        <ele>212</ele>
        <time>2018-06-26T10:11:56Z</time>
      </trkpt>
      <trkpt lat="46.00924" lon="4.76085">
        <ele>213</ele>
        <time>2018-06-26T10:11:58Z</time>
      </trkpt>
      <trkpt lat="46.0092" lon="4.76085">
        <ele>213</ele>
        <time>2018-06-26T10:11:59Z</time>
      </trkpt>
      <trkpt lat="46.00911" lon="4.76087">
        <ele>214</ele>
        <time>2018-06-26T10:12:01Z</time>
      </trkpt>
      <trkpt lat="46.00907" lon="4.76088">
        <ele>214</ele>
        <time>2018-06-26T10:12:02Z</time>
      </trkpt>
      <trkpt lat="46.00901" lon="4.76089">
        <ele>214</ele>
        <time>2018-06-26T10:12:04Z</time>
      </trkpt>
      <trkpt lat="46.00897" lon="4.76091">
        <ele>214</ele>
        <time>2018-06-26T10:12:05Z</time>
      </trkpt>
      <trkpt lat="46.0089" lon="4.76092">
        <ele>215</ele>
        <time>2018-06-26T10:12:07Z</time>
      </trkpt>
      <trkpt lat="46.00886" lon="4.76093">
        <ele>215</ele>
        <time>2018-06-26T10:12:08Z</time>
      </trkpt>
      <trkpt lat="46.00878" lon="4.76095">
        <ele>215</ele>
        <time>2018-06-26T10:12:10Z</time>
      </trkpt>
      <trkpt lat="46.00875" lon="4.76096">
        <ele>215</ele>
        <time>2018-06-26T10:12:11Z</time>
      </trkpt>
      <trkpt lat="46.00867" lon="4.76097">
        <ele>215</ele>
        <time>2018-06-26T10:12:13Z</time>
      </trkpt>
      <trkpt lat="46.00863" lon="4.76098">
        <ele>215</ele>
        <time>2018-06-26T10:12:14Z</time>
      </trkpt>
      <trkpt lat="46.00855" lon="4.761">
        <ele>215</ele>
        <time>2018-06-26T10:12:16Z</time>
      </trkpt>
      <trkpt lat="46.00851" lon="4.76101">
        <ele>216</ele>
        <time>2018-06-26T10:12:17Z</time>
      </trkpt>
      <trkpt lat="46.00843" lon="4.76103">
        <ele>216</ele>
        <time>2018-06-26T10:12:19Z</time>
      </trkpt>
      <trkpt lat="46.00841" lon="4.76103">
        <ele>216</ele>
        <time>2018-06-26T10:12:20Z</time>
      </trkpt>
      <trkpt lat="46.00833" lon="4.76104">
        <ele>217</ele>
        <time>2018-06-26T10:12:23Z</time>
      </trkpt>
      <trkpt lat="46.0083" lon="4.76104">
        <ele>217</ele>
        <time>2018-06-26T10:12:24Z</time>
      </trkpt>
      <trkpt lat="46.00824" lon="4.76105">
        <ele>218</ele>
        <time>2018-06-26T10:12:26Z</time>
      </trkpt>
      <trkpt lat="46.00821" lon="4.76105">
        <ele>218</ele>
        <time>2018-06-26T10:12:27Z</time>
      </trkpt>
      <trkpt lat="46.00813" lon="4.76107">
        <ele>218</ele>
        <time>2018-06-26T10:12:28Z</time>
      </trkpt>
      <trkpt lat="46.00811" lon="4.76108">
        <ele>218</ele>
        <time>2018-06-26T10:12:29Z</time>
      </trkpt>
      <trkpt lat="46.00804" lon="4.76109">
        <ele>218</ele>
        <time>2018-06-26T10:12:31Z</time>
      </trkpt>
      <trkpt lat="46.00802" lon="4.76109">
        <ele>218</ele>
        <time>2018-06-26T10:12:32Z</time>
      </trkpt>
      <trkpt lat="46.00795" lon="4.76108">
        <ele>219</ele>
        <time>2018-06-26T10:12:35Z</time>
      </trkpt>
      <trkpt lat="46.00792" lon="4.76108">
        <ele>219</ele>
        <time>2018-06-26T10:12:36Z</time>
      </trkpt>
      <trkpt lat="46.00786" lon="4.76109">
        <ele>219</ele>
        <time>2018-06-26T10:12:38Z</time>
      </trkpt>
      <trkpt lat="46.00782" lon="4.76109">
        <ele>219</ele>
        <time>2018-06-26T10:12:39Z</time>
      </trkpt>
      <trkpt lat="46.00776" lon="4.7611">
        <ele>219</ele>
        <time>2018-06-26T10:12:41Z</time>
      </trkpt>
      <trkpt lat="46.00772" lon="4.7611">
        <ele>219</ele>
        <time>2018-06-26T10:12:42Z</time>
      </trkpt>
      <trkpt lat="46.00766" lon="4.76111">
        <ele>219</ele>
        <time>2018-06-26T10:12:44Z</time>
      </trkpt>
      <trkpt lat="46.00763" lon="4.76111">
        <ele>219</ele>
        <time>2018-06-26T10:12:45Z</time>
      </trkpt>
      <trkpt lat="46.00754" lon="4.76111">
        <ele>219</ele>
        <time>2018-06-26T10:12:48Z</time>
      </trkpt>
      <trkpt lat="46.00752" lon="4.76111">
        <ele>219</ele>
        <time>2018-06-26T10:12:49Z</time>
      </trkpt>
      <trkpt lat="46.00743" lon="4.76111">
        <ele>223</ele>
        <time>2018-06-26T10:12:52Z</time>
      </trkpt>
      <trkpt lat="46.0074" lon="4.76111">
        <ele>223</ele>
        <time>2018-06-26T10:12:53Z</time>
      </trkpt>
      <trkpt lat="46.00734" lon="4.76111">
        <ele>223</ele>
        <time>2018-06-26T10:12:55Z</time>
      </trkpt>
      <trkpt lat="46.00731" lon="4.76111">
        <ele>223</ele>
        <time>2018-06-26T10:12:56Z</time>
      </trkpt>
      <trkpt lat="46.00725" lon="4.76111">
        <ele>224</ele>
        <time>2018-06-26T10:12:58Z</time>
      </trkpt>
      <trkpt lat="46.00722" lon="4.76111">
        <ele>224</ele>
        <time>2018-06-26T10:12:59Z</time>
      </trkpt>
      <trkpt lat="46.00714" lon="4.76111">
        <ele>224</ele>
        <time>2018-06-26T10:13:02Z</time>
      </trkpt>
      <trkpt lat="46.00712" lon="4.76112">
        <ele>224</ele>
        <time>2018-06-26T10:13:03Z</time>
      </trkpt>
      <trkpt lat="46.00705" lon="4.76113">
        <ele>225</ele>
        <time>2018-06-26T10:13:06Z</time>
      </trkpt>
      <trkpt lat="46.00703" lon="4.76114">
        <ele>225</ele>
        <time>2018-06-26T10:13:07Z</time>
      </trkpt>
      <trkpt lat="46.00694" lon="4.76113">
        <ele>225</ele>
        <time>2018-06-26T10:13:11Z</time>
      </trkpt>
      <trkpt lat="46.00692" lon="4.76114">
        <ele>225</ele>
        <time>2018-06-26T10:13:12Z</time>
      </trkpt>
      <trkpt lat="46.00683" lon="4.76114">
        <ele>225</ele>
        <time>2018-06-26T10:13:16Z</time>
      </trkpt>
      <trkpt lat="46.00681" lon="4.76114">
        <ele>225</ele>
        <time>2018-06-26T10:13:17Z</time>
      </trkpt>
      <trkpt lat="46.00674" lon="4.76116">
        <ele>226</ele>
        <time>2018-06-26T10:13:20Z</time>
      </trkpt>
      <trkpt lat="46.00672" lon="4.76116">
        <ele>226</ele>
        <time>2018-06-26T10:13:21Z</time>
      </trkpt>
      <trkpt lat="46.00665" lon="4.76118">
        <ele>228</ele>
        <time>2018-06-26T10:13:24Z</time>
      </trkpt>
      <trkpt lat="46.00663" lon="4.76119">
        <ele>228</ele>
        <time>2018-06-26T10:13:25Z</time>
      </trkpt>
      <trkpt lat="46.00654" lon="4.7612">
        <ele>228</ele>
        <time>2018-06-26T10:13:29Z</time>
      </trkpt>
      <trkpt lat="46.00653" lon="4.7612">
        <ele>228</ele>
        <time>2018-06-26T10:13:30Z</time>
      </trkpt>
      <trkpt lat="46.00644" lon="4.76118">
        <ele>228</ele>
        <time>2018-06-26T10:13:35Z</time>
      </trkpt>
      <trkpt lat="46.00643" lon="4.76117">
        <ele>228</ele>
        <time>2018-06-26T10:13:36Z</time>
      </trkpt>
      <trkpt lat="46.00635" lon="4.76112">
        <ele>228</ele>
        <time>2018-06-26T10:13:41Z</time>
      </trkpt>
      <trkpt lat="46.00633" lon="4.76111">
        <ele>228</ele>
        <time>2018-06-26T10:13:42Z</time>
      </trkpt>
      <trkpt lat="46.00626" lon="4.76117">
        <ele>228</ele>
        <time>2018-06-26T10:13:46Z</time>
      </trkpt>
      <trkpt lat="46.00625" lon="4.76121">
        <ele>228</ele>
        <time>2018-06-26T10:13:47Z</time>
      </trkpt>
      <trkpt lat="46.00625" lon="4.7613">
        <ele>228</ele>
        <time>2018-06-26T10:13:49Z</time>
      </trkpt>
      <trkpt lat="46.00625" lon="4.76134">
        <ele>228</ele>
        <time>2018-06-26T10:13:50Z</time>
      </trkpt>
      <trkpt lat="46.00625" lon="4.76144">
        <ele>228</ele>
        <time>2018-06-26T10:13:52Z</time>
      </trkpt>
      <trkpt lat="46.00625" lon="4.76149">
        <ele>228</ele>
        <time>2018-06-26T10:13:53Z</time>
      </trkpt>
      <trkpt lat="46.00624" lon="4.76162">
        <ele>228</ele>
        <time>2018-06-26T10:13:56Z</time>
      </trkpt>
      <trkpt lat="46.00624" lon="4.76166">
        <ele>228</ele>
        <time>2018-06-26T10:13:57Z</time>
      </trkpt>
      <trkpt lat="46.00624" lon="4.76175">
        <ele>230</ele>
        <time>2018-06-26T10:13:59Z</time>
      </trkpt>
      <trkpt lat="46.00623" lon="4.7618">
        <ele>230</ele>
        <time>2018-06-26T10:14:00Z</time>
      </trkpt>
      <trkpt lat="46.00622" lon="4.76191">
        <ele>230</ele>
        <time>2018-06-26T10:14:03Z</time>
      </trkpt>
      <trkpt lat="46.0062" lon="4.76194">
        <ele>230</ele>
        <time>2018-06-26T10:14:04Z</time>
      </trkpt>
      <trkpt lat="46.00617" lon="4.76199">
        <ele>230</ele>
        <time>2018-06-26T10:14:06Z</time>
      </trkpt>
      <trkpt lat="46.00609" lon="4.76202">
        <ele>230</ele>
        <time>2018-06-26T10:14:07Z</time>
      </trkpt>
      <trkpt lat="46.00601" lon="4.76198">
        <ele>230</ele>
        <time>2018-06-26T10:14:09Z</time>
      </trkpt>
      <trkpt lat="46.00597" lon="4.76192">
        <ele>230</ele>
        <time>2018-06-26T10:14:10Z</time>
      </trkpt>
      <trkpt lat="46.00591" lon="4.76191">
        <ele>230</ele>
        <time>2018-06-26T10:14:11Z</time>
      </trkpt>
      <trkpt lat="46.00586" lon="4.76189">
        <ele>230</ele>
        <time>2018-06-26T10:14:12Z</time>
      </trkpt>
      <trkpt lat="46.0058" lon="4.76188">
        <ele>230</ele>
        <time>2018-06-26T10:14:13Z</time>
      </trkpt>
      <trkpt lat="46.00575" lon="4.76185">
        <ele>230</ele>
        <time>2018-06-26T10:14:14Z</time>
      </trkpt>
      <trkpt lat="46.00568" lon="4.76182">
        <ele>230</ele>
        <time>2018-06-26T10:14:15Z</time>
      </trkpt>
      <trkpt lat="46.00561" lon="4.76181">
        <ele>230</ele>
        <time>2018-06-26T10:14:16Z</time>
      </trkpt>
      <trkpt lat="46.00555" lon="4.76178">
        <ele>230</ele>
        <time>2018-06-26T10:14:17Z</time>
      </trkpt>
      <trkpt lat="46.00548" lon="4.76174">
        <ele>230</ele>
        <time>2018-06-26T10:14:18Z</time>
      </trkpt>
      <trkpt lat="46.00541" lon="4.76171">
        <ele>230</ele>
        <time>2018-06-26T10:14:19Z</time>
      </trkpt>
      <trkpt lat="46.00534" lon="4.76167">
        <ele>230</ele>
        <time>2018-06-26T10:14:20Z</time>
      </trkpt>
      <trkpt lat="46.00527" lon="4.76162">
        <ele>228</ele>
        <time>2018-06-26T10:14:21Z</time>
      </trkpt>
      <trkpt lat="46.00521" lon="4.76156">
        <ele>228</ele>
        <time>2018-06-26T10:14:22Z</time>
      </trkpt>
      <trkpt lat="46.00514" lon="4.76148">
        <ele>228</ele>
        <time>2018-06-26T10:14:23Z</time>
      </trkpt>
      <trkpt lat="46.00508" lon="4.7614">
        <ele>227</ele>
        <time>2018-06-26T10:14:24Z</time>
      </trkpt>
      <trkpt lat="46.00502" lon="4.76133">
        <ele>227</ele>
        <time>2018-06-26T10:14:25Z</time>
      </trkpt>
      <trkpt lat="46.00495" lon="4.76125">
        <ele>227</ele>
        <time>2018-06-26T10:14:26Z</time>
      </trkpt>
      <trkpt lat="46.00488" lon="4.76117">
        <ele>227</ele>
        <time>2018-06-26T10:14:27Z</time>
      </trkpt>
      <trkpt lat="46.00481" lon="4.7611">
        <ele>227</ele>
        <time>2018-06-26T10:14:28Z</time>
      </trkpt>
      <trkpt lat="46.00474" lon="4.76102">
        <ele>227</ele>
        <time>2018-06-26T10:14:29Z</time>
      </trkpt>
      <trkpt lat="46.00465" lon="4.76095">
        <ele>227</ele>
        <time>2018-06-26T10:14:30Z</time>
      </trkpt>
      <trkpt lat="46.00456" lon="4.76091">
        <ele>227</ele>
        <time>2018-06-26T10:14:31Z</time>
      </trkpt>
      <trkpt lat="46.00448" lon="4.76085">
        <ele>227</ele>
        <time>2018-06-26T10:14:32Z</time>
      </trkpt>
      <trkpt lat="46.00441" lon="4.7608">
        <ele>224</ele>
        <time>2018-06-26T10:14:33Z</time>
      </trkpt>
      <trkpt lat="46.0043" lon="4.76075">
        <ele>225</ele>
        <time>2018-06-26T10:14:34Z</time>
      </trkpt>
      <trkpt lat="46.00423" lon="4.76073">
        <ele>225</ele>
        <time>2018-06-26T10:14:35Z</time>
      </trkpt>
      <trkpt lat="46.00414" lon="4.76069">
        <ele>226</ele>
        <time>2018-06-26T10:14:36Z</time>
      </trkpt>
      <trkpt lat="46.00409" lon="4.7607">
        <ele>226</ele>
        <time>2018-06-26T10:14:37Z</time>
      </trkpt>
      <trkpt lat="46.00403" lon="4.76071">
        <ele>226</ele>
        <time>2018-06-26T10:14:38Z</time>
      </trkpt>
      <trkpt lat="46.00396" lon="4.76071">
        <ele>226</ele>
        <time>2018-06-26T10:14:39Z</time>
      </trkpt>
      <trkpt lat="46.00388" lon="4.76072">
        <ele>226</ele>
        <time>2018-06-26T10:14:40Z</time>
      </trkpt>
      <trkpt lat="46.00379" lon="4.76071">
        <ele>226</ele>
        <time>2018-06-26T10:14:41Z</time>
      </trkpt>
      <trkpt lat="46.00372" lon="4.7607">
        <ele>226</ele>
        <time>2018-06-26T10:14:42Z</time>
      </trkpt>
      <trkpt lat="46.0037" lon="4.76066">
        <ele>226</ele>
        <time>2018-06-26T10:14:43Z</time>
      </trkpt>
      <trkpt lat="46.00364" lon="4.76063">
        <ele>226</ele>
        <time>2018-06-26T10:14:44Z</time>
      </trkpt>
      <trkpt lat="46.00361" lon="4.76053">
        <ele>226</ele>
        <time>2018-06-26T10:14:45Z</time>
      </trkpt>
      <trkpt lat="46.00365" lon="4.76046">
        <ele>226</ele>
        <time>2018-06-26T10:14:46Z</time>
      </trkpt>
      <trkpt lat="46.00369" lon="4.76041">
        <ele>225</ele>
        <time>2018-06-26T10:14:47Z</time>
      </trkpt>
      <trkpt lat="46.00373" lon="4.76039">
        <ele>225</ele>
        <time>2018-06-26T10:14:48Z</time>
      </trkpt>
      <trkpt lat="46.0038" lon="4.76036">
        <ele>225</ele>
        <time>2018-06-26T10:14:49Z</time>
      </trkpt>
      <trkpt lat="46.00385" lon="4.76032">
        <ele>225</ele>
        <time>2018-06-26T10:14:50Z</time>
      </trkpt>
      <trkpt lat="46.00392" lon="4.76026">
        <ele>224</ele>
        <time>2018-06-26T10:14:51Z</time>
      </trkpt>
      <trkpt lat="46.00397" lon="4.76021">
        <ele>224</ele>
        <time>2018-06-26T10:14:52Z</time>
      </trkpt>
      <trkpt lat="46.00405" lon="4.76015">
        <ele>223</ele>
        <time>2018-06-26T10:14:53Z</time>
      </trkpt>
      <trkpt lat="46.0041" lon="4.7601">
        <ele>223</ele>
        <time>2018-06-26T10:14:54Z</time>
      </trkpt>
      <trkpt lat="46.00416" lon="4.76005">
        <ele>222</ele>
        <time>2018-06-26T10:14:55Z</time>
      </trkpt>
      <trkpt lat="46.00424" lon="4.75995">
        <ele>220</ele>
        <time>2018-06-26T10:14:56Z</time>
      </trkpt>
      <trkpt lat="46.00433" lon="4.75986">
        <ele>220</ele>
        <time>2018-06-26T10:14:57Z</time>
      </trkpt>
      <trkpt lat="46.00444" lon="4.75975">
        <ele>219</ele>
        <time>2018-06-26T10:14:58Z</time>
      </trkpt>
      <trkpt lat="46.0045" lon="4.75967">
        <ele>219</ele>
        <time>2018-06-26T10:14:59Z</time>
      </trkpt>
      <trkpt lat="46.00454" lon="4.75957">
        <ele>219</ele>
        <time>2018-06-26T10:15:00Z</time>
      </trkpt>
      <trkpt lat="46.00453" lon="4.75944">
        <ele>219</ele>
        <time>2018-06-26T10:15:01Z</time>
      </trkpt>
      <trkpt lat="46.00453" lon="4.75931">
        <ele>218</ele>
        <time>2018-06-26T10:15:02Z</time>
      </trkpt>
      <trkpt lat="46.00454" lon="4.75919">
        <ele>218</ele>
        <time>2018-06-26T10:15:03Z</time>
      </trkpt>
      <trkpt lat="46.00448" lon="4.75909">
        <ele>217</ele>
        <time>2018-06-26T10:15:04Z</time>
      </trkpt>
      <trkpt lat="46.00446" lon="4.75898">
        <ele>217</ele>
        <time>2018-06-26T10:15:05Z</time>
      </trkpt>
      <trkpt lat="46.00438" lon="4.7589">
        <ele>217</ele>
        <time>2018-06-26T10:15:06Z</time>
      </trkpt>
      <trkpt lat="46.00431" lon="4.75877">
        <ele>217</ele>
        <time>2018-06-26T10:15:07Z</time>
      </trkpt>
      <trkpt lat="46.00426" lon="4.75865">
        <ele>216</ele>
        <time>2018-06-26T10:15:08Z</time>
      </trkpt>
      <trkpt lat="46.00421" lon="4.75854">
        <ele>216</ele>
        <time>2018-06-26T10:15:09Z</time>
      </trkpt>
      <trkpt lat="46.00416" lon="4.75844">
        <ele>214</ele>
        <time>2018-06-26T10:15:10Z</time>
      </trkpt>
      <trkpt lat="46.00411" lon="4.75833">
        <ele>213</ele>
        <time>2018-06-26T10:15:11Z</time>
      </trkpt>
      <trkpt lat="46.00406" lon="4.75822">
        <ele>213</ele>
        <time>2018-06-26T10:15:12Z</time>
      </trkpt>
      <trkpt lat="46.00401" lon="4.75813">
        <ele>213</ele>
        <time>2018-06-26T10:15:13Z</time>
      </trkpt>
      <trkpt lat="46.00389" lon="4.75801">
        <ele>213</ele>
        <time>2018-06-26T10:15:14Z</time>
      </trkpt>
      <trkpt lat="46.00382" lon="4.7579">
        <ele>213</ele>
        <time>2018-06-26T10:15:15Z</time>
      </trkpt>
      <trkpt lat="46.00374" lon="4.75779">
        <ele>213</ele>
        <time>2018-06-26T10:15:16Z</time>
      </trkpt>
      <trkpt lat="46.00367" lon="4.75768">
        <ele>212</ele>
        <time>2018-06-26T10:15:17Z</time>
      </trkpt>
      <trkpt lat="46.00359" lon="4.75758">
        <ele>212</ele>
        <time>2018-06-26T10:15:18Z</time>
      </trkpt>
      <trkpt lat="46.00353" lon="4.75747">
        <ele>210</ele>
        <time>2018-06-26T10:15:19Z</time>
      </trkpt>
      <trkpt lat="46.00346" lon="4.75737">
        <ele>210</ele>
        <time>2018-06-26T10:15:20Z</time>
      </trkpt>
      <trkpt lat="46.0034" lon="4.75728">
        <ele>210</ele>
        <time>2018-06-26T10:15:21Z</time>
      </trkpt>
      <trkpt lat="46.00332" lon="4.75717">
        <ele>208</ele>
        <time>2018-06-26T10:15:22Z</time>
      </trkpt>
      <trkpt lat="46.00326" lon="4.75708">
        <ele>208</ele>
        <time>2018-06-26T10:15:23Z</time>
      </trkpt>
      <trkpt lat="46.00319" lon="4.75698">
        <ele>208</ele>
        <time>2018-06-26T10:15:24Z</time>
      </trkpt>
      <trkpt lat="46.00312" lon="4.75686">
        <ele>208</ele>
        <time>2018-06-26T10:15:25Z</time>
      </trkpt>
      <trkpt lat="46.00302" lon="4.75674">
        <ele>208</ele>
        <time>2018-06-26T10:15:26Z</time>
      </trkpt>
      <trkpt lat="46.00295" lon="4.75664">
        <ele>206</ele>
        <time>2018-06-26T10:15:27Z</time>
      </trkpt>
      <trkpt lat="46.00289" lon="4.75653">
        <ele>206</ele>
        <time>2018-06-26T10:15:28Z</time>
      </trkpt>
      <trkpt lat="46.00283" lon="4.75643">
        <ele>206</ele>
        <time>2018-06-26T10:15:29Z</time>
      </trkpt>
      <trkpt lat="46.00276" lon="4.75633">
        <ele>206</ele>
        <time>2018-06-26T10:15:30Z</time>
      </trkpt>
      <trkpt lat="46.00269" lon="4.75621">
        <ele>206</ele>
        <time>2018-06-26T10:15:31Z</time>
      </trkpt>
      <trkpt lat="46.00262" lon="4.7561">
        <ele>206</ele>
        <time>2018-06-26T10:15:32Z</time>
      </trkpt>
      <trkpt lat="46.00254" lon="4.75599">
        <ele>205</ele>
        <time>2018-06-26T10:15:33Z</time>
      </trkpt>
      <trkpt lat="46.00247" lon="4.75587">
        <ele>206</ele>
        <time>2018-06-26T10:15:34Z</time>
      </trkpt>
      <trkpt lat="46.0024" lon="4.75576">
        <ele>205</ele>
        <time>2018-06-26T10:15:35Z</time>
      </trkpt>
      <trkpt lat="46.00234" lon="4.75563">
        <ele>206</ele>
        <time>2018-06-26T10:15:36Z</time>
      </trkpt>
      <trkpt lat="46.00228" lon="4.7555">
        <ele>205</ele>
        <time>2018-06-26T10:15:37Z</time>
      </trkpt>
      <trkpt lat="46.00224" lon="4.75534">
        <ele>205</ele>
        <time>2018-06-26T10:15:38Z</time>
      </trkpt>
      <trkpt lat="46.00222" lon="4.75517">
        <ele>204</ele>
        <time>2018-06-26T10:15:39Z</time>
      </trkpt>
      <trkpt lat="46.0022" lon="4.75501">
        <ele>203</ele>
        <time>2018-06-26T10:15:40Z</time>
      </trkpt>
      <trkpt lat="46.00218" lon="4.75484">
        <ele>198</ele>
        <time>2018-06-26T10:15:41Z</time>
      </trkpt>
      <trkpt lat="46.00218" lon="4.75467">
        <ele>198</ele>
        <time>2018-06-26T10:15:42Z</time>
      </trkpt>
      <trkpt lat="46.00217" lon="4.75452">
        <ele>197</ele>
        <time>2018-06-26T10:15:43Z</time>
      </trkpt>
      <trkpt lat="46.00215" lon="4.75434">
        <ele>196</ele>
        <time>2018-06-26T10:15:44Z</time>
      </trkpt>
      <trkpt lat="46.00215" lon="4.75417">
        <ele>196</ele>
        <time>2018-06-26T10:15:45Z</time>
      </trkpt>
      <trkpt lat="46.00211" lon="4.75401">
        <ele>192</ele>
        <time>2018-06-26T10:15:46Z</time>
      </trkpt>
      <trkpt lat="46.00212" lon="4.75385">
        <ele>192</ele>
        <time>2018-06-26T10:15:47Z</time>
      </trkpt>
      <trkpt lat="46.00212" lon="4.75369">
        <ele>191</ele>
        <time>2018-06-26T10:15:48Z</time>
      </trkpt>
      <trkpt lat="46.00213" lon="4.75352">
        <ele>191</ele>
        <time>2018-06-26T10:15:49Z</time>
      </trkpt>
      <trkpt lat="46.00212" lon="4.75335">
        <ele>190</ele>
        <time>2018-06-26T10:15:50Z</time>
      </trkpt>
      <trkpt lat="46.00211" lon="4.75319">
        <ele>186</ele>
        <time>2018-06-26T10:15:51Z</time>
      </trkpt>
      <trkpt lat="46.00212" lon="4.75302">
        <ele>185</ele>
        <time>2018-06-26T10:15:52Z</time>
      </trkpt>
      <trkpt lat="46.00211" lon="4.75288">
        <ele>185</ele>
        <time>2018-06-26T10:15:53Z</time>
      </trkpt>
      <trkpt lat="46.00212" lon="4.75275">
        <ele>184</ele>
        <time>2018-06-26T10:15:54Z</time>
      </trkpt>
      <trkpt lat="46.00211" lon="4.75263">
        <ele>184</ele>
        <time>2018-06-26T10:15:55Z</time>
      </trkpt>
      <trkpt lat="46.00211" lon="4.75251">
        <ele>184</ele>
        <time>2018-06-26T10:15:56Z</time>
      </trkpt>
      <trkpt lat="46.00213" lon="4.7524">
        <ele>180</ele>
        <time>2018-06-26T10:15:57Z</time>
      </trkpt>
      <trkpt lat="46.00214" lon="4.75228">
        <ele>180</ele>
        <time>2018-06-26T10:15:58Z</time>
      </trkpt>
      <trkpt lat="46.00214" lon="4.75217">
        <ele>180</ele>
        <time>2018-06-26T10:15:59Z</time>
      </trkpt>
      <trkpt lat="46.00215" lon="4.75207">
        <ele>180</ele>
        <time>2018-06-26T10:16:00Z</time>
      </trkpt>
      <trkpt lat="46.00215" lon="4.75197">
        <ele>179</ele>
        <time>2018-06-26T10:16:01Z</time>
      </trkpt>
      <trkpt lat="46.00214" lon="4.75188">
        <ele>179</ele>
        <time>2018-06-26T10:16:02Z</time>
      </trkpt>
      <trkpt lat="46.00214" lon="4.7518">
        <ele>179</ele>
        <time>2018-06-26T10:16:03Z</time>
      </trkpt>
      <trkpt lat="46.00214" lon="4.75173">
        <ele>179</ele>
        <time>2018-06-26T10:16:04Z</time>
      </trkpt>
      <trkpt lat="46.00215" lon="4.75161">
        <ele>177</ele>
        <time>2018-06-26T10:16:06Z</time>
      </trkpt>
      <trkpt lat="46.00216" lon="4.75153">
        <ele>177</ele>
        <time>2018-06-26T10:16:07Z</time>
      </trkpt>
      <trkpt lat="46.00215" lon="4.75145">
        <ele>177</ele>
        <time>2018-06-26T10:16:08Z</time>
      </trkpt>
      <trkpt lat="46.00216" lon="4.75138">
        <ele>176</ele>
        <time>2018-06-26T10:16:09Z</time>
      </trkpt>
      <trkpt lat="46.00216" lon="4.7513">
        <ele>176</ele>
        <time>2018-06-26T10:16:10Z</time>
      </trkpt>
      <trkpt lat="46.00216" lon="4.75123">
        <ele>176</ele>
        <time>2018-06-26T10:16:11Z</time>
      </trkpt>
      <trkpt lat="46.00215" lon="4.75111">
        <ele>176</ele>
        <time>2018-06-26T10:16:14Z</time>
      </trkpt>
      <trkpt lat="46.00209" lon="4.75107">
        <ele>176</ele>
        <time>2018-06-26T10:16:15Z</time>
      </trkpt>
      <trkpt lat="46.00205" lon="4.75107">
        <ele>176</ele>
        <time>2018-06-26T10:16:16Z</time>
      </trkpt>
      <trkpt lat="46.00192" lon="4.75106">
        <ele>176</ele>
        <time>2018-06-26T10:16:17Z</time>
      </trkpt>
      <trkpt lat="46.00185" lon="4.75106">
        <ele>176</ele>
        <time>2018-06-26T10:16:18Z</time>
      </trkpt>
      <trkpt lat="46.00177" lon="4.75105">
        <ele>176</ele>
        <time>2018-06-26T10:16:19Z</time>
      </trkpt>
      <trkpt lat="46.00172" lon="4.75104">
        <ele>176</ele>
        <time>2018-06-26T10:16:20Z</time>
      </trkpt>
      <trkpt lat="46.00166" lon="4.75106">
        <ele>175</ele>
        <time>2018-06-26T10:16:21Z</time>
      </trkpt>
      <trkpt lat="46.00157" lon="4.75105">
        <ele>175</ele>
        <time>2018-06-26T10:16:23Z</time>
      </trkpt>
      <trkpt lat="46.00153" lon="4.75105">
        <ele>175</ele>
        <time>2018-06-26T10:16:24Z</time>
      </trkpt>
      <trkpt lat="46.00145" lon="4.75105">
        <ele>175</ele>
        <time>2018-06-26T10:16:26Z</time>
      </trkpt>
      <trkpt lat="46.0014" lon="4.75105">
        <ele>175</ele>
        <time>2018-06-26T10:16:27Z</time>
      </trkpt>
      <trkpt lat="46.00131" lon="4.75105">
        <ele>175</ele>
        <time>2018-06-26T10:16:29Z</time>
      </trkpt>
      <trkpt lat="46.00124" lon="4.75104">
        <ele>175</ele>
        <time>2018-06-26T10:16:30Z</time>
      </trkpt>
      <trkpt lat="46.00115" lon="4.75102">
        <ele>175</ele>
        <time>2018-06-26T10:16:32Z</time>
      </trkpt>
      <trkpt lat="46.0011" lon="4.75101">
        <ele>175</ele>
        <time>2018-06-26T10:16:33Z</time>
      </trkpt>
      <trkpt lat="46.00104" lon="4.75103">
        <ele>175</ele>
        <time>2018-06-26T10:16:34Z</time>
      </trkpt>
      <trkpt lat="46.00098" lon="4.75104">
        <ele>174</ele>
        <time>2018-06-26T10:16:35Z</time>
      </trkpt>
      <trkpt lat="46.00092" lon="4.75107">
        <ele>174</ele>
        <time>2018-06-26T10:16:36Z</time>
      </trkpt>
      <trkpt lat="46.00089" lon="4.75106">
        <ele>174</ele>
        <time>2018-06-26T10:16:37Z</time>
      </trkpt>
      <trkpt lat="46.00082" lon="4.75105">
        <ele>174</ele>
        <time>2018-06-26T10:16:38Z</time>
      </trkpt>
      <trkpt lat="46.00076" lon="4.75105">
        <ele>174</ele>
        <time>2018-06-26T10:16:39Z</time>
      </trkpt>
      <trkpt lat="46.00068" lon="4.75105">
        <ele>174</ele>
        <time>2018-06-26T10:16:40Z</time>
      </trkpt>
      <trkpt lat="46.00063" lon="4.75103">
        <ele>174</ele>
        <time>2018-06-26T10:16:41Z</time>
      </trkpt>
      <trkpt lat="46.00057" lon="4.75102">
        <ele>174</ele>
        <time>2018-06-26T10:16:42Z</time>
      </trkpt>
      <trkpt lat="46.0005" lon="4.75104">
        <ele>174</ele>
        <time>2018-06-26T10:16:43Z</time>
      </trkpt>
      <trkpt lat="46.00045" lon="4.75104">
        <ele>174</ele>
        <time>2018-06-26T10:16:44Z</time>
      </trkpt>
      <trkpt lat="46.0004" lon="4.75104">
        <ele>174</ele>
        <time>2018-06-26T10:16:45Z</time>
      </trkpt>
      <trkpt lat="46.0003" lon="4.75105">
        <ele>174</ele>
        <time>2018-06-26T10:16:46Z</time>
      </trkpt>
      <trkpt lat="46.00026" lon="4.75104">
        <ele>174</ele>
        <time>2018-06-26T10:16:47Z</time>
      </trkpt>
      <trkpt lat="46.00019" lon="4.75103">
        <ele>174</ele>
        <time>2018-06-26T10:16:48Z</time>
      </trkpt>
      <trkpt lat="46.00013" lon="4.75104">
        <ele>174</ele>
        <time>2018-06-26T10:16:49Z</time>
      </trkpt>
      <trkpt lat="46.00006" lon="4.75106">
        <ele>174</ele>
        <time>2018-06-26T10:16:50Z</time>
      </trkpt>
      <trkpt lat="46" lon="4.75108">
        <ele>173</ele>
        <time>2018-06-26T10:16:51Z</time>
      </trkpt>
      <trkpt lat="45.99995" lon="4.75111">
        <ele>173</ele>
        <time>2018-06-26T10:16:52Z</time>
      </trkpt>
      <trkpt lat="45.99988" lon="4.75113">
        <ele>173</ele>
        <time>2018-06-26T10:16:53Z</time>
      </trkpt>
      <trkpt lat="45.99981" lon="4.75116">
        <ele>173</ele>
        <time>2018-06-26T10:16:54Z</time>
      </trkpt>
      <trkpt lat="45.99974" lon="4.75118">
        <ele>173</ele>
        <time>2018-06-26T10:16:55Z</time>
      </trkpt>
      <trkpt lat="45.99969" lon="4.75121">
        <ele>173</ele>
        <time>2018-06-26T10:16:56Z</time>
      </trkpt>
      <trkpt lat="45.99964" lon="4.75122">
        <ele>173</ele>
        <time>2018-06-26T10:16:57Z</time>
      </trkpt>
      <trkpt lat="45.99959" lon="4.75125">
        <ele>173</ele>
        <time>2018-06-26T10:16:58Z</time>
      </trkpt>
      <trkpt lat="45.99953" lon="4.75127">
        <ele>172</ele>
        <time>2018-06-26T10:16:59Z</time>
      </trkpt>
      <trkpt lat="45.9995" lon="4.75128">
        <ele>172</ele>
        <time>2018-06-26T10:17:00Z</time>
      </trkpt>
      <trkpt lat="45.99944" lon="4.75132">
        <ele>172</ele>
        <time>2018-06-26T10:17:01Z</time>
      </trkpt>
      <trkpt lat="45.99939" lon="4.75135">
        <ele>172</ele>
        <time>2018-06-26T10:17:02Z</time>
      </trkpt>
      <trkpt lat="45.99931" lon="4.75139">
        <ele>172</ele>
        <time>2018-06-26T10:17:04Z</time>
      </trkpt>
      <trkpt lat="45.99925" lon="4.75141">
        <ele>173</ele>
        <time>2018-06-26T10:17:05Z</time>
      </trkpt>
      <trkpt lat="45.99922" lon="4.75144">
        <ele>173</ele>
        <time>2018-06-26T10:17:06Z</time>
      </trkpt>
      <trkpt lat="45.99917" lon="4.75147">
        <ele>173</ele>
        <time>2018-06-26T10:17:07Z</time>
      </trkpt>
      <trkpt lat="45.99912" lon="4.7515">
        <ele>172</ele>
        <time>2018-06-26T10:17:08Z</time>
      </trkpt>
      <trkpt lat="45.99907" lon="4.75151">
        <ele>172</ele>
        <time>2018-06-26T10:17:09Z</time>
      </trkpt>
      <trkpt lat="45.99903" lon="4.75152">
        <ele>172</ele>
        <time>2018-06-26T10:17:10Z</time>
      </trkpt>
      <trkpt lat="45.99897" lon="4.75155">
        <ele>172</ele>
        <time>2018-06-26T10:17:11Z</time>
      </trkpt>
      <trkpt lat="45.99892" lon="4.75158">
        <ele>172</ele>
        <time>2018-06-26T10:17:12Z</time>
      </trkpt>
      <trkpt lat="45.99886" lon="4.7516">
        <ele>172</ele>
        <time>2018-06-26T10:17:13Z</time>
      </trkpt>
      <trkpt lat="45.9988" lon="4.75163">
        <ele>172</ele>
        <time>2018-06-26T10:17:14Z</time>
      </trkpt>
      <trkpt lat="45.99874" lon="4.75166">
        <ele>172</ele>
        <time>2018-06-26T10:17:15Z</time>
      </trkpt>
      <trkpt lat="45.9987" lon="4.75168">
        <ele>174</ele>
        <time>2018-06-26T10:17:16Z</time>
      </trkpt>
      <trkpt lat="45.99865" lon="4.7517">
        <ele>174</ele>
        <time>2018-06-26T10:17:17Z</time>
      </trkpt>
      <trkpt lat="45.99858" lon="4.75174">
        <ele>174</ele>
        <time>2018-06-26T10:17:18Z</time>
      </trkpt>
      <trkpt lat="45.99854" lon="4.75177">
        <ele>174</ele>
        <time>2018-06-26T10:17:19Z</time>
      </trkpt>
      <trkpt lat="45.99848" lon="4.7518">
        <ele>174</ele>
        <time>2018-06-26T10:17:20Z</time>
      </trkpt>
      <trkpt lat="45.99843" lon="4.75182">
        <ele>174</ele>
        <time>2018-06-26T10:17:21Z</time>
      </trkpt>
      <trkpt lat="45.99838" lon="4.75186">
        <ele>174</ele>
        <time>2018-06-26T10:17:22Z</time>
      </trkpt>
      <trkpt lat="45.99833" lon="4.75189">
        <ele>173</ele>
        <time>2018-06-26T10:17:23Z</time>
      </trkpt>
      <trkpt lat="45.99827" lon="4.75191">
        <ele>174</ele>
        <time>2018-06-26T10:17:24Z</time>
      </trkpt>
      <trkpt lat="45.99821" lon="4.75194">
        <ele>174</ele>
        <time>2018-06-26T10:17:25Z</time>
      </trkpt>
      <trkpt lat="45.99816" lon="4.75196">
        <ele>174</ele>
        <time>2018-06-26T10:17:26Z</time>
      </trkpt>
      <trkpt lat="45.99809" lon="4.75199">
        <ele>174</ele>
        <time>2018-06-26T10:17:27Z</time>
      </trkpt>
      <trkpt lat="45.99804" lon="4.75201">
        <ele>174</ele>
        <time>2018-06-26T10:17:28Z</time>
      </trkpt>
      <trkpt lat="45.99797" lon="4.75204">
        <ele>174</ele>
        <time>2018-06-26T10:17:29Z</time>
      </trkpt>
      <trkpt lat="45.99789" lon="4.75209">
        <ele>174</ele>
        <time>2018-06-26T10:17:31Z</time>
      </trkpt>
      <trkpt lat="45.99783" lon="4.75212">
        <ele>174</ele>
        <time>2018-06-26T10:17:32Z</time>
      </trkpt>
      <trkpt lat="45.99777" lon="4.75215">
        <ele>174</ele>
        <time>2018-06-26T10:17:33Z</time>
      </trkpt>
      <trkpt lat="45.99772" lon="4.75217">
        <ele>175</ele>
        <time>2018-06-26T10:17:34Z</time>
      </trkpt>
      <trkpt lat="45.99766" lon="4.75219">
        <ele>175</ele>
        <time>2018-06-26T10:17:35Z</time>
      </trkpt>
      <trkpt lat="45.9976" lon="4.75224">
        <ele>175</ele>
        <time>2018-06-26T10:17:36Z</time>
      </trkpt>
      <trkpt lat="45.99754" lon="4.75226">
        <ele>175</ele>
        <time>2018-06-26T10:17:37Z</time>
      </trkpt>
      <trkpt lat="45.99749" lon="4.75229">
        <ele>175</ele>
        <time>2018-06-26T10:17:38Z</time>
      </trkpt>
      <trkpt lat="45.99743" lon="4.75231">
        <ele>175</ele>
        <time>2018-06-26T10:17:39Z</time>
      </trkpt>
      <trkpt lat="45.99737" lon="4.75234">
        <ele>175</ele>
        <time>2018-06-26T10:17:40Z</time>
      </trkpt>
      <trkpt lat="45.99732" lon="4.75235">
        <ele>175</ele>
        <time>2018-06-26T10:17:41Z</time>
      </trkpt>
      <trkpt lat="45.99727" lon="4.75239">
        <ele>175</ele>
        <time>2018-06-26T10:17:42Z</time>
      </trkpt>
      <trkpt lat="45.99721" lon="4.75242">
        <ele>174</ele>
        <time>2018-06-26T10:17:43Z</time>
      </trkpt>
      <trkpt lat="45.99715" lon="4.75245">
        <ele>174</ele>
        <time>2018-06-26T10:17:44Z</time>
      </trkpt>
      <trkpt lat="45.99709" lon="4.75247">
        <ele>174</ele>
        <time>2018-06-26T10:17:45Z</time>
      </trkpt>
      <trkpt lat="45.99704" lon="4.7525">
        <ele>174</ele>
        <time>2018-06-26T10:17:46Z</time>
      </trkpt>
      <trkpt lat="45.99699" lon="4.75251">
        <ele>176</ele>
        <time>2018-06-26T10:17:47Z</time>
      </trkpt>
      <trkpt lat="45.99694" lon="4.75254">
        <ele>176</ele>
        <time>2018-06-26T10:17:48Z</time>
      </trkpt>
      <trkpt lat="45.99688" lon="4.75256">
        <ele>175</ele>
        <time>2018-06-26T10:17:49Z</time>
      </trkpt>
      <trkpt lat="45.99683" lon="4.75259">
        <ele>175</ele>
        <time>2018-06-26T10:17:50Z</time>
      </trkpt>
      <trkpt lat="45.99678" lon="4.75262">
        <ele>175</ele>
        <time>2018-06-26T10:17:51Z</time>
      </trkpt>
      <trkpt lat="45.99674" lon="4.75264">
        <ele>175</ele>
        <time>2018-06-26T10:17:52Z</time>
      </trkpt>
      <trkpt lat="45.99669" lon="4.75272">
        <ele>175</ele>
        <time>2018-06-26T10:17:54Z</time>
      </trkpt>
      <trkpt lat="45.99664" lon="4.75273">
        <ele>174</ele>
        <time>2018-06-26T10:17:55Z</time>
      </trkpt>
      <trkpt lat="45.9966" lon="4.75275">
        <ele>174</ele>
        <time>2018-06-26T10:17:56Z</time>
      </trkpt>
      <trkpt lat="45.99655" lon="4.75275">
        <ele>174</ele>
        <time>2018-06-26T10:17:57Z</time>
      </trkpt>
      <trkpt lat="45.9965" lon="4.75275">
        <ele>174</ele>
        <time>2018-06-26T10:17:58Z</time>
      </trkpt>
      <trkpt lat="45.99645" lon="4.75275">
        <ele>174</ele>
        <time>2018-06-26T10:17:59Z</time>
      </trkpt>
      <trkpt lat="45.99637" lon="4.75273">
        <ele>174</ele>
        <time>2018-06-26T10:18:01Z</time>
      </trkpt>
      <trkpt lat="45.99632" lon="4.75272">
        <ele>174</ele>
        <time>2018-06-26T10:18:02Z</time>
      </trkpt>
      <trkpt lat="45.99628" lon="4.75272">
        <ele>174</ele>
        <time>2018-06-26T10:18:03Z</time>
      </trkpt>
      <trkpt lat="45.99623" lon="4.75272">
        <ele>174</ele>
        <time>2018-06-26T10:18:04Z</time>
      </trkpt>
      <trkpt lat="45.99618" lon="4.75273">
        <ele>174</ele>
        <time>2018-06-26T10:18:05Z</time>
      </trkpt>
      <trkpt lat="45.99614" lon="4.75274">
        <ele>174</ele>
        <time>2018-06-26T10:18:06Z</time>
      </trkpt>
      <trkpt lat="45.99606" lon="4.75276">
        <ele>173</ele>
        <time>2018-06-26T10:18:08Z</time>
      </trkpt>
      <trkpt lat="45.99601" lon="4.75276">
        <ele>173</ele>
        <time>2018-06-26T10:18:09Z</time>
      </trkpt>
      <trkpt lat="45.99596" lon="4.75274">
        <ele>173</ele>
        <time>2018-06-26T10:18:10Z</time>
      </trkpt>
      <trkpt lat="45.99591" lon="4.75273">
        <ele>173</ele>
        <time>2018-06-26T10:18:11Z</time>
      </trkpt>
      <trkpt lat="45.99586" lon="4.75271">
        <ele>173</ele>
        <time>2018-06-26T10:18:12Z</time>
      </trkpt>
      <trkpt lat="45.99581" lon="4.75268">
        <ele>172</ele>
        <time>2018-06-26T10:18:13Z</time>
      </trkpt>
      <trkpt lat="45.99575" lon="4.75267">
        <ele>172</ele>
        <time>2018-06-26T10:18:14Z</time>
      </trkpt>
      <trkpt lat="45.99569" lon="4.75271">
        <ele>172</ele>
        <time>2018-06-26T10:18:15Z</time>
      </trkpt>
      <trkpt lat="45.99562" lon="4.75274">
        <ele>172</ele>
        <time>2018-06-26T10:18:16Z</time>
      </trkpt>
      <trkpt lat="45.99558" lon="4.75278">
        <ele>172</ele>
        <time>2018-06-26T10:18:17Z</time>
      </trkpt>
      <trkpt lat="45.99554" lon="4.75283">
        <ele>172</ele>
        <time>2018-06-26T10:18:18Z</time>
      </trkpt>
      <trkpt lat="45.99549" lon="4.75288">
        <ele>172</ele>
        <time>2018-06-26T10:18:19Z</time>
      </trkpt>
      <trkpt lat="45.99545" lon="4.75294">
        <ele>172</ele>
        <time>2018-06-26T10:18:20Z</time>
      </trkpt>
      <trkpt lat="45.9954" lon="4.75296">
        <ele>172</ele>
        <time>2018-06-26T10:18:21Z</time>
      </trkpt>
      <trkpt lat="45.99535" lon="4.75299">
        <ele>172</ele>
        <time>2018-06-26T10:18:22Z</time>
      </trkpt>
      <trkpt lat="45.99529" lon="4.75301">
        <ele>172</ele>
        <time>2018-06-26T10:18:23Z</time>
      </trkpt>
      <trkpt lat="45.99523" lon="4.75302">
        <ele>172</ele>
        <time>2018-06-26T10:18:24Z</time>
      </trkpt>
      <trkpt lat="45.99517" lon="4.75304">
        <ele>172</ele>
        <time>2018-06-26T10:18:25Z</time>
      </trkpt>
      <trkpt lat="45.99511" lon="4.75306">
        <ele>172</ele>
        <time>2018-06-26T10:18:26Z</time>
      </trkpt>
      <trkpt lat="45.99505" lon="4.75306">
        <ele>172</ele>
        <time>2018-06-26T10:18:27Z</time>
      </trkpt>
      <trkpt lat="45.99499" lon="4.75307">
        <ele>171</ele>
        <time>2018-06-26T10:18:28Z</time>
      </trkpt>
      <trkpt lat="45.99493" lon="4.75307">
        <ele>171</ele>
        <time>2018-06-26T10:18:29Z</time>
      </trkpt>
      <trkpt lat="45.99487" lon="4.75309">
        <ele>171</ele>
        <time>2018-06-26T10:18:30Z</time>
      </trkpt>
      <trkpt lat="45.99481" lon="4.75309">
        <ele>171</ele>
        <time>2018-06-26T10:18:31Z</time>
      </trkpt>
      <trkpt lat="45.99475" lon="4.7531">
        <ele>171</ele>
        <time>2018-06-26T10:18:32Z</time>
      </trkpt>
      <trkpt lat="45.99469" lon="4.75311">
        <ele>171</ele>
        <time>2018-06-26T10:18:33Z</time>
      </trkpt>
      <trkpt lat="45.99463" lon="4.75312">
        <ele>171</ele>
        <time>2018-06-26T10:18:34Z</time>
      </trkpt>
      <trkpt lat="45.99456" lon="4.75312">
        <ele>171</ele>
        <time>2018-06-26T10:18:35Z</time>
      </trkpt>
      <trkpt lat="45.99451" lon="4.75313">
        <ele>171</ele>
        <time>2018-06-26T10:18:36Z</time>
      </trkpt>
      <trkpt lat="45.99444" lon="4.75313">
        <ele>171</ele>
        <time>2018-06-26T10:18:37Z</time>
      </trkpt>
      <trkpt lat="45.99437" lon="4.75313">
        <ele>171</ele>
        <time>2018-06-26T10:18:38Z</time>
      </trkpt>
      <trkpt lat="45.9943" lon="4.75314">
        <ele>171</ele>
        <time>2018-06-26T10:18:39Z</time>
      </trkpt>
      <trkpt lat="45.99424" lon="4.75316">
        <ele>171</ele>
        <time>2018-06-26T10:18:40Z</time>
      </trkpt>
      <trkpt lat="45.99418" lon="4.75317">
        <ele>171</ele>
        <time>2018-06-26T10:18:41Z</time>
      </trkpt>
      <trkpt lat="45.99411" lon="4.75318">
        <ele>170</ele>
        <time>2018-06-26T10:18:42Z</time>
      </trkpt>
      <trkpt lat="45.99406" lon="4.75321">
        <ele>170</ele>
        <time>2018-06-26T10:18:43Z</time>
      </trkpt>
      <trkpt lat="45.99399" lon="4.75324">
        <ele>170</ele>
        <time>2018-06-26T10:18:44Z</time>
      </trkpt>
      <trkpt lat="45.99393" lon="4.75328">
        <ele>170</ele>
        <time>2018-06-26T10:18:45Z</time>
      </trkpt>
      <trkpt lat="45.99387" lon="4.75333">
        <ele>170</ele>
        <time>2018-06-26T10:18:46Z</time>
      </trkpt>
      <trkpt lat="45.99382" lon="4.75338">
        <ele>171</ele>
        <time>2018-06-26T10:18:47Z</time>
      </trkpt>
      <trkpt lat="45.99377" lon="4.75344">
        <ele>172</ele>
        <time>2018-06-26T10:18:48Z</time>
      </trkpt>
      <trkpt lat="45.99373" lon="4.7535">
        <ele>172</ele>
        <time>2018-06-26T10:18:49Z</time>
      </trkpt>
      <trkpt lat="45.99369" lon="4.75356">
        <ele>172</ele>
        <time>2018-06-26T10:18:50Z</time>
      </trkpt>
      <trkpt lat="45.99364" lon="4.75364">
        <ele>172</ele>
        <time>2018-06-26T10:18:51Z</time>
      </trkpt>
      <trkpt lat="45.9936" lon="4.75372">
        <ele>172</ele>
        <time>2018-06-26T10:18:52Z</time>
      </trkpt>
      <trkpt lat="45.99357" lon="4.75379">
        <ele>172</ele>
        <time>2018-06-26T10:18:53Z</time>
      </trkpt>
      <trkpt lat="45.99353" lon="4.75386">
        <ele>172</ele>
        <time>2018-06-26T10:18:54Z</time>
      </trkpt>
      <trkpt lat="45.99349" lon="4.75393">
        <ele>172</ele>
        <time>2018-06-26T10:18:55Z</time>
      </trkpt>
      <trkpt lat="45.99346" lon="4.754">
        <ele>173</ele>
        <time>2018-06-26T10:18:56Z</time>
      </trkpt>
      <trkpt lat="45.99343" lon="4.75408">
        <ele>173</ele>
        <time>2018-06-26T10:18:57Z</time>
      </trkpt>
      <trkpt lat="45.9934" lon="4.75416">
        <ele>173</ele>
        <time>2018-06-26T10:18:58Z</time>
      </trkpt>
      <trkpt lat="45.99338" lon="4.75424">
        <ele>174</ele>
        <time>2018-06-26T10:18:59Z</time>
      </trkpt>
      <trkpt lat="45.99336" lon="4.75433">
        <ele>175</ele>
        <time>2018-06-26T10:19:00Z</time>
      </trkpt>
      <trkpt lat="45.99335" lon="4.75442">
        <ele>176</ele>
        <time>2018-06-26T10:19:01Z</time>
      </trkpt>
      <trkpt lat="45.99332" lon="4.75452">
        <ele>174</ele>
        <time>2018-06-26T10:19:02Z</time>
      </trkpt>
      <trkpt lat="45.99329" lon="4.7546">
        <ele>174</ele>
        <time>2018-06-26T10:19:03Z</time>
      </trkpt>
      <trkpt lat="45.99326" lon="4.75468">
        <ele>174</ele>
        <time>2018-06-26T10:19:04Z</time>
      </trkpt>
      <trkpt lat="45.99323" lon="4.75477">
        <ele>174</ele>
        <time>2018-06-26T10:19:05Z</time>
      </trkpt>
      <trkpt lat="45.99319" lon="4.75484">
        <ele>175</ele>
        <time>2018-06-26T10:19:06Z</time>
      </trkpt>
      <trkpt lat="45.99316" lon="4.75491">
        <ele>175</ele>
        <time>2018-06-26T10:19:07Z</time>
      </trkpt>
      <trkpt lat="45.99312" lon="4.75497">
        <ele>175</ele>
        <time>2018-06-26T10:19:08Z</time>
      </trkpt>
      <trkpt lat="45.99308" lon="4.75503">
        <ele>177</ele>
        <time>2018-06-26T10:19:09Z</time>
      </trkpt>
      <trkpt lat="45.99304" lon="4.75508">
        <ele>177</ele>
        <time>2018-06-26T10:19:10Z</time>
      </trkpt>
      <trkpt lat="45.99299" lon="4.75514">
        <ele>177</ele>
        <time>2018-06-26T10:19:11Z</time>
      </trkpt>
      <trkpt lat="45.99294" lon="4.7552">
        <ele>177</ele>
        <time>2018-06-26T10:19:12Z</time>
      </trkpt>
      <trkpt lat="45.9929" lon="4.75525">
        <ele>177</ele>
        <time>2018-06-26T10:19:13Z</time>
      </trkpt>
      <trkpt lat="45.99285" lon="4.75529">
        <ele>177</ele>
        <time>2018-06-26T10:19:14Z</time>
      </trkpt>
      <trkpt lat="45.9928" lon="4.75533">
        <ele>176</ele>
        <time>2018-06-26T10:19:15Z</time>
      </trkpt>
      <trkpt lat="45.99275" lon="4.75538">
        <ele>177</ele>
        <time>2018-06-26T10:19:16Z</time>
      </trkpt>
      <trkpt lat="45.9927" lon="4.75542">
        <ele>177</ele>
        <time>2018-06-26T10:19:17Z</time>
      </trkpt>
      <trkpt lat="45.99266" lon="4.75546">
        <ele>177</ele>
        <time>2018-06-26T10:19:18Z</time>
      </trkpt>
      <trkpt lat="45.99261" lon="4.7555">
        <ele>177</ele>
        <time>2018-06-26T10:19:19Z</time>
      </trkpt>
      <trkpt lat="45.99255" lon="4.75552">
        <ele>177</ele>
        <time>2018-06-26T10:19:20Z</time>
      </trkpt>
      <trkpt lat="45.9925" lon="4.75556">
        <ele>177</ele>
        <time>2018-06-26T10:19:21Z</time>
      </trkpt>
      <trkpt lat="45.99246" lon="4.75559">
        <ele>175</ele>
        <time>2018-06-26T10:19:22Z</time>
      </trkpt>
      <trkpt lat="45.99241" lon="4.75562">
        <ele>175</ele>
        <time>2018-06-26T10:19:23Z</time>
      </trkpt>
      <trkpt lat="45.99237" lon="4.75565">
        <ele>175</ele>
        <time>2018-06-26T10:19:24Z</time>
      </trkpt>
      <trkpt lat="45.99232" lon="4.75567">
        <ele>175</ele>
        <time>2018-06-26T10:19:25Z</time>
      </trkpt>
      <trkpt lat="45.99227" lon="4.75571">
        <ele>175</ele>
        <time>2018-06-26T10:19:26Z</time>
      </trkpt>
      <trkpt lat="45.99223" lon="4.75574">
        <ele>175</ele>
        <time>2018-06-26T10:19:27Z</time>
      </trkpt>
      <trkpt lat="45.99218" lon="4.75577">
        <ele>175</ele>
        <time>2018-06-26T10:19:28Z</time>
      </trkpt>
      <trkpt lat="45.99213" lon="4.7558">
        <ele>175</ele>
        <time>2018-06-26T10:19:29Z</time>
      </trkpt>
      <trkpt lat="45.99207" lon="4.75583">
        <ele>178</ele>
        <time>2018-06-26T10:19:30Z</time>
      </trkpt>
      <trkpt lat="45.99202" lon="4.75587">
        <ele>178</ele>
        <time>2018-06-26T10:19:31Z</time>
      </trkpt>
      <trkpt lat="45.99197" lon="4.75591">
        <ele>178</ele>
        <time>2018-06-26T10:19:32Z</time>
      </trkpt>
      <trkpt lat="45.99193" lon="4.75594">
        <ele>178</ele>
        <time>2018-06-26T10:19:33Z</time>
      </trkpt>
      <trkpt lat="45.99187" lon="4.75597">
        <ele>178</ele>
        <time>2018-06-26T10:19:34Z</time>
      </trkpt>
      <trkpt lat="45.99182" lon="4.75599">
        <ele>177</ele>
        <time>2018-06-26T10:19:35Z</time>
      </trkpt>
      <trkpt lat="45.99177" lon="4.75601">
        <ele>177</ele>
        <time>2018-06-26T10:19:36Z</time>
      </trkpt>
      <trkpt lat="45.99171" lon="4.75604">
        <ele>177</ele>
        <time>2018-06-26T10:19:37Z</time>
      </trkpt>
      <trkpt lat="45.99166" lon="4.75605">
        <ele>176</ele>
        <time>2018-06-26T10:19:38Z</time>
      </trkpt>
      <trkpt lat="45.99161" lon="4.75607">
        <ele>176</ele>
        <time>2018-06-26T10:19:39Z</time>
      </trkpt>
      <trkpt lat="45.99155" lon="4.75607">
        <ele>176</ele>
        <time>2018-06-26T10:19:40Z</time>
      </trkpt>
      <trkpt lat="45.99151" lon="4.75609">
        <ele>177</ele>
        <time>2018-06-26T10:19:41Z</time>
      </trkpt>
      <trkpt lat="45.99147" lon="4.75609">
        <ele>177</ele>
        <time>2018-06-26T10:19:42Z</time>
      </trkpt>
      <trkpt lat="45.99141" lon="4.75608">
        <ele>176</ele>
        <time>2018-06-26T10:19:43Z</time>
      </trkpt>
      <trkpt lat="45.99135" lon="4.75608">
        <ele>176</ele>
        <time>2018-06-26T10:19:44Z</time>
      </trkpt>
      <trkpt lat="45.9913" lon="4.7561">
        <ele>177</ele>
        <time>2018-06-26T10:19:45Z</time>
      </trkpt>
      <trkpt lat="45.99124" lon="4.75612">
        <ele>177</ele>
        <time>2018-06-26T10:19:46Z</time>
      </trkpt>
      <trkpt lat="45.9912" lon="4.75617">
        <ele>177</ele>
        <time>2018-06-26T10:19:47Z</time>
      </trkpt>
      <trkpt lat="45.99117" lon="4.75622">
        <ele>177</ele>
        <time>2018-06-26T10:19:48Z</time>
      </trkpt>
      <trkpt lat="45.99114" lon="4.75629">
        <ele>177</ele>
        <time>2018-06-26T10:19:49Z</time>
      </trkpt>
      <trkpt lat="45.99111" lon="4.75635">
        <ele>177</ele>
        <time>2018-06-26T10:19:50Z</time>
      </trkpt>
      <trkpt lat="45.99106" lon="4.75639">
        <ele>178</ele>
        <time>2018-06-26T10:19:51Z</time>
      </trkpt>
      <trkpt lat="45.99102" lon="4.75645">
        <ele>178</ele>
        <time>2018-06-26T10:19:52Z</time>
      </trkpt>
      <trkpt lat="45.99097" lon="4.75649">
        <ele>178</ele>
        <time>2018-06-26T10:19:53Z</time>
      </trkpt>
      <trkpt lat="45.99092" lon="4.75652">
        <ele>178</ele>
        <time>2018-06-26T10:19:54Z</time>
      </trkpt>
      <trkpt lat="45.99087" lon="4.75655">
        <ele>179</ele>
        <time>2018-06-26T10:19:55Z</time>
      </trkpt>
      <trkpt lat="45.99082" lon="4.75657">
        <ele>179</ele>
        <time>2018-06-26T10:19:56Z</time>
      </trkpt>
      <trkpt lat="45.99075" lon="4.75659">
        <ele>179</ele>
        <time>2018-06-26T10:19:57Z</time>
      </trkpt>
      <trkpt lat="45.99067" lon="4.75659">
        <ele>178</ele>
        <time>2018-06-26T10:19:59Z</time>
      </trkpt>
      <trkpt lat="45.99063" lon="4.7566">
        <ele>178</ele>
        <time>2018-06-26T10:20:00Z</time>
      </trkpt>
      <trkpt lat="45.99056" lon="4.7566">
        <ele>178</ele>
        <time>2018-06-26T10:20:01Z</time>
      </trkpt>
      <trkpt lat="45.99049" lon="4.75659">
        <ele>178</ele>
        <time>2018-06-26T10:20:02Z</time>
      </trkpt>
      <trkpt lat="45.99042" lon="4.75659">
        <ele>178</ele>
        <time>2018-06-26T10:20:03Z</time>
      </trkpt>
      <trkpt lat="45.99036" lon="4.75659">
        <ele>178</ele>
        <time>2018-06-26T10:20:04Z</time>
      </trkpt>
      <trkpt lat="45.9903" lon="4.75659">
        <ele>178</ele>
        <time>2018-06-26T10:20:05Z</time>
      </trkpt>
      <trkpt lat="45.99024" lon="4.75659">
        <ele>178</ele>
        <time>2018-06-26T10:20:06Z</time>
      </trkpt>
      <trkpt lat="45.99018" lon="4.75659">
        <ele>178</ele>
        <time>2018-06-26T10:20:07Z</time>
      </trkpt>
      <trkpt lat="45.99012" lon="4.75659">
        <ele>179</ele>
        <time>2018-06-26T10:20:08Z</time>
      </trkpt>
      <trkpt lat="45.99007" lon="4.75661">
        <ele>179</ele>
        <time>2018-06-26T10:20:09Z</time>
      </trkpt>
      <trkpt lat="45.99001" lon="4.75661">
        <ele>179</ele>
        <time>2018-06-26T10:20:10Z</time>
      </trkpt>
      <trkpt lat="45.98995" lon="4.75662">
        <ele>179</ele>
        <time>2018-06-26T10:20:11Z</time>
      </trkpt>
      <trkpt lat="45.98989" lon="4.75663">
        <ele>178</ele>
        <time>2018-06-26T10:20:12Z</time>
      </trkpt>
      <trkpt lat="45.98983" lon="4.75663">
        <ele>178</ele>
        <time>2018-06-26T10:20:13Z</time>
      </trkpt>
      <trkpt lat="45.98977" lon="4.75664">
        <ele>178</ele>
        <time>2018-06-26T10:20:14Z</time>
      </trkpt>
      <trkpt lat="45.9897" lon="4.75666">
        <ele>177</ele>
        <time>2018-06-26T10:20:15Z</time>
      </trkpt>
      <trkpt lat="45.98964" lon="4.75667">
        <ele>181</ele>
        <time>2018-06-26T10:20:16Z</time>
      </trkpt>
      <trkpt lat="45.98959" lon="4.7567">
        <ele>181</ele>
        <time>2018-06-26T10:20:17Z</time>
      </trkpt>
      <trkpt lat="45.98953" lon="4.75672">
        <ele>181</ele>
        <time>2018-06-26T10:20:18Z</time>
      </trkpt>
      <trkpt lat="45.98948" lon="4.75676">
        <ele>181</ele>
        <time>2018-06-26T10:20:19Z</time>
      </trkpt>
      <trkpt lat="45.98943" lon="4.75678">
        <ele>181</ele>
        <time>2018-06-26T10:20:20Z</time>
      </trkpt>
      <trkpt lat="45.98936" lon="4.7568">
        <ele>180</ele>
        <time>2018-06-26T10:20:21Z</time>
      </trkpt>
      <trkpt lat="45.98931" lon="4.75683">
        <ele>180</ele>
        <time>2018-06-26T10:20:22Z</time>
      </trkpt>
      <trkpt lat="45.98925" lon="4.75686">
        <ele>180</ele>
        <time>2018-06-26T10:20:23Z</time>
      </trkpt>
      <trkpt lat="45.98919" lon="4.7569">
        <ele>180</ele>
        <time>2018-06-26T10:20:24Z</time>
      </trkpt>
      <trkpt lat="45.98913" lon="4.75692">
        <ele>179</ele>
        <time>2018-06-26T10:20:25Z</time>
      </trkpt>
      <trkpt lat="45.98908" lon="4.75694">
        <ele>179</ele>
        <time>2018-06-26T10:20:26Z</time>
      </trkpt>
      <trkpt lat="45.98903" lon="4.75696">
        <ele>180</ele>
        <time>2018-06-26T10:20:27Z</time>
      </trkpt>
      <trkpt lat="45.98897" lon="4.75699">
        <ele>180</ele>
        <time>2018-06-26T10:20:28Z</time>
      </trkpt>
      <trkpt lat="45.98891" lon="4.75702">
        <ele>180</ele>
        <time>2018-06-26T10:20:29Z</time>
      </trkpt>
      <trkpt lat="45.98886" lon="4.75705">
        <ele>180</ele>
        <time>2018-06-26T10:20:30Z</time>
      </trkpt>
      <trkpt lat="45.9888" lon="4.75706">
        <ele>180</ele>
        <time>2018-06-26T10:20:31Z</time>
      </trkpt>
      <trkpt lat="45.98874" lon="4.75709">
        <ele>180</ele>
        <time>2018-06-26T10:20:32Z</time>
      </trkpt>
      <trkpt lat="45.98868" lon="4.75711">
        <ele>180</ele>
        <time>2018-06-26T10:20:33Z</time>
      </trkpt>
      <trkpt lat="45.98863" lon="4.75713">
        <ele>180</ele>
        <time>2018-06-26T10:20:34Z</time>
      </trkpt>
      <trkpt lat="45.98857" lon="4.75714">
        <ele>180</ele>
        <time>2018-06-26T10:20:35Z</time>
      </trkpt>
      <trkpt lat="45.98851" lon="4.75713">
        <ele>180</ele>
        <time>2018-06-26T10:20:36Z</time>
      </trkpt>
      <trkpt lat="45.98846" lon="4.75714">
        <ele>180</ele>
        <time>2018-06-26T10:20:37Z</time>
      </trkpt>
      <trkpt lat="45.9884" lon="4.75716">
        <ele>180</ele>
        <time>2018-06-26T10:20:38Z</time>
      </trkpt>
      <trkpt lat="45.98835" lon="4.75717">
        <ele>180</ele>
        <time>2018-06-26T10:20:39Z</time>
      </trkpt>
      <trkpt lat="45.98829" lon="4.75717">
        <ele>179</ele>
        <time>2018-06-26T10:20:40Z</time>
      </trkpt>
      <trkpt lat="45.98823" lon="4.75719">
        <ele>179</ele>
        <time>2018-06-26T10:20:41Z</time>
      </trkpt>
      <trkpt lat="45.98816" lon="4.75718">
        <ele>179</ele>
        <time>2018-06-26T10:20:42Z</time>
      </trkpt>
      <trkpt lat="45.9881" lon="4.7572">
        <ele>179</ele>
        <time>2018-06-26T10:20:43Z</time>
      </trkpt>
      <trkpt lat="45.98803" lon="4.75719">
        <ele>179</ele>
        <time>2018-06-26T10:20:44Z</time>
      </trkpt>
      <trkpt lat="45.98795" lon="4.7572">
        <ele>178</ele>
        <time>2018-06-26T10:20:46Z</time>
      </trkpt>
      <trkpt lat="45.9879" lon="4.75721">
        <ele>178</ele>
        <time>2018-06-26T10:20:47Z</time>
      </trkpt>
      <trkpt lat="45.98786" lon="4.75722">
        <ele>178</ele>
        <time>2018-06-26T10:20:49Z</time>
      </trkpt>
      <trkpt lat="45.98781" lon="4.75721">
        <ele>178</ele>
        <time>2018-06-26T10:20:50Z</time>
      </trkpt>
      <trkpt lat="45.98773" lon="4.75719">
        <ele>178</ele>
        <time>2018-06-26T10:20:52Z</time>
      </trkpt>
      <trkpt lat="45.98769" lon="4.75722">
        <ele>178</ele>
        <time>2018-06-26T10:20:53Z</time>
      </trkpt>
      <trkpt lat="45.98767" lon="4.75734">
        <ele>178</ele>
        <time>2018-06-26T10:20:56Z</time>
      </trkpt>
      <trkpt lat="45.98768" lon="4.75742">
        <ele>178</ele>
        <time>2018-06-26T10:20:57Z</time>
      </trkpt>
      <trkpt lat="45.98767" lon="4.75754">
        <ele>179</ele>
        <time>2018-06-26T10:20:59Z</time>
      </trkpt>
      <trkpt lat="45.98767" lon="4.7576">
        <ele>179</ele>
        <time>2018-06-26T10:21:00Z</time>
      </trkpt>
      <trkpt lat="45.98765" lon="4.75772">
        <ele>179</ele>
        <time>2018-06-26T10:21:02Z</time>
      </trkpt>
      <trkpt lat="45.98764" lon="4.75779">
        <ele>179</ele>
        <time>2018-06-26T10:21:03Z</time>
      </trkpt>
      <trkpt lat="45.98763" lon="4.75783">
        <ele>179</ele>
        <time>2018-06-26T10:21:04Z</time>
      </trkpt>
      <trkpt lat="45.9876" lon="4.75793">
        <ele>179</ele>
        <time>2018-06-26T10:21:05Z</time>
      </trkpt>
      <trkpt lat="45.98759" lon="4.758">
        <ele>179</ele>
        <time>2018-06-26T10:21:06Z</time>
      </trkpt>
      <trkpt lat="45.98758" lon="4.75808">
        <ele>179</ele>
        <time>2018-06-26T10:21:07Z</time>
      </trkpt>
      <trkpt lat="45.98756" lon="4.75814">
        <ele>179</ele>
        <time>2018-06-26T10:21:08Z</time>
      </trkpt>
      <trkpt lat="45.98756" lon="4.75821">
        <ele>179</ele>
        <time>2018-06-26T10:21:09Z</time>
      </trkpt>
      <trkpt lat="45.98755" lon="4.75829">
        <ele>178</ele>
        <time>2018-06-26T10:21:10Z</time>
      </trkpt>
      <trkpt lat="45.98754" lon="4.75837">
        <ele>178</ele>
        <time>2018-06-26T10:21:11Z</time>
      </trkpt>
      <trkpt lat="45.98753" lon="4.75844">
        <ele>179</ele>
        <time>2018-06-26T10:21:12Z</time>
      </trkpt>
      <trkpt lat="45.98753" lon="4.75851">
        <ele>179</ele>
        <time>2018-06-26T10:21:13Z</time>
      </trkpt>
      <trkpt lat="45.98751" lon="4.75859">
        <ele>180</ele>
        <time>2018-06-26T10:21:14Z</time>
      </trkpt>
      <trkpt lat="45.98749" lon="4.75865">
        <ele>179</ele>
        <time>2018-06-26T10:21:15Z</time>
      </trkpt>
      <trkpt lat="45.98747" lon="4.75871">
        <ele>179</ele>
        <time>2018-06-26T10:21:16Z</time>
      </trkpt>
      <trkpt lat="45.98746" lon="4.75879">
        <ele>179</ele>
        <time>2018-06-26T10:21:17Z</time>
      </trkpt>
      <trkpt lat="45.98745" lon="4.75886">
        <ele>179</ele>
        <time>2018-06-26T10:21:18Z</time>
      </trkpt>
      <trkpt lat="45.98742" lon="4.75892">
        <ele>179</ele>
        <time>2018-06-26T10:21:19Z</time>
      </trkpt>
      <trkpt lat="45.98741" lon="4.75904">
        <ele>180</ele>
        <time>2018-06-26T10:21:21Z</time>
      </trkpt>
      <trkpt lat="45.98739" lon="4.75908">
        <ele>180</ele>
        <time>2018-06-26T10:21:22Z</time>
      </trkpt>
      <trkpt lat="45.98738" lon="4.75918">
        <ele>180</ele>
        <time>2018-06-26T10:21:23Z</time>
      </trkpt>
      <trkpt lat="45.98735" lon="4.75924">
        <ele>180</ele>
        <time>2018-06-26T10:21:24Z</time>
      </trkpt>
      <trkpt lat="45.98734" lon="4.75932">
        <ele>180</ele>
        <time>2018-06-26T10:21:25Z</time>
      </trkpt>
      <trkpt lat="45.98733" lon="4.75938">
        <ele>180</ele>
        <time>2018-06-26T10:21:26Z</time>
      </trkpt>
      <trkpt lat="45.98733" lon="4.75945">
        <ele>180</ele>
        <time>2018-06-26T10:21:27Z</time>
      </trkpt>
      <trkpt lat="45.98732" lon="4.75952">
        <ele>180</ele>
        <time>2018-06-26T10:21:28Z</time>
      </trkpt>
      <trkpt lat="45.98732" lon="4.75959">
        <ele>181</ele>
        <time>2018-06-26T10:21:29Z</time>
      </trkpt>
      <trkpt lat="45.9873" lon="4.75965">
        <ele>181</ele>
        <time>2018-06-26T10:21:30Z</time>
      </trkpt>
      <trkpt lat="45.98728" lon="4.75976">
        <ele>181</ele>
        <time>2018-06-26T10:21:32Z</time>
      </trkpt>
      <trkpt lat="45.98727" lon="4.75986">
        <ele>181</ele>
        <time>2018-06-26T10:21:33Z</time>
      </trkpt>
      <trkpt lat="45.98728" lon="4.75993">
        <ele>181</ele>
        <time>2018-06-26T10:21:34Z</time>
      </trkpt>
      <trkpt lat="45.98727" lon="4.75999">
        <ele>181</ele>
        <time>2018-06-26T10:21:35Z</time>
      </trkpt>
      <trkpt lat="45.98727" lon="4.76005">
        <ele>181</ele>
        <time>2018-06-26T10:21:36Z</time>
      </trkpt>
      <trkpt lat="45.98727" lon="4.76013">
        <ele>181</ele>
        <time>2018-06-26T10:21:37Z</time>
      </trkpt>
      <trkpt lat="45.98725" lon="4.7602">
        <ele>182</ele>
        <time>2018-06-26T10:21:38Z</time>
      </trkpt>
      <trkpt lat="45.98724" lon="4.76026">
        <ele>182</ele>
        <time>2018-06-26T10:21:39Z</time>
      </trkpt>
      <trkpt lat="45.98721" lon="4.76038">
        <ele>182</ele>
        <time>2018-06-26T10:21:41Z</time>
      </trkpt>
      <trkpt lat="45.98721" lon="4.76044">
        <ele>182</ele>
        <time>2018-06-26T10:21:42Z</time>
      </trkpt>
      <trkpt lat="45.9872" lon="4.76052">
        <ele>182</ele>
        <time>2018-06-26T10:21:43Z</time>
      </trkpt>
      <trkpt lat="45.9872" lon="4.7606">
        <ele>182</ele>
        <time>2018-06-26T10:21:44Z</time>
      </trkpt>
      <trkpt lat="45.98719" lon="4.76072">
        <ele>182</ele>
        <time>2018-06-26T10:21:46Z</time>
      </trkpt>
      <trkpt lat="45.98718" lon="4.76079">
        <ele>182</ele>
        <time>2018-06-26T10:21:47Z</time>
      </trkpt>
      <trkpt lat="45.98719" lon="4.76086">
        <ele>183</ele>
        <time>2018-06-26T10:21:48Z</time>
      </trkpt>
      <trkpt lat="45.98718" lon="4.76093">
        <ele>183</ele>
        <time>2018-06-26T10:21:49Z</time>
      </trkpt>
      <trkpt lat="45.98716" lon="4.76099">
        <ele>183</ele>
        <time>2018-06-26T10:21:50Z</time>
      </trkpt>
      <trkpt lat="45.98715" lon="4.76105">
        <ele>183</ele>
        <time>2018-06-26T10:21:51Z</time>
      </trkpt>
      <trkpt lat="45.98713" lon="4.76111">
        <ele>183</ele>
        <time>2018-06-26T10:21:52Z</time>
      </trkpt>
      <trkpt lat="45.98712" lon="4.76118">
        <ele>183</ele>
        <time>2018-06-26T10:21:53Z</time>
      </trkpt>
      <trkpt lat="45.98712" lon="4.76126">
        <ele>183</ele>
        <time>2018-06-26T10:21:54Z</time>
      </trkpt>
      <trkpt lat="45.98712" lon="4.76133">
        <ele>183</ele>
        <time>2018-06-26T10:21:55Z</time>
      </trkpt>
      <trkpt lat="45.9871" lon="4.76145">
        <ele>183</ele>
        <time>2018-06-26T10:21:57Z</time>
      </trkpt>
      <trkpt lat="45.98709" lon="4.76147">
        <ele>183</ele>
        <time>2018-06-26T10:21:58Z</time>
      </trkpt>
      <trkpt lat="45.98708" lon="4.76159">
        <ele>184</ele>
        <time>2018-06-26T10:22:00Z</time>
      </trkpt>
      <trkpt lat="45.98708" lon="4.76168">
        <ele>184</ele>
        <time>2018-06-26T10:22:01Z</time>
      </trkpt>
      <trkpt lat="45.98707" lon="4.7618">
        <ele>184</ele>
        <time>2018-06-26T10:22:03Z</time>
      </trkpt>
      <trkpt lat="45.98706" lon="4.76186">
        <ele>184</ele>
        <time>2018-06-26T10:22:04Z</time>
      </trkpt>
      <trkpt lat="45.98705" lon="4.76193">
        <ele>184</ele>
        <time>2018-06-26T10:22:05Z</time>
      </trkpt>
      <trkpt lat="45.98705" lon="4.76199">
        <ele>184</ele>
        <time>2018-06-26T10:22:06Z</time>
      </trkpt>
      <trkpt lat="45.98702" lon="4.76211">
        <ele>184</ele>
        <time>2018-06-26T10:22:08Z</time>
      </trkpt>
      <trkpt lat="45.98699" lon="4.76216">
        <ele>184</ele>
        <time>2018-06-26T10:22:09Z</time>
      </trkpt>
      <trkpt lat="45.98694" lon="4.76222">
        <ele>184</ele>
        <time>2018-06-26T10:22:11Z</time>
      </trkpt>
      <trkpt lat="45.98691" lon="4.76224">
        <ele>184</ele>
        <time>2018-06-26T10:22:12Z</time>
      </trkpt>
      <trkpt lat="45.98682" lon="4.76226">
        <ele>184</ele>
        <time>2018-06-26T10:22:14Z</time>
      </trkpt>
      <trkpt lat="45.98678" lon="4.76226">
        <ele>184</ele>
        <time>2018-06-26T10:22:15Z</time>
      </trkpt>
      <trkpt lat="45.98673" lon="4.76226">
        <ele>184</ele>
        <time>2018-06-26T10:22:16Z</time>
      </trkpt>
      <trkpt lat="45.98669" lon="4.76226">
        <ele>184</ele>
        <time>2018-06-26T10:22:17Z</time>
      </trkpt>
      <trkpt lat="45.98664" lon="4.76226">
        <ele>185</ele>
        <time>2018-06-26T10:22:18Z</time>
      </trkpt>
      <trkpt lat="45.98659" lon="4.76225">
        <ele>185</ele>
        <time>2018-06-26T10:22:19Z</time>
      </trkpt>
      <trkpt lat="45.9865" lon="4.76224">
        <ele>185</ele>
        <time>2018-06-26T10:22:21Z</time>
      </trkpt>
      <trkpt lat="45.98646" lon="4.76224">
        <ele>185</ele>
        <time>2018-06-26T10:22:22Z</time>
      </trkpt>
      <trkpt lat="45.98639" lon="4.76223">
        <ele>185</ele>
        <time>2018-06-26T10:22:24Z</time>
      </trkpt>
      <trkpt lat="45.98634" lon="4.76221">
        <ele>186</ele>
        <time>2018-06-26T10:22:25Z</time>
      </trkpt>
      <trkpt lat="45.98626" lon="4.76217">
        <ele>186</ele>
        <time>2018-06-26T10:22:27Z</time>
      </trkpt>
      <trkpt lat="45.98625" lon="4.76216">
        <ele>186</ele>
        <time>2018-06-26T10:22:28Z</time>
      </trkpt>
      <trkpt lat="45.98618" lon="4.76215">
        <ele>186</ele>
        <time>2018-06-26T10:22:31Z</time>
      </trkpt>
      <trkpt lat="45.98616" lon="4.76215">
        <ele>186</ele>
        <time>2018-06-26T10:22:32Z</time>
      </trkpt>
      <trkpt lat="45.98609" lon="4.76221">
        <ele>187</ele>
        <time>2018-06-26T10:22:33Z</time>
      </trkpt>
      <trkpt lat="45.98607" lon="4.76224">
        <ele>187</ele>
        <time>2018-06-26T10:22:34Z</time>
      </trkpt>
      <trkpt lat="45.98604" lon="4.76234">
        <ele>187</ele>
        <time>2018-06-26T10:22:37Z</time>
      </trkpt>
      <trkpt lat="45.98603" lon="4.76243">
        <ele>187</ele>
        <time>2018-06-26T10:22:38Z</time>
      </trkpt>
      <trkpt lat="45.98602" lon="4.76255">
        <ele>187</ele>
        <time>2018-06-26T10:22:40Z</time>
      </trkpt>
      <trkpt lat="45.98603" lon="4.76261">
        <ele>187</ele>
        <time>2018-06-26T10:22:41Z</time>
      </trkpt>
      <trkpt lat="45.98603" lon="4.76274">
        <ele>187</ele>
        <time>2018-06-26T10:22:43Z</time>
      </trkpt>
      <trkpt lat="45.98605" lon="4.76281">
        <ele>187</ele>
        <time>2018-06-26T10:22:44Z</time>
      </trkpt>
      <trkpt lat="45.98606" lon="4.76288">
        <ele>187</ele>
        <time>2018-06-26T10:22:45Z</time>
      </trkpt>
      <trkpt lat="45.98606" lon="4.76295">
        <ele>187</ele>
        <time>2018-06-26T10:22:46Z</time>
      </trkpt>
      <trkpt lat="45.98606" lon="4.76307">
        <ele>187</ele>
        <time>2018-06-26T10:22:48Z</time>
      </trkpt>
      <trkpt lat="45.98604" lon="4.76312">
        <ele>187</ele>
        <time>2018-06-26T10:22:49Z</time>
      </trkpt>
      <trkpt lat="45.98604" lon="4.76325">
        <ele>187</ele>
        <time>2018-06-26T10:22:51Z</time>
      </trkpt>
      <trkpt lat="45.98605" lon="4.76332">
        <ele>187</ele>
        <time>2018-06-26T10:22:52Z</time>
      </trkpt>
      <trkpt lat="45.98607" lon="4.76344">
        <ele>188</ele>
        <time>2018-06-26T10:22:54Z</time>
      </trkpt>
      <trkpt lat="45.98608" lon="4.76349">
        <ele>188</ele>
        <time>2018-06-26T10:22:55Z</time>
      </trkpt>
      <trkpt lat="45.9861" lon="4.7636">
        <ele>188</ele>
        <time>2018-06-26T10:22:57Z</time>
      </trkpt>
      <trkpt lat="45.98612" lon="4.76366">
        <ele>188</ele>
        <time>2018-06-26T10:22:58Z</time>
      </trkpt>
      <trkpt lat="45.98614" lon="4.76377">
        <ele>188</ele>
        <time>2018-06-26T10:23:00Z</time>
      </trkpt>
      <trkpt lat="45.98616" lon="4.76382">
        <ele>188</ele>
        <time>2018-06-26T10:23:01Z</time>
      </trkpt>
      <trkpt lat="45.98619" lon="4.76394">
        <ele>188</ele>
        <time>2018-06-26T10:23:03Z</time>
      </trkpt>
      <trkpt lat="45.98621" lon="4.76399">
        <ele>188</ele>
        <time>2018-06-26T10:23:04Z</time>
      </trkpt>
      <trkpt lat="45.98626" lon="4.76408">
        <ele>188</ele>
        <time>2018-06-26T10:23:06Z</time>
      </trkpt>
      <trkpt lat="45.98629" lon="4.76413">
        <ele>188</ele>
        <time>2018-06-26T10:23:07Z</time>
      </trkpt>
      <trkpt lat="45.98635" lon="4.76421">
        <ele>189</ele>
        <time>2018-06-26T10:23:09Z</time>
      </trkpt>
      <trkpt lat="45.98639" lon="4.76425">
        <ele>188</ele>
        <time>2018-06-26T10:23:10Z</time>
      </trkpt>
      <trkpt lat="45.98645" lon="4.76428">
        <ele>188</ele>
        <time>2018-06-26T10:23:11Z</time>
      </trkpt>
      <trkpt lat="45.98649" lon="4.7643">
        <ele>188</ele>
        <time>2018-06-26T10:23:12Z</time>
      </trkpt>
      <trkpt lat="45.98653" lon="4.76433">
        <ele>188</ele>
        <time>2018-06-26T10:23:13Z</time>
      </trkpt>
      <trkpt lat="45.98657" lon="4.76435">
        <ele>188</ele>
        <time>2018-06-26T10:23:14Z</time>
      </trkpt>
      <trkpt lat="45.98662" lon="4.76438">
        <ele>188</ele>
        <time>2018-06-26T10:23:15Z</time>
      </trkpt>
      <trkpt lat="45.98667" lon="4.76441">
        <ele>187</ele>
        <time>2018-06-26T10:23:16Z</time>
      </trkpt>
      <trkpt lat="45.98672" lon="4.76445">
        <ele>187</ele>
        <time>2018-06-26T10:23:17Z</time>
      </trkpt>
      <trkpt lat="45.98675" lon="4.7645">
        <ele>187</ele>
        <time>2018-06-26T10:23:18Z</time>
      </trkpt>
      <trkpt lat="45.98679" lon="4.76455">
        <ele>187</ele>
        <time>2018-06-26T10:23:19Z</time>
      </trkpt>
      <trkpt lat="45.98685" lon="4.76458">
        <ele>187</ele>
        <time>2018-06-26T10:23:20Z</time>
      </trkpt>
      <trkpt lat="45.98689" lon="4.76463">
        <ele>187</ele>
        <time>2018-06-26T10:23:21Z</time>
      </trkpt>
      <trkpt lat="45.98693" lon="4.76467">
        <ele>187</ele>
        <time>2018-06-26T10:23:22Z</time>
      </trkpt>
      <trkpt lat="45.98698" lon="4.76471">
        <ele>187</ele>
        <time>2018-06-26T10:23:23Z</time>
      </trkpt>
      <trkpt lat="45.98702" lon="4.76476">
        <ele>187</ele>
        <time>2018-06-26T10:23:24Z</time>
      </trkpt>
      <trkpt lat="45.98705" lon="4.7648">
        <ele>187</ele>
        <time>2018-06-26T10:23:25Z</time>
      </trkpt>
      <trkpt lat="45.98708" lon="4.76485">
        <ele>187</ele>
        <time>2018-06-26T10:23:26Z</time>
      </trkpt>
      <trkpt lat="45.98713" lon="4.7649">
        <ele>187</ele>
        <time>2018-06-26T10:23:27Z</time>
      </trkpt>
      <trkpt lat="45.98717" lon="4.76494">
        <ele>187</ele>
        <time>2018-06-26T10:23:28Z</time>
      </trkpt>
      <trkpt lat="45.98724" lon="4.76502">
        <ele>188</ele>
        <time>2018-06-26T10:23:30Z</time>
      </trkpt>
      <trkpt lat="45.98728" lon="4.76507">
        <ele>188</ele>
        <time>2018-06-26T10:23:31Z</time>
      </trkpt>
      <trkpt lat="45.98732" lon="4.76511">
        <ele>188</ele>
        <time>2018-06-26T10:23:32Z</time>
      </trkpt>
      <trkpt lat="45.98739" lon="4.76514">
        <ele>188</ele>
        <time>2018-06-26T10:23:33Z</time>
      </trkpt>
      <trkpt lat="45.98745" lon="4.76517">
        <ele>188</ele>
        <time>2018-06-26T10:23:34Z</time>
      </trkpt>
      <trkpt lat="45.98748" lon="4.76521">
        <ele>188</ele>
        <time>2018-06-26T10:23:35Z</time>
      </trkpt>
      <trkpt lat="45.98753" lon="4.76528">
        <ele>190</ele>
        <time>2018-06-26T10:23:37Z</time>
      </trkpt>
      <trkpt lat="45.98756" lon="4.7653">
        <ele>190</ele>
        <time>2018-06-26T10:23:38Z</time>
      </trkpt>
      <trkpt lat="45.98763" lon="4.76536">
        <ele>191</ele>
        <time>2018-06-26T10:23:40Z</time>
      </trkpt>
      <trkpt lat="45.98766" lon="4.76539">
        <ele>191</ele>
        <time>2018-06-26T10:23:41Z</time>
      </trkpt>
      <trkpt lat="45.98771" lon="4.76546">
        <ele>191</ele>
        <time>2018-06-26T10:23:43Z</time>
      </trkpt>
      <trkpt lat="45.98775" lon="4.7655">
        <ele>191</ele>
        <time>2018-06-26T10:23:44Z</time>
      </trkpt>
      <trkpt lat="45.98782" lon="4.76557">
        <ele>191</ele>
        <time>2018-06-26T10:23:46Z</time>
      </trkpt>
      <trkpt lat="45.98786" lon="4.7656">
        <ele>191</ele>
        <time>2018-06-26T10:23:47Z</time>
      </trkpt>
      <trkpt lat="45.98793" lon="4.76566">
        <ele>192</ele>
        <time>2018-06-26T10:23:49Z</time>
      </trkpt>
      <trkpt lat="45.98796" lon="4.7657">
        <ele>192</ele>
        <time>2018-06-26T10:23:50Z</time>
      </trkpt>
      <trkpt lat="45.98801" lon="4.76575">
        <ele>192</ele>
        <time>2018-06-26T10:23:52Z</time>
      </trkpt>
      <trkpt lat="45.98805" lon="4.7658">
        <ele>192</ele>
        <time>2018-06-26T10:23:53Z</time>
      </trkpt>
      <trkpt lat="45.98811" lon="4.76586">
        <ele>193</ele>
        <time>2018-06-26T10:23:56Z</time>
      </trkpt>
      <trkpt lat="45.98816" lon="4.76591">
        <ele>193</ele>
        <time>2018-06-26T10:23:57Z</time>
      </trkpt>
      <trkpt lat="45.98823" lon="4.76597">
        <ele>193</ele>
        <time>2018-06-26T10:24:00Z</time>
      </trkpt>
      <trkpt lat="45.98828" lon="4.76602">
        <ele>193</ele>
        <time>2018-06-26T10:24:01Z</time>
      </trkpt>
      <trkpt lat="45.98834" lon="4.76608">
        <ele>196</ele>
        <time>2018-06-26T10:24:04Z</time>
      </trkpt>
      <trkpt lat="45.9884" lon="4.76614">
        <ele>196</ele>
        <time>2018-06-26T10:24:05Z</time>
      </trkpt>
      <trkpt lat="45.98844" lon="4.76619">
        <ele>196</ele>
        <time>2018-06-26T10:24:07Z</time>
      </trkpt>
      <trkpt lat="45.98848" lon="4.76624">
        <ele>196</ele>
        <time>2018-06-26T10:24:08Z</time>
      </trkpt>
      <trkpt lat="45.98854" lon="4.7663">
        <ele>196</ele>
        <time>2018-06-26T10:24:10Z</time>
      </trkpt>
      <trkpt lat="45.98857" lon="4.76633">
        <ele>196</ele>
        <time>2018-06-26T10:24:11Z</time>
      </trkpt>
      <trkpt lat="45.98864" lon="4.7664">
        <ele>196</ele>
        <time>2018-06-26T10:24:13Z</time>
      </trkpt>
      <trkpt lat="45.98867" lon="4.76644">
        <ele>196</ele>
        <time>2018-06-26T10:24:14Z</time>
      </trkpt>
      <trkpt lat="45.98874" lon="4.76651">
        <ele>196</ele>
        <time>2018-06-26T10:24:16Z</time>
      </trkpt>
      <trkpt lat="45.98878" lon="4.76655">
        <ele>196</ele>
        <time>2018-06-26T10:24:17Z</time>
      </trkpt>
      <trkpt lat="45.98884" lon="4.76663">
        <ele>196</ele>
        <time>2018-06-26T10:24:19Z</time>
      </trkpt>
      <trkpt lat="45.98888" lon="4.76667">
        <ele>194</ele>
        <time>2018-06-26T10:24:20Z</time>
      </trkpt>
      <trkpt lat="45.98892" lon="4.76673">
        <ele>195</ele>
        <time>2018-06-26T10:24:22Z</time>
      </trkpt>
      <trkpt lat="45.98896" lon="4.76677">
        <ele>195</ele>
        <time>2018-06-26T10:24:23Z</time>
      </trkpt>
      <trkpt lat="45.98902" lon="4.76684">
        <ele>195</ele>
        <time>2018-06-26T10:24:25Z</time>
      </trkpt>
      <trkpt lat="45.98905" lon="4.76688">
        <ele>195</ele>
        <time>2018-06-26T10:24:26Z</time>
      </trkpt>
      <trkpt lat="45.98912" lon="4.76695">
        <ele>194</ele>
        <time>2018-06-26T10:24:28Z</time>
      </trkpt>
      <trkpt lat="45.98915" lon="4.76698">
        <ele>194</ele>
        <time>2018-06-26T10:24:29Z</time>
      </trkpt>
      <trkpt lat="45.98919" lon="4.76705">
        <ele>197</ele>
        <time>2018-06-26T10:24:31Z</time>
      </trkpt>
      <trkpt lat="45.98922" lon="4.76709">
        <ele>197</ele>
        <time>2018-06-26T10:24:32Z</time>
      </trkpt>
      <trkpt lat="45.98928" lon="4.76715">
        <ele>197</ele>
        <time>2018-06-26T10:24:34Z</time>
      </trkpt>
      <trkpt lat="45.98932" lon="4.76719">
        <ele>197</ele>
        <time>2018-06-26T10:24:35Z</time>
      </trkpt>
      <trkpt lat="45.98939" lon="4.76726">
        <ele>197</ele>
        <time>2018-06-26T10:24:37Z</time>
      </trkpt>
      <trkpt lat="45.98943" lon="4.7673">
        <ele>197</ele>
        <time>2018-06-26T10:24:38Z</time>
      </trkpt>
      <trkpt lat="45.9895" lon="4.76737">
        <ele>197</ele>
        <time>2018-06-26T10:24:40Z</time>
      </trkpt>
      <trkpt lat="45.98953" lon="4.7674">
        <ele>198</ele>
        <time>2018-06-26T10:24:41Z</time>
      </trkpt>
      <trkpt lat="45.98957" lon="4.76745">
        <ele>198</ele>
        <time>2018-06-26T10:24:42Z</time>
      </trkpt>
      <trkpt lat="45.98961" lon="4.76749">
        <ele>198</ele>
        <time>2018-06-26T10:24:43Z</time>
      </trkpt>
      <trkpt lat="45.98965" lon="4.76753">
        <ele>196</ele>
        <time>2018-06-26T10:24:44Z</time>
      </trkpt>
      <trkpt lat="45.98968" lon="4.76758">
        <ele>196</ele>
        <time>2018-06-26T10:24:45Z</time>
      </trkpt>
      <trkpt lat="45.98971" lon="4.76762">
        <ele>196</ele>
        <time>2018-06-26T10:24:46Z</time>
      </trkpt>
      <trkpt lat="45.98977" lon="4.76765">
        <ele>197</ele>
        <time>2018-06-26T10:24:47Z</time>
      </trkpt>
      <trkpt lat="45.98983" lon="4.76773">
        <ele>197</ele>
        <time>2018-06-26T10:24:49Z</time>
      </trkpt>
      <trkpt lat="45.98986" lon="4.76779">
        <ele>197</ele>
        <time>2018-06-26T10:24:50Z</time>
      </trkpt>
      <trkpt lat="45.98991" lon="4.76789">
        <ele>197</ele>
        <time>2018-06-26T10:24:52Z</time>
      </trkpt>
      <trkpt lat="45.98995" lon="4.76794">
        <ele>197</ele>
        <time>2018-06-26T10:24:53Z</time>
      </trkpt>
      <trkpt lat="45.98996" lon="4.768">
        <ele>197</ele>
        <time>2018-06-26T10:24:54Z</time>
      </trkpt>
      <trkpt lat="45.98999" lon="4.76806">
        <ele>197</ele>
        <time>2018-06-26T10:24:55Z</time>
      </trkpt>
      <trkpt lat="45.99002" lon="4.76817">
        <ele>200</ele>
        <time>2018-06-26T10:24:57Z</time>
      </trkpt>
      <trkpt lat="45.99005" lon="4.76822">
        <ele>200</ele>
        <time>2018-06-26T10:24:58Z</time>
      </trkpt>
      <trkpt lat="45.99007" lon="4.76834">
        <ele>198</ele>
        <time>2018-06-26T10:25:00Z</time>
      </trkpt>
      <trkpt lat="45.9901" lon="4.76839">
        <ele>199</ele>
        <time>2018-06-26T10:25:01Z</time>
      </trkpt>
      <trkpt lat="45.99013" lon="4.76845">
        <ele>199</ele>
        <time>2018-06-26T10:25:02Z</time>
      </trkpt>
      <trkpt lat="45.99016" lon="4.76849">
        <ele>199</ele>
        <time>2018-06-26T10:25:03Z</time>
      </trkpt>
      <trkpt lat="45.99019" lon="4.76855">
        <ele>199</ele>
        <time>2018-06-26T10:25:05Z</time>
      </trkpt>
      <trkpt lat="45.9902" lon="4.76863">
        <ele>199</ele>
        <time>2018-06-26T10:25:06Z</time>
      </trkpt>
      <trkpt lat="45.99025" lon="4.76872">
        <ele>199</ele>
        <time>2018-06-26T10:25:08Z</time>
      </trkpt>
      <trkpt lat="45.99028" lon="4.76877">
        <ele>199</ele>
        <time>2018-06-26T10:25:09Z</time>
      </trkpt>
      <trkpt lat="45.99031" lon="4.76882">
        <ele>199</ele>
        <time>2018-06-26T10:25:10Z</time>
      </trkpt>
      <trkpt lat="45.99034" lon="4.76887">
        <ele>199</ele>
        <time>2018-06-26T10:25:11Z</time>
      </trkpt>
      <trkpt lat="45.99038" lon="4.76893">
        <ele>199</ele>
        <time>2018-06-26T10:25:12Z</time>
      </trkpt>
      <trkpt lat="45.99041" lon="4.76897">
        <ele>199</ele>
        <time>2018-06-26T10:25:13Z</time>
      </trkpt>
      <trkpt lat="45.99046" lon="4.76908">
        <ele>199</ele>
        <time>2018-06-26T10:25:15Z</time>
      </trkpt>
      <trkpt lat="45.99049" lon="4.76913">
        <ele>199</ele>
        <time>2018-06-26T10:25:16Z</time>
      </trkpt>
      <trkpt lat="45.99055" lon="4.76922">
        <ele>198</ele>
        <time>2018-06-26T10:25:18Z</time>
      </trkpt>
      <trkpt lat="45.99058" lon="4.76929">
        <ele>198</ele>
        <time>2018-06-26T10:25:19Z</time>
      </trkpt>
      <trkpt lat="45.99062" lon="4.76939">
        <ele>198</ele>
        <time>2018-06-26T10:25:21Z</time>
      </trkpt>
      <trkpt lat="45.99065" lon="4.76945">
        <ele>198</ele>
        <time>2018-06-26T10:25:22Z</time>
      </trkpt>
      <trkpt lat="45.9907" lon="4.76955">
        <ele>198</ele>
        <time>2018-06-26T10:25:24Z</time>
      </trkpt>
      <trkpt lat="45.9907" lon="4.7696">
        <ele>198</ele>
        <time>2018-06-26T10:25:25Z</time>
      </trkpt>
      <trkpt lat="45.99074" lon="4.76971">
        <ele>198</ele>
        <time>2018-06-26T10:25:27Z</time>
      </trkpt>
      <trkpt lat="45.99077" lon="4.76976">
        <ele>198</ele>
        <time>2018-06-26T10:25:28Z</time>
      </trkpt>
      <trkpt lat="45.9908" lon="4.76982">
        <ele>198</ele>
        <time>2018-06-26T10:25:29Z</time>
      </trkpt>
      <trkpt lat="45.99084" lon="4.76986">
        <ele>201</ele>
        <time>2018-06-26T10:25:30Z</time>
      </trkpt>
      <trkpt lat="45.99087" lon="4.76991">
        <ele>201</ele>
        <time>2018-06-26T10:25:31Z</time>
      </trkpt>
      <trkpt lat="45.99089" lon="4.76996">
        <ele>200</ele>
        <time>2018-06-26T10:25:32Z</time>
      </trkpt>
      <trkpt lat="45.99092" lon="4.77006">
        <ele>200</ele>
        <time>2018-06-26T10:25:34Z</time>
      </trkpt>
      <trkpt lat="45.99094" lon="4.77011">
        <ele>201</ele>
        <time>2018-06-26T10:25:35Z</time>
      </trkpt>
      <trkpt lat="45.991" lon="4.7702">
        <ele>201</ele>
        <time>2018-06-26T10:25:37Z</time>
      </trkpt>
      <trkpt lat="45.99103" lon="4.77025">
        <ele>202</ele>
        <time>2018-06-26T10:25:38Z</time>
      </trkpt>
      <trkpt lat="45.99108" lon="4.77035">
        <ele>202</ele>
        <time>2018-06-26T10:25:40Z</time>
      </trkpt>
      <trkpt lat="45.9911" lon="4.7704">
        <ele>202</ele>
        <time>2018-06-26T10:25:41Z</time>
      </trkpt>
      <trkpt lat="45.99113" lon="4.7705">
        <ele>202</ele>
        <time>2018-06-26T10:25:43Z</time>
      </trkpt>
      <trkpt lat="45.99115" lon="4.77055">
        <ele>202</ele>
        <time>2018-06-26T10:25:44Z</time>
      </trkpt>
      <trkpt lat="45.99118" lon="4.77066">
        <ele>202</ele>
        <time>2018-06-26T10:25:46Z</time>
      </trkpt>
      <trkpt lat="45.99119" lon="4.77071">
        <ele>202</ele>
        <time>2018-06-26T10:25:47Z</time>
      </trkpt>
      <trkpt lat="45.99122" lon="4.77082">
        <ele>202</ele>
        <time>2018-06-26T10:25:49Z</time>
      </trkpt>
      <trkpt lat="45.99124" lon="4.77088">
        <ele>201</ele>
        <time>2018-06-26T10:25:50Z</time>
      </trkpt>
      <trkpt lat="45.99127" lon="4.77098">
        <ele>201</ele>
        <time>2018-06-26T10:25:52Z</time>
      </trkpt>
      <trkpt lat="45.99129" lon="4.77104">
        <ele>201</ele>
        <time>2018-06-26T10:25:53Z</time>
      </trkpt>
      <trkpt lat="45.99132" lon="4.77115">
        <ele>201</ele>
        <time>2018-06-26T10:25:55Z</time>
      </trkpt>
      <trkpt lat="45.99133" lon="4.77121">
        <ele>201</ele>
        <time>2018-06-26T10:25:56Z</time>
      </trkpt>
      <trkpt lat="45.99137" lon="4.77132">
        <ele>201</ele>
        <time>2018-06-26T10:25:58Z</time>
      </trkpt>
      <trkpt lat="45.99139" lon="4.77137">
        <ele>201</ele>
        <time>2018-06-26T10:25:59Z</time>
      </trkpt>
      <trkpt lat="45.99142" lon="4.77148">
        <ele>201</ele>
        <time>2018-06-26T10:26:01Z</time>
      </trkpt>
      <trkpt lat="45.99143" lon="4.77153">
        <ele>201</ele>
        <time>2018-06-26T10:26:02Z</time>
      </trkpt>
      <trkpt lat="45.99147" lon="4.77163">
        <ele>201</ele>
        <time>2018-06-26T10:26:04Z</time>
      </trkpt>
      <trkpt lat="45.99148" lon="4.77169">
        <ele>200</ele>
        <time>2018-06-26T10:26:05Z</time>
      </trkpt>
      <trkpt lat="45.9915" lon="4.7718">
        <ele>200</ele>
        <time>2018-06-26T10:26:07Z</time>
      </trkpt>
      <trkpt lat="45.99151" lon="4.77185">
        <ele>200</ele>
        <time>2018-06-26T10:26:08Z</time>
      </trkpt>
      <trkpt lat="45.99154" lon="4.77196">
        <ele>200</ele>
        <time>2018-06-26T10:26:10Z</time>
      </trkpt>
      <trkpt lat="45.99155" lon="4.77201">
        <ele>200</ele>
        <time>2018-06-26T10:26:11Z</time>
      </trkpt>
      <trkpt lat="45.99156" lon="4.77212">
        <ele>200</ele>
        <time>2018-06-26T10:26:13Z</time>
      </trkpt>
      <trkpt lat="45.99157" lon="4.77218">
        <ele>200</ele>
        <time>2018-06-26T10:26:14Z</time>
      </trkpt>
      <trkpt lat="45.99155" lon="4.77224">
        <ele>200</ele>
        <time>2018-06-26T10:26:15Z</time>
      </trkpt>
      <trkpt lat="45.99156" lon="4.77231">
        <ele>200</ele>
        <time>2018-06-26T10:26:16Z</time>
      </trkpt>
      <trkpt lat="45.99157" lon="4.77242">
        <ele>200</ele>
        <time>2018-06-26T10:26:18Z</time>
      </trkpt>
      <trkpt lat="45.99157" lon="4.77249">
        <ele>200</ele>
        <time>2018-06-26T10:26:19Z</time>
      </trkpt>
      <trkpt lat="45.99155" lon="4.77261">
        <ele>200</ele>
        <time>2018-06-26T10:26:21Z</time>
      </trkpt>
      <trkpt lat="45.99155" lon="4.77269">
        <ele>200</ele>
        <time>2018-06-26T10:26:22Z</time>
      </trkpt>
      <trkpt lat="45.99154" lon="4.77275">
        <ele>200</ele>
        <time>2018-06-26T10:26:23Z</time>
      </trkpt>
      <trkpt lat="45.99154" lon="4.77282">
        <ele>200</ele>
        <time>2018-06-26T10:26:24Z</time>
      </trkpt>
      <trkpt lat="45.99154" lon="4.77288">
        <ele>200</ele>
        <time>2018-06-26T10:26:25Z</time>
      </trkpt>
      <trkpt lat="45.99154" lon="4.77295">
        <ele>200</ele>
        <time>2018-06-26T10:26:26Z</time>
      </trkpt>
      <trkpt lat="45.99154" lon="4.77301">
        <ele>200</ele>
        <time>2018-06-26T10:26:27Z</time>
      </trkpt>
      <trkpt lat="45.99155" lon="4.77308">
        <ele>200</ele>
        <time>2018-06-26T10:26:28Z</time>
      </trkpt>
      <trkpt lat="45.99155" lon="4.77315">
        <ele>200</ele>
        <time>2018-06-26T10:26:29Z</time>
      </trkpt>
      <trkpt lat="45.99154" lon="4.77323">
        <ele>201</ele>
        <time>2018-06-26T10:26:30Z</time>
      </trkpt>
      <trkpt lat="45.99153" lon="4.77334">
        <ele>201</ele>
        <time>2018-06-26T10:26:32Z</time>
      </trkpt>
      <trkpt lat="45.99152" lon="4.7734">
        <ele>201</ele>
        <time>2018-06-26T10:26:33Z</time>
      </trkpt>
      <trkpt lat="45.99145" lon="4.77346">
        <ele>201</ele>
        <time>2018-06-26T10:26:35Z</time>
      </trkpt>
      <trkpt lat="45.99141" lon="4.77347">
        <ele>201</ele>
        <time>2018-06-26T10:26:36Z</time>
      </trkpt>
      <trkpt lat="45.99136" lon="4.77348">
        <ele>201</ele>
        <time>2018-06-26T10:26:37Z</time>
      </trkpt>
      <trkpt lat="45.99131" lon="4.77348">
        <ele>201</ele>
        <time>2018-06-26T10:26:38Z</time>
      </trkpt>
      <trkpt lat="45.99126" lon="4.7735">
        <ele>201</ele>
        <time>2018-06-26T10:26:39Z</time>
      </trkpt>
      <trkpt lat="45.99121" lon="4.77351">
        <ele>201</ele>
        <time>2018-06-26T10:26:40Z</time>
      </trkpt>
      <trkpt lat="45.99112" lon="4.77352">
        <ele>201</ele>
        <time>2018-06-26T10:26:42Z</time>
      </trkpt>
      <trkpt lat="45.99107" lon="4.77353">
        <ele>201</ele>
        <time>2018-06-26T10:26:43Z</time>
      </trkpt>
      <trkpt lat="45.99103" lon="4.77354">
        <ele>201</ele>
        <time>2018-06-26T10:26:44Z</time>
      </trkpt>
      <trkpt lat="45.99095" lon="4.77354">
        <ele>201</ele>
        <time>2018-06-26T10:26:45Z</time>
      </trkpt>
      <trkpt lat="45.9909" lon="4.77355">
        <ele>201</ele>
        <time>2018-06-26T10:26:46Z</time>
      </trkpt>
      <trkpt lat="45.99086" lon="4.77357">
        <ele>201</ele>
        <time>2018-06-26T10:26:47Z</time>
      </trkpt>
      <trkpt lat="45.99077" lon="4.77356">
        <ele>200</ele>
        <time>2018-06-26T10:26:49Z</time>
      </trkpt>
      <trkpt lat="45.99074" lon="4.77358">
        <ele>200</ele>
        <time>2018-06-26T10:26:50Z</time>
      </trkpt>
      <trkpt lat="45.99069" lon="4.77358">
        <ele>200</ele>
        <time>2018-06-26T10:26:51Z</time>
      </trkpt>
      <trkpt lat="45.99065" lon="4.77358">
        <ele>200</ele>
        <time>2018-06-26T10:26:52Z</time>
      </trkpt>
      <trkpt lat="45.9906" lon="4.77358">
        <ele>200</ele>
        <time>2018-06-26T10:26:53Z</time>
      </trkpt>
      <trkpt lat="45.99056" lon="4.77359">
        <ele>200</ele>
        <time>2018-06-26T10:26:54Z</time>
      </trkpt>
      <trkpt lat="45.99047" lon="4.7736">
        <ele>200</ele>
        <time>2018-06-26T10:26:56Z</time>
      </trkpt>
      <trkpt lat="45.99042" lon="4.77361">
        <ele>200</ele>
        <time>2018-06-26T10:26:57Z</time>
      </trkpt>
      <trkpt lat="45.99038" lon="4.77362">
        <ele>200</ele>
        <time>2018-06-26T10:26:58Z</time>
      </trkpt>
      <trkpt lat="45.99033" lon="4.77364">
        <ele>200</ele>
        <time>2018-06-26T10:26:59Z</time>
      </trkpt>
      <trkpt lat="45.99027" lon="4.77367">
        <ele>200</ele>
        <time>2018-06-26T10:27:00Z</time>
      </trkpt>
      <trkpt lat="45.99024" lon="4.7737">
        <ele>200</ele>
        <time>2018-06-26T10:27:01Z</time>
      </trkpt>
      <trkpt lat="45.9902" lon="4.77372">
        <ele>200</ele>
        <time>2018-06-26T10:27:02Z</time>
      </trkpt>
      <trkpt lat="45.99015" lon="4.77374">
        <ele>200</ele>
        <time>2018-06-26T10:27:03Z</time>
      </trkpt>
      <trkpt lat="45.9901" lon="4.77375">
        <ele>201</ele>
        <time>2018-06-26T10:27:04Z</time>
      </trkpt>
      <trkpt lat="45.99006" lon="4.77378">
        <ele>201</ele>
        <time>2018-06-26T10:27:05Z</time>
      </trkpt>
      <trkpt lat="45.99002" lon="4.7738">
        <ele>201</ele>
        <time>2018-06-26T10:27:06Z</time>
      </trkpt>
      <trkpt lat="45.98997" lon="4.77381">
        <ele>202</ele>
        <time>2018-06-26T10:27:07Z</time>
      </trkpt>
      <trkpt lat="45.98992" lon="4.77383">
        <ele>202</ele>
        <time>2018-06-26T10:27:08Z</time>
      </trkpt>
      <trkpt lat="45.98985" lon="4.77386">
        <ele>202</ele>
        <time>2018-06-26T10:27:09Z</time>
      </trkpt>
      <trkpt lat="45.98981" lon="4.77388">
        <ele>202</ele>
        <time>2018-06-26T10:27:10Z</time>
      </trkpt>
      <trkpt lat="45.98977" lon="4.7739">
        <ele>202</ele>
        <time>2018-06-26T10:27:11Z</time>
      </trkpt>
      <trkpt lat="45.9897" lon="4.77394">
        <ele>202</ele>
        <time>2018-06-26T10:27:13Z</time>
      </trkpt>
      <trkpt lat="45.98966" lon="4.77396">
        <ele>202</ele>
        <time>2018-06-26T10:27:14Z</time>
      </trkpt>
      <trkpt lat="45.98958" lon="4.77399">
        <ele>202</ele>
        <time>2018-06-26T10:27:17Z</time>
      </trkpt>
      <trkpt lat="45.98956" lon="4.77401">
        <ele>202</ele>
        <time>2018-06-26T10:27:18Z</time>
      </trkpt>
      <trkpt lat="45.98949" lon="4.77405">
        <ele>203</ele>
        <time>2018-06-26T10:27:21Z</time>
      </trkpt>
      <trkpt lat="45.98947" lon="4.77406">
        <ele>203</ele>
        <time>2018-06-26T10:27:22Z</time>
      </trkpt>
      <trkpt lat="45.98939" lon="4.77412">
        <ele>203</ele>
        <time>2018-06-26T10:27:25Z</time>
      </trkpt>
      <trkpt lat="45.98937" lon="4.77413">
        <ele>203</ele>
        <time>2018-06-26T10:27:26Z</time>
      </trkpt>
      <trkpt lat="45.98929" lon="4.77417">
        <ele>205</ele>
        <time>2018-06-26T10:27:29Z</time>
      </trkpt>
      <trkpt lat="45.98927" lon="4.77419">
        <ele>205</ele>
        <time>2018-06-26T10:27:30Z</time>
      </trkpt>
      <trkpt lat="45.98918" lon="4.77422">
        <ele>205</ele>
        <time>2018-06-26T10:27:33Z</time>
      </trkpt>
      <trkpt lat="45.98916" lon="4.77422">
        <ele>206</ele>
        <time>2018-06-26T10:27:34Z</time>
      </trkpt>
      <trkpt lat="45.98908" lon="4.77426">
        <ele>206</ele>
        <time>2018-06-26T10:27:37Z</time>
      </trkpt>
      <trkpt lat="45.98906" lon="4.77427">
        <ele>207</ele>
        <time>2018-06-26T10:27:38Z</time>
      </trkpt>
      <trkpt lat="45.98899" lon="4.77431">
        <ele>207</ele>
        <time>2018-06-26T10:27:41Z</time>
      </trkpt>
      <trkpt lat="45.98897" lon="4.77433">
        <ele>207</ele>
        <time>2018-06-26T10:27:42Z</time>
      </trkpt>
      <trkpt lat="45.9889" lon="4.77436">
        <ele>208</ele>
        <time>2018-06-26T10:27:45Z</time>
      </trkpt>
      <trkpt lat="45.98888" lon="4.77437">
        <ele>208</ele>
        <time>2018-06-26T10:27:46Z</time>
      </trkpt>
      <trkpt lat="45.9888" lon="4.77439">
        <ele>208</ele>
        <time>2018-06-26T10:27:50Z</time>
      </trkpt>
      <trkpt lat="45.98878" lon="4.7744">
        <ele>208</ele>
        <time>2018-06-26T10:27:51Z</time>
      </trkpt>
      <trkpt lat="45.9887" lon="4.77444">
        <ele>209</ele>
        <time>2018-06-26T10:27:55Z</time>
      </trkpt>
      <trkpt lat="45.98868" lon="4.77445">
        <ele>209</ele>
        <time>2018-06-26T10:27:56Z</time>
      </trkpt>
      <trkpt lat="45.9886" lon="4.77449">
        <ele>209</ele>
        <time>2018-06-26T10:28:00Z</time>
      </trkpt>
      <trkpt lat="45.98858" lon="4.77451">
        <ele>209</ele>
        <time>2018-06-26T10:28:01Z</time>
      </trkpt>
      <trkpt lat="45.98851" lon="4.77455">
        <ele>209</ele>
        <time>2018-06-26T10:28:04Z</time>
      </trkpt>
      <trkpt lat="45.98849" lon="4.77456">
        <ele>209</ele>
        <time>2018-06-26T10:28:05Z</time>
      </trkpt>
      <trkpt lat="45.98841" lon="4.77462">
        <ele>210</ele>
        <time>2018-06-26T10:28:09Z</time>
      </trkpt>
      <trkpt lat="45.98839" lon="4.77463">
        <ele>210</ele>
        <time>2018-06-26T10:28:10Z</time>
      </trkpt>
      <trkpt lat="45.98834" lon="4.77473">
        <ele>211</ele>
        <time>2018-06-26T10:28:14Z</time>
      </trkpt>
      <trkpt lat="45.98833" lon="4.77476">
        <ele>213</ele>
        <time>2018-06-26T10:28:15Z</time>
      </trkpt>
      <trkpt lat="45.98829" lon="4.77485">
        <ele>214</ele>
        <time>2018-06-26T10:28:19Z</time>
      </trkpt>
      <trkpt lat="45.98828" lon="4.77487">
        <ele>214</ele>
        <time>2018-06-26T10:28:20Z</time>
      </trkpt>
      <trkpt lat="45.98823" lon="4.77495">
        <ele>214</ele>
        <time>2018-06-26T10:28:24Z</time>
      </trkpt>
      <trkpt lat="45.98822" lon="4.77498">
        <ele>214</ele>
        <time>2018-06-26T10:28:25Z</time>
      </trkpt>
      <trkpt lat="45.98819" lon="4.77509">
        <ele>216</ele>
        <time>2018-06-26T10:28:30Z</time>
      </trkpt>
      <trkpt lat="45.98818" lon="4.77511">
        <ele>216</ele>
        <time>2018-06-26T10:28:31Z</time>
      </trkpt>
      <trkpt lat="45.98811" lon="4.7752">
        <ele>217</ele>
        <time>2018-06-26T10:28:36Z</time>
      </trkpt>
      <trkpt lat="45.9881" lon="4.77522">
        <ele>217</ele>
        <time>2018-06-26T10:28:37Z</time>
      </trkpt>
      <trkpt lat="45.98804" lon="4.77532">
        <ele>217</ele>
        <time>2018-06-26T10:28:42Z</time>
      </trkpt>
      <trkpt lat="45.98803" lon="4.77534">
        <ele>217</ele>
        <time>2018-06-26T10:28:43Z</time>
      </trkpt>
      <trkpt lat="45.98798" lon="4.77542">
        <ele>217</ele>
        <time>2018-06-26T10:28:47Z</time>
      </trkpt>
      <trkpt lat="45.98796" lon="4.77544">
        <ele>217</ele>
        <time>2018-06-26T10:28:48Z</time>
      </trkpt>
      <trkpt lat="45.98789" lon="4.77549">
        <ele>217</ele>
        <time>2018-06-26T10:28:52Z</time>
      </trkpt>
      <trkpt lat="45.98787" lon="4.77551">
        <ele>218</ele>
        <time>2018-06-26T10:28:53Z</time>
      </trkpt>
      <trkpt lat="45.9878" lon="4.77555">
        <ele>218</ele>
        <time>2018-06-26T10:28:56Z</time>
      </trkpt>
      <trkpt lat="45.98778" lon="4.77557">
        <ele>218</ele>
        <time>2018-06-26T10:28:57Z</time>
      </trkpt>
      <trkpt lat="45.98771" lon="4.77564">
        <ele>218</ele>
        <time>2018-06-26T10:29:01Z</time>
      </trkpt>
      <trkpt lat="45.98769" lon="4.77566">
        <ele>218</ele>
        <time>2018-06-26T10:29:02Z</time>
      </trkpt>
      <trkpt lat="45.98763" lon="4.77574">
        <ele>219</ele>
        <time>2018-06-26T10:29:06Z</time>
      </trkpt>
      <trkpt lat="45.98761" lon="4.77575">
        <ele>219</ele>
        <time>2018-06-26T10:29:07Z</time>
      </trkpt>
      <trkpt lat="45.98754" lon="4.77581">
        <ele>220</ele>
        <time>2018-06-26T10:29:11Z</time>
      </trkpt>
      <trkpt lat="45.98752" lon="4.77583">
        <ele>220</ele>
        <time>2018-06-26T10:29:12Z</time>
      </trkpt>
      <trkpt lat="45.98745" lon="4.7759">
        <ele>221</ele>
        <time>2018-06-26T10:29:16Z</time>
      </trkpt>
      <trkpt lat="45.98743" lon="4.77591">
        <ele>221</ele>
        <time>2018-06-26T10:29:17Z</time>
      </trkpt>
      <trkpt lat="45.98736" lon="4.77598">
        <ele>222</ele>
        <time>2018-06-26T10:29:21Z</time>
      </trkpt>
      <trkpt lat="45.98734" lon="4.776">
        <ele>222</ele>
        <time>2018-06-26T10:29:22Z</time>
      </trkpt>
      <trkpt lat="45.98728" lon="4.77606">
        <ele>222</ele>
        <time>2018-06-26T10:29:25Z</time>
      </trkpt>
      <trkpt lat="45.98726" lon="4.77608">
        <ele>223</ele>
        <time>2018-06-26T10:29:26Z</time>
      </trkpt>
      <trkpt lat="45.9872" lon="4.77615">
        <ele>223</ele>
        <time>2018-06-26T10:29:30Z</time>
      </trkpt>
      <trkpt lat="45.98718" lon="4.77617">
        <ele>223</ele>
        <time>2018-06-26T10:29:31Z</time>
      </trkpt>
      <trkpt lat="45.98713" lon="4.77623">
        <ele>223</ele>
        <time>2018-06-26T10:29:34Z</time>
      </trkpt>
      <trkpt lat="45.98711" lon="4.77626">
        <ele>223</ele>
        <time>2018-06-26T10:29:35Z</time>
      </trkpt>
      <trkpt lat="45.98705" lon="4.77632">
        <ele>224</ele>
        <time>2018-06-26T10:29:38Z</time>
      </trkpt>
      <trkpt lat="45.98703" lon="4.77634">
        <ele>224</ele>
        <time>2018-06-26T10:29:39Z</time>
      </trkpt>
      <trkpt lat="45.98696" lon="4.77639">
        <ele>224</ele>
        <time>2018-06-26T10:29:43Z</time>
      </trkpt>
      <trkpt lat="45.98694" lon="4.7764">
        <ele>224</ele>
        <time>2018-06-26T10:29:44Z</time>
      </trkpt>
      <trkpt lat="45.98687" lon="4.77648">
        <ele>225</ele>
        <time>2018-06-26T10:29:48Z</time>
      </trkpt>
      <trkpt lat="45.98685" lon="4.77651">
        <ele>225</ele>
        <time>2018-06-26T10:29:49Z</time>
      </trkpt>
      <trkpt lat="45.9868" lon="4.77661">
        <ele>226</ele>
        <time>2018-06-26T10:29:53Z</time>
      </trkpt>
      <trkpt lat="45.98679" lon="4.77663">
        <ele>226</ele>
        <time>2018-06-26T10:29:54Z</time>
      </trkpt>
      <trkpt lat="45.98673" lon="4.77671">
        <ele>228</ele>
        <time>2018-06-26T10:29:58Z</time>
      </trkpt>
      <trkpt lat="45.98672" lon="4.77673">
        <ele>228</ele>
        <time>2018-06-26T10:29:59Z</time>
      </trkpt>
      <trkpt lat="45.98667" lon="4.77681">
        <ele>229</ele>
        <time>2018-06-26T10:30:03Z</time>
      </trkpt>
      <trkpt lat="45.98665" lon="4.77683">
        <ele>229</ele>
        <time>2018-06-26T10:30:04Z</time>
      </trkpt>
      <trkpt lat="45.98659" lon="4.77688">
        <ele>229</ele>
        <time>2018-06-26T10:30:07Z</time>
      </trkpt>
      <trkpt lat="45.98657" lon="4.77689">
        <ele>230</ele>
        <time>2018-06-26T10:30:08Z</time>
      </trkpt>
      <trkpt lat="45.98649" lon="4.77697">
        <ele>230</ele>
        <time>2018-06-26T10:30:12Z</time>
      </trkpt>
      <trkpt lat="45.98648" lon="4.77698">
        <ele>230</ele>
        <time>2018-06-26T10:30:13Z</time>
      </trkpt>
      <trkpt lat="45.98641" lon="4.77702">
        <ele>230</ele>
        <time>2018-06-26T10:30:16Z</time>
      </trkpt>
      <trkpt lat="45.98639" lon="4.77704">
        <ele>230</ele>
        <time>2018-06-26T10:30:17Z</time>
      </trkpt>
      <trkpt lat="45.98632" lon="4.7771">
        <ele>230</ele>
        <time>2018-06-26T10:30:21Z</time>
      </trkpt>
      <trkpt lat="45.98629" lon="4.77711">
        <ele>230</ele>
        <time>2018-06-26T10:30:22Z</time>
      </trkpt>
      <trkpt lat="45.98622" lon="4.77715">
        <ele>231</ele>
        <time>2018-06-26T10:30:26Z</time>
      </trkpt>
      <trkpt lat="45.9862" lon="4.77717">
        <ele>231</ele>
        <time>2018-06-26T10:30:27Z</time>
      </trkpt>
      <trkpt lat="45.98614" lon="4.77724">
        <ele>231</ele>
        <time>2018-06-26T10:30:31Z</time>
      </trkpt>
      <trkpt lat="45.98612" lon="4.77725">
        <ele>231</ele>
        <time>2018-06-26T10:30:32Z</time>
      </trkpt>
      <trkpt lat="45.98605" lon="4.77728">
        <ele>231</ele>
        <time>2018-06-26T10:30:36Z</time>
      </trkpt>
      <trkpt lat="45.98603" lon="4.77729">
        <ele>231</ele>
        <time>2018-06-26T10:30:37Z</time>
      </trkpt>
      <trkpt lat="45.98595" lon="4.77733">
        <ele>232</ele>
        <time>2018-06-26T10:30:41Z</time>
      </trkpt>
      <trkpt lat="45.98592" lon="4.77733">
        <ele>232</ele>
        <time>2018-06-26T10:30:42Z</time>
      </trkpt>
      <trkpt lat="45.98585" lon="4.77735">
        <ele>232</ele>
        <time>2018-06-26T10:30:45Z</time>
      </trkpt>
      <trkpt lat="45.98582" lon="4.77736">
        <ele>233</ele>
        <time>2018-06-26T10:30:46Z</time>
      </trkpt>
      <trkpt lat="45.98575" lon="4.77738">
        <ele>233</ele>
        <time>2018-06-26T10:30:49Z</time>
      </trkpt>
      <trkpt lat="45.98573" lon="4.77739">
        <ele>233</ele>
        <time>2018-06-26T10:30:50Z</time>
      </trkpt>
      <trkpt lat="45.98567" lon="4.77742">
        <ele>233</ele>
        <time>2018-06-26T10:30:53Z</time>
      </trkpt>
      <trkpt lat="45.98564" lon="4.77744">
        <ele>233</ele>
        <time>2018-06-26T10:30:54Z</time>
      </trkpt>
      <trkpt lat="45.98558" lon="4.77749">
        <ele>233</ele>
        <time>2018-06-26T10:30:57Z</time>
      </trkpt>
      <trkpt lat="45.98555" lon="4.7775">
        <ele>233</ele>
        <time>2018-06-26T10:30:58Z</time>
      </trkpt>
      <trkpt lat="45.98548" lon="4.77755">
        <ele>235</ele>
        <time>2018-06-26T10:31:02Z</time>
      </trkpt>
      <trkpt lat="45.98546" lon="4.77757">
        <ele>235</ele>
        <time>2018-06-26T10:31:03Z</time>
      </trkpt>
      <trkpt lat="45.9854" lon="4.7776">
        <ele>235</ele>
        <time>2018-06-26T10:31:05Z</time>
      </trkpt>
      <trkpt lat="45.9853" lon="4.77764">
        <ele>236</ele>
        <time>2018-06-26T10:31:06Z</time>
      </trkpt>
      <trkpt lat="45.98524" lon="4.77768">
        <ele>236</ele>
        <time>2018-06-26T10:31:09Z</time>
      </trkpt>
      <trkpt lat="45.98522" lon="4.7777">
        <ele>236</ele>
        <time>2018-06-26T10:31:10Z</time>
      </trkpt>
      <trkpt lat="45.98515" lon="4.77774">
        <ele>236</ele>
        <time>2018-06-26T10:31:13Z</time>
      </trkpt>
      <trkpt lat="45.98512" lon="4.77776">
        <ele>236</ele>
        <time>2018-06-26T10:31:14Z</time>
      </trkpt>
      <trkpt lat="45.98505" lon="4.77781">
        <ele>236</ele>
        <time>2018-06-26T10:31:17Z</time>
      </trkpt>
      <trkpt lat="45.98503" lon="4.77782">
        <ele>236</ele>
        <time>2018-06-26T10:31:18Z</time>
      </trkpt>
      <trkpt lat="45.98496" lon="4.77786">
        <ele>238</ele>
        <time>2018-06-26T10:31:21Z</time>
      </trkpt>
      <trkpt lat="45.98493" lon="4.77787">
        <ele>238</ele>
        <time>2018-06-26T10:31:22Z</time>
      </trkpt>
      <trkpt lat="45.98485" lon="4.77791">
        <ele>238</ele>
        <time>2018-06-26T10:31:25Z</time>
      </trkpt>
      <trkpt lat="45.98483" lon="4.77792">
        <ele>238</ele>
        <time>2018-06-26T10:31:26Z</time>
      </trkpt>
      <trkpt lat="45.98475" lon="4.77797">
        <ele>238</ele>
        <time>2018-06-26T10:31:29Z</time>
      </trkpt>
      <trkpt lat="45.98473" lon="4.77798">
        <ele>238</ele>
        <time>2018-06-26T10:31:30Z</time>
      </trkpt>
      <trkpt lat="45.98468" lon="4.77801">
        <ele>238</ele>
        <time>2018-06-26T10:31:32Z</time>
      </trkpt>
      <trkpt lat="45.98458" lon="4.77805">
        <ele>239</ele>
        <time>2018-06-26T10:31:33Z</time>
      </trkpt>
      <trkpt lat="45.9845" lon="4.77807">
        <ele>239</ele>
        <time>2018-06-26T10:31:37Z</time>
      </trkpt>
      <trkpt lat="45.98448" lon="4.77808">
        <ele>239</ele>
        <time>2018-06-26T10:31:38Z</time>
      </trkpt>
      <trkpt lat="45.98443" lon="4.7781">
        <ele>239</ele>
        <time>2018-06-26T10:31:40Z</time>
      </trkpt>
      <trkpt lat="45.98435" lon="4.77814">
        <ele>239</ele>
        <time>2018-06-26T10:31:41Z</time>
      </trkpt>
      <trkpt lat="45.98428" lon="4.77816">
        <ele>240</ele>
        <time>2018-06-26T10:31:43Z</time>
      </trkpt>
      <trkpt lat="45.98426" lon="4.77817">
        <ele>240</ele>
        <time>2018-06-26T10:31:44Z</time>
      </trkpt>
      <trkpt lat="45.9842" lon="4.77821">
        <ele>240</ele>
        <time>2018-06-26T10:31:46Z</time>
      </trkpt>
      <trkpt lat="45.98415" lon="4.77823">
        <ele>241</ele>
        <time>2018-06-26T10:31:47Z</time>
      </trkpt>
      <trkpt lat="45.98408" lon="4.77826">
        <ele>241</ele>
        <time>2018-06-26T10:31:50Z</time>
      </trkpt>
      <trkpt lat="45.98406" lon="4.77827">
        <ele>241</ele>
        <time>2018-06-26T10:31:51Z</time>
      </trkpt>
      <trkpt lat="45.98398" lon="4.7783">
        <ele>241</ele>
        <time>2018-06-26T10:31:52Z</time>
      </trkpt>
      <trkpt lat="45.98394" lon="4.77832">
        <ele>241</ele>
        <time>2018-06-26T10:31:53Z</time>
      </trkpt>
      <trkpt lat="45.98387" lon="4.77835">
        <ele>242</ele>
        <time>2018-06-26T10:31:55Z</time>
      </trkpt>
      <trkpt lat="45.98383" lon="4.77836">
        <ele>242</ele>
        <time>2018-06-26T10:31:56Z</time>
      </trkpt>
      <trkpt lat="45.98376" lon="4.77839">
        <ele>242</ele>
        <time>2018-06-26T10:31:59Z</time>
      </trkpt>
      <trkpt lat="45.98374" lon="4.7784">
        <ele>242</ele>
        <time>2018-06-26T10:32:00Z</time>
      </trkpt>
      <trkpt lat="45.98369" lon="4.77842">
        <ele>242</ele>
        <time>2018-06-26T10:32:02Z</time>
      </trkpt>
      <trkpt lat="45.98363" lon="4.77845">
        <ele>242</ele>
        <time>2018-06-26T10:32:03Z</time>
      </trkpt>
      <trkpt lat="45.98355" lon="4.77849">
        <ele>242</ele>
        <time>2018-06-26T10:32:05Z</time>
      </trkpt>
      <trkpt lat="45.98351" lon="4.7785">
        <ele>242</ele>
        <time>2018-06-26T10:32:06Z</time>
      </trkpt>
      <trkpt lat="45.98344" lon="4.77853">
        <ele>242</ele>
        <time>2018-06-26T10:32:09Z</time>
      </trkpt>
      <trkpt lat="45.98342" lon="4.77855">
        <ele>242</ele>
        <time>2018-06-26T10:32:10Z</time>
      </trkpt>
      <trkpt lat="45.98334" lon="4.77857">
        <ele>242</ele>
        <time>2018-06-26T10:32:13Z</time>
      </trkpt>
      <trkpt lat="45.98325" lon="4.77857">
        <ele>243</ele>
        <time>2018-06-26T10:32:14Z</time>
      </trkpt>
      <trkpt lat="45.9832" lon="4.77858">
        <ele>243</ele>
        <time>2018-06-26T10:32:15Z</time>
      </trkpt>
      <trkpt lat="45.98315" lon="4.77858">
        <ele>243</ele>
        <time>2018-06-26T10:32:16Z</time>
      </trkpt>
      <trkpt lat="45.98308" lon="4.7786">
        <ele>243</ele>
        <time>2018-06-26T10:32:18Z</time>
      </trkpt>
      <trkpt lat="45.98303" lon="4.77861">
        <ele>243</ele>
        <time>2018-06-26T10:32:19Z</time>
      </trkpt>
      <trkpt lat="45.98295" lon="4.77863">
        <ele>243</ele>
        <time>2018-06-26T10:32:22Z</time>
      </trkpt>
      <trkpt lat="45.98293" lon="4.77864">
        <ele>243</ele>
        <time>2018-06-26T10:32:23Z</time>
      </trkpt>
      <trkpt lat="45.98285" lon="4.77868">
        <ele>244</ele>
        <time>2018-06-26T10:32:24Z</time>
      </trkpt>
      <trkpt lat="45.98283" lon="4.77869">
        <ele>244</ele>
        <time>2018-06-26T10:32:25Z</time>
      </trkpt>
      <trkpt lat="45.98281" lon="4.77869">
        <ele>244</ele>
        <time>2018-06-26T10:32:26Z</time>
      </trkpt>
      <trkpt lat="45.98273" lon="4.77871">
        <ele>244</ele>
        <time>2018-06-26T10:32:27Z</time>
      </trkpt>
      <trkpt lat="45.98268" lon="4.77873">
        <ele>244</ele>
        <time>2018-06-26T10:32:28Z</time>
      </trkpt>
      <trkpt lat="45.98263" lon="4.77875">
        <ele>244</ele>
        <time>2018-06-26T10:32:29Z</time>
      </trkpt>
      <trkpt lat="45.98259" lon="4.77878">
        <ele>244</ele>
        <time>2018-06-26T10:32:30Z</time>
      </trkpt>
      <trkpt lat="45.98254" lon="4.7788">
        <ele>244</ele>
        <time>2018-06-26T10:32:31Z</time>
      </trkpt>
      <trkpt lat="45.98247" lon="4.77885">
        <ele>244</ele>
        <time>2018-06-26T10:32:34Z</time>
      </trkpt>
      <trkpt lat="45.98239" lon="4.7789">
        <ele>244</ele>
        <time>2018-06-26T10:32:35Z</time>
      </trkpt>
      <trkpt lat="45.98231" lon="4.77894">
        <ele>244</ele>
        <time>2018-06-26T10:32:37Z</time>
      </trkpt>
      <trkpt lat="45.98226" lon="4.77896">
        <ele>244</ele>
        <time>2018-06-26T10:32:38Z</time>
      </trkpt>
      <trkpt lat="45.98221" lon="4.77899">
        <ele>244</ele>
        <time>2018-06-26T10:32:39Z</time>
      </trkpt>
      <trkpt lat="45.98217" lon="4.77902">
        <ele>244</ele>
        <time>2018-06-26T10:32:40Z</time>
      </trkpt>
      <trkpt lat="45.98212" lon="4.77903">
        <ele>244</ele>
        <time>2018-06-26T10:32:41Z</time>
      </trkpt>
      <trkpt lat="45.98208" lon="4.77905">
        <ele>244</ele>
        <time>2018-06-26T10:32:42Z</time>
      </trkpt>
      <trkpt lat="45.98203" lon="4.77906">
        <ele>244</ele>
        <time>2018-06-26T10:32:43Z</time>
      </trkpt>
      <trkpt lat="45.98196" lon="4.7791">
        <ele>244</ele>
        <time>2018-06-26T10:32:44Z</time>
      </trkpt>
      <trkpt lat="45.98188" lon="4.77913">
        <ele>245</ele>
        <time>2018-06-26T10:32:46Z</time>
      </trkpt>
      <trkpt lat="45.98183" lon="4.77914">
        <ele>245</ele>
        <time>2018-06-26T10:32:47Z</time>
      </trkpt>
      <trkpt lat="45.98176" lon="4.77917">
        <ele>245</ele>
        <time>2018-06-26T10:32:49Z</time>
      </trkpt>
      <trkpt lat="45.98172" lon="4.77918">
        <ele>245</ele>
        <time>2018-06-26T10:32:50Z</time>
      </trkpt>
      <trkpt lat="45.98166" lon="4.7792">
        <ele>245</ele>
        <time>2018-06-26T10:32:52Z</time>
      </trkpt>
      <trkpt lat="45.98161" lon="4.77922">
        <ele>245</ele>
        <time>2018-06-26T10:32:53Z</time>
      </trkpt>
      <trkpt lat="45.98154" lon="4.77924">
        <ele>245</ele>
        <time>2018-06-26T10:32:55Z</time>
      </trkpt>
      <trkpt lat="45.9815" lon="4.77925">
        <ele>246</ele>
        <time>2018-06-26T10:32:56Z</time>
      </trkpt>
      <trkpt lat="45.98143" lon="4.77927">
        <ele>246</ele>
        <time>2018-06-26T10:32:58Z</time>
      </trkpt>
      <trkpt lat="45.98139" lon="4.77928">
        <ele>246</ele>
        <time>2018-06-26T10:32:59Z</time>
      </trkpt>
      <trkpt lat="45.9813" lon="4.77929">
        <ele>246</ele>
        <time>2018-06-26T10:33:01Z</time>
      </trkpt>
      <trkpt lat="45.98126" lon="4.7793">
        <ele>246</ele>
        <time>2018-06-26T10:33:02Z</time>
      </trkpt>
      <trkpt lat="45.98118" lon="4.77932">
        <ele>246</ele>
        <time>2018-06-26T10:33:04Z</time>
      </trkpt>
      <trkpt lat="45.98113" lon="4.77933">
        <ele>246</ele>
        <time>2018-06-26T10:33:05Z</time>
      </trkpt>
      <trkpt lat="45.98105" lon="4.77935">
        <ele>246</ele>
        <time>2018-06-26T10:33:07Z</time>
      </trkpt>
      <trkpt lat="45.98101" lon="4.77936">
        <ele>246</ele>
        <time>2018-06-26T10:33:08Z</time>
      </trkpt>
      <trkpt lat="45.98093" lon="4.77938">
        <ele>246</ele>
        <time>2018-06-26T10:33:10Z</time>
      </trkpt>
      <trkpt lat="45.9809" lon="4.77937">
        <ele>246</ele>
        <time>2018-06-26T10:33:11Z</time>
      </trkpt>
      <trkpt lat="45.98081" lon="4.77938">
        <ele>247</ele>
        <time>2018-06-26T10:33:13Z</time>
      </trkpt>
      <trkpt lat="45.98076" lon="4.77939">
        <ele>247</ele>
        <time>2018-06-26T10:33:14Z</time>
      </trkpt>
      <trkpt lat="45.98072" lon="4.7794">
        <ele>247</ele>
        <time>2018-06-26T10:33:15Z</time>
      </trkpt>
      <trkpt lat="45.98067" lon="4.77942">
        <ele>247</ele>
        <time>2018-06-26T10:33:16Z</time>
      </trkpt>
      <trkpt lat="45.98062" lon="4.77943">
        <ele>247</ele>
        <time>2018-06-26T10:33:17Z</time>
      </trkpt>
      <trkpt lat="45.98058" lon="4.77946">
        <ele>247</ele>
        <time>2018-06-26T10:33:18Z</time>
      </trkpt>
      <trkpt lat="45.9805" lon="4.77947">
        <ele>247</ele>
        <time>2018-06-26T10:33:20Z</time>
      </trkpt>
      <trkpt lat="45.98047" lon="4.77947">
        <ele>247</ele>
        <time>2018-06-26T10:33:21Z</time>
      </trkpt>
      <trkpt lat="45.98043" lon="4.77948">
        <ele>247</ele>
        <time>2018-06-26T10:33:22Z</time>
      </trkpt>
      <trkpt lat="45.98037" lon="4.77949">
        <ele>247</ele>
        <time>2018-06-26T10:33:23Z</time>
      </trkpt>
      <trkpt lat="45.98032" lon="4.7795">
        <ele>247</ele>
        <time>2018-06-26T10:33:24Z</time>
      </trkpt>
      <trkpt lat="45.98027" lon="4.77949">
        <ele>247</ele>
        <time>2018-06-26T10:33:25Z</time>
      </trkpt>
      <trkpt lat="45.98021" lon="4.7795">
        <ele>247</ele>
        <time>2018-06-26T10:33:26Z</time>
      </trkpt>
      <trkpt lat="45.98016" lon="4.77951">
        <ele>247</ele>
        <time>2018-06-26T10:33:27Z</time>
      </trkpt>
      <trkpt lat="45.98011" lon="4.77951">
        <ele>247</ele>
        <time>2018-06-26T10:33:28Z</time>
      </trkpt>
      <trkpt lat="45.98005" lon="4.77951">
        <ele>247</ele>
        <time>2018-06-26T10:33:29Z</time>
      </trkpt>
      <trkpt lat="45.97999" lon="4.77952">
        <ele>246</ele>
        <time>2018-06-26T10:33:30Z</time>
      </trkpt>
      <trkpt lat="45.97993" lon="4.77952">
        <ele>246</ele>
        <time>2018-06-26T10:33:31Z</time>
      </trkpt>
      <trkpt lat="45.97987" lon="4.77952">
        <ele>246</ele>
        <time>2018-06-26T10:33:32Z</time>
      </trkpt>
      <trkpt lat="45.97981" lon="4.77954">
        <ele>246</ele>
        <time>2018-06-26T10:33:33Z</time>
      </trkpt>
      <trkpt lat="45.97974" lon="4.77955">
        <ele>246</ele>
        <time>2018-06-26T10:33:34Z</time>
      </trkpt>
      <trkpt lat="45.97968" lon="4.77955">
        <ele>246</ele>
        <time>2018-06-26T10:33:35Z</time>
      </trkpt>
      <trkpt lat="45.97963" lon="4.77956">
        <ele>246</ele>
        <time>2018-06-26T10:33:36Z</time>
      </trkpt>
      <trkpt lat="45.97956" lon="4.77958">
        <ele>246</ele>
        <time>2018-06-26T10:33:37Z</time>
      </trkpt>
      <trkpt lat="45.97949" lon="4.77959">
        <ele>246</ele>
        <time>2018-06-26T10:33:38Z</time>
      </trkpt>
      <trkpt lat="45.97942" lon="4.7796">
        <ele>246</ele>
        <time>2018-06-26T10:33:39Z</time>
      </trkpt>
      <trkpt lat="45.97936" lon="4.77961">
        <ele>246</ele>
        <time>2018-06-26T10:33:40Z</time>
      </trkpt>
      <trkpt lat="45.97931" lon="4.77961">
        <ele>246</ele>
        <time>2018-06-26T10:33:41Z</time>
      </trkpt>
      <trkpt lat="45.97926" lon="4.77962">
        <ele>246</ele>
        <time>2018-06-26T10:33:42Z</time>
      </trkpt>
      <trkpt lat="45.9792" lon="4.77964">
        <ele>246</ele>
        <time>2018-06-26T10:33:43Z</time>
      </trkpt>
      <trkpt lat="45.97915" lon="4.77964">
        <ele>246</ele>
        <time>2018-06-26T10:33:44Z</time>
      </trkpt>
      <trkpt lat="45.9791" lon="4.77965">
        <ele>246</ele>
        <time>2018-06-26T10:33:45Z</time>
      </trkpt>
      <trkpt lat="45.97905" lon="4.77965">
        <ele>246</ele>
        <time>2018-06-26T10:33:46Z</time>
      </trkpt>
      <trkpt lat="45.97901" lon="4.77967">
        <ele>246</ele>
        <time>2018-06-26T10:33:47Z</time>
      </trkpt>
      <trkpt lat="45.97896" lon="4.77968">
        <ele>246</ele>
        <time>2018-06-26T10:33:48Z</time>
      </trkpt>
      <trkpt lat="45.9789" lon="4.7797">
        <ele>246</ele>
        <time>2018-06-26T10:33:49Z</time>
      </trkpt>
      <trkpt lat="45.97886" lon="4.77972">
        <ele>246</ele>
        <time>2018-06-26T10:33:50Z</time>
      </trkpt>
      <trkpt lat="45.97881" lon="4.77973">
        <ele>246</ele>
        <time>2018-06-26T10:33:51Z</time>
      </trkpt>
      <trkpt lat="45.97875" lon="4.77976">
        <ele>246</ele>
        <time>2018-06-26T10:33:52Z</time>
      </trkpt>
      <trkpt lat="45.97869" lon="4.7798">
        <ele>246</ele>
        <time>2018-06-26T10:33:53Z</time>
      </trkpt>
      <trkpt lat="45.97864" lon="4.77981">
        <ele>246</ele>
        <time>2018-06-26T10:33:54Z</time>
      </trkpt>
      <trkpt lat="45.97858" lon="4.77985">
        <ele>246</ele>
        <time>2018-06-26T10:33:55Z</time>
      </trkpt>
      <trkpt lat="45.97852" lon="4.77987">
        <ele>246</ele>
        <time>2018-06-26T10:33:56Z</time>
      </trkpt>
      <trkpt lat="45.97847" lon="4.77989">
        <ele>246</ele>
        <time>2018-06-26T10:33:57Z</time>
      </trkpt>
      <trkpt lat="45.97841" lon="4.77993">
        <ele>246</ele>
        <time>2018-06-26T10:33:58Z</time>
      </trkpt>
      <trkpt lat="45.97835" lon="4.77997">
        <ele>246</ele>
        <time>2018-06-26T10:33:59Z</time>
      </trkpt>
      <trkpt lat="45.97829" lon="4.77999">
        <ele>246</ele>
        <time>2018-06-26T10:34:00Z</time>
      </trkpt>
      <trkpt lat="45.97824" lon="4.78">
        <ele>246</ele>
        <time>2018-06-26T10:34:01Z</time>
      </trkpt>
      <trkpt lat="45.97819" lon="4.78003">
        <ele>246</ele>
        <time>2018-06-26T10:34:02Z</time>
      </trkpt>
      <trkpt lat="45.97814" lon="4.78004">
        <ele>246</ele>
        <time>2018-06-26T10:34:03Z</time>
      </trkpt>
      <trkpt lat="45.9781" lon="4.78006">
        <ele>246</ele>
        <time>2018-06-26T10:34:04Z</time>
      </trkpt>
      <trkpt lat="45.97805" lon="4.78008">
        <ele>246</ele>
        <time>2018-06-26T10:34:05Z</time>
      </trkpt>
      <trkpt lat="45.978" lon="4.78009">
        <ele>246</ele>
        <time>2018-06-26T10:34:06Z</time>
      </trkpt>
      <trkpt lat="45.97795" lon="4.78011">
        <ele>246</ele>
        <time>2018-06-26T10:34:07Z</time>
      </trkpt>
      <trkpt lat="45.97791" lon="4.78013">
        <ele>246</ele>
        <time>2018-06-26T10:34:08Z</time>
      </trkpt>
      <trkpt lat="45.97786" lon="4.78015">
        <ele>246</ele>
        <time>2018-06-26T10:34:09Z</time>
      </trkpt>
      <trkpt lat="45.97781" lon="4.78017">
        <ele>246</ele>
        <time>2018-06-26T10:34:10Z</time>
      </trkpt>
      <trkpt lat="45.97777" lon="4.7802">
        <ele>246</ele>
        <time>2018-06-26T10:34:11Z</time>
      </trkpt>
      <trkpt lat="45.97773" lon="4.78022">
        <ele>246</ele>
        <time>2018-06-26T10:34:12Z</time>
      </trkpt>
      <trkpt lat="45.97768" lon="4.78024">
        <ele>246</ele>
        <time>2018-06-26T10:34:13Z</time>
      </trkpt>
      <trkpt lat="45.97762" lon="4.78024">
        <ele>246</ele>
        <time>2018-06-26T10:34:14Z</time>
      </trkpt>
      <trkpt lat="45.97757" lon="4.78026">
        <ele>246</ele>
        <time>2018-06-26T10:34:15Z</time>
      </trkpt>
      <trkpt lat="45.97752" lon="4.7803">
        <ele>246</ele>
        <time>2018-06-26T10:34:16Z</time>
      </trkpt>
      <trkpt lat="45.97747" lon="4.78032">
        <ele>247</ele>
        <time>2018-06-26T10:34:17Z</time>
      </trkpt>
      <trkpt lat="45.97742" lon="4.78034">
        <ele>247</ele>
        <time>2018-06-26T10:34:18Z</time>
      </trkpt>
      <trkpt lat="45.97737" lon="4.78037">
        <ele>247</ele>
        <time>2018-06-26T10:34:19Z</time>
      </trkpt>
      <trkpt lat="45.97732" lon="4.78038">
        <ele>247</ele>
        <time>2018-06-26T10:34:20Z</time>
      </trkpt>
      <trkpt lat="45.97727" lon="4.7804">
        <ele>247</ele>
        <time>2018-06-26T10:34:21Z</time>
      </trkpt>
      <trkpt lat="45.97721" lon="4.78042">
        <ele>247</ele>
        <time>2018-06-26T10:34:22Z</time>
      </trkpt>
      <trkpt lat="45.97715" lon="4.78044">
        <ele>247</ele>
        <time>2018-06-26T10:34:23Z</time>
      </trkpt>
      <trkpt lat="45.9771" lon="4.78045">
        <ele>247</ele>
        <time>2018-06-26T10:34:24Z</time>
      </trkpt>
      <trkpt lat="45.97704" lon="4.78048">
        <ele>247</ele>
        <time>2018-06-26T10:34:25Z</time>
      </trkpt>
      <trkpt lat="45.97698" lon="4.7805">
        <ele>247</ele>
        <time>2018-06-26T10:34:26Z</time>
      </trkpt>
      <trkpt lat="45.97692" lon="4.78053">
        <ele>247</ele>
        <time>2018-06-26T10:34:27Z</time>
      </trkpt>
      <trkpt lat="45.97686" lon="4.78056">
        <ele>247</ele>
        <time>2018-06-26T10:34:28Z</time>
      </trkpt>
      <trkpt lat="45.97681" lon="4.78058">
        <ele>248</ele>
        <time>2018-06-26T10:34:29Z</time>
      </trkpt>
      <trkpt lat="45.97675" lon="4.78062">
        <ele>248</ele>
        <time>2018-06-26T10:34:30Z</time>
      </trkpt>
      <trkpt lat="45.9767" lon="4.78066">
        <ele>248</ele>
        <time>2018-06-26T10:34:31Z</time>
      </trkpt>
      <trkpt lat="45.97664" lon="4.78068">
        <ele>248</ele>
        <time>2018-06-26T10:34:32Z</time>
      </trkpt>
      <trkpt lat="45.97658" lon="4.78072">
        <ele>248</ele>
        <time>2018-06-26T10:34:33Z</time>
      </trkpt>
      <trkpt lat="45.97652" lon="4.78075">
        <ele>247</ele>
        <time>2018-06-26T10:34:34Z</time>
      </trkpt>
      <trkpt lat="45.97646" lon="4.78079">
        <ele>247</ele>
        <time>2018-06-26T10:34:35Z</time>
      </trkpt>
      <trkpt lat="45.97641" lon="4.78083">
        <ele>247</ele>
        <time>2018-06-26T10:34:36Z</time>
      </trkpt>
      <trkpt lat="45.97637" lon="4.78089">
        <ele>247</ele>
        <time>2018-06-26T10:34:37Z</time>
      </trkpt>
      <trkpt lat="45.97632" lon="4.78095">
        <ele>247</ele>
        <time>2018-06-26T10:34:38Z</time>
      </trkpt>
      <trkpt lat="45.97626" lon="4.78101">
        <ele>246</ele>
        <time>2018-06-26T10:34:39Z</time>
      </trkpt>
      <trkpt lat="45.97622" lon="4.78106">
        <ele>246</ele>
        <time>2018-06-26T10:34:40Z</time>
      </trkpt>
      <trkpt lat="45.97617" lon="4.78111">
        <ele>246</ele>
        <time>2018-06-26T10:34:41Z</time>
      </trkpt>
      <trkpt lat="45.97611" lon="4.78116">
        <ele>246</ele>
        <time>2018-06-26T10:34:42Z</time>
      </trkpt>
      <trkpt lat="45.97605" lon="4.78122">
        <ele>245</ele>
        <time>2018-06-26T10:34:43Z</time>
      </trkpt>
      <trkpt lat="45.976" lon="4.78128">
        <ele>245</ele>
        <time>2018-06-26T10:34:44Z</time>
      </trkpt>
      <trkpt lat="45.97594" lon="4.78133">
        <ele>245</ele>
        <time>2018-06-26T10:34:45Z</time>
      </trkpt>
      <trkpt lat="45.97589" lon="4.78142">
        <ele>244</ele>
        <time>2018-06-26T10:34:46Z</time>
      </trkpt>
      <trkpt lat="45.97583" lon="4.78149">
        <ele>242</ele>
        <time>2018-06-26T10:34:47Z</time>
      </trkpt>
      <trkpt lat="45.97576" lon="4.78154">
        <ele>242</ele>
        <time>2018-06-26T10:34:48Z</time>
      </trkpt>
      <trkpt lat="45.97569" lon="4.78162">
        <ele>242</ele>
        <time>2018-06-26T10:34:49Z</time>
      </trkpt>
      <trkpt lat="45.97562" lon="4.78173">
        <ele>240</ele>
        <time>2018-06-26T10:34:50Z</time>
      </trkpt>
      <trkpt lat="45.97555" lon="4.78181">
        <ele>239</ele>
        <time>2018-06-26T10:34:51Z</time>
      </trkpt>
      <trkpt lat="45.97546" lon="4.78189">
        <ele>239</ele>
        <time>2018-06-26T10:34:52Z</time>
      </trkpt>
      <trkpt lat="45.97538" lon="4.78198">
        <ele>239</ele>
        <time>2018-06-26T10:34:53Z</time>
      </trkpt>
      <trkpt lat="45.97531" lon="4.78207">
        <ele>238</ele>
        <time>2018-06-26T10:34:54Z</time>
      </trkpt>
      <trkpt lat="45.97522" lon="4.78217">
        <ele>238</ele>
        <time>2018-06-26T10:34:55Z</time>
      </trkpt>
      <trkpt lat="45.97514" lon="4.78226">
        <ele>238</ele>
        <time>2018-06-26T10:34:56Z</time>
      </trkpt>
      <trkpt lat="45.97505" lon="4.78235">
        <ele>237</ele>
        <time>2018-06-26T10:34:57Z</time>
      </trkpt>
      <trkpt lat="45.97497" lon="4.78245">
        <ele>236</ele>
        <time>2018-06-26T10:34:58Z</time>
      </trkpt>
      <trkpt lat="45.97489" lon="4.78255">
        <ele>235</ele>
        <time>2018-06-26T10:34:59Z</time>
      </trkpt>
      <trkpt lat="45.97481" lon="4.78264">
        <ele>235</ele>
        <time>2018-06-26T10:35:00Z</time>
      </trkpt>
      <trkpt lat="45.97472" lon="4.78273">
        <ele>235</ele>
        <time>2018-06-26T10:35:01Z</time>
      </trkpt>
      <trkpt lat="45.97464" lon="4.78285">
        <ele>234</ele>
        <time>2018-06-26T10:35:02Z</time>
      </trkpt>
      <trkpt lat="45.97455" lon="4.78295">
        <ele>234</ele>
        <time>2018-06-26T10:35:03Z</time>
      </trkpt>
      <trkpt lat="45.97448" lon="4.78304">
        <ele>234</ele>
        <time>2018-06-26T10:35:04Z</time>
      </trkpt>
      <trkpt lat="45.9744" lon="4.78313">
        <ele>234</ele>
        <time>2018-06-26T10:35:05Z</time>
      </trkpt>
      <trkpt lat="45.97433" lon="4.78323">
        <ele>234</ele>
        <time>2018-06-26T10:35:06Z</time>
      </trkpt>
      <trkpt lat="45.97424" lon="4.78331">
        <ele>233</ele>
        <time>2018-06-26T10:35:07Z</time>
      </trkpt>
      <trkpt lat="45.97417" lon="4.7834">
        <ele>233</ele>
        <time>2018-06-26T10:35:08Z</time>
      </trkpt>
      <trkpt lat="45.9741" lon="4.78348">
        <ele>233</ele>
        <time>2018-06-26T10:35:09Z</time>
      </trkpt>
      <trkpt lat="45.97404" lon="4.78356">
        <ele>233</ele>
        <time>2018-06-26T10:35:10Z</time>
      </trkpt>
      <trkpt lat="45.97397" lon="4.78364">
        <ele>233</ele>
        <time>2018-06-26T10:35:11Z</time>
      </trkpt>
      <trkpt lat="45.9739" lon="4.78372">
        <ele>233</ele>
        <time>2018-06-26T10:35:12Z</time>
      </trkpt>
      <trkpt lat="45.97384" lon="4.78378">
        <ele>233</ele>
        <time>2018-06-26T10:35:13Z</time>
      </trkpt>
      <trkpt lat="45.9738" lon="4.78384">
        <ele>233</ele>
        <time>2018-06-26T10:35:14Z</time>
      </trkpt>
      <trkpt lat="45.97375" lon="4.78392">
        <ele>233</ele>
        <time>2018-06-26T10:35:15Z</time>
      </trkpt>
      <trkpt lat="45.9737" lon="4.78398">
        <ele>233</ele>
        <time>2018-06-26T10:35:16Z</time>
      </trkpt>
      <trkpt lat="45.97366" lon="4.78401">
        <ele>233</ele>
        <time>2018-06-26T10:35:17Z</time>
      </trkpt>
      <trkpt lat="45.97362" lon="4.78405">
        <ele>233</ele>
        <time>2018-06-26T10:35:18Z</time>
      </trkpt>
      <trkpt lat="45.97355" lon="4.78409">
        <ele>232</ele>
        <time>2018-06-26T10:35:20Z</time>
      </trkpt>
      <trkpt lat="45.97351" lon="4.78408">
        <ele>232</ele>
        <time>2018-06-26T10:35:21Z</time>
      </trkpt>
      <trkpt lat="45.97347" lon="4.78404">
        <ele>232</ele>
        <time>2018-06-26T10:35:22Z</time>
      </trkpt>
      <trkpt lat="45.97343" lon="4.784">
        <ele>232</ele>
        <time>2018-06-26T10:35:23Z</time>
      </trkpt>
      <trkpt lat="45.9734" lon="4.78395">
        <ele>232</ele>
        <time>2018-06-26T10:35:24Z</time>
      </trkpt>
      <trkpt lat="45.97336" lon="4.78389">
        <ele>233</ele>
        <time>2018-06-26T10:35:25Z</time>
      </trkpt>
      <trkpt lat="45.97332" lon="4.78383">
        <ele>232</ele>
        <time>2018-06-26T10:35:26Z</time>
      </trkpt>
      <trkpt lat="45.97328" lon="4.78377">
        <ele>232</ele>
        <time>2018-06-26T10:35:27Z</time>
      </trkpt>
      <trkpt lat="45.97323" lon="4.78372">
        <ele>232</ele>
        <time>2018-06-26T10:35:28Z</time>
      </trkpt>
      <trkpt lat="45.97319" lon="4.78365">
        <ele>232</ele>
        <time>2018-06-26T10:35:29Z</time>
      </trkpt>
      <trkpt lat="45.97314" lon="4.78359">
        <ele>232</ele>
        <time>2018-06-26T10:35:30Z</time>
      </trkpt>
      <trkpt lat="45.9731" lon="4.78354">
        <ele>232</ele>
        <time>2018-06-26T10:35:31Z</time>
      </trkpt>
      <trkpt lat="45.97306" lon="4.78348">
        <ele>232</ele>
        <time>2018-06-26T10:35:32Z</time>
      </trkpt>
      <trkpt lat="45.97302" lon="4.78342">
        <ele>232</ele>
        <time>2018-06-26T10:35:33Z</time>
      </trkpt>
      <trkpt lat="45.97299" lon="4.78337">
        <ele>232</ele>
        <time>2018-06-26T10:35:34Z</time>
      </trkpt>
      <trkpt lat="45.97295" lon="4.78331">
        <ele>232</ele>
        <time>2018-06-26T10:35:35Z</time>
      </trkpt>
      <trkpt lat="45.97292" lon="4.78325">
        <ele>232</ele>
        <time>2018-06-26T10:35:36Z</time>
      </trkpt>
      <trkpt lat="45.97288" lon="4.78319">
        <ele>232</ele>
        <time>2018-06-26T10:35:37Z</time>
      </trkpt>
      <trkpt lat="45.97284" lon="4.78314">
        <ele>232</ele>
        <time>2018-06-26T10:35:38Z</time>
      </trkpt>
      <trkpt lat="45.9728" lon="4.78308">
        <ele>232</ele>
        <time>2018-06-26T10:35:39Z</time>
      </trkpt>
      <trkpt lat="45.97277" lon="4.78303">
        <ele>232</ele>
        <time>2018-06-26T10:35:40Z</time>
      </trkpt>
      <trkpt lat="45.97273" lon="4.78297">
        <ele>232</ele>
        <time>2018-06-26T10:35:41Z</time>
      </trkpt>
      <trkpt lat="45.97268" lon="4.7829">
        <ele>232</ele>
        <time>2018-06-26T10:35:42Z</time>
      </trkpt>
      <trkpt lat="45.97262" lon="4.78284">
        <ele>232</ele>
        <time>2018-06-26T10:35:43Z</time>
      </trkpt>
      <trkpt lat="45.97258" lon="4.78278">
        <ele>232</ele>
        <time>2018-06-26T10:35:44Z</time>
      </trkpt>
      <trkpt lat="45.97253" lon="4.78271">
        <ele>232</ele>
        <time>2018-06-26T10:35:45Z</time>
      </trkpt>
      <trkpt lat="45.97249" lon="4.78266">
        <ele>231</ele>
        <time>2018-06-26T10:35:46Z</time>
      </trkpt>
      <trkpt lat="45.97245" lon="4.78259">
        <ele>231</ele>
        <time>2018-06-26T10:35:47Z</time>
      </trkpt>
      <trkpt lat="45.9724" lon="4.78254">
        <ele>231</ele>
        <time>2018-06-26T10:35:48Z</time>
      </trkpt>
      <trkpt lat="45.97235" lon="4.78249">
        <ele>231</ele>
        <time>2018-06-26T10:35:49Z</time>
      </trkpt>
      <trkpt lat="45.97231" lon="4.78245">
        <ele>231</ele>
        <time>2018-06-26T10:35:50Z</time>
      </trkpt>
      <trkpt lat="45.97226" lon="4.78242">
        <ele>231</ele>
        <time>2018-06-26T10:35:51Z</time>
      </trkpt>
      <trkpt lat="45.97219" lon="4.78245">
        <ele>231</ele>
        <time>2018-06-26T10:35:52Z</time>
      </trkpt>
      <trkpt lat="45.97214" lon="4.78249">
        <ele>231</ele>
        <time>2018-06-26T10:35:53Z</time>
      </trkpt>
      <trkpt lat="45.97208" lon="4.78253">
        <ele>230</ele>
        <time>2018-06-26T10:35:54Z</time>
      </trkpt>
      <trkpt lat="45.97202" lon="4.78257">
        <ele>230</ele>
        <time>2018-06-26T10:35:55Z</time>
      </trkpt>
      <trkpt lat="45.97197" lon="4.78261">
        <ele>230</ele>
        <time>2018-06-26T10:35:56Z</time>
      </trkpt>
      <trkpt lat="45.97192" lon="4.78266">
        <ele>230</ele>
        <time>2018-06-26T10:35:57Z</time>
      </trkpt>
      <trkpt lat="45.97187" lon="4.7827">
        <ele>230</ele>
        <time>2018-06-26T10:35:58Z</time>
      </trkpt>
      <trkpt lat="45.97182" lon="4.78275">
        <ele>230</ele>
        <time>2018-06-26T10:35:59Z</time>
      </trkpt>
      <trkpt lat="45.97177" lon="4.78278">
        <ele>230</ele>
        <time>2018-06-26T10:36:00Z</time>
      </trkpt>
      <trkpt lat="45.97172" lon="4.78281">
        <ele>230</ele>
        <time>2018-06-26T10:36:01Z</time>
      </trkpt>
      <trkpt lat="45.97166" lon="4.78285">
        <ele>230</ele>
        <time>2018-06-26T10:36:02Z</time>
      </trkpt>
      <trkpt lat="45.97161" lon="4.78289">
        <ele>230</ele>
        <time>2018-06-26T10:36:03Z</time>
      </trkpt>
      <trkpt lat="45.97156" lon="4.78293">
        <ele>230</ele>
        <time>2018-06-26T10:36:04Z</time>
      </trkpt>
      <trkpt lat="45.97151" lon="4.78297">
        <ele>230</ele>
        <time>2018-06-26T10:36:05Z</time>
      </trkpt>
      <trkpt lat="45.97146" lon="4.78302">
        <ele>230</ele>
        <time>2018-06-26T10:36:06Z</time>
      </trkpt>
      <trkpt lat="45.97141" lon="4.78306">
        <ele>230</ele>
        <time>2018-06-26T10:36:07Z</time>
      </trkpt>
      <trkpt lat="45.97137" lon="4.78309">
        <ele>230</ele>
        <time>2018-06-26T10:36:08Z</time>
      </trkpt>
      <trkpt lat="45.97132" lon="4.78313">
        <ele>230</ele>
        <time>2018-06-26T10:36:09Z</time>
      </trkpt>
      <trkpt lat="45.97127" lon="4.78318">
        <ele>230</ele>
        <time>2018-06-26T10:36:10Z</time>
      </trkpt>
      <trkpt lat="45.97122" lon="4.78322">
        <ele>231</ele>
        <time>2018-06-26T10:36:11Z</time>
      </trkpt>
      <trkpt lat="45.97118" lon="4.78327">
        <ele>231</ele>
        <time>2018-06-26T10:36:12Z</time>
      </trkpt>
      <trkpt lat="45.97113" lon="4.78331">
        <ele>231</ele>
        <time>2018-06-26T10:36:13Z</time>
      </trkpt>
      <trkpt lat="45.97107" lon="4.78334">
        <ele>231</ele>
        <time>2018-06-26T10:36:14Z</time>
      </trkpt>
      <trkpt lat="45.97103" lon="4.78339">
        <ele>231</ele>
        <time>2018-06-26T10:36:15Z</time>
      </trkpt>
      <trkpt lat="45.97097" lon="4.78343">
        <ele>231</ele>
        <time>2018-06-26T10:36:16Z</time>
      </trkpt>
      <trkpt lat="45.97093" lon="4.78346">
        <ele>231</ele>
        <time>2018-06-26T10:36:17Z</time>
      </trkpt>
      <trkpt lat="45.97088" lon="4.7835">
        <ele>231</ele>
        <time>2018-06-26T10:36:18Z</time>
      </trkpt>
      <trkpt lat="45.97083" lon="4.78354">
        <ele>230</ele>
        <time>2018-06-26T10:36:19Z</time>
      </trkpt>
      <trkpt lat="45.97077" lon="4.78358">
        <ele>230</ele>
        <time>2018-06-26T10:36:20Z</time>
      </trkpt>
      <trkpt lat="45.97072" lon="4.78363">
        <ele>230</ele>
        <time>2018-06-26T10:36:21Z</time>
      </trkpt>
      <trkpt lat="45.97066" lon="4.78367">
        <ele>230</ele>
        <time>2018-06-26T10:36:22Z</time>
      </trkpt>
      <trkpt lat="45.9706" lon="4.78372">
        <ele>230</ele>
        <time>2018-06-26T10:36:23Z</time>
      </trkpt>
      <trkpt lat="45.97055" lon="4.78376">
        <ele>229</ele>
        <time>2018-06-26T10:36:24Z</time>
      </trkpt>
      <trkpt lat="45.97049" lon="4.78381">
        <ele>229</ele>
        <time>2018-06-26T10:36:25Z</time>
      </trkpt>
      <trkpt lat="45.97043" lon="4.78386">
        <ele>229</ele>
        <time>2018-06-26T10:36:26Z</time>
      </trkpt>
      <trkpt lat="45.97036" lon="4.78392">
        <ele>229</ele>
        <time>2018-06-26T10:36:27Z</time>
      </trkpt>
      <trkpt lat="45.97029" lon="4.78397">
        <ele>229</ele>
        <time>2018-06-26T10:36:28Z</time>
      </trkpt>
      <trkpt lat="45.97022" lon="4.78402">
        <ele>229</ele>
        <time>2018-06-26T10:36:29Z</time>
      </trkpt>
      <trkpt lat="45.97016" lon="4.78407">
        <ele>228</ele>
        <time>2018-06-26T10:36:30Z</time>
      </trkpt>
      <trkpt lat="45.97009" lon="4.78413">
        <ele>228</ele>
        <time>2018-06-26T10:36:31Z</time>
      </trkpt>
      <trkpt lat="45.97002" lon="4.78418">
        <ele>227</ele>
        <time>2018-06-26T10:36:32Z</time>
      </trkpt>
      <trkpt lat="45.96995" lon="4.78421">
        <ele>226</ele>
        <time>2018-06-26T10:36:33Z</time>
      </trkpt>
      <trkpt lat="45.96988" lon="4.78425">
        <ele>225</ele>
        <time>2018-06-26T10:36:34Z</time>
      </trkpt>
      <trkpt lat="45.96981" lon="4.78428">
        <ele>224</ele>
        <time>2018-06-26T10:36:35Z</time>
      </trkpt>
      <trkpt lat="45.96971" lon="4.78429">
        <ele>223</ele>
        <time>2018-06-26T10:36:36Z</time>
      </trkpt>
      <trkpt lat="45.96963" lon="4.7843">
        <ele>223</ele>
        <time>2018-06-26T10:36:37Z</time>
      </trkpt>
      <trkpt lat="45.96954" lon="4.7843">
        <ele>222</ele>
        <time>2018-06-26T10:36:38Z</time>
      </trkpt>
      <trkpt lat="45.96945" lon="4.7843">
        <ele>222</ele>
        <time>2018-06-26T10:36:39Z</time>
      </trkpt>
      <trkpt lat="45.96938" lon="4.78432">
        <ele>222</ele>
        <time>2018-06-26T10:36:40Z</time>
      </trkpt>
      <trkpt lat="45.9693" lon="4.78436">
        <ele>221</ele>
        <time>2018-06-26T10:36:41Z</time>
      </trkpt>
      <trkpt lat="45.96923" lon="4.78441">
        <ele>221</ele>
        <time>2018-06-26T10:36:42Z</time>
      </trkpt>
      <trkpt lat="45.96917" lon="4.7845">
        <ele>215</ele>
        <time>2018-06-26T10:36:43Z</time>
      </trkpt>
      <trkpt lat="45.9691" lon="4.78458">
        <ele>215</ele>
        <time>2018-06-26T10:36:44Z</time>
      </trkpt>
      <trkpt lat="45.96903" lon="4.78466">
        <ele>214</ele>
        <time>2018-06-26T10:36:45Z</time>
      </trkpt>
      <trkpt lat="45.96901" lon="4.78481">
        <ele>213</ele>
        <time>2018-06-26T10:36:46Z</time>
      </trkpt>
      <trkpt lat="45.96895" lon="4.78491">
        <ele>213</ele>
        <time>2018-06-26T10:36:47Z</time>
      </trkpt>
      <trkpt lat="45.96888" lon="4.78499">
        <ele>213</ele>
        <time>2018-06-26T10:36:48Z</time>
      </trkpt>
      <trkpt lat="45.96882" lon="4.78507">
        <ele>209</ele>
        <time>2018-06-26T10:36:49Z</time>
      </trkpt>
      <trkpt lat="45.96875" lon="4.78515">
        <ele>208</ele>
        <time>2018-06-26T10:36:50Z</time>
      </trkpt>
      <trkpt lat="45.96871" lon="4.78521">
        <ele>208</ele>
        <time>2018-06-26T10:36:51Z</time>
      </trkpt>
      <trkpt lat="45.96865" lon="4.78528">
        <ele>207</ele>
        <time>2018-06-26T10:36:52Z</time>
      </trkpt>
      <trkpt lat="45.96859" lon="4.78537">
        <ele>207</ele>
        <time>2018-06-26T10:36:53Z</time>
      </trkpt>
      <trkpt lat="45.96853" lon="4.78544">
        <ele>207</ele>
        <time>2018-06-26T10:36:54Z</time>
      </trkpt>
      <trkpt lat="45.96847" lon="4.78551">
        <ele>206</ele>
        <time>2018-06-26T10:36:55Z</time>
      </trkpt>
      <trkpt lat="45.96841" lon="4.78557">
        <ele>206</ele>
        <time>2018-06-26T10:36:56Z</time>
      </trkpt>
      <trkpt lat="45.96836" lon="4.78561">
        <ele>205</ele>
        <time>2018-06-26T10:36:57Z</time>
      </trkpt>
      <trkpt lat="45.96832" lon="4.78566">
        <ele>203</ele>
        <time>2018-06-26T10:36:58Z</time>
      </trkpt>
      <trkpt lat="45.96829" lon="4.7857">
        <ele>203</ele>
        <time>2018-06-26T10:37:00Z</time>
      </trkpt>
      <trkpt lat="45.96823" lon="4.7857">
        <ele>203</ele>
        <time>2018-06-26T10:37:01Z</time>
      </trkpt>
      <trkpt lat="45.96814" lon="4.78571">
        <ele>203</ele>
        <time>2018-06-26T10:37:03Z</time>
      </trkpt>
      <trkpt lat="45.96811" lon="4.78565">
        <ele>203</ele>
        <time>2018-06-26T10:37:04Z</time>
      </trkpt>
      <trkpt lat="45.96807" lon="4.7856">
        <ele>203</ele>
        <time>2018-06-26T10:37:05Z</time>
      </trkpt>
      <trkpt lat="45.96807" lon="4.78553">
        <ele>203</ele>
        <time>2018-06-26T10:37:06Z</time>
      </trkpt>
      <trkpt lat="45.96803" lon="4.78547">
        <ele>203</ele>
        <time>2018-06-26T10:37:07Z</time>
      </trkpt>
      <trkpt lat="45.968" lon="4.78541">
        <ele>203</ele>
        <time>2018-06-26T10:37:08Z</time>
      </trkpt>
      <trkpt lat="45.96797" lon="4.78534">
        <ele>203</ele>
        <time>2018-06-26T10:37:09Z</time>
      </trkpt>
      <trkpt lat="45.96793" lon="4.78528">
        <ele>203</ele>
        <time>2018-06-26T10:37:10Z</time>
      </trkpt>
      <trkpt lat="45.9679" lon="4.78522">
        <ele>203</ele>
        <time>2018-06-26T10:37:11Z</time>
      </trkpt>
      <trkpt lat="45.96786" lon="4.78516">
        <ele>203</ele>
        <time>2018-06-26T10:37:12Z</time>
      </trkpt>
      <trkpt lat="45.96783" lon="4.78509">
        <ele>203</ele>
        <time>2018-06-26T10:37:13Z</time>
      </trkpt>
      <trkpt lat="45.96778" lon="4.78503">
        <ele>203</ele>
        <time>2018-06-26T10:37:14Z</time>
      </trkpt>
      <trkpt lat="45.96775" lon="4.78497">
        <ele>205</ele>
        <time>2018-06-26T10:37:15Z</time>
      </trkpt>
      <trkpt lat="45.9677" lon="4.78491">
        <ele>205</ele>
        <time>2018-06-26T10:37:16Z</time>
      </trkpt>
      <trkpt lat="45.96768" lon="4.78486">
        <ele>205</ele>
        <time>2018-06-26T10:37:17Z</time>
      </trkpt>
      <trkpt lat="45.96764" lon="4.78481">
        <ele>205</ele>
        <time>2018-06-26T10:37:18Z</time>
      </trkpt>
      <trkpt lat="45.96759" lon="4.78476">
        <ele>205</ele>
        <time>2018-06-26T10:37:19Z</time>
      </trkpt>
      <trkpt lat="45.96755" lon="4.78471">
        <ele>205</ele>
        <time>2018-06-26T10:37:20Z</time>
      </trkpt>
      <trkpt lat="45.9675" lon="4.78467">
        <ele>203</ele>
        <time>2018-06-26T10:37:21Z</time>
      </trkpt>
      <trkpt lat="45.96744" lon="4.78463">
        <ele>203</ele>
        <time>2018-06-26T10:37:22Z</time>
      </trkpt>
      <trkpt lat="45.96734" lon="4.78458">
        <ele>203</ele>
        <time>2018-06-26T10:37:23Z</time>
      </trkpt>
      <trkpt lat="45.96729" lon="4.78455">
        <ele>203</ele>
        <time>2018-06-26T10:37:24Z</time>
      </trkpt>
      <trkpt lat="45.96724" lon="4.7845">
        <ele>203</ele>
        <time>2018-06-26T10:37:25Z</time>
      </trkpt>
      <trkpt lat="45.96717" lon="4.78442">
        <ele>203</ele>
        <time>2018-06-26T10:37:27Z</time>
      </trkpt>
      <trkpt lat="45.96713" lon="4.78438">
        <ele>203</ele>
        <time>2018-06-26T10:37:28Z</time>
      </trkpt>
      <trkpt lat="45.96708" lon="4.78434">
        <ele>203</ele>
        <time>2018-06-26T10:37:29Z</time>
      </trkpt>
      <trkpt lat="45.96703" lon="4.7843">
        <ele>203</ele>
        <time>2018-06-26T10:37:30Z</time>
      </trkpt>
      <trkpt lat="45.96699" lon="4.78426">
        <ele>203</ele>
        <time>2018-06-26T10:37:31Z</time>
      </trkpt>
      <trkpt lat="45.96696" lon="4.78421">
        <ele>203</ele>
        <time>2018-06-26T10:37:32Z</time>
      </trkpt>
      <trkpt lat="45.96692" lon="4.78417">
        <ele>202</ele>
        <time>2018-06-26T10:37:33Z</time>
      </trkpt>
      <trkpt lat="45.96687" lon="4.78413">
        <ele>204</ele>
        <time>2018-06-26T10:37:34Z</time>
      </trkpt>
      <trkpt lat="45.96682" lon="4.78409">
        <ele>204</ele>
        <time>2018-06-26T10:37:35Z</time>
      </trkpt>
      <trkpt lat="45.96677" lon="4.78404">
        <ele>204</ele>
        <time>2018-06-26T10:37:36Z</time>
      </trkpt>
      <trkpt lat="45.96673" lon="4.78397">
        <ele>204</ele>
        <time>2018-06-26T10:37:37Z</time>
      </trkpt>
      <trkpt lat="45.96666" lon="4.78392">
        <ele>201</ele>
        <time>2018-06-26T10:37:38Z</time>
      </trkpt>
      <trkpt lat="45.96661" lon="4.78386">
        <ele>201</ele>
        <time>2018-06-26T10:37:39Z</time>
      </trkpt>
      <trkpt lat="45.96656" lon="4.78381">
        <ele>201</ele>
        <time>2018-06-26T10:37:40Z</time>
      </trkpt>
      <trkpt lat="45.9665" lon="4.78376">
        <ele>201</ele>
        <time>2018-06-26T10:37:41Z</time>
      </trkpt>
      <trkpt lat="45.96646" lon="4.7837">
        <ele>202</ele>
        <time>2018-06-26T10:37:42Z</time>
      </trkpt>
      <trkpt lat="45.9664" lon="4.78366">
        <ele>201</ele>
        <time>2018-06-26T10:37:43Z</time>
      </trkpt>
      <trkpt lat="45.96634" lon="4.78361">
        <ele>201</ele>
        <time>2018-06-26T10:37:44Z</time>
      </trkpt>
      <trkpt lat="45.96628" lon="4.78355">
        <ele>201</ele>
        <time>2018-06-26T10:37:45Z</time>
      </trkpt>
      <trkpt lat="45.96623" lon="4.78349">
        <ele>201</ele>
        <time>2018-06-26T10:37:46Z</time>
      </trkpt>
      <trkpt lat="45.96618" lon="4.78344">
        <ele>201</ele>
        <time>2018-06-26T10:37:47Z</time>
      </trkpt>
      <trkpt lat="45.96613" lon="4.78339">
        <ele>200</ele>
        <time>2018-06-26T10:37:48Z</time>
      </trkpt>
      <trkpt lat="45.96607" lon="4.78334">
        <ele>200</ele>
        <time>2018-06-26T10:37:49Z</time>
      </trkpt>
      <trkpt lat="45.96602" lon="4.78329">
        <ele>203</ele>
        <time>2018-06-26T10:37:50Z</time>
      </trkpt>
      <trkpt lat="45.96597" lon="4.78323">
        <ele>202</ele>
        <time>2018-06-26T10:37:51Z</time>
      </trkpt>
      <trkpt lat="45.96592" lon="4.78316">
        <ele>203</ele>
        <time>2018-06-26T10:37:52Z</time>
      </trkpt>
      <trkpt lat="45.96588" lon="4.78311">
        <ele>203</ele>
        <time>2018-06-26T10:37:53Z</time>
      </trkpt>
      <trkpt lat="45.96584" lon="4.78305">
        <ele>204</ele>
        <time>2018-06-26T10:37:54Z</time>
      </trkpt>
      <trkpt lat="45.96575" lon="4.78299">
        <ele>200</ele>
        <time>2018-06-26T10:37:55Z</time>
      </trkpt>
      <trkpt lat="45.9657" lon="4.78294">
        <ele>200</ele>
        <time>2018-06-26T10:37:56Z</time>
      </trkpt>
      <trkpt lat="45.96567" lon="4.78288">
        <ele>200</ele>
        <time>2018-06-26T10:37:57Z</time>
      </trkpt>
      <trkpt lat="45.96561" lon="4.78283">
        <ele>201</ele>
        <time>2018-06-26T10:37:58Z</time>
      </trkpt>
      <trkpt lat="45.96556" lon="4.78277">
        <ele>201</ele>
        <time>2018-06-26T10:37:59Z</time>
      </trkpt>
      <trkpt lat="45.96551" lon="4.78272">
        <ele>201</ele>
        <time>2018-06-26T10:38:00Z</time>
      </trkpt>
      <trkpt lat="45.96546" lon="4.78266">
        <ele>200</ele>
        <time>2018-06-26T10:38:01Z</time>
      </trkpt>
      <trkpt lat="45.96539" lon="4.78258">
        <ele>200</ele>
        <time>2018-06-26T10:38:02Z</time>
      </trkpt>
      <trkpt lat="45.96534" lon="4.78251">
        <ele>200</ele>
        <time>2018-06-26T10:38:03Z</time>
      </trkpt>
      <trkpt lat="45.96531" lon="4.78246">
        <ele>204</ele>
        <time>2018-06-26T10:38:04Z</time>
      </trkpt>
      <trkpt lat="45.96526" lon="4.78237">
        <ele>204</ele>
        <time>2018-06-26T10:38:05Z</time>
      </trkpt>
      <trkpt lat="45.96521" lon="4.7823">
        <ele>204</ele>
        <time>2018-06-26T10:38:06Z</time>
      </trkpt>
      <trkpt lat="45.96516" lon="4.78222">
        <ele>204</ele>
        <time>2018-06-26T10:38:07Z</time>
      </trkpt>
      <trkpt lat="45.96512" lon="4.78216">
        <ele>205</ele>
        <time>2018-06-26T10:38:08Z</time>
      </trkpt>
      <trkpt lat="45.96506" lon="4.78208">
        <ele>205</ele>
        <time>2018-06-26T10:38:09Z</time>
      </trkpt>
      <trkpt lat="45.96501" lon="4.78203">
        <ele>205</ele>
        <time>2018-06-26T10:38:10Z</time>
      </trkpt>
      <trkpt lat="45.96495" lon="4.78198">
        <ele>201</ele>
        <time>2018-06-26T10:38:11Z</time>
      </trkpt>
      <trkpt lat="45.9649" lon="4.78192">
        <ele>201</ele>
        <time>2018-06-26T10:38:12Z</time>
      </trkpt>
      <trkpt lat="45.96485" lon="4.78189">
        <ele>201</ele>
        <time>2018-06-26T10:38:13Z</time>
      </trkpt>
      <trkpt lat="45.96477" lon="4.78186">
        <ele>201</ele>
        <time>2018-06-26T10:38:14Z</time>
      </trkpt>
      <trkpt lat="45.9647" lon="4.78182">
        <ele>200</ele>
        <time>2018-06-26T10:38:15Z</time>
      </trkpt>
      <trkpt lat="45.96464" lon="4.78179">
        <ele>200</ele>
        <time>2018-06-26T10:38:16Z</time>
      </trkpt>
      <trkpt lat="45.96461" lon="4.78173">
        <ele>200</ele>
        <time>2018-06-26T10:38:17Z</time>
      </trkpt>
      <trkpt lat="45.96457" lon="4.78168">
        <ele>200</ele>
        <time>2018-06-26T10:38:18Z</time>
      </trkpt>
      <trkpt lat="45.96452" lon="4.78162">
        <ele>204</ele>
        <time>2018-06-26T10:38:19Z</time>
      </trkpt>
      <trkpt lat="45.96446" lon="4.78159">
        <ele>203</ele>
        <time>2018-06-26T10:38:20Z</time>
      </trkpt>
      <trkpt lat="45.96442" lon="4.78153">
        <ele>203</ele>
        <time>2018-06-26T10:38:21Z</time>
      </trkpt>
      <trkpt lat="45.96437" lon="4.78148">
        <ele>203</ele>
        <time>2018-06-26T10:38:22Z</time>
      </trkpt>
      <trkpt lat="45.96432" lon="4.78143">
        <ele>203</ele>
        <time>2018-06-26T10:38:23Z</time>
      </trkpt>
      <trkpt lat="45.96429" lon="4.78138">
        <ele>203</ele>
        <time>2018-06-26T10:38:24Z</time>
      </trkpt>
      <trkpt lat="45.96422" lon="4.78133">
        <ele>204</ele>
        <time>2018-06-26T10:38:25Z</time>
      </trkpt>
      <trkpt lat="45.96415" lon="4.78127">
        <ele>200</ele>
        <time>2018-06-26T10:38:26Z</time>
      </trkpt>
      <trkpt lat="45.9641" lon="4.78122">
        <ele>200</ele>
        <time>2018-06-26T10:38:27Z</time>
      </trkpt>
      <trkpt lat="45.96404" lon="4.78118">
        <ele>200</ele>
        <time>2018-06-26T10:38:28Z</time>
      </trkpt>
      <trkpt lat="45.964" lon="4.78113">
        <ele>200</ele>
        <time>2018-06-26T10:38:29Z</time>
      </trkpt>
      <trkpt lat="45.96395" lon="4.7811">
        <ele>200</ele>
        <time>2018-06-26T10:38:30Z</time>
      </trkpt>
      <trkpt lat="45.9639" lon="4.78105">
        <ele>200</ele>
        <time>2018-06-26T10:38:31Z</time>
      </trkpt>
      <trkpt lat="45.96386" lon="4.78101">
        <ele>200</ele>
        <time>2018-06-26T10:38:32Z</time>
      </trkpt>
      <trkpt lat="45.96381" lon="4.78096">
        <ele>200</ele>
        <time>2018-06-26T10:38:33Z</time>
      </trkpt>
      <trkpt lat="45.96376" lon="4.78091">
        <ele>200</ele>
        <time>2018-06-26T10:38:34Z</time>
      </trkpt>
      <trkpt lat="45.96369" lon="4.78085">
        <ele>199</ele>
        <time>2018-06-26T10:38:35Z</time>
      </trkpt>
      <trkpt lat="45.96363" lon="4.78079">
        <ele>202</ele>
        <time>2018-06-26T10:38:36Z</time>
      </trkpt>
      <trkpt lat="45.96358" lon="4.78073">
        <ele>202</ele>
        <time>2018-06-26T10:38:37Z</time>
      </trkpt>
      <trkpt lat="45.96353" lon="4.78066">
        <ele>202</ele>
        <time>2018-06-26T10:38:38Z</time>
      </trkpt>
      <trkpt lat="45.96347" lon="4.7806">
        <ele>202</ele>
        <time>2018-06-26T10:38:39Z</time>
      </trkpt>
      <trkpt lat="45.96342" lon="4.78054">
        <ele>202</ele>
        <time>2018-06-26T10:38:40Z</time>
      </trkpt>
      <trkpt lat="45.96336" lon="4.78047">
        <ele>203</ele>
        <time>2018-06-26T10:38:41Z</time>
      </trkpt>
      <trkpt lat="45.96331" lon="4.78041">
        <ele>200</ele>
        <time>2018-06-26T10:38:42Z</time>
      </trkpt>
      <trkpt lat="45.96326" lon="4.78034">
        <ele>200</ele>
        <time>2018-06-26T10:38:43Z</time>
      </trkpt>
      <trkpt lat="45.9632" lon="4.78028">
        <ele>200</ele>
        <time>2018-06-26T10:38:44Z</time>
      </trkpt>
      <trkpt lat="45.96314" lon="4.78022">
        <ele>200</ele>
        <time>2018-06-26T10:38:45Z</time>
      </trkpt>
      <trkpt lat="45.9631" lon="4.78015">
        <ele>200</ele>
        <time>2018-06-26T10:38:46Z</time>
      </trkpt>
      <trkpt lat="45.96305" lon="4.7801">
        <ele>200</ele>
        <time>2018-06-26T10:38:47Z</time>
      </trkpt>
      <trkpt lat="45.963" lon="4.78005">
        <ele>200</ele>
        <time>2018-06-26T10:38:48Z</time>
      </trkpt>
      <trkpt lat="45.96295" lon="4.78">
        <ele>204</ele>
        <time>2018-06-26T10:38:49Z</time>
      </trkpt>
      <trkpt lat="45.96291" lon="4.77994">
        <ele>204</ele>
        <time>2018-06-26T10:38:50Z</time>
      </trkpt>
      <trkpt lat="45.96285" lon="4.77989">
        <ele>204</ele>
        <time>2018-06-26T10:38:51Z</time>
      </trkpt>
      <trkpt lat="45.96281" lon="4.77986">
        <ele>204</ele>
        <time>2018-06-26T10:38:52Z</time>
      </trkpt>
      <trkpt lat="45.96275" lon="4.77982">
        <ele>203</ele>
        <time>2018-06-26T10:38:53Z</time>
      </trkpt>
      <trkpt lat="45.96269" lon="4.77977">
        <ele>203</ele>
        <time>2018-06-26T10:38:54Z</time>
      </trkpt>
      <trkpt lat="45.96266" lon="4.77973">
        <ele>203</ele>
        <time>2018-06-26T10:38:55Z</time>
      </trkpt>
      <trkpt lat="45.9626" lon="4.77969">
        <ele>204</ele>
        <time>2018-06-26T10:38:56Z</time>
      </trkpt>
      <trkpt lat="45.96254" lon="4.77964">
        <ele>204</ele>
        <time>2018-06-26T10:38:57Z</time>
      </trkpt>
      <trkpt lat="45.96251" lon="4.77959">
        <ele>205</ele>
        <time>2018-06-26T10:38:58Z</time>
      </trkpt>
      <trkpt lat="45.96247" lon="4.77955">
        <ele>200</ele>
        <time>2018-06-26T10:38:59Z</time>
      </trkpt>
      <trkpt lat="45.96243" lon="4.7795">
        <ele>200</ele>
        <time>2018-06-26T10:39:00Z</time>
      </trkpt>
      <trkpt lat="45.96239" lon="4.77947">
        <ele>200</ele>
        <time>2018-06-26T10:39:01Z</time>
      </trkpt>
      <trkpt lat="45.96236" lon="4.77941">
        <ele>201</ele>
        <time>2018-06-26T10:39:02Z</time>
      </trkpt>
      <trkpt lat="45.96232" lon="4.77935">
        <ele>201</ele>
        <time>2018-06-26T10:39:03Z</time>
      </trkpt>
      <trkpt lat="45.96227" lon="4.77931">
        <ele>201</ele>
        <time>2018-06-26T10:39:04Z</time>
      </trkpt>
      <trkpt lat="45.96223" lon="4.77926">
        <ele>201</ele>
        <time>2018-06-26T10:39:05Z</time>
      </trkpt>
      <trkpt lat="45.96218" lon="4.77921">
        <ele>200</ele>
        <time>2018-06-26T10:39:06Z</time>
      </trkpt>
      <trkpt lat="45.96213" lon="4.77916">
        <ele>203</ele>
        <time>2018-06-26T10:39:07Z</time>
      </trkpt>
      <trkpt lat="45.96212" lon="4.77911">
        <ele>203</ele>
        <time>2018-06-26T10:39:08Z</time>
      </trkpt>
      <trkpt lat="45.96208" lon="4.77904">
        <ele>202</ele>
        <time>2018-06-26T10:39:09Z</time>
      </trkpt>
      <trkpt lat="45.96205" lon="4.77899">
        <ele>202</ele>
        <time>2018-06-26T10:39:10Z</time>
      </trkpt>
      <trkpt lat="45.96202" lon="4.77893">
        <ele>202</ele>
        <time>2018-06-26T10:39:11Z</time>
      </trkpt>
      <trkpt lat="45.96198" lon="4.77886">
        <ele>202</ele>
        <time>2018-06-26T10:39:12Z</time>
      </trkpt>
      <trkpt lat="45.96196" lon="4.7788">
        <ele>202</ele>
        <time>2018-06-26T10:39:13Z</time>
      </trkpt>
      <trkpt lat="45.96193" lon="4.77874">
        <ele>202</ele>
        <time>2018-06-26T10:39:14Z</time>
      </trkpt>
      <trkpt lat="45.96191" lon="4.77869">
        <ele>202</ele>
        <time>2018-06-26T10:39:15Z</time>
      </trkpt>
      <trkpt lat="45.96188" lon="4.77863">
        <ele>202</ele>
        <time>2018-06-26T10:39:16Z</time>
      </trkpt>
      <trkpt lat="45.96185" lon="4.77857">
        <ele>202</ele>
        <time>2018-06-26T10:39:17Z</time>
      </trkpt>
      <trkpt lat="45.96181" lon="4.77852">
        <ele>201</ele>
        <time>2018-06-26T10:39:18Z</time>
      </trkpt>
      <trkpt lat="45.96178" lon="4.77846">
        <ele>201</ele>
        <time>2018-06-26T10:39:19Z</time>
      </trkpt>
      <trkpt lat="45.96176" lon="4.77841">
        <ele>201</ele>
        <time>2018-06-26T10:39:20Z</time>
      </trkpt>
      <trkpt lat="45.96171" lon="4.77836">
        <ele>200</ele>
        <time>2018-06-26T10:39:21Z</time>
      </trkpt>
      <trkpt lat="45.96166" lon="4.77826">
        <ele>199</ele>
        <time>2018-06-26T10:39:23Z</time>
      </trkpt>
      <trkpt lat="45.96158" lon="4.7782">
        <ele>198</ele>
        <time>2018-06-26T10:39:24Z</time>
      </trkpt>
      <trkpt lat="45.96155" lon="4.77813">
        <ele>198</ele>
        <time>2018-06-26T10:39:25Z</time>
      </trkpt>
      <trkpt lat="45.96151" lon="4.77808">
        <ele>198</ele>
        <time>2018-06-26T10:39:26Z</time>
      </trkpt>
      <trkpt lat="45.96147" lon="4.77801">
        <ele>198</ele>
        <time>2018-06-26T10:39:27Z</time>
      </trkpt>
      <trkpt lat="45.96145" lon="4.77795">
        <ele>198</ele>
        <time>2018-06-26T10:39:28Z</time>
      </trkpt>
      <trkpt lat="45.96141" lon="4.77788">
        <ele>198</ele>
        <time>2018-06-26T10:39:29Z</time>
      </trkpt>
      <trkpt lat="45.96133" lon="4.77782">
        <ele>198</ele>
        <time>2018-06-26T10:39:30Z</time>
      </trkpt>
      <trkpt lat="45.9613" lon="4.77776">
        <ele>198</ele>
        <time>2018-06-26T10:39:31Z</time>
      </trkpt>
      <trkpt lat="45.96125" lon="4.77769">
        <ele>198</ele>
        <time>2018-06-26T10:39:32Z</time>
      </trkpt>
      <trkpt lat="45.96122" lon="4.77761">
        <ele>197</ele>
        <time>2018-06-26T10:39:33Z</time>
      </trkpt>
      <trkpt lat="45.96117" lon="4.77754">
        <ele>197</ele>
        <time>2018-06-26T10:39:34Z</time>
      </trkpt>
      <trkpt lat="45.96112" lon="4.77747">
        <ele>199</ele>
        <time>2018-06-26T10:39:35Z</time>
      </trkpt>
      <trkpt lat="45.96111" lon="4.77741">
        <ele>199</ele>
        <time>2018-06-26T10:39:36Z</time>
      </trkpt>
      <trkpt lat="45.96109" lon="4.77733">
        <ele>199</ele>
        <time>2018-06-26T10:39:37Z</time>
      </trkpt>
      <trkpt lat="45.96106" lon="4.77726">
        <ele>199</ele>
        <time>2018-06-26T10:39:38Z</time>
      </trkpt>
      <trkpt lat="45.96102" lon="4.77718">
        <ele>200</ele>
        <time>2018-06-26T10:39:39Z</time>
      </trkpt>
      <trkpt lat="45.96098" lon="4.77711">
        <ele>200</ele>
        <time>2018-06-26T10:39:40Z</time>
      </trkpt>
      <trkpt lat="45.96093" lon="4.77703">
        <ele>200</ele>
        <time>2018-06-26T10:39:41Z</time>
      </trkpt>
      <trkpt lat="45.96087" lon="4.77695">
        <ele>200</ele>
        <time>2018-06-26T10:39:42Z</time>
      </trkpt>
      <trkpt lat="45.96083" lon="4.77689">
        <ele>198</ele>
        <time>2018-06-26T10:39:43Z</time>
      </trkpt>
      <trkpt lat="45.96071" lon="4.77685">
        <ele>198</ele>
        <time>2018-06-26T10:39:44Z</time>
      </trkpt>
      <trkpt lat="45.96066" lon="4.77678">
        <ele>198</ele>
        <time>2018-06-26T10:39:45Z</time>
      </trkpt>
      <trkpt lat="45.96062" lon="4.77671">
        <ele>198</ele>
        <time>2018-06-26T10:39:46Z</time>
      </trkpt>
      <trkpt lat="45.96057" lon="4.77664">
        <ele>200</ele>
        <time>2018-06-26T10:39:47Z</time>
      </trkpt>
      <trkpt lat="45.96053" lon="4.77657">
        <ele>200</ele>
        <time>2018-06-26T10:39:48Z</time>
      </trkpt>
      <trkpt lat="45.96048" lon="4.7765">
        <ele>200</ele>
        <time>2018-06-26T10:39:49Z</time>
      </trkpt>
      <trkpt lat="45.96044" lon="4.77644">
        <ele>199</ele>
        <time>2018-06-26T10:39:50Z</time>
      </trkpt>
      <trkpt lat="45.9604" lon="4.77639">
        <ele>199</ele>
        <time>2018-06-26T10:39:51Z</time>
      </trkpt>
      <trkpt lat="45.96034" lon="4.77632">
        <ele>199</ele>
        <time>2018-06-26T10:39:52Z</time>
      </trkpt>
      <trkpt lat="45.9603" lon="4.77627">
        <ele>199</ele>
        <time>2018-06-26T10:39:53Z</time>
      </trkpt>
      <trkpt lat="45.96025" lon="4.77622">
        <ele>199</ele>
        <time>2018-06-26T10:39:54Z</time>
      </trkpt>
      <trkpt lat="45.96022" lon="4.77615">
        <ele>199</ele>
        <time>2018-06-26T10:39:55Z</time>
      </trkpt>
      <trkpt lat="45.96018" lon="4.77608">
        <ele>199</ele>
        <time>2018-06-26T10:39:56Z</time>
      </trkpt>
      <trkpt lat="45.96013" lon="4.77602">
        <ele>199</ele>
        <time>2018-06-26T10:39:57Z</time>
      </trkpt>
      <trkpt lat="45.9601" lon="4.77597">
        <ele>198</ele>
        <time>2018-06-26T10:39:58Z</time>
      </trkpt>
      <trkpt lat="45.96002" lon="4.77589">
        <ele>198</ele>
        <time>2018-06-26T10:39:59Z</time>
      </trkpt>
      <trkpt lat="45.95999" lon="4.77584">
        <ele>197</ele>
        <time>2018-06-26T10:40:00Z</time>
      </trkpt>
      <trkpt lat="45.95991" lon="4.77576">
        <ele>196</ele>
        <time>2018-06-26T10:40:01Z</time>
      </trkpt>
      <trkpt lat="45.95986" lon="4.77566">
        <ele>196</ele>
        <time>2018-06-26T10:40:03Z</time>
      </trkpt>
      <trkpt lat="45.95984" lon="4.77562">
        <ele>196</ele>
        <time>2018-06-26T10:40:04Z</time>
      </trkpt>
      <trkpt lat="45.95983" lon="4.77555">
        <ele>196</ele>
        <time>2018-06-26T10:40:05Z</time>
      </trkpt>
      <trkpt lat="45.95979" lon="4.7755">
        <ele>196</ele>
        <time>2018-06-26T10:40:06Z</time>
      </trkpt>
      <trkpt lat="45.95976" lon="4.77545">
        <ele>195</ele>
        <time>2018-06-26T10:40:07Z</time>
      </trkpt>
      <trkpt lat="45.95974" lon="4.7754">
        <ele>195</ele>
        <time>2018-06-26T10:40:08Z</time>
      </trkpt>
      <trkpt lat="45.95971" lon="4.77534">
        <ele>195</ele>
        <time>2018-06-26T10:40:09Z</time>
      </trkpt>
      <trkpt lat="45.95968" lon="4.77526">
        <ele>195</ele>
        <time>2018-06-26T10:40:10Z</time>
      </trkpt>
      <trkpt lat="45.95966" lon="4.7752">
        <ele>195</ele>
        <time>2018-06-26T10:40:11Z</time>
      </trkpt>
      <trkpt lat="45.95963" lon="4.77514">
        <ele>195</ele>
        <time>2018-06-26T10:40:12Z</time>
      </trkpt>
      <trkpt lat="45.95961" lon="4.77507">
        <ele>195</ele>
        <time>2018-06-26T10:40:13Z</time>
      </trkpt>
      <trkpt lat="45.95958" lon="4.775">
        <ele>196</ele>
        <time>2018-06-26T10:40:14Z</time>
      </trkpt>
      <trkpt lat="45.95956" lon="4.77493">
        <ele>196</ele>
        <time>2018-06-26T10:40:15Z</time>
      </trkpt>
      <trkpt lat="45.95952" lon="4.77485">
        <ele>196</ele>
        <time>2018-06-26T10:40:16Z</time>
      </trkpt>
      <trkpt lat="45.95949" lon="4.77478">
        <ele>195</ele>
        <time>2018-06-26T10:40:17Z</time>
      </trkpt>
      <trkpt lat="45.95947" lon="4.7747">
        <ele>196</ele>
        <time>2018-06-26T10:40:18Z</time>
      </trkpt>
      <trkpt lat="45.95941" lon="4.77462">
        <ele>195</ele>
        <time>2018-06-26T10:40:19Z</time>
      </trkpt>
      <trkpt lat="45.95937" lon="4.77452">
        <ele>195</ele>
        <time>2018-06-26T10:40:20Z</time>
      </trkpt>
      <trkpt lat="45.9593" lon="4.77442">
        <ele>195</ele>
        <time>2018-06-26T10:40:21Z</time>
      </trkpt>
      <trkpt lat="45.95927" lon="4.77433">
        <ele>195</ele>
        <time>2018-06-26T10:40:22Z</time>
      </trkpt>
      <trkpt lat="45.95924" lon="4.77422">
        <ele>195</ele>
        <time>2018-06-26T10:40:23Z</time>
      </trkpt>
      <trkpt lat="45.95922" lon="4.77414">
        <ele>195</ele>
        <time>2018-06-26T10:40:24Z</time>
      </trkpt>
      <trkpt lat="45.95919" lon="4.77404">
        <ele>195</ele>
        <time>2018-06-26T10:40:25Z</time>
      </trkpt>
      <trkpt lat="45.95917" lon="4.77395">
        <ele>193</ele>
        <time>2018-06-26T10:40:26Z</time>
      </trkpt>
      <trkpt lat="45.95915" lon="4.77385">
        <ele>193</ele>
        <time>2018-06-26T10:40:27Z</time>
      </trkpt>
      <trkpt lat="45.95912" lon="4.77376">
        <ele>193</ele>
        <time>2018-06-26T10:40:28Z</time>
      </trkpt>
      <trkpt lat="45.95909" lon="4.77368">
        <ele>193</ele>
        <time>2018-06-26T10:40:29Z</time>
      </trkpt>
      <trkpt lat="45.95906" lon="4.77358">
        <ele>193</ele>
        <time>2018-06-26T10:40:30Z</time>
      </trkpt>
      <trkpt lat="45.95902" lon="4.7735">
        <ele>193</ele>
        <time>2018-06-26T10:40:31Z</time>
      </trkpt>
      <trkpt lat="45.959" lon="4.77342">
        <ele>193</ele>
        <time>2018-06-26T10:40:32Z</time>
      </trkpt>
      <trkpt lat="45.95898" lon="4.77333">
        <ele>194</ele>
        <time>2018-06-26T10:40:33Z</time>
      </trkpt>
      <trkpt lat="45.95896" lon="4.77324">
        <ele>193</ele>
        <time>2018-06-26T10:40:34Z</time>
      </trkpt>
      <trkpt lat="45.95894" lon="4.77316">
        <ele>193</ele>
        <time>2018-06-26T10:40:35Z</time>
      </trkpt>
      <trkpt lat="45.95894" lon="4.77308">
        <ele>193</ele>
        <time>2018-06-26T10:40:36Z</time>
      </trkpt>
      <trkpt lat="45.95893" lon="4.77301">
        <ele>193</ele>
        <time>2018-06-26T10:40:37Z</time>
      </trkpt>
      <trkpt lat="45.95889" lon="4.77292">
        <ele>193</ele>
        <time>2018-06-26T10:40:38Z</time>
      </trkpt>
      <trkpt lat="45.95887" lon="4.77284">
        <ele>193</ele>
        <time>2018-06-26T10:40:39Z</time>
      </trkpt>
      <trkpt lat="45.95884" lon="4.77276">
        <ele>193</ele>
        <time>2018-06-26T10:40:40Z</time>
      </trkpt>
      <trkpt lat="45.95882" lon="4.77267">
        <ele>193</ele>
        <time>2018-06-26T10:40:41Z</time>
      </trkpt>
      <trkpt lat="45.9588" lon="4.77257">
        <ele>193</ele>
        <time>2018-06-26T10:40:42Z</time>
      </trkpt>
      <trkpt lat="45.95878" lon="4.7725">
        <ele>193</ele>
        <time>2018-06-26T10:40:43Z</time>
      </trkpt>
      <trkpt lat="45.95876" lon="4.77241">
        <ele>193</ele>
        <time>2018-06-26T10:40:44Z</time>
      </trkpt>
      <trkpt lat="45.95873" lon="4.77232">
        <ele>193</ele>
        <time>2018-06-26T10:40:45Z</time>
      </trkpt>
      <trkpt lat="45.95871" lon="4.77223">
        <ele>193</ele>
        <time>2018-06-26T10:40:46Z</time>
      </trkpt>
      <trkpt lat="45.95869" lon="4.77213">
        <ele>193</ele>
        <time>2018-06-26T10:40:47Z</time>
      </trkpt>
      <trkpt lat="45.95866" lon="4.77202">
        <ele>193</ele>
        <time>2018-06-26T10:40:48Z</time>
      </trkpt>
      <trkpt lat="45.95865" lon="4.77192">
        <ele>193</ele>
        <time>2018-06-26T10:40:49Z</time>
      </trkpt>
      <trkpt lat="45.95862" lon="4.77182">
        <ele>192</ele>
        <time>2018-06-26T10:40:50Z</time>
      </trkpt>
      <trkpt lat="45.9586" lon="4.77174">
        <ele>192</ele>
        <time>2018-06-26T10:40:51Z</time>
      </trkpt>
      <trkpt lat="45.95857" lon="4.77165">
        <ele>192</ele>
        <time>2018-06-26T10:40:52Z</time>
      </trkpt>
      <trkpt lat="45.95853" lon="4.77156">
        <ele>192</ele>
        <time>2018-06-26T10:40:53Z</time>
      </trkpt>
      <trkpt lat="45.9585" lon="4.77147">
        <ele>192</ele>
        <time>2018-06-26T10:40:54Z</time>
      </trkpt>
      <trkpt lat="45.95848" lon="4.77138">
        <ele>193</ele>
        <time>2018-06-26T10:40:55Z</time>
      </trkpt>
      <trkpt lat="45.95846" lon="4.77129">
        <ele>193</ele>
        <time>2018-06-26T10:40:56Z</time>
      </trkpt>
      <trkpt lat="45.95843" lon="4.7712">
        <ele>193</ele>
        <time>2018-06-26T10:40:57Z</time>
      </trkpt>
      <trkpt lat="45.95841" lon="4.77112">
        <ele>193</ele>
        <time>2018-06-26T10:40:58Z</time>
      </trkpt>
      <trkpt lat="45.95839" lon="4.77103">
        <ele>193</ele>
        <time>2018-06-26T10:40:59Z</time>
      </trkpt>
      <trkpt lat="45.95836" lon="4.77094">
        <ele>193</ele>
        <time>2018-06-26T10:41:00Z</time>
      </trkpt>
      <trkpt lat="45.95832" lon="4.77085">
        <ele>192</ele>
        <time>2018-06-26T10:41:01Z</time>
      </trkpt>
      <trkpt lat="45.95829" lon="4.77077">
        <ele>191</ele>
        <time>2018-06-26T10:41:02Z</time>
      </trkpt>
      <trkpt lat="45.95826" lon="4.77068">
        <ele>191</ele>
        <time>2018-06-26T10:41:03Z</time>
      </trkpt>
      <trkpt lat="45.95825" lon="4.77059">
        <ele>190</ele>
        <time>2018-06-26T10:41:04Z</time>
      </trkpt>
      <trkpt lat="45.95823" lon="4.77051">
        <ele>190</ele>
        <time>2018-06-26T10:41:05Z</time>
      </trkpt>
      <trkpt lat="45.95819" lon="4.77044">
        <ele>190</ele>
        <time>2018-06-26T10:41:06Z</time>
      </trkpt>
      <trkpt lat="45.95816" lon="4.77036">
        <ele>190</ele>
        <time>2018-06-26T10:41:07Z</time>
      </trkpt>
      <trkpt lat="45.95811" lon="4.7703">
        <ele>190</ele>
        <time>2018-06-26T10:41:08Z</time>
      </trkpt>
      <trkpt lat="45.95808" lon="4.77022">
        <ele>190</ele>
        <time>2018-06-26T10:41:09Z</time>
      </trkpt>
      <trkpt lat="45.95805" lon="4.77015">
        <ele>190</ele>
        <time>2018-06-26T10:41:10Z</time>
      </trkpt>
      <trkpt lat="45.95806" lon="4.77006">
        <ele>190</ele>
        <time>2018-06-26T10:41:11Z</time>
      </trkpt>
      <trkpt lat="45.95803" lon="4.76996">
        <ele>190</ele>
        <time>2018-06-26T10:41:12Z</time>
      </trkpt>
      <trkpt lat="45.95803" lon="4.76988">
        <ele>189</ele>
        <time>2018-06-26T10:41:13Z</time>
      </trkpt>
      <trkpt lat="45.95805" lon="4.76978">
        <ele>189</ele>
        <time>2018-06-26T10:41:14Z</time>
      </trkpt>
      <trkpt lat="45.95805" lon="4.76968">
        <ele>189</ele>
        <time>2018-06-26T10:41:15Z</time>
      </trkpt>
      <trkpt lat="45.95806" lon="4.7696">
        <ele>189</ele>
        <time>2018-06-26T10:41:16Z</time>
      </trkpt>
      <trkpt lat="45.95807" lon="4.7695">
        <ele>189</ele>
        <time>2018-06-26T10:41:17Z</time>
      </trkpt>
      <trkpt lat="45.95809" lon="4.76941">
        <ele>189</ele>
        <time>2018-06-26T10:41:18Z</time>
      </trkpt>
      <trkpt lat="45.95811" lon="4.76933">
        <ele>189</ele>
        <time>2018-06-26T10:41:19Z</time>
      </trkpt>
      <trkpt lat="45.95813" lon="4.76924">
        <ele>189</ele>
        <time>2018-06-26T10:41:20Z</time>
      </trkpt>
      <trkpt lat="45.95815" lon="4.76914">
        <ele>189</ele>
        <time>2018-06-26T10:41:21Z</time>
      </trkpt>
      <trkpt lat="45.95817" lon="4.76905">
        <ele>189</ele>
        <time>2018-06-26T10:41:22Z</time>
      </trkpt>
      <trkpt lat="45.95818" lon="4.76897">
        <ele>189</ele>
        <time>2018-06-26T10:41:23Z</time>
      </trkpt>
      <trkpt lat="45.9582" lon="4.76888">
        <ele>189</ele>
        <time>2018-06-26T10:41:24Z</time>
      </trkpt>
      <trkpt lat="45.95821" lon="4.7688">
        <ele>189</ele>
        <time>2018-06-26T10:41:25Z</time>
      </trkpt>
      <trkpt lat="45.95823" lon="4.76871">
        <ele>189</ele>
        <time>2018-06-26T10:41:26Z</time>
      </trkpt>
      <trkpt lat="45.95824" lon="4.76863">
        <ele>189</ele>
        <time>2018-06-26T10:41:27Z</time>
      </trkpt>
      <trkpt lat="45.95826" lon="4.76854">
        <ele>189</ele>
        <time>2018-06-26T10:41:28Z</time>
      </trkpt>
      <trkpt lat="45.95828" lon="4.76846">
        <ele>190</ele>
        <time>2018-06-26T10:41:29Z</time>
      </trkpt>
      <trkpt lat="45.95829" lon="4.76838">
        <ele>190</ele>
        <time>2018-06-26T10:41:30Z</time>
      </trkpt>
      <trkpt lat="45.9583" lon="4.76831">
        <ele>190</ele>
        <time>2018-06-26T10:41:31Z</time>
      </trkpt>
      <trkpt lat="45.95831" lon="4.76824">
        <ele>190</ele>
        <time>2018-06-26T10:41:32Z</time>
      </trkpt>
      <trkpt lat="45.95832" lon="4.76817">
        <ele>190</ele>
        <time>2018-06-26T10:41:33Z</time>
      </trkpt>
      <trkpt lat="45.95834" lon="4.76804">
        <ele>191</ele>
        <time>2018-06-26T10:41:35Z</time>
      </trkpt>
      <trkpt lat="45.95836" lon="4.76797">
        <ele>191</ele>
        <time>2018-06-26T10:41:36Z</time>
      </trkpt>
      <trkpt lat="45.95834" lon="4.76791">
        <ele>191</ele>
        <time>2018-06-26T10:41:37Z</time>
      </trkpt>
      <trkpt lat="45.95834" lon="4.76783">
        <ele>191</ele>
        <time>2018-06-26T10:41:38Z</time>
      </trkpt>
      <trkpt lat="45.95831" lon="4.76776">
        <ele>190</ele>
        <time>2018-06-26T10:41:39Z</time>
      </trkpt>
      <trkpt lat="45.95831" lon="4.76768">
        <ele>190</ele>
        <time>2018-06-26T10:41:40Z</time>
      </trkpt>
      <trkpt lat="45.95829" lon="4.76759">
        <ele>191</ele>
        <time>2018-06-26T10:41:41Z</time>
      </trkpt>
      <trkpt lat="45.95829" lon="4.76749">
        <ele>191</ele>
        <time>2018-06-26T10:41:42Z</time>
      </trkpt>
      <trkpt lat="45.95828" lon="4.7674">
        <ele>190</ele>
        <time>2018-06-26T10:41:43Z</time>
      </trkpt>
      <trkpt lat="45.95827" lon="4.76731">
        <ele>190</ele>
        <time>2018-06-26T10:41:44Z</time>
      </trkpt>
      <trkpt lat="45.95825" lon="4.76721">
        <ele>190</ele>
        <time>2018-06-26T10:41:45Z</time>
      </trkpt>
      <trkpt lat="45.95824" lon="4.76713">
        <ele>189</ele>
        <time>2018-06-26T10:41:46Z</time>
      </trkpt>
      <trkpt lat="45.95823" lon="4.76704">
        <ele>189</ele>
        <time>2018-06-26T10:41:47Z</time>
      </trkpt>
      <trkpt lat="45.95822" lon="4.76695">
        <ele>189</ele>
        <time>2018-06-26T10:41:48Z</time>
      </trkpt>
      <trkpt lat="45.95821" lon="4.76687">
        <ele>189</ele>
        <time>2018-06-26T10:41:49Z</time>
      </trkpt>
      <trkpt lat="45.9582" lon="4.76678">
        <ele>189</ele>
        <time>2018-06-26T10:41:50Z</time>
      </trkpt>
      <trkpt lat="45.95818" lon="4.7667">
        <ele>188</ele>
        <time>2018-06-26T10:41:51Z</time>
      </trkpt>
      <trkpt lat="45.95815" lon="4.76663">
        <ele>188</ele>
        <time>2018-06-26T10:41:52Z</time>
      </trkpt>
      <trkpt lat="45.95814" lon="4.76655">
        <ele>188</ele>
        <time>2018-06-26T10:41:53Z</time>
      </trkpt>
      <trkpt lat="45.95812" lon="4.76647">
        <ele>188</ele>
        <time>2018-06-26T10:41:54Z</time>
      </trkpt>
      <trkpt lat="45.95811" lon="4.76639">
        <ele>188</ele>
        <time>2018-06-26T10:41:55Z</time>
      </trkpt>
      <trkpt lat="45.9581" lon="4.7663">
        <ele>188</ele>
        <time>2018-06-26T10:41:56Z</time>
      </trkpt>
      <trkpt lat="45.9581" lon="4.76621">
        <ele>188</ele>
        <time>2018-06-26T10:41:57Z</time>
      </trkpt>
      <trkpt lat="45.95808" lon="4.7661">
        <ele>188</ele>
        <time>2018-06-26T10:41:58Z</time>
      </trkpt>
      <trkpt lat="45.95807" lon="4.76601">
        <ele>188</ele>
        <time>2018-06-26T10:41:59Z</time>
      </trkpt>
      <trkpt lat="45.95805" lon="4.76592">
        <ele>188</ele>
        <time>2018-06-26T10:42:00Z</time>
      </trkpt>
      <trkpt lat="45.95803" lon="4.76585">
        <ele>187</ele>
        <time>2018-06-26T10:42:01Z</time>
      </trkpt>
      <trkpt lat="45.95801" lon="4.76575">
        <ele>187</ele>
        <time>2018-06-26T10:42:02Z</time>
      </trkpt>
      <trkpt lat="45.958" lon="4.76565">
        <ele>187</ele>
        <time>2018-06-26T10:42:03Z</time>
      </trkpt>
      <trkpt lat="45.95799" lon="4.76556">
        <ele>187</ele>
        <time>2018-06-26T10:42:04Z</time>
      </trkpt>
      <trkpt lat="45.95797" lon="4.76547">
        <ele>187</ele>
        <time>2018-06-26T10:42:05Z</time>
      </trkpt>
      <trkpt lat="45.95796" lon="4.76538">
        <ele>187</ele>
        <time>2018-06-26T10:42:06Z</time>
      </trkpt>
      <trkpt lat="45.95794" lon="4.7653">
        <ele>187</ele>
        <time>2018-06-26T10:42:07Z</time>
      </trkpt>
      <trkpt lat="45.95793" lon="4.76522">
        <ele>187</ele>
        <time>2018-06-26T10:42:08Z</time>
      </trkpt>
      <trkpt lat="45.95793" lon="4.76513">
        <ele>187</ele>
        <time>2018-06-26T10:42:09Z</time>
      </trkpt>
      <trkpt lat="45.95793" lon="4.76505">
        <ele>187</ele>
        <time>2018-06-26T10:42:10Z</time>
      </trkpt>
      <trkpt lat="45.95791" lon="4.76497">
        <ele>186</ele>
        <time>2018-06-26T10:42:11Z</time>
      </trkpt>
      <trkpt lat="45.95788" lon="4.76488">
        <ele>186</ele>
        <time>2018-06-26T10:42:12Z</time>
      </trkpt>
      <trkpt lat="45.95786" lon="4.76481">
        <ele>186</ele>
        <time>2018-06-26T10:42:13Z</time>
      </trkpt>
      <trkpt lat="45.95785" lon="4.76472">
        <ele>186</ele>
        <time>2018-06-26T10:42:14Z</time>
      </trkpt>
      <trkpt lat="45.95784" lon="4.76464">
        <ele>186</ele>
        <time>2018-06-26T10:42:15Z</time>
      </trkpt>
      <trkpt lat="45.95784" lon="4.76455">
        <ele>186</ele>
        <time>2018-06-26T10:42:16Z</time>
      </trkpt>
      <trkpt lat="45.95782" lon="4.76447">
        <ele>186</ele>
        <time>2018-06-26T10:42:17Z</time>
      </trkpt>
      <trkpt lat="45.95779" lon="4.76438">
        <ele>186</ele>
        <time>2018-06-26T10:42:18Z</time>
      </trkpt>
      <trkpt lat="45.95778" lon="4.76429">
        <ele>186</ele>
        <time>2018-06-26T10:42:19Z</time>
      </trkpt>
      <trkpt lat="45.95778" lon="4.76421">
        <ele>186</ele>
        <time>2018-06-26T10:42:20Z</time>
      </trkpt>
      <trkpt lat="45.95777" lon="4.76413">
        <ele>186</ele>
        <time>2018-06-26T10:42:21Z</time>
      </trkpt>
      <trkpt lat="45.95777" lon="4.76405">
        <ele>186</ele>
        <time>2018-06-26T10:42:22Z</time>
      </trkpt>
      <trkpt lat="45.95776" lon="4.76395">
        <ele>186</ele>
        <time>2018-06-26T10:42:23Z</time>
      </trkpt>
      <trkpt lat="45.95774" lon="4.76387">
        <ele>186</ele>
        <time>2018-06-26T10:42:24Z</time>
      </trkpt>
      <trkpt lat="45.95774" lon="4.7638">
        <ele>186</ele>
        <time>2018-06-26T10:42:25Z</time>
      </trkpt>
      <trkpt lat="45.95774" lon="4.76373">
        <ele>186</ele>
        <time>2018-06-26T10:42:26Z</time>
      </trkpt>
      <trkpt lat="45.95773" lon="4.76365">
        <ele>186</ele>
        <time>2018-06-26T10:42:27Z</time>
      </trkpt>
      <trkpt lat="45.95771" lon="4.76357">
        <ele>186</ele>
        <time>2018-06-26T10:42:28Z</time>
      </trkpt>
      <trkpt lat="45.95772" lon="4.76348">
        <ele>186</ele>
        <time>2018-06-26T10:42:29Z</time>
      </trkpt>
      <trkpt lat="45.95772" lon="4.76341">
        <ele>186</ele>
        <time>2018-06-26T10:42:30Z</time>
      </trkpt>
      <trkpt lat="45.95771" lon="4.76332">
        <ele>185</ele>
        <time>2018-06-26T10:42:31Z</time>
      </trkpt>
      <trkpt lat="45.9577" lon="4.76323">
        <ele>185</ele>
        <time>2018-06-26T10:42:32Z</time>
      </trkpt>
      <trkpt lat="45.95769" lon="4.76313">
        <ele>185</ele>
        <time>2018-06-26T10:42:33Z</time>
      </trkpt>
      <trkpt lat="45.95769" lon="4.76303">
        <ele>186</ele>
        <time>2018-06-26T10:42:34Z</time>
      </trkpt>
      <trkpt lat="45.95769" lon="4.76294">
        <ele>186</ele>
        <time>2018-06-26T10:42:35Z</time>
      </trkpt>
      <trkpt lat="45.95768" lon="4.76284">
        <ele>186</ele>
        <time>2018-06-26T10:42:36Z</time>
      </trkpt>
      <trkpt lat="45.95768" lon="4.76276">
        <ele>186</ele>
        <time>2018-06-26T10:42:37Z</time>
      </trkpt>
      <trkpt lat="45.95767" lon="4.76267">
        <ele>185</ele>
        <time>2018-06-26T10:42:38Z</time>
      </trkpt>
      <trkpt lat="45.95768" lon="4.76259">
        <ele>185</ele>
        <time>2018-06-26T10:42:39Z</time>
      </trkpt>
      <trkpt lat="45.95768" lon="4.76251">
        <ele>185</ele>
        <time>2018-06-26T10:42:40Z</time>
      </trkpt>
      <trkpt lat="45.95769" lon="4.76244">
        <ele>186</ele>
        <time>2018-06-26T10:42:41Z</time>
      </trkpt>
      <trkpt lat="45.95769" lon="4.76236">
        <ele>186</ele>
        <time>2018-06-26T10:42:42Z</time>
      </trkpt>
      <trkpt lat="45.95769" lon="4.7623">
        <ele>186</ele>
        <time>2018-06-26T10:42:43Z</time>
      </trkpt>
      <trkpt lat="45.95767" lon="4.76221">
        <ele>186</ele>
        <time>2018-06-26T10:42:44Z</time>
      </trkpt>
      <trkpt lat="45.95766" lon="4.76213">
        <ele>186</ele>
        <time>2018-06-26T10:42:45Z</time>
      </trkpt>
      <trkpt lat="45.95766" lon="4.76205">
        <ele>186</ele>
        <time>2018-06-26T10:42:46Z</time>
      </trkpt>
      <trkpt lat="45.95765" lon="4.76197">
        <ele>186</ele>
        <time>2018-06-26T10:42:47Z</time>
      </trkpt>
      <trkpt lat="45.95765" lon="4.76189">
        <ele>186</ele>
        <time>2018-06-26T10:42:48Z</time>
      </trkpt>
      <trkpt lat="45.95764" lon="4.7618">
        <ele>186</ele>
        <time>2018-06-26T10:42:49Z</time>
      </trkpt>
      <trkpt lat="45.95763" lon="4.76171">
        <ele>185</ele>
        <time>2018-06-26T10:42:50Z</time>
      </trkpt>
      <trkpt lat="45.95762" lon="4.76163">
        <ele>186</ele>
        <time>2018-06-26T10:42:51Z</time>
      </trkpt>
      <trkpt lat="45.95761" lon="4.76154">
        <ele>186</ele>
        <time>2018-06-26T10:42:52Z</time>
      </trkpt>
      <trkpt lat="45.95761" lon="4.76145">
        <ele>186</ele>
        <time>2018-06-26T10:42:53Z</time>
      </trkpt>
      <trkpt lat="45.95761" lon="4.76137">
        <ele>186</ele>
        <time>2018-06-26T10:42:54Z</time>
      </trkpt>
      <trkpt lat="45.9576" lon="4.76127">
        <ele>186</ele>
        <time>2018-06-26T10:42:55Z</time>
      </trkpt>
      <trkpt lat="45.95759" lon="4.76118">
        <ele>186</ele>
        <time>2018-06-26T10:42:56Z</time>
      </trkpt>
      <trkpt lat="45.95757" lon="4.7611">
        <ele>186</ele>
        <time>2018-06-26T10:42:57Z</time>
      </trkpt>
      <trkpt lat="45.95756" lon="4.76101">
        <ele>186</ele>
        <time>2018-06-26T10:42:58Z</time>
      </trkpt>
      <trkpt lat="45.95755" lon="4.76093">
        <ele>186</ele>
        <time>2018-06-26T10:42:59Z</time>
      </trkpt>
      <trkpt lat="45.95752" lon="4.76086">
        <ele>185</ele>
        <time>2018-06-26T10:43:00Z</time>
      </trkpt>
      <trkpt lat="45.9575" lon="4.76079">
        <ele>185</ele>
        <time>2018-06-26T10:43:01Z</time>
      </trkpt>
      <trkpt lat="45.95747" lon="4.76071">
        <ele>185</ele>
        <time>2018-06-26T10:43:02Z</time>
      </trkpt>
      <trkpt lat="45.95744" lon="4.76064">
        <ele>185</ele>
        <time>2018-06-26T10:43:03Z</time>
      </trkpt>
      <trkpt lat="45.95742" lon="4.76057">
        <ele>184</ele>
        <time>2018-06-26T10:43:04Z</time>
      </trkpt>
      <trkpt lat="45.95738" lon="4.7605">
        <ele>184</ele>
        <time>2018-06-26T10:43:05Z</time>
      </trkpt>
      <trkpt lat="45.95736" lon="4.76045">
        <ele>184</ele>
        <time>2018-06-26T10:43:06Z</time>
      </trkpt>
      <trkpt lat="45.95733" lon="4.76039">
        <ele>184</ele>
        <time>2018-06-26T10:43:07Z</time>
      </trkpt>
      <trkpt lat="45.95731" lon="4.76032">
        <ele>184</ele>
        <time>2018-06-26T10:43:08Z</time>
      </trkpt>
      <trkpt lat="45.95727" lon="4.76025">
        <ele>184</ele>
        <time>2018-06-26T10:43:09Z</time>
      </trkpt>
      <trkpt lat="45.95724" lon="4.76018">
        <ele>184</ele>
        <time>2018-06-26T10:43:10Z</time>
      </trkpt>
      <trkpt lat="45.9572" lon="4.7601">
        <ele>184</ele>
        <time>2018-06-26T10:43:11Z</time>
      </trkpt>
      <trkpt lat="45.95716" lon="4.76002">
        <ele>184</ele>
        <time>2018-06-26T10:43:12Z</time>
      </trkpt>
      <trkpt lat="45.95713" lon="4.75994">
        <ele>185</ele>
        <time>2018-06-26T10:43:13Z</time>
      </trkpt>
      <trkpt lat="45.9571" lon="4.75986">
        <ele>185</ele>
        <time>2018-06-26T10:43:14Z</time>
      </trkpt>
      <trkpt lat="45.95706" lon="4.75979">
        <ele>185</ele>
        <time>2018-06-26T10:43:15Z</time>
      </trkpt>
      <trkpt lat="45.95703" lon="4.75971">
        <ele>185</ele>
        <time>2018-06-26T10:43:16Z</time>
      </trkpt>
      <trkpt lat="45.95699" lon="4.75964">
        <ele>185</ele>
        <time>2018-06-26T10:43:17Z</time>
      </trkpt>
      <trkpt lat="45.95697" lon="4.75957">
        <ele>185</ele>
        <time>2018-06-26T10:43:18Z</time>
      </trkpt>
      <trkpt lat="45.95695" lon="4.75949">
        <ele>185</ele>
        <time>2018-06-26T10:43:19Z</time>
      </trkpt>
      <trkpt lat="45.95692" lon="4.75942">
        <ele>185</ele>
        <time>2018-06-26T10:43:20Z</time>
      </trkpt>
      <trkpt lat="45.95689" lon="4.75935">
        <ele>185</ele>
        <time>2018-06-26T10:43:21Z</time>
      </trkpt>
      <trkpt lat="45.95685" lon="4.75928">
        <ele>185</ele>
        <time>2018-06-26T10:43:22Z</time>
      </trkpt>
      <trkpt lat="45.95681" lon="4.75921">
        <ele>185</ele>
        <time>2018-06-26T10:43:23Z</time>
      </trkpt>
      <trkpt lat="45.95678" lon="4.75915">
        <ele>185</ele>
        <time>2018-06-26T10:43:24Z</time>
      </trkpt>
      <trkpt lat="45.95676" lon="4.75909">
        <ele>185</ele>
        <time>2018-06-26T10:43:25Z</time>
      </trkpt>
      <trkpt lat="45.95674" lon="4.75903">
        <ele>185</ele>
        <time>2018-06-26T10:43:26Z</time>
      </trkpt>
      <trkpt lat="45.95672" lon="4.75897">
        <ele>186</ele>
        <time>2018-06-26T10:43:27Z</time>
      </trkpt>
      <trkpt lat="45.95669" lon="4.7589">
        <ele>186</ele>
        <time>2018-06-26T10:43:28Z</time>
      </trkpt>
      <trkpt lat="45.95667" lon="4.75883">
        <ele>186</ele>
        <time>2018-06-26T10:43:29Z</time>
      </trkpt>
      <trkpt lat="45.95665" lon="4.75877">
        <ele>184</ele>
        <time>2018-06-26T10:43:30Z</time>
      </trkpt>
      <trkpt lat="45.95661" lon="4.75871">
        <ele>184</ele>
        <time>2018-06-26T10:43:31Z</time>
      </trkpt>
      <trkpt lat="45.95659" lon="4.75863">
        <ele>184</ele>
        <time>2018-06-26T10:43:32Z</time>
      </trkpt>
      <trkpt lat="45.95657" lon="4.75856">
        <ele>184</ele>
        <time>2018-06-26T10:43:33Z</time>
      </trkpt>
      <trkpt lat="45.95655" lon="4.75848">
        <ele>185</ele>
        <time>2018-06-26T10:43:34Z</time>
      </trkpt>
      <trkpt lat="45.95653" lon="4.75841">
        <ele>185</ele>
        <time>2018-06-26T10:43:35Z</time>
      </trkpt>
      <trkpt lat="45.95653" lon="4.75832">
        <ele>186</ele>
        <time>2018-06-26T10:43:36Z</time>
      </trkpt>
      <trkpt lat="45.95651" lon="4.75824">
        <ele>185</ele>
        <time>2018-06-26T10:43:37Z</time>
      </trkpt>
      <trkpt lat="45.95649" lon="4.75816">
        <ele>185</ele>
        <time>2018-06-26T10:43:38Z</time>
      </trkpt>
      <trkpt lat="45.95647" lon="4.75808">
        <ele>185</ele>
        <time>2018-06-26T10:43:39Z</time>
      </trkpt>
      <trkpt lat="45.95645" lon="4.758">
        <ele>185</ele>
        <time>2018-06-26T10:43:40Z</time>
      </trkpt>
      <trkpt lat="45.95644" lon="4.75792">
        <ele>185</ele>
        <time>2018-06-26T10:43:41Z</time>
      </trkpt>
      <trkpt lat="45.95644" lon="4.75785">
        <ele>186</ele>
        <time>2018-06-26T10:43:42Z</time>
      </trkpt>
      <trkpt lat="45.95643" lon="4.75778">
        <ele>186</ele>
        <time>2018-06-26T10:43:43Z</time>
      </trkpt>
      <trkpt lat="45.95642" lon="4.75772">
        <ele>186</ele>
        <time>2018-06-26T10:43:44Z</time>
      </trkpt>
      <trkpt lat="45.9564" lon="4.75764">
        <ele>186</ele>
        <time>2018-06-26T10:43:45Z</time>
      </trkpt>
      <trkpt lat="45.95639" lon="4.75756">
        <ele>186</ele>
        <time>2018-06-26T10:43:46Z</time>
      </trkpt>
      <trkpt lat="45.9564" lon="4.75748">
        <ele>187</ele>
        <time>2018-06-26T10:43:47Z</time>
      </trkpt>
      <trkpt lat="45.95639" lon="4.7574">
        <ele>187</ele>
        <time>2018-06-26T10:43:48Z</time>
      </trkpt>
      <trkpt lat="45.95638" lon="4.75732">
        <ele>187</ele>
        <time>2018-06-26T10:43:49Z</time>
      </trkpt>
      <trkpt lat="45.95638" lon="4.75723">
        <ele>187</ele>
        <time>2018-06-26T10:43:50Z</time>
      </trkpt>
      <trkpt lat="45.95637" lon="4.75713">
        <ele>187</ele>
        <time>2018-06-26T10:43:51Z</time>
      </trkpt>
      <trkpt lat="45.95635" lon="4.75704">
        <ele>187</ele>
        <time>2018-06-26T10:43:52Z</time>
      </trkpt>
      <trkpt lat="45.95635" lon="4.75697">
        <ele>187</ele>
        <time>2018-06-26T10:43:53Z</time>
      </trkpt>
      <trkpt lat="45.95632" lon="4.75689">
        <ele>187</ele>
        <time>2018-06-26T10:43:54Z</time>
      </trkpt>
      <trkpt lat="45.95629" lon="4.75682">
        <ele>187</ele>
        <time>2018-06-26T10:43:55Z</time>
      </trkpt>
      <trkpt lat="45.95627" lon="4.75674">
        <ele>187</ele>
        <time>2018-06-26T10:43:56Z</time>
      </trkpt>
      <trkpt lat="45.95627" lon="4.75667">
        <ele>187</ele>
        <time>2018-06-26T10:43:57Z</time>
      </trkpt>
      <trkpt lat="45.95626" lon="4.75661">
        <ele>188</ele>
        <time>2018-06-26T10:43:58Z</time>
      </trkpt>
      <trkpt lat="45.95623" lon="4.75648">
        <ele>188</ele>
        <time>2018-06-26T10:44:00Z</time>
      </trkpt>
      <trkpt lat="45.95621" lon="4.75642">
        <ele>188</ele>
        <time>2018-06-26T10:44:01Z</time>
      </trkpt>
      <trkpt lat="45.95618" lon="4.75635">
        <ele>188</ele>
        <time>2018-06-26T10:44:02Z</time>
      </trkpt>
      <trkpt lat="45.95616" lon="4.75628">
        <ele>188</ele>
        <time>2018-06-26T10:44:03Z</time>
      </trkpt>
      <trkpt lat="45.95614" lon="4.75622">
        <ele>188</ele>
        <time>2018-06-26T10:44:04Z</time>
      </trkpt>
      <trkpt lat="45.95612" lon="4.75617">
        <ele>188</ele>
        <time>2018-06-26T10:44:05Z</time>
      </trkpt>
      <trkpt lat="45.9561" lon="4.75611">
        <ele>188</ele>
        <time>2018-06-26T10:44:06Z</time>
      </trkpt>
      <trkpt lat="45.95608" lon="4.75605">
        <ele>187</ele>
        <time>2018-06-26T10:44:07Z</time>
      </trkpt>
      <trkpt lat="45.95604" lon="4.75599">
        <ele>187</ele>
        <time>2018-06-26T10:44:08Z</time>
      </trkpt>
      <trkpt lat="45.95602" lon="4.75592">
        <ele>187</ele>
        <time>2018-06-26T10:44:09Z</time>
      </trkpt>
      <trkpt lat="45.95599" lon="4.75586">
        <ele>187</ele>
        <time>2018-06-26T10:44:10Z</time>
      </trkpt>
      <trkpt lat="45.95597" lon="4.75579">
        <ele>187</ele>
        <time>2018-06-26T10:44:11Z</time>
      </trkpt>
      <trkpt lat="45.95594" lon="4.75572">
        <ele>188</ele>
        <time>2018-06-26T10:44:12Z</time>
      </trkpt>
      <trkpt lat="45.9559" lon="4.75566">
        <ele>188</ele>
        <time>2018-06-26T10:44:13Z</time>
      </trkpt>
      <trkpt lat="45.95586" lon="4.7556">
        <ele>188</ele>
        <time>2018-06-26T10:44:14Z</time>
      </trkpt>
      <trkpt lat="45.95583" lon="4.75554">
        <ele>186</ele>
        <time>2018-06-26T10:44:15Z</time>
      </trkpt>
      <trkpt lat="45.95579" lon="4.75548">
        <ele>186</ele>
        <time>2018-06-26T10:44:16Z</time>
      </trkpt>
      <trkpt lat="45.95575" lon="4.75542">
        <ele>186</ele>
        <time>2018-06-26T10:44:17Z</time>
      </trkpt>
      <trkpt lat="45.95571" lon="4.75538">
        <ele>186</ele>
        <time>2018-06-26T10:44:18Z</time>
      </trkpt>
      <trkpt lat="45.95566" lon="4.75533">
        <ele>186</ele>
        <time>2018-06-26T10:44:19Z</time>
      </trkpt>
      <trkpt lat="45.95562" lon="4.7553">
        <ele>186</ele>
        <time>2018-06-26T10:44:20Z</time>
      </trkpt>
      <trkpt lat="45.95557" lon="4.75525">
        <ele>186</ele>
        <time>2018-06-26T10:44:21Z</time>
      </trkpt>
      <trkpt lat="45.95553" lon="4.75518">
        <ele>186</ele>
        <time>2018-06-26T10:44:22Z</time>
      </trkpt>
      <trkpt lat="45.95549" lon="4.75512">
        <ele>186</ele>
        <time>2018-06-26T10:44:23Z</time>
      </trkpt>
      <trkpt lat="45.95545" lon="4.75502">
        <ele>186</ele>
        <time>2018-06-26T10:44:25Z</time>
      </trkpt>
      <trkpt lat="45.95543" lon="4.75494">
        <ele>187</ele>
        <time>2018-06-26T10:44:26Z</time>
      </trkpt>
      <trkpt lat="45.95543" lon="4.75487">
        <ele>187</ele>
        <time>2018-06-26T10:44:27Z</time>
      </trkpt>
      <trkpt lat="45.95542" lon="4.75479">
        <ele>187</ele>
        <time>2018-06-26T10:44:28Z</time>
      </trkpt>
      <trkpt lat="45.95542" lon="4.75472">
        <ele>187</ele>
        <time>2018-06-26T10:44:29Z</time>
      </trkpt>
      <trkpt lat="45.95542" lon="4.75463">
        <ele>187</ele>
        <time>2018-06-26T10:44:30Z</time>
      </trkpt>
      <trkpt lat="45.95539" lon="4.75456">
        <ele>187</ele>
        <time>2018-06-26T10:44:31Z</time>
      </trkpt>
      <trkpt lat="45.95536" lon="4.75451">
        <ele>187</ele>
        <time>2018-06-26T10:44:32Z</time>
      </trkpt>
      <trkpt lat="45.95531" lon="4.75445">
        <ele>187</ele>
        <time>2018-06-26T10:44:33Z</time>
      </trkpt>
      <trkpt lat="45.95527" lon="4.75439">
        <ele>187</ele>
        <time>2018-06-26T10:44:34Z</time>
      </trkpt>
      <trkpt lat="45.95523" lon="4.75435">
        <ele>187</ele>
        <time>2018-06-26T10:44:35Z</time>
      </trkpt>
      <trkpt lat="45.95518" lon="4.75429">
        <ele>187</ele>
        <time>2018-06-26T10:44:36Z</time>
      </trkpt>
      <trkpt lat="45.95519" lon="4.7542">
        <ele>187</ele>
        <time>2018-06-26T10:44:37Z</time>
      </trkpt>
      <trkpt lat="45.95515" lon="4.75412">
        <ele>187</ele>
        <time>2018-06-26T10:44:38Z</time>
      </trkpt>
      <trkpt lat="45.95513" lon="4.75399">
        <ele>188</ele>
        <time>2018-06-26T10:44:40Z</time>
      </trkpt>
      <trkpt lat="45.9551" lon="4.75392">
        <ele>188</ele>
        <time>2018-06-26T10:44:41Z</time>
      </trkpt>
      <trkpt lat="45.95507" lon="4.75386">
        <ele>188</ele>
        <time>2018-06-26T10:44:42Z</time>
      </trkpt>
      <trkpt lat="45.95506" lon="4.7538">
        <ele>188</ele>
        <time>2018-06-26T10:44:43Z</time>
      </trkpt>
      <trkpt lat="45.95504" lon="4.75374">
        <ele>189</ele>
        <time>2018-06-26T10:44:44Z</time>
      </trkpt>
      <trkpt lat="45.95497" lon="4.75366">
        <ele>186</ele>
        <time>2018-06-26T10:44:45Z</time>
      </trkpt>
      <trkpt lat="45.95493" lon="4.7536">
        <ele>186</ele>
        <time>2018-06-26T10:44:46Z</time>
      </trkpt>
      <trkpt lat="45.95492" lon="4.75353">
        <ele>186</ele>
        <time>2018-06-26T10:44:47Z</time>
      </trkpt>
      <trkpt lat="45.95489" lon="4.75346">
        <ele>187</ele>
        <time>2018-06-26T10:44:48Z</time>
      </trkpt>
      <trkpt lat="45.95485" lon="4.7534">
        <ele>187</ele>
        <time>2018-06-26T10:44:49Z</time>
      </trkpt>
      <trkpt lat="45.95482" lon="4.75334">
        <ele>187</ele>
        <time>2018-06-26T10:44:50Z</time>
      </trkpt>
      <trkpt lat="45.9548" lon="4.75328">
        <ele>188</ele>
        <time>2018-06-26T10:44:51Z</time>
      </trkpt>
      <trkpt lat="45.95475" lon="4.75323">
        <ele>188</ele>
        <time>2018-06-26T10:44:52Z</time>
      </trkpt>
      <trkpt lat="45.9547" lon="4.75318">
        <ele>188</ele>
        <time>2018-06-26T10:44:53Z</time>
      </trkpt>
      <trkpt lat="45.95467" lon="4.75311">
        <ele>188</ele>
        <time>2018-06-26T10:44:54Z</time>
      </trkpt>
      <trkpt lat="45.95464" lon="4.75305">
        <ele>188</ele>
        <time>2018-06-26T10:44:55Z</time>
      </trkpt>
      <trkpt lat="45.95463" lon="4.753">
        <ele>188</ele>
        <time>2018-06-26T10:44:56Z</time>
      </trkpt>
      <trkpt lat="45.9546" lon="4.75294">
        <ele>188</ele>
        <time>2018-06-26T10:44:57Z</time>
      </trkpt>
      <trkpt lat="45.95456" lon="4.75288">
        <ele>189</ele>
        <time>2018-06-26T10:44:58Z</time>
      </trkpt>
      <trkpt lat="45.9545" lon="4.75281">
        <ele>189</ele>
        <time>2018-06-26T10:44:59Z</time>
      </trkpt>
      <trkpt lat="45.95447" lon="4.75275">
        <ele>189</ele>
        <time>2018-06-26T10:45:00Z</time>
      </trkpt>
      <trkpt lat="45.95445" lon="4.7527">
        <ele>189</ele>
        <time>2018-06-26T10:45:01Z</time>
      </trkpt>
      <trkpt lat="45.95444" lon="4.75264">
        <ele>189</ele>
        <time>2018-06-26T10:45:02Z</time>
      </trkpt>
      <trkpt lat="45.9544" lon="4.75258">
        <ele>189</ele>
        <time>2018-06-26T10:45:03Z</time>
      </trkpt>
      <trkpt lat="45.95438" lon="4.75253">
        <ele>189</ele>
        <time>2018-06-26T10:45:04Z</time>
      </trkpt>
      <trkpt lat="45.95433" lon="4.75246">
        <ele>190</ele>
        <time>2018-06-26T10:45:05Z</time>
      </trkpt>
      <trkpt lat="45.9543" lon="4.7524">
        <ele>190</ele>
        <time>2018-06-26T10:45:06Z</time>
      </trkpt>
      <trkpt lat="45.95428" lon="4.75234">
        <ele>190</ele>
        <time>2018-06-26T10:45:07Z</time>
      </trkpt>
      <trkpt lat="45.95424" lon="4.75228">
        <ele>191</ele>
        <time>2018-06-26T10:45:08Z</time>
      </trkpt>
      <trkpt lat="45.95422" lon="4.75221">
        <ele>191</ele>
        <time>2018-06-26T10:45:09Z</time>
      </trkpt>
      <trkpt lat="45.95418" lon="4.75215">
        <ele>191</ele>
        <time>2018-06-26T10:45:10Z</time>
      </trkpt>
      <trkpt lat="45.95415" lon="4.75209">
        <ele>189</ele>
        <time>2018-06-26T10:45:11Z</time>
      </trkpt>
      <trkpt lat="45.95411" lon="4.75203">
        <ele>189</ele>
        <time>2018-06-26T10:45:12Z</time>
      </trkpt>
      <trkpt lat="45.95408" lon="4.75197">
        <ele>189</ele>
        <time>2018-06-26T10:45:13Z</time>
      </trkpt>
      <trkpt lat="45.95403" lon="4.7519">
        <ele>189</ele>
        <time>2018-06-26T10:45:14Z</time>
      </trkpt>
      <trkpt lat="45.95399" lon="4.75184">
        <ele>189</ele>
        <time>2018-06-26T10:45:15Z</time>
      </trkpt>
      <trkpt lat="45.95395" lon="4.75178">
        <ele>189</ele>
        <time>2018-06-26T10:45:16Z</time>
      </trkpt>
      <trkpt lat="45.95392" lon="4.75173">
        <ele>189</ele>
        <time>2018-06-26T10:45:17Z</time>
      </trkpt>
      <trkpt lat="45.95388" lon="4.75167">
        <ele>189</ele>
        <time>2018-06-26T10:45:18Z</time>
      </trkpt>
      <trkpt lat="45.95384" lon="4.75161">
        <ele>191</ele>
        <time>2018-06-26T10:45:19Z</time>
      </trkpt>
      <trkpt lat="45.95382" lon="4.75155">
        <ele>191</ele>
        <time>2018-06-26T10:45:20Z</time>
      </trkpt>
      <trkpt lat="45.9538" lon="4.75149">
        <ele>191</ele>
        <time>2018-06-26T10:45:21Z</time>
      </trkpt>
      <trkpt lat="45.95377" lon="4.75142">
        <ele>191</ele>
        <time>2018-06-26T10:45:22Z</time>
      </trkpt>
      <trkpt lat="45.95373" lon="4.75137">
        <ele>191</ele>
        <time>2018-06-26T10:45:23Z</time>
      </trkpt>
      <trkpt lat="45.95368" lon="4.75131">
        <ele>191</ele>
        <time>2018-06-26T10:45:24Z</time>
      </trkpt>
      <trkpt lat="45.95365" lon="4.75125">
        <ele>191</ele>
        <time>2018-06-26T10:45:25Z</time>
      </trkpt>
      <trkpt lat="45.95361" lon="4.75119">
        <ele>192</ele>
        <time>2018-06-26T10:45:26Z</time>
      </trkpt>
      <trkpt lat="45.95357" lon="4.75114">
        <ele>192</ele>
        <time>2018-06-26T10:45:27Z</time>
      </trkpt>
      <trkpt lat="45.95353" lon="4.75108">
        <ele>192</ele>
        <time>2018-06-26T10:45:28Z</time>
      </trkpt>
      <trkpt lat="45.95349" lon="4.75102">
        <ele>192</ele>
        <time>2018-06-26T10:45:29Z</time>
      </trkpt>
      <trkpt lat="45.95344" lon="4.75095">
        <ele>192</ele>
        <time>2018-06-26T10:45:30Z</time>
      </trkpt>
      <trkpt lat="45.95342" lon="4.75089">
        <ele>192</ele>
        <time>2018-06-26T10:45:31Z</time>
      </trkpt>
      <trkpt lat="45.95338" lon="4.75083">
        <ele>193</ele>
        <time>2018-06-26T10:45:32Z</time>
      </trkpt>
      <trkpt lat="45.95334" lon="4.75077">
        <ele>193</ele>
        <time>2018-06-26T10:45:33Z</time>
      </trkpt>
      <trkpt lat="45.9533" lon="4.7507">
        <ele>192</ele>
        <time>2018-06-26T10:45:34Z</time>
      </trkpt>
      <trkpt lat="45.95326" lon="4.75063">
        <ele>192</ele>
        <time>2018-06-26T10:45:35Z</time>
      </trkpt>
      <trkpt lat="45.95322" lon="4.75059">
        <ele>192</ele>
        <time>2018-06-26T10:45:36Z</time>
      </trkpt>
      <trkpt lat="45.95319" lon="4.75053">
        <ele>192</ele>
        <time>2018-06-26T10:45:37Z</time>
      </trkpt>
      <trkpt lat="45.95316" lon="4.75048">
        <ele>192</ele>
        <time>2018-06-26T10:45:38Z</time>
      </trkpt>
      <trkpt lat="45.95312" lon="4.75045">
        <ele>192</ele>
        <time>2018-06-26T10:45:39Z</time>
      </trkpt>
      <trkpt lat="45.95307" lon="4.7504">
        <ele>192</ele>
        <time>2018-06-26T10:45:40Z</time>
      </trkpt>
      <trkpt lat="45.95304" lon="4.75034">
        <ele>192</ele>
        <time>2018-06-26T10:45:41Z</time>
      </trkpt>
      <trkpt lat="45.95301" lon="4.75029">
        <ele>192</ele>
        <time>2018-06-26T10:45:42Z</time>
      </trkpt>
      <trkpt lat="45.95297" lon="4.75023">
        <ele>192</ele>
        <time>2018-06-26T10:45:43Z</time>
      </trkpt>
      <trkpt lat="45.95292" lon="4.75013">
        <ele>191</ele>
        <time>2018-06-26T10:45:45Z</time>
      </trkpt>
      <trkpt lat="45.95289" lon="4.75008">
        <ele>191</ele>
        <time>2018-06-26T10:45:46Z</time>
      </trkpt>
      <trkpt lat="45.95283" lon="4.75002">
        <ele>191</ele>
        <time>2018-06-26T10:45:47Z</time>
      </trkpt>
      <trkpt lat="45.95279" lon="4.74996">
        <ele>192</ele>
        <time>2018-06-26T10:45:48Z</time>
      </trkpt>
      <trkpt lat="45.95275" lon="4.74991">
        <ele>192</ele>
        <time>2018-06-26T10:45:49Z</time>
      </trkpt>
      <trkpt lat="45.95271" lon="4.74985">
        <ele>192</ele>
        <time>2018-06-26T10:45:50Z</time>
      </trkpt>
      <trkpt lat="45.95267" lon="4.74978">
        <ele>192</ele>
        <time>2018-06-26T10:45:51Z</time>
      </trkpt>
      <trkpt lat="45.95264" lon="4.74974">
        <ele>192</ele>
        <time>2018-06-26T10:45:52Z</time>
      </trkpt>
      <trkpt lat="45.95261" lon="4.74968">
        <ele>192</ele>
        <time>2018-06-26T10:45:53Z</time>
      </trkpt>
      <trkpt lat="45.95257" lon="4.74963">
        <ele>192</ele>
        <time>2018-06-26T10:45:54Z</time>
      </trkpt>
      <trkpt lat="45.95253" lon="4.74957">
        <ele>192</ele>
        <time>2018-06-26T10:45:55Z</time>
      </trkpt>
      <trkpt lat="45.9525" lon="4.74951">
        <ele>192</ele>
        <time>2018-06-26T10:45:56Z</time>
      </trkpt>
      <trkpt lat="45.95247" lon="4.74945">
        <ele>192</ele>
        <time>2018-06-26T10:45:57Z</time>
      </trkpt>
      <trkpt lat="45.95243" lon="4.74939">
        <ele>192</ele>
        <time>2018-06-26T10:45:58Z</time>
      </trkpt>
      <trkpt lat="45.9524" lon="4.74934">
        <ele>192</ele>
        <time>2018-06-26T10:45:59Z</time>
      </trkpt>
      <trkpt lat="45.95238" lon="4.74927">
        <ele>192</ele>
        <time>2018-06-26T10:46:00Z</time>
      </trkpt>
      <trkpt lat="45.95234" lon="4.74922">
        <ele>192</ele>
        <time>2018-06-26T10:46:01Z</time>
      </trkpt>
      <trkpt lat="45.95231" lon="4.74915">
        <ele>193</ele>
        <time>2018-06-26T10:46:02Z</time>
      </trkpt>
      <trkpt lat="45.95227" lon="4.7491">
        <ele>193</ele>
        <time>2018-06-26T10:46:03Z</time>
      </trkpt>
      <trkpt lat="45.95223" lon="4.74903">
        <ele>193</ele>
        <time>2018-06-26T10:46:04Z</time>
      </trkpt>
      <trkpt lat="45.95219" lon="4.74898">
        <ele>193</ele>
        <time>2018-06-26T10:46:05Z</time>
      </trkpt>
      <trkpt lat="45.95216" lon="4.74892">
        <ele>193</ele>
        <time>2018-06-26T10:46:06Z</time>
      </trkpt>
      <trkpt lat="45.95212" lon="4.74887">
        <ele>193</ele>
        <time>2018-06-26T10:46:07Z</time>
      </trkpt>
      <trkpt lat="45.95209" lon="4.74881">
        <ele>193</ele>
        <time>2018-06-26T10:46:08Z</time>
      </trkpt>
      <trkpt lat="45.95205" lon="4.74877">
        <ele>194</ele>
        <time>2018-06-26T10:46:09Z</time>
      </trkpt>
      <trkpt lat="45.95202" lon="4.74871">
        <ele>194</ele>
        <time>2018-06-26T10:46:10Z</time>
      </trkpt>
      <trkpt lat="45.95198" lon="4.74865">
        <ele>194</ele>
        <time>2018-06-26T10:46:11Z</time>
      </trkpt>
      <trkpt lat="45.95195" lon="4.74859">
        <ele>194</ele>
        <time>2018-06-26T10:46:12Z</time>
      </trkpt>
      <trkpt lat="45.95192" lon="4.74853">
        <ele>194</ele>
        <time>2018-06-26T10:46:13Z</time>
      </trkpt>
      <trkpt lat="45.95188" lon="4.74846">
        <ele>194</ele>
        <time>2018-06-26T10:46:14Z</time>
      </trkpt>
      <trkpt lat="45.95183" lon="4.74842">
        <ele>194</ele>
        <time>2018-06-26T10:46:15Z</time>
      </trkpt>
      <trkpt lat="45.9518" lon="4.74836">
        <ele>194</ele>
        <time>2018-06-26T10:46:16Z</time>
      </trkpt>
      <trkpt lat="45.95175" lon="4.7483">
        <ele>194</ele>
        <time>2018-06-26T10:46:17Z</time>
      </trkpt>
      <trkpt lat="45.95172" lon="4.74823">
        <ele>194</ele>
        <time>2018-06-26T10:46:18Z</time>
      </trkpt>
      <trkpt lat="45.95168" lon="4.74817">
        <ele>194</ele>
        <time>2018-06-26T10:46:19Z</time>
      </trkpt>
      <trkpt lat="45.95165" lon="4.74811">
        <ele>194</ele>
        <time>2018-06-26T10:46:20Z</time>
      </trkpt>
      <trkpt lat="45.95161" lon="4.74804">
        <ele>194</ele>
        <time>2018-06-26T10:46:21Z</time>
      </trkpt>
      <trkpt lat="45.95156" lon="4.74798">
        <ele>194</ele>
        <time>2018-06-26T10:46:22Z</time>
      </trkpt>
      <trkpt lat="45.9515" lon="4.7479">
        <ele>194</ele>
        <time>2018-06-26T10:46:23Z</time>
      </trkpt>
      <trkpt lat="45.95147" lon="4.74784">
        <ele>194</ele>
        <time>2018-06-26T10:46:24Z</time>
      </trkpt>
      <trkpt lat="45.95141" lon="4.74778">
        <ele>194</ele>
        <time>2018-06-26T10:46:25Z</time>
      </trkpt>
      <trkpt lat="45.95137" lon="4.74773">
        <ele>194</ele>
        <time>2018-06-26T10:46:26Z</time>
      </trkpt>
      <trkpt lat="45.95133" lon="4.74766">
        <ele>194</ele>
        <time>2018-06-26T10:46:27Z</time>
      </trkpt>
      <trkpt lat="45.9513" lon="4.7476">
        <ele>194</ele>
        <time>2018-06-26T10:46:28Z</time>
      </trkpt>
      <trkpt lat="45.95126" lon="4.74753">
        <ele>194</ele>
        <time>2018-06-26T10:46:29Z</time>
      </trkpt>
      <trkpt lat="45.95122" lon="4.74747">
        <ele>194</ele>
        <time>2018-06-26T10:46:30Z</time>
      </trkpt>
      <trkpt lat="45.95118" lon="4.7474">
        <ele>194</ele>
        <time>2018-06-26T10:46:31Z</time>
      </trkpt>
      <trkpt lat="45.95115" lon="4.74733">
        <ele>194</ele>
        <time>2018-06-26T10:46:32Z</time>
      </trkpt>
      <trkpt lat="45.95111" lon="4.74727">
        <ele>194</ele>
        <time>2018-06-26T10:46:33Z</time>
      </trkpt>
      <trkpt lat="45.95108" lon="4.74719">
        <ele>194</ele>
        <time>2018-06-26T10:46:34Z</time>
      </trkpt>
      <trkpt lat="45.95103" lon="4.74713">
        <ele>194</ele>
        <time>2018-06-26T10:46:35Z</time>
      </trkpt>
      <trkpt lat="45.951" lon="4.74706">
        <ele>194</ele>
        <time>2018-06-26T10:46:36Z</time>
      </trkpt>
      <trkpt lat="45.95096" lon="4.74701">
        <ele>194</ele>
        <time>2018-06-26T10:46:37Z</time>
      </trkpt>
      <trkpt lat="45.95093" lon="4.74696">
        <ele>194</ele>
        <time>2018-06-26T10:46:38Z</time>
      </trkpt>
      <trkpt lat="45.9509" lon="4.7469">
        <ele>195</ele>
        <time>2018-06-26T10:46:39Z</time>
      </trkpt>
      <trkpt lat="45.95088" lon="4.74684">
        <ele>195</ele>
        <time>2018-06-26T10:46:40Z</time>
      </trkpt>
      <trkpt lat="45.95085" lon="4.74678">
        <ele>195</ele>
        <time>2018-06-26T10:46:41Z</time>
      </trkpt>
      <trkpt lat="45.95082" lon="4.74672">
        <ele>195</ele>
        <time>2018-06-26T10:46:42Z</time>
      </trkpt>
      <trkpt lat="45.95077" lon="4.74662">
        <ele>195</ele>
        <time>2018-06-26T10:46:44Z</time>
      </trkpt>
      <trkpt lat="45.95074" lon="4.74656">
        <ele>195</ele>
        <time>2018-06-26T10:46:45Z</time>
      </trkpt>
      <trkpt lat="45.95069" lon="4.74647">
        <ele>195</ele>
        <time>2018-06-26T10:46:46Z</time>
      </trkpt>
      <trkpt lat="45.95066" lon="4.74641">
        <ele>195</ele>
        <time>2018-06-26T10:46:47Z</time>
      </trkpt>
      <trkpt lat="45.95062" lon="4.74635">
        <ele>194</ele>
        <time>2018-06-26T10:46:48Z</time>
      </trkpt>
      <trkpt lat="45.95057" lon="4.74629">
        <ele>194</ele>
        <time>2018-06-26T10:46:49Z</time>
      </trkpt>
      <trkpt lat="45.95052" lon="4.74621">
        <ele>194</ele>
        <time>2018-06-26T10:46:50Z</time>
      </trkpt>
      <trkpt lat="45.95048" lon="4.74615">
        <ele>194</ele>
        <time>2018-06-26T10:46:51Z</time>
      </trkpt>
      <trkpt lat="45.95044" lon="4.74608">
        <ele>194</ele>
        <time>2018-06-26T10:46:52Z</time>
      </trkpt>
      <trkpt lat="45.95041" lon="4.74602">
        <ele>194</ele>
        <time>2018-06-26T10:46:53Z</time>
      </trkpt>
      <trkpt lat="45.95036" lon="4.74595">
        <ele>194</ele>
        <time>2018-06-26T10:46:54Z</time>
      </trkpt>
      <trkpt lat="45.95033" lon="4.74589">
        <ele>194</ele>
        <time>2018-06-26T10:46:55Z</time>
      </trkpt>
      <trkpt lat="45.95029" lon="4.74582">
        <ele>194</ele>
        <time>2018-06-26T10:46:56Z</time>
      </trkpt>
      <trkpt lat="45.95025" lon="4.74574">
        <ele>194</ele>
        <time>2018-06-26T10:46:57Z</time>
      </trkpt>
      <trkpt lat="45.95021" lon="4.74567">
        <ele>194</ele>
        <time>2018-06-26T10:46:58Z</time>
      </trkpt>
      <trkpt lat="45.95018" lon="4.74559">
        <ele>194</ele>
        <time>2018-06-26T10:46:59Z</time>
      </trkpt>
      <trkpt lat="45.95015" lon="4.74552">
        <ele>194</ele>
        <time>2018-06-26T10:47:00Z</time>
      </trkpt>
      <trkpt lat="45.95011" lon="4.74546">
        <ele>194</ele>
        <time>2018-06-26T10:47:01Z</time>
      </trkpt>
      <trkpt lat="45.95007" lon="4.74539">
        <ele>194</ele>
        <time>2018-06-26T10:47:02Z</time>
      </trkpt>
      <trkpt lat="45.95003" lon="4.74532">
        <ele>194</ele>
        <time>2018-06-26T10:47:03Z</time>
      </trkpt>
      <trkpt lat="45.94998" lon="4.74527">
        <ele>193</ele>
        <time>2018-06-26T10:47:04Z</time>
      </trkpt>
      <trkpt lat="45.94995" lon="4.74519">
        <ele>193</ele>
        <time>2018-06-26T10:47:05Z</time>
      </trkpt>
      <trkpt lat="45.9499" lon="4.74514">
        <ele>193</ele>
        <time>2018-06-26T10:47:06Z</time>
      </trkpt>
      <trkpt lat="45.94988" lon="4.74509">
        <ele>193</ele>
        <time>2018-06-26T10:47:07Z</time>
      </trkpt>
      <trkpt lat="45.94984" lon="4.745">
        <ele>193</ele>
        <time>2018-06-26T10:47:08Z</time>
      </trkpt>
      <trkpt lat="45.9498" lon="4.74493">
        <ele>193</ele>
        <time>2018-06-26T10:47:09Z</time>
      </trkpt>
      <trkpt lat="45.94976" lon="4.74486">
        <ele>193</ele>
        <time>2018-06-26T10:47:10Z</time>
      </trkpt>
      <trkpt lat="45.94971" lon="4.74479">
        <ele>193</ele>
        <time>2018-06-26T10:47:11Z</time>
      </trkpt>
      <trkpt lat="45.94966" lon="4.74471">
        <ele>193</ele>
        <time>2018-06-26T10:47:12Z</time>
      </trkpt>
      <trkpt lat="45.94962" lon="4.74463">
        <ele>193</ele>
        <time>2018-06-26T10:47:13Z</time>
      </trkpt>
      <trkpt lat="45.94958" lon="4.74454">
        <ele>192</ele>
        <time>2018-06-26T10:47:14Z</time>
      </trkpt>
      <trkpt lat="45.94954" lon="4.74447">
        <ele>192</ele>
        <time>2018-06-26T10:47:15Z</time>
      </trkpt>
      <trkpt lat="45.9495" lon="4.74439">
        <ele>192</ele>
        <time>2018-06-26T10:47:16Z</time>
      </trkpt>
      <trkpt lat="45.94945" lon="4.74431">
        <ele>192</ele>
        <time>2018-06-26T10:47:17Z</time>
      </trkpt>
      <trkpt lat="45.94942" lon="4.74423">
        <ele>192</ele>
        <time>2018-06-26T10:47:18Z</time>
      </trkpt>
      <trkpt lat="45.94938" lon="4.74416">
        <ele>192</ele>
        <time>2018-06-26T10:47:19Z</time>
      </trkpt>
      <trkpt lat="45.94934" lon="4.74408">
        <ele>192</ele>
        <time>2018-06-26T10:47:20Z</time>
      </trkpt>
      <trkpt lat="45.94929" lon="4.744">
        <ele>192</ele>
        <time>2018-06-26T10:47:21Z</time>
      </trkpt>
      <trkpt lat="45.94924" lon="4.74393">
        <ele>192</ele>
        <time>2018-06-26T10:47:22Z</time>
      </trkpt>
      <trkpt lat="45.94921" lon="4.74385">
        <ele>192</ele>
        <time>2018-06-26T10:47:23Z</time>
      </trkpt>
      <trkpt lat="45.94919" lon="4.74378">
        <ele>192</ele>
        <time>2018-06-26T10:47:24Z</time>
      </trkpt>
      <trkpt lat="45.94915" lon="4.7437">
        <ele>191</ele>
        <time>2018-06-26T10:47:25Z</time>
      </trkpt>
      <trkpt lat="45.94912" lon="4.74362">
        <ele>191</ele>
        <time>2018-06-26T10:47:26Z</time>
      </trkpt>
      <trkpt lat="45.94908" lon="4.74355">
        <ele>191</ele>
        <time>2018-06-26T10:47:27Z</time>
      </trkpt>
      <trkpt lat="45.94906" lon="4.74347">
        <ele>191</ele>
        <time>2018-06-26T10:47:28Z</time>
      </trkpt>
      <trkpt lat="45.94903" lon="4.74339">
        <ele>191</ele>
        <time>2018-06-26T10:47:29Z</time>
      </trkpt>
      <trkpt lat="45.94899" lon="4.74332">
        <ele>191</ele>
        <time>2018-06-26T10:47:30Z</time>
      </trkpt>
      <trkpt lat="45.94895" lon="4.74324">
        <ele>191</ele>
        <time>2018-06-26T10:47:31Z</time>
      </trkpt>
      <trkpt lat="45.94892" lon="4.74316">
        <ele>191</ele>
        <time>2018-06-26T10:47:32Z</time>
      </trkpt>
      <trkpt lat="45.94888" lon="4.74309">
        <ele>191</ele>
        <time>2018-06-26T10:47:33Z</time>
      </trkpt>
      <trkpt lat="45.94884" lon="4.74302">
        <ele>191</ele>
        <time>2018-06-26T10:47:34Z</time>
      </trkpt>
      <trkpt lat="45.94881" lon="4.74294">
        <ele>191</ele>
        <time>2018-06-26T10:47:35Z</time>
      </trkpt>
      <trkpt lat="45.94878" lon="4.74286">
        <ele>191</ele>
        <time>2018-06-26T10:47:36Z</time>
      </trkpt>
      <trkpt lat="45.94873" lon="4.74278">
        <ele>191</ele>
        <time>2018-06-26T10:47:37Z</time>
      </trkpt>
      <trkpt lat="45.94869" lon="4.7427">
        <ele>191</ele>
        <time>2018-06-26T10:47:38Z</time>
      </trkpt>
      <trkpt lat="45.94864" lon="4.74262">
        <ele>190</ele>
        <time>2018-06-26T10:47:39Z</time>
      </trkpt>
      <trkpt lat="45.94861" lon="4.74255">
        <ele>190</ele>
        <time>2018-06-26T10:47:40Z</time>
      </trkpt>
      <trkpt lat="45.94856" lon="4.74247">
        <ele>190</ele>
        <time>2018-06-26T10:47:41Z</time>
      </trkpt>
      <trkpt lat="45.94851" lon="4.74239">
        <ele>190</ele>
        <time>2018-06-26T10:47:42Z</time>
      </trkpt>
      <trkpt lat="45.94848" lon="4.74232">
        <ele>190</ele>
        <time>2018-06-26T10:47:43Z</time>
      </trkpt>
      <trkpt lat="45.94844" lon="4.74225">
        <ele>190</ele>
        <time>2018-06-26T10:47:44Z</time>
      </trkpt>
      <trkpt lat="45.94839" lon="4.74218">
        <ele>190</ele>
        <time>2018-06-26T10:47:45Z</time>
      </trkpt>
      <trkpt lat="45.94836" lon="4.74211">
        <ele>190</ele>
        <time>2018-06-26T10:47:46Z</time>
      </trkpt>
      <trkpt lat="45.94833" lon="4.74204">
        <ele>189</ele>
        <time>2018-06-26T10:47:47Z</time>
      </trkpt>
      <trkpt lat="45.94829" lon="4.74196">
        <ele>189</ele>
        <time>2018-06-26T10:47:48Z</time>
      </trkpt>
      <trkpt lat="45.94827" lon="4.74189">
        <ele>189</ele>
        <time>2018-06-26T10:47:49Z</time>
      </trkpt>
      <trkpt lat="45.94823" lon="4.74182">
        <ele>189</ele>
        <time>2018-06-26T10:47:50Z</time>
      </trkpt>
      <trkpt lat="45.94819" lon="4.74176">
        <ele>189</ele>
        <time>2018-06-26T10:47:51Z</time>
      </trkpt>
      <trkpt lat="45.94815" lon="4.7417">
        <ele>189</ele>
        <time>2018-06-26T10:47:52Z</time>
      </trkpt>
      <trkpt lat="45.9481" lon="4.74161">
        <ele>189</ele>
        <time>2018-06-26T10:47:53Z</time>
      </trkpt>
      <trkpt lat="45.94805" lon="4.74154">
        <ele>189</ele>
        <time>2018-06-26T10:47:54Z</time>
      </trkpt>
      <trkpt lat="45.94801" lon="4.74147">
        <ele>189</ele>
        <time>2018-06-26T10:47:55Z</time>
      </trkpt>
      <trkpt lat="45.94797" lon="4.7414">
        <ele>189</ele>
        <time>2018-06-26T10:47:56Z</time>
      </trkpt>
      <trkpt lat="45.94794" lon="4.74133">
        <ele>189</ele>
        <time>2018-06-26T10:47:57Z</time>
      </trkpt>
      <trkpt lat="45.94789" lon="4.74125">
        <ele>189</ele>
        <time>2018-06-26T10:47:58Z</time>
      </trkpt>
      <trkpt lat="45.94785" lon="4.74118">
        <ele>189</ele>
        <time>2018-06-26T10:47:59Z</time>
      </trkpt>
      <trkpt lat="45.9478" lon="4.74112">
        <ele>189</ele>
        <time>2018-06-26T10:48:00Z</time>
      </trkpt>
      <trkpt lat="45.94776" lon="4.74104">
        <ele>189</ele>
        <time>2018-06-26T10:48:01Z</time>
      </trkpt>
      <trkpt lat="45.94771" lon="4.74099">
        <ele>189</ele>
        <time>2018-06-26T10:48:02Z</time>
      </trkpt>
      <trkpt lat="45.94767" lon="4.74093">
        <ele>189</ele>
        <time>2018-06-26T10:48:03Z</time>
      </trkpt>
      <trkpt lat="45.9476" lon="4.74086">
        <ele>189</ele>
        <time>2018-06-26T10:48:04Z</time>
      </trkpt>
      <trkpt lat="45.94756" lon="4.74081">
        <ele>189</ele>
        <time>2018-06-26T10:48:05Z</time>
      </trkpt>
      <trkpt lat="45.9475" lon="4.74075">
        <ele>188</ele>
        <time>2018-06-26T10:48:06Z</time>
      </trkpt>
      <trkpt lat="45.94746" lon="4.74068">
        <ele>188</ele>
        <time>2018-06-26T10:48:07Z</time>
      </trkpt>
      <trkpt lat="45.94741" lon="4.74063">
        <ele>188</ele>
        <time>2018-06-26T10:48:08Z</time>
      </trkpt>
      <trkpt lat="45.94737" lon="4.74057">
        <ele>188</ele>
        <time>2018-06-26T10:48:09Z</time>
      </trkpt>
      <trkpt lat="45.94732" lon="4.74052">
        <ele>188</ele>
        <time>2018-06-26T10:48:10Z</time>
      </trkpt>
      <trkpt lat="45.9473" lon="4.74048">
        <ele>188</ele>
        <time>2018-06-26T10:48:11Z</time>
      </trkpt>
      <trkpt lat="45.94726" lon="4.74042">
        <ele>188</ele>
        <time>2018-06-26T10:48:12Z</time>
      </trkpt>
      <trkpt lat="45.94723" lon="4.74037">
        <ele>187</ele>
        <time>2018-06-26T10:48:13Z</time>
      </trkpt>
      <trkpt lat="45.94719" lon="4.74032">
        <ele>187</ele>
        <time>2018-06-26T10:48:14Z</time>
      </trkpt>
      <trkpt lat="45.94715" lon="4.74027">
        <ele>187</ele>
        <time>2018-06-26T10:48:15Z</time>
      </trkpt>
      <trkpt lat="45.94711" lon="4.74023">
        <ele>187</ele>
        <time>2018-06-26T10:48:16Z</time>
      </trkpt>
      <trkpt lat="45.94707" lon="4.74018">
        <ele>187</ele>
        <time>2018-06-26T10:48:17Z</time>
      </trkpt>
      <trkpt lat="45.94704" lon="4.74014">
        <ele>187</ele>
        <time>2018-06-26T10:48:18Z</time>
      </trkpt>
      <trkpt lat="45.94701" lon="4.74009">
        <ele>187</ele>
        <time>2018-06-26T10:48:19Z</time>
      </trkpt>
      <trkpt lat="45.94697" lon="4.74004">
        <ele>187</ele>
        <time>2018-06-26T10:48:20Z</time>
      </trkpt>
      <trkpt lat="45.94693" lon="4.73999">
        <ele>187</ele>
        <time>2018-06-26T10:48:21Z</time>
      </trkpt>
      <trkpt lat="45.94689" lon="4.73993">
        <ele>187</ele>
        <time>2018-06-26T10:48:22Z</time>
      </trkpt>
      <trkpt lat="45.94685" lon="4.73987">
        <ele>187</ele>
        <time>2018-06-26T10:48:23Z</time>
      </trkpt>
      <trkpt lat="45.9468" lon="4.7398">
        <ele>187</ele>
        <time>2018-06-26T10:48:24Z</time>
      </trkpt>
      <trkpt lat="45.94675" lon="4.73973">
        <ele>187</ele>
        <time>2018-06-26T10:48:25Z</time>
      </trkpt>
      <trkpt lat="45.9467" lon="4.73966">
        <ele>187</ele>
        <time>2018-06-26T10:48:26Z</time>
      </trkpt>
      <trkpt lat="45.94666" lon="4.7396">
        <ele>187</ele>
        <time>2018-06-26T10:48:27Z</time>
      </trkpt>
      <trkpt lat="45.94661" lon="4.73954">
        <ele>187</ele>
        <time>2018-06-26T10:48:28Z</time>
      </trkpt>
      <trkpt lat="45.94656" lon="4.73948">
        <ele>187</ele>
        <time>2018-06-26T10:48:29Z</time>
      </trkpt>
      <trkpt lat="45.94652" lon="4.73942">
        <ele>187</ele>
        <time>2018-06-26T10:48:30Z</time>
      </trkpt>
      <trkpt lat="45.94647" lon="4.73936">
        <ele>187</ele>
        <time>2018-06-26T10:48:31Z</time>
      </trkpt>
      <trkpt lat="45.94642" lon="4.73932">
        <ele>187</ele>
        <time>2018-06-26T10:48:32Z</time>
      </trkpt>
      <trkpt lat="45.94638" lon="4.73926">
        <ele>187</ele>
        <time>2018-06-26T10:48:33Z</time>
      </trkpt>
      <trkpt lat="45.94634" lon="4.73922">
        <ele>187</ele>
        <time>2018-06-26T10:48:34Z</time>
      </trkpt>
      <trkpt lat="45.94629" lon="4.73915">
        <ele>187</ele>
        <time>2018-06-26T10:48:35Z</time>
      </trkpt>
      <trkpt lat="45.94625" lon="4.73909">
        <ele>187</ele>
        <time>2018-06-26T10:48:36Z</time>
      </trkpt>
      <trkpt lat="45.94621" lon="4.73904">
        <ele>187</ele>
        <time>2018-06-26T10:48:37Z</time>
      </trkpt>
      <trkpt lat="45.94617" lon="4.73899">
        <ele>187</ele>
        <time>2018-06-26T10:48:38Z</time>
      </trkpt>
      <trkpt lat="45.94613" lon="4.73893">
        <ele>187</ele>
        <time>2018-06-26T10:48:39Z</time>
      </trkpt>
      <trkpt lat="45.94606" lon="4.73886">
        <ele>187</ele>
        <time>2018-06-26T10:48:40Z</time>
      </trkpt>
      <trkpt lat="45.94602" lon="4.73881">
        <ele>187</ele>
        <time>2018-06-26T10:48:41Z</time>
      </trkpt>
      <trkpt lat="45.94597" lon="4.73876">
        <ele>187</ele>
        <time>2018-06-26T10:48:42Z</time>
      </trkpt>
      <trkpt lat="45.94592" lon="4.73869">
        <ele>187</ele>
        <time>2018-06-26T10:48:43Z</time>
      </trkpt>
      <trkpt lat="45.94586" lon="4.73863">
        <ele>187</ele>
        <time>2018-06-26T10:48:44Z</time>
      </trkpt>
      <trkpt lat="45.9458" lon="4.73858">
        <ele>186</ele>
        <time>2018-06-26T10:48:45Z</time>
      </trkpt>
      <trkpt lat="45.94575" lon="4.73852">
        <ele>186</ele>
        <time>2018-06-26T10:48:46Z</time>
      </trkpt>
      <trkpt lat="45.94569" lon="4.73845">
        <ele>186</ele>
        <time>2018-06-26T10:48:47Z</time>
      </trkpt>
      <trkpt lat="45.94563" lon="4.73841">
        <ele>186</ele>
        <time>2018-06-26T10:48:48Z</time>
      </trkpt>
      <trkpt lat="45.94557" lon="4.73836">
        <ele>186</ele>
        <time>2018-06-26T10:48:49Z</time>
      </trkpt>
      <trkpt lat="45.94549" lon="4.7383">
        <ele>186</ele>
        <time>2018-06-26T10:48:50Z</time>
      </trkpt>
      <trkpt lat="45.94544" lon="4.73825">
        <ele>186</ele>
        <time>2018-06-26T10:48:51Z</time>
      </trkpt>
      <trkpt lat="45.94539" lon="4.7382">
        <ele>186</ele>
        <time>2018-06-26T10:48:52Z</time>
      </trkpt>
      <trkpt lat="45.94534" lon="4.73814">
        <ele>186</ele>
        <time>2018-06-26T10:48:53Z</time>
      </trkpt>
      <trkpt lat="45.9453" lon="4.73809">
        <ele>186</ele>
        <time>2018-06-26T10:48:54Z</time>
      </trkpt>
      <trkpt lat="45.94524" lon="4.73803">
        <ele>186</ele>
        <time>2018-06-26T10:48:55Z</time>
      </trkpt>
      <trkpt lat="45.94519" lon="4.73798">
        <ele>186</ele>
        <time>2018-06-26T10:48:56Z</time>
      </trkpt>
      <trkpt lat="45.94514" lon="4.73794">
        <ele>186</ele>
        <time>2018-06-26T10:48:57Z</time>
      </trkpt>
      <trkpt lat="45.94509" lon="4.73788">
        <ele>186</ele>
        <time>2018-06-26T10:48:58Z</time>
      </trkpt>
      <trkpt lat="45.94503" lon="4.73781">
        <ele>186</ele>
        <time>2018-06-26T10:48:59Z</time>
      </trkpt>
      <trkpt lat="45.94499" lon="4.73776">
        <ele>186</ele>
        <time>2018-06-26T10:49:00Z</time>
      </trkpt>
      <trkpt lat="45.94494" lon="4.73769">
        <ele>186</ele>
        <time>2018-06-26T10:49:01Z</time>
      </trkpt>
      <trkpt lat="45.9449" lon="4.73762">
        <ele>186</ele>
        <time>2018-06-26T10:49:02Z</time>
      </trkpt>
      <trkpt lat="45.94487" lon="4.73756">
        <ele>186</ele>
        <time>2018-06-26T10:49:03Z</time>
      </trkpt>
      <trkpt lat="45.94487" lon="4.73748">
        <ele>186</ele>
        <time>2018-06-26T10:49:04Z</time>
      </trkpt>
      <trkpt lat="45.94486" lon="4.73739">
        <ele>186</ele>
        <time>2018-06-26T10:49:05Z</time>
      </trkpt>
      <trkpt lat="45.94488" lon="4.7373">
        <ele>186</ele>
        <time>2018-06-26T10:49:06Z</time>
      </trkpt>
      <trkpt lat="45.94489" lon="4.73721">
        <ele>186</ele>
        <time>2018-06-26T10:49:07Z</time>
      </trkpt>
      <trkpt lat="45.94489" lon="4.73712">
        <ele>186</ele>
        <time>2018-06-26T10:49:08Z</time>
      </trkpt>
      <trkpt lat="45.94492" lon="4.73703">
        <ele>186</ele>
        <time>2018-06-26T10:49:09Z</time>
      </trkpt>
      <trkpt lat="45.94492" lon="4.73694">
        <ele>186</ele>
        <time>2018-06-26T10:49:10Z</time>
      </trkpt>
      <trkpt lat="45.94493" lon="4.73685">
        <ele>186</ele>
        <time>2018-06-26T10:49:11Z</time>
      </trkpt>
      <trkpt lat="45.94496" lon="4.73676">
        <ele>185</ele>
        <time>2018-06-26T10:49:12Z</time>
      </trkpt>
      <trkpt lat="45.94498" lon="4.73667">
        <ele>185</ele>
        <time>2018-06-26T10:49:13Z</time>
      </trkpt>
      <trkpt lat="45.94499" lon="4.73659">
        <ele>185</ele>
        <time>2018-06-26T10:49:14Z</time>
      </trkpt>
      <trkpt lat="45.945" lon="4.73649">
        <ele>185</ele>
        <time>2018-06-26T10:49:15Z</time>
      </trkpt>
      <trkpt lat="45.94501" lon="4.73642">
        <ele>184</ele>
        <time>2018-06-26T10:49:16Z</time>
      </trkpt>
      <trkpt lat="45.94502" lon="4.73634">
        <ele>184</ele>
        <time>2018-06-26T10:49:17Z</time>
      </trkpt>
      <trkpt lat="45.94502" lon="4.73625">
        <ele>184</ele>
        <time>2018-06-26T10:49:18Z</time>
      </trkpt>
      <trkpt lat="45.94503" lon="4.73616">
        <ele>184</ele>
        <time>2018-06-26T10:49:19Z</time>
      </trkpt>
      <trkpt lat="45.94506" lon="4.73608">
        <ele>184</ele>
        <time>2018-06-26T10:49:20Z</time>
      </trkpt>
      <trkpt lat="45.94506" lon="4.73599">
        <ele>184</ele>
        <time>2018-06-26T10:49:21Z</time>
      </trkpt>
      <trkpt lat="45.94506" lon="4.7359">
        <ele>185</ele>
        <time>2018-06-26T10:49:22Z</time>
      </trkpt>
      <trkpt lat="45.94506" lon="4.7358">
        <ele>184</ele>
        <time>2018-06-26T10:49:23Z</time>
      </trkpt>
      <trkpt lat="45.94506" lon="4.7357">
        <ele>184</ele>
        <time>2018-06-26T10:49:24Z</time>
      </trkpt>
      <trkpt lat="45.94507" lon="4.73562">
        <ele>184</ele>
        <time>2018-06-26T10:49:25Z</time>
      </trkpt>
      <trkpt lat="45.94507" lon="4.73553">
        <ele>183</ele>
        <time>2018-06-26T10:49:26Z</time>
      </trkpt>
      <trkpt lat="45.94508" lon="4.73544">
        <ele>183</ele>
        <time>2018-06-26T10:49:27Z</time>
      </trkpt>
      <trkpt lat="45.94508" lon="4.73534">
        <ele>183</ele>
        <time>2018-06-26T10:49:28Z</time>
      </trkpt>
      <trkpt lat="45.94507" lon="4.73524">
        <ele>183</ele>
        <time>2018-06-26T10:49:29Z</time>
      </trkpt>
      <trkpt lat="45.94507" lon="4.73514">
        <ele>183</ele>
        <time>2018-06-26T10:49:30Z</time>
      </trkpt>
      <trkpt lat="45.94508" lon="4.73503">
        <ele>183</ele>
        <time>2018-06-26T10:49:31Z</time>
      </trkpt>
      <trkpt lat="45.94509" lon="4.73493">
        <ele>182</ele>
        <time>2018-06-26T10:49:32Z</time>
      </trkpt>
      <trkpt lat="45.94509" lon="4.73483">
        <ele>182</ele>
        <time>2018-06-26T10:49:33Z</time>
      </trkpt>
      <trkpt lat="45.94508" lon="4.73473">
        <ele>182</ele>
        <time>2018-06-26T10:49:34Z</time>
      </trkpt>
      <trkpt lat="45.94508" lon="4.73463">
        <ele>181</ele>
        <time>2018-06-26T10:49:35Z</time>
      </trkpt>
      <trkpt lat="45.94508" lon="4.73453">
        <ele>181</ele>
        <time>2018-06-26T10:49:36Z</time>
      </trkpt>
      <trkpt lat="45.94507" lon="4.73442">
        <ele>181</ele>
        <time>2018-06-26T10:49:37Z</time>
      </trkpt>
      <trkpt lat="45.94507" lon="4.73432">
        <ele>181</ele>
        <time>2018-06-26T10:49:38Z</time>
      </trkpt>
      <trkpt lat="45.94506" lon="4.73421">
        <ele>180</ele>
        <time>2018-06-26T10:49:39Z</time>
      </trkpt>
      <trkpt lat="45.94505" lon="4.7341">
        <ele>180</ele>
        <time>2018-06-26T10:49:40Z</time>
      </trkpt>
      <trkpt lat="45.94506" lon="4.734">
        <ele>179</ele>
        <time>2018-06-26T10:49:41Z</time>
      </trkpt>
      <trkpt lat="45.94505" lon="4.73389">
        <ele>179</ele>
        <time>2018-06-26T10:49:42Z</time>
      </trkpt>
      <trkpt lat="45.94504" lon="4.73377">
        <ele>178</ele>
        <time>2018-06-26T10:49:43Z</time>
      </trkpt>
      <trkpt lat="45.94503" lon="4.73366">
        <ele>178</ele>
        <time>2018-06-26T10:49:44Z</time>
      </trkpt>
      <trkpt lat="45.94502" lon="4.73355">
        <ele>178</ele>
        <time>2018-06-26T10:49:45Z</time>
      </trkpt>
      <trkpt lat="45.94501" lon="4.73344">
        <ele>177</ele>
        <time>2018-06-26T10:49:46Z</time>
      </trkpt>
      <trkpt lat="45.94499" lon="4.73333">
        <ele>177</ele>
        <time>2018-06-26T10:49:47Z</time>
      </trkpt>
      <trkpt lat="45.94496" lon="4.73322">
        <ele>177</ele>
        <time>2018-06-26T10:49:48Z</time>
      </trkpt>
      <trkpt lat="45.94495" lon="4.73311">
        <ele>177</ele>
        <time>2018-06-26T10:49:49Z</time>
      </trkpt>
      <trkpt lat="45.94493" lon="4.73301">
        <ele>177</ele>
        <time>2018-06-26T10:49:50Z</time>
      </trkpt>
      <trkpt lat="45.94492" lon="4.73291">
        <ele>177</ele>
        <time>2018-06-26T10:49:51Z</time>
      </trkpt>
      <trkpt lat="45.9449" lon="4.73281">
        <ele>177</ele>
        <time>2018-06-26T10:49:52Z</time>
      </trkpt>
      <trkpt lat="45.94489" lon="4.73271">
        <ele>177</ele>
        <time>2018-06-26T10:49:53Z</time>
      </trkpt>
      <trkpt lat="45.94487" lon="4.73261">
        <ele>176</ele>
        <time>2018-06-26T10:49:54Z</time>
      </trkpt>
      <trkpt lat="45.94485" lon="4.73252">
        <ele>176</ele>
        <time>2018-06-26T10:49:55Z</time>
      </trkpt>
      <trkpt lat="45.94484" lon="4.73241">
        <ele>175</ele>
        <time>2018-06-26T10:49:56Z</time>
      </trkpt>
      <trkpt lat="45.94482" lon="4.73231">
        <ele>175</ele>
        <time>2018-06-26T10:49:57Z</time>
      </trkpt>
      <trkpt lat="45.94481" lon="4.73221">
        <ele>175</ele>
        <time>2018-06-26T10:49:58Z</time>
      </trkpt>
      <trkpt lat="45.9448" lon="4.7321">
        <ele>175</ele>
        <time>2018-06-26T10:49:59Z</time>
      </trkpt>
      <trkpt lat="45.94479" lon="4.73199">
        <ele>174</ele>
        <time>2018-06-26T10:50:00Z</time>
      </trkpt>
      <trkpt lat="45.94477" lon="4.73188">
        <ele>174</ele>
        <time>2018-06-26T10:50:01Z</time>
      </trkpt>
      <trkpt lat="45.94476" lon="4.73178">
        <ele>174</ele>
        <time>2018-06-26T10:50:02Z</time>
      </trkpt>
      <trkpt lat="45.94474" lon="4.73167">
        <ele>173</ele>
        <time>2018-06-26T10:50:03Z</time>
      </trkpt>
      <trkpt lat="45.94472" lon="4.73156">
        <ele>172</ele>
        <time>2018-06-26T10:50:04Z</time>
      </trkpt>
      <trkpt lat="45.94471" lon="4.73146">
        <ele>172</ele>
        <time>2018-06-26T10:50:05Z</time>
      </trkpt>
      <trkpt lat="45.9447" lon="4.73136">
        <ele>172</ele>
        <time>2018-06-26T10:50:06Z</time>
      </trkpt>
      <trkpt lat="45.94469" lon="4.73127">
        <ele>172</ele>
        <time>2018-06-26T10:50:07Z</time>
      </trkpt>
      <trkpt lat="45.94468" lon="4.73116">
        <ele>172</ele>
        <time>2018-06-26T10:50:08Z</time>
      </trkpt>
      <trkpt lat="45.94467" lon="4.73107">
        <ele>172</ele>
        <time>2018-06-26T10:50:09Z</time>
      </trkpt>
      <trkpt lat="45.94466" lon="4.73097">
        <ele>172</ele>
        <time>2018-06-26T10:50:10Z</time>
      </trkpt>
      <trkpt lat="45.94464" lon="4.73089">
        <ele>171</ele>
        <time>2018-06-26T10:50:11Z</time>
      </trkpt>
      <trkpt lat="45.94462" lon="4.7308">
        <ele>170</ele>
        <time>2018-06-26T10:50:12Z</time>
      </trkpt>
      <trkpt lat="45.94462" lon="4.73071">
        <ele>170</ele>
        <time>2018-06-26T10:50:13Z</time>
      </trkpt>
      <trkpt lat="45.9446" lon="4.73062">
        <ele>170</ele>
        <time>2018-06-26T10:50:14Z</time>
      </trkpt>
      <trkpt lat="45.94458" lon="4.73055">
        <ele>170</ele>
        <time>2018-06-26T10:50:15Z</time>
      </trkpt>
      <trkpt lat="45.94459" lon="4.73048">
        <ele>170</ele>
        <time>2018-06-26T10:50:16Z</time>
      </trkpt>
      <trkpt lat="45.94457" lon="4.7304">
        <ele>169</ele>
        <time>2018-06-26T10:50:17Z</time>
      </trkpt>
      <trkpt lat="45.94456" lon="4.73032">
        <ele>169</ele>
        <time>2018-06-26T10:50:18Z</time>
      </trkpt>
      <trkpt lat="45.94456" lon="4.73025">
        <ele>169</ele>
        <time>2018-06-26T10:50:19Z</time>
      </trkpt>
      <trkpt lat="45.94455" lon="4.73018">
        <ele>169</ele>
        <time>2018-06-26T10:50:20Z</time>
      </trkpt>
      <trkpt lat="45.94456" lon="4.73011">
        <ele>169</ele>
        <time>2018-06-26T10:50:21Z</time>
      </trkpt>
      <trkpt lat="45.94456" lon="4.73003">
        <ele>169</ele>
        <time>2018-06-26T10:50:22Z</time>
      </trkpt>
      <trkpt lat="45.94453" lon="4.72997">
        <ele>167</ele>
        <time>2018-06-26T10:50:23Z</time>
      </trkpt>
      <trkpt lat="45.94452" lon="4.72991">
        <ele>167</ele>
        <time>2018-06-26T10:50:24Z</time>
      </trkpt>
      <trkpt lat="45.94451" lon="4.72983">
        <ele>167</ele>
        <time>2018-06-26T10:50:25Z</time>
      </trkpt>
      <trkpt lat="45.9445" lon="4.72976">
        <ele>167</ele>
        <time>2018-06-26T10:50:26Z</time>
      </trkpt>
      <trkpt lat="45.94449" lon="4.72969">
        <ele>167</ele>
        <time>2018-06-26T10:50:27Z</time>
      </trkpt>
      <trkpt lat="45.94448" lon="4.72962">
        <ele>167</ele>
        <time>2018-06-26T10:50:28Z</time>
      </trkpt>
      <trkpt lat="45.94449" lon="4.72953">
        <ele>167</ele>
        <time>2018-06-26T10:50:29Z</time>
      </trkpt>
      <trkpt lat="45.94447" lon="4.72946">
        <ele>167</ele>
        <time>2018-06-26T10:50:30Z</time>
      </trkpt>
      <trkpt lat="45.94447" lon="4.7294">
        <ele>167</ele>
        <time>2018-06-26T10:50:31Z</time>
      </trkpt>
      <trkpt lat="45.94446" lon="4.72933">
        <ele>167</ele>
        <time>2018-06-26T10:50:32Z</time>
      </trkpt>
      <trkpt lat="45.94445" lon="4.72926">
        <ele>167</ele>
        <time>2018-06-26T10:50:33Z</time>
      </trkpt>
      <trkpt lat="45.94443" lon="4.72914">
        <ele>166</ele>
        <time>2018-06-26T10:50:35Z</time>
      </trkpt>
      <trkpt lat="45.94442" lon="4.72907">
        <ele>166</ele>
        <time>2018-06-26T10:50:36Z</time>
      </trkpt>
      <trkpt lat="45.94441" lon="4.72901">
        <ele>166</ele>
        <time>2018-06-26T10:50:37Z</time>
      </trkpt>
      <trkpt lat="45.9444" lon="4.72894">
        <ele>166</ele>
        <time>2018-06-26T10:50:38Z</time>
      </trkpt>
      <trkpt lat="45.94439" lon="4.72886">
        <ele>166</ele>
        <time>2018-06-26T10:50:39Z</time>
      </trkpt>
      <trkpt lat="45.94439" lon="4.72879">
        <ele>166</ele>
        <time>2018-06-26T10:50:40Z</time>
      </trkpt>
      <trkpt lat="45.94437" lon="4.72871">
        <ele>166</ele>
        <time>2018-06-26T10:50:41Z</time>
      </trkpt>
      <trkpt lat="45.94436" lon="4.72863">
        <ele>166</ele>
        <time>2018-06-26T10:50:42Z</time>
      </trkpt>
      <trkpt lat="45.94435" lon="4.72855">
        <ele>166</ele>
        <time>2018-06-26T10:50:43Z</time>
      </trkpt>
      <trkpt lat="45.94434" lon="4.72847">
        <ele>166</ele>
        <time>2018-06-26T10:50:44Z</time>
      </trkpt>
      <trkpt lat="45.94433" lon="4.72838">
        <ele>166</ele>
        <time>2018-06-26T10:50:45Z</time>
      </trkpt>
      <trkpt lat="45.94433" lon="4.7283">
        <ele>167</ele>
        <time>2018-06-26T10:50:46Z</time>
      </trkpt>
      <trkpt lat="45.94432" lon="4.72823">
        <ele>167</ele>
        <time>2018-06-26T10:50:47Z</time>
      </trkpt>
      <trkpt lat="45.9443" lon="4.72815">
        <ele>167</ele>
        <time>2018-06-26T10:50:48Z</time>
      </trkpt>
      <trkpt lat="45.94428" lon="4.72806">
        <ele>167</ele>
        <time>2018-06-26T10:50:49Z</time>
      </trkpt>
      <trkpt lat="45.94426" lon="4.72796">
        <ele>167</ele>
        <time>2018-06-26T10:50:50Z</time>
      </trkpt>
      <trkpt lat="45.94425" lon="4.72787">
        <ele>168</ele>
        <time>2018-06-26T10:50:51Z</time>
      </trkpt>
      <trkpt lat="45.94425" lon="4.72776">
        <ele>168</ele>
        <time>2018-06-26T10:50:52Z</time>
      </trkpt>
      <trkpt lat="45.94423" lon="4.72765">
        <ele>169</ele>
        <time>2018-06-26T10:50:53Z</time>
      </trkpt>
      <trkpt lat="45.94421" lon="4.72753">
        <ele>170</ele>
        <time>2018-06-26T10:50:54Z</time>
      </trkpt>
      <trkpt lat="45.9442" lon="4.72743">
        <ele>171</ele>
        <time>2018-06-26T10:50:55Z</time>
      </trkpt>
      <trkpt lat="45.94418" lon="4.72733">
        <ele>171</ele>
        <time>2018-06-26T10:50:56Z</time>
      </trkpt>
      <trkpt lat="45.94417" lon="4.72722">
        <ele>171</ele>
        <time>2018-06-26T10:50:57Z</time>
      </trkpt>
      <trkpt lat="45.94416" lon="4.72712">
        <ele>172</ele>
        <time>2018-06-26T10:50:58Z</time>
      </trkpt>
      <trkpt lat="45.94414" lon="4.72701">
        <ele>172</ele>
        <time>2018-06-26T10:50:59Z</time>
      </trkpt>
      <trkpt lat="45.94413" lon="4.72691">
        <ele>173</ele>
        <time>2018-06-26T10:51:00Z</time>
      </trkpt>
      <trkpt lat="45.94413" lon="4.72681">
        <ele>173</ele>
        <time>2018-06-26T10:51:01Z</time>
      </trkpt>
      <trkpt lat="45.94411" lon="4.72671">
        <ele>174</ele>
        <time>2018-06-26T10:51:02Z</time>
      </trkpt>
      <trkpt lat="45.94409" lon="4.7266">
        <ele>174</ele>
        <time>2018-06-26T10:51:03Z</time>
      </trkpt>
      <trkpt lat="45.94408" lon="4.7265">
        <ele>174</ele>
        <time>2018-06-26T10:51:04Z</time>
      </trkpt>
      <trkpt lat="45.94407" lon="4.7264">
        <ele>174</ele>
        <time>2018-06-26T10:51:05Z</time>
      </trkpt>
      <trkpt lat="45.94406" lon="4.72631">
        <ele>174</ele>
        <time>2018-06-26T10:51:06Z</time>
      </trkpt>
      <trkpt lat="45.94405" lon="4.72621">
        <ele>173</ele>
        <time>2018-06-26T10:51:07Z</time>
      </trkpt>
      <trkpt lat="45.94404" lon="4.72612">
        <ele>173</ele>
        <time>2018-06-26T10:51:08Z</time>
      </trkpt>
      <trkpt lat="45.94403" lon="4.72603">
        <ele>173</ele>
        <time>2018-06-26T10:51:09Z</time>
      </trkpt>
      <trkpt lat="45.94402" lon="4.72594">
        <ele>173</ele>
        <time>2018-06-26T10:51:10Z</time>
      </trkpt>
      <trkpt lat="45.94401" lon="4.72585">
        <ele>173</ele>
        <time>2018-06-26T10:51:11Z</time>
      </trkpt>
      <trkpt lat="45.944" lon="4.72576">
        <ele>173</ele>
        <time>2018-06-26T10:51:12Z</time>
      </trkpt>
      <trkpt lat="45.94398" lon="4.72568">
        <ele>173</ele>
        <time>2018-06-26T10:51:13Z</time>
      </trkpt>
      <trkpt lat="45.94396" lon="4.7256">
        <ele>173</ele>
        <time>2018-06-26T10:51:14Z</time>
      </trkpt>
      <trkpt lat="45.94395" lon="4.72553">
        <ele>173</ele>
        <time>2018-06-26T10:51:15Z</time>
      </trkpt>
      <trkpt lat="45.94394" lon="4.72545">
        <ele>173</ele>
        <time>2018-06-26T10:51:16Z</time>
      </trkpt>
      <trkpt lat="45.94393" lon="4.72538">
        <ele>174</ele>
        <time>2018-06-26T10:51:17Z</time>
      </trkpt>
      <trkpt lat="45.94391" lon="4.7253">
        <ele>174</ele>
        <time>2018-06-26T10:51:18Z</time>
      </trkpt>
      <trkpt lat="45.94388" lon="4.72522">
        <ele>174</ele>
        <time>2018-06-26T10:51:19Z</time>
      </trkpt>
      <trkpt lat="45.94385" lon="4.72514">
        <ele>174</ele>
        <time>2018-06-26T10:51:20Z</time>
      </trkpt>
      <trkpt lat="45.94384" lon="4.72507">
        <ele>174</ele>
        <time>2018-06-26T10:51:21Z</time>
      </trkpt>
      <trkpt lat="45.94382" lon="4.72499">
        <ele>173</ele>
        <time>2018-06-26T10:51:22Z</time>
      </trkpt>
      <trkpt lat="45.94377" lon="4.7249">
        <ele>173</ele>
        <time>2018-06-26T10:51:23Z</time>
      </trkpt>
      <trkpt lat="45.94374" lon="4.72483">
        <ele>173</ele>
        <time>2018-06-26T10:51:24Z</time>
      </trkpt>
      <trkpt lat="45.94374" lon="4.72476">
        <ele>173</ele>
        <time>2018-06-26T10:51:25Z</time>
      </trkpt>
      <trkpt lat="45.9437" lon="4.72469">
        <ele>173</ele>
        <time>2018-06-26T10:51:26Z</time>
      </trkpt>
      <trkpt lat="45.94368" lon="4.72462">
        <ele>173</ele>
        <time>2018-06-26T10:51:27Z</time>
      </trkpt>
      <trkpt lat="45.94366" lon="4.72454">
        <ele>173</ele>
        <time>2018-06-26T10:51:28Z</time>
      </trkpt>
      <trkpt lat="45.94363" lon="4.72447">
        <ele>173</ele>
        <time>2018-06-26T10:51:29Z</time>
      </trkpt>
      <trkpt lat="45.94358" lon="4.72439">
        <ele>173</ele>
        <time>2018-06-26T10:51:30Z</time>
      </trkpt>
      <trkpt lat="45.94354" lon="4.72433">
        <ele>173</ele>
        <time>2018-06-26T10:51:31Z</time>
      </trkpt>
      <trkpt lat="45.94352" lon="4.72425">
        <ele>173</ele>
        <time>2018-06-26T10:51:32Z</time>
      </trkpt>
      <trkpt lat="45.94351" lon="4.72418">
        <ele>173</ele>
        <time>2018-06-26T10:51:33Z</time>
      </trkpt>
      <trkpt lat="45.94346" lon="4.72411">
        <ele>173</ele>
        <time>2018-06-26T10:51:34Z</time>
      </trkpt>
      <trkpt lat="45.94343" lon="4.72403">
        <ele>173</ele>
        <time>2018-06-26T10:51:35Z</time>
      </trkpt>
      <trkpt lat="45.94341" lon="4.72396">
        <ele>172</ele>
        <time>2018-06-26T10:51:36Z</time>
      </trkpt>
      <trkpt lat="45.9434" lon="4.7239">
        <ele>172</ele>
        <time>2018-06-26T10:51:37Z</time>
      </trkpt>
      <trkpt lat="45.94336" lon="4.72383">
        <ele>172</ele>
        <time>2018-06-26T10:51:38Z</time>
      </trkpt>
      <trkpt lat="45.94331" lon="4.72376">
        <ele>172</ele>
        <time>2018-06-26T10:51:39Z</time>
      </trkpt>
      <trkpt lat="45.94328" lon="4.72368">
        <ele>172</ele>
        <time>2018-06-26T10:51:40Z</time>
      </trkpt>
      <trkpt lat="45.94324" lon="4.7236">
        <ele>172</ele>
        <time>2018-06-26T10:51:41Z</time>
      </trkpt>
      <trkpt lat="45.9432" lon="4.72354">
        <ele>172</ele>
        <time>2018-06-26T10:51:42Z</time>
      </trkpt>
      <trkpt lat="45.94317" lon="4.72346">
        <ele>172</ele>
        <time>2018-06-26T10:51:43Z</time>
      </trkpt>
      <trkpt lat="45.94314" lon="4.72339">
        <ele>172</ele>
        <time>2018-06-26T10:51:44Z</time>
      </trkpt>
      <trkpt lat="45.9431" lon="4.72332">
        <ele>172</ele>
        <time>2018-06-26T10:51:45Z</time>
      </trkpt>
      <trkpt lat="45.94306" lon="4.72324">
        <ele>171</ele>
        <time>2018-06-26T10:51:46Z</time>
      </trkpt>
      <trkpt lat="45.94302" lon="4.72316">
        <ele>171</ele>
        <time>2018-06-26T10:51:47Z</time>
      </trkpt>
      <trkpt lat="45.943" lon="4.72309">
        <ele>171</ele>
        <time>2018-06-26T10:51:48Z</time>
      </trkpt>
      <trkpt lat="45.94296" lon="4.72301">
        <ele>171</ele>
        <time>2018-06-26T10:51:49Z</time>
      </trkpt>
      <trkpt lat="45.94293" lon="4.72294">
        <ele>171</ele>
        <time>2018-06-26T10:51:50Z</time>
      </trkpt>
      <trkpt lat="45.94291" lon="4.72288">
        <ele>171</ele>
        <time>2018-06-26T10:51:51Z</time>
      </trkpt>
      <trkpt lat="45.94288" lon="4.72282">
        <ele>171</ele>
        <time>2018-06-26T10:51:52Z</time>
      </trkpt>
      <trkpt lat="45.94285" lon="4.72275">
        <ele>171</ele>
        <time>2018-06-26T10:51:53Z</time>
      </trkpt>
      <trkpt lat="45.94282" lon="4.72269">
        <ele>171</ele>
        <time>2018-06-26T10:51:54Z</time>
      </trkpt>
      <trkpt lat="45.94274" lon="4.72269">
        <ele>171</ele>
        <time>2018-06-26T10:51:55Z</time>
      </trkpt>
      <trkpt lat="45.94269" lon="4.7227">
        <ele>171</ele>
        <time>2018-06-26T10:51:56Z</time>
      </trkpt>
      <trkpt lat="45.94264" lon="4.72272">
        <ele>171</ele>
        <time>2018-06-26T10:51:57Z</time>
      </trkpt>
      <trkpt lat="45.94258" lon="4.72275">
        <ele>171</ele>
        <time>2018-06-26T10:51:58Z</time>
      </trkpt>
      <trkpt lat="45.94252" lon="4.72277">
        <ele>171</ele>
        <time>2018-06-26T10:51:59Z</time>
      </trkpt>
      <trkpt lat="45.94248" lon="4.7228">
        <ele>171</ele>
        <time>2018-06-26T10:52:00Z</time>
      </trkpt>
      <trkpt lat="45.94241" lon="4.72282">
        <ele>171</ele>
        <time>2018-06-26T10:52:01Z</time>
      </trkpt>
      <trkpt lat="45.94235" lon="4.72285">
        <ele>171</ele>
        <time>2018-06-26T10:52:02Z</time>
      </trkpt>
      <trkpt lat="45.9423" lon="4.72285">
        <ele>171</ele>
        <time>2018-06-26T10:52:03Z</time>
      </trkpt>
      <trkpt lat="45.94225" lon="4.72286">
        <ele>171</ele>
        <time>2018-06-26T10:52:04Z</time>
      </trkpt>
      <trkpt lat="45.94217" lon="4.72288">
        <ele>171</ele>
        <time>2018-06-26T10:52:05Z</time>
      </trkpt>
      <trkpt lat="45.94212" lon="4.72289">
        <ele>171</ele>
        <time>2018-06-26T10:52:06Z</time>
      </trkpt>
      <trkpt lat="45.94207" lon="4.72289">
        <ele>171</ele>
        <time>2018-06-26T10:52:07Z</time>
      </trkpt>
      <trkpt lat="45.94202" lon="4.7229">
        <ele>171</ele>
        <time>2018-06-26T10:52:08Z</time>
      </trkpt>
      <trkpt lat="45.94196" lon="4.72288">
        <ele>171</ele>
        <time>2018-06-26T10:52:09Z</time>
      </trkpt>
      <trkpt lat="45.9419" lon="4.72289">
        <ele>171</ele>
        <time>2018-06-26T10:52:10Z</time>
      </trkpt>
      <trkpt lat="45.94185" lon="4.72289">
        <ele>171</ele>
        <time>2018-06-26T10:52:11Z</time>
      </trkpt>
      <trkpt lat="45.94179" lon="4.72288">
        <ele>171</ele>
        <time>2018-06-26T10:52:12Z</time>
      </trkpt>
      <trkpt lat="45.94173" lon="4.72287">
        <ele>171</ele>
        <time>2018-06-26T10:52:13Z</time>
      </trkpt>
      <trkpt lat="45.94167" lon="4.72289">
        <ele>171</ele>
        <time>2018-06-26T10:52:14Z</time>
      </trkpt>
      <trkpt lat="45.9416" lon="4.72288">
        <ele>171</ele>
        <time>2018-06-26T10:52:15Z</time>
      </trkpt>
      <trkpt lat="45.94154" lon="4.72286">
        <ele>171</ele>
        <time>2018-06-26T10:52:16Z</time>
      </trkpt>
      <trkpt lat="45.94148" lon="4.72284">
        <ele>171</ele>
        <time>2018-06-26T10:52:17Z</time>
      </trkpt>
      <trkpt lat="45.94143" lon="4.72281">
        <ele>171</ele>
        <time>2018-06-26T10:52:18Z</time>
      </trkpt>
      <trkpt lat="45.94138" lon="4.7228">
        <ele>171</ele>
        <time>2018-06-26T10:52:19Z</time>
      </trkpt>
      <trkpt lat="45.94133" lon="4.72276">
        <ele>171</ele>
        <time>2018-06-26T10:52:20Z</time>
      </trkpt>
      <trkpt lat="45.94128" lon="4.72273">
        <ele>171</ele>
        <time>2018-06-26T10:52:21Z</time>
      </trkpt>
      <trkpt lat="45.94122" lon="4.72272">
        <ele>171</ele>
        <time>2018-06-26T10:52:22Z</time>
      </trkpt>
      <trkpt lat="45.94116" lon="4.7227">
        <ele>171</ele>
        <time>2018-06-26T10:52:23Z</time>
      </trkpt>
      <trkpt lat="45.9411" lon="4.72268">
        <ele>171</ele>
        <time>2018-06-26T10:52:24Z</time>
      </trkpt>
      <trkpt lat="45.94104" lon="4.72267">
        <ele>171</ele>
        <time>2018-06-26T10:52:25Z</time>
      </trkpt>
      <trkpt lat="45.94097" lon="4.72267">
        <ele>171</ele>
        <time>2018-06-26T10:52:26Z</time>
      </trkpt>
      <trkpt lat="45.9409" lon="4.72268">
        <ele>171</ele>
        <time>2018-06-26T10:52:27Z</time>
      </trkpt>
      <trkpt lat="45.94085" lon="4.7227">
        <ele>171</ele>
        <time>2018-06-26T10:52:28Z</time>
      </trkpt>
      <trkpt lat="45.94079" lon="4.72273">
        <ele>171</ele>
        <time>2018-06-26T10:52:29Z</time>
      </trkpt>
      <trkpt lat="45.94073" lon="4.72278">
        <ele>171</ele>
        <time>2018-06-26T10:52:30Z</time>
      </trkpt>
      <trkpt lat="45.94068" lon="4.72284">
        <ele>171</ele>
        <time>2018-06-26T10:52:31Z</time>
      </trkpt>
      <trkpt lat="45.94064" lon="4.72288">
        <ele>171</ele>
        <time>2018-06-26T10:52:32Z</time>
      </trkpt>
      <trkpt lat="45.94058" lon="4.72295">
        <ele>171</ele>
        <time>2018-06-26T10:52:33Z</time>
      </trkpt>
      <trkpt lat="45.94052" lon="4.72302">
        <ele>171</ele>
        <time>2018-06-26T10:52:34Z</time>
      </trkpt>
      <trkpt lat="45.94046" lon="4.72306">
        <ele>171</ele>
        <time>2018-06-26T10:52:35Z</time>
      </trkpt>
      <trkpt lat="45.94041" lon="4.72313">
        <ele>171</ele>
        <time>2018-06-26T10:52:36Z</time>
      </trkpt>
      <trkpt lat="45.94036" lon="4.72319">
        <ele>171</ele>
        <time>2018-06-26T10:52:37Z</time>
      </trkpt>
      <trkpt lat="45.94031" lon="4.72325">
        <ele>171</ele>
        <time>2018-06-26T10:52:38Z</time>
      </trkpt>
      <trkpt lat="45.94026" lon="4.72331">
        <ele>171</ele>
        <time>2018-06-26T10:52:39Z</time>
      </trkpt>
      <trkpt lat="45.94022" lon="4.72337">
        <ele>171</ele>
        <time>2018-06-26T10:52:40Z</time>
      </trkpt>
      <trkpt lat="45.94018" lon="4.72343">
        <ele>171</ele>
        <time>2018-06-26T10:52:41Z</time>
      </trkpt>
      <trkpt lat="45.94014" lon="4.7235">
        <ele>171</ele>
        <time>2018-06-26T10:52:42Z</time>
      </trkpt>
      <trkpt lat="45.9401" lon="4.72355">
        <ele>171</ele>
        <time>2018-06-26T10:52:43Z</time>
      </trkpt>
      <trkpt lat="45.94006" lon="4.72362">
        <ele>171</ele>
        <time>2018-06-26T10:52:44Z</time>
      </trkpt>
      <trkpt lat="45.94001" lon="4.72367">
        <ele>171</ele>
        <time>2018-06-26T10:52:45Z</time>
      </trkpt>
      <trkpt lat="45.93997" lon="4.72373">
        <ele>171</ele>
        <time>2018-06-26T10:52:46Z</time>
      </trkpt>
      <trkpt lat="45.93992" lon="4.72379">
        <ele>171</ele>
        <time>2018-06-26T10:52:47Z</time>
      </trkpt>
      <trkpt lat="45.93988" lon="4.72385">
        <ele>171</ele>
        <time>2018-06-26T10:52:48Z</time>
      </trkpt>
      <trkpt lat="45.93983" lon="4.72391">
        <ele>171</ele>
        <time>2018-06-26T10:52:49Z</time>
      </trkpt>
      <trkpt lat="45.93978" lon="4.72397">
        <ele>171</ele>
        <time>2018-06-26T10:52:50Z</time>
      </trkpt>
      <trkpt lat="45.93973" lon="4.72404">
        <ele>171</ele>
        <time>2018-06-26T10:52:51Z</time>
      </trkpt>
      <trkpt lat="45.93967" lon="4.72409">
        <ele>171</ele>
        <time>2018-06-26T10:52:52Z</time>
      </trkpt>
      <trkpt lat="45.93963" lon="4.72416">
        <ele>171</ele>
        <time>2018-06-26T10:52:53Z</time>
      </trkpt>
      <trkpt lat="45.93959" lon="4.72421">
        <ele>171</ele>
        <time>2018-06-26T10:52:54Z</time>
      </trkpt>
      <trkpt lat="45.93953" lon="4.72427">
        <ele>171</ele>
        <time>2018-06-26T10:52:55Z</time>
      </trkpt>
      <trkpt lat="45.93948" lon="4.72434">
        <ele>171</ele>
        <time>2018-06-26T10:52:56Z</time>
      </trkpt>
      <trkpt lat="45.93942" lon="4.7244">
        <ele>171</ele>
        <time>2018-06-26T10:52:57Z</time>
      </trkpt>
      <trkpt lat="45.93938" lon="4.72447">
        <ele>171</ele>
        <time>2018-06-26T10:52:58Z</time>
      </trkpt>
      <trkpt lat="45.93932" lon="4.72452">
        <ele>171</ele>
        <time>2018-06-26T10:52:59Z</time>
      </trkpt>
      <trkpt lat="45.93928" lon="4.72458">
        <ele>171</ele>
        <time>2018-06-26T10:53:00Z</time>
      </trkpt>
      <trkpt lat="45.93924" lon="4.72464">
        <ele>171</ele>
        <time>2018-06-26T10:53:01Z</time>
      </trkpt>
      <trkpt lat="45.93919" lon="4.72468">
        <ele>171</ele>
        <time>2018-06-26T10:53:02Z</time>
      </trkpt>
      <trkpt lat="45.93914" lon="4.72473">
        <ele>172</ele>
        <time>2018-06-26T10:53:03Z</time>
      </trkpt>
      <trkpt lat="45.9391" lon="4.72478">
        <ele>172</ele>
        <time>2018-06-26T10:53:04Z</time>
      </trkpt>
      <trkpt lat="45.93906" lon="4.72482">
        <ele>172</ele>
        <time>2018-06-26T10:53:05Z</time>
      </trkpt>
      <trkpt lat="45.93902" lon="4.72488">
        <ele>172</ele>
        <time>2018-06-26T10:53:06Z</time>
      </trkpt>
      <trkpt lat="45.93898" lon="4.72493">
        <ele>172</ele>
        <time>2018-06-26T10:53:07Z</time>
      </trkpt>
      <trkpt lat="45.93893" lon="4.72498">
        <ele>172</ele>
        <time>2018-06-26T10:53:08Z</time>
      </trkpt>
      <trkpt lat="45.93889" lon="4.72502">
        <ele>173</ele>
        <time>2018-06-26T10:53:09Z</time>
      </trkpt>
      <trkpt lat="45.93884" lon="4.72505">
        <ele>173</ele>
        <time>2018-06-26T10:53:10Z</time>
      </trkpt>
      <trkpt lat="45.93876" lon="4.72506">
        <ele>173</ele>
        <time>2018-06-26T10:53:12Z</time>
      </trkpt>
      <trkpt lat="45.93871" lon="4.72507">
        <ele>173</ele>
        <time>2018-06-26T10:53:13Z</time>
      </trkpt>
      <trkpt lat="45.93862" lon="4.72505">
        <ele>173</ele>
        <time>2018-06-26T10:53:15Z</time>
      </trkpt>
      <trkpt lat="45.93858" lon="4.72503">
        <ele>173</ele>
        <time>2018-06-26T10:53:16Z</time>
      </trkpt>
      <trkpt lat="45.93851" lon="4.72498">
        <ele>173</ele>
        <time>2018-06-26T10:53:18Z</time>
      </trkpt>
      <trkpt lat="45.93847" lon="4.72495">
        <ele>173</ele>
        <time>2018-06-26T10:53:19Z</time>
      </trkpt>
      <trkpt lat="45.93841" lon="4.72489">
        <ele>173</ele>
        <time>2018-06-26T10:53:21Z</time>
      </trkpt>
      <trkpt lat="45.93837" lon="4.72485">
        <ele>173</ele>
        <time>2018-06-26T10:53:22Z</time>
      </trkpt>
      <trkpt lat="45.93833" lon="4.72482">
        <ele>173</ele>
        <time>2018-06-26T10:53:23Z</time>
      </trkpt>
      <trkpt lat="45.93824" lon="4.72475">
        <ele>173</ele>
        <time>2018-06-26T10:53:24Z</time>
      </trkpt>
      <trkpt lat="45.9382" lon="4.7247">
        <ele>172</ele>
        <time>2018-06-26T10:53:25Z</time>
      </trkpt>
      <trkpt lat="45.93814" lon="4.72466">
        <ele>172</ele>
        <time>2018-06-26T10:53:26Z</time>
      </trkpt>
      <trkpt lat="45.93808" lon="4.72461">
        <ele>172</ele>
        <time>2018-06-26T10:53:27Z</time>
      </trkpt>
      <trkpt lat="45.93802" lon="4.72456">
        <ele>172</ele>
        <time>2018-06-26T10:53:28Z</time>
      </trkpt>
      <trkpt lat="45.93796" lon="4.72448">
        <ele>172</ele>
        <time>2018-06-26T10:53:29Z</time>
      </trkpt>
      <trkpt lat="45.93792" lon="4.72444">
        <ele>172</ele>
        <time>2018-06-26T10:53:30Z</time>
      </trkpt>
      <trkpt lat="45.93789" lon="4.7244">
        <ele>172</ele>
        <time>2018-06-26T10:53:31Z</time>
      </trkpt>
      <trkpt lat="45.93785" lon="4.72436">
        <ele>172</ele>
        <time>2018-06-26T10:53:32Z</time>
      </trkpt>
      <trkpt lat="45.93778" lon="4.72429">
        <ele>172</ele>
        <time>2018-06-26T10:53:34Z</time>
      </trkpt>
      <trkpt lat="45.93774" lon="4.72424">
        <ele>171</ele>
        <time>2018-06-26T10:53:35Z</time>
      </trkpt>
      <trkpt lat="45.93771" lon="4.7242">
        <ele>171</ele>
        <time>2018-06-26T10:53:36Z</time>
      </trkpt>
      <trkpt lat="45.93767" lon="4.72415">
        <ele>171</ele>
        <time>2018-06-26T10:53:37Z</time>
      </trkpt>
      <trkpt lat="45.93763" lon="4.7241">
        <ele>171</ele>
        <time>2018-06-26T10:53:38Z</time>
      </trkpt>
      <trkpt lat="45.93759" lon="4.72406">
        <ele>171</ele>
        <time>2018-06-26T10:53:39Z</time>
      </trkpt>
      <trkpt lat="45.93754" lon="4.72401">
        <ele>171</ele>
        <time>2018-06-26T10:53:40Z</time>
      </trkpt>
      <trkpt lat="45.93749" lon="4.72397">
        <ele>171</ele>
        <time>2018-06-26T10:53:41Z</time>
      </trkpt>
      <trkpt lat="45.93745" lon="4.72393">
        <ele>171</ele>
        <time>2018-06-26T10:53:42Z</time>
      </trkpt>
      <trkpt lat="45.93742" lon="4.72389">
        <ele>171</ele>
        <time>2018-06-26T10:53:43Z</time>
      </trkpt>
      <trkpt lat="45.93735" lon="4.72384">
        <ele>171</ele>
        <time>2018-06-26T10:53:44Z</time>
      </trkpt>
      <trkpt lat="45.93731" lon="4.72381">
        <ele>171</ele>
        <time>2018-06-26T10:53:45Z</time>
      </trkpt>
      <trkpt lat="45.93724" lon="4.72373">
        <ele>172</ele>
        <time>2018-06-26T10:53:47Z</time>
      </trkpt>
      <trkpt lat="45.9372" lon="4.72368">
        <ele>172</ele>
        <time>2018-06-26T10:53:48Z</time>
      </trkpt>
      <trkpt lat="45.93717" lon="4.72365">
        <ele>172</ele>
        <time>2018-06-26T10:53:49Z</time>
      </trkpt>
      <trkpt lat="45.93713" lon="4.72361">
        <ele>172</ele>
        <time>2018-06-26T10:53:50Z</time>
      </trkpt>
      <trkpt lat="45.93709" lon="4.72358">
        <ele>172</ele>
        <time>2018-06-26T10:53:51Z</time>
      </trkpt>
      <trkpt lat="45.93705" lon="4.72354">
        <ele>171</ele>
        <time>2018-06-26T10:53:52Z</time>
      </trkpt>
      <trkpt lat="45.937" lon="4.72348">
        <ele>171</ele>
        <time>2018-06-26T10:53:53Z</time>
      </trkpt>
      <trkpt lat="45.93696" lon="4.72344">
        <ele>171</ele>
        <time>2018-06-26T10:53:54Z</time>
      </trkpt>
      <trkpt lat="45.93692" lon="4.7234">
        <ele>171</ele>
        <time>2018-06-26T10:53:55Z</time>
      </trkpt>
      <trkpt lat="45.93686" lon="4.72342">
        <ele>171</ele>
        <time>2018-06-26T10:53:57Z</time>
      </trkpt>
      <trkpt lat="45.9368" lon="4.72334">
        <ele>171</ele>
        <time>2018-06-26T10:53:58Z</time>
      </trkpt>
      <trkpt lat="45.93675" lon="4.72328">
        <ele>171</ele>
        <time>2018-06-26T10:53:59Z</time>
      </trkpt>
      <trkpt lat="45.93671" lon="4.72321">
        <ele>171</ele>
        <time>2018-06-26T10:54:00Z</time>
      </trkpt>
      <trkpt lat="45.93666" lon="4.72316">
        <ele>172</ele>
        <time>2018-06-26T10:54:01Z</time>
      </trkpt>
      <trkpt lat="45.93663" lon="4.72312">
        <ele>172</ele>
        <time>2018-06-26T10:54:02Z</time>
      </trkpt>
      <trkpt lat="45.93658" lon="4.72309">
        <ele>172</ele>
        <time>2018-06-26T10:54:03Z</time>
      </trkpt>
      <trkpt lat="45.93652" lon="4.72301">
        <ele>172</ele>
        <time>2018-06-26T10:54:05Z</time>
      </trkpt>
      <trkpt lat="45.93648" lon="4.72298">
        <ele>172</ele>
        <time>2018-06-26T10:54:06Z</time>
      </trkpt>
      <trkpt lat="45.93642" lon="4.72291">
        <ele>172</ele>
        <time>2018-06-26T10:54:08Z</time>
      </trkpt>
      <trkpt lat="45.93639" lon="4.72287">
        <ele>172</ele>
        <time>2018-06-26T10:54:09Z</time>
      </trkpt>
      <trkpt lat="45.93632" lon="4.72279">
        <ele>172</ele>
        <time>2018-06-26T10:54:11Z</time>
      </trkpt>
      <trkpt lat="45.93626" lon="4.72275">
        <ele>172</ele>
        <time>2018-06-26T10:54:12Z</time>
      </trkpt>
      <trkpt lat="45.93619" lon="4.72267">
        <ele>172</ele>
        <time>2018-06-26T10:54:14Z</time>
      </trkpt>
      <trkpt lat="45.93614" lon="4.72263">
        <ele>172</ele>
        <time>2018-06-26T10:54:15Z</time>
      </trkpt>
      <trkpt lat="45.93608" lon="4.72255">
        <ele>173</ele>
        <time>2018-06-26T10:54:17Z</time>
      </trkpt>
      <trkpt lat="45.93604" lon="4.7225">
        <ele>173</ele>
        <time>2018-06-26T10:54:18Z</time>
      </trkpt>
      <trkpt lat="45.93599" lon="4.72246">
        <ele>173</ele>
        <time>2018-06-26T10:54:19Z</time>
      </trkpt>
      <trkpt lat="45.93596" lon="4.72244">
        <ele>173</ele>
        <time>2018-06-26T10:54:20Z</time>
      </trkpt>
      <trkpt lat="45.93589" lon="4.72236">
        <ele>173</ele>
        <time>2018-06-26T10:54:22Z</time>
      </trkpt>
      <trkpt lat="45.93587" lon="4.72231">
        <ele>173</ele>
        <time>2018-06-26T10:54:23Z</time>
      </trkpt>
      <trkpt lat="45.93582" lon="4.72228">
        <ele>173</ele>
        <time>2018-06-26T10:54:24Z</time>
      </trkpt>
      <trkpt lat="45.93576" lon="4.72226">
        <ele>173</ele>
        <time>2018-06-26T10:54:25Z</time>
      </trkpt>
      <trkpt lat="45.93569" lon="4.72222">
        <ele>173</ele>
        <time>2018-06-26T10:54:28Z</time>
      </trkpt>
      <trkpt lat="45.93568" lon="4.72221">
        <ele>173</ele>
        <time>2018-06-26T10:54:29Z</time>
      </trkpt>
      <trkpt lat="45.93561" lon="4.72217">
        <ele>173</ele>
        <time>2018-06-26T10:54:39Z</time>
      </trkpt>
      <trkpt lat="45.93555" lon="4.72218">
        <ele>173</ele>
        <time>2018-06-26T10:54:40Z</time>
      </trkpt>
      <trkpt lat="45.93548" lon="4.72226">
        <ele>172</ele>
        <time>2018-06-26T10:54:44Z</time>
      </trkpt>
      <trkpt lat="45.93547" lon="4.72229">
        <ele>172</ele>
        <time>2018-06-26T10:54:45Z</time>
      </trkpt>
      <trkpt lat="45.93543" lon="4.72237">
        <ele>172</ele>
        <time>2018-06-26T10:54:47Z</time>
      </trkpt>
      <trkpt lat="45.93541" lon="4.72241">
        <ele>172</ele>
        <time>2018-06-26T10:54:48Z</time>
      </trkpt>
      <trkpt lat="45.93537" lon="4.72248">
        <ele>172</ele>
        <time>2018-06-26T10:54:50Z</time>
      </trkpt>
      <trkpt lat="45.93532" lon="4.7226">
        <ele>172</ele>
        <time>2018-06-26T10:54:51Z</time>
      </trkpt>
      <trkpt lat="45.93527" lon="4.72271">
        <ele>172</ele>
        <time>2018-06-26T10:54:53Z</time>
      </trkpt>
      <trkpt lat="45.93524" lon="4.72278">
        <ele>172</ele>
        <time>2018-06-26T10:54:54Z</time>
      </trkpt>
      <trkpt lat="45.93522" lon="4.72285">
        <ele>172</ele>
        <time>2018-06-26T10:54:55Z</time>
      </trkpt>
      <trkpt lat="45.93518" lon="4.7229">
        <ele>172</ele>
        <time>2018-06-26T10:54:56Z</time>
      </trkpt>
      <trkpt lat="45.93515" lon="4.72297">
        <ele>172</ele>
        <time>2018-06-26T10:54:57Z</time>
      </trkpt>
      <trkpt lat="45.93511" lon="4.72303">
        <ele>172</ele>
        <time>2018-06-26T10:54:58Z</time>
      </trkpt>
      <trkpt lat="45.93507" lon="4.72309">
        <ele>173</ele>
        <time>2018-06-26T10:54:59Z</time>
      </trkpt>
      <trkpt lat="45.93502" lon="4.72316">
        <ele>173</ele>
        <time>2018-06-26T10:55:00Z</time>
      </trkpt>
      <trkpt lat="45.93498" lon="4.72323">
        <ele>173</ele>
        <time>2018-06-26T10:55:01Z</time>
      </trkpt>
      <trkpt lat="45.93493" lon="4.72329">
        <ele>173</ele>
        <time>2018-06-26T10:55:02Z</time>
      </trkpt>
      <trkpt lat="45.93488" lon="4.72337">
        <ele>173</ele>
        <time>2018-06-26T10:55:03Z</time>
      </trkpt>
      <trkpt lat="45.93484" lon="4.72342">
        <ele>173</ele>
        <time>2018-06-26T10:55:04Z</time>
      </trkpt>
      <trkpt lat="45.9348" lon="4.72346">
        <ele>173</ele>
        <time>2018-06-26T10:55:05Z</time>
      </trkpt>
      <trkpt lat="45.93476" lon="4.72351">
        <ele>173</ele>
        <time>2018-06-26T10:55:06Z</time>
      </trkpt>
      <trkpt lat="45.9347" lon="4.72357">
        <ele>173</ele>
        <time>2018-06-26T10:55:07Z</time>
      </trkpt>
      <trkpt lat="45.93466" lon="4.72364">
        <ele>173</ele>
        <time>2018-06-26T10:55:08Z</time>
      </trkpt>
      <trkpt lat="45.93462" lon="4.72369">
        <ele>173</ele>
        <time>2018-06-26T10:55:09Z</time>
      </trkpt>
      <trkpt lat="45.93456" lon="4.72375">
        <ele>173</ele>
        <time>2018-06-26T10:55:10Z</time>
      </trkpt>
      <trkpt lat="45.93451" lon="4.7238">
        <ele>173</ele>
        <time>2018-06-26T10:55:11Z</time>
      </trkpt>
      <trkpt lat="45.93447" lon="4.72385">
        <ele>173</ele>
        <time>2018-06-26T10:55:12Z</time>
      </trkpt>
      <trkpt lat="45.93441" lon="4.72389">
        <ele>173</ele>
        <time>2018-06-26T10:55:13Z</time>
      </trkpt>
      <trkpt lat="45.93437" lon="4.72393">
        <ele>173</ele>
        <time>2018-06-26T10:55:14Z</time>
      </trkpt>
      <trkpt lat="45.93432" lon="4.72396">
        <ele>173</ele>
        <time>2018-06-26T10:55:15Z</time>
      </trkpt>
      <trkpt lat="45.93426" lon="4.72398">
        <ele>174</ele>
        <time>2018-06-26T10:55:16Z</time>
      </trkpt>
      <trkpt lat="45.9342" lon="4.72401">
        <ele>174</ele>
        <time>2018-06-26T10:55:17Z</time>
      </trkpt>
      <trkpt lat="45.93414" lon="4.72403">
        <ele>174</ele>
        <time>2018-06-26T10:55:18Z</time>
      </trkpt>
      <trkpt lat="45.93409" lon="4.72405">
        <ele>174</ele>
        <time>2018-06-26T10:55:19Z</time>
      </trkpt>
      <trkpt lat="45.93403" lon="4.72406">
        <ele>174</ele>
        <time>2018-06-26T10:55:20Z</time>
      </trkpt>
      <trkpt lat="45.93397" lon="4.72405">
        <ele>174</ele>
        <time>2018-06-26T10:55:21Z</time>
      </trkpt>
      <trkpt lat="45.93392" lon="4.72404">
        <ele>174</ele>
        <time>2018-06-26T10:55:22Z</time>
      </trkpt>
      <trkpt lat="45.93387" lon="4.72407">
        <ele>174</ele>
        <time>2018-06-26T10:55:23Z</time>
      </trkpt>
      <trkpt lat="45.93381" lon="4.72409">
        <ele>174</ele>
        <time>2018-06-26T10:55:24Z</time>
      </trkpt>
      <trkpt lat="45.9338" lon="4.72417">
        <ele>173</ele>
        <time>2018-06-26T10:55:25Z</time>
      </trkpt>
      <trkpt lat="45.93382" lon="4.72423">
        <ele>173</ele>
        <time>2018-06-26T10:55:26Z</time>
      </trkpt>
      <trkpt lat="45.93382" lon="4.72431">
        <ele>173</ele>
        <time>2018-06-26T10:55:27Z</time>
      </trkpt>
      <trkpt lat="45.93385" lon="4.72437">
        <ele>173</ele>
        <time>2018-06-26T10:55:28Z</time>
      </trkpt>
      <trkpt lat="45.93388" lon="4.72442">
        <ele>173</ele>
        <time>2018-06-26T10:55:29Z</time>
      </trkpt>
      <trkpt lat="45.93388" lon="4.7245">
        <ele>173</ele>
        <time>2018-06-26T10:55:30Z</time>
      </trkpt>
      <trkpt lat="45.93388" lon="4.72457">
        <ele>173</ele>
        <time>2018-06-26T10:55:31Z</time>
      </trkpt>
      <trkpt lat="45.93386" lon="4.72463">
        <ele>173</ele>
        <time>2018-06-26T10:55:32Z</time>
      </trkpt>
      <trkpt lat="45.93383" lon="4.7247">
        <ele>173</ele>
        <time>2018-06-26T10:55:33Z</time>
      </trkpt>
      <trkpt lat="45.93379" lon="4.72476">
        <ele>173</ele>
        <time>2018-06-26T10:55:34Z</time>
      </trkpt>
      <trkpt lat="45.93375" lon="4.72481">
        <ele>173</ele>
        <time>2018-06-26T10:55:35Z</time>
      </trkpt>
      <trkpt lat="45.9337" lon="4.72487">
        <ele>173</ele>
        <time>2018-06-26T10:55:36Z</time>
      </trkpt>
      <trkpt lat="45.93365" lon="4.72492">
        <ele>173</ele>
        <time>2018-06-26T10:55:37Z</time>
      </trkpt>
      <trkpt lat="45.93361" lon="4.72498">
        <ele>173</ele>
        <time>2018-06-26T10:55:38Z</time>
      </trkpt>
      <trkpt lat="45.93355" lon="4.72503">
        <ele>172</ele>
        <time>2018-06-26T10:55:40Z</time>
      </trkpt>
      <trkpt lat="45.93351" lon="4.72508">
        <ele>172</ele>
        <time>2018-06-26T10:55:41Z</time>
      </trkpt>
      <trkpt lat="45.93346" lon="4.72514">
        <ele>172</ele>
        <time>2018-06-26T10:55:42Z</time>
      </trkpt>
      <trkpt lat="45.93341" lon="4.72519">
        <ele>172</ele>
        <time>2018-06-26T10:55:43Z</time>
      </trkpt>
      <trkpt lat="45.93337" lon="4.72525">
        <ele>172</ele>
        <time>2018-06-26T10:55:44Z</time>
      </trkpt>
      <trkpt lat="45.93332" lon="4.72531">
        <ele>172</ele>
        <time>2018-06-26T10:55:45Z</time>
      </trkpt>
      <trkpt lat="45.93327" lon="4.72536">
        <ele>172</ele>
        <time>2018-06-26T10:55:46Z</time>
      </trkpt>
      <trkpt lat="45.93322" lon="4.72541">
        <ele>172</ele>
        <time>2018-06-26T10:55:47Z</time>
      </trkpt>
      <trkpt lat="45.93318" lon="4.72544">
        <ele>172</ele>
        <time>2018-06-26T10:55:48Z</time>
      </trkpt>
      <trkpt lat="45.93313" lon="4.72551">
        <ele>172</ele>
        <time>2018-06-26T10:55:49Z</time>
      </trkpt>
      <trkpt lat="45.93308" lon="4.72556">
        <ele>172</ele>
        <time>2018-06-26T10:55:50Z</time>
      </trkpt>
      <trkpt lat="45.93305" lon="4.72561">
        <ele>172</ele>
        <time>2018-06-26T10:55:51Z</time>
      </trkpt>
      <trkpt lat="45.933" lon="4.72567">
        <ele>172</ele>
        <time>2018-06-26T10:55:52Z</time>
      </trkpt>
      <trkpt lat="45.93297" lon="4.72571">
        <ele>171</ele>
        <time>2018-06-26T10:55:53Z</time>
      </trkpt>
      <trkpt lat="45.93292" lon="4.72576">
        <ele>171</ele>
        <time>2018-06-26T10:55:54Z</time>
      </trkpt>
      <trkpt lat="45.93287" lon="4.72582">
        <ele>171</ele>
        <time>2018-06-26T10:55:55Z</time>
      </trkpt>
      <trkpt lat="45.93283" lon="4.72588">
        <ele>170</ele>
        <time>2018-06-26T10:55:56Z</time>
      </trkpt>
      <trkpt lat="45.93279" lon="4.72592">
        <ele>170</ele>
        <time>2018-06-26T10:55:57Z</time>
      </trkpt>
      <trkpt lat="45.93275" lon="4.72597">
        <ele>170</ele>
        <time>2018-06-26T10:55:58Z</time>
      </trkpt>
      <trkpt lat="45.9327" lon="4.72603">
        <ele>170</ele>
        <time>2018-06-26T10:55:59Z</time>
      </trkpt>
      <trkpt lat="45.93266" lon="4.72608">
        <ele>170</ele>
        <time>2018-06-26T10:56:00Z</time>
      </trkpt>
      <trkpt lat="45.93261" lon="4.72614">
        <ele>170</ele>
        <time>2018-06-26T10:56:01Z</time>
      </trkpt>
      <trkpt lat="45.93256" lon="4.7262">
        <ele>170</ele>
        <time>2018-06-26T10:56:02Z</time>
      </trkpt>
      <trkpt lat="45.93252" lon="4.72625">
        <ele>170</ele>
        <time>2018-06-26T10:56:03Z</time>
      </trkpt>
      <trkpt lat="45.93247" lon="4.72631">
        <ele>170</ele>
        <time>2018-06-26T10:56:04Z</time>
      </trkpt>
      <trkpt lat="45.9324" lon="4.72637">
        <ele>170</ele>
        <time>2018-06-26T10:56:05Z</time>
      </trkpt>
      <trkpt lat="45.93234" lon="4.72644">
        <ele>170</ele>
        <time>2018-06-26T10:56:06Z</time>
      </trkpt>
      <trkpt lat="45.9323" lon="4.72649">
        <ele>170</ele>
        <time>2018-06-26T10:56:07Z</time>
      </trkpt>
      <trkpt lat="45.93226" lon="4.72653">
        <ele>170</ele>
        <time>2018-06-26T10:56:08Z</time>
      </trkpt>
      <trkpt lat="45.93221" lon="4.72659">
        <ele>170</ele>
        <time>2018-06-26T10:56:09Z</time>
      </trkpt>
      <trkpt lat="45.93216" lon="4.72662">
        <ele>170</ele>
        <time>2018-06-26T10:56:10Z</time>
      </trkpt>
      <trkpt lat="45.93211" lon="4.72667">
        <ele>169</ele>
        <time>2018-06-26T10:56:11Z</time>
      </trkpt>
      <trkpt lat="45.93207" lon="4.72672">
        <ele>169</ele>
        <time>2018-06-26T10:56:12Z</time>
      </trkpt>
      <trkpt lat="45.93202" lon="4.72678">
        <ele>169</ele>
        <time>2018-06-26T10:56:13Z</time>
      </trkpt>
      <trkpt lat="45.93198" lon="4.72683">
        <ele>169</ele>
        <time>2018-06-26T10:56:14Z</time>
      </trkpt>
      <trkpt lat="45.93195" lon="4.72685">
        <ele>169</ele>
        <time>2018-06-26T10:56:15Z</time>
      </trkpt>
      <trkpt lat="45.93192" lon="4.72691">
        <ele>169</ele>
        <time>2018-06-26T10:56:16Z</time>
      </trkpt>
      <trkpt lat="45.93187" lon="4.72697">
        <ele>169</ele>
        <time>2018-06-26T10:56:17Z</time>
      </trkpt>
      <trkpt lat="45.93182" lon="4.72706">
        <ele>169</ele>
        <time>2018-06-26T10:56:18Z</time>
      </trkpt>
      <trkpt lat="45.93177" lon="4.72711">
        <ele>169</ele>
        <time>2018-06-26T10:56:19Z</time>
      </trkpt>
      <trkpt lat="45.93173" lon="4.72717">
        <ele>170</ele>
        <time>2018-06-26T10:56:20Z</time>
      </trkpt>
      <trkpt lat="45.93168" lon="4.72723">
        <ele>170</ele>
        <time>2018-06-26T10:56:21Z</time>
      </trkpt>
      <trkpt lat="45.93163" lon="4.72729">
        <ele>170</ele>
        <time>2018-06-26T10:56:22Z</time>
      </trkpt>
      <trkpt lat="45.93157" lon="4.72735">
        <ele>170</ele>
        <time>2018-06-26T10:56:23Z</time>
      </trkpt>
      <trkpt lat="45.93152" lon="4.72741">
        <ele>170</ele>
        <time>2018-06-26T10:56:24Z</time>
      </trkpt>
      <trkpt lat="45.93146" lon="4.72745">
        <ele>170</ele>
        <time>2018-06-26T10:56:25Z</time>
      </trkpt>
      <trkpt lat="45.93141" lon="4.72753">
        <ele>171</ele>
        <time>2018-06-26T10:56:26Z</time>
      </trkpt>
      <trkpt lat="45.93135" lon="4.72759">
        <ele>171</ele>
        <time>2018-06-26T10:56:27Z</time>
      </trkpt>
      <trkpt lat="45.9313" lon="4.72767">
        <ele>171</ele>
        <time>2018-06-26T10:56:28Z</time>
      </trkpt>
      <trkpt lat="45.93125" lon="4.72775">
        <ele>171</ele>
        <time>2018-06-26T10:56:29Z</time>
      </trkpt>
      <trkpt lat="45.9312" lon="4.72781">
        <ele>171</ele>
        <time>2018-06-26T10:56:30Z</time>
      </trkpt>
      <trkpt lat="45.93114" lon="4.72788">
        <ele>171</ele>
        <time>2018-06-26T10:56:31Z</time>
      </trkpt>
      <trkpt lat="45.93109" lon="4.72794">
        <ele>171</ele>
        <time>2018-06-26T10:56:32Z</time>
      </trkpt>
      <trkpt lat="45.93104" lon="4.72799">
        <ele>171</ele>
        <time>2018-06-26T10:56:33Z</time>
      </trkpt>
      <trkpt lat="45.93101" lon="4.72805">
        <ele>171</ele>
        <time>2018-06-26T10:56:34Z</time>
      </trkpt>
      <trkpt lat="45.93097" lon="4.7281">
        <ele>172</ele>
        <time>2018-06-26T10:56:35Z</time>
      </trkpt>
      <trkpt lat="45.93091" lon="4.72815">
        <ele>172</ele>
        <time>2018-06-26T10:56:36Z</time>
      </trkpt>
      <trkpt lat="45.93086" lon="4.7282">
        <ele>172</ele>
        <time>2018-06-26T10:56:37Z</time>
      </trkpt>
      <trkpt lat="45.93081" lon="4.72825">
        <ele>173</ele>
        <time>2018-06-26T10:56:39Z</time>
      </trkpt>
      <trkpt lat="45.93072" lon="4.72836">
        <ele>173</ele>
        <time>2018-06-26T10:56:40Z</time>
      </trkpt>
      <trkpt lat="45.93062" lon="4.72844">
        <ele>172</ele>
        <time>2018-06-26T10:56:42Z</time>
      </trkpt>
      <trkpt lat="45.93058" lon="4.72846">
        <ele>172</ele>
        <time>2018-06-26T10:56:43Z</time>
      </trkpt>
      <trkpt lat="45.93053" lon="4.72851">
        <ele>172</ele>
        <time>2018-06-26T10:56:44Z</time>
      </trkpt>
      <trkpt lat="45.93043" lon="4.72853">
        <ele>172</ele>
        <time>2018-06-26T10:56:45Z</time>
      </trkpt>
      <trkpt lat="45.93041" lon="4.72866">
        <ele>172</ele>
        <time>2018-06-26T10:56:46Z</time>
      </trkpt>
      <trkpt lat="45.93037" lon="4.72872">
        <ele>172</ele>
        <time>2018-06-26T10:56:47Z</time>
      </trkpt>
      <trkpt lat="45.93032" lon="4.72877">
        <ele>172</ele>
        <time>2018-06-26T10:56:48Z</time>
      </trkpt>
      <trkpt lat="45.93028" lon="4.72883">
        <ele>172</ele>
        <time>2018-06-26T10:56:49Z</time>
      </trkpt>
      <trkpt lat="45.93023" lon="4.72889">
        <ele>172</ele>
        <time>2018-06-26T10:56:50Z</time>
      </trkpt>
      <trkpt lat="45.93018" lon="4.72895">
        <ele>172</ele>
        <time>2018-06-26T10:56:51Z</time>
      </trkpt>
      <trkpt lat="45.93013" lon="4.72901">
        <ele>172</ele>
        <time>2018-06-26T10:56:52Z</time>
      </trkpt>
      <trkpt lat="45.93009" lon="4.72907">
        <ele>171</ele>
        <time>2018-06-26T10:56:53Z</time>
      </trkpt>
      <trkpt lat="45.93003" lon="4.72912">
        <ele>171</ele>
        <time>2018-06-26T10:56:54Z</time>
      </trkpt>
      <trkpt lat="45.92999" lon="4.72917">
        <ele>171</ele>
        <time>2018-06-26T10:56:55Z</time>
      </trkpt>
      <trkpt lat="45.92995" lon="4.72922">
        <ele>171</ele>
        <time>2018-06-26T10:56:56Z</time>
      </trkpt>
      <trkpt lat="45.9299" lon="4.72928">
        <ele>171</ele>
        <time>2018-06-26T10:56:57Z</time>
      </trkpt>
      <trkpt lat="45.92986" lon="4.72932">
        <ele>171</ele>
        <time>2018-06-26T10:56:58Z</time>
      </trkpt>
      <trkpt lat="45.92982" lon="4.72937">
        <ele>171</ele>
        <time>2018-06-26T10:56:59Z</time>
      </trkpt>
      <trkpt lat="45.92978" lon="4.72942">
        <ele>171</ele>
        <time>2018-06-26T10:57:00Z</time>
      </trkpt>
      <trkpt lat="45.92975" lon="4.72947">
        <ele>171</ele>
        <time>2018-06-26T10:57:01Z</time>
      </trkpt>
      <trkpt lat="45.92971" lon="4.72951">
        <ele>171</ele>
        <time>2018-06-26T10:57:02Z</time>
      </trkpt>
      <trkpt lat="45.92966" lon="4.72956">
        <ele>171</ele>
        <time>2018-06-26T10:57:03Z</time>
      </trkpt>
      <trkpt lat="45.92962" lon="4.72961">
        <ele>171</ele>
        <time>2018-06-26T10:57:04Z</time>
      </trkpt>
      <trkpt lat="45.92957" lon="4.72966">
        <ele>171</ele>
        <time>2018-06-26T10:57:05Z</time>
      </trkpt>
      <trkpt lat="45.92953" lon="4.72972">
        <ele>171</ele>
        <time>2018-06-26T10:57:06Z</time>
      </trkpt>
      <trkpt lat="45.92948" lon="4.72977">
        <ele>171</ele>
        <time>2018-06-26T10:57:07Z</time>
      </trkpt>
      <trkpt lat="45.92944" lon="4.72983">
        <ele>171</ele>
        <time>2018-06-26T10:57:08Z</time>
      </trkpt>
      <trkpt lat="45.92939" lon="4.72988">
        <ele>171</ele>
        <time>2018-06-26T10:57:09Z</time>
      </trkpt>
      <trkpt lat="45.92935" lon="4.72997">
        <ele>172</ele>
        <time>2018-06-26T10:57:10Z</time>
      </trkpt>
      <trkpt lat="45.9293" lon="4.73004">
        <ele>172</ele>
        <time>2018-06-26T10:57:11Z</time>
      </trkpt>
      <trkpt lat="45.92924" lon="4.73009">
        <ele>172</ele>
        <time>2018-06-26T10:57:12Z</time>
      </trkpt>
      <trkpt lat="45.9292" lon="4.73015">
        <ele>172</ele>
        <time>2018-06-26T10:57:13Z</time>
      </trkpt>
      <trkpt lat="45.92917" lon="4.73021">
        <ele>172</ele>
        <time>2018-06-26T10:57:14Z</time>
      </trkpt>
      <trkpt lat="45.92912" lon="4.73026">
        <ele>172</ele>
        <time>2018-06-26T10:57:15Z</time>
      </trkpt>
      <trkpt lat="45.92909" lon="4.73032">
        <ele>172</ele>
        <time>2018-06-26T10:57:16Z</time>
      </trkpt>
      <trkpt lat="45.92905" lon="4.73044">
        <ele>172</ele>
        <time>2018-06-26T10:57:18Z</time>
      </trkpt>
      <trkpt lat="45.92902" lon="4.73049">
        <ele>172</ele>
        <time>2018-06-26T10:57:19Z</time>
      </trkpt>
      <trkpt lat="45.92896" lon="4.73058">
        <ele>172</ele>
        <time>2018-06-26T10:57:21Z</time>
      </trkpt>
      <trkpt lat="45.92892" lon="4.73063">
        <ele>172</ele>
        <time>2018-06-26T10:57:22Z</time>
      </trkpt>
      <trkpt lat="45.92889" lon="4.73069">
        <ele>172</ele>
        <time>2018-06-26T10:57:23Z</time>
      </trkpt>
      <trkpt lat="45.92885" lon="4.73074">
        <ele>172</ele>
        <time>2018-06-26T10:57:24Z</time>
      </trkpt>
      <trkpt lat="45.92881" lon="4.73079">
        <ele>172</ele>
        <time>2018-06-26T10:57:25Z</time>
      </trkpt>
      <trkpt lat="45.92877" lon="4.73083">
        <ele>172</ele>
        <time>2018-06-26T10:57:26Z</time>
      </trkpt>
      <trkpt lat="45.92874" lon="4.73088">
        <ele>172</ele>
        <time>2018-06-26T10:57:27Z</time>
      </trkpt>
      <trkpt lat="45.9287" lon="4.73093">
        <ele>172</ele>
        <time>2018-06-26T10:57:28Z</time>
      </trkpt>
      <trkpt lat="45.92867" lon="4.73099">
        <ele>172</ele>
        <time>2018-06-26T10:57:29Z</time>
      </trkpt>
      <trkpt lat="45.92863" lon="4.73104">
        <ele>171</ele>
        <time>2018-06-26T10:57:30Z</time>
      </trkpt>
      <trkpt lat="45.92854" lon="4.73106">
        <ele>171</ele>
        <time>2018-06-26T10:57:32Z</time>
      </trkpt>
      <trkpt lat="45.92852" lon="4.73102">
        <ele>171</ele>
        <time>2018-06-26T10:57:33Z</time>
      </trkpt>
      <trkpt lat="45.9285" lon="4.73097">
        <ele>171</ele>
        <time>2018-06-26T10:57:34Z</time>
      </trkpt>
      <trkpt lat="45.92852" lon="4.73089">
        <ele>171</ele>
        <time>2018-06-26T10:57:35Z</time>
      </trkpt>
      <trkpt lat="45.92848" lon="4.73079">
        <ele>171</ele>
        <time>2018-06-26T10:57:37Z</time>
      </trkpt>
      <trkpt lat="45.92847" lon="4.73071">
        <ele>171</ele>
        <time>2018-06-26T10:57:38Z</time>
      </trkpt>
      <trkpt lat="45.92846" lon="4.73063">
        <ele>171</ele>
        <time>2018-06-26T10:57:39Z</time>
      </trkpt>
      <trkpt lat="45.92845" lon="4.73056">
        <ele>171</ele>
        <time>2018-06-26T10:57:40Z</time>
      </trkpt>
      <trkpt lat="45.92844" lon="4.73048">
        <ele>171</ele>
        <time>2018-06-26T10:57:41Z</time>
      </trkpt>
      <trkpt lat="45.92842" lon="4.73042">
        <ele>171</ele>
        <time>2018-06-26T10:57:42Z</time>
      </trkpt>
      <trkpt lat="45.9284" lon="4.73034">
        <ele>171</ele>
        <time>2018-06-26T10:57:43Z</time>
      </trkpt>
      <trkpt lat="45.92839" lon="4.73028">
        <ele>171</ele>
        <time>2018-06-26T10:57:44Z</time>
      </trkpt>
      <trkpt lat="45.92837" lon="4.7302">
        <ele>171</ele>
        <time>2018-06-26T10:57:45Z</time>
      </trkpt>
      <trkpt lat="45.92836" lon="4.73014">
        <ele>171</ele>
        <time>2018-06-26T10:57:46Z</time>
      </trkpt>
      <trkpt lat="45.92835" lon="4.73007">
        <ele>170</ele>
        <time>2018-06-26T10:57:47Z</time>
      </trkpt>
      <trkpt lat="45.92833" lon="4.73">
        <ele>170</ele>
        <time>2018-06-26T10:57:48Z</time>
      </trkpt>
      <trkpt lat="45.92832" lon="4.72993">
        <ele>170</ele>
        <time>2018-06-26T10:57:49Z</time>
      </trkpt>
      <trkpt lat="45.92832" lon="4.72986">
        <ele>170</ele>
        <time>2018-06-26T10:57:50Z</time>
      </trkpt>
      <trkpt lat="45.92832" lon="4.72973">
        <ele>170</ele>
        <time>2018-06-26T10:57:52Z</time>
      </trkpt>
      <trkpt lat="45.92831" lon="4.72967">
        <ele>170</ele>
        <time>2018-06-26T10:57:53Z</time>
      </trkpt>
      <trkpt lat="45.92833" lon="4.72957">
        <ele>171</ele>
        <time>2018-06-26T10:57:55Z</time>
      </trkpt>
      <trkpt lat="45.92831" lon="4.7295">
        <ele>170</ele>
        <time>2018-06-26T10:57:56Z</time>
      </trkpt>
      <trkpt lat="45.92831" lon="4.72943">
        <ele>170</ele>
        <time>2018-06-26T10:57:57Z</time>
      </trkpt>
      <trkpt lat="45.9283" lon="4.72936">
        <ele>170</ele>
        <time>2018-06-26T10:57:58Z</time>
      </trkpt>
      <trkpt lat="45.92829" lon="4.72924">
        <ele>170</ele>
        <time>2018-06-26T10:58:00Z</time>
      </trkpt>
      <trkpt lat="45.92828" lon="4.72918">
        <ele>170</ele>
        <time>2018-06-26T10:58:01Z</time>
      </trkpt>
      <trkpt lat="45.92828" lon="4.72912">
        <ele>170</ele>
        <time>2018-06-26T10:58:02Z</time>
      </trkpt>
      <trkpt lat="45.92826" lon="4.72905">
        <ele>170</ele>
        <time>2018-06-26T10:58:03Z</time>
      </trkpt>
      <trkpt lat="45.92824" lon="4.72898">
        <ele>170</ele>
        <time>2018-06-26T10:58:04Z</time>
      </trkpt>
      <trkpt lat="45.92823" lon="4.72891">
        <ele>170</ele>
        <time>2018-06-26T10:58:05Z</time>
      </trkpt>
      <trkpt lat="45.92821" lon="4.72884">
        <ele>170</ele>
        <time>2018-06-26T10:58:06Z</time>
      </trkpt>
      <trkpt lat="45.9282" lon="4.72875">
        <ele>170</ele>
        <time>2018-06-26T10:58:07Z</time>
      </trkpt>
      <trkpt lat="45.92819" lon="4.72868">
        <ele>170</ele>
        <time>2018-06-26T10:58:08Z</time>
      </trkpt>
      <trkpt lat="45.92818" lon="4.72861">
        <ele>170</ele>
        <time>2018-06-26T10:58:09Z</time>
      </trkpt>
      <trkpt lat="45.92816" lon="4.72853">
        <ele>170</ele>
        <time>2018-06-26T10:58:10Z</time>
      </trkpt>
      <trkpt lat="45.92815" lon="4.72845">
        <ele>170</ele>
        <time>2018-06-26T10:58:11Z</time>
      </trkpt>
      <trkpt lat="45.92813" lon="4.72837">
        <ele>170</ele>
        <time>2018-06-26T10:58:12Z</time>
      </trkpt>
      <trkpt lat="45.92812" lon="4.7283">
        <ele>171</ele>
        <time>2018-06-26T10:58:13Z</time>
      </trkpt>
      <trkpt lat="45.92811" lon="4.72823">
        <ele>171</ele>
        <time>2018-06-26T10:58:14Z</time>
      </trkpt>
      <trkpt lat="45.92808" lon="4.72815">
        <ele>171</ele>
        <time>2018-06-26T10:58:15Z</time>
      </trkpt>
      <trkpt lat="45.92808" lon="4.72808">
        <ele>171</ele>
        <time>2018-06-26T10:58:16Z</time>
      </trkpt>
      <trkpt lat="45.92807" lon="4.72801">
        <ele>171</ele>
        <time>2018-06-26T10:58:17Z</time>
      </trkpt>
      <trkpt lat="45.92804" lon="4.72789">
        <ele>171</ele>
        <time>2018-06-26T10:58:19Z</time>
      </trkpt>
      <trkpt lat="45.92801" lon="4.72786">
        <ele>171</ele>
        <time>2018-06-26T10:58:20Z</time>
      </trkpt>
      <trkpt lat="45.92793" lon="4.72788">
        <ele>171</ele>
        <time>2018-06-26T10:58:22Z</time>
      </trkpt>
      <trkpt lat="45.92789" lon="4.7279">
        <ele>170</ele>
        <time>2018-06-26T10:58:23Z</time>
      </trkpt>
      <trkpt lat="45.92783" lon="4.72793">
        <ele>170</ele>
        <time>2018-06-26T10:58:24Z</time>
      </trkpt>
      <trkpt lat="45.92781" lon="4.72797">
        <ele>170</ele>
        <time>2018-06-26T10:58:25Z</time>
      </trkpt>
      <trkpt lat="45.92776" lon="4.728">
        <ele>170</ele>
        <time>2018-06-26T10:58:26Z</time>
      </trkpt>
      <trkpt lat="45.92771" lon="4.72803">
        <ele>170</ele>
        <time>2018-06-26T10:58:27Z</time>
      </trkpt>
      <trkpt lat="45.92766" lon="4.72807">
        <ele>170</ele>
        <time>2018-06-26T10:58:28Z</time>
      </trkpt>
      <trkpt lat="45.92761" lon="4.72811">
        <ele>170</ele>
        <time>2018-06-26T10:58:29Z</time>
      </trkpt>
      <trkpt lat="45.92756" lon="4.72816">
        <ele>170</ele>
        <time>2018-06-26T10:58:30Z</time>
      </trkpt>
      <trkpt lat="45.92751" lon="4.7282">
        <ele>170</ele>
        <time>2018-06-26T10:58:31Z</time>
      </trkpt>
      <trkpt lat="45.92746" lon="4.72824">
        <ele>169</ele>
        <time>2018-06-26T10:58:32Z</time>
      </trkpt>
      <trkpt lat="45.9274" lon="4.72829">
        <ele>169</ele>
        <time>2018-06-26T10:58:33Z</time>
      </trkpt>
      <trkpt lat="45.92735" lon="4.72833">
        <ele>169</ele>
        <time>2018-06-26T10:58:34Z</time>
      </trkpt>
      <trkpt lat="45.9273" lon="4.72837">
        <ele>169</ele>
        <time>2018-06-26T10:58:35Z</time>
      </trkpt>
      <trkpt lat="45.92724" lon="4.72841">
        <ele>169</ele>
        <time>2018-06-26T10:58:36Z</time>
      </trkpt>
      <trkpt lat="45.92719" lon="4.72846">
        <ele>169</ele>
        <time>2018-06-26T10:58:37Z</time>
      </trkpt>
      <trkpt lat="45.92715" lon="4.72849">
        <ele>169</ele>
        <time>2018-06-26T10:58:38Z</time>
      </trkpt>
      <trkpt lat="45.9271" lon="4.72853">
        <ele>169</ele>
        <time>2018-06-26T10:58:39Z</time>
      </trkpt>
      <trkpt lat="45.92705" lon="4.72858">
        <ele>169</ele>
        <time>2018-06-26T10:58:40Z</time>
      </trkpt>
      <trkpt lat="45.927" lon="4.72862">
        <ele>169</ele>
        <time>2018-06-26T10:58:41Z</time>
      </trkpt>
      <trkpt lat="45.92696" lon="4.72869">
        <ele>169</ele>
        <time>2018-06-26T10:58:42Z</time>
      </trkpt>
      <trkpt lat="45.9269" lon="4.72873">
        <ele>169</ele>
        <time>2018-06-26T10:58:43Z</time>
      </trkpt>
      <trkpt lat="45.92683" lon="4.72875">
        <ele>169</ele>
        <time>2018-06-26T10:58:44Z</time>
      </trkpt>
      <trkpt lat="45.92678" lon="4.72878">
        <ele>170</ele>
        <time>2018-06-26T10:58:45Z</time>
      </trkpt>
      <trkpt lat="45.92673" lon="4.72883">
        <ele>170</ele>
        <time>2018-06-26T10:58:46Z</time>
      </trkpt>
      <trkpt lat="45.92668" lon="4.72887">
        <ele>170</ele>
        <time>2018-06-26T10:58:47Z</time>
      </trkpt>
      <trkpt lat="45.92663" lon="4.72891">
        <ele>170</ele>
        <time>2018-06-26T10:58:48Z</time>
      </trkpt>
      <trkpt lat="45.92658" lon="4.72895">
        <ele>170</ele>
        <time>2018-06-26T10:58:49Z</time>
      </trkpt>
      <trkpt lat="45.92654" lon="4.72899">
        <ele>170</ele>
        <time>2018-06-26T10:58:50Z</time>
      </trkpt>
      <trkpt lat="45.92648" lon="4.72902">
        <ele>170</ele>
        <time>2018-06-26T10:58:51Z</time>
      </trkpt>
      <trkpt lat="45.92644" lon="4.72908">
        <ele>170</ele>
        <time>2018-06-26T10:58:52Z</time>
      </trkpt>
      <trkpt lat="45.92638" lon="4.7291">
        <ele>169</ele>
        <time>2018-06-26T10:58:53Z</time>
      </trkpt>
      <trkpt lat="45.92633" lon="4.72915">
        <ele>169</ele>
        <time>2018-06-26T10:58:54Z</time>
      </trkpt>
      <trkpt lat="45.92627" lon="4.72917">
        <ele>170</ele>
        <time>2018-06-26T10:58:55Z</time>
      </trkpt>
      <trkpt lat="45.92623" lon="4.72922">
        <ele>169</ele>
        <time>2018-06-26T10:58:56Z</time>
      </trkpt>
      <trkpt lat="45.92618" lon="4.72925">
        <ele>169</ele>
        <time>2018-06-26T10:58:57Z</time>
      </trkpt>
      <trkpt lat="45.92613" lon="4.7293">
        <ele>169</ele>
        <time>2018-06-26T10:58:58Z</time>
      </trkpt>
      <trkpt lat="45.92608" lon="4.72936">
        <ele>169</ele>
        <time>2018-06-26T10:58:59Z</time>
      </trkpt>
      <trkpt lat="45.92603" lon="4.72941">
        <ele>169</ele>
        <time>2018-06-26T10:59:00Z</time>
      </trkpt>
      <trkpt lat="45.92598" lon="4.72945">
        <ele>169</ele>
        <time>2018-06-26T10:59:01Z</time>
      </trkpt>
      <trkpt lat="45.92593" lon="4.7295">
        <ele>169</ele>
        <time>2018-06-26T10:59:02Z</time>
      </trkpt>
      <trkpt lat="45.92592" lon="4.72955">
        <ele>169</ele>
        <time>2018-06-26T10:59:03Z</time>
      </trkpt>
      <trkpt lat="45.92587" lon="4.72961">
        <ele>169</ele>
        <time>2018-06-26T10:59:04Z</time>
      </trkpt>
      <trkpt lat="45.92583" lon="4.72966">
        <ele>169</ele>
        <time>2018-06-26T10:59:05Z</time>
      </trkpt>
      <trkpt lat="45.92579" lon="4.72969">
        <ele>169</ele>
        <time>2018-06-26T10:59:06Z</time>
      </trkpt>
      <trkpt lat="45.92575" lon="4.72974">
        <ele>169</ele>
        <time>2018-06-26T10:59:07Z</time>
      </trkpt>
      <trkpt lat="45.9257" lon="4.72978">
        <ele>169</ele>
        <time>2018-06-26T10:59:08Z</time>
      </trkpt>
      <trkpt lat="45.92565" lon="4.72983">
        <ele>169</ele>
        <time>2018-06-26T10:59:09Z</time>
      </trkpt>
      <trkpt lat="45.92561" lon="4.72988">
        <ele>169</ele>
        <time>2018-06-26T10:59:10Z</time>
      </trkpt>
      <trkpt lat="45.92555" lon="4.72993">
        <ele>169</ele>
        <time>2018-06-26T10:59:11Z</time>
      </trkpt>
      <trkpt lat="45.9255" lon="4.72999">
        <ele>169</ele>
        <time>2018-06-26T10:59:12Z</time>
      </trkpt>
      <trkpt lat="45.92545" lon="4.73003">
        <ele>169</ele>
        <time>2018-06-26T10:59:13Z</time>
      </trkpt>
      <trkpt lat="45.92539" lon="4.73009">
        <ele>169</ele>
        <time>2018-06-26T10:59:14Z</time>
      </trkpt>
      <trkpt lat="45.92535" lon="4.73014">
        <ele>169</ele>
        <time>2018-06-26T10:59:15Z</time>
      </trkpt>
      <trkpt lat="45.9253" lon="4.73018">
        <ele>169</ele>
        <time>2018-06-26T10:59:16Z</time>
      </trkpt>
      <trkpt lat="45.92526" lon="4.73022">
        <ele>169</ele>
        <time>2018-06-26T10:59:17Z</time>
      </trkpt>
      <trkpt lat="45.92521" lon="4.73026">
        <ele>169</ele>
        <time>2018-06-26T10:59:18Z</time>
      </trkpt>
      <trkpt lat="45.92516" lon="4.7303">
        <ele>169</ele>
        <time>2018-06-26T10:59:19Z</time>
      </trkpt>
      <trkpt lat="45.92511" lon="4.73033">
        <ele>169</ele>
        <time>2018-06-26T10:59:20Z</time>
      </trkpt>
      <trkpt lat="45.92507" lon="4.73036">
        <ele>169</ele>
        <time>2018-06-26T10:59:21Z</time>
      </trkpt>
      <trkpt lat="45.92502" lon="4.73042">
        <ele>170</ele>
        <time>2018-06-26T10:59:22Z</time>
      </trkpt>
      <trkpt lat="45.92497" lon="4.73045">
        <ele>170</ele>
        <time>2018-06-26T10:59:23Z</time>
      </trkpt>
      <trkpt lat="45.92492" lon="4.7305">
        <ele>170</ele>
        <time>2018-06-26T10:59:24Z</time>
      </trkpt>
      <trkpt lat="45.92486" lon="4.73055">
        <ele>170</ele>
        <time>2018-06-26T10:59:25Z</time>
      </trkpt>
      <trkpt lat="45.92481" lon="4.73059">
        <ele>170</ele>
        <time>2018-06-26T10:59:26Z</time>
      </trkpt>
      <trkpt lat="45.92476" lon="4.73065">
        <ele>170</ele>
        <time>2018-06-26T10:59:27Z</time>
      </trkpt>
      <trkpt lat="45.92471" lon="4.73069">
        <ele>170</ele>
        <time>2018-06-26T10:59:28Z</time>
      </trkpt>
      <trkpt lat="45.92465" lon="4.73075">
        <ele>170</ele>
        <time>2018-06-26T10:59:29Z</time>
      </trkpt>
      <trkpt lat="45.9246" lon="4.73079">
        <ele>170</ele>
        <time>2018-06-26T10:59:30Z</time>
      </trkpt>
      <trkpt lat="45.92455" lon="4.73084">
        <ele>170</ele>
        <time>2018-06-26T10:59:31Z</time>
      </trkpt>
      <trkpt lat="45.9245" lon="4.73088">
        <ele>170</ele>
        <time>2018-06-26T10:59:32Z</time>
      </trkpt>
      <trkpt lat="45.92445" lon="4.73091">
        <ele>170</ele>
        <time>2018-06-26T10:59:33Z</time>
      </trkpt>
      <trkpt lat="45.92439" lon="4.73093">
        <ele>171</ele>
        <time>2018-06-26T10:59:34Z</time>
      </trkpt>
      <trkpt lat="45.92435" lon="4.73098">
        <ele>171</ele>
        <time>2018-06-26T10:59:35Z</time>
      </trkpt>
      <trkpt lat="45.92427" lon="4.73104">
        <ele>171</ele>
        <time>2018-06-26T10:59:37Z</time>
      </trkpt>
      <trkpt lat="45.92423" lon="4.73106">
        <ele>171</ele>
        <time>2018-06-26T10:59:38Z</time>
      </trkpt>
      <trkpt lat="45.92419" lon="4.7311">
        <ele>170</ele>
        <time>2018-06-26T10:59:39Z</time>
      </trkpt>
      <trkpt lat="45.92414" lon="4.73114">
        <ele>171</ele>
        <time>2018-06-26T10:59:40Z</time>
      </trkpt>
      <trkpt lat="45.92409" lon="4.73124">
        <ele>171</ele>
        <time>2018-06-26T10:59:42Z</time>
      </trkpt>
      <trkpt lat="45.9241" lon="4.73131">
        <ele>171</ele>
        <time>2018-06-26T10:59:43Z</time>
      </trkpt>
      <trkpt lat="45.92409" lon="4.73139">
        <ele>171</ele>
        <time>2018-06-26T10:59:44Z</time>
      </trkpt>
      <trkpt lat="45.92409" lon="4.73144">
        <ele>171</ele>
        <time>2018-06-26T10:59:45Z</time>
      </trkpt>
      <trkpt lat="45.92409" lon="4.7315">
        <ele>171</ele>
        <time>2018-06-26T10:59:46Z</time>
      </trkpt>
      <trkpt lat="45.92409" lon="4.73158">
        <ele>170</ele>
        <time>2018-06-26T10:59:47Z</time>
      </trkpt>
      <trkpt lat="45.92408" lon="4.73167">
        <ele>170</ele>
        <time>2018-06-26T10:59:48Z</time>
      </trkpt>
      <trkpt lat="45.92408" lon="4.73175">
        <ele>171</ele>
        <time>2018-06-26T10:59:49Z</time>
      </trkpt>
      <trkpt lat="45.92407" lon="4.73183">
        <ele>171</ele>
        <time>2018-06-26T10:59:50Z</time>
      </trkpt>
      <trkpt lat="45.92406" lon="4.7319">
        <ele>171</ele>
        <time>2018-06-26T10:59:51Z</time>
      </trkpt>
      <trkpt lat="45.92407" lon="4.73198">
        <ele>171</ele>
        <time>2018-06-26T10:59:52Z</time>
      </trkpt>
      <trkpt lat="45.92407" lon="4.73206">
        <ele>171</ele>
        <time>2018-06-26T10:59:53Z</time>
      </trkpt>
      <trkpt lat="45.92408" lon="4.73215">
        <ele>171</ele>
        <time>2018-06-26T10:59:54Z</time>
      </trkpt>
      <trkpt lat="45.92408" lon="4.73222">
        <ele>171</ele>
        <time>2018-06-26T10:59:55Z</time>
      </trkpt>
      <trkpt lat="45.92408" lon="4.7323">
        <ele>171</ele>
        <time>2018-06-26T10:59:56Z</time>
      </trkpt>
      <trkpt lat="45.92409" lon="4.73238">
        <ele>171</ele>
        <time>2018-06-26T10:59:57Z</time>
      </trkpt>
      <trkpt lat="45.92409" lon="4.73245">
        <ele>171</ele>
        <time>2018-06-26T10:59:58Z</time>
      </trkpt>
      <trkpt lat="45.92408" lon="4.73253">
        <ele>171</ele>
        <time>2018-06-26T10:59:59Z</time>
      </trkpt>
      <trkpt lat="45.92409" lon="4.73259">
        <ele>171</ele>
        <time>2018-06-26T11:00:00Z</time>
      </trkpt>
      <trkpt lat="45.9241" lon="4.73268">
        <ele>171</ele>
        <time>2018-06-26T11:00:01Z</time>
      </trkpt>
      <trkpt lat="45.9241" lon="4.73276">
        <ele>171</ele>
        <time>2018-06-26T11:00:02Z</time>
      </trkpt>
      <trkpt lat="45.92412" lon="4.73284">
        <ele>171</ele>
        <time>2018-06-26T11:00:03Z</time>
      </trkpt>
      <trkpt lat="45.92413" lon="4.73291">
        <ele>171</ele>
        <time>2018-06-26T11:00:04Z</time>
      </trkpt>
      <trkpt lat="45.92413" lon="4.733">
        <ele>171</ele>
        <time>2018-06-26T11:00:05Z</time>
      </trkpt>
      <trkpt lat="45.92413" lon="4.73307">
        <ele>171</ele>
        <time>2018-06-26T11:00:06Z</time>
      </trkpt>
      <trkpt lat="45.92414" lon="4.73315">
        <ele>171</ele>
        <time>2018-06-26T11:00:07Z</time>
      </trkpt>
      <trkpt lat="45.92415" lon="4.73324">
        <ele>171</ele>
        <time>2018-06-26T11:00:08Z</time>
      </trkpt>
      <trkpt lat="45.92415" lon="4.73332">
        <ele>171</ele>
        <time>2018-06-26T11:00:09Z</time>
      </trkpt>
      <trkpt lat="45.92416" lon="4.7334">
        <ele>171</ele>
        <time>2018-06-26T11:00:10Z</time>
      </trkpt>
      <trkpt lat="45.92417" lon="4.73348">
        <ele>171</ele>
        <time>2018-06-26T11:00:11Z</time>
      </trkpt>
      <trkpt lat="45.92417" lon="4.73356">
        <ele>171</ele>
        <time>2018-06-26T11:00:12Z</time>
      </trkpt>
      <trkpt lat="45.92418" lon="4.73363">
        <ele>172</ele>
        <time>2018-06-26T11:00:13Z</time>
      </trkpt>
      <trkpt lat="45.92419" lon="4.7337">
        <ele>172</ele>
        <time>2018-06-26T11:00:14Z</time>
      </trkpt>
      <trkpt lat="45.9242" lon="4.73376">
        <ele>172</ele>
        <time>2018-06-26T11:00:15Z</time>
      </trkpt>
      <trkpt lat="45.92422" lon="4.73382">
        <ele>172</ele>
        <time>2018-06-26T11:00:16Z</time>
      </trkpt>
      <trkpt lat="45.92424" lon="4.73389">
        <ele>172</ele>
        <time>2018-06-26T11:00:17Z</time>
      </trkpt>
      <trkpt lat="45.92426" lon="4.73396">
        <ele>172</ele>
        <time>2018-06-26T11:00:18Z</time>
      </trkpt>
      <trkpt lat="45.92429" lon="4.73403">
        <ele>172</ele>
        <time>2018-06-26T11:00:19Z</time>
      </trkpt>
      <trkpt lat="45.92432" lon="4.73407">
        <ele>172</ele>
        <time>2018-06-26T11:00:20Z</time>
      </trkpt>
      <trkpt lat="45.92436" lon="4.73411">
        <ele>172</ele>
        <time>2018-06-26T11:00:21Z</time>
      </trkpt>
      <trkpt lat="45.9244" lon="4.73415">
        <ele>172</ele>
        <time>2018-06-26T11:00:22Z</time>
      </trkpt>
      <trkpt lat="45.92444" lon="4.73418">
        <ele>173</ele>
        <time>2018-06-26T11:00:23Z</time>
      </trkpt>
      <trkpt lat="45.92448" lon="4.7342">
        <ele>173</ele>
        <time>2018-06-26T11:00:24Z</time>
      </trkpt>
      <trkpt lat="45.92452" lon="4.73423">
        <ele>173</ele>
        <time>2018-06-26T11:00:25Z</time>
      </trkpt>
      <trkpt lat="45.92456" lon="4.73427">
        <ele>173</ele>
        <time>2018-06-26T11:00:26Z</time>
      </trkpt>
      <trkpt lat="45.92458" lon="4.73433">
        <ele>173</ele>
        <time>2018-06-26T11:00:27Z</time>
      </trkpt>
      <trkpt lat="45.9246" lon="4.7344">
        <ele>173</ele>
        <time>2018-06-26T11:00:28Z</time>
      </trkpt>
      <trkpt lat="45.92462" lon="4.73447">
        <ele>173</ele>
        <time>2018-06-26T11:00:29Z</time>
      </trkpt>
      <trkpt lat="45.92463" lon="4.73455">
        <ele>173</ele>
        <time>2018-06-26T11:00:30Z</time>
      </trkpt>
      <trkpt lat="45.92463" lon="4.73463">
        <ele>173</ele>
        <time>2018-06-26T11:00:31Z</time>
      </trkpt>
      <trkpt lat="45.92463" lon="4.73471">
        <ele>173</ele>
        <time>2018-06-26T11:00:32Z</time>
      </trkpt>
      <trkpt lat="45.92464" lon="4.73479">
        <ele>173</ele>
        <time>2018-06-26T11:00:33Z</time>
      </trkpt>
      <trkpt lat="45.92463" lon="4.73487">
        <ele>173</ele>
        <time>2018-06-26T11:00:34Z</time>
      </trkpt>
      <trkpt lat="45.92463" lon="4.73494">
        <ele>173</ele>
        <time>2018-06-26T11:00:35Z</time>
      </trkpt>
      <trkpt lat="45.92464" lon="4.73502">
        <ele>174</ele>
        <time>2018-06-26T11:00:36Z</time>
      </trkpt>
      <trkpt lat="45.92464" lon="4.73509">
        <ele>174</ele>
        <time>2018-06-26T11:00:37Z</time>
      </trkpt>
      <trkpt lat="45.92465" lon="4.7352">
        <ele>174</ele>
        <time>2018-06-26T11:00:39Z</time>
      </trkpt>
      <trkpt lat="45.92465" lon="4.73526">
        <ele>174</ele>
        <time>2018-06-26T11:00:40Z</time>
      </trkpt>
      <trkpt lat="45.92463" lon="4.73538">
        <ele>174</ele>
        <time>2018-06-26T11:00:42Z</time>
      </trkpt>
      <trkpt lat="45.92462" lon="4.73546">
        <ele>173</ele>
        <time>2018-06-26T11:00:43Z</time>
      </trkpt>
      <trkpt lat="45.92461" lon="4.73557">
        <ele>173</ele>
        <time>2018-06-26T11:00:45Z</time>
      </trkpt>
      <trkpt lat="45.92461" lon="4.73565">
        <ele>173</ele>
        <time>2018-06-26T11:00:46Z</time>
      </trkpt>
      <trkpt lat="45.92462" lon="4.73575">
        <ele>173</ele>
        <time>2018-06-26T11:00:47Z</time>
      </trkpt>
      <trkpt lat="45.92463" lon="4.73584">
        <ele>174</ele>
        <time>2018-06-26T11:00:48Z</time>
      </trkpt>
      <trkpt lat="45.92464" lon="4.73592">
        <ele>174</ele>
        <time>2018-06-26T11:00:49Z</time>
      </trkpt>
      <trkpt lat="45.92464" lon="4.736">
        <ele>174</ele>
        <time>2018-06-26T11:00:50Z</time>
      </trkpt>
      <trkpt lat="45.92465" lon="4.73609">
        <ele>174</ele>
        <time>2018-06-26T11:00:51Z</time>
      </trkpt>
      <trkpt lat="45.92466" lon="4.73617">
        <ele>174</ele>
        <time>2018-06-26T11:00:52Z</time>
      </trkpt>
      <trkpt lat="45.92467" lon="4.73625">
        <ele>174</ele>
        <time>2018-06-26T11:00:53Z</time>
      </trkpt>
      <trkpt lat="45.92468" lon="4.73634">
        <ele>174</ele>
        <time>2018-06-26T11:00:54Z</time>
      </trkpt>
      <trkpt lat="45.92467" lon="4.73642">
        <ele>174</ele>
        <time>2018-06-26T11:00:55Z</time>
      </trkpt>
      <trkpt lat="45.92469" lon="4.73649">
        <ele>174</ele>
        <time>2018-06-26T11:00:56Z</time>
      </trkpt>
      <trkpt lat="45.92469" lon="4.73656">
        <ele>174</ele>
        <time>2018-06-26T11:00:57Z</time>
      </trkpt>
      <trkpt lat="45.92469" lon="4.73663">
        <ele>174</ele>
        <time>2018-06-26T11:00:58Z</time>
      </trkpt>
      <trkpt lat="45.92468" lon="4.7367">
        <ele>174</ele>
        <time>2018-06-26T11:00:59Z</time>
      </trkpt>
      <trkpt lat="45.92469" lon="4.73677">
        <ele>174</ele>
        <time>2018-06-26T11:01:00Z</time>
      </trkpt>
      <trkpt lat="45.92467" lon="4.73689">
        <ele>174</ele>
        <time>2018-06-26T11:01:02Z</time>
      </trkpt>
      <trkpt lat="45.92467" lon="4.73696">
        <ele>174</ele>
        <time>2018-06-26T11:01:03Z</time>
      </trkpt>
      <trkpt lat="45.92465" lon="4.73709">
        <ele>174</ele>
        <time>2018-06-26T11:01:14Z</time>
      </trkpt>
      <trkpt lat="45.92464" lon="4.73709">
        <ele>174</ele>
        <time>2018-06-26T11:01:15Z</time>
      </trkpt>
      <trkpt lat="45.92459" lon="4.7371">
        <ele>174</ele>
        <time>2018-06-26T11:01:45.229Z</time>
      </trkpt>
    </trkseg>
  </trk>
</gpx>